<?xml version='1.0' encoding='UTF-8'?><gpx version="1.1" creator="JPX - https://github.com/jenetics/jpx" xmlns="http://www.topografix.com/GPX/1/1"><trk><trkseg><trkpt lat="40.77634530751129" lon="9.656817539755616"><ele>10.0</ele><time>2026-05-01T08:02:41Z</time></trkpt><trkpt lat="40.776277062211484" lon="9.656802968229908"><ele>10.0</ele><time>2026-05-01T08:02:42Z</time></trkpt><trkpt lat="40.77619818032778" lon="9.656781650246533"><ele>10.0</ele><time>2026-05-01T08:02:43Z</time></trkpt><trkpt lat="40.77611179652037" lon="9.65675833053232"><ele>10.0</ele><time>2026-05-01T08:02:44Z</time></trkpt><trkpt lat="40.776018216237055" lon="9.656733606846815"><ele>10.0</ele><time>2026-05-01T08:02:45Z</time></trkpt><trkpt lat="40.77592610632632" lon="9.656704136287049"><ele>10.0</ele><time>2026-05-01T08:02:46Z</time></trkpt><trkpt lat="40.775850907746545" lon="9.65668670012777"><ele>10.166666666666668</ele><time>2026-05-01T08:02:47Z</time></trkpt><trkpt lat="40.77577599086416" lon="9.65666195659343"><ele>10.333333333333334</ele><time>2026-05-01T08:02:48Z</time></trkpt><trkpt lat="40.775696519138116" lon="9.65662960899635"><ele>10.5</ele><time>2026-05-01T08:02:49Z</time></trkpt><trkpt lat="40.77561418372167" lon="9.656596609691617"><ele>10.666666666666666</ele><time>2026-05-01T08:02:50Z</time></trkpt><trkpt lat="40.775524828242126" lon="9.656567290769628"><ele>10.833333333333332</ele><time>2026-05-01T08:02:51Z</time></trkpt><trkpt lat="40.77543100268359" lon="9.656536376370235"><ele>11.0</ele><time>2026-05-01T08:02:52Z</time></trkpt><trkpt lat="40.77532788327572" lon="9.656504894201245"><ele>11.0</ele><time>2026-05-01T08:02:53Z</time></trkpt><trkpt lat="40.77521378445908" lon="9.656471234916506"><ele>11.0</ele><time>2026-05-01T08:02:54Z</time></trkpt><trkpt lat="40.775099722041304" lon="9.656435579164631"><ele>11.0</ele><time>2026-05-01T08:02:55Z</time></trkpt><trkpt lat="40.774988230271646" lon="9.656390337156978"><ele>11.0</ele><time>2026-05-01T08:02:56Z</time></trkpt><trkpt lat="40.77488219206966" lon="9.656356051109377"><ele>10.8</ele><time>2026-05-01T08:02:57Z</time></trkpt><trkpt lat="40.77479142798267" lon="9.65632806981598"><ele>10.600000000000001</ele><time>2026-05-01T08:02:58Z</time></trkpt><trkpt lat="40.77471058052242" lon="9.656304069749584"><ele>10.4</ele><time>2026-05-01T08:02:59Z</time></trkpt><trkpt lat="40.77462843464774" lon="9.656276899387855"><ele>10.2</ele><time>2026-05-01T08:03:00Z</time></trkpt><trkpt lat="40.774528378440316" lon="9.65623993744775"><ele>10.0</ele><time>2026-05-01T08:03:01Z</time></trkpt><trkpt lat="40.77441657016705" lon="9.6562095900394"><ele>10.2</ele><time>2026-05-01T08:03:02Z</time></trkpt><trkpt lat="40.7743099817998" lon="9.656171621464628"><ele>10.4</ele><time>2026-05-01T08:03:03Z</time></trkpt><trkpt lat="40.774202938482254" lon="9.656137165663985"><ele>10.600000000000001</ele><time>2026-05-01T08:03:04Z</time></trkpt><trkpt lat="40.77409952321567" lon="9.65610546597697"><ele>10.8</ele><time>2026-05-01T08:03:05Z</time></trkpt><trkpt lat="40.77400017956697" lon="9.656071730410876"><ele>11.0</ele><time>2026-05-01T08:03:06Z</time></trkpt><trkpt lat="40.773897265400976" lon="9.656039323195465"><ele>11.5</ele><time>2026-05-01T08:03:07Z</time></trkpt><trkpt lat="40.773792208641154" lon="9.655999076758576"><ele>12.0</ele><time>2026-05-01T08:03:08Z</time></trkpt><trkpt lat="40.77367756142034" lon="9.655947830338569"><ele>12.5</ele><time>2026-05-01T08:03:09Z</time></trkpt><trkpt lat="40.77355272316862" lon="9.65589415336092"><ele>13.0</ele><time>2026-05-01T08:03:10Z</time></trkpt><trkpt lat="40.77342264797071" lon="9.655830736279905"><ele>13.0</ele><time>2026-05-01T08:03:11Z</time></trkpt><trkpt lat="40.77328491890076" lon="9.655759899973503"><ele>13.0</ele><time>2026-05-01T08:03:12Z</time></trkpt><trkpt lat="40.77314005329211" lon="9.655687474277476"><ele>13.0</ele><time>2026-05-01T08:03:13Z</time></trkpt><trkpt lat="40.7729910588887" lon="9.655612671197735"><ele>13.0</ele><time>2026-05-01T08:03:14Z</time></trkpt><trkpt lat="40.77283151660833" lon="9.655528974934919"><ele>13.0</ele><time>2026-05-01T08:03:15Z</time></trkpt><trkpt lat="40.772665042547196" lon="9.65544168352103"><ele>13.0</ele><time>2026-05-01T08:03:16Z</time></trkpt><trkpt lat="40.772486126257" lon="9.655352116678392"><ele>13.666666666666666</ele><time>2026-05-01T08:03:17Z</time></trkpt><trkpt lat="40.772307466539054" lon="9.655255896668683"><ele>14.333333333333332</ele><time>2026-05-01T08:03:18Z</time></trkpt><trkpt lat="40.772120847632735" lon="9.655162600107962"><ele>15.0</ele><time>2026-05-01T08:03:19Z</time></trkpt><trkpt lat="40.77193166088676" lon="9.6550613265813"><ele>15.666666666666668</ele><time>2026-05-01T08:03:20Z</time></trkpt><trkpt lat="40.771746786979556" lon="9.65496333061637"><ele>16.333333333333336</ele><time>2026-05-01T08:03:21Z</time></trkpt><trkpt lat="40.77157932969902" lon="9.65487460993009"><ele>17.0</ele><time>2026-05-01T08:03:22Z</time></trkpt><trkpt lat="40.77140892739412" lon="9.654784130280886"><ele>17.0</ele><time>2026-05-01T08:03:23Z</time></trkpt><trkpt lat="40.771246584590365" lon="9.654702151565953"><ele>17.0</ele><time>2026-05-01T08:03:24Z</time></trkpt><trkpt lat="40.77110094820787" lon="9.65462578892112"><ele>17.0</ele><time>2026-05-01T08:03:25Z</time></trkpt><trkpt lat="40.77096615748742" lon="9.654556749900978"><ele>16.75</ele><time>2026-05-01T08:03:26Z</time></trkpt><trkpt lat="40.77084143849349" lon="9.654492879095383"><ele>16.5</ele><time>2026-05-01T08:03:27Z</time></trkpt><trkpt lat="40.770714636302806" lon="9.654428832700502"><ele>16.25</ele><time>2026-05-01T08:03:28Z</time></trkpt><trkpt lat="40.77059486360912" lon="9.654344519255009"><ele>16.0</ele><time>2026-05-01T08:03:29Z</time></trkpt><trkpt lat="40.77046151477922" lon="9.654297320090395"><ele>17.0</ele><time>2026-05-01T08:03:30Z</time></trkpt><trkpt lat="40.77034364028943" lon="9.654223343006542"><ele>18.0</ele><time>2026-05-01T08:03:31Z</time></trkpt><trkpt lat="40.77021430597515" lon="9.654213343215654"><ele>19.0</ele><time>2026-05-01T08:03:32Z</time></trkpt><trkpt lat="40.77007631556609" lon="9.65420508693428"><ele>20.0</ele><time>2026-05-01T08:03:33Z</time></trkpt><trkpt lat="40.76992968330644" lon="9.654216355233528"><ele>20.666666666666668</ele><time>2026-05-01T08:03:34Z</time></trkpt><trkpt lat="40.76977882458171" lon="9.654235730994357"><ele>21.333333333333332</ele><time>2026-05-01T08:03:35Z</time></trkpt><trkpt lat="40.76962242409647" lon="9.654255350953141"><ele>22.0</ele><time>2026-05-01T08:03:36Z</time></trkpt><trkpt lat="40.76946313174471" lon="9.654272104576"><ele>23.333333333333332</ele><time>2026-05-01T08:03:37Z</time></trkpt><trkpt lat="40.769303207437936" lon="9.65428922283203"><ele>24.666666666666664</ele><time>2026-05-01T08:03:38Z</time></trkpt><trkpt lat="40.76914474266463" lon="9.654310185417705"><ele>26.0</ele><time>2026-05-01T08:03:39Z</time></trkpt><trkpt lat="40.76898302552192" lon="9.654325347072097"><ele>26.0</ele><time>2026-05-01T08:03:40Z</time></trkpt><trkpt lat="40.76882727087613" lon="9.65434163950056"><ele>26.0</ele><time>2026-05-01T08:03:41Z</time></trkpt><trkpt lat="40.7686740667657" lon="9.654363607300764"><ele>26.0</ele><time>2026-05-01T08:03:42Z</time></trkpt><trkpt lat="40.76852236922649" lon="9.65438093777929"><ele>26.75</ele><time>2026-05-01T08:03:43Z</time></trkpt><trkpt lat="40.76837338691307" lon="9.654393960675597"><ele>27.5</ele><time>2026-05-01T08:03:44Z</time></trkpt><trkpt lat="40.76822676792235" lon="9.654408251166833"><ele>28.25</ele><time>2026-05-01T08:03:45Z</time></trkpt><trkpt lat="40.76808262873911" lon="9.65442345128229"><ele>29.0</ele><time>2026-05-01T08:03:46Z</time></trkpt><trkpt lat="40.76794128513711" lon="9.654443388235403"><ele>28.5</ele><time>2026-05-01T08:03:47Z</time></trkpt><trkpt lat="40.76780248376942" lon="9.654458898831761"><ele>28.0</ele><time>2026-05-01T08:03:48Z</time></trkpt><trkpt lat="40.76766567463656" lon="9.654474907007478"><ele>27.5</ele><time>2026-05-01T08:03:49Z</time></trkpt><trkpt lat="40.76752056771027" lon="9.65448875858967"><ele>27.0</ele><time>2026-05-01T08:03:50Z</time></trkpt><trkpt lat="40.76736792296154" lon="9.654502145297306"><ele>28.333333333333336</ele><time>2026-05-01T08:03:51Z</time></trkpt><trkpt lat="40.76720926706744" lon="9.654505787279044"><ele>29.666666666666668</ele><time>2026-05-01T08:03:52Z</time></trkpt><trkpt lat="40.767044955734065" lon="9.654495960579434"><ele>31.0</ele><time>2026-05-01T08:03:53Z</time></trkpt><trkpt lat="40.76687822589302" lon="9.654478116351337"><ele>31.0</ele><time>2026-05-01T08:03:54Z</time></trkpt><trkpt lat="40.766719228575205" lon="9.65446060516749"><ele>31.0</ele><time>2026-05-01T08:03:55Z</time></trkpt><trkpt lat="40.76657564066636" lon="9.654447483541984"><ele>31.0</ele><time>2026-05-01T08:03:56Z</time></trkpt><trkpt lat="40.76644339716758" lon="9.6544357082216"><ele>31.0</ele><time>2026-05-01T08:03:57Z</time></trkpt><trkpt lat="40.76631739598904" lon="9.65442375818393"><ele>31.200000000000003</ele><time>2026-05-01T08:03:58Z</time></trkpt><trkpt lat="40.766205774752315" lon="9.654412243583497"><ele>31.400000000000002</ele><time>2026-05-01T08:03:59Z</time></trkpt><trkpt lat="40.76610397955331" lon="9.654402526561855"><ele>31.6</ele><time>2026-05-01T08:04:00Z</time></trkpt><trkpt lat="40.766021825311796" lon="9.654394460253963"><ele>31.8</ele><time>2026-05-01T08:04:01Z</time></trkpt><trkpt lat="40.765918888814156" lon="9.654384335623014"><ele>32.0</ele><time>2026-05-01T08:04:03Z</time></trkpt><trkpt lat="40.765847289424286" lon="9.654376506148076"><ele>31.999999999999996</ele><time>2026-05-01T08:04:05Z</time></trkpt><trkpt lat="40.76577585021097" lon="9.654369975176436"><ele>32.0</ele><time>2026-05-01T08:04:07Z</time></trkpt><trkpt lat="40.76571045206655" lon="9.654364617082908"><ele>32.0</ele><time>2026-05-01T08:04:16Z</time></trkpt><trkpt lat="40.765615340527354" lon="9.654359227655918"><ele>32.0</ele><time>2026-05-01T08:04:18Z</time></trkpt><trkpt lat="40.76552656833723" lon="9.654346827144666"><ele>31.999999999999996</ele><time>2026-05-01T08:04:19Z</time></trkpt><trkpt lat="40.765422639348905" lon="9.65433457774952"><ele>32.0</ele><time>2026-05-01T08:04:20Z</time></trkpt><trkpt lat="40.765313022875795" lon="9.654327100840543"><ele>32.0</ele><time>2026-05-01T08:04:21Z</time></trkpt><trkpt lat="40.76520070202226" lon="9.654294534045698"><ele>32.0</ele><time>2026-05-01T08:04:22Z</time></trkpt><trkpt lat="40.765078254023486" lon="9.654281891973088"><ele>32.0</ele><time>2026-05-01T08:04:23Z</time></trkpt><trkpt lat="40.76496159051533" lon="9.65429106634686"><ele>32.0</ele><time>2026-05-01T08:04:24Z</time></trkpt><trkpt lat="40.764860610683996" lon="9.654259421504403"><ele>31.999999999999996</ele><time>2026-05-01T08:04:25Z</time></trkpt><trkpt lat="40.764770333604446" lon="9.654249840877604"><ele>32.0</ele><time>2026-05-01T08:04:26Z</time></trkpt><trkpt lat="40.76468525350472" lon="9.654240899909096"><ele>32.0</ele><time>2026-05-01T08:04:27Z</time></trkpt><trkpt lat="40.76461111031144" lon="9.654233108287206"><ele>32.0</ele><time>2026-05-01T08:04:28Z</time></trkpt><trkpt lat="40.764541179040144" lon="9.654225759282657"><ele>31.999999999999996</ele><time>2026-05-01T08:04:29Z</time></trkpt><trkpt lat="40.76442903948155" lon="9.6542134046651"><ele>32.0</ele><time>2026-05-01T08:04:31Z</time></trkpt><trkpt lat="40.76433733714233" lon="9.654203418787159"><ele>31.333333333333332</ele><time>2026-05-01T08:04:33Z</time></trkpt><trkpt lat="40.76423405435067" lon="9.654192506740891"><ele>30.666666666666664</ele><time>2026-05-01T08:04:35Z</time></trkpt><trkpt lat="40.76418141847898" lon="9.65423999634815"><ele>30.0</ele><time>2026-05-01T08:04:36Z</time></trkpt><trkpt lat="40.7640991702275" lon="9.654230448633804"><ele>29.333333333333336</ele><time>2026-05-01T08:04:38Z</time></trkpt><trkpt lat="40.76401846140117" lon="9.654212729072922"><ele>28.666666666666668</ele><time>2026-05-01T08:04:40Z</time></trkpt><trkpt lat="40.763928117785795" lon="9.654214449237656"><ele>28.0</ele><time>2026-05-01T08:04:42Z</time></trkpt><trkpt lat="40.7638017539104" lon="9.654199824283925"><ele>28.000000000000004</ele><time>2026-05-01T08:04:44Z</time></trkpt><trkpt lat="40.763715401726955" lon="9.654185148935387"><ele>28.0</ele><time>2026-05-01T08:04:45Z</time></trkpt><trkpt lat="40.763627199476666" lon="9.654179550873822"><ele>28.0</ele><time>2026-05-01T08:04:46Z</time></trkpt><trkpt lat="40.76355214254426" lon="9.654170004492869"><ele>28.0</ele><time>2026-05-01T08:04:47Z</time></trkpt><trkpt lat="40.76348679250039" lon="9.654165918284098"><ele>28.000000000000004</ele><time>2026-05-01T08:04:48Z</time></trkpt><trkpt lat="40.76341737049068" lon="9.654108547848075"><ele>28.0</ele><time>2026-05-01T08:04:49Z</time></trkpt><trkpt lat="40.76333728434151" lon="9.654099992546701"><ele>27.4</ele><time>2026-05-01T08:04:50Z</time></trkpt><trkpt lat="40.76324598712334" lon="9.65409023960699"><ele>26.799999999999997</ele><time>2026-05-01T08:04:51Z</time></trkpt><trkpt lat="40.76314560285469" lon="9.654080652224334"><ele>26.2</ele><time>2026-05-01T08:04:52Z</time></trkpt><trkpt lat="40.763035500947986" lon="9.654069065584002"><ele>25.6</ele><time>2026-05-01T08:04:53Z</time></trkpt><trkpt lat="40.76292005733476" lon="9.654057062359447"><ele>25.0</ele><time>2026-05-01T08:04:54Z</time></trkpt><trkpt lat="40.762795643991694" lon="9.654044260985934"><ele>26.0</ele><time>2026-05-01T08:04:55Z</time></trkpt><trkpt lat="40.76266317582365" lon="9.654069924619227"><ele>27.0</ele><time>2026-05-01T08:04:56Z</time></trkpt><trkpt lat="40.76252879975901" lon="9.654043040767846"><ele>28.0</ele><time>2026-05-01T08:04:57Z</time></trkpt><trkpt lat="40.76237965164134" lon="9.654011284186588"><ele>29.0</ele><time>2026-05-01T08:04:58Z</time></trkpt><trkpt lat="40.76221922134503" lon="9.653986771732505"><ele>29.0</ele><time>2026-05-01T08:04:59Z</time></trkpt><trkpt lat="40.76205558041121" lon="9.653972149727577"><ele>29.0</ele><time>2026-05-01T08:05:00Z</time></trkpt><trkpt lat="40.761893428754355" lon="9.653959357292116"><ele>29.0</ele><time>2026-05-01T08:05:01Z</time></trkpt><trkpt lat="40.761729976340234" lon="9.653937971232143"><ele>29.25</ele><time>2026-05-01T08:05:02Z</time></trkpt><trkpt lat="40.76157761962687" lon="9.653905876773926"><ele>29.5</ele><time>2026-05-01T08:05:03Z</time></trkpt><trkpt lat="40.761445761401966" lon="9.653869664978359"><ele>29.75</ele><time>2026-05-01T08:05:04Z</time></trkpt><trkpt lat="40.76132032784155" lon="9.653828304782639"><ele>30.0</ele><time>2026-05-01T08:05:05Z</time></trkpt><trkpt lat="40.761189677967046" lon="9.653776531534582"><ele>30.0</ele><time>2026-05-01T08:05:06Z</time></trkpt><trkpt lat="40.76106258933793" lon="9.653710443247663"><ele>30.0</ele><time>2026-05-01T08:05:07Z</time></trkpt><trkpt lat="40.760955461196524" lon="9.653641886013899"><ele>30.0</ele><time>2026-05-01T08:05:08Z</time></trkpt><trkpt lat="40.76087028729966" lon="9.653566162545728"><ele>30.0</ele><time>2026-05-01T08:05:09Z</time></trkpt><trkpt lat="40.76081791584545" lon="9.653476336901857"><ele>30.0</ele><time>2026-05-01T08:05:10Z</time></trkpt><trkpt lat="40.76076551937218" lon="9.653391325185192"><ele>30.6</ele><time>2026-05-01T08:05:11Z</time></trkpt><trkpt lat="40.76073398472934" lon="9.653305095173062"><ele>31.2</ele><time>2026-05-01T08:05:12Z</time></trkpt><trkpt lat="40.76071235636401" lon="9.653222067719998"><ele>31.799999999999997</ele><time>2026-05-01T08:05:13Z</time></trkpt><trkpt lat="40.76069968936415" lon="9.653020727825236"><ele>32.4</ele><time>2026-05-01T08:05:15Z</time></trkpt><trkpt lat="40.76074990447609" lon="9.652870922486501"><ele>33.0</ele><time>2026-05-01T08:05:16Z</time></trkpt><trkpt lat="40.76077714289428" lon="9.652716014216317"><ele>33.5</ele><time>2026-05-01T08:05:17Z</time></trkpt><trkpt lat="40.760802365069004" lon="9.652557354300903"><ele>34.0</ele><time>2026-05-01T08:05:18Z</time></trkpt><trkpt lat="40.76082186833213" lon="9.652389651819066"><ele>34.5</ele><time>2026-05-01T08:05:19Z</time></trkpt><trkpt lat="40.76083362123863" lon="9.652214129350282"><ele>35.0</ele><time>2026-05-01T08:05:20Z</time></trkpt><trkpt lat="40.76083849082978" lon="9.652031188366708"><ele>35.25</ele><time>2026-05-01T08:05:21Z</time></trkpt><trkpt lat="40.760845101678996" lon="9.651847723829105"><ele>35.5</ele><time>2026-05-01T08:05:22Z</time></trkpt><trkpt lat="40.76083984005796" lon="9.651671265618013"><ele>35.75</ele><time>2026-05-01T08:05:23Z</time></trkpt><trkpt lat="40.7608228989959" lon="9.651480705389627"><ele>36.0</ele><time>2026-05-01T08:05:24Z</time></trkpt><trkpt lat="40.76079966364186" lon="9.65128244369841"><ele>34.666666666666664</ele><time>2026-05-01T08:05:25Z</time></trkpt><trkpt lat="40.76077247590101" lon="9.65107892123001"><ele>33.33333333333333</ele><time>2026-05-01T08:05:26Z</time></trkpt><trkpt lat="40.76073945933704" lon="9.650866059512804"><ele>32.0</ele><time>2026-05-01T08:05:27Z</time></trkpt><trkpt lat="40.76069886913057" lon="9.650658757494151"><ele>32.0</ele><time>2026-05-01T08:05:28Z</time></trkpt><trkpt lat="40.76063831039166" lon="9.650463696390968"><ele>32.0</ele><time>2026-05-01T08:05:29Z</time></trkpt><trkpt lat="40.76056140613135" lon="9.650279249899116"><ele>32.0</ele><time>2026-05-01T08:05:30Z</time></trkpt><trkpt lat="40.76047986473968" lon="9.650093397979978"><ele>31.666666666666664</ele><time>2026-05-01T08:05:31Z</time></trkpt><trkpt lat="40.76039804387113" lon="9.64990427657081"><ele>31.333333333333336</ele><time>2026-05-01T08:05:32Z</time></trkpt><trkpt lat="40.760311539517375" lon="9.649713244364873"><ele>31.0</ele><time>2026-05-01T08:05:33Z</time></trkpt><trkpt lat="40.760223353751414" lon="9.649504032104288"><ele>32.333333333333336</ele><time>2026-05-01T08:05:34Z</time></trkpt><trkpt lat="40.76013336783232" lon="9.649282124083093"><ele>33.666666666666664</ele><time>2026-05-01T08:05:35Z</time></trkpt><trkpt lat="40.7600435623566" lon="9.649053545717566"><ele>35.0</ele><time>2026-05-01T08:05:36Z</time></trkpt><trkpt lat="40.75997287958429" lon="9.648804912838596"><ele>36.0</ele><time>2026-05-01T08:05:37Z</time></trkpt><trkpt lat="40.75989471977519" lon="9.64855644056405"><ele>37.0</ele><time>2026-05-01T08:05:38Z</time></trkpt><trkpt lat="40.75981814029801" lon="9.648299549685767"><ele>38.0</ele><time>2026-05-01T08:05:39Z</time></trkpt><trkpt lat="40.759740997097914" lon="9.648040555490523"><ele>38.666666666666664</ele><time>2026-05-01T08:05:40Z</time></trkpt><trkpt lat="40.759667399643384" lon="9.647793465419326"><ele>39.333333333333336</ele><time>2026-05-01T08:05:41Z</time></trkpt><trkpt lat="40.75958334853032" lon="9.647568156578666"><ele>40.0</ele><time>2026-05-01T08:05:42Z</time></trkpt><trkpt lat="40.75950925863272" lon="9.647322004341678"><ele>40.0</ele><time>2026-05-01T08:05:43Z</time></trkpt><trkpt lat="40.7594382084382" lon="9.647064297359437"><ele>40.0</ele><time>2026-05-01T08:05:44Z</time></trkpt><trkpt lat="40.75935974575799" lon="9.646804496570786"><ele>40.0</ele><time>2026-05-01T08:05:45Z</time></trkpt><trkpt lat="40.75928193523315" lon="9.646538475454143"><ele>41.0</ele><time>2026-05-01T08:05:46Z</time></trkpt><trkpt lat="40.75920199408876" lon="9.646269092186843"><ele>42.0</ele><time>2026-05-01T08:05:47Z</time></trkpt><trkpt lat="40.759117458896455" lon="9.645987982166064"><ele>43.0</ele><time>2026-05-01T08:05:48Z</time></trkpt><trkpt lat="40.759033136824456" lon="9.645702148327004"><ele>44.5</ele><time>2026-05-01T08:05:49Z</time></trkpt><trkpt lat="40.758949031014566" lon="9.645416066313514"><ele>46.0</ele><time>2026-05-01T08:05:50Z</time></trkpt><trkpt lat="40.75886576485222" lon="9.645132148129555"><ele>47.66666666666667</ele><time>2026-05-01T08:05:51Z</time></trkpt><trkpt lat="40.75878439904618" lon="9.644855106628178"><ele>49.333333333333336</ele><time>2026-05-01T08:05:52Z</time></trkpt><trkpt lat="40.75870498415562" lon="9.644582933293908"><ele>51.0</ele><time>2026-05-01T08:05:53Z</time></trkpt><trkpt lat="40.758627155852786" lon="9.644319188998283"><ele>51.33333333333333</ele><time>2026-05-01T08:05:54Z</time></trkpt><trkpt lat="40.75855883366509" lon="9.644082047810441"><ele>51.666666666666664</ele><time>2026-05-01T08:05:55Z</time></trkpt><trkpt lat="40.75850429745496" lon="9.643862251370146"><ele>52.0</ele><time>2026-05-01T08:05:56Z</time></trkpt><trkpt lat="40.75846219098236" lon="9.643652993710585"><ele>53.33333333333333</ele><time>2026-05-01T08:05:57Z</time></trkpt><trkpt lat="40.7584291531671" lon="9.643439987634084"><ele>54.66666666666667</ele><time>2026-05-01T08:05:58Z</time></trkpt><trkpt lat="40.75840587340099" lon="9.643229749102897"><ele>56.0</ele><time>2026-05-01T08:05:59Z</time></trkpt><trkpt lat="40.75838877685032" lon="9.64302378714471"><ele>56.0</ele><time>2026-05-01T08:06:00Z</time></trkpt><trkpt lat="40.75837441070943" lon="9.642827414522898"><ele>56.0</ele><time>2026-05-01T08:06:01Z</time></trkpt><trkpt lat="40.75836242401949" lon="9.64265334202741"><ele>56.0</ele><time>2026-05-01T08:06:02Z</time></trkpt><trkpt lat="40.75837533979019" lon="9.642498707058493"><ele>56.0</ele><time>2026-05-01T08:06:03Z</time></trkpt><trkpt lat="40.75838667751523" lon="9.642359305248096"><ele>55.75</ele><time>2026-05-01T08:06:04Z</time></trkpt><trkpt lat="40.75838591183097" lon="9.642212867083103"><ele>55.5</ele><time>2026-05-01T08:06:05Z</time></trkpt><trkpt lat="40.75841434687726" lon="9.642053691253707"><ele>55.25</ele><time>2026-05-01T08:06:06Z</time></trkpt><trkpt lat="40.75844466549669" lon="9.641879511041573"><ele>55.0</ele><time>2026-05-01T08:06:07Z</time></trkpt><trkpt lat="40.7584757369908" lon="9.6416974249395"><ele>55.75</ele><time>2026-05-01T08:06:08Z</time></trkpt><trkpt lat="40.75850438852946" lon="9.641511876897482"><ele>56.5</ele><time>2026-05-01T08:06:09Z</time></trkpt><trkpt lat="40.75853126094434" lon="9.64133596794153"><ele>57.25</ele><time>2026-05-01T08:06:10Z</time></trkpt><trkpt lat="40.75855784088697" lon="9.641169219239748"><ele>58.0</ele><time>2026-05-01T08:06:11Z</time></trkpt><trkpt lat="40.75858397704871" lon="9.64100711596562"><ele>59.75</ele><time>2026-05-01T08:06:12Z</time></trkpt><trkpt lat="40.75861132797687" lon="9.640845999311098"><ele>61.5</ele><time>2026-05-01T08:06:13Z</time></trkpt><trkpt lat="40.75862773626003" lon="9.640686671149762"><ele>63.25</ele><time>2026-05-01T08:06:14Z</time></trkpt><trkpt lat="40.75867758412354" lon="9.640553885326263"><ele>65.0</ele><time>2026-05-01T08:06:15Z</time></trkpt><trkpt lat="40.75874192076359" lon="9.640450058975553"><ele>65.0</ele><time>2026-05-01T08:06:16Z</time></trkpt><trkpt lat="40.75884045531325" lon="9.64037237172667"><ele>65.0</ele><time>2026-05-01T08:06:17Z</time></trkpt><trkpt lat="40.75894777780563" lon="9.64030737360957"><ele>65.0</ele><time>2026-05-01T08:06:18Z</time></trkpt><trkpt lat="40.75906797665296" lon="9.6402980800718"><ele>65.0</ele><time>2026-05-01T08:06:19Z</time></trkpt><trkpt lat="40.75919960289644" lon="9.640336262143052"><ele>65.0</ele><time>2026-05-01T08:06:20Z</time></trkpt><trkpt lat="40.759322189776604" lon="9.64042105227804"><ele>65.0</ele><time>2026-05-01T08:06:21Z</time></trkpt><trkpt lat="40.7594163995848" lon="9.64056599890568"><ele>65.0</ele><time>2026-05-01T08:06:22Z</time></trkpt><trkpt lat="40.75946187103921" lon="9.6407145405614"><ele>65.0</ele><time>2026-05-01T08:06:23Z</time></trkpt><trkpt lat="40.75948218292084" lon="9.640879014659546"><ele>64.25</ele><time>2026-05-01T08:06:24Z</time></trkpt><trkpt lat="40.75947452553819" lon="9.641069716738782"><ele>63.5</ele><time>2026-05-01T08:06:25Z</time></trkpt><trkpt lat="40.75938557386772" lon="9.64123130436668"><ele>62.75</ele><time>2026-05-01T08:06:26Z</time></trkpt><trkpt lat="40.759303978925644" lon="9.641366419190172"><ele>62.0</ele><time>2026-05-01T08:06:27Z</time></trkpt><trkpt lat="40.75916473748758" lon="9.64142101238763"><ele>62.0</ele><time>2026-05-01T08:06:28Z</time></trkpt><trkpt lat="40.759020383311906" lon="9.641448186616003"><ele>62.0</ele><time>2026-05-01T08:06:29Z</time></trkpt><trkpt lat="40.75887717603785" lon="9.641412243557943"><ele>62.0</ele><time>2026-05-01T08:06:30Z</time></trkpt><trkpt lat="40.75875662845262" lon="9.641313993403582"><ele>62.0</ele><time>2026-05-01T08:06:31Z</time></trkpt><trkpt lat="40.75864377055069" lon="9.641192285620264"><ele>62.333333333333336</ele><time>2026-05-01T08:06:32Z</time></trkpt><trkpt lat="40.75854429694668" lon="9.641037881813782"><ele>62.66666666666667</ele><time>2026-05-01T08:06:33Z</time></trkpt><trkpt lat="40.75842794476793" lon="9.640895341932948"><ele>63.0</ele><time>2026-05-01T08:06:34Z</time></trkpt><trkpt lat="40.75830093872293" lon="9.640752373737449"><ele>63.0</ele><time>2026-05-01T08:06:35Z</time></trkpt><trkpt lat="40.758170669145336" lon="9.64061056774451"><ele>63.0</ele><time>2026-05-01T08:06:36Z</time></trkpt><trkpt lat="40.75803452479621" lon="9.640464048833339"><ele>63.0</ele><time>2026-05-01T08:06:37Z</time></trkpt><trkpt lat="40.75789299369967" lon="9.640322053037776"><ele>64.33333333333333</ele><time>2026-05-01T08:06:38Z</time></trkpt><trkpt lat="40.75774315812131" lon="9.640191966490008"><ele>65.66666666666666</ele><time>2026-05-01T08:06:39Z</time></trkpt><trkpt lat="40.75758812160725" lon="9.640071819467659"><ele>67.0</ele><time>2026-05-01T08:06:40Z</time></trkpt><trkpt lat="40.75742994358519" lon="9.639969189828825"><ele>67.0</ele><time>2026-05-01T08:06:41Z</time></trkpt><trkpt lat="40.75726858864166" lon="9.639875113955222"><ele>67.0</ele><time>2026-05-01T08:06:42Z</time></trkpt><trkpt lat="40.757102185558864" lon="9.639783370503638"><ele>67.0</ele><time>2026-05-01T08:06:43Z</time></trkpt><trkpt lat="40.756927170468835" lon="9.639685273744803"><ele>62.33333333333333</ele><time>2026-05-01T08:06:44Z</time></trkpt><trkpt lat="40.75674529430155" lon="9.639597730994756"><ele>57.66666666666667</ele><time>2026-05-01T08:06:45Z</time></trkpt><trkpt lat="40.75656129054739" lon="9.639519684648246"><ele>53.0</ele><time>2026-05-01T08:06:46Z</time></trkpt><trkpt lat="40.756377250943984" lon="9.639454952359017"><ele>53.0</ele><time>2026-05-01T08:06:47Z</time></trkpt><trkpt lat="40.75619492725412" lon="9.639400668414641"><ele>53.0</ele><time>2026-05-01T08:06:48Z</time></trkpt><trkpt lat="40.75601355415471" lon="9.639359335025901"><ele>53.0</ele><time>2026-05-01T08:06:49Z</time></trkpt><trkpt lat="40.75583448316906" lon="9.639327641098369"><ele>55.333333333333336</ele><time>2026-05-01T08:06:50Z</time></trkpt><trkpt lat="40.75565628167187" lon="9.63930667817755"><ele>57.66666666666667</ele><time>2026-05-01T08:06:51Z</time></trkpt><trkpt lat="40.7554797361526" lon="9.639294116483725"><ele>60.0</ele><time>2026-05-01T08:06:52Z</time></trkpt><trkpt lat="40.75530516528517" lon="9.639291582534254"><ele>61.66666666666667</ele><time>2026-05-01T08:06:53Z</time></trkpt><trkpt lat="40.75512799331291" lon="9.63929551573473"><ele>63.333333333333336</ele><time>2026-05-01T08:06:54Z</time></trkpt><trkpt lat="40.75494980456187" lon="9.639304723166024"><ele>65.0</ele><time>2026-05-01T08:06:55Z</time></trkpt><trkpt lat="40.75476980295876" lon="9.639325590319954"><ele>65.0</ele><time>2026-05-01T08:06:56Z</time></trkpt><trkpt lat="40.754591936254336" lon="9.639360863909781"><ele>65.0</ele><time>2026-05-01T08:06:57Z</time></trkpt><trkpt lat="40.75441532146681" lon="9.639404189654067"><ele>65.0</ele><time>2026-05-01T08:06:58Z</time></trkpt><trkpt lat="40.75424202633533" lon="9.639450635306185"><ele>65.0</ele><time>2026-05-01T08:06:59Z</time></trkpt><trkpt lat="40.75408296724237" lon="9.63950156322954"><ele>65.0</ele><time>2026-05-01T08:07:00Z</time></trkpt><trkpt lat="40.75393929541568" lon="9.639556342994114"><ele>65.0</ele><time>2026-05-01T08:07:01Z</time></trkpt><trkpt lat="40.75380787874985" lon="9.639617759837781"><ele>65.0</ele><time>2026-05-01T08:07:02Z</time></trkpt><trkpt lat="40.75367982479944" lon="9.639682220335667"><ele>65.0</ele><time>2026-05-01T08:07:03Z</time></trkpt><trkpt lat="40.753551835519374" lon="9.639745594658036"><ele>65.0</ele><time>2026-05-01T08:07:04Z</time></trkpt><trkpt lat="40.7534313892733" lon="9.639807118944217"><ele>65.0</ele><time>2026-05-01T08:07:05Z</time></trkpt><trkpt lat="40.75331856046545" lon="9.63986676985261"><ele>66.2</ele><time>2026-05-01T08:07:06Z</time></trkpt><trkpt lat="40.753211480118004" lon="9.63992611881978"><ele>67.4</ele><time>2026-05-01T08:07:07Z</time></trkpt><trkpt lat="40.75311559274183" lon="9.639980131910116"><ele>68.6</ele><time>2026-05-01T08:07:08Z</time></trkpt><trkpt lat="40.75302347737592" lon="9.64003019766475"><ele>69.8</ele><time>2026-05-01T08:07:09Z</time></trkpt><trkpt lat="40.75293162946109" lon="9.640077184512165"><ele>71.0</ele><time>2026-05-01T08:07:10Z</time></trkpt><trkpt lat="40.752841368934654" lon="9.640123930212885"><ele>71.0</ele><time>2026-05-01T08:07:11Z</time></trkpt><trkpt lat="40.75275089052461" lon="9.640169397691981"><ele>71.0</ele><time>2026-05-01T08:07:12Z</time></trkpt><trkpt lat="40.752647302092896" lon="9.640222758061785"><ele>71.0</ele><time>2026-05-01T08:07:13Z</time></trkpt><trkpt lat="40.75253059964958" lon="9.640281779763619"><ele>71.0</ele><time>2026-05-01T08:07:14Z</time></trkpt><trkpt lat="40.752402084265135" lon="9.640346679693485"><ele>71.0</ele><time>2026-05-01T08:07:15Z</time></trkpt><trkpt lat="40.75226224383736" lon="9.640411747483256"><ele>71.0</ele><time>2026-05-01T08:07:16Z</time></trkpt><trkpt lat="40.75211179985787" lon="9.640474897341674"><ele>71.0</ele><time>2026-05-01T08:07:17Z</time></trkpt><trkpt lat="40.751951000827496" lon="9.640527387197311"><ele>72.5</ele><time>2026-05-01T08:07:18Z</time></trkpt><trkpt lat="40.751796154990146" lon="9.640574948340342"><ele>74.0</ele><time>2026-05-01T08:07:19Z</time></trkpt><trkpt lat="40.75165492785737" lon="9.640609548804315"><ele>75.5</ele><time>2026-05-01T08:07:20Z</time></trkpt><trkpt lat="40.7515168534654" lon="9.64063593352228"><ele>77.0</ele><time>2026-05-01T08:07:21Z</time></trkpt><trkpt lat="40.751376393259235" lon="9.640659438256716"><ele>77.0</ele><time>2026-05-01T08:07:22Z</time></trkpt><trkpt lat="40.75123695527037" lon="9.640678513902083"><ele>77.0</ele><time>2026-05-01T08:07:23Z</time></trkpt><trkpt lat="40.75109440815711" lon="9.640688419242638"><ele>77.0</ele><time>2026-05-01T08:07:24Z</time></trkpt><trkpt lat="40.75094993158369" lon="9.640693489942883"><ele>77.0</ele><time>2026-05-01T08:07:25Z</time></trkpt><trkpt lat="40.750803669994944" lon="9.640691840751591"><ele>80.66666666666667</ele><time>2026-05-01T08:07:26Z</time></trkpt><trkpt lat="40.75065268612097" lon="9.640687518879641"><ele>84.33333333333333</ele><time>2026-05-01T08:07:27Z</time></trkpt><trkpt lat="40.750500074890745" lon="9.640672407699961"><ele>88.0</ele><time>2026-05-01T08:07:28Z</time></trkpt><trkpt lat="40.75034598775602" lon="9.64065016873637"><ele>90.0</ele><time>2026-05-01T08:07:29Z</time></trkpt><trkpt lat="40.7501890281782" lon="9.640621711849764"><ele>92.0</ele><time>2026-05-01T08:07:30Z</time></trkpt><trkpt lat="40.75002942356912" lon="9.640584556675737"><ele>94.0</ele><time>2026-05-01T08:07:31Z</time></trkpt><trkpt lat="40.74986965629865" lon="9.640544087407703"><ele>94.0</ele><time>2026-05-01T08:07:32Z</time></trkpt><trkpt lat="40.74970803632687" lon="9.640487008273272"><ele>94.0</ele><time>2026-05-01T08:07:33Z</time></trkpt><trkpt lat="40.749544540871675" lon="9.640422496186984"><ele>94.0</ele><time>2026-05-01T08:07:34Z</time></trkpt><trkpt lat="40.749377247586814" lon="9.640349283476361"><ele>95.66666666666666</ele><time>2026-05-01T08:07:35Z</time></trkpt><trkpt lat="40.74921059717881" lon="9.640267231930324"><ele>97.33333333333333</ele><time>2026-05-01T08:07:36Z</time></trkpt><trkpt lat="40.74904458468265" lon="9.640177286977561"><ele>99.0</ele><time>2026-05-01T08:07:37Z</time></trkpt><trkpt lat="40.74888089587052" lon="9.640079547809417"><ele>99.0</ele><time>2026-05-01T08:07:38Z</time></trkpt><trkpt lat="40.74871601321077" lon="9.63997855046152"><ele>99.0</ele><time>2026-05-01T08:07:39Z</time></trkpt><trkpt lat="40.7485481607854" lon="9.639881355489152"><ele>99.0</ele><time>2026-05-01T08:07:40Z</time></trkpt><trkpt lat="40.748381058014594" lon="9.639785689311749"><ele>100.66666666666666</ele><time>2026-05-01T08:07:41Z</time></trkpt><trkpt lat="40.74822800189734" lon="9.639694924544658"><ele>102.33333333333333</ele><time>2026-05-01T08:07:42Z</time></trkpt><trkpt lat="40.748090667381796" lon="9.63960970953021"><ele>104.0</ele><time>2026-05-01T08:07:43Z</time></trkpt><trkpt lat="40.7479634738886" lon="9.639530648119486"><ele>103.0</ele><time>2026-05-01T08:07:44Z</time></trkpt><trkpt lat="40.74783960085888" lon="9.639454823828803"><ele>102.0</ele><time>2026-05-01T08:07:45Z</time></trkpt><trkpt lat="40.74771322930172" lon="9.639378631430567"><ele>101.0</ele><time>2026-05-01T08:07:46Z</time></trkpt><trkpt lat="40.74758994181074" lon="9.639303315300623"><ele>100.0</ele><time>2026-05-01T08:07:47Z</time></trkpt><trkpt lat="40.74747588433292" lon="9.639236028996812"><ele>100.0</ele><time>2026-05-01T08:07:48Z</time></trkpt><trkpt lat="40.74736752311328" lon="9.639171550442512"><ele>100.0</ele><time>2026-05-01T08:07:49Z</time></trkpt><trkpt lat="40.74725709060247" lon="9.639106532002776"><ele>100.0</ele><time>2026-05-01T08:07:50Z</time></trkpt><trkpt lat="40.74714322287373" lon="9.639043015551211"><ele>100.0</ele><time>2026-05-01T08:07:51Z</time></trkpt><trkpt lat="40.7470269706729" lon="9.638984523154798"><ele>100.0</ele><time>2026-05-01T08:07:52Z</time></trkpt><trkpt lat="40.74690600543849" lon="9.638931368244515"><ele>100.0</ele><time>2026-05-01T08:07:53Z</time></trkpt><trkpt lat="40.74678129981556" lon="9.638879029028876"><ele>100.0</ele><time>2026-05-01T08:07:54Z</time></trkpt><trkpt lat="40.746646590502785" lon="9.638832826148867"><ele>100.0</ele><time>2026-05-01T08:07:55Z</time></trkpt><trkpt lat="40.746503184978124" lon="9.63878913905932"><ele>99.33333333333334</ele><time>2026-05-01T08:07:56Z</time></trkpt><trkpt lat="40.7463546508244" lon="9.638747555114401"><ele>98.66666666666666</ele><time>2026-05-01T08:07:57Z</time></trkpt><trkpt lat="40.7461997515587" lon="9.638714583539388"><ele>98.0</ele><time>2026-05-01T08:07:58Z</time></trkpt><trkpt lat="40.74604172119324" lon="9.638687400288601"><ele>98.0</ele><time>2026-05-01T08:07:59Z</time></trkpt><trkpt lat="40.74588369596786" lon="9.638668684507293"><ele>98.0</ele><time>2026-05-01T08:08:00Z</time></trkpt><trkpt lat="40.745730120877965" lon="9.638657322927603"><ele>98.0</ele><time>2026-05-01T08:08:01Z</time></trkpt><trkpt lat="40.74559395296586" lon="9.638652919244596"><ele>98.0</ele><time>2026-05-01T08:08:02Z</time></trkpt><trkpt lat="40.74545913549707" lon="9.638650674646732"><ele>98.0</ele><time>2026-05-01T08:08:03Z</time></trkpt><trkpt lat="40.74532428937707" lon="9.638652509620682"><ele>98.0</ele><time>2026-05-01T08:08:04Z</time></trkpt><trkpt lat="40.74519040978958" lon="9.638660737675034"><ele>98.0</ele><time>2026-05-01T08:08:05Z</time></trkpt><trkpt lat="40.74505670061951" lon="9.63867734257415"><ele>98.0</ele><time>2026-05-01T08:08:06Z</time></trkpt><trkpt lat="40.74492283445787" lon="9.638701154005338"><ele>99.0</ele><time>2026-05-01T08:08:07Z</time></trkpt><trkpt lat="40.74478741017374" lon="9.638730640790786"><ele>100.0</ele><time>2026-05-01T08:08:08Z</time></trkpt><trkpt lat="40.7446508248469" lon="9.638765486833135"><ele>101.0</ele><time>2026-05-01T08:08:09Z</time></trkpt><trkpt lat="40.74451247102291" lon="9.6388053426915"><ele>102.0</ele><time>2026-05-01T08:08:10Z</time></trkpt><trkpt lat="40.74436999788171" lon="9.638849607414175"><ele>102.0</ele><time>2026-05-01T08:08:11Z</time></trkpt><trkpt lat="40.744228297186446" lon="9.638899432816174"><ele>102.0</ele><time>2026-05-01T08:08:12Z</time></trkpt><trkpt lat="40.744085875370125" lon="9.6389554450142"><ele>102.0</ele><time>2026-05-01T08:08:13Z</time></trkpt><trkpt lat="40.743943032646996" lon="9.639017749065442"><ele>102.0</ele><time>2026-05-01T08:08:14Z</time></trkpt><trkpt lat="40.74380096170955" lon="9.639089708373316"><ele>102.0</ele><time>2026-05-01T08:08:15Z</time></trkpt><trkpt lat="40.7436617817235" lon="9.639168946276685"><ele>102.0</ele><time>2026-05-01T08:08:16Z</time></trkpt><trkpt lat="40.743523931313305" lon="9.639258172088466"><ele>102.0</ele><time>2026-05-01T08:08:17Z</time></trkpt><trkpt lat="40.74338610885835" lon="9.639353336369997"><ele>100.33333333333334</ele><time>2026-05-01T08:08:18Z</time></trkpt><trkpt lat="40.743250147031134" lon="9.639452143672512"><ele>98.66666666666667</ele><time>2026-05-01T08:08:19Z</time></trkpt><trkpt lat="40.74311562129929" lon="9.639557046013215"><ele>97.0</ele><time>2026-05-01T08:08:20Z</time></trkpt><trkpt lat="40.74298425442048" lon="9.639665309634019"><ele>96.75</ele><time>2026-05-01T08:08:21Z</time></trkpt><trkpt lat="40.74286419542944" lon="9.639773326203839"><ele>96.5</ele><time>2026-05-01T08:08:22Z</time></trkpt><trkpt lat="40.742751833509715" lon="9.63988031327254"><ele>96.25</ele><time>2026-05-01T08:08:23Z</time></trkpt><trkpt lat="40.742641342089584" lon="9.639994020130159"><ele>96.0</ele><time>2026-05-01T08:08:24Z</time></trkpt><trkpt lat="40.74253529180053" lon="9.640106322913832"><ele>96.0</ele><time>2026-05-01T08:08:25Z</time></trkpt><trkpt lat="40.74243239449305" lon="9.640221556127516"><ele>96.0</ele><time>2026-05-01T08:08:26Z</time></trkpt><trkpt lat="40.74233221732543" lon="9.640337733895144"><ele>96.0</ele><time>2026-05-01T08:08:27Z</time></trkpt><trkpt lat="40.7422339278656" lon="9.640453541384899"><ele>96.0</ele><time>2026-05-01T08:08:28Z</time></trkpt><trkpt lat="40.7421375387146" lon="9.640569534964538"><ele>95.5</ele><time>2026-05-01T08:08:29Z</time></trkpt><trkpt lat="40.742038824675966" lon="9.640683608193356"><ele>95.0</ele><time>2026-05-01T08:08:30Z</time></trkpt><trkpt lat="40.74194153559993" lon="9.640797263998705"><ele>94.5</ele><time>2026-05-01T08:08:31Z</time></trkpt><trkpt lat="40.74184576654526" lon="9.640912427744322"><ele>94.0</ele><time>2026-05-01T08:08:32Z</time></trkpt><trkpt lat="40.74174602767963" lon="9.64102930000986"><ele>97.25</ele><time>2026-05-01T08:08:33Z</time></trkpt><trkpt lat="40.74164431713269" lon="9.641146781877099"><ele>100.5</ele><time>2026-05-01T08:08:34Z</time></trkpt><trkpt lat="40.741549197626455" lon="9.641260799958893"><ele>103.75</ele><time>2026-05-01T08:08:35Z</time></trkpt><trkpt lat="40.74145643413418" lon="9.641370275922336"><ele>107.0</ele><time>2026-05-01T08:08:36Z</time></trkpt><trkpt lat="40.74136470748964" lon="9.641476283612327"><ele>107.0</ele><time>2026-05-01T08:08:37Z</time></trkpt><trkpt lat="40.74127171983535" lon="9.641580243662528"><ele>107.0</ele><time>2026-05-01T08:08:38Z</time></trkpt><trkpt lat="40.741174174783445" lon="9.64168424294942"><ele>107.0</ele><time>2026-05-01T08:08:39Z</time></trkpt><trkpt lat="40.74107608511667" lon="9.641792519785083"><ele>107.0</ele><time>2026-05-01T08:08:40Z</time></trkpt><trkpt lat="40.740975629109656" lon="9.641909090372929"><ele>122.0</ele><time>2026-05-01T08:08:41Z</time></trkpt><trkpt lat="40.74087222940612" lon="9.642032479393508"><ele>137.0</ele><time>2026-05-01T08:08:42Z</time></trkpt><trkpt lat="40.74075877309771" lon="9.642165472129347"><ele>152.0</ele><time>2026-05-01T08:08:43Z</time></trkpt><trkpt lat="40.74063469818361" lon="9.642310449770855"><ele>152.0</ele><time>2026-05-01T08:08:44.025Z</time></trkpt><trkpt lat="40.7405088119353" lon="9.64246142705259"><ele>152.0</ele><time>2026-05-01T08:08:45.027Z</time></trkpt><trkpt lat="40.740377414014205" lon="9.642624316001928"><ele>152.0</ele><time>2026-05-01T08:08:46.025Z</time></trkpt><trkpt lat="40.74030966258484" lon="9.642709477746545"><ele>152.0</ele><time>2026-05-01T08:08:46.525Z</time></trkpt><trkpt lat="40.73920643718005" lon="9.643989306744386"><ele>142.25</ele><time>2026-05-01T08:08:55.1Z</time></trkpt><trkpt lat="40.739103923452845" lon="9.64410785884845"><ele>132.5</ele><time>2026-05-01T08:08:56.05Z</time></trkpt><trkpt lat="40.7389981535055" lon="9.644212041564634"><ele>122.75</ele><time>2026-05-01T08:08:57Z</time></trkpt><trkpt lat="40.73888767539586" lon="9.644342726438884"><ele>113.0</ele><time>2026-05-01T08:08:58Z</time></trkpt><trkpt lat="40.738767648139614" lon="9.644487555421753"><ele>112.66666666666666</ele><time>2026-05-01T08:08:59Z</time></trkpt><trkpt lat="40.738643694443475" lon="9.644642100421137"><ele>112.33333333333334</ele><time>2026-05-01T08:09:00Z</time></trkpt><trkpt lat="40.73850862281516" lon="9.6448046359738"><ele>112.0</ele><time>2026-05-01T08:09:01Z</time></trkpt><trkpt lat="40.73837714156612" lon="9.644970780964561"><ele>112.0</ele><time>2026-05-01T08:09:02Z</time></trkpt><trkpt lat="40.738248327302266" lon="9.645137348366948"><ele>112.0</ele><time>2026-05-01T08:09:03Z</time></trkpt><trkpt lat="40.738117049576935" lon="9.645309385360758"><ele>112.0</ele><time>2026-05-01T08:09:04Z</time></trkpt><trkpt lat="40.73798546506927" lon="9.64548188070806"><ele>110.33333333333334</ele><time>2026-05-01T08:09:05Z</time></trkpt><trkpt lat="40.73785909712521" lon="9.64564451710737"><ele>108.66666666666666</ele><time>2026-05-01T08:09:06Z</time></trkpt><trkpt lat="40.73773538404306" lon="9.645803492311705"><ele>107.0</ele><time>2026-05-01T08:09:07Z</time></trkpt><trkpt lat="40.737622337155116" lon="9.645938276492554"><ele>107.0</ele><time>2026-05-01T08:09:08Z</time></trkpt><trkpt lat="40.73750296025619" lon="9.64608746559004"><ele>107.0</ele><time>2026-05-01T08:09:09Z</time></trkpt><trkpt lat="40.73738054885326" lon="9.6462441994383"><ele>107.0</ele><time>2026-05-01T08:09:10Z</time></trkpt><trkpt lat="40.7372568509252" lon="9.646402543819265"><ele>107.66666666666666</ele><time>2026-05-01T08:09:11Z</time></trkpt><trkpt lat="40.73713124695207" lon="9.646563766619629"><ele>108.33333333333334</ele><time>2026-05-01T08:09:12Z</time></trkpt><trkpt lat="40.7370002075197" lon="9.646721799001629"><ele>109.0</ele><time>2026-05-01T08:09:13Z</time></trkpt><trkpt lat="40.73686593799322" lon="9.64688035822261"><ele>107.33333333333334</ele><time>2026-05-01T08:09:14Z</time></trkpt><trkpt lat="40.736729469000316" lon="9.647036158306486"><ele>105.66666666666666</ele><time>2026-05-01T08:09:15Z</time></trkpt><trkpt lat="40.73659553162376" lon="9.647184244445617"><ele>104.0</ele><time>2026-05-01T08:09:16Z</time></trkpt><trkpt lat="40.73646355181415" lon="9.647332748737275"><ele>104.0</ele><time>2026-05-01T08:09:17Z</time></trkpt><trkpt lat="40.736331619312296" lon="9.647474472874238"><ele>104.0</ele><time>2026-05-01T08:09:18Z</time></trkpt><trkpt lat="40.73619269776616" lon="9.647608911357912"><ele>104.0</ele><time>2026-05-01T08:09:19Z</time></trkpt><trkpt lat="40.736043277897174" lon="9.647734599506117"><ele>104.66666666666666</ele><time>2026-05-01T08:09:20Z</time></trkpt><trkpt lat="40.73590193545752" lon="9.647865959895105"><ele>105.33333333333334</ele><time>2026-05-01T08:09:21Z</time></trkpt><trkpt lat="40.735757403517006" lon="9.647994682694153"><ele>106.0</ele><time>2026-05-01T08:09:22Z</time></trkpt><trkpt lat="40.73561002043816" lon="9.64812241259586"><ele>106.0</ele><time>2026-05-01T08:09:23Z</time></trkpt><trkpt lat="40.73546005599602" lon="9.648251336791589"><ele>106.0</ele><time>2026-05-01T08:09:24Z</time></trkpt><trkpt lat="40.73530652742295" lon="9.648379847608252"><ele>106.0</ele><time>2026-05-01T08:09:25Z</time></trkpt><trkpt lat="40.735146311006076" lon="9.648498275542492"><ele>105.0</ele><time>2026-05-01T08:09:26Z</time></trkpt><trkpt lat="40.734979570329735" lon="9.648607059634049"><ele>104.0</ele><time>2026-05-01T08:09:27Z</time></trkpt><trkpt lat="40.734805706830855" lon="9.64871598034586"><ele>103.0</ele><time>2026-05-01T08:09:28Z</time></trkpt><trkpt lat="40.734630244490695" lon="9.648820799560013"><ele>103.0</ele><time>2026-05-01T08:09:29Z</time></trkpt><trkpt lat="40.73444639281656" lon="9.648922953837845"><ele>103.0</ele><time>2026-05-01T08:09:30Z</time></trkpt><trkpt lat="40.734259169338856" lon="9.649021628764487"><ele>103.0</ele><time>2026-05-01T08:09:31Z</time></trkpt><trkpt lat="40.73406902074128" lon="9.649115361275129"><ele>99.0</ele><time>2026-05-01T08:09:32Z</time></trkpt><trkpt lat="40.73387825065548" lon="9.649205907038626"><ele>95.0</ele><time>2026-05-01T08:09:33Z</time></trkpt><trkpt lat="40.733689971464244" lon="9.649287469142827"><ele>91.0</ele><time>2026-05-01T08:09:34Z</time></trkpt><trkpt lat="40.73351284130106" lon="9.64935281512649"><ele>89.0</ele><time>2026-05-01T08:09:35Z</time></trkpt><trkpt lat="40.73334071548319" lon="9.649411534320395"><ele>87.0</ele><time>2026-05-01T08:09:36Z</time></trkpt><trkpt lat="40.73317466643313" lon="9.649463212089428"><ele>85.0</ele><time>2026-05-01T08:09:37Z</time></trkpt><trkpt lat="40.73301286383856" lon="9.649507571118088"><ele>85.0</ele><time>2026-05-01T08:09:38Z</time></trkpt><trkpt lat="40.73285694408486" lon="9.649547385283055"><ele>85.0</ele><time>2026-05-01T08:09:39Z</time></trkpt><trkpt lat="40.73270471994531" lon="9.649580387085932"><ele>85.0</ele><time>2026-05-01T08:09:40Z</time></trkpt><trkpt lat="40.732548154432564" lon="9.649613016142494"><ele>84.33333333333333</ele><time>2026-05-01T08:09:41Z</time></trkpt><trkpt lat="40.73238987404174" lon="9.649650385311737"><ele>83.66666666666667</ele><time>2026-05-01T08:09:42Z</time></trkpt><trkpt lat="40.73223301790058" lon="9.649678612512478"><ele>83.0</ele><time>2026-05-01T08:09:43Z</time></trkpt><trkpt lat="40.732067768297846" lon="9.649709173017168"><ele>83.0</ele><time>2026-05-01T08:09:44Z</time></trkpt><trkpt lat="40.73190863689888" lon="9.6497400063518"><ele>83.0</ele><time>2026-05-01T08:09:45Z</time></trkpt><trkpt lat="40.73175853152354" lon="9.649773625700924"><ele>83.0</ele><time>2026-05-01T08:09:46Z</time></trkpt><trkpt lat="40.73161644371722" lon="9.649808703650205"><ele>83.33333333333334</ele><time>2026-05-01T08:09:47Z</time></trkpt><trkpt lat="40.731473908918794" lon="9.649854139753712"><ele>83.66666666666667</ele><time>2026-05-01T08:09:48Z</time></trkpt><trkpt lat="40.73132535708865" lon="9.649903952443"><ele>84.0</ele><time>2026-05-01T08:09:49Z</time></trkpt><trkpt lat="40.731179721496375" lon="9.649956093904876"><ele>80.0</ele><time>2026-05-01T08:09:50Z</time></trkpt><trkpt lat="40.73102900773667" lon="9.650013246112675"><ele>76.0</ele><time>2026-05-01T08:09:51Z</time></trkpt><trkpt lat="40.73087753866986" lon="9.65007245051536"><ele>72.0</ele><time>2026-05-01T08:09:52Z</time></trkpt><trkpt lat="40.73072407697775" lon="9.650136209386728"><ele>72.0</ele><time>2026-05-01T08:09:53Z</time></trkpt><trkpt lat="40.730570269794796" lon="9.650208288448644"><ele>72.0</ele><time>2026-05-01T08:09:54Z</time></trkpt><trkpt lat="40.73041570860294" lon="9.650289785970656"><ele>72.0</ele><time>2026-05-01T08:09:55Z</time></trkpt><trkpt lat="40.730261245375424" lon="9.650379840258328"><ele>70.66666666666667</ele><time>2026-05-01T08:09:56Z</time></trkpt><trkpt lat="40.730099281874445" lon="9.650476677247235"><ele>69.33333333333334</ele><time>2026-05-01T08:09:57Z</time></trkpt><trkpt lat="40.72992408491874" lon="9.650582969218764"><ele>68.0</ele><time>2026-05-01T08:09:58Z</time></trkpt><trkpt lat="40.72974216227189" lon="9.650700478745273"><ele>68.0</ele><time>2026-05-01T08:09:59Z</time></trkpt><trkpt lat="40.72955748136594" lon="9.650835919872078"><ele>68.0</ele><time>2026-05-01T08:10:00Z</time></trkpt><trkpt lat="40.72937213968632" lon="9.650982265867036"><ele>68.0</ele><time>2026-05-01T08:10:01Z</time></trkpt><trkpt lat="40.72918787779401" lon="9.65113535100198"><ele>69.0</ele><time>2026-05-01T08:10:02Z</time></trkpt><trkpt lat="40.729008933086604" lon="9.65129873488325"><ele>70.0</ele><time>2026-05-01T08:10:03Z</time></trkpt><trkpt lat="40.72883463370433" lon="9.651469938215406"><ele>71.0</ele><time>2026-05-01T08:10:04Z</time></trkpt><trkpt lat="40.72866585670867" lon="9.651648221737865"><ele>72.0</ele><time>2026-05-01T08:10:05Z</time></trkpt><trkpt lat="40.72850281106852" lon="9.65182807980507"><ele>73.0</ele><time>2026-05-01T08:10:06Z</time></trkpt><trkpt lat="40.72835231271857" lon="9.651995914575462"><ele>74.0</ele><time>2026-05-01T08:10:07Z</time></trkpt><trkpt lat="40.728213923730415" lon="9.652154141846392"><ele>74.0</ele><time>2026-05-01T08:10:08Z</time></trkpt><trkpt lat="40.72808763343948" lon="9.65230592077079"><ele>74.0</ele><time>2026-05-01T08:10:09Z</time></trkpt><trkpt lat="40.72797308958373" lon="9.652458550899144"><ele>74.0</ele><time>2026-05-01T08:10:10Z</time></trkpt><trkpt lat="40.72786128343413" lon="9.652613110847955"><ele>74.0</ele><time>2026-05-01T08:10:11Z</time></trkpt><trkpt lat="40.727750365207314" lon="9.652761590083033"><ele>74.0</ele><time>2026-05-01T08:10:12Z</time></trkpt><trkpt lat="40.727656070497154" lon="9.652920759114258"><ele>74.0</ele><time>2026-05-01T08:10:13Z</time></trkpt><trkpt lat="40.72754391599988" lon="9.65309037503703"><ele>75.0</ele><time>2026-05-01T08:10:14Z</time></trkpt><trkpt lat="40.72743139477446" lon="9.653277868006247"><ele>76.0</ele><time>2026-05-01T08:10:15Z</time></trkpt><trkpt lat="40.72732176593549" lon="9.653475915029547"><ele>77.0</ele><time>2026-05-01T08:10:16Z</time></trkpt><trkpt lat="40.72720959643639" lon="9.653683446193355"><ele>77.0</ele><time>2026-05-01T08:10:17Z</time></trkpt><trkpt lat="40.72709997728123" lon="9.653902849267897"><ele>77.0</ele><time>2026-05-01T08:10:18Z</time></trkpt><trkpt lat="40.72699535329291" lon="9.654128669453346"><ele>77.0</ele><time>2026-05-01T08:10:19Z</time></trkpt><trkpt lat="40.72689208810751" lon="9.654351391205909"><ele>86.0</ele><time>2026-05-01T08:10:20Z</time></trkpt><trkpt lat="40.7267888626442" lon="9.654572172164833"><ele>95.0</ele><time>2026-05-01T08:10:21Z</time></trkpt><trkpt lat="40.72668852788523" lon="9.65478993757598"><ele>104.0</ele><time>2026-05-01T08:10:22Z</time></trkpt><trkpt lat="40.726584567931106" lon="9.65500968569362"><ele>104.0</ele><time>2026-05-01T08:10:23Z</time></trkpt><trkpt lat="40.72648027924461" lon="9.655228616812368"><ele>104.0</ele><time>2026-05-01T08:10:24Z</time></trkpt><trkpt lat="40.72638241823746" lon="9.655452731771614"><ele>104.0</ele><time>2026-05-01T08:10:25Z</time></trkpt><trkpt lat="40.72629057934629" lon="9.655681065256942"><ele>106.66666666666666</ele><time>2026-05-01T08:10:26Z</time></trkpt><trkpt lat="40.72618738292637" lon="9.6559049805485"><ele>109.33333333333334</ele><time>2026-05-01T08:10:27Z</time></trkpt><trkpt lat="40.72609330027966" lon="9.65613383505541"><ele>112.0</ele><time>2026-05-01T08:10:28.025Z</time></trkpt><trkpt lat="40.725991639531195" lon="9.656358825905109"><ele>127.66666666666667</ele><time>2026-05-01T08:10:29.027Z</time></trkpt><trkpt lat="40.725884292937515" lon="9.656583869796009"><ele>143.33333333333334</ele><time>2026-05-01T08:10:30.027Z</time></trkpt><trkpt lat="40.72577569038716" lon="9.65680683862538"><ele>159.0</ele><time>2026-05-01T08:10:31.025Z</time></trkpt><trkpt lat="40.72567186667658" lon="9.657018214939777"><ele>159.0</ele><time>2026-05-01T08:10:31.976Z</time></trkpt><trkpt lat="40.72557267409099" lon="9.657219303689104"><ele>159.0</ele><time>2026-05-01T08:10:32.877Z</time></trkpt><trkpt lat="40.72397461388944" lon="9.66048990839264"><ele>130.0</ele><time>2026-05-01T08:10:47Z</time></trkpt><trkpt lat="40.723865265358" lon="9.660717258728997"><ele>101.0</ele><time>2026-05-01T08:10:48Z</time></trkpt><trkpt lat="40.723756401867355" lon="9.660949527168723"><ele>72.0</ele><time>2026-05-01T08:10:49Z</time></trkpt><trkpt lat="40.72365054043583" lon="9.661181097290019"><ele>76.0</ele><time>2026-05-01T08:10:50Z</time></trkpt><trkpt lat="40.72354281073773" lon="9.66141321086606"><ele>80.0</ele><time>2026-05-01T08:10:51Z</time></trkpt><trkpt lat="40.72343217871997" lon="9.661644284851004"><ele>84.0</ele><time>2026-05-01T08:10:52Z</time></trkpt><trkpt lat="40.723311173647446" lon="9.661888113201513"><ele>79.66666666666667</ele><time>2026-05-01T08:10:53Z</time></trkpt><trkpt lat="40.72318646912065" lon="9.662122508728414"><ele>75.33333333333334</ele><time>2026-05-01T08:10:54Z</time></trkpt><trkpt lat="40.72305582501252" lon="9.662354516120814"><ele>71.0</ele><time>2026-05-01T08:10:55Z</time></trkpt><trkpt lat="40.72292032145272" lon="9.662578318691134"><ele>70.0</ele><time>2026-05-01T08:10:56Z</time></trkpt><trkpt lat="40.722781490310275" lon="9.66278954166215"><ele>69.0</ele><time>2026-05-01T08:10:57Z</time></trkpt><trkpt lat="40.72263977232625" lon="9.662991040528336"><ele>68.0</ele><time>2026-05-01T08:10:58Z</time></trkpt><trkpt lat="40.72249583392819" lon="9.663182211526662"><ele>68.0</ele><time>2026-05-01T08:10:59Z</time></trkpt><trkpt lat="40.72234965811463" lon="9.663364226273387"><ele>68.0</ele><time>2026-05-01T08:11:00Z</time></trkpt><trkpt lat="40.72220396688598" lon="9.663541786885327"><ele>68.0</ele><time>2026-05-01T08:11:01Z</time></trkpt><trkpt lat="40.722058940242476" lon="9.663719416534137"><ele>67.66666666666667</ele><time>2026-05-01T08:11:02Z</time></trkpt><trkpt lat="40.721915909155136" lon="9.663901155687224"><ele>67.33333333333333</ele><time>2026-05-01T08:11:03Z</time></trkpt><trkpt lat="40.7217757706955" lon="9.664088694937664"><ele>67.0</ele><time>2026-05-01T08:11:04Z</time></trkpt><trkpt lat="40.721639084083236" lon="9.664278883851496"><ele>63.0</ele><time>2026-05-01T08:11:05Z</time></trkpt><trkpt lat="40.72150358132831" lon="9.664476437006353"><ele>59.0</ele><time>2026-05-01T08:11:06Z</time></trkpt><trkpt lat="40.721368728958495" lon="9.664683181689576"><ele>55.0</ele><time>2026-05-01T08:11:07Z</time></trkpt><trkpt lat="40.72123677352887" lon="9.664894309636736"><ele>55.0</ele><time>2026-05-01T08:11:08Z</time></trkpt><trkpt lat="40.7211072231278" lon="9.665107275859182"><ele>55.0</ele><time>2026-05-01T08:11:09Z</time></trkpt><trkpt lat="40.720983388454464" lon="9.665323911578515"><ele>55.0</ele><time>2026-05-01T08:11:10Z</time></trkpt><trkpt lat="40.72087037265416" lon="9.665540033363257"><ele>53.33333333333333</ele><time>2026-05-01T08:11:11Z</time></trkpt><trkpt lat="40.72076101733535" lon="9.665752053410117"><ele>51.66666666666667</ele><time>2026-05-01T08:11:12Z</time></trkpt><trkpt lat="40.72066276623305" lon="9.66596153214172"><ele>50.0</ele><time>2026-05-01T08:11:13Z</time></trkpt><trkpt lat="40.72056723820535" lon="9.666166169025605"><ele>50.0</ele><time>2026-05-01T08:11:14Z</time></trkpt><trkpt lat="40.7204731898923" lon="9.666365208325821"><ele>50.0</ele><time>2026-05-01T08:11:15Z</time></trkpt><trkpt lat="40.72038464131537" lon="9.66655944621214"><ele>50.0</ele><time>2026-05-01T08:11:16Z</time></trkpt><trkpt lat="40.720296845545775" lon="9.666754947951883"><ele>49.333333333333336</ele><time>2026-05-01T08:11:17Z</time></trkpt><trkpt lat="40.7202134091094" lon="9.666944301546904"><ele>48.66666666666667</ele><time>2026-05-01T08:11:18Z</time></trkpt><trkpt lat="40.72013015265327" lon="9.66712925263311"><ele>48.0</ele><time>2026-05-01T08:11:19Z</time></trkpt><trkpt lat="40.720047593923134" lon="9.667306644543807"><ele>48.0</ele><time>2026-05-01T08:11:20Z</time></trkpt><trkpt lat="40.71996695067799" lon="9.6674813487649"><ele>48.0</ele><time>2026-05-01T08:11:21Z</time></trkpt><trkpt lat="40.7198870368969" lon="9.667662164696292"><ele>48.0</ele><time>2026-05-01T08:11:22Z</time></trkpt><trkpt lat="40.71980760103555" lon="9.667846888250253"><ele>46.666666666666664</ele><time>2026-05-01T08:11:23Z</time></trkpt><trkpt lat="40.719727998394156" lon="9.66803246381266"><ele>45.33333333333333</ele><time>2026-05-01T08:11:24Z</time></trkpt><trkpt lat="40.71964768543466" lon="9.668217953652471"><ele>44.0</ele><time>2026-05-01T08:11:25Z</time></trkpt><trkpt lat="40.71956675522074" lon="9.668405245324513"><ele>44.0</ele><time>2026-05-01T08:11:26Z</time></trkpt><trkpt lat="40.71948055737969" lon="9.668594158635992"><ele>44.0</ele><time>2026-05-01T08:11:27Z</time></trkpt><trkpt lat="40.71939530356803" lon="9.668787611541463"><ele>44.0</ele><time>2026-05-01T08:11:28Z</time></trkpt><trkpt lat="40.71930804218278" lon="9.668990980108996"><ele>45.666666666666664</ele><time>2026-05-01T08:11:29Z</time></trkpt><trkpt lat="40.71921957466596" lon="9.669198911127552"><ele>47.33333333333333</ele><time>2026-05-01T08:11:30Z</time></trkpt><trkpt lat="40.71913157167813" lon="9.669415417834058"><ele>49.0</ele><time>2026-05-01T08:11:31Z</time></trkpt><trkpt lat="40.719041489492" lon="9.669637250161806"><ele>49.0</ele><time>2026-05-01T08:11:32Z</time></trkpt><trkpt lat="40.71895407282059" lon="9.66986767151947"><ele>49.0</ele><time>2026-05-01T08:11:33Z</time></trkpt><trkpt lat="40.718870199896834" lon="9.67010314168607"><ele>49.0</ele><time>2026-05-01T08:11:34Z</time></trkpt><trkpt lat="40.718788779901715" lon="9.670348401365603"><ele>48.666666666666664</ele><time>2026-05-01T08:11:35Z</time></trkpt><trkpt lat="40.71870948989034" lon="9.670609082161882"><ele>48.33333333333333</ele><time>2026-05-01T08:11:36Z</time></trkpt><trkpt lat="40.718625512313984" lon="9.670879262806288"><ele>48.0</ele><time>2026-05-01T08:11:37Z</time></trkpt><trkpt lat="40.718531297853325" lon="9.671178629001265"><ele>48.0</ele><time>2026-05-01T08:11:38Z</time></trkpt><trkpt lat="40.71842712405837" lon="9.671493464731627"><ele>48.0</ele><time>2026-05-01T08:11:39Z</time></trkpt><trkpt lat="40.7183116310347" lon="9.671820852852195"><ele>44.0</ele><time>2026-05-01T08:11:40Z</time></trkpt><trkpt lat="40.71817968402252" lon="9.67215653345338"><ele>40.0</ele><time>2026-05-01T08:11:41Z</time></trkpt><trkpt lat="40.718063155212874" lon="9.672509190484423"><ele>36.5</ele><time>2026-05-01T08:11:42Z</time></trkpt><trkpt lat="40.71800157020252" lon="9.672889380299639"><ele>33.0</ele><time>2026-05-01T08:11:43Z</time></trkpt><trkpt lat="40.71784369878805" lon="9.673247860477131"><ele>37.0</ele><time>2026-05-01T08:11:44Z</time></trkpt><trkpt lat="40.717677121630345" lon="9.67360370622126"><ele>41.0</ele><time>2026-05-01T08:11:45Z</time></trkpt><trkpt lat="40.717510925304566" lon="9.673964328840194"><ele>41.0</ele><time>2026-05-01T08:11:46Z</time></trkpt><trkpt lat="40.71734508040813" lon="9.674327688018733"><ele>41.0</ele><time>2026-05-01T08:11:47Z</time></trkpt><trkpt lat="40.71718433163536" lon="9.67469099446593"><ele>37.5</ele><time>2026-05-01T08:11:48Z</time></trkpt><trkpt lat="40.717034271353654" lon="9.67506165002366"><ele>34.0</ele><time>2026-05-01T08:11:49Z</time></trkpt><trkpt lat="40.716896431511266" lon="9.675434708888996"><ele>33.5</ele><time>2026-05-01T08:11:50Z</time></trkpt><trkpt lat="40.71677097320573" lon="9.675809315692442"><ele>33.0</ele><time>2026-05-01T08:11:51Z</time></trkpt><trkpt lat="40.71666066159195" lon="9.676176156153717"><ele>31.0</ele><time>2026-05-01T08:11:52Z</time></trkpt><trkpt lat="40.7165608663836" lon="9.676534503959303"><ele>29.0</ele><time>2026-05-01T08:11:53Z</time></trkpt><trkpt lat="40.716468059228355" lon="9.67688466781532"><ele>28.5</ele><time>2026-05-01T08:11:54Z</time></trkpt><trkpt lat="40.71637599640548" lon="9.677221443422921"><ele>28.0</ele><time>2026-05-01T08:11:55Z</time></trkpt><trkpt lat="40.71628618949687" lon="9.677533131515617"><ele>26.5</ele><time>2026-05-01T08:11:56Z</time></trkpt><trkpt lat="40.71619124701063" lon="9.67784657859379"><ele>25.0</ele><time>2026-05-01T08:11:57Z</time></trkpt><trkpt lat="40.716091201664234" lon="9.678167884369927"><ele>25.5</ele><time>2026-05-01T08:11:58Z</time></trkpt><trkpt lat="40.71598045060775" lon="9.678478414344298"><ele>26.0</ele><time>2026-05-01T08:11:59Z</time></trkpt><trkpt lat="40.715862753697806" lon="9.67878064940033"><ele>26.0</ele><time>2026-05-01T08:12:00Z</time></trkpt><trkpt lat="40.71573455073" lon="9.679079535013496"><ele>26.0</ele><time>2026-05-01T08:12:01Z</time></trkpt><trkpt lat="40.71559366776628" lon="9.67938186215481"><ele>26.0</ele><time>2026-05-01T08:12:02Z</time></trkpt><trkpt lat="40.715445826960945" lon="9.679685319526287"><ele>26.0</ele><time>2026-05-01T08:12:03Z</time></trkpt><trkpt lat="40.71529048761672" lon="9.679985447635332"><ele>27.0</ele><time>2026-05-01T08:12:04Z</time></trkpt><trkpt lat="40.71511206841307" lon="9.680258426908562"><ele>28.0</ele><time>2026-05-01T08:12:05Z</time></trkpt><trkpt lat="40.71493403026461" lon="9.680534528534649"><ele>28.0</ele><time>2026-05-01T08:12:06Z</time></trkpt><trkpt lat="40.71474664901849" lon="9.680797167731226"><ele>28.0</ele><time>2026-05-01T08:12:07Z</time></trkpt><trkpt lat="40.71455319180836" lon="9.681048244723508"><ele>27.0</ele><time>2026-05-01T08:12:08Z</time></trkpt><trkpt lat="40.714357087023004" lon="9.681299825074912"><ele>26.0</ele><time>2026-05-01T08:12:09Z</time></trkpt><trkpt lat="40.7141611359723" lon="9.681553899729135"><ele>26.0</ele><time>2026-05-01T08:12:10Z</time></trkpt><trkpt lat="40.713967480102994" lon="9.681808376578493"><ele>26.0</ele><time>2026-05-01T08:12:11Z</time></trkpt><trkpt lat="40.71377184366795" lon="9.682058574680793"><ele>24.5</ele><time>2026-05-01T08:12:12Z</time></trkpt><trkpt lat="40.71357513866288" lon="9.682303521489782"><ele>23.0</ele><time>2026-05-01T08:12:13Z</time></trkpt><trkpt lat="40.71338023068727" lon="9.682548230704068"><ele>22.5</ele><time>2026-05-01T08:12:14Z</time></trkpt><trkpt lat="40.71319237629809" lon="9.682795552709697"><ele>22.0</ele><time>2026-05-01T08:12:15Z</time></trkpt><trkpt lat="40.71301338305963" lon="9.683050815788135"><ele>22.0</ele><time>2026-05-01T08:12:16Z</time></trkpt><trkpt lat="40.712844422096104" lon="9.683312823826249"><ele>22.0</ele><time>2026-05-01T08:12:17Z</time></trkpt><trkpt lat="40.71268147659257" lon="9.68358026697073"><ele>20.5</ele><time>2026-05-01T08:12:18Z</time></trkpt><trkpt lat="40.71252672701518" lon="9.683849430798903"><ele>19.0</ele><time>2026-05-01T08:12:19Z</time></trkpt><trkpt lat="40.712378656471245" lon="9.68411905728804"><ele>19.0</ele><time>2026-05-01T08:12:20Z</time></trkpt><trkpt lat="40.71223666738349" lon="9.684395706523171"><ele>19.0</ele><time>2026-05-01T08:12:21Z</time></trkpt><trkpt lat="40.71210582303422" lon="9.684680214829347"><ele>18.5</ele><time>2026-05-01T08:12:22Z</time></trkpt><trkpt lat="40.71198054527476" lon="9.684971034846244"><ele>18.0</ele><time>2026-05-01T08:12:23Z</time></trkpt><trkpt lat="40.71185970916644" lon="9.68526456926143"><ele>18.0</ele><time>2026-05-01T08:12:24Z</time></trkpt><trkpt lat="40.71174510446343" lon="9.685564516942776"><ele>18.0</ele><time>2026-05-01T08:12:25Z</time></trkpt><trkpt lat="40.711638266516395" lon="9.685865824469099"><ele>17.5</ele><time>2026-05-01T08:12:26Z</time></trkpt><trkpt lat="40.711536643486085" lon="9.68617170230909"><ele>17.0</ele><time>2026-05-01T08:12:27Z</time></trkpt><trkpt lat="40.71143825408219" lon="9.686484101562062"><ele>17.0</ele><time>2026-05-01T08:12:28Z</time></trkpt><trkpt lat="40.711348121211756" lon="9.686801247665125"><ele>17.0</ele><time>2026-05-01T08:12:29Z</time></trkpt><trkpt lat="40.71126530176328" lon="9.687129464586572"><ele>17.0</ele><time>2026-05-01T08:12:30Z</time></trkpt><trkpt lat="40.71119485280607" lon="9.68747429826277"><ele>17.0</ele><time>2026-05-01T08:12:31Z</time></trkpt><trkpt lat="40.711128680440574" lon="9.687829040078766"><ele>19.0</ele><time>2026-05-01T08:12:32Z</time></trkpt><trkpt lat="40.7110677809843" lon="9.688177809609355"><ele>21.0</ele><time>2026-05-01T08:12:33Z</time></trkpt><trkpt lat="40.711011013893874" lon="9.688518010047186"><ele>21.5</ele><time>2026-05-01T08:12:34Z</time></trkpt><trkpt lat="40.710951301736" lon="9.688852322683596"><ele>22.0</ele><time>2026-05-01T08:12:35Z</time></trkpt><trkpt lat="40.71089063108011" lon="9.689175285033752"><ele>21.0</ele><time>2026-05-01T08:12:36Z</time></trkpt><trkpt lat="40.71082913683556" lon="9.689485628119208"><ele>20.0</ele><time>2026-05-01T08:12:37Z</time></trkpt><trkpt lat="40.71076300232185" lon="9.68978799962212"><ele>20.0</ele><time>2026-05-01T08:12:38Z</time></trkpt><trkpt lat="40.7106908978714" lon="9.690083022726924"><ele>20.0</ele><time>2026-05-01T08:12:39Z</time></trkpt><trkpt lat="40.71061223811926" lon="9.690367981308661"><ele>19.333333333333336</ele><time>2026-05-01T08:12:40Z</time></trkpt><trkpt lat="40.71052886528733" lon="9.690644629797456"><ele>18.666666666666668</ele><time>2026-05-01T08:12:41Z</time></trkpt><trkpt lat="40.710441803495364" lon="9.690916427945792"><ele>18.0</ele><time>2026-05-01T08:12:42Z</time></trkpt><trkpt lat="40.710345757124365" lon="9.691189365831566"><ele>19.0</ele><time>2026-05-01T08:12:43Z</time></trkpt><trkpt lat="40.71023890608121" lon="9.691455598150847"><ele>20.0</ele><time>2026-05-01T08:12:44Z</time></trkpt><trkpt lat="40.71011872211932" lon="9.69171518261452"><ele>19.5</ele><time>2026-05-01T08:12:45Z</time></trkpt><trkpt lat="40.70998835884358" lon="9.691967681540492"><ele>19.0</ele><time>2026-05-01T08:12:46Z</time></trkpt><trkpt lat="40.70984796910575" lon="9.692212174522615"><ele>19.0</ele><time>2026-05-01T08:12:47Z</time></trkpt><trkpt lat="40.70970124267313" lon="9.692448508752452"><ele>19.0</ele><time>2026-05-01T08:12:48Z</time></trkpt><trkpt lat="40.70954966065773" lon="9.692676163286489"><ele>24.5</ele><time>2026-05-01T08:12:49Z</time></trkpt><trkpt lat="40.70939150392161" lon="9.692892805648503"><ele>30.0</ele><time>2026-05-01T08:12:50Z</time></trkpt><trkpt lat="40.70922387875168" lon="9.693102904561371"><ele>30.0</ele><time>2026-05-01T08:12:51Z</time></trkpt><trkpt lat="40.70905054970964" lon="9.69330448329423"><ele>30.0</ele><time>2026-05-01T08:12:52Z</time></trkpt><trkpt lat="40.708871150920494" lon="9.693496779834136"><ele>30.0</ele><time>2026-05-01T08:12:53Z</time></trkpt><trkpt lat="40.7086850722014" lon="9.693679850926642"><ele>30.0</ele><time>2026-05-01T08:12:54Z</time></trkpt><trkpt lat="40.70849162300212" lon="9.693853516909062"><ele>30.0</ele><time>2026-05-01T08:12:55Z</time></trkpt><trkpt lat="40.708290941911045" lon="9.694017645261852"><ele>30.0</ele><time>2026-05-01T08:12:56Z</time></trkpt><trkpt lat="40.70808094394155" lon="9.694164953405513"><ele>30.0</ele><time>2026-05-01T08:12:57Z</time></trkpt><trkpt lat="40.70786212762897" lon="9.694307926032538"><ele>30.0</ele><time>2026-05-01T08:12:58Z</time></trkpt><trkpt lat="40.707635727266336" lon="9.694442690297812"><ele>25.5</ele><time>2026-05-01T08:12:59Z</time></trkpt><trkpt lat="40.7073995460536" lon="9.694564672941821"><ele>21.0</ele><time>2026-05-01T08:13:00Z</time></trkpt><trkpt lat="40.707156061574494" lon="9.694673391045612"><ele>20.5</ele><time>2026-05-01T08:13:01Z</time></trkpt><trkpt lat="40.70689889228121" lon="9.694757385485977"><ele>20.0</ele><time>2026-05-01T08:13:02Z</time></trkpt><trkpt lat="40.706640868361006" lon="9.694836660487628"><ele>20.0</ele><time>2026-05-01T08:13:03Z</time></trkpt><trkpt lat="40.706380999724495" lon="9.694902609638861"><ele>20.0</ele><time>2026-05-01T08:13:04Z</time></trkpt><trkpt lat="40.7061185660286" lon="9.694963293751307"><ele>19.5</ele><time>2026-05-01T08:13:05Z</time></trkpt><trkpt lat="40.705856583400376" lon="9.69501946254681"><ele>19.0</ele><time>2026-05-01T08:13:06Z</time></trkpt><trkpt lat="40.70558819114149" lon="9.69507669426584"><ele>19.0</ele><time>2026-05-01T08:13:07Z</time></trkpt><trkpt lat="40.705319031320045" lon="9.695140404207146"><ele>19.0</ele><time>2026-05-01T08:13:08Z</time></trkpt><trkpt lat="40.70505429833159" lon="9.695200543697059"><ele>18.5</ele><time>2026-05-01T08:13:09Z</time></trkpt><trkpt lat="40.704795173966524" lon="9.695262841346972"><ele>18.0</ele><time>2026-05-01T08:13:10Z</time></trkpt><trkpt lat="40.70453893105364" lon="9.695325645154231"><ele>19.0</ele><time>2026-05-01T08:13:11Z</time></trkpt><trkpt lat="40.704289948008544" lon="9.695396578764813"><ele>20.0</ele><time>2026-05-01T08:13:12Z</time></trkpt><trkpt lat="40.704045372740076" lon="9.695478301883293"><ele>20.0</ele><time>2026-05-01T08:13:13Z</time></trkpt><trkpt lat="40.70380618387961" lon="9.69556670431506"><ele>20.0</ele><time>2026-05-01T08:13:14Z</time></trkpt><trkpt lat="40.70356890153052" lon="9.695664345162065"><ele>23.0</ele><time>2026-05-01T08:13:15Z</time></trkpt><trkpt lat="40.70333510368135" lon="9.695766073558515"><ele>26.0</ele><time>2026-05-01T08:13:16Z</time></trkpt><trkpt lat="40.70310188682256" lon="9.69587692674891"><ele>26.0</ele><time>2026-05-01T08:13:17Z</time></trkpt><trkpt lat="40.70287357021921" lon="9.696002957808286"><ele>26.0</ele><time>2026-05-01T08:13:18Z</time></trkpt><trkpt lat="40.702648929431675" lon="9.696140045515497"><ele>27.5</ele><time>2026-05-01T08:13:19Z</time></trkpt><trkpt lat="40.70243212227419" lon="9.69628870795526"><ele>29.0</ele><time>2026-05-01T08:13:20Z</time></trkpt><trkpt lat="40.702220675469654" lon="9.696446164468703"><ele>29.0</ele><time>2026-05-01T08:13:21Z</time></trkpt><trkpt lat="40.70201546591733" lon="9.696607738883875"><ele>29.0</ele><time>2026-05-01T08:13:22Z</time></trkpt><trkpt lat="40.70181258201984" lon="9.696783303112618"><ele>25.0</ele><time>2026-05-01T08:13:23Z</time></trkpt><trkpt lat="40.70161099650439" lon="9.69697530556486"><ele>21.0</ele><time>2026-05-01T08:13:24Z</time></trkpt><trkpt lat="40.70140942735387" lon="9.697168433040806"><ele>21.0</ele><time>2026-05-01T08:13:25Z</time></trkpt><trkpt lat="40.70121467836788" lon="9.697378421716751"><ele>21.0</ele><time>2026-05-01T08:13:26Z</time></trkpt><trkpt lat="40.70102379244931" lon="9.697602032376494"><ele>19.0</ele><time>2026-05-01T08:13:27Z</time></trkpt><trkpt lat="40.70083709572031" lon="9.697833314129605"><ele>17.0</ele><time>2026-05-01T08:13:28Z</time></trkpt><trkpt lat="40.70065915482766" lon="9.698075429892501"><ele>17.0</ele><time>2026-05-01T08:13:29Z</time></trkpt><trkpt lat="40.70048355299838" lon="9.698324783845848"><ele>17.0</ele><time>2026-05-01T08:13:30Z</time></trkpt><trkpt lat="40.70031434909124" lon="9.698585530956612"><ele>18.0</ele><time>2026-05-01T08:13:31Z</time></trkpt><trkpt lat="40.70014778693795" lon="9.698847172481615"><ele>19.0</ele><time>2026-05-01T08:13:32Z</time></trkpt><trkpt lat="40.69998508870565" lon="9.69911357059"><ele>19.0</ele><time>2026-05-01T08:13:33Z</time></trkpt><trkpt lat="40.699828767379564" lon="9.69938236785643"><ele>19.0</ele><time>2026-05-01T08:13:34Z</time></trkpt><trkpt lat="40.69969216504074" lon="9.699664801606888"><ele>18.0</ele><time>2026-05-01T08:13:35Z</time></trkpt><trkpt lat="40.69957713130858" lon="9.699963693801477"><ele>17.0</ele><time>2026-05-01T08:13:36Z</time></trkpt><trkpt lat="40.699470207238534" lon="9.700265662833871"><ele>17.5</ele><time>2026-05-01T08:13:37Z</time></trkpt><trkpt lat="40.699363117224244" lon="9.700566339754435"><ele>18.0</ele><time>2026-05-01T08:13:38Z</time></trkpt><trkpt lat="40.69926010142253" lon="9.70087032070061"><ele>16.0</ele><time>2026-05-01T08:13:39Z</time></trkpt><trkpt lat="40.69916730442824" lon="9.701178463784553"><ele>14.0</ele><time>2026-05-01T08:13:40Z</time></trkpt><trkpt lat="40.6990841063256" lon="9.701489443244112"><ele>14.0</ele><time>2026-05-01T08:13:41Z</time></trkpt><trkpt lat="40.69901060394022" lon="9.701803856876742"><ele>14.0</ele><time>2026-05-01T08:13:42Z</time></trkpt><trkpt lat="40.69894372937382" lon="9.702120182609068"><ele>13.5</ele><time>2026-05-01T08:13:43Z</time></trkpt><trkpt lat="40.69888180356694" lon="9.702436532790209"><ele>13.0</ele><time>2026-05-01T08:13:44Z</time></trkpt><trkpt lat="40.698828337713515" lon="9.70275332945778"><ele>12.5</ele><time>2026-05-01T08:13:45Z</time></trkpt><trkpt lat="40.698786557083395" lon="9.703073055843864"><ele>12.0</ele><time>2026-05-01T08:13:46Z</time></trkpt><trkpt lat="40.698758253435315" lon="9.703395646303271"><ele>10.5</ele><time>2026-05-01T08:13:47Z</time></trkpt><trkpt lat="40.69874382552194" lon="9.703720524789642"><ele>9.0</ele><time>2026-05-01T08:13:48Z</time></trkpt><trkpt lat="40.69873572290543" lon="9.70404594965153"><ele>9.0</ele><time>2026-05-01T08:13:49Z</time></trkpt><trkpt lat="40.69872883788161" lon="9.704373052108533"><ele>9.0</ele><time>2026-05-01T08:13:50Z</time></trkpt><trkpt lat="40.69872301004024" lon="9.704700030793518"><ele>9.0</ele><time>2026-05-01T08:13:51Z</time></trkpt><trkpt lat="40.69871966520076" lon="9.705024394873176"><ele>9.0</ele><time>2026-05-01T08:13:52Z</time></trkpt><trkpt lat="40.69871717224991" lon="9.705350520086975"><ele>8.5</ele><time>2026-05-01T08:13:53Z</time></trkpt><trkpt lat="40.69871558939078" lon="9.7056758085819"><ele>8.0</ele><time>2026-05-01T08:13:54Z</time></trkpt><trkpt lat="40.6987121126871" lon="9.706004225100616"><ele>8.0</ele><time>2026-05-01T08:13:55Z</time></trkpt><trkpt lat="40.69870250140083" lon="9.706332895866366"><ele>8.0</ele><time>2026-05-01T08:13:56Z</time></trkpt><trkpt lat="40.6986811832991" lon="9.70666254995598"><ele>8.0</ele><time>2026-05-01T08:13:57Z</time></trkpt><trkpt lat="40.69864466801542" lon="9.706992525148635"><ele>8.0</ele><time>2026-05-01T08:13:58Z</time></trkpt><trkpt lat="40.69859169420546" lon="9.70731766531912"><ele>10.0</ele><time>2026-05-01T08:13:59Z</time></trkpt><trkpt lat="40.6985263977815" lon="9.70763882836078"><ele>12.0</ele><time>2026-05-01T08:14:00Z</time></trkpt><trkpt lat="40.698454666477886" lon="9.707959258672117"><ele>13.5</ele><time>2026-05-01T08:14:01Z</time></trkpt><trkpt lat="40.69837315189292" lon="9.708272192015983"><ele>15.0</ele><time>2026-05-01T08:14:02Z</time></trkpt><trkpt lat="40.69827902755936" lon="9.708579609378601"><ele>16.0</ele><time>2026-05-01T08:14:03Z</time></trkpt><trkpt lat="40.69817542620918" lon="9.70888062084633"><ele>17.0</ele><time>2026-05-01T08:14:04Z</time></trkpt><trkpt lat="40.69805497964108" lon="9.709174663505618"><ele>16.0</ele><time>2026-05-01T08:14:05Z</time></trkpt><trkpt lat="40.697926514643086" lon="9.709465082227853"><ele>15.0</ele><time>2026-05-01T08:14:06Z</time></trkpt><trkpt lat="40.69778480958433" lon="9.709748483734051"><ele>14.0</ele><time>2026-05-01T08:14:07Z</time></trkpt><trkpt lat="40.6976287663369" lon="9.710021697401741"><ele>13.0</ele><time>2026-05-01T08:14:08Z</time></trkpt><trkpt lat="40.69745999004713" lon="9.71028122633771"><ele>13.0</ele><time>2026-05-01T08:14:09Z</time></trkpt><trkpt lat="40.69728164134125" lon="9.710531646482305"><ele>13.0</ele><time>2026-05-01T08:14:10Z</time></trkpt><trkpt lat="40.697097208617535" lon="9.710769716830681"><ele>14.5</ele><time>2026-05-01T08:14:11Z</time></trkpt><trkpt lat="40.696910704301935" lon="9.71099139310531"><ele>16.0</ele><time>2026-05-01T08:14:12Z</time></trkpt><trkpt lat="40.69671613297419" lon="9.711195777076261"><ele>13.0</ele><time>2026-05-01T08:14:13Z</time></trkpt><trkpt lat="40.696517054900944" lon="9.711387864666714"><ele>10.0</ele><time>2026-05-01T08:14:14Z</time></trkpt><trkpt lat="40.69630853654101" lon="9.711558789085718"><ele>10.0</ele><time>2026-05-01T08:14:15Z</time></trkpt><trkpt lat="40.69609691430144" lon="9.711715637045229"><ele>10.0</ele><time>2026-05-01T08:14:16Z</time></trkpt><trkpt lat="40.69587448339644" lon="9.711867242572318"><ele>7.0</ele><time>2026-05-01T08:14:17Z</time></trkpt><trkpt lat="40.69564634070298" lon="9.712010177050523"><ele>4.0</ele><time>2026-05-01T08:14:18Z</time></trkpt><trkpt lat="40.6954093018865" lon="9.712138200303423"><ele>3.5</ele><time>2026-05-01T08:14:19Z</time></trkpt><trkpt lat="40.69516566479864" lon="9.712253007609537"><ele>3.0</ele><time>2026-05-01T08:14:20Z</time></trkpt><trkpt lat="40.69491713202025" lon="9.712349212692294"><ele>3.0</ele><time>2026-05-01T08:14:21Z</time></trkpt><trkpt lat="40.69466348457965" lon="9.712426671937578"><ele>3.0</ele><time>2026-05-01T08:14:22Z</time></trkpt><trkpt lat="40.69440303652697" lon="9.712481730882084"><ele>4.0</ele><time>2026-05-01T08:14:23Z</time></trkpt><trkpt lat="40.69414044932458" lon="9.712523740944109"><ele>5.0</ele><time>2026-05-01T08:14:24Z</time></trkpt><trkpt lat="40.69387656964028" lon="9.712553270334087"><ele>5.0</ele><time>2026-05-01T08:14:25Z</time></trkpt><trkpt lat="40.69360732630721" lon="9.712576666890644"><ele>5.0</ele><time>2026-05-01T08:14:26Z</time></trkpt><trkpt lat="40.69333925112118" lon="9.71259752964099"><ele>4.5</ele><time>2026-05-01T08:14:27Z</time></trkpt><trkpt lat="40.693085339337806" lon="9.712621128743935"><ele>4.0</ele><time>2026-05-01T08:14:28Z</time></trkpt><trkpt lat="40.69284390885867" lon="9.712647662350074"><ele>4.0</ele><time>2026-05-01T08:14:29Z</time></trkpt><trkpt lat="40.692604569887834" lon="9.712686767287018"><ele>4.0</ele><time>2026-05-01T08:14:30Z</time></trkpt><trkpt lat="40.69236030235927" lon="9.712743672439446"><ele>4.0</ele><time>2026-05-01T08:14:31Z</time></trkpt><trkpt lat="40.69213247829828" lon="9.712837523616011"><ele>4.0</ele><time>2026-05-01T08:14:32Z</time></trkpt><trkpt lat="40.691908960511746" lon="9.71295658062452"><ele>5.0</ele><time>2026-05-01T08:14:33Z</time></trkpt><trkpt lat="40.69168788854355" lon="9.713090743746232"><ele>6.0</ele><time>2026-05-01T08:14:34Z</time></trkpt><trkpt lat="40.691473330517915" lon="9.71324636363609"><ele>6.0</ele><time>2026-05-01T08:14:35Z</time></trkpt><trkpt lat="40.69126384127997" lon="9.713417797064684"><ele>6.0</ele><time>2026-05-01T08:14:36Z</time></trkpt><trkpt lat="40.69106420692685" lon="9.713620724726272"><ele>5.5</ele><time>2026-05-01T08:14:37Z</time></trkpt><trkpt lat="40.69086948464924" lon="9.713828388427357"><ele>5.0</ele><time>2026-05-01T08:14:38Z</time></trkpt><trkpt lat="40.69067275300581" lon="9.71403635573586"><ele>5.0</ele><time>2026-05-01T08:14:39Z</time></trkpt><trkpt lat="40.690474115524324" lon="9.714242697827972"><ele>5.0</ele><time>2026-05-01T08:14:40Z</time></trkpt><trkpt lat="40.69027401150195" lon="9.714440103513878"><ele>5.0</ele><time>2026-05-01T08:14:41Z</time></trkpt><trkpt lat="40.69007098298171" lon="9.714639281635149"><ele>5.0</ele><time>2026-05-01T08:14:42Z</time></trkpt><trkpt lat="40.68986845357068" lon="9.714839411043616"><ele>5.0</ele><time>2026-05-01T08:14:43Z</time></trkpt><trkpt lat="40.689666488767024" lon="9.715036248310524"><ele>5.0</ele><time>2026-05-01T08:14:44Z</time></trkpt><trkpt lat="40.68946497570527" lon="9.715230188387912"><ele>5.0</ele><time>2026-05-01T08:14:45Z</time></trkpt><trkpt lat="40.689261276037215" lon="9.715425920945735"><ele>5.0</ele><time>2026-05-01T08:14:46Z</time></trkpt><trkpt lat="40.68905961984046" lon="9.715618625769142"><ele>5.0</ele><time>2026-05-01T08:14:47Z</time></trkpt><trkpt lat="40.688853665852385" lon="9.715800892887614"><ele>5.0</ele><time>2026-05-01T08:14:48Z</time></trkpt><trkpt lat="40.68864693932493" lon="9.715976398081926"><ele>5.0</ele><time>2026-05-01T08:14:49Z</time></trkpt><trkpt lat="40.68843678784454" lon="9.71614174688229"><ele>5.0</ele><time>2026-05-01T08:14:50Z</time></trkpt><trkpt lat="40.68822598789549" lon="9.716298836984516"><ele>5.0</ele><time>2026-05-01T08:14:51Z</time></trkpt><trkpt lat="40.68801773773606" lon="9.716447004987014"><ele>5.0</ele><time>2026-05-01T08:14:52Z</time></trkpt><trkpt lat="40.687815287940474" lon="9.716571980656939"><ele>5.333333333333334</ele><time>2026-05-01T08:14:53Z</time></trkpt><trkpt lat="40.68762262460067" lon="9.716697049373456"><ele>5.666666666666667</ele><time>2026-05-01T08:14:54Z</time></trkpt><trkpt lat="40.68742926739138" lon="9.716811026398656"><ele>6.0</ele><time>2026-05-01T08:14:55Z</time></trkpt><trkpt lat="40.68722879717912" lon="9.716920715057354"><ele>6.0</ele><time>2026-05-01T08:14:56Z</time></trkpt><trkpt lat="40.68702103523731" lon="9.717029465394095"><ele>6.0</ele><time>2026-05-01T08:14:57Z</time></trkpt><trkpt lat="40.68681068906452" lon="9.717135721365647"><ele>6.0</ele><time>2026-05-01T08:14:58Z</time></trkpt><trkpt lat="40.686594372768816" lon="9.71724037930564"><ele>7.0</ele><time>2026-05-01T08:14:59Z</time></trkpt><trkpt lat="40.686375183972366" lon="9.71734231875604"><ele>8.0</ele><time>2026-05-01T08:15:00Z</time></trkpt><trkpt lat="40.68615194035966" lon="9.717439046266234"><ele>8.5</ele><time>2026-05-01T08:15:01Z</time></trkpt><trkpt lat="40.68592247927224" lon="9.71753002588237"><ele>9.0</ele><time>2026-05-01T08:15:02Z</time></trkpt><trkpt lat="40.68568785990982" lon="9.717613404833513"><ele>9.0</ele><time>2026-05-01T08:15:03Z</time></trkpt><trkpt lat="40.685447645456684" lon="9.71769083505429"><ele>9.0</ele><time>2026-05-01T08:15:04Z</time></trkpt><trkpt lat="40.68520322560237" lon="9.717762051592349"><ele>9.5</ele><time>2026-05-01T08:15:05Z</time></trkpt><trkpt lat="40.684955461207366" lon="9.71782657601322"><ele>10.0</ele><time>2026-05-01T08:15:06Z</time></trkpt><trkpt lat="40.68470170223687" lon="9.717885650591716"><ele>10.0</ele><time>2026-05-01T08:15:07Z</time></trkpt><trkpt lat="40.68444291614666" lon="9.717937648904158"><ele>10.0</ele><time>2026-05-01T08:15:08Z</time></trkpt><trkpt lat="40.684179889128586" lon="9.717980782027055"><ele>10.5</ele><time>2026-05-01T08:15:09Z</time></trkpt><trkpt lat="40.68391387733606" lon="9.718014766763492"><ele>11.0</ele><time>2026-05-01T08:15:10Z</time></trkpt><trkpt lat="40.68364553568337" lon="9.7180402950942"><ele>12.0</ele><time>2026-05-01T08:15:11Z</time></trkpt><trkpt lat="40.683377618979065" lon="9.718059787396793"><ele>13.0</ele><time>2026-05-01T08:15:12Z</time></trkpt><trkpt lat="40.68311011136211" lon="9.718069824270476"><ele>13.0</ele><time>2026-05-01T08:15:13Z</time></trkpt><trkpt lat="40.682846653747674" lon="9.718070142971253"><ele>13.0</ele><time>2026-05-01T08:15:14Z</time></trkpt><trkpt lat="40.682588148335405" lon="9.718060047332763"><ele>14.5</ele><time>2026-05-01T08:15:15Z</time></trkpt><trkpt lat="40.68233069623865" lon="9.718044705557501"><ele>16.0</ele><time>2026-05-01T08:15:16Z</time></trkpt><trkpt lat="40.6820721146845" lon="9.718015843598335"><ele>18.0</ele><time>2026-05-01T08:15:17Z</time></trkpt><trkpt lat="40.68181321144235" lon="9.71798251773166"><ele>20.0</ele><time>2026-05-01T08:15:18Z</time></trkpt><trkpt lat="40.68155557591126" lon="9.71794514935509"><ele>20.0</ele><time>2026-05-01T08:15:19Z</time></trkpt><trkpt lat="40.68130010723729" lon="9.717903256099051"><ele>20.0</ele><time>2026-05-01T08:15:20Z</time></trkpt><trkpt lat="40.68104583462698" lon="9.717853235833338"><ele>25.5</ele><time>2026-05-01T08:15:21Z</time></trkpt><trkpt lat="40.68079382995577" lon="9.717791339276502"><ele>31.0</ele><time>2026-05-01T08:15:22Z</time></trkpt><trkpt lat="40.680542966807934" lon="9.717713912716873"><ele>31.0</ele><time>2026-05-01T08:15:23Z</time></trkpt><trkpt lat="40.68029178218845" lon="9.71763036300563"><ele>31.0</ele><time>2026-05-01T08:15:24Z</time></trkpt><trkpt lat="40.68004065767757" lon="9.717545265996678"><ele>42.0</ele><time>2026-05-01T08:15:25Z</time></trkpt><trkpt lat="40.67979475234629" lon="9.717460100603613"><ele>53.0</ele><time>2026-05-01T08:15:26Z</time></trkpt><trkpt lat="40.67954367734449" lon="9.7173767153409"><ele>70.5</ele><time>2026-05-01T08:15:27Z</time></trkpt><trkpt lat="40.67928605082355" lon="9.71728985403915"><ele>88.0</ele><time>2026-05-01T08:15:28.025Z</time></trkpt><trkpt lat="40.67903720106935" lon="9.717205249633867"><ele>88.0</ele><time>2026-05-01T08:15:29.025Z</time></trkpt><trkpt lat="40.67879432296354" lon="9.717072489027295"><ele>88.0</ele><time>2026-05-01T08:15:30.025Z</time></trkpt><trkpt lat="40.67856593875846" lon="9.716890395180645"><ele>95.5</ele><time>2026-05-01T08:15:31.026Z</time></trkpt><trkpt lat="40.678443924406906" lon="9.716837414795402"><ele>103.0</ele><time>2026-05-01T08:15:31.526Z</time></trkpt><trkpt lat="40.67710138262313" lon="9.716083846525871"><ele>118.0</ele><time>2026-05-01T08:15:35.714Z</time></trkpt><trkpt lat="40.67676709354494" lon="9.715906366945731"><ele>133.0</ele><time>2026-05-01T08:15:36.715Z</time></trkpt><trkpt lat="40.67643454768294" lon="9.715725798428842"><ele>33.0</ele><time>2026-05-01T08:15:37.714Z</time></trkpt><trkpt lat="40.668694446468024" lon="9.712589549351149"><ele>29.5</ele><time>2026-05-01T08:16:04.7Z</time></trkpt><trkpt lat="40.66844793133713" lon="9.712589355253634"><ele>26.0</ele><time>2026-05-01T08:16:05.65Z</time></trkpt><trkpt lat="40.66819980051951" lon="9.712603746557672"><ele>26.0</ele><time>2026-05-01T08:16:06.6Z</time></trkpt><trkpt lat="40.66796981552481" lon="9.71262792475382"><ele>26.0</ele><time>2026-05-01T08:16:07.55Z</time></trkpt><trkpt lat="40.66773031234733" lon="9.712659055192328"><ele>25.5</ele><time>2026-05-01T08:16:08.5Z</time></trkpt><trkpt lat="40.66748827654757" lon="9.712695425056364"><ele>25.0</ele><time>2026-05-01T08:16:09.45Z</time></trkpt><trkpt lat="40.66724160780806" lon="9.712745131021618"><ele>25.0</ele><time>2026-05-01T08:16:10.4Z</time></trkpt><trkpt lat="40.66699148589857" lon="9.712803169323585"><ele>25.0</ele><time>2026-05-01T08:16:11.35Z</time></trkpt><trkpt lat="40.66674352422077" lon="9.712870493469005"><ele>22.5</ele><time>2026-05-01T08:16:12.3Z</time></trkpt><trkpt lat="40.66649080754634" lon="9.71295287415586"><ele>20.0</ele><time>2026-05-01T08:16:13.25Z</time></trkpt><trkpt lat="40.66624395656292" lon="9.7130440471257"><ele>20.5</ele><time>2026-05-01T08:16:14.2Z</time></trkpt><trkpt lat="40.66600400075227" lon="9.713146512080545"><ele>21.0</ele><time>2026-05-01T08:16:15.15Z</time></trkpt><trkpt lat="40.66576546729523" lon="9.713267271085464"><ele>21.0</ele><time>2026-05-01T08:16:16.1Z</time></trkpt><trkpt lat="40.66553212021801" lon="9.713388365004272"><ele>21.0</ele><time>2026-05-01T08:16:17.05Z</time></trkpt><trkpt lat="40.66530272708969" lon="9.713520872705564"><ele>20.0</ele><time>2026-05-01T08:16:18Z</time></trkpt><trkpt lat="40.665065554170006" lon="9.713666749017289"><ele>19.0</ele><time>2026-05-01T08:16:19Z</time></trkpt><trkpt lat="40.66483137702809" lon="9.713819878430677"><ele>19.0</ele><time>2026-05-01T08:16:20Z</time></trkpt><trkpt lat="40.66460124881616" lon="9.713982846605107"><ele>19.0</ele><time>2026-05-01T08:16:21Z</time></trkpt><trkpt lat="40.66437768833205" lon="9.71415433969539"><ele>18.5</ele><time>2026-05-01T08:16:22Z</time></trkpt><trkpt lat="40.66415857020524" lon="9.71433858740961"><ele>18.0</ele><time>2026-05-01T08:16:23Z</time></trkpt><trkpt lat="40.66394125684366" lon="9.7145324934262"><ele>18.0</ele><time>2026-05-01T08:16:24Z</time></trkpt><trkpt lat="40.66372601429378" lon="9.714736422024812"><ele>18.0</ele><time>2026-05-01T08:16:25Z</time></trkpt><trkpt lat="40.66351277899726" lon="9.714944868423927"><ele>18.0</ele><time>2026-05-01T08:16:26Z</time></trkpt><trkpt lat="40.663300561563965" lon="9.71515698372201"><ele>18.0</ele><time>2026-05-01T08:16:27Z</time></trkpt><trkpt lat="40.66309598868462" lon="9.715377772791818"><ele>18.0</ele><time>2026-05-01T08:16:28Z</time></trkpt><trkpt lat="40.66292967274526" lon="9.715578466788235"><ele>18.0</ele><time>2026-05-01T08:16:29Z</time></trkpt><trkpt lat="40.66279571088361" lon="9.71575411825676"><ele>18.0</ele><time>2026-05-01T08:16:30Z</time></trkpt><trkpt lat="40.662669887848395" lon="9.715924805137638"><ele>16.666666666666668</ele><time>2026-05-01T08:16:31Z</time></trkpt><trkpt lat="40.66253945974097" lon="9.716100781158437"><ele>15.333333333333334</ele><time>2026-05-01T08:16:32Z</time></trkpt><trkpt lat="40.66242532719717" lon="9.716266789853918"><ele>14.0</ele><time>2026-05-01T08:16:33Z</time></trkpt><trkpt lat="40.662291721707945" lon="9.71644552215958"><ele>14.0</ele><time>2026-05-01T08:16:34Z</time></trkpt><trkpt lat="40.6621658953163" lon="9.716623200319928"><ele>14.0</ele><time>2026-05-01T08:16:35Z</time></trkpt><trkpt lat="40.66203994507785" lon="9.716799093279715"><ele>14.0</ele><time>2026-05-01T08:16:36Z</time></trkpt><trkpt lat="40.66191519833387" lon="9.716977300653515"><ele>13.333333333333334</ele><time>2026-05-01T08:16:37Z</time></trkpt><trkpt lat="40.66178999880918" lon="9.717155914963534"><ele>12.666666666666668</ele><time>2026-05-01T08:16:38Z</time></trkpt><trkpt lat="40.66166000142345" lon="9.717333306669785"><ele>12.0</ele><time>2026-05-01T08:16:39Z</time></trkpt><trkpt lat="40.66152466980783" lon="9.717513766118138"><ele>12.0</ele><time>2026-05-01T08:16:40Z</time></trkpt><trkpt lat="40.661386257739416" lon="9.717696060908972"><ele>12.0</ele><time>2026-05-01T08:16:41Z</time></trkpt><trkpt lat="40.66124804634581" lon="9.71788221000958"><ele>12.0</ele><time>2026-05-01T08:16:42Z</time></trkpt><trkpt lat="40.66111047316257" lon="9.718072297141779"><ele>11.333333333333334</ele><time>2026-05-01T08:16:43Z</time></trkpt><trkpt lat="40.66097124025393" lon="9.718266386894692"><ele>10.666666666666668</ele><time>2026-05-01T08:16:44Z</time></trkpt><trkpt lat="40.66083026134771" lon="9.7184637487886"><ele>10.0</ele><time>2026-05-01T08:16:45Z</time></trkpt><trkpt lat="40.660687142883326" lon="9.718664862435796"><ele>10.0</ele><time>2026-05-01T08:16:46Z</time></trkpt><trkpt lat="40.66054291780391" lon="9.718868617936918"><ele>10.0</ele><time>2026-05-01T08:16:47Z</time></trkpt><trkpt lat="40.6603960132314" lon="9.719072726215261"><ele>10.0</ele><time>2026-05-01T08:16:48Z</time></trkpt><trkpt lat="40.66024689418108" lon="9.719276925788462"><ele>9.666666666666668</ele><time>2026-05-01T08:16:49Z</time></trkpt><trkpt lat="40.66009495067587" lon="9.719483680677122"><ele>9.333333333333334</ele><time>2026-05-01T08:16:50Z</time></trkpt><trkpt lat="40.65993884266065" lon="9.719691847412493"><ele>9.0</ele><time>2026-05-01T08:16:51Z</time></trkpt><trkpt lat="40.65978080036053" lon="9.71990155922376"><ele>9.0</ele><time>2026-05-01T08:16:52Z</time></trkpt><trkpt lat="40.659617761054605" lon="9.720110993298375"><ele>9.0</ele><time>2026-05-01T08:16:53Z</time></trkpt><trkpt lat="40.65944888173281" lon="9.720320199777273"><ele>8.5</ele><time>2026-05-01T08:16:54Z</time></trkpt><trkpt lat="40.65927401246257" lon="9.720521286620954"><ele>8.0</ele><time>2026-05-01T08:16:55Z</time></trkpt><trkpt lat="40.6590942692926" lon="9.720714151729117"><ele>8.0</ele><time>2026-05-01T08:16:56Z</time></trkpt><trkpt lat="40.658910095325375" lon="9.720898450094612"><ele>8.0</ele><time>2026-05-01T08:16:57Z</time></trkpt><trkpt lat="40.65871981788219" lon="9.721072330108159"><ele>7.0</ele><time>2026-05-01T08:16:58Z</time></trkpt><trkpt lat="40.65852535811277" lon="9.721237109583893"><ele>6.0</ele><time>2026-05-01T08:16:59Z</time></trkpt><trkpt lat="40.65832799722964" lon="9.721397567674165"><ele>6.0</ele><time>2026-05-01T08:17:00Z</time></trkpt><trkpt lat="40.65812576660193" lon="9.721547875102564"><ele>6.0</ele><time>2026-05-01T08:17:01Z</time></trkpt><trkpt lat="40.65791705579949" lon="9.721684126502549"><ele>6.0</ele><time>2026-05-01T08:17:02Z</time></trkpt><trkpt lat="40.657703807477304" lon="9.7218060864771"><ele>6.0</ele><time>2026-05-01T08:17:03Z</time></trkpt><trkpt lat="40.657486615903764" lon="9.721921459173048"><ele>5.0</ele><time>2026-05-01T08:17:04Z</time></trkpt><trkpt lat="40.657264022597886" lon="9.72203174469356"><ele>4.0</ele><time>2026-05-01T08:17:05Z</time></trkpt><trkpt lat="40.65703800984237" lon="9.722134609487412"><ele>5.0</ele><time>2026-05-01T08:17:06Z</time></trkpt><trkpt lat="40.65680657618659" lon="9.722229340568102"><ele>6.0</ele><time>2026-05-01T08:17:07Z</time></trkpt><trkpt lat="40.65657025912149" lon="9.72231353513055"><ele>6.0</ele><time>2026-05-01T08:17:08Z</time></trkpt><trkpt lat="40.65632708132239" lon="9.722386779643337"><ele>6.0</ele><time>2026-05-01T08:17:09Z</time></trkpt><trkpt lat="40.65606958956531" lon="9.722449110994996"><ele>7.5</ele><time>2026-05-01T08:17:10Z</time></trkpt><trkpt lat="40.655787723264865" lon="9.722503532574262"><ele>9.0</ele><time>2026-05-01T08:17:11Z</time></trkpt><trkpt lat="40.655488782691336" lon="9.722543116645538"><ele>7.5</ele><time>2026-05-01T08:17:12Z</time></trkpt><trkpt lat="40.655176243280614" lon="9.722565121837032"><ele>6.0</ele><time>2026-05-01T08:17:13Z</time></trkpt><trkpt lat="40.65485439467348" lon="9.722564525064788"><ele>6.0</ele><time>2026-05-01T08:17:14Z</time></trkpt><trkpt lat="40.65452790392242" lon="9.722545940926267"><ele>6.0</ele><time>2026-05-01T08:17:15Z</time></trkpt><trkpt lat="40.65419726248696" lon="9.72250581823065"><ele>5.0</ele><time>2026-05-01T08:17:16Z</time></trkpt><trkpt lat="40.65386337637968" lon="9.722440523305655"><ele>4.0</ele><time>2026-05-01T08:17:17Z</time></trkpt><trkpt lat="40.65352426297136" lon="9.722351847751996"><ele>3.5</ele><time>2026-05-01T08:17:18Z</time></trkpt><trkpt lat="40.653193120004" lon="9.722242727624124"><ele>3.0</ele><time>2026-05-01T08:17:19Z</time></trkpt><trkpt lat="40.6528788074001" lon="9.72212185048106"><ele>5.0</ele><time>2026-05-01T08:17:20Z</time></trkpt><trkpt lat="40.65257741142385" lon="9.721985989059712"><ele>7.0</ele><time>2026-05-01T08:17:21Z</time></trkpt><trkpt lat="40.65228710332168" lon="9.72183634261086"><ele>7.0</ele><time>2026-05-01T08:17:22Z</time></trkpt><trkpt lat="40.652004382316605" lon="9.721673981893405"><ele>7.0</ele><time>2026-05-01T08:17:23Z</time></trkpt><trkpt lat="40.65172457541855" lon="9.721490494782701"><ele>7.0</ele><time>2026-05-01T08:17:24Z</time></trkpt><trkpt lat="40.65144325032728" lon="9.721290278164808"><ele>7.0</ele><time>2026-05-01T08:17:25Z</time></trkpt><trkpt lat="40.65117631926991" lon="9.721082502075769"><ele>8.0</ele><time>2026-05-01T08:17:26Z</time></trkpt><trkpt lat="40.650921552434745" lon="9.720873305622082"><ele>9.0</ele><time>2026-05-01T08:17:27Z</time></trkpt><trkpt lat="40.65066900054731" lon="9.720651001320888"><ele>9.0</ele><time>2026-05-01T08:17:28Z</time></trkpt><trkpt lat="40.65042149569877" lon="9.720411236736384"><ele>9.0</ele><time>2026-05-01T08:17:29Z</time></trkpt><trkpt lat="40.650182160180684" lon="9.720150323024406"><ele>10.0</ele><time>2026-05-01T08:17:30Z</time></trkpt><trkpt lat="40.649948028541125" lon="9.719871017582896"><ele>11.0</ele><time>2026-05-01T08:17:31Z</time></trkpt><trkpt lat="40.6497254278336" lon="9.719575629425961"><ele>10.5</ele><time>2026-05-01T08:17:32Z</time></trkpt><trkpt lat="40.64952073152677" lon="9.71927000019371"><ele>10.0</ele><time>2026-05-01T08:17:33Z</time></trkpt><trkpt lat="40.649334379990194" lon="9.71896709940213"><ele>10.0</ele><time>2026-05-01T08:17:34Z</time></trkpt><trkpt lat="40.64915542070867" lon="9.718671296427415"><ele>10.0</ele><time>2026-05-01T08:17:35Z</time></trkpt><trkpt lat="40.64898139015908" lon="9.718383346960582"><ele>12.5</ele><time>2026-05-01T08:17:36Z</time></trkpt><trkpt lat="40.64883482575989" lon="9.718090042335112"><ele>15.0</ele><time>2026-05-01T08:17:37Z</time></trkpt><trkpt lat="40.648698083089705" lon="9.717799335361095"><ele>11.5</ele><time>2026-05-01T08:17:38Z</time></trkpt><trkpt lat="40.648571026895425" lon="9.71751325894211"><ele>8.0</ele><time>2026-05-01T08:17:39Z</time></trkpt><trkpt lat="40.64844158729582" lon="9.71721653162553"><ele>8.0</ele><time>2026-05-01T08:17:40Z</time></trkpt><trkpt lat="40.648310802259836" lon="9.716914827556634"><ele>8.0</ele><time>2026-05-01T08:17:41Z</time></trkpt><trkpt lat="40.64817828869516" lon="9.716609731239673"><ele>8.5</ele><time>2026-05-01T08:17:42Z</time></trkpt><trkpt lat="40.6480442956963" lon="9.716305022832392"><ele>9.0</ele><time>2026-05-01T08:17:43Z</time></trkpt><trkpt lat="40.64790896725219" lon="9.715993812416633"><ele>6.5</ele><time>2026-05-01T08:17:44Z</time></trkpt><trkpt lat="40.64777371451696" lon="9.715684096191254"><ele>4.0</ele><time>2026-05-01T08:17:45Z</time></trkpt><trkpt lat="40.647642279279864" lon="9.715378032970964"><ele>5.0</ele><time>2026-05-01T08:17:46Z</time></trkpt><trkpt lat="40.64751100076589" lon="9.71507198661042"><ele>6.0</ele><time>2026-05-01T08:17:47Z</time></trkpt><trkpt lat="40.64738110043395" lon="9.714768611710443"><ele>6.0</ele><time>2026-05-01T08:17:48Z</time></trkpt><trkpt lat="40.64725010386952" lon="9.714471053291197"><ele>6.0</ele><time>2026-05-01T08:17:49Z</time></trkpt><trkpt lat="40.647118851415634" lon="9.714176109826198"><ele>6.0</ele><time>2026-05-01T08:17:50Z</time></trkpt><trkpt lat="40.64699049119867" lon="9.713887647438316"><ele>6.0</ele><time>2026-05-01T08:17:51Z</time></trkpt><trkpt lat="40.64686509407534" lon="9.713600201485775"><ele>7.5</ele><time>2026-05-01T08:17:52Z</time></trkpt><trkpt lat="40.64674068360366" lon="9.713312899564853"><ele>9.0</ele><time>2026-05-01T08:17:53Z</time></trkpt><trkpt lat="40.646619143795554" lon="9.71303121280625"><ele>9.0</ele><time>2026-05-01T08:17:54Z</time></trkpt><trkpt lat="40.646497483892254" lon="9.71275624828456"><ele>9.0</ele><time>2026-05-01T08:17:55Z</time></trkpt><trkpt lat="40.64637664897813" lon="9.712485372210717"><ele>9.5</ele><time>2026-05-01T08:17:56Z</time></trkpt><trkpt lat="40.646258615743655" lon="9.712216115669845"><ele>10.0</ele><time>2026-05-01T08:17:57Z</time></trkpt><trkpt lat="40.64613961433868" lon="9.711950864490245"><ele>8.5</ele><time>2026-05-01T08:17:58Z</time></trkpt><trkpt lat="40.646021221878016" lon="9.71168685875759"><ele>7.0</ele><time>2026-05-01T08:17:59Z</time></trkpt><trkpt lat="40.64590469136225" lon="9.711427389450824"><ele>7.0</ele><time>2026-05-01T08:18:00Z</time></trkpt><trkpt lat="40.6457909402448" lon="9.711166232936796"><ele>7.0</ele><time>2026-05-01T08:18:01Z</time></trkpt><trkpt lat="40.64567531007128" lon="9.710903237233781"><ele>6.5</ele><time>2026-05-01T08:18:02Z</time></trkpt><trkpt lat="40.645549316067076" lon="9.710626703918287"><ele>6.0</ele><time>2026-05-01T08:18:03Z</time></trkpt><trkpt lat="40.64541707786634" lon="9.71034544302401"><ele>5.5</ele><time>2026-05-01T08:18:04Z</time></trkpt><trkpt lat="40.64527589591611" lon="9.7100635759031"><ele>5.0</ele><time>2026-05-01T08:18:05Z</time></trkpt><trkpt lat="40.64511374221935" lon="9.70976786203766"><ele>5.0</ele><time>2026-05-01T08:18:06Z</time></trkpt><trkpt lat="40.644944702673016" lon="9.709487402629968"><ele>5.0</ele><time>2026-05-01T08:18:07Z</time></trkpt><trkpt lat="40.64477858746948" lon="9.709199533025492"><ele>5.0</ele><time>2026-05-01T08:18:08Z</time></trkpt><trkpt lat="40.644594969795165" lon="9.708916848839355"><ele>5.0</ele><time>2026-05-01T08:18:09Z</time></trkpt><trkpt lat="40.644403334185746" lon="9.70864204629915"><ele>4.5</ele><time>2026-05-01T08:18:10Z</time></trkpt><trkpt lat="40.64420419134813" lon="9.70837453606416"><ele>4.0</ele><time>2026-05-01T08:18:11Z</time></trkpt><trkpt lat="40.6439979999344" lon="9.708112179241212"><ele>4.0</ele><time>2026-05-01T08:18:12Z</time></trkpt><trkpt lat="40.64378634461847" lon="9.707855752087681"><ele>4.0</ele><time>2026-05-01T08:18:13Z</time></trkpt><trkpt lat="40.64356697690691" lon="9.70760722998047"><ele>4.0</ele><time>2026-05-01T08:18:14Z</time></trkpt><trkpt lat="40.643336668151335" lon="9.707375789951426"><ele>4.0</ele><time>2026-05-01T08:18:15Z</time></trkpt><trkpt lat="40.64310582678244" lon="9.707158167888222"><ele>4.0</ele><time>2026-05-01T08:18:16Z</time></trkpt><trkpt lat="40.64287176014985" lon="9.706948100738499"><ele>4.0</ele><time>2026-05-01T08:18:17Z</time></trkpt><trkpt lat="40.642628937189464" lon="9.70674713978996"><ele>3.5</ele><time>2026-05-01T08:18:18Z</time></trkpt><trkpt lat="40.64238587371369" lon="9.70655045227748"><ele>3.0</ele><time>2026-05-01T08:18:19Z</time></trkpt><trkpt lat="40.64213293807331" lon="9.706343713783976"><ele>3.0</ele><time>2026-05-01T08:18:20Z</time></trkpt><trkpt lat="40.64187290269894" lon="9.706166048838858"><ele>3.0</ele><time>2026-05-01T08:18:21Z</time></trkpt><trkpt lat="40.64160636661823" lon="9.705998601558465"><ele>3.0</ele><time>2026-05-01T08:18:22Z</time></trkpt><trkpt lat="40.641333283205704" lon="9.705841521548539"><ele>3.0</ele><time>2026-05-01T08:18:23Z</time></trkpt><trkpt lat="40.64105643446762" lon="9.705698924121425"><ele>3.0</ele><time>2026-05-01T08:18:24Z</time></trkpt><trkpt lat="40.640773085233434" lon="9.70556085068624"><ele>3.0</ele><time>2026-05-01T08:18:25Z</time></trkpt><trkpt lat="40.64048527132286" lon="9.705422427906997"><ele>3.0</ele><time>2026-05-01T08:18:26Z</time></trkpt><trkpt lat="40.6401904536396" lon="9.705286573532529"><ele>3.0</ele><time>2026-05-01T08:18:27Z</time></trkpt><trkpt lat="40.63989462320918" lon="9.705148013978745"><ele>3.0</ele><time>2026-05-01T08:18:28Z</time></trkpt><trkpt lat="40.639595263781146" lon="9.705006666742127"><ele>3.0</ele><time>2026-05-01T08:18:29Z</time></trkpt><trkpt lat="40.63928754497435" lon="9.704864093473642"><ele>2.0</ele><time>2026-05-01T08:18:30Z</time></trkpt><trkpt lat="40.638971325440984" lon="9.704715892725936"><ele>1.0</ele><time>2026-05-01T08:18:31Z</time></trkpt><trkpt lat="40.638651696351246" lon="9.704564710997861"><ele>1.0</ele><time>2026-05-01T08:18:32Z</time></trkpt><trkpt lat="40.63833266445014" lon="9.704413372838946"><ele>1.0</ele><time>2026-05-01T08:18:33Z</time></trkpt><trkpt lat="40.63802309494706" lon="9.704268695574576"><ele>0.5</ele><time>2026-05-01T08:18:34Z</time></trkpt><trkpt lat="40.637721864039875" lon="9.704130769032636"><ele>0.0</ele><time>2026-05-01T08:18:35Z</time></trkpt><trkpt lat="40.63742191036345" lon="9.703992866150687"><ele>0.0</ele><time>2026-05-01T08:18:36Z</time></trkpt><trkpt lat="40.63711541493555" lon="9.703844295915461"><ele>0.0</ele><time>2026-05-01T08:18:37Z</time></trkpt><trkpt lat="40.63680463542146" lon="9.703697189730107"><ele>-1.0</ele><time>2026-05-01T08:18:38Z</time></trkpt><trkpt lat="40.63649131150107" lon="9.703548610667264"><ele>-2.0</ele><time>2026-05-01T08:18:39Z</time></trkpt><trkpt lat="40.636177583704395" lon="9.703394034897237"><ele>0.5</ele><time>2026-05-01T08:18:40Z</time></trkpt><trkpt lat="40.63586307105136" lon="9.703237233956127"><ele>3.0</ele><time>2026-05-01T08:18:41Z</time></trkpt><trkpt lat="40.635571046746165" lon="9.703081600626097"><ele>3.5</ele><time>2026-05-01T08:18:42Z</time></trkpt><trkpt lat="40.63529767046376" lon="9.702939593908864"><ele>4.0</ele><time>2026-05-01T08:18:43Z</time></trkpt><trkpt lat="40.63502393264732" lon="9.702806581208813"><ele>4.0</ele><time>2026-05-01T08:18:44Z</time></trkpt><trkpt lat="40.63474330202884" lon="9.70267533622887"><ele>4.0</ele><time>2026-05-01T08:18:45Z</time></trkpt><trkpt lat="40.63445963517509" lon="9.702561176808208"><ele>4.0</ele><time>2026-05-01T08:18:46Z</time></trkpt><trkpt lat="40.63417069332326" lon="9.702464926427345"><ele>4.0</ele><time>2026-05-01T08:18:47Z</time></trkpt><trkpt lat="40.63389593677441" lon="9.702374367597603"><ele>6.0</ele><time>2026-05-01T08:18:48Z</time></trkpt><trkpt lat="40.6336195884552" lon="9.702298151940724"><ele>8.0</ele><time>2026-05-01T08:18:49Z</time></trkpt><trkpt lat="40.633344450107515" lon="9.702232446156682"><ele>8.0</ele><time>2026-05-01T08:18:50Z</time></trkpt><trkpt lat="40.63307034907919" lon="9.702178313085417"><ele>8.0</ele><time>2026-05-01T08:18:51Z</time></trkpt><trkpt lat="40.63279562558414" lon="9.702134058502798"><ele>6.5</ele><time>2026-05-01T08:18:52Z</time></trkpt><trkpt lat="40.6325226407277" lon="9.702102864236073"><ele>5.0</ele><time>2026-05-01T08:18:53Z</time></trkpt><trkpt lat="40.63224925727008" lon="9.702084941124252"><ele>5.0</ele><time>2026-05-01T08:18:54Z</time></trkpt><trkpt lat="40.63197386105156" lon="9.702079753538989"><ele>5.0</ele><time>2026-05-01T08:18:55Z</time></trkpt><trkpt lat="40.63170080971547" lon="9.702087097206947"><ele>5.0</ele><time>2026-05-01T08:18:56Z</time></trkpt><trkpt lat="40.63143299945587" lon="9.702102448024084"><ele>5.0</ele><time>2026-05-01T08:18:57Z</time></trkpt><trkpt lat="40.63116539020456" lon="9.702126621237234"><ele>6.0</ele><time>2026-05-01T08:18:58Z</time></trkpt><trkpt lat="40.63089645764896" lon="9.702162191789105"><ele>7.0</ele><time>2026-05-01T08:18:59Z</time></trkpt><trkpt lat="40.63062697956386" lon="9.702210724663438"><ele>7.0</ele><time>2026-05-01T08:19:00Z</time></trkpt><trkpt lat="40.63035359607705" lon="9.702263808177317"><ele>7.0</ele><time>2026-05-01T08:19:01Z</time></trkpt><trkpt lat="40.630072449483805" lon="9.702321600598527"><ele>9.0</ele><time>2026-05-01T08:19:02Z</time></trkpt><trkpt lat="40.629787726756554" lon="9.702394131906644"><ele>11.0</ele><time>2026-05-01T08:19:03Z</time></trkpt><trkpt lat="40.62950292509754" lon="9.70248694937072"><ele>11.5</ele><time>2026-05-01T08:19:04Z</time></trkpt><trkpt lat="40.629215139239264" lon="9.702599320144795"><ele>12.0</ele><time>2026-05-01T08:19:05Z</time></trkpt><trkpt lat="40.62892729578282" lon="9.702729004778451"><ele>16.0</ele><time>2026-05-01T08:19:06Z</time></trkpt><trkpt lat="40.62863955630959" lon="9.702870177873047"><ele>20.0</ele><time>2026-05-01T08:19:07Z</time></trkpt><trkpt lat="40.6283531231326" lon="9.703019413536198"><ele>20.0</ele><time>2026-05-01T08:19:08Z</time></trkpt><trkpt lat="40.62806720510217" lon="9.703180509432048"><ele>20.0</ele><time>2026-05-01T08:19:09Z</time></trkpt><trkpt lat="40.62778337467799" lon="9.70335835468827"><ele>22.5</ele><time>2026-05-01T08:19:10Z</time></trkpt><trkpt lat="40.627503248755005" lon="9.70354931792377"><ele>25.0</ele><time>2026-05-01T08:19:11Z</time></trkpt><trkpt lat="40.62722859779702" lon="9.703758306479411"><ele>25.5</ele><time>2026-05-01T08:19:12Z</time></trkpt><trkpt lat="40.62695554757436" lon="9.703975961525465"><ele>26.0</ele><time>2026-05-01T08:19:13Z</time></trkpt><trkpt lat="40.626685599666644" lon="9.704201663123198"><ele>25.0</ele><time>2026-05-01T08:19:14Z</time></trkpt><trkpt lat="40.626414194848486" lon="9.704430354770796"><ele>24.0</ele><time>2026-05-01T08:19:15Z</time></trkpt><trkpt lat="40.626144132693454" lon="9.704654476804125"><ele>24.0</ele><time>2026-05-01T08:19:16Z</time></trkpt><trkpt lat="40.62587673778475" lon="9.704873201199314"><ele>24.0</ele><time>2026-05-01T08:19:17Z</time></trkpt><trkpt lat="40.625612606996945" lon="9.705087762576404"><ele>27.0</ele><time>2026-05-01T08:19:18Z</time></trkpt><trkpt lat="40.62535177505077" lon="9.705298234677644"><ele>30.0</ele><time>2026-05-01T08:19:19Z</time></trkpt><trkpt lat="40.62509529816536" lon="9.705504919361733"><ele>30.0</ele><time>2026-05-01T08:19:20Z</time></trkpt><trkpt lat="40.62484485764159" lon="9.705714544075287"><ele>30.0</ele><time>2026-05-01T08:19:21Z</time></trkpt><trkpt lat="40.62459569942807" lon="9.70592201080888"><ele>30.0</ele><time>2026-05-01T08:19:22Z</time></trkpt><trkpt lat="40.62434841012921" lon="9.706126981449415"><ele>30.0</ele><time>2026-05-01T08:19:23Z</time></trkpt><trkpt lat="40.624099447995874" lon="9.706330303024739"><ele>30.0</ele><time>2026-05-01T08:19:24Z</time></trkpt><trkpt lat="40.62384908759114" lon="9.706528762320652"><ele>30.0</ele><time>2026-05-01T08:19:25Z</time></trkpt><trkpt lat="40.62359294053228" lon="9.706717918890577"><ele>27.5</ele><time>2026-05-01T08:19:26Z</time></trkpt><trkpt lat="40.62332946340791" lon="9.706892838434372"><ele>25.0</ele><time>2026-05-01T08:19:27Z</time></trkpt><trkpt lat="40.623056944500014" lon="9.707049888543592"><ele>27.5</ele><time>2026-05-01T08:19:28Z</time></trkpt><trkpt lat="40.62277689884264" lon="9.707192114266265"><ele>30.0</ele><time>2026-05-01T08:19:29Z</time></trkpt><trkpt lat="40.62249226751652" lon="9.70731832550098"><ele>30.0</ele><time>2026-05-01T08:19:30Z</time></trkpt><trkpt lat="40.622200670560154" lon="9.70743324365008"><ele>30.0</ele><time>2026-05-01T08:19:31Z</time></trkpt><trkpt lat="40.62190985954421" lon="9.707530047212686"><ele>30.0</ele><time>2026-05-01T08:19:32Z</time></trkpt><trkpt lat="40.62161484856669" lon="9.707608153342026"><ele>30.0</ele><time>2026-05-01T08:19:33Z</time></trkpt><trkpt lat="40.6213146224411" lon="9.707664975452223"><ele>31.5</ele><time>2026-05-01T08:19:34Z</time></trkpt><trkpt lat="40.62101134129062" lon="9.707704196656472"><ele>33.0</ele><time>2026-05-01T08:19:35Z</time></trkpt><trkpt lat="40.62070873123789" lon="9.707722230939215"><ele>33.0</ele><time>2026-05-01T08:19:36Z</time></trkpt><trkpt lat="40.62040512444158" lon="9.707723850060832"><ele>33.0</ele><time>2026-05-01T08:19:37Z</time></trkpt><trkpt lat="40.62010121445389" lon="9.70770863303726"><ele>33.0</ele><time>2026-05-01T08:19:38Z</time></trkpt><trkpt lat="40.61979832124669" lon="9.707671423036997"><ele>33.0</ele><time>2026-05-01T08:19:39Z</time></trkpt><trkpt lat="40.61949229898244" lon="9.707614805779096"><ele>31.5</ele><time>2026-05-01T08:19:40Z</time></trkpt><trkpt lat="40.61918446625739" lon="9.707539202552335"><ele>30.0</ele><time>2026-05-01T08:19:41Z</time></trkpt><trkpt lat="40.618880351304256" lon="9.707447461828743"><ele>30.5</ele><time>2026-05-01T08:19:42Z</time></trkpt><trkpt lat="40.61857906460453" lon="9.707332886552509"><ele>31.0</ele><time>2026-05-01T08:19:43Z</time></trkpt><trkpt lat="40.61828344993152" lon="9.707195578020682"><ele>31.0</ele><time>2026-05-01T08:19:44Z</time></trkpt><trkpt lat="40.617994645942794" lon="9.707032991950232"><ele>31.0</ele><time>2026-05-01T08:19:45Z</time></trkpt><trkpt lat="40.6177083096761" lon="9.706851532973356"><ele>34.0</ele><time>2026-05-01T08:19:46Z</time></trkpt><trkpt lat="40.6174230870425" lon="9.706656286889217"><ele>37.0</ele><time>2026-05-01T08:19:47Z</time></trkpt><trkpt lat="40.61713447187658" lon="9.706455542741368"><ele>35.5</ele><time>2026-05-01T08:19:48Z</time></trkpt><trkpt lat="40.61684182931899" lon="9.706252025149064"><ele>34.0</ele><time>2026-05-01T08:19:49Z</time></trkpt><trkpt lat="40.616549434245464" lon="9.706031013178581"><ele>35.0</ele><time>2026-05-01T08:19:50Z</time></trkpt><trkpt lat="40.61624429739202" lon="9.70580798367218"><ele>36.0</ele><time>2026-05-01T08:19:51Z</time></trkpt><trkpt lat="40.61593329879816" lon="9.70558154139585"><ele>36.0</ele><time>2026-05-01T08:19:52Z</time></trkpt><trkpt lat="40.61561819464758" lon="9.705357053899657"><ele>36.0</ele><time>2026-05-01T08:19:53Z</time></trkpt><trkpt lat="40.61530323085135" lon="9.705133472144169"><ele>37.0</ele><time>2026-05-01T08:19:54Z</time></trkpt><trkpt lat="40.61498878929654" lon="9.704911316788056"><ele>38.0</ele><time>2026-05-01T08:19:55Z</time></trkpt><trkpt lat="40.61467066984416" lon="9.704700639700773"><ele>37.5</ele><time>2026-05-01T08:19:56Z</time></trkpt><trkpt lat="40.614349490796734" lon="9.704504192833202"><ele>37.0</ele><time>2026-05-01T08:19:57Z</time></trkpt><trkpt lat="40.614024478397" lon="9.704333767415903"><ele>37.0</ele><time>2026-05-01T08:19:58Z</time></trkpt><trkpt lat="40.61369600699306" lon="9.704186121423408"><ele>37.0</ele><time>2026-05-01T08:19:59Z</time></trkpt><trkpt lat="40.613363057121404" lon="9.704041727071434"><ele>35.5</ele><time>2026-05-01T08:20:00Z</time></trkpt><trkpt lat="40.61303110022475" lon="9.703888850393062"><ele>34.0</ele><time>2026-05-01T08:20:01Z</time></trkpt><trkpt lat="40.61270107166222" lon="9.703730688558801"><ele>36.0</ele><time>2026-05-01T08:20:02Z</time></trkpt><trkpt lat="40.61237606657849" lon="9.70357033082627"><ele>38.0</ele><time>2026-05-01T08:20:03Z</time></trkpt><trkpt lat="40.61205807282305" lon="9.70341425413077"><ele>37.0</ele><time>2026-05-01T08:20:04Z</time></trkpt><trkpt lat="40.61174691344192" lon="9.703261750021925"><ele>36.0</ele><time>2026-05-01T08:20:05Z</time></trkpt><trkpt lat="40.611439869861364" lon="9.70311120499171"><ele>35.5</ele><time>2026-05-01T08:20:06Z</time></trkpt><trkpt lat="40.611136639523444" lon="9.702960172041834"><ele>35.0</ele><time>2026-05-01T08:20:07Z</time></trkpt><trkpt lat="40.610836953006476" lon="9.70280313931997"><ele>36.0</ele><time>2026-05-01T08:20:08Z</time></trkpt><trkpt lat="40.61053963859483" lon="9.702639511542408"><ele>37.0</ele><time>2026-05-01T08:20:09Z</time></trkpt><trkpt lat="40.61024596232729" lon="9.702468321843758"><ele>37.0</ele><time>2026-05-01T08:20:10Z</time></trkpt><trkpt lat="40.60995991584931" lon="9.702288373399108"><ele>37.0</ele><time>2026-05-01T08:20:11Z</time></trkpt><trkpt lat="40.60967974617254" lon="9.702101559124952"><ele>38.5</ele><time>2026-05-01T08:20:12Z</time></trkpt><trkpt lat="40.609405719470104" lon="9.701906248638378"><ele>40.0</ele><time>2026-05-01T08:20:13Z</time></trkpt><trkpt lat="40.6091334856353" lon="9.701697266819478"><ele>40.0</ele><time>2026-05-01T08:20:14Z</time></trkpt><trkpt lat="40.60886510580573" lon="9.701484845610876"><ele>40.0</ele><time>2026-05-01T08:20:15Z</time></trkpt><trkpt lat="40.60859731555517" lon="9.701266822480328"><ele>41.5</ele><time>2026-05-01T08:20:16Z</time></trkpt><trkpt lat="40.608331882510505" lon="9.701035438349955"><ele>43.0</ele><time>2026-05-01T08:20:17Z</time></trkpt><trkpt lat="40.6080746968894" lon="9.700796141838305"><ele>43.0</ele><time>2026-05-01T08:20:18Z</time></trkpt><trkpt lat="40.60783117324483" lon="9.700534580895953"><ele>43.0</ele><time>2026-05-01T08:20:19Z</time></trkpt><trkpt lat="40.60758687944786" lon="9.700263505867314"><ele>40.5</ele><time>2026-05-01T08:20:20Z</time></trkpt><trkpt lat="40.60734280145011" lon="9.699994881464033"><ele>38.0</ele><time>2026-05-01T08:20:21Z</time></trkpt><trkpt lat="40.607099390369626" lon="9.699723785594573"><ele>38.5</ele><time>2026-05-01T08:20:22Z</time></trkpt><trkpt lat="40.60685861318051" lon="9.69945274096181"><ele>39.0</ele><time>2026-05-01T08:20:23Z</time></trkpt><trkpt lat="40.60663101172844" lon="9.699167223333975"><ele>39.0</ele><time>2026-05-01T08:20:24Z</time></trkpt><trkpt lat="40.60639538016986" lon="9.698875167190993"><ele>39.0</ele><time>2026-05-01T08:20:25Z</time></trkpt><trkpt lat="40.60615104317705" lon="9.698593470508412"><ele>37.0</ele><time>2026-05-01T08:20:26Z</time></trkpt><trkpt lat="40.60591215648623" lon="9.69830886047095"><ele>35.0</ele><time>2026-05-01T08:20:27Z</time></trkpt><trkpt lat="40.6056734216736" lon="9.698027464162415"><ele>35.0</ele><time>2026-05-01T08:20:28Z</time></trkpt><trkpt lat="40.60543363543874" lon="9.69774781587579"><ele>35.0</ele><time>2026-05-01T08:20:29Z</time></trkpt><trkpt lat="40.60519264640138" lon="9.697461650388677"><ele>34.5</ele><time>2026-05-01T08:20:30Z</time></trkpt><trkpt lat="40.60494648490415" lon="9.697176504179598"><ele>34.0</ele><time>2026-05-01T08:20:31Z</time></trkpt><trkpt lat="40.60469290063965" lon="9.696911437037446"><ele>33.5</ele><time>2026-05-01T08:20:32Z</time></trkpt><trkpt lat="40.6044315329202" lon="9.69665798002542"><ele>33.0</ele><time>2026-05-01T08:20:33Z</time></trkpt><trkpt lat="40.60415685502976" lon="9.696418799826484"><ele>33.0</ele><time>2026-05-01T08:20:34Z</time></trkpt><trkpt lat="40.60387411317096" lon="9.696188919957004"><ele>33.0</ele><time>2026-05-01T08:20:35Z</time></trkpt><trkpt lat="40.60358829690785" lon="9.695969783186566"><ele>33.0</ele><time>2026-05-01T08:20:36Z</time></trkpt><trkpt lat="40.603295909951285" lon="9.695765816145602"><ele>33.0</ele><time>2026-05-01T08:20:37Z</time></trkpt><trkpt lat="40.60299921259301" lon="9.69556978159456"><ele>31.5</ele><time>2026-05-01T08:20:38Z</time></trkpt><trkpt lat="40.602697183861125" lon="9.695401052545863"><ele>30.0</ele><time>2026-05-01T08:20:39Z</time></trkpt><trkpt lat="40.60239467865792" lon="9.695250630197053"><ele>33.0</ele><time>2026-05-01T08:20:40Z</time></trkpt><trkpt lat="40.60208714025846" lon="9.695109070262177"><ele>36.0</ele><time>2026-05-01T08:20:41Z</time></trkpt><trkpt lat="40.601778597586" lon="9.694981876938716"><ele>36.0</ele><time>2026-05-01T08:20:42Z</time></trkpt><trkpt lat="40.60147291043181" lon="9.69487043827252"><ele>36.0</ele><time>2026-05-01T08:20:43Z</time></trkpt><trkpt lat="40.601162830304716" lon="9.694776384278365"><ele>35.5</ele><time>2026-05-01T08:20:44Z</time></trkpt><trkpt lat="40.60085248582573" lon="9.69469981252154"><ele>35.0</ele><time>2026-05-01T08:20:45Z</time></trkpt><trkpt lat="40.60054195178872" lon="9.694628364169043"><ele>36.0</ele><time>2026-05-01T08:20:46Z</time></trkpt><trkpt lat="40.600231899605845" lon="9.69456957959253"><ele>37.0</ele><time>2026-05-01T08:20:47Z</time></trkpt><trkpt lat="40.59992289185124" lon="9.69453069599384"><ele>37.0</ele><time>2026-05-01T08:20:48Z</time></trkpt><trkpt lat="40.599617221082006" lon="9.694493951391394"><ele>37.0</ele><time>2026-05-01T08:20:49Z</time></trkpt><trkpt lat="40.59932357667328" lon="9.694465083702093"><ele>38.0</ele><time>2026-05-01T08:20:50Z</time></trkpt><trkpt lat="40.59904806074797" lon="9.694433032643618"><ele>39.0</ele><time>2026-05-01T08:20:51Z</time></trkpt><trkpt lat="40.5987875380978" lon="9.694398557989246"><ele>43.5</ele><time>2026-05-01T08:20:52Z</time></trkpt><trkpt lat="40.59853751983424" lon="9.694375783012974"><ele>48.0</ele><time>2026-05-01T08:20:53Z</time></trkpt><trkpt lat="40.598270131045815" lon="9.69434475516819"><ele>48.0</ele><time>2026-05-01T08:20:54Z</time></trkpt><trkpt lat="40.59798938509363" lon="9.694311662399755"><ele>48.0</ele><time>2026-05-01T08:20:55Z</time></trkpt><trkpt lat="40.597695510012194" lon="9.694276765769308"><ele>50.0</ele><time>2026-05-01T08:20:56Z</time></trkpt><trkpt lat="40.59739534938997" lon="9.694243960760186"><ele>52.0</ele><time>2026-05-01T08:20:57Z</time></trkpt><trkpt lat="40.59708479804987" lon="9.694211148889444"><ele>53.0</ele><time>2026-05-01T08:20:58Z</time></trkpt><trkpt lat="40.59677134755687" lon="9.69418154574229"><ele>54.0</ele><time>2026-05-01T08:20:59Z</time></trkpt><trkpt lat="40.59646183659439" lon="9.694138073435457"><ele>55.5</ele><time>2026-05-01T08:21:00Z</time></trkpt><trkpt lat="40.596141005626976" lon="9.694102201653706"><ele>57.0</ele><time>2026-05-01T08:21:01Z</time></trkpt><trkpt lat="40.59583273787906" lon="9.694063909159917"><ele>57.0</ele><time>2026-05-01T08:21:02Z</time></trkpt><trkpt lat="40.595521290347996" lon="9.694034887122726"><ele>57.0</ele><time>2026-05-01T08:21:03Z</time></trkpt><trkpt lat="40.595212232244215" lon="9.694006583443448"><ele>54.5</ele><time>2026-05-01T08:21:04Z</time></trkpt><trkpt lat="40.59490452815995" lon="9.693978432558584"><ele>52.0</ele><time>2026-05-01T08:21:05Z</time></trkpt><trkpt lat="40.59459870196632" lon="9.693949803013854"><ele>50.5</ele><time>2026-05-01T08:21:06Z</time></trkpt><trkpt lat="40.594292279949684" lon="9.6939191983901"><ele>49.0</ele><time>2026-05-01T08:21:07Z</time></trkpt><trkpt lat="40.59398734531682" lon="9.693885210607107"><ele>49.0</ele><time>2026-05-01T08:21:08Z</time></trkpt><trkpt lat="40.59368342706286" lon="9.693852248226042"><ele>49.0</ele><time>2026-05-01T08:21:09Z</time></trkpt><trkpt lat="40.59338807606476" lon="9.693822384082026"><ele>49.0</ele><time>2026-05-01T08:21:10Z</time></trkpt><trkpt lat="40.59309072412347" lon="9.693787230315085"><ele>49.0</ele><time>2026-05-01T08:21:11Z</time></trkpt><trkpt lat="40.59278901548066" lon="9.693748527988593"><ele>49.0</ele><time>2026-05-01T08:21:12Z</time></trkpt><trkpt lat="40.59248096079892" lon="9.693711656703535"><ele>49.0</ele><time>2026-05-01T08:21:13Z</time></trkpt><trkpt lat="40.59217824235169" lon="9.693658381966674"><ele>48.0</ele><time>2026-05-01T08:21:14Z</time></trkpt><trkpt lat="40.591872818826694" lon="9.693599366649615"><ele>47.0</ele><time>2026-05-01T08:21:15Z</time></trkpt><trkpt lat="40.59156319173183" lon="9.69353685414998"><ele>47.0</ele><time>2026-05-01T08:21:16Z</time></trkpt><trkpt lat="40.591261271652854" lon="9.693478553429816"><ele>47.0</ele><time>2026-05-01T08:21:17Z</time></trkpt><trkpt lat="40.590981611704684" lon="9.69342322996031"><ele>47.5</ele><time>2026-05-01T08:21:18Z</time></trkpt><trkpt lat="40.59071701560301" lon="9.693373158922121"><ele>48.0</ele><time>2026-05-01T08:21:19Z</time></trkpt><trkpt lat="40.5904510351635" lon="9.693328078447381"><ele>49.0</ele><time>2026-05-01T08:21:20Z</time></trkpt><trkpt lat="40.59017963340607" lon="9.693283097514067"><ele>50.0</ele><time>2026-05-01T08:21:21Z</time></trkpt><trkpt lat="40.589906588624245" lon="9.693235688971317"><ele>50.0</ele><time>2026-05-01T08:21:22Z</time></trkpt><trkpt lat="40.58962328625066" lon="9.693173750959518"><ele>50.0</ele><time>2026-05-01T08:21:23Z</time></trkpt><trkpt lat="40.589341027776136" lon="9.693091401839007"><ele>50.5</ele><time>2026-05-01T08:21:24Z</time></trkpt><trkpt lat="40.58906205677081" lon="9.692985437748154"><ele>51.0</ele><time>2026-05-01T08:21:25Z</time></trkpt><trkpt lat="40.588788789458086" lon="9.692853168508389"><ele>49.0</ele><time>2026-05-01T08:21:26Z</time></trkpt><trkpt lat="40.58851734588924" lon="9.692702121924539"><ele>47.0</ele><time>2026-05-01T08:21:27Z</time></trkpt><trkpt lat="40.5882546403846" lon="9.6925344631131"><ele>47.0</ele><time>2026-05-01T08:21:28Z</time></trkpt><trkpt lat="40.58800513278433" lon="9.692355804047072"><ele>47.0</ele><time>2026-05-01T08:21:29Z</time></trkpt><trkpt lat="40.58777284893919" lon="9.692187633171818"><ele>48.5</ele><time>2026-05-01T08:21:30Z</time></trkpt><trkpt lat="40.58754223209924" lon="9.692025736286167"><ele>50.0</ele><time>2026-05-01T08:21:31Z</time></trkpt><trkpt lat="40.5873091217641" lon="9.691874754586797"><ele>50.5</ele><time>2026-05-01T08:21:32Z</time></trkpt><trkpt lat="40.58707721483741" lon="9.691738318660057"><ele>51.0</ele><time>2026-05-01T08:21:33Z</time></trkpt><trkpt lat="40.58683776512096" lon="9.691618991607523"><ele>52.0</ele><time>2026-05-01T08:21:34Z</time></trkpt><trkpt lat="40.58658718430101" lon="9.691513988341232"><ele>53.0</ele><time>2026-05-01T08:21:35Z</time></trkpt><trkpt lat="40.58633665118589" lon="9.691425217854063"><ele>55.5</ele><time>2026-05-01T08:21:36Z</time></trkpt><trkpt lat="40.58610234772943" lon="9.691367840813683"><ele>58.0</ele><time>2026-05-01T08:21:37Z</time></trkpt><trkpt lat="40.5858809561662" lon="9.691329942117576"><ele>58.0</ele><time>2026-05-01T08:21:38Z</time></trkpt><trkpt lat="40.585664365085755" lon="9.691309630819491"><ele>58.0</ele><time>2026-05-01T08:21:39Z</time></trkpt><trkpt lat="40.58546306112203" lon="9.691295685407814"><ele>58.0</ele><time>2026-05-01T08:21:40Z</time></trkpt><trkpt lat="40.5852530077663" lon="9.691299464998126"><ele>57.33333333333333</ele><time>2026-05-01T08:21:41Z</time></trkpt><trkpt lat="40.5850373592517" lon="9.69135829836914"><ele>56.66666666666667</ele><time>2026-05-01T08:21:42Z</time></trkpt><trkpt lat="40.58481036302516" lon="9.691395513775689"><ele>56.0</ele><time>2026-05-01T08:21:43Z</time></trkpt><trkpt lat="40.58458712922011" lon="9.691431144035144"><ele>55.333333333333336</ele><time>2026-05-01T08:21:44Z</time></trkpt><trkpt lat="40.58437665087296" lon="9.691466316966567"><ele>54.66666666666667</ele><time>2026-05-01T08:21:45Z</time></trkpt><trkpt lat="40.584182664171074" lon="9.691504637628904"><ele>54.0</ele><time>2026-05-01T08:21:46Z</time></trkpt><trkpt lat="40.58399135472605" lon="9.691524880442042"><ele>54.0</ele><time>2026-05-01T08:21:47Z</time></trkpt><trkpt lat="40.58382214779561" lon="9.691522046344824"><ele>54.0</ele><time>2026-05-01T08:21:48Z</time></trkpt><trkpt lat="40.583656390023556" lon="9.691516216456906"><ele>54.0</ele><time>2026-05-01T08:21:49Z</time></trkpt><trkpt lat="40.58349350731438" lon="9.691501300950208"><ele>54.0</ele><time>2026-05-01T08:21:50Z</time></trkpt><trkpt lat="40.583333141075535" lon="9.691473646350653"><ele>54.0</ele><time>2026-05-01T08:21:51Z</time></trkpt><trkpt lat="40.5831741277693" lon="9.69144090189435"><ele>54.0</ele><time>2026-05-01T08:21:52Z</time></trkpt><trkpt lat="40.583018380252234" lon="9.69139554301506"><ele>54.0</ele><time>2026-05-01T08:21:53Z</time></trkpt><trkpt lat="40.582863913527554" lon="9.69134493674683"><ele>54.0</ele><time>2026-05-01T08:21:54Z</time></trkpt><trkpt lat="40.582711121273086" lon="9.691285518952018"><ele>54.0</ele><time>2026-05-01T08:21:55Z</time></trkpt><trkpt lat="40.58255702062237" lon="9.691223343540553"><ele>54.0</ele><time>2026-05-01T08:21:56Z</time></trkpt><trkpt lat="40.58240287358399" lon="9.691155938418616"><ele>54.0</ele><time>2026-05-01T08:21:57Z</time></trkpt><trkpt lat="40.58225050637639" lon="9.691077941017964"><ele>54.0</ele><time>2026-05-01T08:21:58Z</time></trkpt><trkpt lat="40.58209419466342" lon="9.69098608648294"><ele>57.0</ele><time>2026-05-01T08:21:59Z</time></trkpt><trkpt lat="40.58193113910357" lon="9.690880549002019"><ele>60.0</ele><time>2026-05-01T08:22:00Z</time></trkpt><trkpt lat="40.5817636247283" lon="9.690763912904647"><ele>63.0</ele><time>2026-05-01T08:22:01Z</time></trkpt><trkpt lat="40.581595422624666" lon="9.69064001206525"><ele>63.0</ele><time>2026-05-01T08:22:02Z</time></trkpt><trkpt lat="40.58142909077001" lon="9.690507406153777"><ele>63.0</ele><time>2026-05-01T08:22:03Z</time></trkpt><trkpt lat="40.581261021391974" lon="9.690379197552632"><ele>63.0</ele><time>2026-05-01T08:22:04Z</time></trkpt><trkpt lat="40.58109432625647" lon="9.690253761881285"><ele>71.0</ele><time>2026-05-01T08:22:05Z</time></trkpt><trkpt lat="40.580931221281936" lon="9.690131575212098"><ele>79.0</ele><time>2026-05-01T08:22:06Z</time></trkpt><trkpt lat="40.58077604113132" lon="9.690013626099436"><ele>87.0</ele><time>2026-05-01T08:22:07Z</time></trkpt><trkpt lat="40.58067204043391" lon="9.689778924192588"><ele>87.0</ele><time>2026-05-01T08:22:08Z</time></trkpt><trkpt lat="40.58050905774365" lon="9.689659079986653"><ele>87.0</ele><time>2026-05-01T08:22:09Z</time></trkpt><trkpt lat="40.580339512169225" lon="9.689535982705566"><ele>87.0</ele><time>2026-05-01T08:22:10Z</time></trkpt><trkpt lat="40.58018172747395" lon="9.68942142427136"><ele>110.66666666666666</ele><time>2026-05-01T08:22:11Z</time></trkpt><trkpt lat="40.57999880608769" lon="9.6892886156133"><ele>134.33333333333331</ele><time>2026-05-01T08:22:12.027Z</time></trkpt><trkpt lat="40.57982270518436" lon="9.689160758897948"><ele>158.0</ele><time>2026-05-01T08:22:13.025Z</time></trkpt><trkpt lat="40.57965086689219" lon="9.689035997062176"><ele>162.0</ele><time>2026-05-01T08:22:14.025Z</time></trkpt><trkpt lat="40.57948050925633" lon="9.688912310106955"><ele>166.0</ele><time>2026-05-01T08:22:15.027Z</time></trkpt><trkpt lat="40.5793220667399" lon="9.688797274050051"><ele>170.0</ele><time>2026-05-01T08:22:16.028Z</time></trkpt><trkpt lat="40.57915808991912" lon="9.688678219940396"><ele>175.66666666666666</ele><time>2026-05-01T08:22:17.025Z</time></trkpt><trkpt lat="40.57899536553516" lon="9.68856051598543"><ele>181.33333333333334</ele><time>2026-05-01T08:22:18.026Z</time></trkpt><trkpt lat="40.57882859005186" lon="9.68844015478719"><ele>187.0</ele><time>2026-05-01T08:22:19.026Z</time></trkpt><trkpt lat="40.578661252893895" lon="9.688319388229994"><ele>188.66666666666669</ele><time>2026-05-01T08:22:20.025Z</time></trkpt><trkpt lat="40.57849421465923" lon="9.688197616832724"><ele>190.33333333333334</ele><time>2026-05-01T08:22:21.025Z</time></trkpt><trkpt lat="40.57833465302675" lon="9.688081049577896"><ele>192.0</ele><time>2026-05-01T08:22:21.976Z</time></trkpt><trkpt lat="40.57818355618881" lon="9.687970666277133"><ele>89.0</ele><time>2026-05-01T08:22:22.876Z</time></trkpt><trkpt lat="40.573734269263355" lon="9.684897359419622"><ele>84.33333333333334</ele><time>2026-05-01T08:22:53.85Z</time></trkpt><trkpt lat="40.57354214248686" lon="9.684771792802394"><ele>79.66666666666667</ele><time>2026-05-01T08:22:54.8Z</time></trkpt><trkpt lat="40.57335245630431" lon="9.684647006187385"><ele>75.0</ele><time>2026-05-01T08:22:55.75Z</time></trkpt><trkpt lat="40.573155935652146" lon="9.684518448258698"><ele>78.33333333333333</ele><time>2026-05-01T08:22:56.7Z</time></trkpt><trkpt lat="40.572960230805" lon="9.684389257330558"><ele>81.66666666666666</ele><time>2026-05-01T08:22:57.65Z</time></trkpt><trkpt lat="40.572758583279764" lon="9.684255708658842"><ele>85.0</ele><time>2026-05-01T08:22:58.6Z</time></trkpt><trkpt lat="40.57254790753536" lon="9.684115999789059"><ele>85.0</ele><time>2026-05-01T08:22:59.55Z</time></trkpt><trkpt lat="40.57234864277211" lon="9.683972735822787"><ele>85.0</ele><time>2026-05-01T08:23:00.5Z</time></trkpt><trkpt lat="40.57215353047846" lon="9.683813311116156"><ele>87.0</ele><time>2026-05-01T08:23:01.45Z</time></trkpt><trkpt lat="40.57196904766687" lon="9.683646846005207"><ele>89.0</ele><time>2026-05-01T08:23:02.4Z</time></trkpt><trkpt lat="40.571793792423826" lon="9.683485838162884"><ele>91.0</ele><time>2026-05-01T08:23:03.35Z</time></trkpt><trkpt lat="40.571684966636184" lon="9.683183879215365"><ele>91.0</ele><time>2026-05-01T08:23:04.3Z</time></trkpt><trkpt lat="40.57151256000871" lon="9.683073690971577"><ele>91.0</ele><time>2026-05-01T08:23:05.25Z</time></trkpt><trkpt lat="40.57133288106621" lon="9.68296050703206"><ele>91.0</ele><time>2026-05-01T08:23:06.2Z</time></trkpt><trkpt lat="40.571151595699526" lon="9.682849139291724"><ele>91.66666666666666</ele><time>2026-05-01T08:23:07.15Z</time></trkpt><trkpt lat="40.570973016025015" lon="9.682737492201888"><ele>92.33333333333333</ele><time>2026-05-01T08:23:08.1Z</time></trkpt><trkpt lat="40.57079151811736" lon="9.682634099749995"><ele>93.0</ele><time>2026-05-01T08:23:09.05Z</time></trkpt><trkpt lat="40.57061878692904" lon="9.682508249968018"><ele>93.0</ele><time>2026-05-01T08:23:10Z</time></trkpt><trkpt lat="40.57043707408592" lon="9.682380190264404"><ele>93.0</ele><time>2026-05-01T08:23:11Z</time></trkpt><trkpt lat="40.57025178195921" lon="9.682258182624793"><ele>93.0</ele><time>2026-05-01T08:23:12Z</time></trkpt><trkpt lat="40.57006110310335" lon="9.682148703923453"><ele>87.33333333333333</ele><time>2026-05-01T08:23:13Z</time></trkpt><trkpt lat="40.56987111105523" lon="9.682037924403819"><ele>81.66666666666666</ele><time>2026-05-01T08:23:14Z</time></trkpt><trkpt lat="40.56968046742715" lon="9.681925229181674"><ele>76.0</ele><time>2026-05-01T08:23:15Z</time></trkpt><trkpt lat="40.569497606845445" lon="9.681825379791748"><ele>76.0</ele><time>2026-05-01T08:23:16Z</time></trkpt><trkpt lat="40.569331217200016" lon="9.68174359063958"><ele>76.0</ele><time>2026-05-01T08:23:17Z</time></trkpt><trkpt lat="40.56918874272307" lon="9.681679040520505"><ele>76.0</ele><time>2026-05-01T08:23:18Z</time></trkpt><trkpt lat="40.56905369422737" lon="9.681621316601765"><ele>76.0</ele><time>2026-05-01T08:23:19Z</time></trkpt><trkpt lat="40.56892958161053" lon="9.681568665624912"><ele>76.0</ele><time>2026-05-01T08:23:20Z</time></trkpt><trkpt lat="40.56881118844861" lon="9.681517270429113"><ele>76.0</ele><time>2026-05-01T08:23:21Z</time></trkpt><trkpt lat="40.568702612717" lon="9.681468576549019"><ele>76.0</ele><time>2026-05-01T08:23:22Z</time></trkpt><trkpt lat="40.56860401972195" lon="9.681422980018755"><ele>75.0</ele><time>2026-05-01T08:23:23Z</time></trkpt><trkpt lat="40.56851188346911" lon="9.68136683693383"><ele>74.0</ele><time>2026-05-01T08:23:24Z</time></trkpt><trkpt lat="40.56840948204111" lon="9.681290602687147"><ele>73.0</ele><time>2026-05-01T08:23:25Z</time></trkpt><trkpt lat="40.56828719518677" lon="9.681219774329854"><ele>72.0</ele><time>2026-05-01T08:23:26Z</time></trkpt><trkpt lat="40.56814591657261" lon="9.681154079200114"><ele>72.0</ele><time>2026-05-01T08:23:27Z</time></trkpt><trkpt lat="40.56798508690066" lon="9.681087657657462"><ele>72.0</ele><time>2026-05-01T08:23:28Z</time></trkpt><trkpt lat="40.567807060055124" lon="9.68100695418557"><ele>72.0</ele><time>2026-05-01T08:23:29Z</time></trkpt><trkpt lat="40.56761151484343" lon="9.68092273426101"><ele>72.0</ele><time>2026-05-01T08:23:30Z</time></trkpt><trkpt lat="40.5674047085804" lon="9.68083238616274"><ele>72.0</ele><time>2026-05-01T08:23:31Z</time></trkpt><trkpt lat="40.56718739574713" lon="9.680735674052869"><ele>72.0</ele><time>2026-05-01T08:23:32Z</time></trkpt><trkpt lat="40.56697225569084" lon="9.680630697301563"><ele>69.0</ele><time>2026-05-01T08:23:33Z</time></trkpt><trkpt lat="40.566747898349014" lon="9.68054197740718"><ele>66.0</ele><time>2026-05-01T08:23:34Z</time></trkpt><trkpt lat="40.566514959448355" lon="9.680438429161754"><ele>66.0</ele><time>2026-05-01T08:23:35Z</time></trkpt><trkpt lat="40.56627654726566" lon="9.68033479390646"><ele>66.0</ele><time>2026-05-01T08:23:36Z</time></trkpt><trkpt lat="40.56603370913655" lon="9.680227475662079"><ele>66.5</ele><time>2026-05-01T08:23:37Z</time></trkpt><trkpt lat="40.565786099740734" lon="9.680116392822384"><ele>67.0</ele><time>2026-05-01T08:23:38Z</time></trkpt><trkpt lat="40.565529618628226" lon="9.680003554836766"><ele>65.0</ele><time>2026-05-01T08:23:39Z</time></trkpt><trkpt lat="40.56526854436505" lon="9.679886951813351"><ele>63.0</ele><time>2026-05-01T08:23:40Z</time></trkpt><trkpt lat="40.56500230253492" lon="9.679770274263587"><ele>63.0</ele><time>2026-05-01T08:23:41Z</time></trkpt><trkpt lat="40.56473557914948" lon="9.679654520418532"><ele>63.0</ele><time>2026-05-01T08:23:42Z</time></trkpt><trkpt lat="40.56446498329622" lon="9.679535119030628"><ele>62.5</ele><time>2026-05-01T08:23:43Z</time></trkpt><trkpt lat="40.56419398859132" lon="9.679411372039128"><ele>62.0</ele><time>2026-05-01T08:23:44Z</time></trkpt><trkpt lat="40.563922429063396" lon="9.679290417429895"><ele>57.5</ele><time>2026-05-01T08:23:45Z</time></trkpt><trkpt lat="40.56364437598933" lon="9.679164502470455"><ele>53.0</ele><time>2026-05-01T08:23:46Z</time></trkpt><trkpt lat="40.56336129751633" lon="9.679037776886481"><ele>53.0</ele><time>2026-05-01T08:23:47Z</time></trkpt><trkpt lat="40.56307914325269" lon="9.67891256201825"><ele>53.0</ele><time>2026-05-01T08:23:48Z</time></trkpt><trkpt lat="40.562795053865834" lon="9.678791333975953"><ele>51.5</ele><time>2026-05-01T08:23:49Z</time></trkpt><trkpt lat="40.56250298219953" lon="9.678666241038927"><ele>50.0</ele><time>2026-05-01T08:23:50Z</time></trkpt><trkpt lat="40.56220486470352" lon="9.678537408963729"><ele>50.5</ele><time>2026-05-01T08:23:51Z</time></trkpt><trkpt lat="40.561904352634365" lon="9.678402197575208"><ele>51.0</ele><time>2026-05-01T08:23:52Z</time></trkpt><trkpt lat="40.561604784663366" lon="9.678262254858467"><ele>51.0</ele><time>2026-05-01T08:23:53Z</time></trkpt><trkpt lat="40.561306286005134" lon="9.678127682947213"><ele>51.0</ele><time>2026-05-01T08:23:54Z</time></trkpt><trkpt lat="40.56101278571369" lon="9.677989391824243"><ele>50.5</ele><time>2026-05-01T08:23:55Z</time></trkpt><trkpt lat="40.56071746381573" lon="9.677847840661837"><ele>50.0</ele><time>2026-05-01T08:23:56Z</time></trkpt><trkpt lat="40.560424430771626" lon="9.677709959152983"><ele>51.5</ele><time>2026-05-01T08:23:57Z</time></trkpt><trkpt lat="40.560130416130136" lon="9.677577524210564"><ele>53.0</ele><time>2026-05-01T08:23:58Z</time></trkpt><trkpt lat="40.559834680502526" lon="9.677447953715413"><ele>53.0</ele><time>2026-05-01T08:23:59Z</time></trkpt><trkpt lat="40.55954044297382" lon="9.677314539214844"><ele>53.0</ele><time>2026-05-01T08:24:00Z</time></trkpt><trkpt lat="40.55924709397692" lon="9.677184390985092"><ele>54.0</ele><time>2026-05-01T08:24:01Z</time></trkpt><trkpt lat="40.55895762066649" lon="9.67705505436692"><ele>55.0</ele><time>2026-05-01T08:24:02Z</time></trkpt><trkpt lat="40.558667962078445" lon="9.676927567613552"><ele>55.0</ele><time>2026-05-01T08:24:03Z</time></trkpt><trkpt lat="40.55838111359462" lon="9.676800736717098"><ele>55.0</ele><time>2026-05-01T08:24:04Z</time></trkpt><trkpt lat="40.55809617704897" lon="9.676673101660102"><ele>53.0</ele><time>2026-05-01T08:24:05Z</time></trkpt><trkpt lat="40.55781015914124" lon="9.676543067672485"><ele>51.0</ele><time>2026-05-01T08:24:06Z</time></trkpt><trkpt lat="40.557522174725555" lon="9.676404861473412"><ele>51.0</ele><time>2026-05-01T08:24:07Z</time></trkpt><trkpt lat="40.557232124100885" lon="9.676238683794276"><ele>51.0</ele><time>2026-05-01T08:24:08Z</time></trkpt><trkpt lat="40.55694968841397" lon="9.676065414649281"><ele>53.5</ele><time>2026-05-01T08:24:09Z</time></trkpt><trkpt lat="40.55665906809538" lon="9.675891733663118"><ele>56.0</ele><time>2026-05-01T08:24:10Z</time></trkpt><trkpt lat="40.55636963263038" lon="9.675712731954079"><ele>55.5</ele><time>2026-05-01T08:24:11Z</time></trkpt><trkpt lat="40.55607690677544" lon="9.675538200723564"><ele>55.0</ele><time>2026-05-01T08:24:12Z</time></trkpt><trkpt lat="40.55578036180527" lon="9.675366171222196"><ele>57.5</ele><time>2026-05-01T08:24:13Z</time></trkpt><trkpt lat="40.55548096148694" lon="9.675194343131539"><ele>60.0</ele><time>2026-05-01T08:24:14Z</time></trkpt><trkpt lat="40.55518162393699" lon="9.675022431990401"><ele>60.0</ele><time>2026-05-01T08:24:15Z</time></trkpt><trkpt lat="40.55488382106752" lon="9.674843255985806"><ele>60.0</ele><time>2026-05-01T08:24:16Z</time></trkpt><trkpt lat="40.55458432182968" lon="9.674663972650077"><ele>59.0</ele><time>2026-05-01T08:24:17Z</time></trkpt><trkpt lat="40.55428301459442" lon="9.674482520092754"><ele>58.0</ele><time>2026-05-01T08:24:18Z</time></trkpt><trkpt lat="40.55397917996597" lon="9.674303437249812"><ele>57.0</ele><time>2026-05-01T08:24:19Z</time></trkpt><trkpt lat="40.55367364828076" lon="9.674124983023889"><ele>56.0</ele><time>2026-05-01T08:24:20Z</time></trkpt><trkpt lat="40.55336856031782" lon="9.673946326824119"><ele>56.0</ele><time>2026-05-01T08:24:21Z</time></trkpt><trkpt lat="40.553063239936726" lon="9.673766285990622"><ele>56.0</ele><time>2026-05-01T08:24:22Z</time></trkpt><trkpt lat="40.55275428386404" lon="9.673586004235085"><ele>56.5</ele><time>2026-05-01T08:24:23Z</time></trkpt><trkpt lat="40.55244398281752" lon="9.673405249956415"><ele>57.0</ele><time>2026-05-01T08:24:24Z</time></trkpt><trkpt lat="40.55213061598284" lon="9.673225404999577"><ele>54.0</ele><time>2026-05-01T08:24:25Z</time></trkpt><trkpt lat="40.55181619839994" lon="9.673040322466408"><ele>51.0</ele><time>2026-05-01T08:24:26Z</time></trkpt><trkpt lat="40.551502092736925" lon="9.672853471492695"><ele>50.5</ele><time>2026-05-01T08:24:27Z</time></trkpt><trkpt lat="40.55118931002077" lon="9.67266627606777"><ele>50.0</ele><time>2026-05-01T08:24:28Z</time></trkpt><trkpt lat="40.55087781704589" lon="9.672478868073858"><ele>50.0</ele><time>2026-05-01T08:24:29Z</time></trkpt><trkpt lat="40.55057534084588" lon="9.672298400904939"><ele>50.0</ele><time>2026-05-01T08:24:30Z</time></trkpt><trkpt lat="40.55029241021679" lon="9.672132295687028"><ele>49.5</ele><time>2026-05-01T08:24:31Z</time></trkpt><trkpt lat="40.55001093915987" lon="9.671960141292613"><ele>49.0</ele><time>2026-05-01T08:24:32Z</time></trkpt><trkpt lat="40.549718947259656" lon="9.671774445664058"><ele>45.0</ele><time>2026-05-01T08:24:33Z</time></trkpt><trkpt lat="40.54942783076573" lon="9.671574535378614"><ele>41.0</ele><time>2026-05-01T08:24:34Z</time></trkpt><trkpt lat="40.54914064912632" lon="9.671351610972001"><ele>41.0</ele><time>2026-05-01T08:24:35Z</time></trkpt><trkpt lat="40.548858638164475" lon="9.671116157272671"><ele>41.0</ele><time>2026-05-01T08:24:36Z</time></trkpt><trkpt lat="40.548585137324245" lon="9.670868730158302"><ele>40.0</ele><time>2026-05-01T08:24:37Z</time></trkpt><trkpt lat="40.54831600418831" lon="9.670610691101299"><ele>39.0</ele><time>2026-05-01T08:24:38Z</time></trkpt><trkpt lat="40.548051849748575" lon="9.6703400768313"><ele>39.0</ele><time>2026-05-01T08:24:39Z</time></trkpt><trkpt lat="40.547794570621036" lon="9.670056947128382"><ele>39.0</ele><time>2026-05-01T08:24:40Z</time></trkpt><trkpt lat="40.54753695105621" lon="9.669760737197608"><ele>39.0</ele><time>2026-05-01T08:24:41Z</time></trkpt><trkpt lat="40.54728535565851" lon="9.66944853077918"><ele>39.0</ele><time>2026-05-01T08:24:42Z</time></trkpt><trkpt lat="40.54704017777611" lon="9.66912430980756"><ele>40.0</ele><time>2026-05-01T08:24:43Z</time></trkpt><trkpt lat="40.546800130649544" lon="9.668785946855945"><ele>41.0</ele><time>2026-05-01T08:24:44Z</time></trkpt><trkpt lat="40.54656268966519" lon="9.66844239489722"><ele>41.5</ele><time>2026-05-01T08:24:45Z</time></trkpt><trkpt lat="40.54632466184684" lon="9.668098213944942"><ele>42.0</ele><time>2026-05-01T08:24:46Z</time></trkpt><trkpt lat="40.54608428509387" lon="9.66775401880574"><ele>42.0</ele><time>2026-05-01T08:24:47Z</time></trkpt><trkpt lat="40.54584204070853" lon="9.667414950938213"><ele>42.0</ele><time>2026-05-01T08:24:48Z</time></trkpt><trkpt lat="40.545601117514394" lon="9.66707586689943"><ele>43.5</ele><time>2026-05-01T08:24:49Z</time></trkpt><trkpt lat="40.54536354417847" lon="9.666737474663657"><ele>45.0</ele><time>2026-05-01T08:24:50Z</time></trkpt><trkpt lat="40.54512835511873" lon="9.666397868801361"><ele>47.0</ele><time>2026-05-01T08:24:51Z</time></trkpt><trkpt lat="40.544897354327404" lon="9.666061753252444"><ele>49.0</ele><time>2026-05-01T08:24:52Z</time></trkpt><trkpt lat="40.544673624970926" lon="9.665741338747713"><ele>48.0</ele><time>2026-05-01T08:24:53Z</time></trkpt><trkpt lat="40.54446920547724" lon="9.665448625471942"><ele>47.0</ele><time>2026-05-01T08:24:54Z</time></trkpt><trkpt lat="40.544275881209686" lon="9.665174730554847"><ele>50.0</ele><time>2026-05-01T08:24:55Z</time></trkpt><trkpt lat="40.5440844091705" lon="9.664903834052256"><ele>53.0</ele><time>2026-05-01T08:24:56Z</time></trkpt><trkpt lat="40.543890081494" lon="9.664626798958048"><ele>53.5</ele><time>2026-05-01T08:24:57Z</time></trkpt><trkpt lat="40.54369164905894" lon="9.664342073786543"><ele>54.0</ele><time>2026-05-01T08:24:58Z</time></trkpt><trkpt lat="40.543491500028225" lon="9.664052106937106"><ele>54.0</ele><time>2026-05-01T08:24:59Z</time></trkpt><trkpt lat="40.54329100199312" lon="9.663757769584267"><ele>54.0</ele><time>2026-05-01T08:25:00Z</time></trkpt><trkpt lat="40.543095307290606" lon="9.663453596621835"><ele>55.5</ele><time>2026-05-01T08:25:01Z</time></trkpt><trkpt lat="40.54290608049777" lon="9.663139835160798"><ele>57.0</ele><time>2026-05-01T08:25:02Z</time></trkpt><trkpt lat="40.542720913906045" lon="9.662815586397267"><ele>58.0</ele><time>2026-05-01T08:25:03Z</time></trkpt><trkpt lat="40.542538593225906" lon="9.662484075918373"><ele>59.0</ele><time>2026-05-01T08:25:04Z</time></trkpt><trkpt lat="40.54235403587247" lon="9.66215411569352"><ele>58.5</ele><time>2026-05-01T08:25:05Z</time></trkpt><trkpt lat="40.54216600504386" lon="9.661825335234468"><ele>58.0</ele><time>2026-05-01T08:25:06Z</time></trkpt><trkpt lat="40.541975853775114" lon="9.661497084655368"><ele>58.0</ele><time>2026-05-01T08:25:07Z</time></trkpt><trkpt lat="40.54178526731285" lon="9.661166520394154"><ele>58.0</ele><time>2026-05-01T08:25:08Z</time></trkpt><trkpt lat="40.541595467713314" lon="9.660833234746715"><ele>61.0</ele><time>2026-05-01T08:25:09Z</time></trkpt><trkpt lat="40.541406333283184" lon="9.660497001700117"><ele>64.0</ele><time>2026-05-01T08:25:10Z</time></trkpt><trkpt lat="40.54121675947482" lon="9.660159397591983"><ele>63.0</ele><time>2026-05-01T08:25:11Z</time></trkpt><trkpt lat="40.54102601460572" lon="9.659823235616667"><ele>62.0</ele><time>2026-05-01T08:25:12Z</time></trkpt><trkpt lat="40.540833376856625" lon="9.65948415872908"><ele>62.0</ele><time>2026-05-01T08:25:13Z</time></trkpt><trkpt lat="40.540639427332664" lon="9.659144652423135"><ele>62.0</ele><time>2026-05-01T08:25:14Z</time></trkpt><trkpt lat="40.5404465409705" lon="9.658803262693379"><ele>61.5</ele><time>2026-05-01T08:25:15Z</time></trkpt><trkpt lat="40.540255576196884" lon="9.658466055785922"><ele>61.0</ele><time>2026-05-01T08:25:16Z</time></trkpt><trkpt lat="40.54006506531299" lon="9.658128846094042"><ele>61.0</ele><time>2026-05-01T08:25:17Z</time></trkpt><trkpt lat="40.53987515698909" lon="9.657795605566822"><ele>61.0</ele><time>2026-05-01T08:25:18Z</time></trkpt><trkpt lat="40.539684842575056" lon="9.657463069659963"><ele>59.5</ele><time>2026-05-01T08:25:19Z</time></trkpt><trkpt lat="40.539495961201766" lon="9.657128722045831"><ele>58.0</ele><time>2026-05-01T08:25:20Z</time></trkpt><trkpt lat="40.539309207731215" lon="9.656795353620245"><ele>58.0</ele><time>2026-05-01T08:25:21Z</time></trkpt><trkpt lat="40.53912224031357" lon="9.656464595043545"><ele>58.0</ele><time>2026-05-01T08:25:22Z</time></trkpt><trkpt lat="40.53893766825569" lon="9.65613631852434"><ele>57.5</ele><time>2026-05-01T08:25:23Z</time></trkpt><trkpt lat="40.538754303579466" lon="9.655813149877128"><ele>57.0</ele><time>2026-05-01T08:25:24Z</time></trkpt><trkpt lat="40.53857172448255" lon="9.655495726284846"><ele>58.0</ele><time>2026-05-01T08:25:25Z</time></trkpt><trkpt lat="40.538390957117706" lon="9.655182038761192"><ele>59.0</ele><time>2026-05-01T08:25:26Z</time></trkpt><trkpt lat="40.53821142228974" lon="9.654869421939189"><ele>59.0</ele><time>2026-05-01T08:25:27Z</time></trkpt><trkpt lat="40.53803438222659" lon="9.654556710697204"><ele>59.0</ele><time>2026-05-01T08:25:28Z</time></trkpt><trkpt lat="40.53785458826285" lon="9.654241792820928"><ele>58.0</ele><time>2026-05-01T08:25:29Z</time></trkpt><trkpt lat="40.53767664285889" lon="9.65392591061076"><ele>57.0</ele><time>2026-05-01T08:25:30Z</time></trkpt><trkpt lat="40.53750003867269" lon="9.653611703908757"><ele>60.5</ele><time>2026-05-01T08:25:31Z</time></trkpt><trkpt lat="40.53732465943209" lon="9.653298118361688"><ele>64.0</ele><time>2026-05-01T08:25:32Z</time></trkpt><trkpt lat="40.53714957473133" lon="9.652985976068695"><ele>61.5</ele><time>2026-05-01T08:25:33Z</time></trkpt><trkpt lat="40.53697101185867" lon="9.652669757365523"><ele>59.0</ele><time>2026-05-01T08:25:34Z</time></trkpt><trkpt lat="40.53679052145528" lon="9.65235046081848"><ele>59.0</ele><time>2026-05-01T08:25:35Z</time></trkpt><trkpt lat="40.536610086632315" lon="9.652029469107113"><ele>59.0</ele><time>2026-05-01T08:25:36Z</time></trkpt><trkpt lat="40.53642719507693" lon="9.651710420030023"><ele>61.0</ele><time>2026-05-01T08:25:37Z</time></trkpt><trkpt lat="40.536245324317676" lon="9.651388739374683"><ele>63.0</ele><time>2026-05-01T08:25:38Z</time></trkpt><trkpt lat="40.5360646972621" lon="9.651069105457845"><ele>63.0</ele><time>2026-05-01T08:25:39Z</time></trkpt><trkpt lat="40.53588170686895" lon="9.650744379608364"><ele>63.0</ele><time>2026-05-01T08:25:40Z</time></trkpt><trkpt lat="40.53570369147273" lon="9.65042823621026"><ele>61.5</ele><time>2026-05-01T08:25:41Z</time></trkpt><trkpt lat="40.53552211089886" lon="9.650109774864479"><ele>60.0</ele><time>2026-05-01T08:25:42Z</time></trkpt><trkpt lat="40.53533591967855" lon="9.649788014184368"><ele>60.0</ele><time>2026-05-01T08:25:43Z</time></trkpt><trkpt lat="40.53514777955092" lon="9.6494624969682"><ele>60.0</ele><time>2026-05-01T08:25:44Z</time></trkpt><trkpt lat="40.53496008029695" lon="9.649134065066928"><ele>62.5</ele><time>2026-05-01T08:25:45Z</time></trkpt><trkpt lat="40.53476935199985" lon="9.648803086956608"><ele>65.0</ele><time>2026-05-01T08:25:46Z</time></trkpt><trkpt lat="40.53458049108804" lon="9.648465232772825"><ele>65.0</ele><time>2026-05-01T08:25:47Z</time></trkpt><trkpt lat="40.53439029199869" lon="9.648125919268455"><ele>65.0</ele><time>2026-05-01T08:25:48Z</time></trkpt><trkpt lat="40.534198072586186" lon="9.647783200012492"><ele>65.0</ele><time>2026-05-01T08:25:49Z</time></trkpt><trkpt lat="40.534003113966264" lon="9.647441134884259"><ele>65.0</ele><time>2026-05-01T08:25:50Z</time></trkpt><trkpt lat="40.5338065904011" lon="9.647095174139876"><ele>63.5</ele><time>2026-05-01T08:25:51Z</time></trkpt><trkpt lat="40.53360723311995" lon="9.646747330798778"><ele>62.0</ele><time>2026-05-01T08:25:52Z</time></trkpt><trkpt lat="40.53340782022346" lon="9.646398326693285"><ele>63.5</ele><time>2026-05-01T08:25:53Z</time></trkpt><trkpt lat="40.53320849568349" lon="9.646049357190158"><ele>65.0</ele><time>2026-05-01T08:25:54Z</time></trkpt><trkpt lat="40.53300970436484" lon="9.645699396259296"><ele>62.5</ele><time>2026-05-01T08:25:55Z</time></trkpt><trkpt lat="40.532810751368004" lon="9.645351486764781"><ele>60.0</ele><time>2026-05-01T08:25:56Z</time></trkpt><trkpt lat="40.53261340679349" lon="9.64500246280082"><ele>60.0</ele><time>2026-05-01T08:25:57Z</time></trkpt><trkpt lat="40.53241568559322" lon="9.644651175204343"><ele>60.0</ele><time>2026-05-01T08:25:58Z</time></trkpt><trkpt lat="40.532219233193864" lon="9.64430029162793"><ele>59.5</ele><time>2026-05-01T08:25:59Z</time></trkpt><trkpt lat="40.53202346418484" lon="9.643948481565603"><ele>59.0</ele><time>2026-05-01T08:26:00Z</time></trkpt><trkpt lat="40.53182688346324" lon="9.643596833711547"><ele>60.5</ele><time>2026-05-01T08:26:01Z</time></trkpt><trkpt lat="40.53162921836162" lon="9.643248238787834"><ele>62.0</ele><time>2026-05-01T08:26:02Z</time></trkpt><trkpt lat="40.531429370323906" lon="9.64290177707389"><ele>62.0</ele><time>2026-05-01T08:26:03Z</time></trkpt><trkpt lat="40.53123114534855" lon="9.642555987270747"><ele>62.0</ele><time>2026-05-01T08:26:04Z</time></trkpt><trkpt lat="40.531035231547705" lon="9.642215155568712"><ele>63.0</ele><time>2026-05-01T08:26:05Z</time></trkpt><trkpt lat="40.53083915267755" lon="9.641876368764517"><ele>64.0</ele><time>2026-05-01T08:26:06Z</time></trkpt><trkpt lat="40.53064865078396" lon="9.641540006926924"><ele>64.0</ele><time>2026-05-01T08:26:07Z</time></trkpt><trkpt lat="40.5304605594303" lon="9.641199588002149"><ele>64.0</ele><time>2026-05-01T08:26:08Z</time></trkpt><trkpt lat="40.530276129035514" lon="9.640869096788686"><ele>63.5</ele><time>2026-05-01T08:26:09Z</time></trkpt><trkpt lat="40.530093946998676" lon="9.640552513075523"><ele>63.0</ele><time>2026-05-01T08:26:10Z</time></trkpt><trkpt lat="40.52992189657916" lon="9.640254879719762"><ele>62.0</ele><time>2026-05-01T08:26:11Z</time></trkpt><trkpt lat="40.52974479332885" lon="9.63995985914575"><ele>61.0</ele><time>2026-05-01T08:26:12Z</time></trkpt><trkpt lat="40.52957076565524" lon="9.639676836981327"><ele>59.5</ele><time>2026-05-01T08:26:13Z</time></trkpt><trkpt lat="40.529389470302604" lon="9.639395530209455"><ele>58.0</ele><time>2026-05-01T08:26:14Z</time></trkpt><trkpt lat="40.529168497993595" lon="9.639153224144508"><ele>58.0</ele><time>2026-05-01T08:26:15Z</time></trkpt><trkpt lat="40.52896194687533" lon="9.638897119839307"><ele>58.0</ele><time>2026-05-01T08:26:16Z</time></trkpt><trkpt lat="40.52875272360796" lon="9.638635588824666"><ele>57.5</ele><time>2026-05-01T08:26:17Z</time></trkpt><trkpt lat="40.52853070573273" lon="9.638397726803465"><ele>57.0</ele><time>2026-05-01T08:26:18Z</time></trkpt><trkpt lat="40.52829982296485" lon="9.638162533306884"><ele>57.0</ele><time>2026-05-01T08:26:19Z</time></trkpt><trkpt lat="40.52805964961983" lon="9.637929920716967"><ele>57.0</ele><time>2026-05-01T08:26:20Z</time></trkpt><trkpt lat="40.527817100910056" lon="9.637692616546406"><ele>58.0</ele><time>2026-05-01T08:26:21Z</time></trkpt><trkpt lat="40.527566222971906" lon="9.63745451991022"><ele>59.0</ele><time>2026-05-01T08:26:22Z</time></trkpt><trkpt lat="40.52731879223515" lon="9.637202992923742"><ele>59.5</ele><time>2026-05-01T08:26:23Z</time></trkpt><trkpt lat="40.52706737617989" lon="9.636948736118102"><ele>60.0</ele><time>2026-05-01T08:26:24Z</time></trkpt><trkpt lat="40.52681323237439" lon="9.636692260320233"><ele>60.5</ele><time>2026-05-01T08:26:25Z</time></trkpt><trkpt lat="40.526555615712034" lon="9.636432491935677"><ele>61.0</ele><time>2026-05-01T08:26:26Z</time></trkpt><trkpt lat="40.526295414774175" lon="9.636174041790463"><ele>61.0</ele><time>2026-05-01T08:26:27Z</time></trkpt><trkpt lat="40.52603145762841" lon="9.635914309527745"><ele>61.0</ele><time>2026-05-01T08:26:28Z</time></trkpt><trkpt lat="40.525757366763955" lon="9.63564468925374"><ele>61.0</ele><time>2026-05-01T08:26:29Z</time></trkpt><trkpt lat="40.52548113672494" lon="9.63536894563689"><ele>61.0</ele><time>2026-05-01T08:26:30Z</time></trkpt><trkpt lat="40.52520271433965" lon="9.635091016278698"><ele>63.0</ele><time>2026-05-01T08:26:31Z</time></trkpt><trkpt lat="40.52492188444197" lon="9.634815080263476"><ele>65.0</ele><time>2026-05-01T08:26:32Z</time></trkpt><trkpt lat="40.524638148887945" lon="9.634538462873635"><ele>67.5</ele><time>2026-05-01T08:26:33Z</time></trkpt><trkpt lat="40.52435196613739" lon="9.634258891769397"><ele>70.0</ele><time>2026-05-01T08:26:34Z</time></trkpt><trkpt lat="40.524066534398116" lon="9.633978539668451"><ele>70.0</ele><time>2026-05-01T08:26:35Z</time></trkpt><trkpt lat="40.52378669537686" lon="9.633699683894775"><ele>70.0</ele><time>2026-05-01T08:26:36Z</time></trkpt><trkpt lat="40.523512079793605" lon="9.633427928478628"><ele>70.0</ele><time>2026-05-01T08:26:37Z</time></trkpt><trkpt lat="40.523244953667636" lon="9.63315927955832"><ele>70.0</ele><time>2026-05-01T08:26:38Z</time></trkpt><trkpt lat="40.522997245957924" lon="9.632912619076878"><ele>70.0</ele><time>2026-05-01T08:26:39Z</time></trkpt><trkpt lat="40.522762053635844" lon="9.63267651664686"><ele>70.0</ele><time>2026-05-01T08:26:40Z</time></trkpt><trkpt lat="40.52253074954972" lon="9.632447196047071"><ele>70.0</ele><time>2026-05-01T08:26:41Z</time></trkpt><trkpt lat="40.52229613359181" lon="9.632222531494689"><ele>70.0</ele><time>2026-05-01T08:26:42Z</time></trkpt><trkpt lat="40.52205496827539" lon="9.63200027259178"><ele>73.5</ele><time>2026-05-01T08:26:43Z</time></trkpt><trkpt lat="40.52180622756391" lon="9.631791504828701"><ele>77.0</ele><time>2026-05-01T08:26:44Z</time></trkpt><trkpt lat="40.521552562610296" lon="9.631601220823272"><ele>77.0</ele><time>2026-05-01T08:26:45Z</time></trkpt><trkpt lat="40.52128977339514" lon="9.631428453034534"><ele>77.0</ele><time>2026-05-01T08:26:46Z</time></trkpt><trkpt lat="40.521020229368894" lon="9.631267315943083"><ele>80.0</ele><time>2026-05-01T08:26:47Z</time></trkpt><trkpt lat="40.5207410626534" lon="9.63111690703449"><ele>83.0</ele><time>2026-05-01T08:26:48Z</time></trkpt><trkpt lat="40.52045906022914" lon="9.630966906991938"><ele>79.0</ele><time>2026-05-01T08:26:49Z</time></trkpt><trkpt lat="40.52017574779784" lon="9.630812402284374"><ele>75.0</ele><time>2026-05-01T08:26:50Z</time></trkpt><trkpt lat="40.519892810021744" lon="9.630645292802463"><ele>75.0</ele><time>2026-05-01T08:26:51Z</time></trkpt><trkpt lat="40.51960889909755" lon="9.630473102547422"><ele>75.0</ele><time>2026-05-01T08:26:52Z</time></trkpt><trkpt lat="40.51932030456867" lon="9.630305558665142"><ele>77.0</ele><time>2026-05-01T08:26:53Z</time></trkpt><trkpt lat="40.51902848643542" lon="9.630140929225048"><ele>79.0</ele><time>2026-05-01T08:26:54Z</time></trkpt><trkpt lat="40.51873487326295" lon="9.629978268578942"><ele>77.0</ele><time>2026-05-01T08:26:55Z</time></trkpt><trkpt lat="40.518439581424474" lon="9.629816130709079"><ele>75.0</ele><time>2026-05-01T08:26:56Z</time></trkpt><trkpt lat="40.51814381961657" lon="9.629651082814677"><ele>75.5</ele><time>2026-05-01T08:26:57Z</time></trkpt><trkpt lat="40.517847911650584" lon="9.62948671021872"><ele>76.0</ele><time>2026-05-01T08:26:58Z</time></trkpt><trkpt lat="40.517552632082555" lon="9.629319534254135"><ele>76.0</ele><time>2026-05-01T08:26:59Z</time></trkpt><trkpt lat="40.51725617759768" lon="9.629152464492387"><ele>76.0</ele><time>2026-05-01T08:27:00Z</time></trkpt><trkpt lat="40.516957476429624" lon="9.628988454798586"><ele>77.0</ele><time>2026-05-01T08:27:01Z</time></trkpt><trkpt lat="40.51665755052943" lon="9.628826276318868"><ele>78.0</ele><time>2026-05-01T08:27:02Z</time></trkpt><trkpt lat="40.51636031443148" lon="9.628664674316914"><ele>80.5</ele><time>2026-05-01T08:27:03Z</time></trkpt><trkpt lat="40.51606923441808" lon="9.628502812158974"><ele>83.0</ele><time>2026-05-01T08:27:04Z</time></trkpt><trkpt lat="40.51578231312735" lon="9.62834570319435"><ele>83.0</ele><time>2026-05-01T08:27:05Z</time></trkpt><trkpt lat="40.51549911853391" lon="9.628188599239087"><ele>83.0</ele><time>2026-05-01T08:27:06Z</time></trkpt><trkpt lat="40.51521617862842" lon="9.628030892831866"><ele>83.5</ele><time>2026-05-01T08:27:07Z</time></trkpt><trkpt lat="40.51493582316399" lon="9.627871991282332"><ele>84.0</ele><time>2026-05-01T08:27:08Z</time></trkpt><trkpt lat="40.514654335156294" lon="9.62771412628129"><ele>86.0</ele><time>2026-05-01T08:27:09Z</time></trkpt><trkpt lat="40.514372298285075" lon="9.627557432562917"><ele>88.0</ele><time>2026-05-01T08:27:10Z</time></trkpt><trkpt lat="40.51409049361577" lon="9.627401750174103"><ele>88.0</ele><time>2026-05-01T08:27:11Z</time></trkpt><trkpt lat="40.513809227464144" lon="9.627246002146062"><ele>88.0</ele><time>2026-05-01T08:27:12Z</time></trkpt><trkpt lat="40.5135271808185" lon="9.627089839469798"><ele>90.0</ele><time>2026-05-01T08:27:13Z</time></trkpt><trkpt lat="40.5132459729428" lon="9.626933878388522"><ele>92.0</ele><time>2026-05-01T08:27:14Z</time></trkpt><trkpt lat="40.51296596273445" lon="9.626780261840135"><ele>90.0</ele><time>2026-05-01T08:27:15Z</time></trkpt><trkpt lat="40.512685795275125" lon="9.626626786305208"><ele>88.0</ele><time>2026-05-01T08:27:16Z</time></trkpt><trkpt lat="40.512402809241244" lon="9.62647359741731"><ele>88.0</ele><time>2026-05-01T08:27:17Z</time></trkpt><trkpt lat="40.51211980776557" lon="9.626319735451942"><ele>88.0</ele><time>2026-05-01T08:27:18Z</time></trkpt><trkpt lat="40.511834574409406" lon="9.626164538829993"><ele>91.5</ele><time>2026-05-01T08:27:19Z</time></trkpt><trkpt lat="40.51154904596274" lon="9.626010896719274"><ele>95.0</ele><time>2026-05-01T08:27:20Z</time></trkpt><trkpt lat="40.51126633097137" lon="9.625856033592434"><ele>93.0</ele><time>2026-05-01T08:27:21Z</time></trkpt><trkpt lat="40.51098148744762" lon="9.625704440653811"><ele>91.0</ele><time>2026-05-01T08:27:22Z</time></trkpt><trkpt lat="40.51069866873976" lon="9.625548035562224"><ele>91.0</ele><time>2026-05-01T08:27:23Z</time></trkpt><trkpt lat="40.51041971985925" lon="9.625392549426364"><ele>91.0</ele><time>2026-05-01T08:27:24Z</time></trkpt><trkpt lat="40.510144014255296" lon="9.625234744490504"><ele>90.5</ele><time>2026-05-01T08:27:25Z</time></trkpt><trkpt lat="40.50986517316388" lon="9.625073956664217"><ele>90.0</ele><time>2026-05-01T08:27:26Z</time></trkpt><trkpt lat="40.50958761066306" lon="9.624913248959862"><ele>90.5</ele><time>2026-05-01T08:27:27Z</time></trkpt><trkpt lat="40.509308938195424" lon="9.624754743675435"><ele>91.0</ele><time>2026-05-01T08:27:28Z</time></trkpt><trkpt lat="40.50902988097773" lon="9.624596810456788"><ele>92.5</ele><time>2026-05-01T08:27:29Z</time></trkpt><trkpt lat="40.50875086986492" lon="9.624443367327478"><ele>94.0</ele><time>2026-05-01T08:27:30Z</time></trkpt><trkpt lat="40.50847738668973" lon="9.62429196401492"><ele>94.0</ele><time>2026-05-01T08:27:31Z</time></trkpt><trkpt lat="40.508203996868275" lon="9.624138212154806"><ele>94.0</ele><time>2026-05-01T08:27:32Z</time></trkpt><trkpt lat="40.50793493445651" lon="9.623987545993735"><ele>94.0</ele><time>2026-05-01T08:27:33Z</time></trkpt><trkpt lat="40.507664825548105" lon="9.623836255182388"><ele>94.0</ele><time>2026-05-01T08:27:34Z</time></trkpt><trkpt lat="40.50739793907182" lon="9.62369082781499"><ele>94.0</ele><time>2026-05-01T08:27:35Z</time></trkpt><trkpt lat="40.50713273557442" lon="9.62354493449377"><ele>94.0</ele><time>2026-05-01T08:27:36Z</time></trkpt><trkpt lat="40.50686551680393" lon="9.623397148148136"><ele>94.0</ele><time>2026-05-01T08:27:37Z</time></trkpt><trkpt lat="40.5065971170631" lon="9.623251681786764"><ele>94.0</ele><time>2026-05-01T08:27:38Z</time></trkpt><trkpt lat="40.50632940822043" lon="9.623103139214654"><ele>95.0</ele><time>2026-05-01T08:27:39Z</time></trkpt><trkpt lat="40.5060600583073" lon="9.62295400774525"><ele>96.0</ele><time>2026-05-01T08:27:40Z</time></trkpt><trkpt lat="40.50578393865403" lon="9.6228008299815"><ele>96.0</ele><time>2026-05-01T08:27:41Z</time></trkpt><trkpt lat="40.505495346526246" lon="9.62264264971134"><ele>96.0</ele><time>2026-05-01T08:27:42Z</time></trkpt><trkpt lat="40.50521456303313" lon="9.622488451649177"><ele>99.0</ele><time>2026-05-01T08:27:43Z</time></trkpt><trkpt lat="40.50492574598193" lon="9.62232889698828"><ele>102.0</ele><time>2026-05-01T08:27:44Z</time></trkpt><trkpt lat="40.50463420363092" lon="9.622167418037252"><ele>103.0</ele><time>2026-05-01T08:27:45Z</time></trkpt><trkpt lat="40.504340385044735" lon="9.622003465185363"><ele>104.0</ele><time>2026-05-01T08:27:46Z</time></trkpt><trkpt lat="40.50404627514532" lon="9.621837717911593"><ele>107.0</ele><time>2026-05-01T08:27:47Z</time></trkpt><trkpt lat="40.5037517913649" lon="9.621666830645042"><ele>110.0</ele><time>2026-05-01T08:27:48Z</time></trkpt><trkpt lat="40.50346068307084" lon="9.621483145786362"><ele>110.5</ele><time>2026-05-01T08:27:49Z</time></trkpt><trkpt lat="40.50317523213019" lon="9.62127545482872"><ele>111.0</ele><time>2026-05-01T08:27:50Z</time></trkpt><trkpt lat="40.502896909054776" lon="9.62104488424665"><ele>111.0</ele><time>2026-05-01T08:27:51Z</time></trkpt><trkpt lat="40.50262403321465" lon="9.620804060063175"><ele>111.0</ele><time>2026-05-01T08:27:52Z</time></trkpt><trkpt lat="40.50235526473676" lon="9.620549131091702"><ele>111.0</ele><time>2026-05-01T08:27:53Z</time></trkpt><trkpt lat="40.502094746584476" lon="9.620277719872748"><ele>111.0</ele><time>2026-05-01T08:27:54Z</time></trkpt><trkpt lat="40.50183737003711" lon="9.620000410805382"><ele>111.5</ele><time>2026-05-01T08:27:55Z</time></trkpt><trkpt lat="40.50158015775564" lon="9.619720603138173"><ele>112.0</ele><time>2026-05-01T08:27:56Z</time></trkpt><trkpt lat="40.50132308068817" lon="9.619444272943076"><ele>112.5</ele><time>2026-05-01T08:27:57Z</time></trkpt><trkpt lat="40.50106641245439" lon="9.619170524524241"><ele>113.0</ele><time>2026-05-01T08:27:58Z</time></trkpt><trkpt lat="40.500810415480444" lon="9.618900736000276"><ele>111.5</ele><time>2026-05-01T08:27:59Z</time></trkpt><trkpt lat="40.500568284100765" lon="9.618639215574438"><ele>110.0</ele><time>2026-05-01T08:28:00Z</time></trkpt><trkpt lat="40.50033996554856" lon="9.618390901719282"><ele>115.0</ele><time>2026-05-01T08:28:01Z</time></trkpt><trkpt lat="40.50010903171437" lon="9.618142126079196"><ele>120.0</ele><time>2026-05-01T08:28:02Z</time></trkpt><trkpt lat="40.49987649420323" lon="9.617892731167824"><ele>117.5</ele><time>2026-05-01T08:28:03Z</time></trkpt><trkpt lat="40.49964747551785" lon="9.617636009782194"><ele>115.0</ele><time>2026-05-01T08:28:04Z</time></trkpt><trkpt lat="40.49941416521416" lon="9.617381591408813"><ele>118.0</ele><time>2026-05-01T08:28:05Z</time></trkpt><trkpt lat="40.499181216052854" lon="9.617127360891336"><ele>121.0</ele><time>2026-05-01T08:28:06Z</time></trkpt><trkpt lat="40.49894525076536" lon="9.616871219004254"><ele>126.0</ele><time>2026-05-01T08:28:07Z</time></trkpt><trkpt lat="40.49870868727028" lon="9.61661347314597"><ele>131.0</ele><time>2026-05-01T08:28:08Z</time></trkpt><trkpt lat="40.49847343316788" lon="9.616356706186043"><ele>126.0</ele><time>2026-05-01T08:28:09Z</time></trkpt><trkpt lat="40.49823847603824" lon="9.616101997999603"><ele>121.0</ele><time>2026-05-01T08:28:10Z</time></trkpt><trkpt lat="40.49800406973605" lon="9.615846209517864"><ele>123.5</ele><time>2026-05-01T08:28:11Z</time></trkpt><trkpt lat="40.49777010359906" lon="9.615590364901637"><ele>126.0</ele><time>2026-05-01T08:28:12Z</time></trkpt><trkpt lat="40.49753255380251" lon="9.615330716274292"><ele>125.0</ele><time>2026-05-01T08:28:13Z</time></trkpt><trkpt lat="40.497291457997385" lon="9.61507086967395"><ele>124.0</ele><time>2026-05-01T08:28:14Z</time></trkpt><trkpt lat="40.497047754337174" lon="9.614810096953725"><ele>124.0</ele><time>2026-05-01T08:28:15Z</time></trkpt><trkpt lat="40.49680229538012" lon="9.614546796446172"><ele>124.0</ele><time>2026-05-01T08:28:16Z</time></trkpt><trkpt lat="40.496556325448985" lon="9.614280099060652"><ele>125.5</ele><time>2026-05-01T08:28:17Z</time></trkpt><trkpt lat="40.496311874245706" lon="9.614010761953077"><ele>127.0</ele><time>2026-05-01T08:28:18Z</time></trkpt><trkpt lat="40.496065760038846" lon="9.613741703458423"><ele>129.5</ele><time>2026-05-01T08:28:19Z</time></trkpt><trkpt lat="40.49581941369005" lon="9.613471706638979"><ele>132.0</ele><time>2026-05-01T08:28:20Z</time></trkpt><trkpt lat="40.49557037282885" lon="9.613198319902338"><ele>133.5</ele><time>2026-05-01T08:28:21Z</time></trkpt><trkpt lat="40.49531896492234" lon="9.612923361197947"><ele>135.0</ele><time>2026-05-01T08:28:22Z</time></trkpt><trkpt lat="40.495063554461886" lon="9.612644987486437"><ele>135.5</ele><time>2026-05-01T08:28:23Z</time></trkpt><trkpt lat="40.49480521727842" lon="9.61236590406222"><ele>136.0</ele><time>2026-05-01T08:28:24Z</time></trkpt><trkpt lat="40.494546812619355" lon="9.61208693954688"><ele>139.5</ele><time>2026-05-01T08:28:25Z</time></trkpt><trkpt lat="40.494290824104176" lon="9.611811379263168"><ele>143.0</ele><time>2026-05-01T08:28:26Z</time></trkpt><trkpt lat="40.494036685633944" lon="9.61153618653365"><ele>143.0</ele><time>2026-05-01T08:28:27Z</time></trkpt><trkpt lat="40.49378439011015" lon="9.611263227898075"><ele>143.0</ele><time>2026-05-01T08:28:28Z</time></trkpt><trkpt lat="40.493534438915766" lon="9.610987863745034"><ele>143.5</ele><time>2026-05-01T08:28:29Z</time></trkpt><trkpt lat="40.49328213520288" lon="9.610718667486822"><ele>144.0</ele><time>2026-05-01T08:28:30Z</time></trkpt><trkpt lat="40.49303371079132" lon="9.610448548010622"><ele>145.5</ele><time>2026-05-01T08:28:31Z</time></trkpt><trkpt lat="40.49278725905324" lon="9.610179057316554"><ele>147.0</ele><time>2026-05-01T08:28:32Z</time></trkpt><trkpt lat="40.49254468674823" lon="9.609902480645784"><ele>147.0</ele><time>2026-05-01T08:28:33Z</time></trkpt><trkpt lat="40.49230991852296" lon="9.609618187102978"><ele>147.0</ele><time>2026-05-01T08:28:34Z</time></trkpt><trkpt lat="40.492091694030826" lon="9.609320528812818"><ele>150.0</ele><time>2026-05-01T08:28:35Z</time></trkpt><trkpt lat="40.49188410808671" lon="9.609011639433318"><ele>153.0</ele><time>2026-05-01T08:28:36Z</time></trkpt><trkpt lat="40.491685876339616" lon="9.608693028281092"><ele>153.0</ele><time>2026-05-01T08:28:37Z</time></trkpt><trkpt lat="40.491491491238875" lon="9.608368344956059"><ele>153.0</ele><time>2026-05-01T08:28:38Z</time></trkpt><trkpt lat="40.491294755511404" lon="9.608044164416583"><ele>155.5</ele><time>2026-05-01T08:28:39Z</time></trkpt><trkpt lat="40.49109266566729" lon="9.607726368056369"><ele>158.0</ele><time>2026-05-01T08:28:40Z</time></trkpt><trkpt lat="40.49088559861363" lon="9.607412956381422"><ele>158.0</ele><time>2026-05-01T08:28:41Z</time></trkpt><trkpt lat="40.49067637108834" lon="9.607100386291638"><ele>158.0</ele><time>2026-05-01T08:28:42Z</time></trkpt><trkpt lat="40.49046853876493" lon="9.60678004691959"><ele>162.5</ele><time>2026-05-01T08:28:43Z</time></trkpt><trkpt lat="40.49026007063235" lon="9.606452868337765"><ele>167.0</ele><time>2026-05-01T08:28:44Z</time></trkpt><trkpt lat="40.490050771533795" lon="9.60612266453249"><ele>167.0</ele><time>2026-05-01T08:28:45Z</time></trkpt><trkpt lat="40.48984009377119" lon="9.605793399977742"><ele>167.0</ele><time>2026-05-01T08:28:46Z</time></trkpt><trkpt lat="40.4896275594966" lon="9.605462559686913"><ele>169.5</ele><time>2026-05-01T08:28:47Z</time></trkpt><trkpt lat="40.489411651713695" lon="9.605130696631324"><ele>172.0</ele><time>2026-05-01T08:28:48Z</time></trkpt><trkpt lat="40.48919764231765" lon="9.604797577785467"><ele>170.5</ele><time>2026-05-01T08:28:49Z</time></trkpt><trkpt lat="40.488983657970195" lon="9.60446211628585"><ele>169.0</ele><time>2026-05-01T08:28:50Z</time></trkpt><trkpt lat="40.48876809764021" lon="9.604129497581521"><ele>170.0</ele><time>2026-05-01T08:28:51Z</time></trkpt><trkpt lat="40.488551547563404" lon="9.603794407760251"><ele>171.0</ele><time>2026-05-01T08:28:52Z</time></trkpt><trkpt lat="40.48833428444663" lon="9.60345926324453"><ele>171.0</ele><time>2026-05-01T08:28:53Z</time></trkpt><trkpt lat="40.48811754897986" lon="9.603122518173288"><ele>171.0</ele><time>2026-05-01T08:28:54Z</time></trkpt><trkpt lat="40.48790033070526" lon="9.602789409617635"><ele>170.5</ele><time>2026-05-01T08:28:55Z</time></trkpt><trkpt lat="40.48768154697722" lon="9.60245219847006"><ele>170.0</ele><time>2026-05-01T08:28:56Z</time></trkpt><trkpt lat="40.487465891655404" lon="9.602115873035128"><ele>171.5</ele><time>2026-05-01T08:28:57Z</time></trkpt><trkpt lat="40.48724978970007" lon="9.601776934080652"><ele>173.0</ele><time>2026-05-01T08:28:58Z</time></trkpt><trkpt lat="40.4870305344393" lon="9.601443665380128"><ele>170.0</ele><time>2026-05-01T08:28:59Z</time></trkpt><trkpt lat="40.48681255808055" lon="9.601108468540634"><ele>167.0</ele><time>2026-05-01T08:29:00Z</time></trkpt><trkpt lat="40.48659307786964" lon="9.600773549414718"><ele>167.0</ele><time>2026-05-01T08:29:01Z</time></trkpt><trkpt lat="40.486374133484844" lon="9.600442699086875"><ele>167.0</ele><time>2026-05-01T08:29:02Z</time></trkpt><trkpt lat="40.48614254553778" lon="9.600115172815793"><ele>168.5</ele><time>2026-05-01T08:29:03Z</time></trkpt><trkpt lat="40.485904375934666" lon="9.599805926739874"><ele>170.0</ele><time>2026-05-01T08:29:04Z</time></trkpt><trkpt lat="40.485657947005535" lon="9.59950609480772"><ele>172.0</ele><time>2026-05-01T08:29:05Z</time></trkpt><trkpt lat="40.48541188212588" lon="9.59920920680611"><ele>174.0</ele><time>2026-05-01T08:29:06Z</time></trkpt><trkpt lat="40.48516628862049" lon="9.598910698053455"><ele>172.5</ele><time>2026-05-01T08:29:07Z</time></trkpt><trkpt lat="40.48492303148414" lon="9.59860933478562"><ele>171.0</ele><time>2026-05-01T08:29:08Z</time></trkpt><trkpt lat="40.484679522138336" lon="9.598309319086958"><ele>173.5</ele><time>2026-05-01T08:29:09Z</time></trkpt><trkpt lat="40.48444861200661" lon="9.598023548200747"><ele>176.0</ele><time>2026-05-01T08:29:10Z</time></trkpt><trkpt lat="40.48423595610507" lon="9.597757257604494"><ele>176.0</ele><time>2026-05-01T08:29:11Z</time></trkpt><trkpt lat="40.48402752229668" lon="9.597508424650778"><ele>176.0</ele><time>2026-05-01T08:29:12Z</time></trkpt><trkpt lat="40.48381165390537" lon="9.597243676028949"><ele>179.5</ele><time>2026-05-01T08:29:13Z</time></trkpt><trkpt lat="40.4835858348413" lon="9.596966830165476"><ele>183.0</ele><time>2026-05-01T08:29:14Z</time></trkpt><trkpt lat="40.48335986366299" lon="9.596688402024101"><ele>183.0</ele><time>2026-05-01T08:29:15Z</time></trkpt><trkpt lat="40.48313838235263" lon="9.596412991722387"><ele>183.0</ele><time>2026-05-01T08:29:16Z</time></trkpt><trkpt lat="40.48291194432493" lon="9.596130250880679"><ele>183.5</ele><time>2026-05-01T08:29:17Z</time></trkpt><trkpt lat="40.482683040228466" lon="9.595848685629795"><ele>184.0</ele><time>2026-05-01T08:29:18Z</time></trkpt><trkpt lat="40.48245235427871" lon="9.595563537373893"><ele>182.0</ele><time>2026-05-01T08:29:19Z</time></trkpt><trkpt lat="40.482220223601495" lon="9.595277556668739"><ele>180.0</ele><time>2026-05-01T08:29:20Z</time></trkpt><trkpt lat="40.48198721231576" lon="9.59499085547499"><ele>182.0</ele><time>2026-05-01T08:29:21Z</time></trkpt><trkpt lat="40.4817571631477" lon="9.594705219660344"><ele>184.0</ele><time>2026-05-01T08:29:22Z</time></trkpt><trkpt lat="40.4815357908952" lon="9.594429044832566"><ele>184.0</ele><time>2026-05-01T08:29:23Z</time></trkpt><trkpt lat="40.48131575922706" lon="9.594162252089703"><ele>184.0</ele><time>2026-05-01T08:29:24Z</time></trkpt><trkpt lat="40.4810924104631" lon="9.593885771528951"><ele>186.0</ele><time>2026-05-01T08:29:25Z</time></trkpt><trkpt lat="40.480867011422745" lon="9.593612095978317"><ele>188.0</ele><time>2026-05-01T08:29:26Z</time></trkpt><trkpt lat="40.4806367930132" lon="9.593348586756683"><ele>191.5</ele><time>2026-05-01T08:29:27Z</time></trkpt><trkpt lat="40.48039354816856" lon="9.593103268860375"><ele>195.0</ele><time>2026-05-01T08:29:28Z</time></trkpt><trkpt lat="40.48014289134763" lon="9.59286457792309"><ele>193.0</ele><time>2026-05-01T08:29:29Z</time></trkpt><trkpt lat="40.479886689184156" lon="9.59263020176059"><ele>191.0</ele><time>2026-05-01T08:29:30Z</time></trkpt><trkpt lat="40.479626373585354" lon="9.592399816065694"><ele>190.0</ele><time>2026-05-01T08:29:31Z</time></trkpt><trkpt lat="40.47936327909309" lon="9.592166634416703"><ele>189.0</ele><time>2026-05-01T08:29:32Z</time></trkpt><trkpt lat="40.47910364950423" lon="9.59192825980604"><ele>189.0</ele><time>2026-05-01T08:29:33Z</time></trkpt><trkpt lat="40.47884630220675" lon="9.591686571297009"><ele>189.0</ele><time>2026-05-01T08:29:34Z</time></trkpt><trkpt lat="40.47858509340307" lon="9.591450605661127"><ele>190.5</ele><time>2026-05-01T08:29:35Z</time></trkpt><trkpt lat="40.478326826769745" lon="9.591217466798991"><ele>192.0</ele><time>2026-05-01T08:29:36Z</time></trkpt><trkpt lat="40.478085476591076" lon="9.591000897021855"><ele>200.0</ele><time>2026-05-01T08:29:37Z</time></trkpt><trkpt lat="40.477851104520695" lon="9.590784470088733"><ele>208.0</ele><time>2026-05-01T08:29:38Z</time></trkpt><trkpt lat="40.477608310257516" lon="9.590559264429002"><ele>203.5</ele><time>2026-05-01T08:29:39Z</time></trkpt><trkpt lat="40.47735798622181" lon="9.590339409107376"><ele>199.0</ele><time>2026-05-01T08:29:40Z</time></trkpt><trkpt lat="40.477106160570294" lon="9.59011296317277"><ele>207.5</ele><time>2026-05-01T08:29:41Z</time></trkpt><trkpt lat="40.47685178137293" lon="9.589885887083392"><ele>216.0</ele><time>2026-05-01T08:29:42Z</time></trkpt><trkpt lat="40.476595401205365" lon="9.589654166123516"><ele>217.5</ele><time>2026-05-01T08:29:43Z</time></trkpt><trkpt lat="40.47633896083205" lon="9.589420284136281"><ele>219.0</ele><time>2026-05-01T08:29:44Z</time></trkpt><trkpt lat="40.47608026516052" lon="9.589188119581417"><ele>219.0</ele><time>2026-05-01T08:29:45Z</time></trkpt><trkpt lat="40.4758194980917" lon="9.588952922830883"><ele>219.0</ele><time>2026-05-01T08:29:46Z</time></trkpt><trkpt lat="40.47554699747798" lon="9.588708192719528"><ele>218.0</ele><time>2026-05-01T08:29:47Z</time></trkpt><trkpt lat="40.475278048635715" lon="9.588464860451442"><ele>217.0</ele><time>2026-05-01T08:29:48Z</time></trkpt><trkpt lat="40.47502592003794" lon="9.588232043845"><ele>217.0</ele><time>2026-05-01T08:29:49Z</time></trkpt><trkpt lat="40.47476315931398" lon="9.5879841183955"><ele>217.0</ele><time>2026-05-01T08:29:50Z</time></trkpt><trkpt lat="40.474491657617456" lon="9.587740982834822"><ele>219.0</ele><time>2026-05-01T08:29:51Z</time></trkpt><trkpt lat="40.47422005620247" lon="9.587495242742083"><ele>221.0</ele><time>2026-05-01T08:29:52Z</time></trkpt><trkpt lat="40.47394736303524" lon="9.587252624554608"><ele>224.0</ele><time>2026-05-01T08:29:53Z</time></trkpt><trkpt lat="40.473683764702066" lon="9.587019870692338"><ele>227.0</ele><time>2026-05-01T08:29:54Z</time></trkpt><trkpt lat="40.47343859977561" lon="9.586802254629232"><ele>227.0</ele><time>2026-05-01T08:29:55Z</time></trkpt><trkpt lat="40.47319158077303" lon="9.586586395571027"><ele>227.0</ele><time>2026-05-01T08:29:56Z</time></trkpt><trkpt lat="40.47294496657908" lon="9.586367886258673"><ele>228.5</ele><time>2026-05-01T08:29:57Z</time></trkpt><trkpt lat="40.472698796389594" lon="9.5861511251961"><ele>230.0</ele><time>2026-05-01T08:29:58Z</time></trkpt><trkpt lat="40.47244892417543" lon="9.585932818152665"><ele>230.0</ele><time>2026-05-01T08:29:59Z</time></trkpt><trkpt lat="40.472194167720694" lon="9.585708074199172"><ele>230.0</ele><time>2026-05-01T08:30:00Z</time></trkpt><trkpt lat="40.47194026749838" lon="9.585476256922368"><ele>231.5</ele><time>2026-05-01T08:30:01Z</time></trkpt><trkpt lat="40.471681727915964" lon="9.585236628312265"><ele>233.0</ele><time>2026-05-01T08:30:02Z</time></trkpt><trkpt lat="40.47142371358887" lon="9.584985917871997"><ele>234.5</ele><time>2026-05-01T08:30:03Z</time></trkpt><trkpt lat="40.47116116440585" lon="9.584740663021838"><ele>236.0</ele><time>2026-05-01T08:30:04Z</time></trkpt><trkpt lat="40.470893297638554" lon="9.584504739856591"><ele>236.0</ele><time>2026-05-01T08:30:05Z</time></trkpt><trkpt lat="40.470625635455704" lon="9.584270818597624"><ele>236.0</ele><time>2026-05-01T08:30:06Z</time></trkpt><trkpt lat="40.47035081363809" lon="9.584044716302271"><ele>234.0</ele><time>2026-05-01T08:30:07Z</time></trkpt><trkpt lat="40.47007872157305" lon="9.583817836720085"><ele>232.0</ele><time>2026-05-01T08:30:08Z</time></trkpt><trkpt lat="40.46980328782712" lon="9.583590670908508"><ele>234.0</ele><time>2026-05-01T08:30:09Z</time></trkpt><trkpt lat="40.469524924870036" lon="9.583358881998098"><ele>236.0</ele><time>2026-05-01T08:30:10Z</time></trkpt><trkpt lat="40.469243815070726" lon="9.58312242827188"><ele>236.0</ele><time>2026-05-01T08:30:11Z</time></trkpt><trkpt lat="40.4689665068682" lon="9.582889263347393"><ele>236.0</ele><time>2026-05-01T08:30:12Z</time></trkpt><trkpt lat="40.46868051069335" lon="9.582650154309464"><ele>232.5</ele><time>2026-05-01T08:30:13Z</time></trkpt><trkpt lat="40.46839223038529" lon="9.582412474592795"><ele>229.0</ele><time>2026-05-01T08:30:14Z</time></trkpt><trkpt lat="40.46811977271193" lon="9.582187816142868"><ele>227.5</ele><time>2026-05-01T08:30:15Z</time></trkpt><trkpt lat="40.46785588955137" lon="9.581970431965852"><ele>226.0</ele><time>2026-05-01T08:30:16Z</time></trkpt><trkpt lat="40.46758937206113" lon="9.581751202483478"><ele>226.0</ele><time>2026-05-01T08:30:17Z</time></trkpt><trkpt lat="40.467321061803446" lon="9.581527692486905"><ele>226.0</ele><time>2026-05-01T08:30:18Z</time></trkpt><trkpt lat="40.46705413277952" lon="9.581303320318552"><ele>225.0</ele><time>2026-05-01T08:30:19Z</time></trkpt><trkpt lat="40.46679712151468" lon="9.581093379163667"><ele>224.0</ele><time>2026-05-01T08:30:20Z</time></trkpt><trkpt lat="40.46653766921414" lon="9.580873463823462"><ele>224.0</ele><time>2026-05-01T08:30:21Z</time></trkpt><trkpt lat="40.466290577168124" lon="9.580651745596834"><ele>224.0</ele><time>2026-05-01T08:30:22Z</time></trkpt><trkpt lat="40.46604416814301" lon="9.580451180591044"><ele>221.0</ele><time>2026-05-01T08:30:23Z</time></trkpt><trkpt lat="40.46579333524392" lon="9.580233990725459"><ele>218.0</ele><time>2026-05-01T08:30:24Z</time></trkpt><trkpt lat="40.46556073090184" lon="9.57997695647753"><ele>219.0</ele><time>2026-05-01T08:30:25Z</time></trkpt><trkpt lat="40.46533667429991" lon="9.579712578302999"><ele>220.0</ele><time>2026-05-01T08:30:26Z</time></trkpt><trkpt lat="40.465133862287345" lon="9.579394510577378"><ele>220.0</ele><time>2026-05-01T08:30:27Z</time></trkpt><trkpt lat="40.464948606941185" lon="9.57906672673775"><ele>220.0</ele><time>2026-05-01T08:30:28Z</time></trkpt><trkpt lat="40.46475202044823" lon="9.5787349228464"><ele>219.5</ele><time>2026-05-01T08:30:29Z</time></trkpt><trkpt lat="40.4645881597151" lon="9.578388731413655"><ele>219.0</ele><time>2026-05-01T08:30:30Z</time></trkpt><trkpt lat="40.46443469535848" lon="9.578046186213728"><ele>213.5</ele><time>2026-05-01T08:30:31Z</time></trkpt><trkpt lat="40.46427872093638" lon="9.577687582316903"><ele>208.0</ele><time>2026-05-01T08:30:32Z</time></trkpt><trkpt lat="40.464116506268596" lon="9.577322565897052"><ele>209.0</ele><time>2026-05-01T08:30:33Z</time></trkpt><trkpt lat="40.46395237962012" lon="9.576960855150661"><ele>210.0</ele><time>2026-05-01T08:30:34Z</time></trkpt><trkpt lat="40.463785088143354" lon="9.576605937112534"><ele>209.0</ele><time>2026-05-01T08:30:35Z</time></trkpt><trkpt lat="40.46362036191509" lon="9.576244940609724"><ele>208.0</ele><time>2026-05-01T08:30:36Z</time></trkpt><trkpt lat="40.46345767984797" lon="9.575885107097852"><ele>204.0</ele><time>2026-05-01T08:30:37Z</time></trkpt><trkpt lat="40.463297121228536" lon="9.57552683094532"><ele>200.0</ele><time>2026-05-01T08:30:38Z</time></trkpt><trkpt lat="40.463134807668325" lon="9.57518028972087"><ele>199.0</ele><time>2026-05-01T08:30:39Z</time></trkpt><trkpt lat="40.462962101233124" lon="9.57484257700852"><ele>198.0</ele><time>2026-05-01T08:30:40Z</time></trkpt><trkpt lat="40.462767525098556" lon="9.57452425652954"><ele>195.5</ele><time>2026-05-01T08:30:41Z</time></trkpt><trkpt lat="40.46255144610736" lon="9.57422690301465"><ele>193.0</ele><time>2026-05-01T08:30:42Z</time></trkpt><trkpt lat="40.46232217779269" lon="9.573940098899254"><ele>194.0</ele><time>2026-05-01T08:30:43Z</time></trkpt><trkpt lat="40.462086304004124" lon="9.573650135021769"><ele>195.0</ele><time>2026-05-01T08:30:44Z</time></trkpt><trkpt lat="40.46184966464693" lon="9.573348671507263"><ele>195.0</ele><time>2026-05-01T08:30:45Z</time></trkpt><trkpt lat="40.4616116577752" lon="9.573037876058685"><ele>195.0</ele><time>2026-05-01T08:30:46Z</time></trkpt><trkpt lat="40.46137130066847" lon="9.572725277339634"><ele>191.0</ele><time>2026-05-01T08:30:47Z</time></trkpt><trkpt lat="40.46112630112257" lon="9.572413482574634"><ele>187.0</ele><time>2026-05-01T08:30:48Z</time></trkpt><trkpt lat="40.46087956284685" lon="9.572098311795148"><ele>183.0</ele><time>2026-05-01T08:30:49Z</time></trkpt><trkpt lat="40.46063312427607" lon="9.571778580184944"><ele>179.0</ele><time>2026-05-01T08:30:50Z</time></trkpt><trkpt lat="40.46038982942035" lon="9.571467407496824"><ele>181.0</ele><time>2026-05-01T08:30:51Z</time></trkpt><trkpt lat="40.460160807633656" lon="9.571170109502928"><ele>183.0</ele><time>2026-05-01T08:30:52Z</time></trkpt><trkpt lat="40.459940347543885" lon="9.57088243489383"><ele>183.0</ele><time>2026-05-01T08:30:53Z</time></trkpt><trkpt lat="40.459716273284755" lon="9.570593975955461"><ele>183.0</ele><time>2026-05-01T08:30:54Z</time></trkpt><trkpt lat="40.45949089388333" lon="9.570301344781033"><ele>179.5</ele><time>2026-05-01T08:30:55Z</time></trkpt><trkpt lat="40.45926388342219" lon="9.570009465811687"><ele>176.0</ele><time>2026-05-01T08:30:56Z</time></trkpt><trkpt lat="40.45903659764742" lon="9.569714703843786"><ele>177.0</ele><time>2026-05-01T08:30:57Z</time></trkpt><trkpt lat="40.458810528407795" lon="9.569421525049632"><ele>178.0</ele><time>2026-05-01T08:30:58Z</time></trkpt><trkpt lat="40.45858426741458" lon="9.569129584094854"><ele>176.0</ele><time>2026-05-01T08:30:59Z</time></trkpt><trkpt lat="40.45836124817022" lon="9.568842137680013"><ele>174.0</ele><time>2026-05-01T08:31:00Z</time></trkpt><trkpt lat="40.45813972634003" lon="9.568558785427511"><ele>171.5</ele><time>2026-05-01T08:31:01Z</time></trkpt><trkpt lat="40.45791980755398" lon="9.568277425878994"><ele>169.0</ele><time>2026-05-01T08:31:02Z</time></trkpt><trkpt lat="40.45770030381424" lon="9.567997824898383"><ele>170.5</ele><time>2026-05-01T08:31:03Z</time></trkpt><trkpt lat="40.457482860548716" lon="9.567719133789906"><ele>172.0</ele><time>2026-05-01T08:31:04Z</time></trkpt><trkpt lat="40.457267155317965" lon="9.5674360983175"><ele>170.5</ele><time>2026-05-01T08:31:05Z</time></trkpt><trkpt lat="40.45705234358645" lon="9.56715574752523"><ele>169.0</ele><time>2026-05-01T08:31:06Z</time></trkpt><trkpt lat="40.456836508884535" lon="9.566876088343328"><ele>169.0</ele><time>2026-05-01T08:31:07Z</time></trkpt><trkpt lat="40.456615955027715" lon="9.566593678016382"><ele>169.0</ele><time>2026-05-01T08:31:08Z</time></trkpt><trkpt lat="40.456390745768445" lon="9.566309526613177"><ele>169.0</ele><time>2026-05-01T08:31:09Z</time></trkpt><trkpt lat="40.45616606246737" lon="9.56602389011945"><ele>169.0</ele><time>2026-05-01T08:31:10Z</time></trkpt><trkpt lat="40.45594031012301" lon="9.565736062991665"><ele>169.0</ele><time>2026-05-01T08:31:11Z</time></trkpt><trkpt lat="40.45571606458549" lon="9.56544668066835"><ele>169.0</ele><time>2026-05-01T08:31:12Z</time></trkpt><trkpt lat="40.45548896425587" lon="9.565154121001639"><ele>167.5</ele><time>2026-05-01T08:31:13Z</time></trkpt><trkpt lat="40.45525862274077" lon="9.564862532901982"><ele>166.0</ele><time>2026-05-01T08:31:14Z</time></trkpt><trkpt lat="40.45502591184008" lon="9.564568718672172"><ele>165.5</ele><time>2026-05-01T08:31:15Z</time></trkpt><trkpt lat="40.45479320602738" lon="9.564274142805177"><ele>165.0</ele><time>2026-05-01T08:31:16Z</time></trkpt><trkpt lat="40.454562058427285" lon="9.563982139703423"><ele>164.0</ele><time>2026-05-01T08:31:17Z</time></trkpt><trkpt lat="40.4543362801433" lon="9.563701033653134"><ele>163.0</ele><time>2026-05-01T08:31:18Z</time></trkpt><trkpt lat="40.45410799687551" lon="9.56342084312638"><ele>163.0</ele><time>2026-05-01T08:31:19Z</time></trkpt><trkpt lat="40.45387310204092" lon="9.563160263671264"><ele>163.0</ele><time>2026-05-01T08:31:20Z</time></trkpt><trkpt lat="40.45363060618509" lon="9.562911871226921"><ele>161.5</ele><time>2026-05-01T08:31:21Z</time></trkpt><trkpt lat="40.453385017809815" lon="9.562669386885547"><ele>160.0</ele><time>2026-05-01T08:31:22Z</time></trkpt><trkpt lat="40.45313655803055" lon="9.562430604864366"><ele>158.5</ele><time>2026-05-01T08:31:23Z</time></trkpt><trkpt lat="40.45288233332538" lon="9.562194544290197"><ele>157.0</ele><time>2026-05-01T08:31:24Z</time></trkpt><trkpt lat="40.45262496428772" lon="9.561951757228519"><ele>157.0</ele><time>2026-05-01T08:31:25Z</time></trkpt><trkpt lat="40.45237280305865" lon="9.56170177349757"><ele>157.0</ele><time>2026-05-01T08:31:26Z</time></trkpt><trkpt lat="40.45212121342336" lon="9.56144598971277"><ele>155.5</ele><time>2026-05-01T08:31:27Z</time></trkpt><trkpt lat="40.451865742200795" lon="9.56119220135534"><ele>154.0</ele><time>2026-05-01T08:31:28Z</time></trkpt><trkpt lat="40.45160498868388" lon="9.560943115344015"><ele>154.0</ele><time>2026-05-01T08:31:29Z</time></trkpt><trkpt lat="40.451340112869275" lon="9.56069286784935"><ele>154.0</ele><time>2026-05-01T08:31:30Z</time></trkpt><trkpt lat="40.451075722445964" lon="9.560440380413734"><ele>154.0</ele><time>2026-05-01T08:31:31Z</time></trkpt><trkpt lat="40.45081244249235" lon="9.56018825963971"><ele>154.0</ele><time>2026-05-01T08:31:32Z</time></trkpt><trkpt lat="40.45055558286159" lon="9.559939073888371"><ele>153.0</ele><time>2026-05-01T08:31:33Z</time></trkpt><trkpt lat="40.450314020828344" lon="9.559703051075303"><ele>152.0</ele><time>2026-05-01T08:31:34Z</time></trkpt><trkpt lat="40.45007740529509" lon="9.559469127775486"><ele>152.0</ele><time>2026-05-01T08:31:35Z</time></trkpt><trkpt lat="40.44983133440279" lon="9.559221989866984"><ele>152.0</ele><time>2026-05-01T08:31:36Z</time></trkpt><trkpt lat="40.44958164574495" lon="9.558973221432405"><ele>152.5</ele><time>2026-05-01T08:31:37Z</time></trkpt><trkpt lat="40.44933510900145" lon="9.558730975795916"><ele>153.0</ele><time>2026-05-01T08:31:38Z</time></trkpt><trkpt lat="40.44909492974649" lon="9.558499285317888"><ele>153.0</ele><time>2026-05-01T08:31:39Z</time></trkpt><trkpt lat="40.44885739410319" lon="9.558272302061342"><ele>153.0</ele><time>2026-05-01T08:31:40Z</time></trkpt><trkpt lat="40.44861420476991" lon="9.558040992992787"><ele>152.0</ele><time>2026-05-01T08:31:41Z</time></trkpt><trkpt lat="40.44836859844644" lon="9.557806020482897"><ele>151.0</ele><time>2026-05-01T08:31:42Z</time></trkpt><trkpt lat="40.44812362607589" lon="9.557569940132751"><ele>151.5</ele><time>2026-05-01T08:31:43Z</time></trkpt><trkpt lat="40.44787934677886" lon="9.557334011232658"><ele>152.0</ele><time>2026-05-01T08:31:44Z</time></trkpt><trkpt lat="40.447637407096295" lon="9.557099122938347"><ele>153.5</ele><time>2026-05-01T08:31:45Z</time></trkpt><trkpt lat="40.447398618731576" lon="9.55686449578764"><ele>155.0</ele><time>2026-05-01T08:31:46Z</time></trkpt><trkpt lat="40.4471579625465" lon="9.556631535468282"><ele>155.0</ele><time>2026-05-01T08:31:47Z</time></trkpt><trkpt lat="40.44691399177093" lon="9.556401115175728"><ele>155.0</ele><time>2026-05-01T08:31:48Z</time></trkpt><trkpt lat="40.44667028322146" lon="9.556168436479515"><ele>155.0</ele><time>2026-05-01T08:31:49Z</time></trkpt><trkpt lat="40.44642438828898" lon="9.555931971820355"><ele>155.0</ele><time>2026-05-01T08:31:50Z</time></trkpt><trkpt lat="40.44618076315153" lon="9.555686869649943"><ele>153.0</ele><time>2026-05-01T08:31:51Z</time></trkpt><trkpt lat="40.445940338958636" lon="9.555434433966095"><ele>151.0</ele><time>2026-05-01T08:31:52Z</time></trkpt><trkpt lat="40.44571031790637" lon="9.55516863129326"><ele>151.0</ele><time>2026-05-01T08:31:53Z</time></trkpt><trkpt lat="40.44549008242917" lon="9.554901694138909"><ele>151.0</ele><time>2026-05-01T08:31:54Z</time></trkpt><trkpt lat="40.445282596441025" lon="9.55463491504218"><ele>149.5</ele><time>2026-05-01T08:31:55Z</time></trkpt><trkpt lat="40.44506171354696" lon="9.554358854664038"><ele>148.0</ele><time>2026-05-01T08:31:56Z</time></trkpt><trkpt lat="40.444836097452345" lon="9.554082134970043"><ele>146.0</ele><time>2026-05-01T08:31:57Z</time></trkpt><trkpt lat="40.4446088425233" lon="9.553799725392249"><ele>144.0</ele><time>2026-05-01T08:31:58Z</time></trkpt><trkpt lat="40.44437753911705" lon="9.553514607117897"><ele>144.0</ele><time>2026-05-01T08:31:59Z</time></trkpt><trkpt lat="40.44414563471507" lon="9.553226571420243"><ele>144.0</ele><time>2026-05-01T08:32:00Z</time></trkpt><trkpt lat="40.443911995853924" lon="9.552937191521723"><ele>144.5</ele><time>2026-05-01T08:32:01Z</time></trkpt><trkpt lat="40.44367781493122" lon="9.552643195243474"><ele>145.0</ele><time>2026-05-01T08:32:02Z</time></trkpt><trkpt lat="40.443441529243906" lon="9.55234963066389"><ele>145.0</ele><time>2026-05-01T08:32:03Z</time></trkpt><trkpt lat="40.443205376022725" lon="9.552052961154905"><ele>145.0</ele><time>2026-05-01T08:32:04Z</time></trkpt><trkpt lat="40.44296721013574" lon="9.551759564324481"><ele>145.0</ele><time>2026-05-01T08:32:05Z</time></trkpt><trkpt lat="40.44273170413194" lon="9.551464889630662"><ele>145.0</ele><time>2026-05-01T08:32:06Z</time></trkpt><trkpt lat="40.44249684002058" lon="9.55117166883796"><ele>146.5</ele><time>2026-05-01T08:32:07Z</time></trkpt><trkpt lat="40.44226223046541" lon="9.550880681343298"><ele>148.0</ele><time>2026-05-01T08:32:08Z</time></trkpt><trkpt lat="40.442027401409995" lon="9.55058782820872"><ele>146.0</ele><time>2026-05-01T08:32:09Z</time></trkpt><trkpt lat="40.441795484107914" lon="9.550295133914572"><ele>144.0</ele><time>2026-05-01T08:32:10Z</time></trkpt><trkpt lat="40.441561961220046" lon="9.550005599733147"><ele>144.0</ele><time>2026-05-01T08:32:11Z</time></trkpt><trkpt lat="40.44132632699957" lon="9.549716792792815"><ele>144.0</ele><time>2026-05-01T08:32:12Z</time></trkpt><trkpt lat="40.441095519128865" lon="9.54943459466751"><ele>143.0</ele><time>2026-05-01T08:32:13Z</time></trkpt><trkpt lat="40.44087056425991" lon="9.549156470404863"><ele>142.0</ele><time>2026-05-01T08:32:14Z</time></trkpt><trkpt lat="40.44064714298816" lon="9.548875771025212"><ele>142.0</ele><time>2026-05-01T08:32:15Z</time></trkpt><trkpt lat="40.440420453158566" lon="9.548593487940567"><ele>142.0</ele><time>2026-05-01T08:32:16Z</time></trkpt><trkpt lat="40.44018818406906" lon="9.548314167164133"><ele>142.0</ele><time>2026-05-01T08:32:17Z</time></trkpt><trkpt lat="40.43996741256864" lon="9.548025330285938"><ele>142.0</ele><time>2026-05-01T08:32:18Z</time></trkpt><trkpt lat="40.43973824834364" lon="9.547745144171387"><ele>142.0</ele><time>2026-05-01T08:32:19Z</time></trkpt><trkpt lat="40.43951027046355" lon="9.547465283823053"><ele>142.0</ele><time>2026-05-01T08:32:20Z</time></trkpt><trkpt lat="40.43928404169503" lon="9.547180344637512"><ele>144.0</ele><time>2026-05-01T08:32:21Z</time></trkpt><trkpt lat="40.439058475211134" lon="9.54689687783902"><ele>146.0</ele><time>2026-05-01T08:32:22Z</time></trkpt><trkpt lat="40.438834183070426" lon="9.546614886724768"><ele>145.0</ele><time>2026-05-01T08:32:23Z</time></trkpt><trkpt lat="40.438609550017084" lon="9.546329686048812"><ele>144.0</ele><time>2026-05-01T08:32:24Z</time></trkpt><trkpt lat="40.438383231302026" lon="9.546050940199269"><ele>145.0</ele><time>2026-05-01T08:32:25Z</time></trkpt><trkpt lat="40.43815548722413" lon="9.545768324264305"><ele>146.0</ele><time>2026-05-01T08:32:26Z</time></trkpt><trkpt lat="40.437928854289275" lon="9.5454868683777"><ele>147.5</ele><time>2026-05-01T08:32:27Z</time></trkpt><trkpt lat="40.43769953721487" lon="9.545204776668916"><ele>149.0</ele><time>2026-05-01T08:32:28Z</time></trkpt><trkpt lat="40.43747254129183" lon="9.544916793041985"><ele>149.0</ele><time>2026-05-01T08:32:29Z</time></trkpt><trkpt lat="40.43724453665425" lon="9.544633909457412"><ele>149.0</ele><time>2026-05-01T08:32:30Z</time></trkpt><trkpt lat="40.43701583376655" lon="9.544348033649849"><ele>151.0</ele><time>2026-05-01T08:32:31Z</time></trkpt><trkpt lat="40.43678873406529" lon="9.544059030048896"><ele>153.0</ele><time>2026-05-01T08:32:32Z</time></trkpt><trkpt lat="40.436559047579976" lon="9.543773063612774"><ele>153.5</ele><time>2026-05-01T08:32:33Z</time></trkpt><trkpt lat="40.4363290796426" lon="9.543492644138054"><ele>154.0</ele><time>2026-05-01T08:32:34Z</time></trkpt><trkpt lat="40.43609736576982" lon="9.543210705222032"><ele>155.0</ele><time>2026-05-01T08:32:35Z</time></trkpt><trkpt lat="40.43586526533035" lon="9.54292443290671"><ele>156.0</ele><time>2026-05-01T08:32:36Z</time></trkpt><trkpt lat="40.435633178894676" lon="9.54263504434906"><ele>155.0</ele><time>2026-05-01T08:32:37Z</time></trkpt><trkpt lat="40.43539804272351" lon="9.542344676067719"><ele>154.0</ele><time>2026-05-01T08:32:38Z</time></trkpt><trkpt lat="40.43516343150669" lon="9.542056350891896"><ele>155.5</ele><time>2026-05-01T08:32:39Z</time></trkpt><trkpt lat="40.434925966650425" lon="9.541770933516633"><ele>157.0</ele><time>2026-05-01T08:32:40Z</time></trkpt><trkpt lat="40.43468942030826" lon="9.541488677334426"><ele>157.0</ele><time>2026-05-01T08:32:41Z</time></trkpt><trkpt lat="40.43445449615405" lon="9.541209212590713"><ele>157.0</ele><time>2026-05-01T08:32:42Z</time></trkpt><trkpt lat="40.434207789878975" lon="9.540866467179475"><ele>157.0</ele><time>2026-05-01T08:32:43Z</time></trkpt><trkpt lat="40.43396995263891" lon="9.540567852972377"><ele>157.0</ele><time>2026-05-01T08:32:44Z</time></trkpt><trkpt lat="40.433730466118675" lon="9.540269017751282"><ele>156.5</ele><time>2026-05-01T08:32:45Z</time></trkpt><trkpt lat="40.43348927178194" lon="9.539974223134445"><ele>156.0</ele><time>2026-05-01T08:32:46Z</time></trkpt><trkpt lat="40.433248930097655" lon="9.539674794659815"><ele>156.0</ele><time>2026-05-01T08:32:47Z</time></trkpt><trkpt lat="40.43301391582424" lon="9.539383752912572"><ele>156.0</ele><time>2026-05-01T08:32:48Z</time></trkpt><trkpt lat="40.432781557892234" lon="9.539094964846104"><ele>156.0</ele><time>2026-05-01T08:32:49Z</time></trkpt><trkpt lat="40.432557963719276" lon="9.538815116372383"><ele>156.0</ele><time>2026-05-01T08:32:50Z</time></trkpt><trkpt lat="40.43233368198558" lon="9.53853254822847"><ele>157.0</ele><time>2026-05-01T08:32:51Z</time></trkpt><trkpt lat="40.4321076297038" lon="9.538253716520654"><ele>158.0</ele><time>2026-05-01T08:32:52Z</time></trkpt><trkpt lat="40.43188606419064" lon="9.537969401078975"><ele>160.5</ele><time>2026-05-01T08:32:53Z</time></trkpt><trkpt lat="40.431660710276745" lon="9.537689598878819"><ele>163.0</ele><time>2026-05-01T08:32:54Z</time></trkpt><trkpt lat="40.43143417922763" lon="9.537407083529525"><ele>162.5</ele><time>2026-05-01T08:32:55Z</time></trkpt><trkpt lat="40.43120836012558" lon="9.537130172186544"><ele>162.0</ele><time>2026-05-01T08:32:56Z</time></trkpt><trkpt lat="40.430987133308214" lon="9.5368462805795"><ele>164.5</ele><time>2026-05-01T08:32:57Z</time></trkpt><trkpt lat="40.430764175543125" lon="9.536564015714443"><ele>167.0</ele><time>2026-05-01T08:32:58Z</time></trkpt><trkpt lat="40.430539777111704" lon="9.536285777431809"><ele>169.0</ele><time>2026-05-01T08:32:59Z</time></trkpt><trkpt lat="40.430316061740996" lon="9.536006364940938"><ele>171.0</ele><time>2026-05-01T08:33:00Z</time></trkpt><trkpt lat="40.430096000450426" lon="9.535727502479816"><ele>171.0</ele><time>2026-05-01T08:33:01Z</time></trkpt><trkpt lat="40.429881519865894" lon="9.535457647022723"><ele>171.0</ele><time>2026-05-01T08:33:02Z</time></trkpt><trkpt lat="40.42969414061935" lon="9.535172167689469"><ele>174.5</ele><time>2026-05-01T08:33:03Z</time></trkpt><trkpt lat="40.42950987613838" lon="9.534898928263283"><ele>178.0</ele><time>2026-05-01T08:33:04Z</time></trkpt><trkpt lat="40.42933531682831" lon="9.53460122234145"><ele>178.5</ele><time>2026-05-01T08:33:05Z</time></trkpt><trkpt lat="40.429169454677435" lon="9.53428520435699"><ele>179.0</ele><time>2026-05-01T08:33:06Z</time></trkpt><trkpt lat="40.42901031370761" lon="9.533950671882922"><ele>180.5</ele><time>2026-05-01T08:33:07Z</time></trkpt><trkpt lat="40.42886144798529" lon="9.533606581069261"><ele>182.0</ele><time>2026-05-01T08:33:08Z</time></trkpt><trkpt lat="40.42872031933138" lon="9.533251368954218"><ele>186.0</ele><time>2026-05-01T08:33:09Z</time></trkpt><trkpt lat="40.42858505844184" lon="9.53288688687619"><ele>190.0</ele><time>2026-05-01T08:33:10Z</time></trkpt><trkpt lat="40.42844732671271" lon="9.532518686148364"><ele>190.0</ele><time>2026-05-01T08:33:11Z</time></trkpt><trkpt lat="40.42831287258045" lon="9.532171109977368"><ele>190.0</ele><time>2026-05-01T08:33:12Z</time></trkpt><trkpt lat="40.42817906491243" lon="9.531841481875125"><ele>193.0</ele><time>2026-05-01T08:33:13Z</time></trkpt><trkpt lat="40.42804452493624" lon="9.531508846437916"><ele>196.0</ele><time>2026-05-01T08:33:14Z</time></trkpt><trkpt lat="40.42790632442104" lon="9.531167621017513"><ele>196.0</ele><time>2026-05-01T08:33:15Z</time></trkpt><trkpt lat="40.427768280154254" lon="9.530819557371158"><ele>196.0</ele><time>2026-05-01T08:33:16Z</time></trkpt><trkpt lat="40.427628827613795" lon="9.530472398146566"><ele>202.5</ele><time>2026-05-01T08:33:17Z</time></trkpt><trkpt lat="40.42749347794599" lon="9.530127000865013"><ele>209.0</ele><time>2026-05-01T08:33:18Z</time></trkpt><trkpt lat="40.42736252266888" lon="9.529785823053237"><ele>210.5</ele><time>2026-05-01T08:33:19Z</time></trkpt><trkpt lat="40.42723008761362" lon="9.529449668322064"><ele>212.0</ele><time>2026-05-01T08:33:20Z</time></trkpt><trkpt lat="40.42709866120293" lon="9.529109401732082"><ele>212.0</ele><time>2026-05-01T08:33:21Z</time></trkpt><trkpt lat="40.42696685016829" lon="9.528762629087081"><ele>212.0</ele><time>2026-05-01T08:33:22Z</time></trkpt><trkpt lat="40.4268322055191" lon="9.528410949538047"><ele>214.0</ele><time>2026-05-01T08:33:23Z</time></trkpt><trkpt lat="40.42669674696341" lon="9.528055656148858"><ele>216.0</ele><time>2026-05-01T08:33:24Z</time></trkpt><trkpt lat="40.42656189957968" lon="9.527697397600843"><ele>216.5</ele><time>2026-05-01T08:33:25Z</time></trkpt><trkpt lat="40.42643050858435" lon="9.527333588375907"><ele>217.0</ele><time>2026-05-01T08:33:26Z</time></trkpt><trkpt lat="40.426296796261155" lon="9.526971426521394"><ele>217.0</ele><time>2026-05-01T08:33:27Z</time></trkpt><trkpt lat="40.42616010983362" lon="9.526605190595259"><ele>217.0</ele><time>2026-05-01T08:33:28Z</time></trkpt><trkpt lat="40.42602121123369" lon="9.526237311971252"><ele>215.5</ele><time>2026-05-01T08:33:29Z</time></trkpt><trkpt lat="40.42588080696709" lon="9.525868044215756"><ele>214.0</ele><time>2026-05-01T08:33:30Z</time></trkpt><trkpt lat="40.42573939603089" lon="9.525495885668118"><ele>212.5</ele><time>2026-05-01T08:33:31Z</time></trkpt><trkpt lat="40.42560030731057" lon="9.5251175337124"><ele>211.0</ele><time>2026-05-01T08:33:32Z</time></trkpt><trkpt lat="40.42546887436724" lon="9.524730803976556"><ele>207.5</ele><time>2026-05-01T08:33:33Z</time></trkpt><trkpt lat="40.4253544547654" lon="9.524329265027356"><ele>204.0</ele><time>2026-05-01T08:33:34Z</time></trkpt><trkpt lat="40.425258003266315" lon="9.523914602332816"><ele>203.5</ele><time>2026-05-01T08:33:35Z</time></trkpt><trkpt lat="40.42517593214037" lon="9.523490148087312"><ele>203.0</ele><time>2026-05-01T08:33:36Z</time></trkpt><trkpt lat="40.42510907864889" lon="9.523065511038721"><ele>204.5</ele><time>2026-05-01T08:33:37Z</time></trkpt><trkpt lat="40.42506088778669" lon="9.522655119121206"><ele>206.0</ele><time>2026-05-01T08:33:38Z</time></trkpt><trkpt lat="40.425022956353466" lon="9.522254316945022"><ele>205.0</ele><time>2026-05-01T08:33:39Z</time></trkpt><trkpt lat="40.42499846965019" lon="9.521865416401115"><ele>204.0</ele><time>2026-05-01T08:33:40Z</time></trkpt><trkpt lat="40.424967076146324" lon="9.52149401513476"><ele>203.5</ele><time>2026-05-01T08:33:41Z</time></trkpt><trkpt lat="40.424924264805064" lon="9.521121099054534"><ele>203.0</ele><time>2026-05-01T08:33:42Z</time></trkpt><trkpt lat="40.42488244145475" lon="9.52073161804589"><ele>204.0</ele><time>2026-05-01T08:33:43Z</time></trkpt><trkpt lat="40.424844183419374" lon="9.52032831665018"><ele>205.0</ele><time>2026-05-01T08:33:44Z</time></trkpt><trkpt lat="40.42480662156524" lon="9.519918510663404"><ele>203.5</ele><time>2026-05-01T08:33:45Z</time></trkpt><trkpt lat="40.42477300305883" lon="9.519504705961086"><ele>202.0</ele><time>2026-05-01T08:33:46Z</time></trkpt><trkpt lat="40.42473832682383" lon="9.519090552609097"><ele>201.0</ele><time>2026-05-01T08:33:47Z</time></trkpt><trkpt lat="40.42469982714675" lon="9.518686867131475"><ele>200.0</ele><time>2026-05-01T08:33:48Z</time></trkpt><trkpt lat="40.4246552071403" lon="9.518296367683043"><ele>191.5</ele><time>2026-05-01T08:33:49Z</time></trkpt><trkpt lat="40.424594777545714" lon="9.51790525138818"><ele>183.0</ele><time>2026-05-01T08:33:50Z</time></trkpt><trkpt lat="40.42451409536946" lon="9.517520624919086"><ele>183.0</ele><time>2026-05-01T08:33:51Z</time></trkpt><trkpt lat="40.424406792551" lon="9.517134562450563"><ele>183.0</ele><time>2026-05-01T08:33:52Z</time></trkpt><trkpt lat="40.424275390009996" lon="9.516752990807834"><ele>185.0</ele><time>2026-05-01T08:33:53Z</time></trkpt><trkpt lat="40.42412128347743" lon="9.516381230230506"><ele>187.0</ele><time>2026-05-01T08:33:54Z</time></trkpt><trkpt lat="40.423945758395945" lon="9.516023792916513"><ele>183.0</ele><time>2026-05-01T08:33:55Z</time></trkpt><trkpt lat="40.42375610412159" lon="9.515687312979487"><ele>179.0</ele><time>2026-05-01T08:33:56Z</time></trkpt><trkpt lat="40.42354777417377" lon="9.515376602027521"><ele>179.0</ele><time>2026-05-01T08:33:57Z</time></trkpt><trkpt lat="40.423315625081926" lon="9.515084532517346"><ele>179.0</ele><time>2026-05-01T08:33:58Z</time></trkpt><trkpt lat="40.42307558430468" lon="9.514802359401749"><ele>176.0</ele><time>2026-05-01T08:33:59Z</time></trkpt><trkpt lat="40.42281779031083" lon="9.5145462815621"><ele>173.0</ele><time>2026-05-01T08:34:00Z</time></trkpt><trkpt lat="40.42254534572741" lon="9.514318025805041"><ele>173.0</ele><time>2026-05-01T08:34:01Z</time></trkpt><trkpt lat="40.42226195300607" lon="9.51411334159658"><ele>173.0</ele><time>2026-05-01T08:34:02Z</time></trkpt><trkpt lat="40.42196962040293" lon="9.513934817470192"><ele>169.0</ele><time>2026-05-01T08:34:03Z</time></trkpt><trkpt lat="40.421672002640214" lon="9.513786924596177"><ele>165.0</ele><time>2026-05-01T08:34:04Z</time></trkpt><trkpt lat="40.42135844318433" lon="9.513667764546723"><ele>163.5</ele><time>2026-05-01T08:34:05Z</time></trkpt><trkpt lat="40.42103339747777" lon="9.513575791797763"><ele>162.0</ele><time>2026-05-01T08:34:06Z</time></trkpt><trkpt lat="40.42070170838131" lon="9.513510370185527"><ele>160.0</ele><time>2026-05-01T08:34:07Z</time></trkpt><trkpt lat="40.420363610573524" lon="9.513468981139786"><ele>158.0</ele><time>2026-05-01T08:34:08Z</time></trkpt><trkpt lat="40.420031304587525" lon="9.513438374384311"><ele>158.0</ele><time>2026-05-01T08:34:09Z</time></trkpt><trkpt lat="40.419720248082896" lon="9.51340899907872"><ele>158.0</ele><time>2026-05-01T08:34:10Z</time></trkpt><trkpt lat="40.41942293115128" lon="9.513373885887457"><ele>154.5</ele><time>2026-05-01T08:34:11Z</time></trkpt><trkpt lat="40.41912761376415" lon="9.513334230805139"><ele>151.0</ele><time>2026-05-01T08:34:12Z</time></trkpt><trkpt lat="40.418830710172145" lon="9.513290688422279"><ele>147.0</ele><time>2026-05-01T08:34:13Z</time></trkpt><trkpt lat="40.418540249906066" lon="9.513228618529356"><ele>143.0</ele><time>2026-05-01T08:34:14Z</time></trkpt><trkpt lat="40.41824255590129" lon="9.513139465394483"><ele>139.5</ele><time>2026-05-01T08:34:15Z</time></trkpt><trkpt lat="40.4179448016051" lon="9.513006131702367"><ele>136.0</ele><time>2026-05-01T08:34:16Z</time></trkpt><trkpt lat="40.41765692467177" lon="9.512843453430577"><ele>135.5</ele><time>2026-05-01T08:34:17Z</time></trkpt><trkpt lat="40.41737951808925" lon="9.512657728906499"><ele>135.0</ele><time>2026-05-01T08:34:18Z</time></trkpt><trkpt lat="40.41711477020727" lon="9.512442206601206"><ele>132.5</ele><time>2026-05-01T08:34:19Z</time></trkpt><trkpt lat="40.4168617761446" lon="9.51220838381976"><ele>130.0</ele><time>2026-05-01T08:34:20Z</time></trkpt><trkpt lat="40.41661964733895" lon="9.511955590203304"><ele>130.0</ele><time>2026-05-01T08:34:21Z</time></trkpt><trkpt lat="40.416386528579544" lon="9.511683295535653"><ele>130.0</ele><time>2026-05-01T08:34:22Z</time></trkpt><trkpt lat="40.41616797771383" lon="9.51138711163433"><ele>125.5</ele><time>2026-05-01T08:34:23Z</time></trkpt><trkpt lat="40.41596444692474" lon="9.511071712124657"><ele>121.0</ele><time>2026-05-01T08:34:24Z</time></trkpt><trkpt lat="40.41576661402761" lon="9.510747181795315"><ele>121.0</ele><time>2026-05-01T08:34:25Z</time></trkpt><trkpt lat="40.415566326649106" lon="9.510424831226866"><ele>121.0</ele><time>2026-05-01T08:34:26Z</time></trkpt><trkpt lat="40.41536220167573" lon="9.510105286340838"><ele>122.0</ele><time>2026-05-01T08:34:27Z</time></trkpt><trkpt lat="40.41515860912878" lon="9.509787329856234"><ele>123.0</ele><time>2026-05-01T08:34:28Z</time></trkpt><trkpt lat="40.414952858175944" lon="9.509469757452253"><ele>123.0</ele><time>2026-05-01T08:34:29Z</time></trkpt><trkpt lat="40.414745511715886" lon="9.509155865907585"><ele>123.0</ele><time>2026-05-01T08:34:30Z</time></trkpt><trkpt lat="40.41453789397019" lon="9.5088385230543"><ele>122.0</ele><time>2026-05-01T08:34:31Z</time></trkpt><trkpt lat="40.414339367940535" lon="9.50852855597869"><ele>121.0</ele><time>2026-05-01T08:34:32Z</time></trkpt><trkpt lat="40.41413390089239" lon="9.508215445248213"><ele>123.0</ele><time>2026-05-01T08:34:33Z</time></trkpt><trkpt lat="40.41392210672598" lon="9.507894184265375"><ele>125.0</ele><time>2026-05-01T08:34:34Z</time></trkpt><trkpt lat="40.41370507533952" lon="9.507568014226491"><ele>117.0</ele><time>2026-05-01T08:34:35Z</time></trkpt><trkpt lat="40.413485827403115" lon="9.507237029417505"><ele>109.0</ele><time>2026-05-01T08:34:36Z</time></trkpt><trkpt lat="40.4132726847084" lon="9.506905932387111"><ele>109.0</ele><time>2026-05-01T08:34:37Z</time></trkpt><trkpt lat="40.4130453786288" lon="9.506564939324917"><ele>109.0</ele><time>2026-05-01T08:34:38Z</time></trkpt><trkpt lat="40.41282372786915" lon="9.50622212449497"><ele>105.5</ele><time>2026-05-01T08:34:39Z</time></trkpt><trkpt lat="40.41261111642374" lon="9.5058919105154"><ele>102.0</ele><time>2026-05-01T08:34:40Z</time></trkpt><trkpt lat="40.412410606592296" lon="9.505584799405435"><ele>103.5</ele><time>2026-05-01T08:34:41Z</time></trkpt><trkpt lat="40.41221210785526" lon="9.50528846452882"><ele>105.0</ele><time>2026-05-01T08:34:42Z</time></trkpt><trkpt lat="40.41201132076188" lon="9.504994934397365"><ele>105.0</ele><time>2026-05-01T08:34:43Z</time></trkpt><trkpt lat="40.41181109818089" lon="9.504696853863816"><ele>105.0</ele><time>2026-05-01T08:34:44Z</time></trkpt><trkpt lat="40.411613823052356" lon="9.504394036816064"><ele>106.0</ele><time>2026-05-01T08:34:45Z</time></trkpt><trkpt lat="40.41141566222099" lon="9.50408688214767"><ele>107.0</ele><time>2026-05-01T08:34:46Z</time></trkpt><trkpt lat="40.411216520820155" lon="9.503774833372502"><ele>103.5</ele><time>2026-05-01T08:34:47Z</time></trkpt><trkpt lat="40.41101349165522" lon="9.503463772268375"><ele>100.0</ele><time>2026-05-01T08:34:48Z</time></trkpt><trkpt lat="40.410816751794584" lon="9.50315901748335"><ele>98.0</ele><time>2026-05-01T08:34:49Z</time></trkpt><trkpt lat="40.41062933811143" lon="9.502871090487943"><ele>96.0</ele><time>2026-05-01T08:34:50Z</time></trkpt><trkpt lat="40.41043699725462" lon="9.502581033873197"><ele>96.0</ele><time>2026-05-01T08:34:51Z</time></trkpt><trkpt lat="40.410237546466384" lon="9.50228620570402"><ele>96.0</ele><time>2026-05-01T08:34:52Z</time></trkpt><trkpt lat="40.410048296083474" lon="9.50200237389215"><ele>99.0</ele><time>2026-05-01T08:34:53Z</time></trkpt><trkpt lat="40.40986804328788" lon="9.501738964995539"><ele>102.0</ele><time>2026-05-01T08:34:54Z</time></trkpt><trkpt lat="40.40968542170013" lon="9.501479394986212"><ele>99.0</ele><time>2026-05-01T08:34:55Z</time></trkpt><trkpt lat="40.40948138402997" lon="9.50121621115961"><ele>96.0</ele><time>2026-05-01T08:34:56Z</time></trkpt><trkpt lat="40.4092766366929" lon="9.500957330603336"><ele>96.0</ele><time>2026-05-01T08:34:57Z</time></trkpt><trkpt lat="40.40906114924278" lon="9.500711606990063"><ele>96.0</ele><time>2026-05-01T08:34:58Z</time></trkpt><trkpt lat="40.40883709562627" lon="9.500474952959657"><ele>95.5</ele><time>2026-05-01T08:34:59Z</time></trkpt><trkpt lat="40.40860076444601" lon="9.500243739847296"><ele>95.0</ele><time>2026-05-01T08:35:00Z</time></trkpt><trkpt lat="40.40835990951985" lon="9.500020163274188"><ele>95.0</ele><time>2026-05-01T08:35:01Z</time></trkpt><trkpt lat="40.40811280784458" lon="9.499797747840356"><ele>95.0</ele><time>2026-05-01T08:35:02Z</time></trkpt><trkpt lat="40.407868191188776" lon="9.499568235686066"><ele>93.5</ele><time>2026-05-01T08:35:03Z</time></trkpt><trkpt lat="40.40762266570446" lon="9.499340211305284"><ele>92.0</ele><time>2026-05-01T08:35:04Z</time></trkpt><trkpt lat="40.40737797314522" lon="9.49910676533846"><ele>91.5</ele><time>2026-05-01T08:35:05Z</time></trkpt><trkpt lat="40.407130869302605" lon="9.498873020838394"><ele>91.0</ele><time>2026-05-01T08:35:06Z</time></trkpt><trkpt lat="40.40688195493851" lon="9.498629285935465"><ele>93.5</ele><time>2026-05-01T08:35:07Z</time></trkpt><trkpt lat="40.406640166434094" lon="9.498379345207024"><ele>96.0</ele><time>2026-05-01T08:35:08Z</time></trkpt><trkpt lat="40.4064076189771" lon="9.498117814864752"><ele>95.0</ele><time>2026-05-01T08:35:09Z</time></trkpt><trkpt lat="40.40618517921063" lon="9.497839745726314"><ele>94.0</ele><time>2026-05-01T08:35:10Z</time></trkpt><trkpt lat="40.40597840152374" lon="9.497547015208083"><ele>94.0</ele><time>2026-05-01T08:35:11Z</time></trkpt><trkpt lat="40.405778563009754" lon="9.49723379636817"><ele>94.0</ele><time>2026-05-01T08:35:12Z</time></trkpt><trkpt lat="40.40558382491471" lon="9.49690809329551"><ele>92.0</ele><time>2026-05-01T08:35:13Z</time></trkpt><trkpt lat="40.40539577455072" lon="9.49657077433845"><ele>90.0</ele><time>2026-05-01T08:35:14Z</time></trkpt><trkpt lat="40.405214116008985" lon="9.496233410869582"><ele>90.0</ele><time>2026-05-01T08:35:15Z</time></trkpt><trkpt lat="40.40503170409156" lon="9.495901347165939"><ele>90.0</ele><time>2026-05-01T08:35:16Z</time></trkpt><trkpt lat="40.40484310776949" lon="9.495574532789766"><ele>89.0</ele><time>2026-05-01T08:35:17Z</time></trkpt><trkpt lat="40.4046471043083" lon="9.49522998406706"><ele>88.0</ele><time>2026-05-01T08:35:18Z</time></trkpt><trkpt lat="40.40445094612454" lon="9.494876647051214"><ele>89.5</ele><time>2026-05-01T08:35:19Z</time></trkpt><trkpt lat="40.40426588762211" lon="9.494528681002627"><ele>91.0</ele><time>2026-05-01T08:35:20Z</time></trkpt><trkpt lat="40.40408974000406" lon="9.494200011254032"><ele>91.0</ele><time>2026-05-01T08:35:21Z</time></trkpt><trkpt lat="40.4039206333632" lon="9.493892299971588"><ele>91.0</ele><time>2026-05-01T08:35:22Z</time></trkpt><trkpt lat="40.40375241432275" lon="9.493593191516926"><ele>88.0</ele><time>2026-05-01T08:35:23Z</time></trkpt><trkpt lat="40.403581782216584" lon="9.493290397360996"><ele>85.0</ele><time>2026-05-01T08:35:24Z</time></trkpt><trkpt lat="40.4034111691126" lon="9.492986933009801"><ele>85.5</ele><time>2026-05-01T08:35:25Z</time></trkpt><trkpt lat="40.40324198185823" lon="9.492685874192173"><ele>86.0</ele><time>2026-05-01T08:35:26Z</time></trkpt><trkpt lat="40.40307195753716" lon="9.492385056450882"><ele>84.0</ele><time>2026-05-01T08:35:27Z</time></trkpt><trkpt lat="40.402901773348425" lon="9.49208136704542"><ele>82.0</ele><time>2026-05-01T08:35:28Z</time></trkpt><trkpt lat="40.40273057115497" lon="9.491776757083526"><ele>82.0</ele><time>2026-05-01T08:35:29Z</time></trkpt><trkpt lat="40.40255995260958" lon="9.491467341870694"><ele>82.0</ele><time>2026-05-01T08:35:30Z</time></trkpt><trkpt lat="40.402387681174226" lon="9.491160950329979"><ele>81.5</ele><time>2026-05-01T08:35:31Z</time></trkpt><trkpt lat="40.40221712909909" lon="9.49086121350662"><ele>81.0</ele><time>2026-05-01T08:35:32Z</time></trkpt><trkpt lat="40.402055330687276" lon="9.490567408659176"><ele>81.0</ele><time>2026-05-01T08:35:33Z</time></trkpt><trkpt lat="40.401908245645494" lon="9.490306382643078"><ele>81.0</ele><time>2026-05-01T08:35:34Z</time></trkpt><trkpt lat="40.40176518814422" lon="9.490044452964431"><ele>81.0</ele><time>2026-05-01T08:35:35Z</time></trkpt><trkpt lat="40.401638199371384" lon="9.489827357962026"><ele>81.0</ele><time>2026-05-01T08:35:36Z</time></trkpt><trkpt lat="40.40153121236954" lon="9.489625806451956"><ele>81.0</ele><time>2026-05-01T08:35:37Z</time></trkpt><trkpt lat="40.40142964184966" lon="9.489439710604469"><ele>81.0</ele><time>2026-05-01T08:35:38Z</time></trkpt><trkpt lat="40.401334326443774" lon="9.489263578664294"><ele>81.0</ele><time>2026-05-01T08:35:39Z</time></trkpt><trkpt lat="40.401256073783195" lon="9.489116409845348"><ele>81.0</ele><time>2026-05-01T08:35:40Z</time></trkpt><trkpt lat="40.401199388599466" lon="9.488973208004978"><ele>81.0</ele><time>2026-05-01T08:35:41Z</time></trkpt><trkpt lat="40.401152186989464" lon="9.48884413579453"><ele>81.25</ele><time>2026-05-01T08:35:42Z</time></trkpt><trkpt lat="40.401232012414546" lon="9.488645766824114"><ele>81.5</ele><time>2026-05-01T08:35:43Z</time></trkpt><trkpt lat="40.40128568144304" lon="9.48848722148695"><ele>81.75</ele><time>2026-05-01T08:35:44Z</time></trkpt><trkpt lat="40.40136803379899" lon="9.488346401368814"><ele>82.0</ele><time>2026-05-01T08:35:45Z</time></trkpt><trkpt lat="40.40149325940554" lon="9.488260656282687"><ele>83.0</ele><time>2026-05-01T08:35:46Z</time></trkpt><trkpt lat="40.401564102156456" lon="9.48811347343154"><ele>84.0</ele><time>2026-05-01T08:35:47Z</time></trkpt><trkpt lat="40.401627394282535" lon="9.487957814315987"><ele>85.0</ele><time>2026-05-01T08:35:48Z</time></trkpt><trkpt lat="40.40164399001886" lon="9.487789071859519"><ele>86.0</ele><time>2026-05-01T08:35:49Z</time></trkpt><trkpt lat="40.401592170135366" lon="9.487609300301507"><ele>86.4</ele><time>2026-05-01T08:35:50Z</time></trkpt><trkpt lat="40.4015193575995" lon="9.487460310516887"><ele>86.8</ele><time>2026-05-01T08:35:51Z</time></trkpt><trkpt lat="40.4014250382908" lon="9.487356519491602"><ele>87.2</ele><time>2026-05-01T08:35:52Z</time></trkpt><trkpt lat="40.40139716938708" lon="9.487257707600394"><ele>87.60000000000001</ele><time>2026-05-01T08:35:53Z</time></trkpt><trkpt lat="40.40132703847851" lon="9.487209204432872"><ele>88.0</ele><time>2026-05-01T08:35:55Z</time></trkpt><trkpt lat="40.40125246111499" lon="9.487170319075716"><ele>87.0</ele><time>2026-05-01T08:35:58Z</time></trkpt><trkpt lat="40.401177479389546" lon="9.487140936928858"><ele>86.0</ele><time>2026-05-01T08:36:01Z</time></trkpt><trkpt lat="40.40106791020767" lon="9.48718318923109"><ele>85.0</ele><time>2026-05-01T08:36:03Z</time></trkpt><trkpt lat="40.40097742700714" lon="9.487236557037722"><ele>84.0</ele><time>2026-05-01T08:36:04Z</time></trkpt><trkpt lat="40.40088243500253" lon="9.487325137175693"><ele>83.0</ele><time>2026-05-01T08:36:05Z</time></trkpt><trkpt lat="40.400795122600144" lon="9.487423301951926"><ele>83.0</ele><time>2026-05-01T08:36:06Z</time></trkpt><trkpt lat="40.400695760215484" lon="9.487524151470208"><ele>83.0</ele><time>2026-05-01T08:36:07Z</time></trkpt><trkpt lat="40.40059282966368" lon="9.487620306640094"><ele>83.0</ele><time>2026-05-01T08:36:08Z</time></trkpt><trkpt lat="40.40048411908024" lon="9.487726316781997"><ele>83.0</ele><time>2026-05-01T08:36:09Z</time></trkpt><trkpt lat="40.40037621304591" lon="9.487828674812638"><ele>82.5</ele><time>2026-05-01T08:36:10Z</time></trkpt><trkpt lat="40.400263177244426" lon="9.487930016290884"><ele>82.0</ele><time>2026-05-01T08:36:11Z</time></trkpt><trkpt lat="40.40014757144962" lon="9.48803731606115"><ele>81.5</ele><time>2026-05-01T08:36:12Z</time></trkpt><trkpt lat="40.40002918260334" lon="9.488156958327776"><ele>81.0</ele><time>2026-05-01T08:36:13Z</time></trkpt><trkpt lat="40.399905877266164" lon="9.488285901242056"><ele>81.0</ele><time>2026-05-01T08:36:14Z</time></trkpt><trkpt lat="40.399774755435004" lon="9.488412675953402"><ele>81.0</ele><time>2026-05-01T08:36:15Z</time></trkpt><trkpt lat="40.399637775492785" lon="9.488538361451516"><ele>81.0</ele><time>2026-05-01T08:36:16Z</time></trkpt><trkpt lat="40.399501740508185" lon="9.48866984116109"><ele>80.0</ele><time>2026-05-01T08:36:17Z</time></trkpt><trkpt lat="40.39935453523017" lon="9.488801121974342"><ele>79.0</ele><time>2026-05-01T08:36:18Z</time></trkpt><trkpt lat="40.399248846538974" lon="9.488979827634651"><ele>78.0</ele><time>2026-05-01T08:36:19Z</time></trkpt><trkpt lat="40.399137301241275" lon="9.489162259632803"><ele>78.0</ele><time>2026-05-01T08:36:20Z</time></trkpt><trkpt lat="40.39904602995524" lon="9.489367650137742"><ele>78.0</ele><time>2026-05-01T08:36:21Z</time></trkpt><trkpt lat="40.39894956288149" lon="9.48955084096822"><ele>78.0</ele><time>2026-05-01T08:36:22Z</time></trkpt><trkpt lat="40.398871012969344" lon="9.489733008035973"><ele>77.0</ele><time>2026-05-01T08:36:23Z</time></trkpt><trkpt lat="40.39880977046853" lon="9.489917116281442"><ele>76.0</ele><time>2026-05-01T08:36:24Z</time></trkpt><trkpt lat="40.39873293627171" lon="9.490084966581612"><ele>75.0</ele><time>2026-05-01T08:36:25Z</time></trkpt><trkpt lat="40.39866002449242" lon="9.49024622185839"><ele>74.0</ele><time>2026-05-01T08:36:26Z</time></trkpt><trkpt lat="40.39859590656145" lon="9.490393139377506"><ele>74.0</ele><time>2026-05-01T08:36:27Z</time></trkpt><trkpt lat="40.398544734759604" lon="9.490516514078436"><ele>74.0</ele><time>2026-05-01T08:36:28Z</time></trkpt><trkpt lat="40.39849205917229" lon="9.490614130766986"><ele>74.0</ele><time>2026-05-01T08:36:29Z</time></trkpt><trkpt lat="40.398422382944275" lon="9.490691719152275"><ele>74.0</ele><time>2026-05-01T08:36:30Z</time></trkpt><trkpt lat="40.398316878747856" lon="9.490747091436024"><ele>74.0</ele><time>2026-05-01T08:36:31Z</time></trkpt><trkpt lat="40.398180490401934" lon="9.49074889539442"><ele>74.0</ele><time>2026-05-01T08:36:32Z</time></trkpt><trkpt lat="40.3980286730368" lon="9.490785479867501"><ele>74.0</ele><time>2026-05-01T08:36:33Z</time></trkpt><trkpt lat="40.3978779315462" lon="9.490822227874123"><ele>74.0</ele><time>2026-05-01T08:36:34Z</time></trkpt><trkpt lat="40.397711504290235" lon="9.490856344352654"><ele>73.0</ele><time>2026-05-01T08:36:35Z</time></trkpt><trkpt lat="40.39753703241797" lon="9.490899072583188"><ele>72.0</ele><time>2026-05-01T08:36:36Z</time></trkpt><trkpt lat="40.39735532787174" lon="9.490945321379611"><ele>71.0</ele><time>2026-05-01T08:36:37Z</time></trkpt><trkpt lat="40.39717216894813" lon="9.490986837238392"><ele>70.33333333333334</ele><time>2026-05-01T08:36:38Z</time></trkpt><trkpt lat="40.39698746384056" lon="9.491027595650905"><ele>69.66666666666667</ele><time>2026-05-01T08:36:39Z</time></trkpt><trkpt lat="40.396800702021444" lon="9.491068472705658"><ele>69.0</ele><time>2026-05-01T08:36:40Z</time></trkpt><trkpt lat="40.39661312256324" lon="9.491109673823392"><ele>69.0</ele><time>2026-05-01T08:36:41Z</time></trkpt><trkpt lat="40.396427697039194" lon="9.491151718716754"><ele>69.0</ele><time>2026-05-01T08:36:42Z</time></trkpt><trkpt lat="40.396242674743505" lon="9.491207846227574"><ele>69.0</ele><time>2026-05-01T08:36:43Z</time></trkpt><trkpt lat="40.39605921335936" lon="9.491277370522802"><ele>67.33333333333333</ele><time>2026-05-01T08:36:44Z</time></trkpt><trkpt lat="40.39588044885646" lon="9.491363196258819"><ele>65.66666666666666</ele><time>2026-05-01T08:36:45Z</time></trkpt><trkpt lat="40.39570516170654" lon="9.491462112613707"><ele>64.0</ele><time>2026-05-01T08:36:46Z</time></trkpt><trkpt lat="40.39553401684059" lon="9.491564117544959"><ele>64.33333333333333</ele><time>2026-05-01T08:36:47Z</time></trkpt><trkpt lat="40.395361858361426" lon="9.491664298674323"><ele>64.66666666666667</ele><time>2026-05-01T08:36:48Z</time></trkpt><trkpt lat="40.395187601690054" lon="9.4917633618106"><ele>65.0</ele><time>2026-05-01T08:36:49Z</time></trkpt><trkpt lat="40.395014469628634" lon="9.49186262408967"><ele>65.0</ele><time>2026-05-01T08:36:50Z</time></trkpt><trkpt lat="40.39484115737941" lon="9.491964666492205"><ele>65.0</ele><time>2026-05-01T08:36:51Z</time></trkpt><trkpt lat="40.39466203489339" lon="9.492045078045182"><ele>65.0</ele><time>2026-05-01T08:36:52Z</time></trkpt><trkpt lat="40.39449019238322" lon="9.49214386811585"><ele>64.66666666666667</ele><time>2026-05-01T08:36:53Z</time></trkpt><trkpt lat="40.39431989765505" lon="9.492245659285373"><ele>64.33333333333333</ele><time>2026-05-01T08:36:54Z</time></trkpt><trkpt lat="40.3941471030985" lon="9.492350210445155"><ele>64.0</ele><time>2026-05-01T08:36:55Z</time></trkpt><trkpt lat="40.39397033790523" lon="9.492456097967086"><ele>63.33333333333333</ele><time>2026-05-01T08:36:56Z</time></trkpt><trkpt lat="40.39378547687981" lon="9.492563673724055"><ele>62.66666666666667</ele><time>2026-05-01T08:36:57Z</time></trkpt><trkpt lat="40.39359710070149" lon="9.492673294595658"><ele>62.0</ele><time>2026-05-01T08:36:58Z</time></trkpt><trkpt lat="40.39340698478435" lon="9.492786529553353"><ele>62.0</ele><time>2026-05-01T08:36:59Z</time></trkpt><trkpt lat="40.39321642767378" lon="9.492899538968825"><ele>62.0</ele><time>2026-05-01T08:37:00Z</time></trkpt><trkpt lat="40.393024234366166" lon="9.49301351873316"><ele>62.0</ele><time>2026-05-01T08:37:01Z</time></trkpt><trkpt lat="40.39282924572755" lon="9.493129156323178"><ele>61.333333333333336</ele><time>2026-05-01T08:37:02Z</time></trkpt><trkpt lat="40.392631045667684" lon="9.493245772656772"><ele>60.66666666666667</ele><time>2026-05-01T08:37:03Z</time></trkpt><trkpt lat="40.39243110077587" lon="9.493363403738483"><ele>60.0</ele><time>2026-05-01T08:37:04Z</time></trkpt><trkpt lat="40.39223089781123" lon="9.493481186606056"><ele>59.33333333333333</ele><time>2026-05-01T08:37:05Z</time></trkpt><trkpt lat="40.392030329460034" lon="9.493599184444768"><ele>58.666666666666664</ele><time>2026-05-01T08:37:06Z</time></trkpt><trkpt lat="40.391828684539036" lon="9.493717817099679"><ele>58.0</ele><time>2026-05-01T08:37:07Z</time></trkpt><trkpt lat="40.391625764396814" lon="9.493836308847843"><ele>57.0</ele><time>2026-05-01T08:37:08Z</time></trkpt><trkpt lat="40.391418706718966" lon="9.493957193248788"><ele>56.0</ele><time>2026-05-01T08:37:09Z</time></trkpt><trkpt lat="40.39120421600066" lon="9.494082417202073"><ele>55.5</ele><time>2026-05-01T08:37:10Z</time></trkpt><trkpt lat="40.39098469695447" lon="9.494210576793536"><ele>55.0</ele><time>2026-05-01T08:37:11Z</time></trkpt><trkpt lat="40.39076963061973" lon="9.494338387097729"><ele>55.0</ele><time>2026-05-01T08:37:12Z</time></trkpt><trkpt lat="40.3905741240001" lon="9.49447768087705"><ele>55.0</ele><time>2026-05-01T08:37:13Z</time></trkpt><trkpt lat="40.39037389724782" lon="9.494613813610508"><ele>55.0</ele><time>2026-05-01T08:37:14Z</time></trkpt><trkpt lat="40.39018895475053" lon="9.494784145615553"><ele>53.0</ele><time>2026-05-01T08:37:15Z</time></trkpt><trkpt lat="40.39002297034109" lon="9.49499061173624"><ele>51.0</ele><time>2026-05-01T08:37:16Z</time></trkpt><trkpt lat="40.38986861520093" lon="9.495216351565245"><ele>51.5</ele><time>2026-05-01T08:37:17Z</time></trkpt><trkpt lat="40.38971820422904" lon="9.49545130392861"><ele>52.0</ele><time>2026-05-01T08:37:18Z</time></trkpt><trkpt lat="40.38955354769718" lon="9.495666750075367"><ele>52.0</ele><time>2026-05-01T08:37:19Z</time></trkpt><trkpt lat="40.389410112973714" lon="9.495874473124179"><ele>52.0</ele><time>2026-05-01T08:37:20Z</time></trkpt><trkpt lat="40.3892792570173" lon="9.496070398625696"><ele>52.0</ele><time>2026-05-01T08:37:21Z</time></trkpt><trkpt lat="40.38915699084488" lon="9.496255404703348"><ele>52.666666666666664</ele><time>2026-05-01T08:37:22Z</time></trkpt><trkpt lat="40.38903250975748" lon="9.49644376226494"><ele>53.33333333333333</ele><time>2026-05-01T08:37:23Z</time></trkpt><trkpt lat="40.3889211827654" lon="9.496634026378445"><ele>54.0</ele><time>2026-05-01T08:37:24Z</time></trkpt><trkpt lat="40.38907397023703" lon="9.497090050166907"><ele>54.33333333333333</ele><time>2026-05-01T08:37:25Z</time></trkpt><trkpt lat="40.3891116948691" lon="9.497364998555991"><ele>54.666666666666664</ele><time>2026-05-01T08:37:26Z</time></trkpt><trkpt lat="40.38918753697807" lon="9.4976298957039"><ele>55.0</ele><time>2026-05-01T08:37:27Z</time></trkpt><trkpt lat="40.38928453157991" lon="9.497907992281121"><ele>53.5</ele><time>2026-05-01T08:37:28Z</time></trkpt><trkpt lat="40.389345197372116" lon="9.498203674924705"><ele>52.0</ele><time>2026-05-01T08:37:29Z</time></trkpt><trkpt lat="40.38936948658629" lon="9.498516631308831"><ele>51.5</ele><time>2026-05-01T08:37:30Z</time></trkpt><trkpt lat="40.389369101105686" lon="9.498824986096324"><ele>51.0</ele><time>2026-05-01T08:37:31Z</time></trkpt><trkpt lat="40.38934586395486" lon="9.499137526600997"><ele>51.0</ele><time>2026-05-01T08:37:32Z</time></trkpt><trkpt lat="40.38929457683917" lon="9.499457770621293"><ele>51.0</ele><time>2026-05-01T08:37:33Z</time></trkpt><trkpt lat="40.389213015407215" lon="9.499773023103968"><ele>52.5</ele><time>2026-05-01T08:37:34Z</time></trkpt><trkpt lat="40.38911386509294" lon="9.500075051613152"><ele>54.0</ele><time>2026-05-01T08:37:35Z</time></trkpt><trkpt lat="40.38901061664562" lon="9.500367392241994"><ele>57.0</ele><time>2026-05-01T08:37:36Z</time></trkpt><trkpt lat="40.388912396326475" lon="9.50065635561707"><ele>60.0</ele><time>2026-05-01T08:37:37Z</time></trkpt><trkpt lat="40.38881738032648" lon="9.500936055643555"><ele>60.0</ele><time>2026-05-01T08:37:38Z</time></trkpt><trkpt lat="40.38872530624779" lon="9.501212784877405"><ele>60.0</ele><time>2026-05-01T08:37:39Z</time></trkpt><trkpt lat="40.38863263958908" lon="9.501487184265155"><ele>61.0</ele><time>2026-05-01T08:37:40Z</time></trkpt><trkpt lat="40.388539196234134" lon="9.501759521917156"><ele>62.0</ele><time>2026-05-01T08:37:41Z</time></trkpt><trkpt lat="40.38844496189397" lon="9.502033295202747"><ele>67.5</ele><time>2026-05-01T08:37:42Z</time></trkpt><trkpt lat="40.38835460258696" lon="9.502312073385482"><ele>73.0</ele><time>2026-05-01T08:37:43Z</time></trkpt><trkpt lat="40.38828350569727" lon="9.50260077621489"><ele>73.0</ele><time>2026-05-01T08:37:44Z</time></trkpt><trkpt lat="40.38824324728468" lon="9.502899371437735"><ele>73.0</ele><time>2026-05-01T08:37:45Z</time></trkpt><trkpt lat="40.3882412196272" lon="9.503205744089794"><ele>76.5</ele><time>2026-05-01T08:37:46Z</time></trkpt><trkpt lat="40.388261775191054" lon="9.50351860752057"><ele>80.0</ele><time>2026-05-01T08:37:47Z</time></trkpt><trkpt lat="40.38828446165164" lon="9.50383704305042"><ele>81.5</ele><time>2026-05-01T08:37:48Z</time></trkpt><trkpt lat="40.388295628814525" lon="9.504141729275572"><ele>83.0</ele><time>2026-05-01T08:37:49Z</time></trkpt><trkpt lat="40.38828517633482" lon="9.50445759395951"><ele>88.0</ele><time>2026-05-01T08:37:50Z</time></trkpt><trkpt lat="40.38821977341061" lon="9.504756688366918"><ele>93.0</ele><time>2026-05-01T08:37:51Z</time></trkpt><trkpt lat="40.38812632836885" lon="9.505043493573673"><ele>93.0</ele><time>2026-05-01T08:37:52Z</time></trkpt><trkpt lat="40.38801964146768" lon="9.505319028023857"><ele>93.0</ele><time>2026-05-01T08:37:53Z</time></trkpt><trkpt lat="40.387890414896766" lon="9.505583827278834"><ele>92.5</ele><time>2026-05-01T08:37:54Z</time></trkpt><trkpt lat="40.38773395254862" lon="9.505832526168142"><ele>92.0</ele><time>2026-05-01T08:37:55Z</time></trkpt><trkpt lat="40.387568208411174" lon="9.506075911798659"><ele>97.0</ele><time>2026-05-01T08:37:56Z</time></trkpt><trkpt lat="40.387406892937605" lon="9.506323787838955"><ele>102.0</ele><time>2026-05-01T08:37:57Z</time></trkpt><trkpt lat="40.38725438809603" lon="9.506569752415569"><ele>107.5</ele><time>2026-05-01T08:37:58Z</time></trkpt><trkpt lat="40.38709806385351" lon="9.506817990166644"><ele>113.0</ele><time>2026-05-01T08:37:59Z</time></trkpt><trkpt lat="40.38694201475125" lon="9.507065178512521"><ele>113.5</ele><time>2026-05-01T08:38:00Z</time></trkpt><trkpt lat="40.386787832110336" lon="9.507318713038265"><ele>114.0</ele><time>2026-05-01T08:38:01Z</time></trkpt><trkpt lat="40.38662769382413" lon="9.507568294791442"><ele>114.0</ele><time>2026-05-01T08:38:02Z</time></trkpt><trkpt lat="40.38646360724374" lon="9.507820735755148"><ele>114.0</ele><time>2026-05-01T08:38:03Z</time></trkpt><trkpt lat="40.38629391757989" lon="9.50806559268638"><ele>118.0</ele><time>2026-05-01T08:38:04Z</time></trkpt><trkpt lat="40.38610799360786" lon="9.508305268489156"><ele>122.0</ele><time>2026-05-01T08:38:05Z</time></trkpt><trkpt lat="40.385892546712654" lon="9.508507217089178"><ele>122.0</ele><time>2026-05-01T08:38:06Z</time></trkpt><trkpt lat="40.38566672739054" lon="9.508689280302304"><ele>122.0</ele><time>2026-05-01T08:38:07Z</time></trkpt><trkpt lat="40.38543323230955" lon="9.508863307259507"><ele>122.0</ele><time>2026-05-01T08:38:08Z</time></trkpt><trkpt lat="40.38519487916928" lon="9.50901119031438"><ele>122.0</ele><time>2026-05-01T08:38:09Z</time></trkpt><trkpt lat="40.384953145352725" lon="9.509156009471926"><ele>122.0</ele><time>2026-05-01T08:38:10Z</time></trkpt><trkpt lat="40.384709001927234" lon="9.509280006526266"><ele>122.0</ele><time>2026-05-01T08:38:11Z</time></trkpt><trkpt lat="40.38446105922727" lon="9.509377771374856"><ele>124.0</ele><time>2026-05-01T08:38:12Z</time></trkpt><trkpt lat="40.38420876336219" lon="9.50945307422714"><ele>126.0</ele><time>2026-05-01T08:38:13Z</time></trkpt><trkpt lat="40.38395223156173" lon="9.509509609546853"><ele>128.0</ele><time>2026-05-01T08:38:14Z</time></trkpt><trkpt lat="40.3836964801713" lon="9.509548322164038"><ele>130.0</ele><time>2026-05-01T08:38:15Z</time></trkpt><trkpt lat="40.38345377698114" lon="9.50957350968545"><ele>127.0</ele><time>2026-05-01T08:38:16Z</time></trkpt><trkpt lat="40.383215258551324" lon="9.509598582355586"><ele>124.0</ele><time>2026-05-01T08:38:17Z</time></trkpt><trkpt lat="40.38297546719809" lon="9.50962722791476"><ele>124.0</ele><time>2026-05-01T08:38:18Z</time></trkpt><trkpt lat="40.382713987243" lon="9.509652874393806"><ele>124.0</ele><time>2026-05-01T08:38:19Z</time></trkpt><trkpt lat="40.382441601482896" lon="9.509682440661857"><ele>122.5</ele><time>2026-05-01T08:38:20Z</time></trkpt><trkpt lat="40.38214819066226" lon="9.509713350472062"><ele>121.0</ele><time>2026-05-01T08:38:21Z</time></trkpt><trkpt lat="40.381828851359934" lon="9.509748778546493"><ele>121.0</ele><time>2026-05-01T08:38:22Z</time></trkpt><trkpt lat="40.3815003227928" lon="9.50978237658061"><ele>121.0</ele><time>2026-05-01T08:38:23Z</time></trkpt><trkpt lat="40.381182106882896" lon="9.509813463815119"><ele>120.5</ele><time>2026-05-01T08:38:24Z</time></trkpt><trkpt lat="40.38087370270158" lon="9.509852451309895"><ele>120.0</ele><time>2026-05-01T08:38:25Z</time></trkpt><trkpt lat="40.3805546565425" lon="9.509889176224338"><ele>121.0</ele><time>2026-05-01T08:38:26Z</time></trkpt><trkpt lat="40.38026839608881" lon="9.50990588666651"><ele>122.0</ele><time>2026-05-01T08:38:27Z</time></trkpt><trkpt lat="40.37999531375765" lon="9.509918745352243"><ele>122.0</ele><time>2026-05-01T08:38:28Z</time></trkpt><trkpt lat="40.379741883408755" lon="9.50994278517397"><ele>122.0</ele><time>2026-05-01T08:38:29Z</time></trkpt><trkpt lat="40.37950434006867" lon="9.509981546505019"><ele>122.5</ele><time>2026-05-01T08:38:30Z</time></trkpt><trkpt lat="40.3792789987269" lon="9.510038201446825"><ele>123.0</ele><time>2026-05-01T08:38:31Z</time></trkpt><trkpt lat="40.37904793188258" lon="9.510118565821594"><ele>123.5</ele><time>2026-05-01T08:38:32Z</time></trkpt><trkpt lat="40.3788152980305" lon="9.510218177703168"><ele>124.0</ele><time>2026-05-01T08:38:33Z</time></trkpt><trkpt lat="40.378582040677315" lon="9.510334153594043"><ele>122.5</ele><time>2026-05-01T08:38:34Z</time></trkpt><trkpt lat="40.378349932662005" lon="9.510472704389759"><ele>121.0</ele><time>2026-05-01T08:38:35Z</time></trkpt><trkpt lat="40.378121600984564" lon="9.510629814402911"><ele>119.5</ele><time>2026-05-01T08:38:36Z</time></trkpt><trkpt lat="40.37790132483515" lon="9.51081135887848"><ele>118.0</ele><time>2026-05-01T08:38:37Z</time></trkpt><trkpt lat="40.377689705867844" lon="9.511014432794623"><ele>118.0</ele><time>2026-05-01T08:38:38Z</time></trkpt><trkpt lat="40.377486853232675" lon="9.511234991177268"><ele>118.0</ele><time>2026-05-01T08:38:39Z</time></trkpt><trkpt lat="40.37728578632353" lon="9.511462180262722"><ele>117.0</ele><time>2026-05-01T08:38:40Z</time></trkpt><trkpt lat="40.37708821389981" lon="9.511700671909182"><ele>116.0</ele><time>2026-05-01T08:38:41Z</time></trkpt><trkpt lat="40.3768836105464" lon="9.51192754768882"><ele>115.5</ele><time>2026-05-01T08:38:42Z</time></trkpt><trkpt lat="40.3766684315262" lon="9.51213389233281"><ele>115.0</ele><time>2026-05-01T08:38:43Z</time></trkpt><trkpt lat="40.3764626898141" lon="9.51235531806222"><ele>117.5</ele><time>2026-05-01T08:38:44Z</time></trkpt><trkpt lat="40.376259701721295" lon="9.512575960190883"><ele>120.0</ele><time>2026-05-01T08:38:45Z</time></trkpt><trkpt lat="40.37605837137375" lon="9.512795194762468"><ele>120.0</ele><time>2026-05-01T08:38:46Z</time></trkpt><trkpt lat="40.37587062949184" lon="9.5130267732975"><ele>120.0</ele><time>2026-05-01T08:38:47Z</time></trkpt><trkpt lat="40.375675739864825" lon="9.513239070069211"><ele>124.0</ele><time>2026-05-01T08:38:48Z</time></trkpt><trkpt lat="40.3754835755039" lon="9.513446457725529"><ele>128.0</ele><time>2026-05-01T08:38:49Z</time></trkpt><trkpt lat="40.37528589514814" lon="9.51363168529089"><ele>127.5</ele><time>2026-05-01T08:38:50Z</time></trkpt><trkpt lat="40.37510397286893" lon="9.513830218436757"><ele>127.0</ele><time>2026-05-01T08:38:51Z</time></trkpt><trkpt lat="40.37492251146363" lon="9.514028248538503"><ele>127.0</ele><time>2026-05-01T08:38:52Z</time></trkpt><trkpt lat="40.374734262944266" lon="9.51423353199094"><ele>127.0</ele><time>2026-05-01T08:38:53Z</time></trkpt><trkpt lat="40.37455443252861" lon="9.514456060838942"><ele>132.5</ele><time>2026-05-01T08:38:54Z</time></trkpt><trkpt lat="40.374365221268356" lon="9.514659143297344"><ele>138.0</ele><time>2026-05-01T08:38:55Z</time></trkpt><trkpt lat="40.37418869611457" lon="9.514849281239693"><ele>138.0</ele><time>2026-05-01T08:38:56Z</time></trkpt><trkpt lat="40.37402818613905" lon="9.51502413408784"><ele>138.0</ele><time>2026-05-01T08:38:57Z</time></trkpt><trkpt lat="40.373863670145155" lon="9.51520204838772"><ele>138.0</ele><time>2026-05-01T08:38:58Z</time></trkpt><trkpt lat="40.37369836891528" lon="9.515382713534267"><ele>143.33333333333334</ele><time>2026-05-01T08:38:59Z</time></trkpt><trkpt lat="40.37353023074195" lon="9.515567029712725"><ele>148.66666666666669</ele><time>2026-05-01T08:39:00Z</time></trkpt><trkpt lat="40.37334200637645" lon="9.515719569982322"><ele>154.0</ele><time>2026-05-01T08:39:01Z</time></trkpt><trkpt lat="40.373141276774696" lon="9.515844960902626"><ele>156.0</ele><time>2026-05-01T08:39:02Z</time></trkpt><trkpt lat="40.37292722372173" lon="9.515920697326969"><ele>158.0</ele><time>2026-05-01T08:39:03Z</time></trkpt><trkpt lat="40.37270329897012" lon="9.51595041652292"><ele>160.0</ele><time>2026-05-01T08:39:04Z</time></trkpt><trkpt lat="40.37247000280939" lon="9.515917750143151"><ele>160.0</ele><time>2026-05-01T08:39:05Z</time></trkpt><trkpt lat="40.372231123169605" lon="9.515857614723824"><ele>160.0</ele><time>2026-05-01T08:39:06Z</time></trkpt><trkpt lat="40.37198246180341" lon="9.515805963246137"><ele>158.0</ele><time>2026-05-01T08:39:07Z</time></trkpt><trkpt lat="40.371734270735935" lon="9.515735482747282"><ele>156.0</ele><time>2026-05-01T08:39:08Z</time></trkpt><trkpt lat="40.371486128255704" lon="9.51567377600123"><ele>156.0</ele><time>2026-05-01T08:39:09Z</time></trkpt><trkpt lat="40.37123859633233" lon="9.515606107286741"><ele>156.0</ele><time>2026-05-01T08:39:10Z</time></trkpt><trkpt lat="40.37098992663424" lon="9.515538802899133"><ele>156.0</ele><time>2026-05-01T08:39:11Z</time></trkpt><trkpt lat="40.370742347041904" lon="9.515467598066111"><ele>156.0</ele><time>2026-05-01T08:39:12Z</time></trkpt><trkpt lat="40.37049684446845" lon="9.51540146840392"><ele>156.0</ele><time>2026-05-01T08:39:13Z</time></trkpt><trkpt lat="40.3702520642682" lon="9.51533355395999"><ele>156.0</ele><time>2026-05-01T08:39:14Z</time></trkpt><trkpt lat="40.37000634069814" lon="9.51526171599925"><ele>156.0</ele><time>2026-05-01T08:39:15Z</time></trkpt><trkpt lat="40.36976771090971" lon="9.515204972704037"><ele>156.0</ele><time>2026-05-01T08:39:16Z</time></trkpt><trkpt lat="40.36953423541181" lon="9.515174243711952"><ele>153.5</ele><time>2026-05-01T08:39:17Z</time></trkpt><trkpt lat="40.369305185841" lon="9.515195867588085"><ele>151.0</ele><time>2026-05-01T08:39:18Z</time></trkpt><trkpt lat="40.369081081978884" lon="9.515274621927936"><ele>148.0</ele><time>2026-05-01T08:39:19Z</time></trkpt><trkpt lat="40.36886278696367" lon="9.51540784235346"><ele>145.0</ele><time>2026-05-01T08:39:20Z</time></trkpt><trkpt lat="40.36865336146595" lon="9.515591148374295"><ele>143.0</ele><time>2026-05-01T08:39:21Z</time></trkpt><trkpt lat="40.36843832729544" lon="9.515771637328292"><ele>141.0</ele><time>2026-05-01T08:39:22Z</time></trkpt><trkpt lat="40.3682253745511" lon="9.515969157073252"><ele>141.0</ele><time>2026-05-01T08:39:23Z</time></trkpt><trkpt lat="40.36802774648973" lon="9.516151870636724"><ele>141.0</ele><time>2026-05-01T08:39:24Z</time></trkpt><trkpt lat="40.36784367710781" lon="9.51631976128667"><ele>149.0</ele><time>2026-05-01T08:39:25Z</time></trkpt><trkpt lat="40.367659336124795" lon="9.516488224167132"><ele>157.0</ele><time>2026-05-01T08:39:26Z</time></trkpt><trkpt lat="40.36747143671566" lon="9.516661842763016"><ele>157.0</ele><time>2026-05-01T08:39:27Z</time></trkpt><trkpt lat="40.36728035186087" lon="9.516839994334312"><ele>157.0</ele><time>2026-05-01T08:39:28Z</time></trkpt><trkpt lat="40.36710279688331" lon="9.51699103400705"><ele>157.0</ele><time>2026-05-01T08:39:29Z</time></trkpt><trkpt lat="40.36692213054778" lon="9.51709999542594"><ele>160.66666666666669</ele><time>2026-05-01T08:39:30Z</time></trkpt><trkpt lat="40.36672753409763" lon="9.517157191121616"><ele>164.33333333333334</ele><time>2026-05-01T08:39:31Z</time></trkpt><trkpt lat="40.36652917600296" lon="9.517148214406912"><ele>168.0</ele><time>2026-05-01T08:39:32Z</time></trkpt><trkpt lat="40.36632511198419" lon="9.517088055730449"><ele>168.0</ele><time>2026-05-01T08:39:33Z</time></trkpt><trkpt lat="40.36610077451022" lon="9.517007012433057"><ele>168.0</ele><time>2026-05-01T08:39:34Z</time></trkpt><trkpt lat="40.36586045689944" lon="9.516939557276176"><ele>168.0</ele><time>2026-05-01T08:39:35Z</time></trkpt><trkpt lat="40.365620439409476" lon="9.516859477801418"><ele>168.0</ele><time>2026-05-01T08:39:36Z</time></trkpt><trkpt lat="40.365402698875606" lon="9.516763382474792"><ele>172.66666666666666</ele><time>2026-05-01T08:39:37Z</time></trkpt><trkpt lat="40.36519314998583" lon="9.516714179362063"><ele>177.33333333333331</ele><time>2026-05-01T08:39:38Z</time></trkpt><trkpt lat="40.36498463524742" lon="9.516640889122028"><ele>182.0</ele><time>2026-05-01T08:39:39Z</time></trkpt><trkpt lat="40.36477229895018" lon="9.516569242992606"><ele>183.66666666666666</ele><time>2026-05-01T08:39:40Z</time></trkpt><trkpt lat="40.364565189733554" lon="9.516477149092681"><ele>185.33333333333334</ele><time>2026-05-01T08:39:41Z</time></trkpt><trkpt lat="40.36435506727015" lon="9.516405355279291"><ele>187.0</ele><time>2026-05-01T08:39:42Z</time></trkpt><trkpt lat="40.364143544890396" lon="9.516334435509629"><ele>187.0</ele><time>2026-05-01T08:39:43Z</time></trkpt><trkpt lat="40.36392880750105" lon="9.516282917057241"><ele>187.0</ele><time>2026-05-01T08:39:44Z</time></trkpt><trkpt lat="40.36371924396282" lon="9.516207516478268"><ele>187.0</ele><time>2026-05-01T08:39:45Z</time></trkpt><trkpt lat="40.363508805276815" lon="9.516132975532386"><ele>188.33333333333334</ele><time>2026-05-01T08:39:46Z</time></trkpt><trkpt lat="40.3632968051236" lon="9.51604432194868"><ele>189.66666666666666</ele><time>2026-05-01T08:39:47Z</time></trkpt><trkpt lat="40.36307641630971" lon="9.515988055176322"><ele>191.0</ele><time>2026-05-01T08:39:48Z</time></trkpt><trkpt lat="40.362866743883124" lon="9.515873472448787"><ele>201.0</ele><time>2026-05-01T08:39:49Z</time></trkpt><trkpt lat="40.362667763528755" lon="9.515710977492569"><ele>211.0</ele><time>2026-05-01T08:39:50Z</time></trkpt><trkpt lat="40.362482540083874" lon="9.515511716193116"><ele>205.5</ele><time>2026-05-01T08:39:51Z</time></trkpt><trkpt lat="40.362303028666354" lon="9.515300301531475"><ele>200.0</ele><time>2026-05-01T08:39:52Z</time></trkpt><trkpt lat="40.36212372181427" lon="9.515097236214885"><ele>211.0</ele><time>2026-05-01T08:39:53Z</time></trkpt><trkpt lat="40.36194269995123" lon="9.51489170268367"><ele>222.0</ele><time>2026-05-01T08:39:54Z</time></trkpt><trkpt lat="40.36175999044118" lon="9.514683079581769"><ele>216.5</ele><time>2026-05-01T08:39:55Z</time></trkpt><trkpt lat="40.361574561169" lon="9.514473221659522"><ele>211.0</ele><time>2026-05-01T08:39:56Z</time></trkpt><trkpt lat="40.36138654997654" lon="9.514265049465088"><ele>216.33333333333331</ele><time>2026-05-01T08:39:57Z</time></trkpt><trkpt lat="40.361204769053344" lon="9.514064213689048"><ele>221.66666666666669</ele><time>2026-05-01T08:39:58Z</time></trkpt><trkpt lat="40.3610478969467" lon="9.513889272002398"><ele>227.0</ele><time>2026-05-01T08:39:59Z</time></trkpt><trkpt lat="40.36090721116254" lon="9.51376025448441"><ele>228.66666666666669</ele><time>2026-05-01T08:40:00Z</time></trkpt><trkpt lat="40.360765865231095" lon="9.513696153206022"><ele>230.33333333333331</ele><time>2026-05-01T08:40:01Z</time></trkpt><trkpt lat="40.36060408874346" lon="9.513696304485093"><ele>232.0</ele><time>2026-05-01T08:40:02Z</time></trkpt><trkpt lat="40.36041463209633" lon="9.513724972552893"><ele>232.0</ele><time>2026-05-01T08:40:03Z</time></trkpt><trkpt lat="40.36020893010551" lon="9.513721810361423"><ele>232.0</ele><time>2026-05-01T08:40:04Z</time></trkpt><trkpt lat="40.36001248193627" lon="9.513729974217869"><ele>232.0</ele><time>2026-05-01T08:40:05Z</time></trkpt><trkpt lat="40.3598215596452" lon="9.513756289846953"><ele>234.33333333333331</ele><time>2026-05-01T08:40:06Z</time></trkpt><trkpt lat="40.35964894811191" lon="9.513764975018765"><ele>236.66666666666669</ele><time>2026-05-01T08:40:07Z</time></trkpt><trkpt lat="40.35948274158914" lon="9.51373986611266"><ele>239.0</ele><time>2026-05-01T08:40:08Z</time></trkpt><trkpt lat="40.35930926537086" lon="9.51370022966243"><ele>239.0</ele><time>2026-05-01T08:40:09Z</time></trkpt><trkpt lat="40.35913895161875" lon="9.513610608386992"><ele>239.0</ele><time>2026-05-01T08:40:10Z</time></trkpt><trkpt lat="40.35897333989647" lon="9.513501445459474"><ele>239.0</ele><time>2026-05-01T08:40:11Z</time></trkpt><trkpt lat="40.358849891021066" lon="9.51331948491143"><ele>237.0</ele><time>2026-05-01T08:40:12Z</time></trkpt><trkpt lat="40.358747482255026" lon="9.513138809623989"><ele>235.0</ele><time>2026-05-01T08:40:13Z</time></trkpt><trkpt lat="40.358640147373826" lon="9.512978462859417"><ele>233.0</ele><time>2026-05-01T08:40:14Z</time></trkpt><trkpt lat="40.35855924914823" lon="9.51280431605551"><ele>233.0</ele><time>2026-05-01T08:40:15Z</time></trkpt><trkpt lat="40.35848337177226" lon="9.512639588100365"><ele>233.0</ele><time>2026-05-01T08:40:16Z</time></trkpt><trkpt lat="40.35839126335904" lon="9.512499631055105"><ele>233.0</ele><time>2026-05-01T08:40:17Z</time></trkpt><trkpt lat="40.35830080458766" lon="9.512356689350954"><ele>233.0</ele><time>2026-05-01T08:40:18Z</time></trkpt><trkpt lat="40.358195614557744" lon="9.512217492350254"><ele>233.0</ele><time>2026-05-01T08:40:19Z</time></trkpt><trkpt lat="40.35807223432989" lon="9.512097267153612"><ele>233.0</ele><time>2026-05-01T08:40:20Z</time></trkpt><trkpt lat="40.35792869392939" lon="9.51200314468012"><ele>233.0</ele><time>2026-05-01T08:40:21Z</time></trkpt><trkpt lat="40.357777642990456" lon="9.511914131373448"><ele>232.33333333333334</ele><time>2026-05-01T08:40:22Z</time></trkpt><trkpt lat="40.357623813485255" lon="9.511818379387876"><ele>231.66666666666669</ele><time>2026-05-01T08:40:23Z</time></trkpt><trkpt lat="40.357462592365145" lon="9.511713041986619"><ele>231.0</ele><time>2026-05-01T08:40:24Z</time></trkpt><trkpt lat="40.357293966499405" lon="9.511599569018891"><ele>225.0</ele><time>2026-05-01T08:40:25Z</time></trkpt><trkpt lat="40.35712001509898" lon="9.511483665512497"><ele>219.0</ele><time>2026-05-01T08:40:26Z</time></trkpt><trkpt lat="40.356940683516854" lon="9.511369473710669"><ele>213.0</ele><time>2026-05-01T08:40:27Z</time></trkpt><trkpt lat="40.356755625320766" lon="9.5112536908276"><ele>211.0</ele><time>2026-05-01T08:40:28Z</time></trkpt><trkpt lat="40.35656753877677" lon="9.511129481950865"><ele>209.0</ele><time>2026-05-01T08:40:29Z</time></trkpt><trkpt lat="40.356375120169695" lon="9.511002014460333"><ele>207.0</ele><time>2026-05-01T08:40:30Z</time></trkpt><trkpt lat="40.35617884028862" lon="9.510878764383415"><ele>207.0</ele><time>2026-05-01T08:40:31Z</time></trkpt><trkpt lat="40.355982693008244" lon="9.510764405313546"><ele>207.0</ele><time>2026-05-01T08:40:32Z</time></trkpt><trkpt lat="40.3557964126368" lon="9.510665637565957"><ele>207.0</ele><time>2026-05-01T08:40:33Z</time></trkpt><trkpt lat="40.35560972099691" lon="9.510569884442114"><ele>206.66666666666669</ele><time>2026-05-01T08:40:34Z</time></trkpt><trkpt lat="40.35542337325558" lon="9.51045190704595"><ele>206.33333333333334</ele><time>2026-05-01T08:40:35Z</time></trkpt><trkpt lat="40.355215186775446" lon="9.510390059460864"><ele>206.0</ele><time>2026-05-01T08:40:36Z</time></trkpt><trkpt lat="40.35500419864271" lon="9.51033374276624"><ele>206.0</ele><time>2026-05-01T08:40:37Z</time></trkpt><trkpt lat="40.354789274794726" lon="9.510300335301483"><ele>206.0</ele><time>2026-05-01T08:40:38Z</time></trkpt><trkpt lat="40.3545814972186" lon="9.510268538105192"><ele>206.0</ele><time>2026-05-01T08:40:39Z</time></trkpt><trkpt lat="40.35439111881005" lon="9.510232698247977"><ele>205.0</ele><time>2026-05-01T08:40:40Z</time></trkpt><trkpt lat="40.35420721879644" lon="9.510195857737854"><ele>204.0</ele><time>2026-05-01T08:40:41Z</time></trkpt><trkpt lat="40.3540212489268" lon="9.510164023621586"><ele>203.0</ele><time>2026-05-01T08:40:42Z</time></trkpt><trkpt lat="40.353834364921354" lon="9.510109730748269"><ele>203.0</ele><time>2026-05-01T08:40:43Z</time></trkpt><trkpt lat="40.353643787079285" lon="9.510097610104939"><ele>203.0</ele><time>2026-05-01T08:40:44Z</time></trkpt><trkpt lat="40.35345440624657" lon="9.510056620505575"><ele>203.0</ele><time>2026-05-01T08:40:45Z</time></trkpt><trkpt lat="40.35325785461607" lon="9.51000524902565"><ele>203.0</ele><time>2026-05-01T08:40:46Z</time></trkpt><trkpt lat="40.35306029987202" lon="9.509938236218893"><ele>203.0</ele><time>2026-05-01T08:40:47Z</time></trkpt><trkpt lat="40.35286579352024" lon="9.509839470171801"><ele>203.0</ele><time>2026-05-01T08:40:48Z</time></trkpt><trkpt lat="40.35265827434751" lon="9.50977488459787"><ele>202.0</ele><time>2026-05-01T08:40:49Z</time></trkpt><trkpt lat="40.35245529272271" lon="9.509685091270274"><ele>201.0</ele><time>2026-05-01T08:40:50Z</time></trkpt><trkpt lat="40.352240985366706" lon="9.50959534976581"><ele>200.0</ele><time>2026-05-01T08:40:51Z</time></trkpt><trkpt lat="40.352017003976805" lon="9.509507215197274"><ele>199.0</ele><time>2026-05-01T08:40:52Z</time></trkpt><trkpt lat="40.351794534316035" lon="9.509418763441992"><ele>198.0</ele><time>2026-05-01T08:40:53Z</time></trkpt><trkpt lat="40.35155785143445" lon="9.509398714358982"><ele>195.0</ele><time>2026-05-01T08:40:54Z</time></trkpt><trkpt lat="40.3513234787968" lon="9.509376376090062"><ele>192.0</ele><time>2026-05-01T08:40:55Z</time></trkpt><trkpt lat="40.351102749875345" lon="9.509337460883822"><ele>192.0</ele><time>2026-05-01T08:40:56Z</time></trkpt><trkpt lat="40.350900783420144" lon="9.509320448951321"><ele>192.0</ele><time>2026-05-01T08:40:57Z</time></trkpt><trkpt lat="40.35070806497743" lon="9.509304215987571"><ele>192.0</ele><time>2026-05-01T08:40:58Z</time></trkpt><trkpt lat="40.35040277245043" lon="9.509297965543936"><ele>190.0</ele><time>2026-05-01T08:40:59Z</time></trkpt><trkpt lat="40.35019125062922" lon="9.509277854533824"><ele>188.0</ele><time>2026-05-01T08:41:00Z</time></trkpt><trkpt lat="40.349986771279646" lon="9.509262125002483"><ele>186.0</ele><time>2026-05-01T08:41:01Z</time></trkpt><trkpt lat="40.349781914839596" lon="9.509216450798924"><ele>185.66666666666666</ele><time>2026-05-01T08:41:02Z</time></trkpt><trkpt lat="40.34957543231685" lon="9.509159220977235"><ele>185.33333333333331</ele><time>2026-05-01T08:41:03Z</time></trkpt><trkpt lat="40.34936430137997" lon="9.509084442281686"><ele>185.0</ele><time>2026-05-01T08:41:04Z</time></trkpt><trkpt lat="40.349150109736975" lon="9.509008214883245"><ele>185.0</ele><time>2026-05-01T08:41:05Z</time></trkpt><trkpt lat="40.34893221511729" lon="9.50893040215723"><ele>185.0</ele><time>2026-05-01T08:41:06Z</time></trkpt><trkpt lat="40.34873001016196" lon="9.508858035225508"><ele>185.0</ele><time>2026-05-01T08:41:07Z</time></trkpt><trkpt lat="40.34853497923907" lon="9.50878823441018"><ele>183.66666666666666</ele><time>2026-05-01T08:41:08Z</time></trkpt><trkpt lat="40.34834777318849" lon="9.50872123409286"><ele>182.33333333333334</ele><time>2026-05-01T08:41:09Z</time></trkpt><trkpt lat="40.3481669945561" lon="9.508678201928602"><ele>181.0</ele><time>2026-05-01T08:41:10Z</time></trkpt><trkpt lat="40.347996323066184" lon="9.508616146739513"><ele>179.33333333333334</ele><time>2026-05-01T08:41:11Z</time></trkpt><trkpt lat="40.34783543314882" lon="9.50855320822269"><ele>177.66666666666666</ele><time>2026-05-01T08:41:12Z</time></trkpt><trkpt lat="40.34767524773331" lon="9.508496598322905"><ele>176.0</ele><time>2026-05-01T08:41:13Z</time></trkpt><trkpt lat="40.34751317891695" lon="9.508449180190453"><ele>176.0</ele><time>2026-05-01T08:41:14Z</time></trkpt><trkpt lat="40.34733789820181" lon="9.50843291680966"><ele>176.0</ele><time>2026-05-01T08:41:15Z</time></trkpt><trkpt lat="40.34716267532233" lon="9.508446632730742"><ele>176.0</ele><time>2026-05-01T08:41:16Z</time></trkpt><trkpt lat="40.34700747066912" lon="9.508504294018591"><ele>176.0</ele><time>2026-05-01T08:41:17Z</time></trkpt><trkpt lat="40.346879795078635" lon="9.50858564148729"><ele>176.0</ele><time>2026-05-01T08:41:18Z</time></trkpt><trkpt lat="40.34676152132378" lon="9.50865139877475"><ele>176.0</ele><time>2026-05-01T08:41:19Z</time></trkpt><trkpt lat="40.346649178630464" lon="9.50867738895099"><ele>176.0</ele><time>2026-05-01T08:41:20Z</time></trkpt><trkpt lat="40.34654957188816" lon="9.508683050086344"><ele>176.4</ele><time>2026-05-01T08:41:21Z</time></trkpt><trkpt lat="40.346472375040854" lon="9.508751084534877"><ele>176.8</ele><time>2026-05-01T08:41:22Z</time></trkpt><trkpt lat="40.34642953735064" lon="9.508866998038947"><ele>177.20000000000002</ele><time>2026-05-01T08:41:23Z</time></trkpt><trkpt lat="40.34643065151164" lon="9.50900104161266"><ele>177.60000000000002</ele><time>2026-05-01T08:41:24Z</time></trkpt><trkpt lat="40.34646025383025" lon="9.509138075990258"><ele>178.0</ele><time>2026-05-01T08:41:25Z</time></trkpt><trkpt lat="40.34645584135729" lon="9.509283143587536"><ele>178.0</ele><time>2026-05-01T08:41:26Z</time></trkpt><trkpt lat="40.346396572994536" lon="9.50941221594765"><ele>178.0</ele><time>2026-05-01T08:41:27Z</time></trkpt><trkpt lat="40.34630336233115" lon="9.509526082876508"><ele>178.0</ele><time>2026-05-01T08:41:28Z</time></trkpt><trkpt lat="40.3462179304146" lon="9.509645991018303"><ele>178.0</ele><time>2026-05-01T08:41:29Z</time></trkpt><trkpt lat="40.346141642986716" lon="9.509774671787676"><ele>180.25</ele><time>2026-05-01T08:41:30Z</time></trkpt><trkpt lat="40.34606472235086" lon="9.509907674840642"><ele>182.5</ele><time>2026-05-01T08:41:31Z</time></trkpt><trkpt lat="40.34597742656753" lon="9.510038962319577"><ele>184.75</ele><time>2026-05-01T08:41:32Z</time></trkpt><trkpt lat="40.345904947812606" lon="9.510180013850762"><ele>187.0</ele><time>2026-05-01T08:41:33Z</time></trkpt><trkpt lat="40.345816220902236" lon="9.51034329986388"><ele>187.33333333333334</ele><time>2026-05-01T08:41:34Z</time></trkpt><trkpt lat="40.34572233809681" lon="9.510534743071632"><ele>187.66666666666666</ele><time>2026-05-01T08:41:35Z</time></trkpt><trkpt lat="40.34563281039298" lon="9.510755191429375"><ele>188.0</ele><time>2026-05-01T08:41:36Z</time></trkpt><trkpt lat="40.3455452564789" lon="9.5109875412799"><ele>189.33333333333331</ele><time>2026-05-01T08:41:37Z</time></trkpt><trkpt lat="40.34545988986106" lon="9.511228189732195"><ele>190.66666666666666</ele><time>2026-05-01T08:41:38Z</time></trkpt><trkpt lat="40.34536397190104" lon="9.511466008662328"><ele>192.0</ele><time>2026-05-01T08:41:39Z</time></trkpt><trkpt lat="40.34527743616469" lon="9.511691066150444"><ele>192.0</ele><time>2026-05-01T08:41:40Z</time></trkpt><trkpt lat="40.34517954606033" lon="9.51191147006035"><ele>192.0</ele><time>2026-05-01T08:41:41Z</time></trkpt><trkpt lat="40.34507162618243" lon="9.512117238074953"><ele>192.0</ele><time>2026-05-01T08:41:42Z</time></trkpt><trkpt lat="40.34494040354366" lon="9.512303631910498"><ele>192.66666666666669</ele><time>2026-05-01T08:41:43Z</time></trkpt><trkpt lat="40.34478409336619" lon="9.512477820250869"><ele>193.33333333333334</ele><time>2026-05-01T08:41:44Z</time></trkpt><trkpt lat="40.344614258828955" lon="9.512642753927661"><ele>194.0</ele><time>2026-05-01T08:41:45Z</time></trkpt><trkpt lat="40.344447616139185" lon="9.51279356001936"><ele>194.66666666666669</ele><time>2026-05-01T08:41:46Z</time></trkpt><trkpt lat="40.34434704824064" lon="9.512980694801554"><ele>195.33333333333331</ele><time>2026-05-01T08:41:47Z</time></trkpt><trkpt lat="40.34423090535787" lon="9.513141184290436"><ele>196.0</ele><time>2026-05-01T08:41:48Z</time></trkpt><trkpt lat="40.34412455683227" lon="9.513339343411282"><ele>196.0</ele><time>2026-05-01T08:41:49Z</time></trkpt><trkpt lat="40.34404025841442" lon="9.513566895493307"><ele>196.0</ele><time>2026-05-01T08:41:50Z</time></trkpt><trkpt lat="40.34398488049817" lon="9.513806984739176"><ele>196.0</ele><time>2026-05-01T08:41:51Z</time></trkpt><trkpt lat="40.343961955152785" lon="9.514055778891606"><ele>196.0</ele><time>2026-05-01T08:41:52Z</time></trkpt><trkpt lat="40.34398166451155" lon="9.514305970013348"><ele>196.0</ele><time>2026-05-01T08:41:53Z</time></trkpt><trkpt lat="40.344027348732205" lon="9.514555990404926"><ele>196.0</ele><time>2026-05-01T08:41:54Z</time></trkpt><trkpt lat="40.344100839782165" lon="9.514820766171304"><ele>196.0</ele><time>2026-05-01T08:41:55Z</time></trkpt><trkpt lat="40.34416851427542" lon="9.515097979052797"><ele>196.0</ele><time>2026-05-01T08:41:56Z</time></trkpt><trkpt lat="40.3442267685403" lon="9.515355040261495"><ele>196.0</ele><time>2026-05-01T08:41:57Z</time></trkpt><trkpt lat="40.34427834101383" lon="9.515606644570829"><ele>196.0</ele><time>2026-05-01T08:41:58Z</time></trkpt><trkpt lat="40.344333063849525" lon="9.51585366816073"><ele>196.0</ele><time>2026-05-01T08:41:59Z</time></trkpt><trkpt lat="40.34438527984914" lon="9.516094356044553"><ele>196.0</ele><time>2026-05-01T08:42:00Z</time></trkpt><trkpt lat="40.3444255601122" lon="9.516320900125487"><ele>196.0</ele><time>2026-05-01T08:42:01Z</time></trkpt><trkpt lat="40.344438913573185" lon="9.516533232544594"><ele>196.0</ele><time>2026-05-01T08:42:02Z</time></trkpt><trkpt lat="40.34442276090192" lon="9.516744344108119"><ele>196.0</ele><time>2026-05-01T08:42:03Z</time></trkpt><trkpt lat="40.34437729666647" lon="9.516968353396425"><ele>195.33333333333331</ele><time>2026-05-01T08:42:04Z</time></trkpt><trkpt lat="40.344295398591306" lon="9.517187978168662"><ele>194.66666666666669</ele><time>2026-05-01T08:42:05Z</time></trkpt><trkpt lat="40.34419157626935" lon="9.51739182252479"><ele>194.0</ele><time>2026-05-01T08:42:06Z</time></trkpt><trkpt lat="40.344067403267715" lon="9.517584389170688"><ele>194.0</ele><time>2026-05-01T08:42:07Z</time></trkpt><trkpt lat="40.34391459638353" lon="9.517789073428736"><ele>194.0</ele><time>2026-05-01T08:42:08Z</time></trkpt><trkpt lat="40.34373120037432" lon="9.518009992646585"><ele>194.0</ele><time>2026-05-01T08:42:09Z</time></trkpt><trkpt lat="40.343525854076525" lon="9.518241014074004"><ele>194.0</ele><time>2026-05-01T08:42:10Z</time></trkpt><trkpt lat="40.3432991551915" lon="9.518468354599264"><ele>194.0</ele><time>2026-05-01T08:42:11Z</time></trkpt><trkpt lat="40.34307947811175" lon="9.518703259841631"><ele>194.0</ele><time>2026-05-01T08:42:12Z</time></trkpt><trkpt lat="40.342881416891295" lon="9.518989445791322"><ele>193.5</ele><time>2026-05-01T08:42:13Z</time></trkpt><trkpt lat="40.34268525273545" lon="9.51929592409304"><ele>193.0</ele><time>2026-05-01T08:42:14Z</time></trkpt><trkpt lat="40.342462452742815" lon="9.519531205814374"><ele>193.0</ele><time>2026-05-01T08:42:15Z</time></trkpt><trkpt lat="40.342278913143325" lon="9.519761056981167"><ele>193.0</ele><time>2026-05-01T08:42:16Z</time></trkpt><trkpt lat="40.342097217047915" lon="9.519974772695786"><ele>193.0</ele><time>2026-05-01T08:42:17Z</time></trkpt><trkpt lat="40.34191757093571" lon="9.520173703864511"><ele>193.0</ele><time>2026-05-01T08:42:18Z</time></trkpt><trkpt lat="40.34172174483198" lon="9.520373043034416"><ele>192.5</ele><time>2026-05-01T08:42:19Z</time></trkpt><trkpt lat="40.34151450524736" lon="9.520581087976067"><ele>192.0</ele><time>2026-05-01T08:42:20Z</time></trkpt><trkpt lat="40.34128512611781" lon="9.520776342760623"><ele>191.0</ele><time>2026-05-01T08:42:21Z</time></trkpt><trkpt lat="40.34104662769346" lon="9.520970375735667"><ele>190.0</ele><time>2026-05-01T08:42:22Z</time></trkpt><trkpt lat="40.34080404911698" lon="9.521166253604234"><ele>190.5</ele><time>2026-05-01T08:42:23Z</time></trkpt><trkpt lat="40.34056420272758" lon="9.521317503511492"><ele>191.0</ele><time>2026-05-01T08:42:24Z</time></trkpt><trkpt lat="40.3403576577816" lon="9.521490778241688"><ele>191.5</ele><time>2026-05-01T08:42:25Z</time></trkpt><trkpt lat="40.34014687212099" lon="9.521667606571592"><ele>192.0</ele><time>2026-05-01T08:42:26Z</time></trkpt><trkpt lat="40.3399300855758" lon="9.521849624344302"><ele>193.0</ele><time>2026-05-01T08:42:27Z</time></trkpt><trkpt lat="40.339706775115005" lon="9.522037336660397"><ele>194.0</ele><time>2026-05-01T08:42:28Z</time></trkpt><trkpt lat="40.33948144696154" lon="9.52222674504211"><ele>194.0</ele><time>2026-05-01T08:42:29Z</time></trkpt><trkpt lat="40.339257030095254" lon="9.52241538742484"><ele>194.0</ele><time>2026-05-01T08:42:30Z</time></trkpt><trkpt lat="40.33901968910991" lon="9.522614893650085"><ele>193.5</ele><time>2026-05-01T08:42:31Z</time></trkpt><trkpt lat="40.338771002544505" lon="9.522823936900691"><ele>193.0</ele><time>2026-05-01T08:42:32Z</time></trkpt><trkpt lat="40.33852852853461" lon="9.523027757867293"><ele>193.0</ele><time>2026-05-01T08:42:33Z</time></trkpt><trkpt lat="40.33829850396228" lon="9.523221113962835"><ele>193.0</ele><time>2026-05-01T08:42:34Z</time></trkpt><trkpt lat="40.33806035753383" lon="9.523420795234166"><ele>193.5</ele><time>2026-05-01T08:42:35Z</time></trkpt><trkpt lat="40.337814577543185" lon="9.52362473436655"><ele>194.0</ele><time>2026-05-01T08:42:36Z</time></trkpt><trkpt lat="40.33758615110267" lon="9.523813761817012"><ele>195.0</ele><time>2026-05-01T08:42:37Z</time></trkpt><trkpt lat="40.337376518831846" lon="9.523988194022373"><ele>196.0</ele><time>2026-05-01T08:42:38Z</time></trkpt><trkpt lat="40.337187916255374" lon="9.524169114173962"><ele>196.0</ele><time>2026-05-01T08:42:39Z</time></trkpt><trkpt lat="40.33699916276332" lon="9.524346680224266"><ele>196.0</ele><time>2026-05-01T08:42:40Z</time></trkpt><trkpt lat="40.336827243622835" lon="9.52454029765986"><ele>195.0</ele><time>2026-05-01T08:42:41Z</time></trkpt><trkpt lat="40.33667531751559" lon="9.524762408585799"><ele>194.0</ele><time>2026-05-01T08:42:42Z</time></trkpt><trkpt lat="40.33654524987896" lon="9.52502495988366"><ele>194.0</ele><time>2026-05-01T08:42:43Z</time></trkpt><trkpt lat="40.33643513338158" lon="9.525321384090189"><ele>194.0</ele><time>2026-05-01T08:42:44Z</time></trkpt><trkpt lat="40.336345055652544" lon="9.52562799944201"><ele>193.0</ele><time>2026-05-01T08:42:45Z</time></trkpt><trkpt lat="40.33623004463436" lon="9.525939065875626"><ele>192.0</ele><time>2026-05-01T08:42:46Z</time></trkpt><trkpt lat="40.33612331499133" lon="9.526254432472504"><ele>191.0</ele><time>2026-05-01T08:42:47Z</time></trkpt><trkpt lat="40.33602377311795" lon="9.526548560672499"><ele>190.0</ele><time>2026-05-01T08:42:48Z</time></trkpt><trkpt lat="40.33594279347344" lon="9.526840512229807"><ele>190.0</ele><time>2026-05-01T08:42:49Z</time></trkpt><trkpt lat="40.335846237701915" lon="9.527120484596136"><ele>190.0</ele><time>2026-05-01T08:42:50Z</time></trkpt><trkpt lat="40.33575227796226" lon="9.527398146159934"><ele>190.0</ele><time>2026-05-01T08:42:51Z</time></trkpt><trkpt lat="40.33565923775579" lon="9.527671329268298"><ele>190.0</ele><time>2026-05-01T08:42:52Z</time></trkpt><trkpt lat="40.335567196905586" lon="9.527940889136643"><ele>188.0</ele><time>2026-05-01T08:42:53Z</time></trkpt><trkpt lat="40.335477315613566" lon="9.528206703767818"><ele>186.0</ele><time>2026-05-01T08:42:54Z</time></trkpt><trkpt lat="40.33538674373042" lon="9.528471075665294"><ele>184.0</ele><time>2026-05-01T08:42:55Z</time></trkpt><trkpt lat="40.3352972917598" lon="9.52873125881375"><ele>184.0</ele><time>2026-05-01T08:42:56Z</time></trkpt><trkpt lat="40.33521022424323" lon="9.528990472233033"><ele>184.0</ele><time>2026-05-01T08:42:57Z</time></trkpt><trkpt lat="40.33512388809406" lon="9.52924946523227"><ele>184.0</ele><time>2026-05-01T08:42:58Z</time></trkpt><trkpt lat="40.33503433461926" lon="9.529524246570688"><ele>183.0</ele><time>2026-05-01T08:42:59Z</time></trkpt><trkpt lat="40.334939384591166" lon="9.52980982518068"><ele>182.0</ele><time>2026-05-01T08:43:00Z</time></trkpt><trkpt lat="40.33481608968455" lon="9.530073338778758"><ele>182.0</ele><time>2026-05-01T08:43:01Z</time></trkpt><trkpt lat="40.33468616705603" lon="9.530300042056435"><ele>182.0</ele><time>2026-05-01T08:43:02Z</time></trkpt><trkpt lat="40.33453658038376" lon="9.530482002976495"><ele>182.0</ele><time>2026-05-01T08:43:03Z</time></trkpt><trkpt lat="40.334362728496835" lon="9.530627881600115"><ele>182.0</ele><time>2026-05-01T08:43:04Z</time></trkpt><trkpt lat="40.334161014264104" lon="9.530738907018895"><ele>182.0</ele><time>2026-05-01T08:43:05Z</time></trkpt><trkpt lat="40.33393566054866" lon="9.530819764738164"><ele>183.5</ele><time>2026-05-01T08:43:06Z</time></trkpt><trkpt lat="40.333694487697294" lon="9.53088919928439"><ele>185.0</ele><time>2026-05-01T08:43:07Z</time></trkpt><trkpt lat="40.333451888697915" lon="9.530958041526157"><ele>185.0</ele><time>2026-05-01T08:43:08Z</time></trkpt><trkpt lat="40.333217457553054" lon="9.531024115015356"><ele>185.0</ele><time>2026-05-01T08:43:09Z</time></trkpt><trkpt lat="40.33298517610893" lon="9.531089153820023"><ele>185.5</ele><time>2026-05-01T08:43:10Z</time></trkpt><trkpt lat="40.332753367269" lon="9.531155132656796"><ele>186.0</ele><time>2026-05-01T08:43:11Z</time></trkpt><trkpt lat="40.332523368344695" lon="9.531221448880524"><ele>187.0</ele><time>2026-05-01T08:43:12Z</time></trkpt><trkpt lat="40.33229374312504" lon="9.53128765776896"><ele>188.0</ele><time>2026-05-01T08:43:13Z</time></trkpt><trkpt lat="40.33206246482655" lon="9.531353799623249"><ele>188.5</ele><time>2026-05-01T08:43:14Z</time></trkpt><trkpt lat="40.331830229592846" lon="9.531420260696576"><ele>189.0</ele><time>2026-05-01T08:43:15Z</time></trkpt><trkpt lat="40.33159763281299" lon="9.531486825243691"><ele>188.5</ele><time>2026-05-01T08:43:16Z</time></trkpt><trkpt lat="40.33136579589351" lon="9.531553173880907"><ele>188.0</ele><time>2026-05-01T08:43:17Z</time></trkpt><trkpt lat="40.331135398075666" lon="9.531619886370827"><ele>188.0</ele><time>2026-05-01T08:43:18Z</time></trkpt><trkpt lat="40.33090526101521" lon="9.531689931558624"><ele>188.0</ele><time>2026-05-01T08:43:19Z</time></trkpt><trkpt lat="40.33067662613441" lon="9.53176058876255"><ele>188.5</ele><time>2026-05-01T08:43:20Z</time></trkpt><trkpt lat="40.330445956995625" lon="9.531831874624842"><ele>189.0</ele><time>2026-05-01T08:43:21Z</time></trkpt><trkpt lat="40.33021418715728" lon="9.531903500145285"><ele>189.0</ele><time>2026-05-01T08:43:22Z</time></trkpt><trkpt lat="40.32998228046261" lon="9.531975167482567"><ele>189.0</ele><time>2026-05-01T08:43:23Z</time></trkpt><trkpt lat="40.32975014748477" lon="9.532046904751674"><ele>188.0</ele><time>2026-05-01T08:43:24Z</time></trkpt><trkpt lat="40.3295249976913" lon="9.532150353774322"><ele>187.0</ele><time>2026-05-01T08:43:25Z</time></trkpt><trkpt lat="40.32929508908003" lon="9.53222606342856"><ele>187.0</ele><time>2026-05-01T08:43:26Z</time></trkpt><trkpt lat="40.32906648805117" lon="9.532301261663758"><ele>187.0</ele><time>2026-05-01T08:43:27Z</time></trkpt><trkpt lat="40.32883785854329" lon="9.532375445500767"><ele>186.5</ele><time>2026-05-01T08:43:28Z</time></trkpt><trkpt lat="40.32860900266836" lon="9.53244903080961"><ele>186.0</ele><time>2026-05-01T08:43:29Z</time></trkpt><trkpt lat="40.328379168661925" lon="9.532522914568194"><ele>186.0</ele><time>2026-05-01T08:43:30Z</time></trkpt><trkpt lat="40.32814786320373" lon="9.53260690702114"><ele>186.0</ele><time>2026-05-01T08:43:31Z</time></trkpt><trkpt lat="40.327920212037164" lon="9.532721372266385"><ele>186.0</ele><time>2026-05-01T08:43:32Z</time></trkpt><trkpt lat="40.327697855263324" lon="9.532864070451913"><ele>186.0</ele><time>2026-05-01T08:43:33Z</time></trkpt><trkpt lat="40.32748320505354" lon="9.53303196403658"><ele>186.0</ele><time>2026-05-01T08:43:34Z</time></trkpt><trkpt lat="40.32727038879194" lon="9.533211710794138"><ele>186.0</ele><time>2026-05-01T08:43:35Z</time></trkpt><trkpt lat="40.32705946197705" lon="9.533391479660327"><ele>186.5</ele><time>2026-05-01T08:43:36Z</time></trkpt><trkpt lat="40.32685049337474" lon="9.533575017956737"><ele>187.0</ele><time>2026-05-01T08:43:37Z</time></trkpt><trkpt lat="40.32665262136145" lon="9.533756790044205"><ele>187.0</ele><time>2026-05-01T08:43:38Z</time></trkpt><trkpt lat="40.32646881321963" lon="9.533923603239957"><ele>187.0</ele><time>2026-05-01T08:43:39Z</time></trkpt><trkpt lat="40.32629005293951" lon="9.534084715835306"><ele>187.0</ele><time>2026-05-01T08:43:40Z</time></trkpt><trkpt lat="40.326109494576" lon="9.534242340206438"><ele>187.0</ele><time>2026-05-01T08:43:41Z</time></trkpt><trkpt lat="40.325925729911745" lon="9.534383085912737"><ele>187.0</ele><time>2026-05-01T08:43:42Z</time></trkpt><trkpt lat="40.325730438074515" lon="9.534503122612485"><ele>187.0</ele><time>2026-05-01T08:43:43Z</time></trkpt><trkpt lat="40.325518892326706" lon="9.534588466330193"><ele>187.0</ele><time>2026-05-01T08:43:44Z</time></trkpt><trkpt lat="40.32529769019591" lon="9.53463848663633"><ele>187.0</ele><time>2026-05-01T08:43:45Z</time></trkpt><trkpt lat="40.325077823038974" lon="9.53465396330751"><ele>187.0</ele><time>2026-05-01T08:43:46Z</time></trkpt><trkpt lat="40.32485071100103" lon="9.534631418359897"><ele>187.0</ele><time>2026-05-01T08:43:47Z</time></trkpt><trkpt lat="40.324614825757486" lon="9.534588654675805"><ele>187.0</ele><time>2026-05-01T08:43:48Z</time></trkpt><trkpt lat="40.32437366391191" lon="9.534546590307215"><ele>187.0</ele><time>2026-05-01T08:43:49Z</time></trkpt><trkpt lat="40.32412638375506" lon="9.534502676780583"><ele>187.0</ele><time>2026-05-01T08:43:50Z</time></trkpt><trkpt lat="40.32387398873736" lon="9.53446301470942"><ele>186.0</ele><time>2026-05-01T08:43:51Z</time></trkpt><trkpt lat="40.32362225687722" lon="9.534424923076802"><ele>185.0</ele><time>2026-05-01T08:43:52Z</time></trkpt><trkpt lat="40.32336906464983" lon="9.534392233950063"><ele>185.0</ele><time>2026-05-01T08:43:53Z</time></trkpt><trkpt lat="40.323123676411754" lon="9.5343556810717"><ele>185.0</ele><time>2026-05-01T08:43:54Z</time></trkpt><trkpt lat="40.32289263997145" lon="9.534315169374098"><ele>184.66666666666666</ele><time>2026-05-01T08:43:55Z</time></trkpt><trkpt lat="40.32268243274181" lon="9.53428393772239"><ele>184.33333333333334</ele><time>2026-05-01T08:43:56Z</time></trkpt><trkpt lat="40.32249197853294" lon="9.534261957209656"><ele>184.0</ele><time>2026-05-01T08:43:57Z</time></trkpt><trkpt lat="40.32234662590552" lon="9.53426352082945"><ele>184.0</ele><time>2026-05-01T08:43:58Z</time></trkpt><trkpt lat="40.32223357941339" lon="9.53426288750865"><ele>184.0</ele><time>2026-05-01T08:43:59Z</time></trkpt><trkpt lat="40.32214396939374" lon="9.534286465870307"><ele>184.0</ele><time>2026-05-01T08:44:00Z</time></trkpt><trkpt lat="40.32197524778365" lon="9.534642104871658"><ele>183.66666666666669</ele><time>2026-05-01T08:44:01Z</time></trkpt><trkpt lat="40.321880814461906" lon="9.534866053391383"><ele>183.33333333333334</ele><time>2026-05-01T08:44:02Z</time></trkpt><trkpt lat="40.32179622793718" lon="9.53508326207917"><ele>183.0</ele><time>2026-05-01T08:44:03Z</time></trkpt><trkpt lat="40.32170477041976" lon="9.53525404718525"><ele>183.0</ele><time>2026-05-01T08:44:04Z</time></trkpt><trkpt lat="40.32159424899572" lon="9.535360200251679"><ele>183.0</ele><time>2026-05-01T08:44:05Z</time></trkpt><trkpt lat="40.321434229998985" lon="9.535363414571558"><ele>183.0</ele><time>2026-05-01T08:44:06Z</time></trkpt><trkpt lat="40.321281408119425" lon="9.53514527175605"><ele>181.66666666666666</ele><time>2026-05-01T08:44:07Z</time></trkpt><trkpt lat="40.32117592226321" lon="9.5350579437814"><ele>180.33333333333331</ele><time>2026-05-01T08:44:08Z</time></trkpt><trkpt lat="40.320922512595125" lon="9.534801159153059"><ele>179.0</ele><time>2026-05-01T08:44:09Z</time></trkpt><trkpt lat="40.32073579358494" lon="9.534685107582044"><ele>178.0</ele><time>2026-05-01T08:44:10Z</time></trkpt><trkpt lat="40.32054045681858" lon="9.534572209618274"><ele>177.0</ele><time>2026-05-01T08:44:11Z</time></trkpt><trkpt lat="40.32031901709215" lon="9.534474968454578"><ele>176.0</ele><time>2026-05-01T08:44:12Z</time></trkpt><trkpt lat="40.32012354863663" lon="9.534379136904764"><ele>176.0</ele><time>2026-05-01T08:44:13Z</time></trkpt><trkpt lat="40.31998877518583" lon="9.534312539193156"><ele>176.0</ele><time>2026-05-01T08:44:14Z</time></trkpt><trkpt lat="40.31983195355997" lon="9.53427950005034"><ele>176.0</ele><time>2026-05-01T08:44:15Z</time></trkpt><trkpt lat="40.31972500964752" lon="9.534326287090124"><ele>176.0</ele><time>2026-05-01T08:44:16Z</time></trkpt><trkpt lat="40.319619584573076" lon="9.534440989009656"><ele>174.33333333333331</ele><time>2026-05-01T08:44:17Z</time></trkpt><trkpt lat="40.31955240553699" lon="9.53462602291442"><ele>172.66666666666666</ele><time>2026-05-01T08:44:18Z</time></trkpt><trkpt lat="40.31945839670598" lon="9.534888579608946"><ele>171.0</ele><time>2026-05-01T08:44:19Z</time></trkpt><trkpt lat="40.31936950940896" lon="9.535107612173611"><ele>171.0</ele><time>2026-05-01T08:44:20Z</time></trkpt><trkpt lat="40.31928267191423" lon="9.535306158561616"><ele>171.0</ele><time>2026-05-01T08:44:21Z</time></trkpt><trkpt lat="40.319200121429155" lon="9.535489579472204"><ele>171.0</ele><time>2026-05-01T08:44:22Z</time></trkpt><trkpt lat="40.319120355272254" lon="9.535656076357839"><ele>171.0</ele><time>2026-05-01T08:44:23Z</time></trkpt><trkpt lat="40.3190366362879" lon="9.535771556283834"><ele>171.0</ele><time>2026-05-01T08:44:24Z</time></trkpt><trkpt lat="40.31892329039327" lon="9.5358612425566"><ele>171.0</ele><time>2026-05-01T08:44:25Z</time></trkpt><trkpt lat="40.31879845464747" lon="9.535882251263256"><ele>171.0</ele><time>2026-05-01T08:44:26Z</time></trkpt><trkpt lat="40.318662735920626" lon="9.535889638316267"><ele>170.0</ele><time>2026-05-01T08:44:27Z</time></trkpt><trkpt lat="40.318492804972685" lon="9.535898701032975"><ele>169.0</ele><time>2026-05-01T08:44:28Z</time></trkpt><trkpt lat="40.318359899410844" lon="9.535899784536575"><ele>168.0</ele><time>2026-05-01T08:44:29Z</time></trkpt><trkpt lat="40.31823068941868" lon="9.535892559264692"><ele>167.0</ele><time>2026-05-01T08:44:30Z</time></trkpt><trkpt lat="40.31812465784117" lon="9.53586661886118"><ele>168.0</ele><time>2026-05-01T08:44:31Z</time></trkpt><trkpt lat="40.31801274971187" lon="9.535812895475665"><ele>169.0</ele><time>2026-05-01T08:44:32Z</time></trkpt><trkpt lat="40.31789358937526" lon="9.535722879233644"><ele>170.0</ele><time>2026-05-01T08:44:33Z</time></trkpt><trkpt lat="40.31777784980901" lon="9.53558757272562"><ele>171.0</ele><time>2026-05-01T08:44:34Z</time></trkpt><trkpt lat="40.31764928587922" lon="9.535454966917294"><ele>168.75</ele><time>2026-05-01T08:44:35Z</time></trkpt><trkpt lat="40.31754155811902" lon="9.535309811202982"><ele>166.5</ele><time>2026-05-01T08:44:36Z</time></trkpt><trkpt lat="40.317442665370436" lon="9.535189549323842"><ele>164.25</ele><time>2026-05-01T08:44:37Z</time></trkpt><trkpt lat="40.317350878208025" lon="9.535080003223083"><ele>162.0</ele><time>2026-05-01T08:44:38Z</time></trkpt><trkpt lat="40.317253924527044" lon="9.534970247670698"><ele>162.5</ele><time>2026-05-01T08:44:39Z</time></trkpt><trkpt lat="40.31716921671487" lon="9.534856399970844"><ele>163.0</ele><time>2026-05-01T08:44:40Z</time></trkpt><trkpt lat="40.31707959056347" lon="9.534744757174924"><ele>163.5</ele><time>2026-05-01T08:44:41Z</time></trkpt><trkpt lat="40.316991165436576" lon="9.534632649655576"><ele>164.0</ele><time>2026-05-01T08:44:42Z</time></trkpt><trkpt lat="40.316909023057924" lon="9.53452633079061"><ele>162.0</ele><time>2026-05-01T08:44:43Z</time></trkpt><trkpt lat="40.31682640458732" lon="9.534433866408841"><ele>160.0</ele><time>2026-05-01T08:44:44Z</time></trkpt><trkpt lat="40.31672082555467" lon="9.534370132337315"><ele>158.0</ele><time>2026-05-01T08:44:45Z</time></trkpt><trkpt lat="40.31658712996082" lon="9.534365612283645"><ele>156.0</ele><time>2026-05-01T08:44:46Z</time></trkpt><trkpt lat="40.31645087466119" lon="9.534373402184942"><ele>155.0</ele><time>2026-05-01T08:44:47Z</time></trkpt><trkpt lat="40.316317832252494" lon="9.534375898353337"><ele>154.0</ele><time>2026-05-01T08:44:48Z</time></trkpt><trkpt lat="40.31620033497577" lon="9.5343595151073"><ele>153.0</ele><time>2026-05-01T08:44:49Z</time></trkpt><trkpt lat="40.31607689972362" lon="9.534335663015552"><ele>152.0</ele><time>2026-05-01T08:44:50Z</time></trkpt><trkpt lat="40.315969226950365" lon="9.534309787305949"><ele>152.0</ele><time>2026-05-01T08:44:51Z</time></trkpt><trkpt lat="40.315855156863456" lon="9.534288172699702"><ele>152.0</ele><time>2026-05-01T08:44:52Z</time></trkpt><trkpt lat="40.31574296190294" lon="9.534273137159477"><ele>152.0</ele><time>2026-05-01T08:44:53Z</time></trkpt><trkpt lat="40.31563869221013" lon="9.534303981661381"><ele>152.0</ele><time>2026-05-01T08:44:54Z</time></trkpt><trkpt lat="40.31554169503141" lon="9.534384024091448"><ele>151.75</ele><time>2026-05-01T08:44:55Z</time></trkpt><trkpt lat="40.315456769654396" lon="9.534503415668025"><ele>151.5</ele><time>2026-05-01T08:44:56Z</time></trkpt><trkpt lat="40.3153870291479" lon="9.534658519786591"><ele>151.25</ele><time>2026-05-01T08:44:57Z</time></trkpt><trkpt lat="40.3153023805819" lon="9.534776544168455"><ele>151.0</ele><time>2026-05-01T08:44:58Z</time></trkpt><trkpt lat="40.31525232127633" lon="9.534888140587412"><ele>151.0</ele><time>2026-05-01T08:44:59Z</time></trkpt><trkpt lat="40.315179640011465" lon="9.534963492984714"><ele>151.0</ele><time>2026-05-01T08:45:00Z</time></trkpt><trkpt lat="40.31510848969017" lon="9.535031154332163"><ele>151.0</ele><time>2026-05-01T08:45:01Z</time></trkpt><trkpt lat="40.315028112438895" lon="9.535069695806245"><ele>151.0</ele><time>2026-05-01T08:45:02Z</time></trkpt><trkpt lat="40.314915598275135" lon="9.535058161246354"><ele>151.0</ele><time>2026-05-01T08:45:03Z</time></trkpt><trkpt lat="40.31481870603091" lon="9.534985218163829"><ele>151.0</ele><time>2026-05-01T08:45:04Z</time></trkpt><trkpt lat="40.3147513735538" lon="9.534864755802424"><ele>151.0</ele><time>2026-05-01T08:45:05Z</time></trkpt><trkpt lat="40.31467309191972" lon="9.534750420811196"><ele>151.0</ele><time>2026-05-01T08:45:06Z</time></trkpt><trkpt lat="40.31461283607796" lon="9.534606534170484"><ele>151.0</ele><time>2026-05-01T08:45:07Z</time></trkpt><trkpt lat="40.3145391182142" lon="9.53448578603597"><ele>149.25</ele><time>2026-05-01T08:45:08Z</time></trkpt><trkpt lat="40.314437792076625" lon="9.534416359142204"><ele>147.5</ele><time>2026-05-01T08:45:09Z</time></trkpt><trkpt lat="40.314320528024844" lon="9.534387908273443"><ele>145.75</ele><time>2026-05-01T08:45:10Z</time></trkpt><trkpt lat="40.31417171347516" lon="9.534367691532593"><ele>144.0</ele><time>2026-05-01T08:45:11Z</time></trkpt><trkpt lat="40.31402136442172" lon="9.534329463636944"><ele>143.5</ele><time>2026-05-01T08:45:12Z</time></trkpt><trkpt lat="40.313865389724384" lon="9.534242569288859"><ele>143.0</ele><time>2026-05-01T08:45:13Z</time></trkpt><trkpt lat="40.3137315241284" lon="9.534229044388589"><ele>142.5</ele><time>2026-05-01T08:45:14Z</time></trkpt><trkpt lat="40.31360054588454" lon="9.534211588524899"><ele>142.0</ele><time>2026-05-01T08:45:15Z</time></trkpt><trkpt lat="40.31321537970925" lon="9.534206829077272"><ele>141.33333333333334</ele><time>2026-05-01T08:45:16Z</time></trkpt><trkpt lat="40.313003304507596" lon="9.534192601083053"><ele>140.66666666666666</ele><time>2026-05-01T08:45:17Z</time></trkpt><trkpt lat="40.31280616153683" lon="9.534182081020587"><ele>140.0</ele><time>2026-05-01T08:45:18Z</time></trkpt><trkpt lat="40.31259797192506" lon="9.53418499539098"><ele>140.0</ele><time>2026-05-01T08:45:19Z</time></trkpt><trkpt lat="40.312408984911805" lon="9.534196092205194"><ele>140.0</ele><time>2026-05-01T08:45:20Z</time></trkpt><trkpt lat="40.312238816210126" lon="9.534216960843539"><ele>140.0</ele><time>2026-05-01T08:45:21Z</time></trkpt><trkpt lat="40.31210490258134" lon="9.534166682328744"><ele>139.75</ele><time>2026-05-01T08:45:22Z</time></trkpt><trkpt lat="40.31202635293987" lon="9.53406551382238"><ele>139.5</ele><time>2026-05-01T08:45:23Z</time></trkpt><trkpt lat="40.31193584086305" lon="9.533944439347398"><ele>139.25</ele><time>2026-05-01T08:45:24Z</time></trkpt><trkpt lat="40.31188737221667" lon="9.533778697365275"><ele>139.0</ele><time>2026-05-01T08:45:25Z</time></trkpt><trkpt lat="40.311810645861364" lon="9.533668237823644"><ele>139.0</ele><time>2026-05-01T08:45:26Z</time></trkpt><trkpt lat="40.31168919304641" lon="9.533662768947849"><ele>139.0</ele><time>2026-05-01T08:45:27Z</time></trkpt><trkpt lat="40.31158418897082" lon="9.5337054476024"><ele>139.0</ele><time>2026-05-01T08:45:28Z</time></trkpt><trkpt lat="40.31146658477566" lon="9.53380767753346"><ele>139.0</ele><time>2026-05-01T08:45:29Z</time></trkpt><trkpt lat="40.31131956788518" lon="9.53394184251614"><ele>139.0</ele><time>2026-05-01T08:45:30Z</time></trkpt><trkpt lat="40.31117497613389" lon="9.53407948392687"><ele>139.0</ele><time>2026-05-01T08:45:31Z</time></trkpt><trkpt lat="40.311045365224146" lon="9.53423991488238"><ele>139.0</ele><time>2026-05-01T08:45:32Z</time></trkpt><trkpt lat="40.310964085981055" lon="9.534437274865667"><ele>137.66666666666669</ele><time>2026-05-01T08:45:33Z</time></trkpt><trkpt lat="40.310886312464916" lon="9.534689119739127"><ele>136.33333333333334</ele><time>2026-05-01T08:45:34Z</time></trkpt><trkpt lat="40.310794782990286" lon="9.534964297356796"><ele>135.0</ele><time>2026-05-01T08:45:35Z</time></trkpt><trkpt lat="40.31070429110232" lon="9.535214068018204"><ele>134.33333333333334</ele><time>2026-05-01T08:45:36Z</time></trkpt><trkpt lat="40.310622453248776" lon="9.535434011651848"><ele>133.66666666666669</ele><time>2026-05-01T08:45:37Z</time></trkpt><trkpt lat="40.3105420080234" lon="9.535631625206891"><ele>133.0</ele><time>2026-05-01T08:45:38Z</time></trkpt><trkpt lat="40.310457596524046" lon="9.535812776343501"><ele>131.33333333333334</ele><time>2026-05-01T08:45:39Z</time></trkpt><trkpt lat="40.31033706210483" lon="9.535963687663708"><ele>129.66666666666666</ele><time>2026-05-01T08:45:40Z</time></trkpt><trkpt lat="40.31021006675173" lon="9.536103453279301"><ele>128.0</ele><time>2026-05-01T08:45:41Z</time></trkpt><trkpt lat="40.31006748704628" lon="9.536225437818828"><ele>128.0</ele><time>2026-05-01T08:45:42Z</time></trkpt><trkpt lat="40.309911744594274" lon="9.53632442341462"><ele>128.0</ele><time>2026-05-01T08:45:43Z</time></trkpt><trkpt lat="40.3097524316806" lon="9.53642655860378"><ele>128.0</ele><time>2026-05-01T08:45:44Z</time></trkpt><trkpt lat="40.30959003241445" lon="9.53651090930001"><ele>132.33333333333331</ele><time>2026-05-01T08:45:45Z</time></trkpt><trkpt lat="40.30943240295093" lon="9.536600033111608"><ele>136.66666666666666</ele><time>2026-05-01T08:45:46Z</time></trkpt><trkpt lat="40.30928462460441" lon="9.536718676467025"><ele>141.0</ele><time>2026-05-01T08:45:47Z</time></trkpt><trkpt lat="40.30915710478818" lon="9.536894319612129"><ele>144.0</ele><time>2026-05-01T08:45:48Z</time></trkpt><trkpt lat="40.30904665450358" lon="9.537109700974627"><ele>147.0</ele><time>2026-05-01T08:45:49Z</time></trkpt><trkpt lat="40.30893210584593" lon="9.537329172073727"><ele>150.0</ele><time>2026-05-01T08:45:50Z</time></trkpt><trkpt lat="40.30880974995156" lon="9.537540646826786"><ele>150.0</ele><time>2026-05-01T08:45:51Z</time></trkpt><trkpt lat="40.3086862359607" lon="9.537751901707232"><ele>150.0</ele><time>2026-05-01T08:45:52Z</time></trkpt><trkpt lat="40.30856289374036" lon="9.537960068701333"><ele>150.0</ele><time>2026-05-01T08:45:53Z</time></trkpt><trkpt lat="40.308446381138644" lon="9.538168990828929"><ele>144.0</ele><time>2026-05-01T08:45:54Z</time></trkpt><trkpt lat="40.308339243417564" lon="9.538358246549727"><ele>138.0</ele><time>2026-05-01T08:45:55Z</time></trkpt><trkpt lat="40.30823507016603" lon="9.53852506791672"><ele>132.0</ele><time>2026-05-01T08:45:56Z</time></trkpt><trkpt lat="40.30809958340727" lon="9.538610976650395"><ele>135.0</ele><time>2026-05-01T08:45:57Z</time></trkpt><trkpt lat="40.307958401873655" lon="9.538647858122998"><ele>138.0</ele><time>2026-05-01T08:45:58Z</time></trkpt><trkpt lat="40.30780612852421" lon="9.53862350899321"><ele>141.0</ele><time>2026-05-01T08:45:59Z</time></trkpt><trkpt lat="40.30762895411486" lon="9.538581573013705"><ele>141.0</ele><time>2026-05-01T08:46:00Z</time></trkpt><trkpt lat="40.307443813095944" lon="9.538551864079134"><ele>141.0</ele><time>2026-05-01T08:46:01Z</time></trkpt><trkpt lat="40.30726422129289" lon="9.538502938791238"><ele>141.0</ele><time>2026-05-01T08:46:02Z</time></trkpt><trkpt lat="40.30710262605868" lon="9.53846490865526"><ele>140.25</ele><time>2026-05-01T08:46:03Z</time></trkpt><trkpt lat="40.30695550149031" lon="9.53845867873949"><ele>139.5</ele><time>2026-05-01T08:46:04Z</time></trkpt><trkpt lat="40.30681834637578" lon="9.538519838206165"><ele>138.75</ele><time>2026-05-01T08:46:05Z</time></trkpt><trkpt lat="40.30670736936742" lon="9.538640867647818"><ele>138.0</ele><time>2026-05-01T08:46:06Z</time></trkpt><trkpt lat="40.3066431311693" lon="9.538823690645156"><ele>127.66666666666666</ele><time>2026-05-01T08:46:07Z</time></trkpt><trkpt lat="40.306606690456064" lon="9.539033858415856"><ele>117.33333333333333</ele><time>2026-05-01T08:46:08Z</time></trkpt><trkpt lat="40.306572946605584" lon="9.539254393265342"><ele>107.0</ele><time>2026-05-01T08:46:09Z</time></trkpt><trkpt lat="40.30652826394522" lon="9.539483963530728"><ele>106.0</ele><time>2026-05-01T08:46:10Z</time></trkpt><trkpt lat="40.30649191208049" lon="9.539718174311629"><ele>105.0</ele><time>2026-05-01T08:46:11Z</time></trkpt><trkpt lat="40.306454158644044" lon="9.539891673936868"><ele>104.0</ele><time>2026-05-01T08:46:12Z</time></trkpt><trkpt lat="40.30642109517367" lon="9.540050644072478"><ele>103.0</ele><time>2026-05-01T08:46:13Z</time></trkpt><trkpt lat="40.306395372922594" lon="9.540190402659523"><ele>103.0</ele><time>2026-05-01T08:46:14Z</time></trkpt><trkpt lat="40.306368149624504" lon="9.54031286463442"><ele>103.0</ele><time>2026-05-01T08:46:15Z</time></trkpt><trkpt lat="40.30634481220433" lon="9.540427598200454"><ele>103.0</ele><time>2026-05-01T08:46:16Z</time></trkpt><trkpt lat="40.306328198016736" lon="9.540545412620702"><ele>103.0</ele><time>2026-05-01T08:46:17Z</time></trkpt><trkpt lat="40.30630566481957" lon="9.540670734400809"><ele>103.0</ele><time>2026-05-01T08:46:18Z</time></trkpt><trkpt lat="40.3062792235173" lon="9.540800171368275"><ele>107.25</ele><time>2026-05-01T08:46:19Z</time></trkpt><trkpt lat="40.30625335371273" lon="9.54093766027639"><ele>111.5</ele><time>2026-05-01T08:46:20Z</time></trkpt><trkpt lat="40.30621582240382" lon="9.541082397388784"><ele>115.75</ele><time>2026-05-01T08:46:21Z</time></trkpt><trkpt lat="40.30617201722784" lon="9.541230570568809"><ele>120.0</ele><time>2026-05-01T08:46:22Z</time></trkpt><trkpt lat="40.30612360044373" lon="9.541374214128647"><ele>128.0</ele><time>2026-05-01T08:46:23Z</time></trkpt><trkpt lat="40.306051940948684" lon="9.541492580320359"><ele>136.0</ele><time>2026-05-01T08:46:24Z</time></trkpt><trkpt lat="40.3059750497465" lon="9.541575087660593"><ele>144.0</ele><time>2026-05-01T08:46:25Z</time></trkpt><trkpt lat="40.305858585956976" lon="9.541596753998851"><ele>152.0</ele><time>2026-05-01T08:46:26Z</time></trkpt><trkpt lat="40.30570967170896" lon="9.541576688374901"><ele>155.0</ele><time>2026-05-01T08:46:27Z</time></trkpt><trkpt lat="40.30555386884573" lon="9.5415025661245"><ele>158.0</ele><time>2026-05-01T08:46:28Z</time></trkpt><trkpt lat="40.30539256842001" lon="9.541384338453264"><ele>161.0</ele><time>2026-05-01T08:46:29Z</time></trkpt><trkpt lat="40.30520935709863" lon="9.541247272774841"><ele>147.5</ele><time>2026-05-01T08:46:30Z</time></trkpt><trkpt lat="40.30503232736292" lon="9.541062344056861"><ele>134.0</ele><time>2026-05-01T08:46:31Z</time></trkpt><trkpt lat="40.30485092573563" lon="9.540887853642035"><ele>140.0</ele><time>2026-05-01T08:46:32Z</time></trkpt><trkpt lat="40.30467108929342" lon="9.54072465895599"><ele>146.0</ele><time>2026-05-01T08:46:33Z</time></trkpt><trkpt lat="40.30453976239584" lon="9.540585221837643"><ele>152.0</ele><time>2026-05-01T08:46:34Z</time></trkpt><trkpt lat="40.30440194439858" lon="9.540559224812931"><ele>152.0</ele><time>2026-05-01T08:46:35Z</time></trkpt><trkpt lat="40.30423600985254" lon="9.540574249444315"><ele>152.0</ele><time>2026-05-01T08:46:36Z</time></trkpt><trkpt lat="40.304072088131164" lon="9.540647578539014"><ele>152.0</ele><time>2026-05-01T08:46:37Z</time></trkpt><trkpt lat="40.303925164118525" lon="9.540781853466356"><ele>153.33333333333331</ele><time>2026-05-01T08:46:38Z</time></trkpt><trkpt lat="40.30379147130319" lon="9.54097131522954"><ele>154.66666666666666</ele><time>2026-05-01T08:46:39Z</time></trkpt><trkpt lat="40.30366285040595" lon="9.541179377230222"><ele>156.0</ele><time>2026-05-01T08:46:40Z</time></trkpt><trkpt lat="40.30353098419103" lon="9.541366857624475"><ele>156.0</ele><time>2026-05-01T08:46:41Z</time></trkpt><trkpt lat="40.303403647831814" lon="9.54151057331449"><ele>156.0</ele><time>2026-05-01T08:46:42Z</time></trkpt><trkpt lat="40.30332078309697" lon="9.541606203546397"><ele>156.0</ele><time>2026-05-01T08:46:43Z</time></trkpt><trkpt lat="40.30325442530349" lon="9.541702681319439"><ele>156.0</ele><time>2026-05-01T08:46:45Z</time></trkpt><trkpt lat="40.30319073744874" lon="9.54174731522863"><ele>156.0</ele><time>2026-05-01T08:46:50Z</time></trkpt><trkpt lat="40.30312053414616" lon="9.541896174413667"><ele>156.0</ele><time>2026-05-01T08:56:23Z</time></trkpt><trkpt lat="40.30303926378105" lon="9.542000278224045"><ele>156.0</ele><time>2026-05-01T08:56:26Z</time></trkpt><trkpt lat="40.30298846941323" lon="9.542068209020183"><ele>156.0</ele><time>2026-05-01T08:56:27Z</time></trkpt><trkpt lat="40.3029381061653" lon="9.542135600662734"><ele>156.0</ele><time>2026-05-01T08:56:28Z</time></trkpt><trkpt lat="40.30288593023413" lon="9.542201945203244"><ele>156.5</ele><time>2026-05-01T08:56:29Z</time></trkpt><trkpt lat="40.30280009084277" lon="9.542314197539698"><ele>157.0</ele><time>2026-05-01T08:56:31Z</time></trkpt><trkpt lat="40.30274981469643" lon="9.542381724616805"><ele>157.5</ele><time>2026-05-01T08:56:32Z</time></trkpt><trkpt lat="40.3026947831301" lon="9.542460205119294"><ele>158.0</ele><time>2026-05-01T08:56:33Z</time></trkpt><trkpt lat="40.302643322281114" lon="9.54254365025726"><ele>158.5</ele><time>2026-05-01T08:56:34Z</time></trkpt><trkpt lat="40.30260138905483" lon="9.542630068391022"><ele>159.0</ele><time>2026-05-01T08:56:35Z</time></trkpt><trkpt lat="40.30256580440969" lon="9.542719008533247"><ele>159.0</ele><time>2026-05-01T08:56:36Z</time></trkpt><trkpt lat="40.302518672082165" lon="9.542804747663473"><ele>159.0</ele><time>2026-05-01T08:56:37Z</time></trkpt><trkpt lat="40.302487509745845" lon="9.542900421973115"><ele>159.0</ele><time>2026-05-01T08:56:38Z</time></trkpt><trkpt lat="40.30247780235441" lon="9.542992803587435"><ele>159.0</ele><time>2026-05-01T08:56:39Z</time></trkpt><trkpt lat="40.30244501247443" lon="9.543080522238938"><ele>159.0</ele><time>2026-05-01T08:56:40Z</time></trkpt><trkpt lat="40.30242681464853" lon="9.543177383637564"><ele>159.0</ele><time>2026-05-01T08:56:41Z</time></trkpt><trkpt lat="40.302414515150836" lon="9.543272116062292"><ele>160.7142857142857</ele><time>2026-05-01T08:56:42Z</time></trkpt><trkpt lat="40.30240825444058" lon="9.543364171873034"><ele>162.42857142857144</ele><time>2026-05-01T08:56:43Z</time></trkpt><trkpt lat="40.30240802721146" lon="9.5434519454406"><ele>164.14285714285714</ele><time>2026-05-01T08:56:44Z</time></trkpt><trkpt lat="40.302427123334226" lon="9.543536554414265"><ele>165.85714285714283</ele><time>2026-05-01T08:56:45Z</time></trkpt><trkpt lat="40.30243277989262" lon="9.543628336808295"><ele>167.57142857142856</ele><time>2026-05-01T08:56:46Z</time></trkpt><trkpt lat="40.30244486239292" lon="9.543724893519785"><ele>169.28571428571428</ele><time>2026-05-01T08:56:47Z</time></trkpt><trkpt lat="40.30246600194589" lon="9.543821845852593"><ele>171.0</ele><time>2026-05-01T08:56:48Z</time></trkpt><trkpt lat="40.30248937065936" lon="9.543916727222895"><ele>171.33333333333334</ele><time>2026-05-01T08:56:49Z</time></trkpt><trkpt lat="40.30251911779758" lon="9.544009650719186"><ele>171.66666666666666</ele><time>2026-05-01T08:56:50Z</time></trkpt><trkpt lat="40.30256707481821" lon="9.54414949927331"><ele>172.0</ele><time>2026-05-01T08:56:52Z</time></trkpt><trkpt lat="40.30260647500274" lon="9.544227402406813"><ele>172.33333333333331</ele><time>2026-05-01T08:56:53Z</time></trkpt><trkpt lat="40.30265545271562" lon="9.544316100135543"><ele>172.66666666666666</ele><time>2026-05-01T08:56:54Z</time></trkpt><trkpt lat="40.30271906276586" lon="9.544414347666352"><ele>173.0</ele><time>2026-05-01T08:56:55Z</time></trkpt><trkpt lat="40.30279379984967" lon="9.544529620420326"><ele>173.0</ele><time>2026-05-01T08:56:56Z</time></trkpt><trkpt lat="40.30287405130604" lon="9.544654859652425"><ele>173.0</ele><time>2026-05-01T08:56:57Z</time></trkpt><trkpt lat="40.30295834787272" lon="9.544787599168107"><ele>173.0</ele><time>2026-05-01T08:56:58Z</time></trkpt><trkpt lat="40.30305855335011" lon="9.544944474921001"><ele>173.0</ele><time>2026-05-01T08:56:59Z</time></trkpt><trkpt lat="40.303163854383044" lon="9.545108838203646"><ele>174.0</ele><time>2026-05-01T08:57:00Z</time></trkpt><trkpt lat="40.30327629043574" lon="9.545281908190349"><ele>175.0</ele><time>2026-05-01T08:57:01Z</time></trkpt><trkpt lat="40.303392233337966" lon="9.545461112269574"><ele>176.0</ele><time>2026-05-01T08:57:02Z</time></trkpt><trkpt lat="40.303510115842094" lon="9.54564723332533"><ele>176.66666666666666</ele><time>2026-05-01T08:57:03Z</time></trkpt><trkpt lat="40.30363470518971" lon="9.545842112902474"><ele>177.33333333333334</ele><time>2026-05-01T08:57:04Z</time></trkpt><trkpt lat="40.303765422032065" lon="9.54604601154115"><ele>178.0</ele><time>2026-05-01T08:57:05Z</time></trkpt><trkpt lat="40.30389987193524" lon="9.546256254027407"><ele>179.0</ele><time>2026-05-01T08:57:06Z</time></trkpt><trkpt lat="40.30403449499328" lon="9.546466258075304"><ele>180.0</ele><time>2026-05-01T08:57:07Z</time></trkpt><trkpt lat="40.30416407628793" lon="9.546671042496062"><ele>181.0</ele><time>2026-05-01T08:57:08Z</time></trkpt><trkpt lat="40.30428563633307" lon="9.546856110763205"><ele>181.0</ele><time>2026-05-01T08:57:09Z</time></trkpt><trkpt lat="40.304406262929064" lon="9.547026132112405"><ele>181.0</ele><time>2026-05-01T08:57:10Z</time></trkpt><trkpt lat="40.30453589249606" lon="9.54718933742316"><ele>181.0</ele><time>2026-05-01T08:57:11Z</time></trkpt><trkpt lat="40.30468758221472" lon="9.547327135341332"><ele>183.33333333333334</ele><time>2026-05-01T08:57:12Z</time></trkpt><trkpt lat="40.30481663540578" lon="9.547469514411734"><ele>185.66666666666666</ele><time>2026-05-01T08:57:13Z</time></trkpt><trkpt lat="40.30492421678432" lon="9.547605079605978"><ele>188.0</ele><time>2026-05-01T08:57:14Z</time></trkpt><trkpt lat="40.305023891288" lon="9.547759098374524"><ele>188.0</ele><time>2026-05-01T08:57:15Z</time></trkpt><trkpt lat="40.30510721985734" lon="9.547935577436068"><ele>188.0</ele><time>2026-05-01T08:57:16Z</time></trkpt><trkpt lat="40.305149855192894" lon="9.54814125540689"><ele>188.0</ele><time>2026-05-01T08:57:17Z</time></trkpt><trkpt lat="40.30520177643597" lon="9.54835430921998"><ele>188.0</ele><time>2026-05-01T08:57:18Z</time></trkpt><trkpt lat="40.30526708676357" lon="9.548571477039992"><ele>188.0</ele><time>2026-05-01T08:57:19Z</time></trkpt><trkpt lat="40.30531869779611" lon="9.548785235788975"><ele>188.0</ele><time>2026-05-01T08:57:20Z</time></trkpt><trkpt lat="40.3053861616986" lon="9.54898572835694"><ele>188.66666666666666</ele><time>2026-05-01T08:57:21Z</time></trkpt><trkpt lat="40.30548133438934" lon="9.549170535853952"><ele>189.33333333333334</ele><time>2026-05-01T08:57:22Z</time></trkpt><trkpt lat="40.305615642806416" lon="9.549348256155058"><ele>190.0</ele><time>2026-05-01T08:57:23Z</time></trkpt><trkpt lat="40.30573694787657" lon="9.54954184366231"><ele>192.33333333333334</ele><time>2026-05-01T08:57:24Z</time></trkpt><trkpt lat="40.305833337606224" lon="9.549765985515442"><ele>194.66666666666669</ele><time>2026-05-01T08:57:25Z</time></trkpt><trkpt lat="40.30592684728739" lon="9.549996612444469"><ele>197.0</ele><time>2026-05-01T08:57:26Z</time></trkpt><trkpt lat="40.30603087264534" lon="9.550227052637961"><ele>199.33333333333334</ele><time>2026-05-01T08:57:27Z</time></trkpt><trkpt lat="40.30614309273305" lon="9.550451284176855"><ele>201.66666666666669</ele><time>2026-05-01T08:57:28Z</time></trkpt><trkpt lat="40.306269805611244" lon="9.550664143275892"><ele>204.0</ele><time>2026-05-01T08:57:29Z</time></trkpt><trkpt lat="40.306401925145124" lon="9.550868670819208"><ele>204.66666666666669</ele><time>2026-05-01T08:57:30Z</time></trkpt><trkpt lat="40.306513543972855" lon="9.551088305062555"><ele>205.33333333333334</ele><time>2026-05-01T08:57:31Z</time></trkpt><trkpt lat="40.30660200974117" lon="9.551352901526197"><ele>206.0</ele><time>2026-05-01T08:57:32Z</time></trkpt><trkpt lat="40.3066767947102" lon="9.551630902891686"><ele>206.0</ele><time>2026-05-01T08:57:33Z</time></trkpt><trkpt lat="40.30675736958322" lon="9.551896230932726"><ele>206.0</ele><time>2026-05-01T08:57:34Z</time></trkpt><trkpt lat="40.30683780108677" lon="9.552155970250265"><ele>206.0</ele><time>2026-05-01T08:57:35Z</time></trkpt><trkpt lat="40.30691480267123" lon="9.55241305073179"><ele>207.66666666666669</ele><time>2026-05-01T08:57:36Z</time></trkpt><trkpt lat="40.306986204921486" lon="9.552675030348464"><ele>209.33333333333331</ele><time>2026-05-01T08:57:37Z</time></trkpt><trkpt lat="40.30706296657236" lon="9.552932307351774"><ele>211.0</ele><time>2026-05-01T08:57:38Z</time></trkpt><trkpt lat="40.30714299864142" lon="9.553192863778035"><ele>212.66666666666666</ele><time>2026-05-01T08:57:39Z</time></trkpt><trkpt lat="40.30722608477697" lon="9.553457880317259"><ele>214.33333333333331</ele><time>2026-05-01T08:57:40Z</time></trkpt><trkpt lat="40.30730623259635" lon="9.553721778707503"><ele>216.0</ele><time>2026-05-01T08:57:41Z</time></trkpt><trkpt lat="40.30738289216962" lon="9.553984301763059"><ele>216.0</ele><time>2026-05-01T08:57:42Z</time></trkpt><trkpt lat="40.307451690236" lon="9.5542485695788"><ele>216.0</ele><time>2026-05-01T08:57:43Z</time></trkpt><trkpt lat="40.30749713140059" lon="9.554516693072227"><ele>216.0</ele><time>2026-05-01T08:57:44Z</time></trkpt><trkpt lat="40.307514510112156" lon="9.554787249080592"><ele>217.0</ele><time>2026-05-01T08:57:45Z</time></trkpt><trkpt lat="40.307489250905654" lon="9.555038330447823"><ele>218.0</ele><time>2026-05-01T08:57:46Z</time></trkpt><trkpt lat="40.307458468529155" lon="9.555297302800854"><ele>219.0</ele><time>2026-05-01T08:57:47Z</time></trkpt><trkpt lat="40.30742335825094" lon="9.55555833836422"><ele>219.0</ele><time>2026-05-01T08:57:48Z</time></trkpt><trkpt lat="40.3073349905351" lon="9.555798329326052"><ele>219.0</ele><time>2026-05-01T08:57:49Z</time></trkpt><trkpt lat="40.30726939938052" lon="9.556048455970656"><ele>219.0</ele><time>2026-05-01T08:57:50Z</time></trkpt><trkpt lat="40.307186278754315" lon="9.5562855728579"><ele>221.0</ele><time>2026-05-01T08:57:51Z</time></trkpt><trkpt lat="40.30710593231253" lon="9.556520555213725"><ele>223.0</ele><time>2026-05-01T08:57:52Z</time></trkpt><trkpt lat="40.30702711068121" lon="9.55675028981683"><ele>225.0</ele><time>2026-05-01T08:57:53Z</time></trkpt><trkpt lat="40.30695095935475" lon="9.556975810787986"><ele>225.0</ele><time>2026-05-01T08:57:54Z</time></trkpt><trkpt lat="40.306873531707204" lon="9.557197310837365"><ele>225.0</ele><time>2026-05-01T08:57:55Z</time></trkpt><trkpt lat="40.30679135527766" lon="9.557414034557425"><ele>225.0</ele><time>2026-05-01T08:57:56Z</time></trkpt><trkpt lat="40.306704559340126" lon="9.557629320739892"><ele>225.0</ele><time>2026-05-01T08:57:57Z</time></trkpt><trkpt lat="40.3066108448749" lon="9.557843261679345"><ele>225.0</ele><time>2026-05-01T08:57:58Z</time></trkpt><trkpt lat="40.30651387049555" lon="9.558054887109389"><ele>225.0</ele><time>2026-05-01T08:57:59Z</time></trkpt><trkpt lat="40.30643070520489" lon="9.558273389402922"><ele>225.33333333333331</ele><time>2026-05-01T08:58:00Z</time></trkpt><trkpt lat="40.30642165214807" lon="9.558524272129306"><ele>225.66666666666666</ele><time>2026-05-01T08:58:01Z</time></trkpt><trkpt lat="40.306346230423074" lon="9.558749552619304"><ele>226.0</ele><time>2026-05-01T08:58:02Z</time></trkpt><trkpt lat="40.30626394155637" lon="9.558989137650364"><ele>228.0</ele><time>2026-05-01T08:58:03Z</time></trkpt><trkpt lat="40.30617830138467" lon="9.55923846834184"><ele>230.0</ele><time>2026-05-01T08:58:04Z</time></trkpt><trkpt lat="40.30609608351568" lon="9.559479760203002"><ele>232.0</ele><time>2026-05-01T08:58:05Z</time></trkpt><trkpt lat="40.306010956027464" lon="9.55973540976889"><ele>232.0</ele><time>2026-05-01T08:58:06Z</time></trkpt><trkpt lat="40.30592441781625" lon="9.559992200971626"><ele>232.0</ele><time>2026-05-01T08:58:07Z</time></trkpt><trkpt lat="40.30583633503631" lon="9.560255504290465"><ele>232.0</ele><time>2026-05-01T08:58:08Z</time></trkpt><trkpt lat="40.305746450978894" lon="9.560523871658484"><ele>232.0</ele><time>2026-05-01T08:58:09Z</time></trkpt><trkpt lat="40.305652689737606" lon="9.560794825002176"><ele>232.0</ele><time>2026-05-01T08:58:10Z</time></trkpt><trkpt lat="40.305558772552644" lon="9.561066882612376"><ele>234.5</ele><time>2026-05-01T08:58:11Z</time></trkpt><trkpt lat="40.30546711344673" lon="9.561337938230736"><ele>237.0</ele><time>2026-05-01T08:58:12Z</time></trkpt><trkpt lat="40.30537609577906" lon="9.561612293061652"><ele>237.0</ele><time>2026-05-01T08:58:13Z</time></trkpt><trkpt lat="40.305284440590185" lon="9.561887567060786"><ele>237.0</ele><time>2026-05-01T08:58:14Z</time></trkpt><trkpt lat="40.30518732598516" lon="9.562160569168984"><ele>237.0</ele><time>2026-05-01T08:58:15Z</time></trkpt><trkpt lat="40.30509387943509" lon="9.56242851984382"><ele>237.0</ele><time>2026-05-01T08:58:16Z</time></trkpt><trkpt lat="40.305004827704366" lon="9.562694310771386"><ele>237.0</ele><time>2026-05-01T08:58:17Z</time></trkpt><trkpt lat="40.30491438509966" lon="9.562953827455171"><ele>237.66666666666669</ele><time>2026-05-01T08:58:18Z</time></trkpt><trkpt lat="40.30482781538154" lon="9.563209928408279"><ele>238.33333333333334</ele><time>2026-05-01T08:58:19Z</time></trkpt><trkpt lat="40.304744394875016" lon="9.563452402220411"><ele>239.0</ele><time>2026-05-01T08:58:20Z</time></trkpt><trkpt lat="40.304666384653935" lon="9.56368342077871"><ele>240.66666666666669</ele><time>2026-05-01T08:58:21Z</time></trkpt><trkpt lat="40.3045856542853" lon="9.563919102055614"><ele>242.33333333333331</ele><time>2026-05-01T08:58:22Z</time></trkpt><trkpt lat="40.30450496458048" lon="9.564150979000484"><ele>244.0</ele><time>2026-05-01T08:58:23Z</time></trkpt><trkpt lat="40.30443155133765" lon="9.564356852359033"><ele>245.0</ele><time>2026-05-01T08:58:24Z</time></trkpt><trkpt lat="40.30436074601181" lon="9.564552982931104"><ele>246.0</ele><time>2026-05-01T08:58:25Z</time></trkpt><trkpt lat="40.30430285830474" lon="9.564734756567336"><ele>247.0</ele><time>2026-05-01T08:58:26Z</time></trkpt><trkpt lat="40.30425662857922" lon="9.564924425006074"><ele>247.0</ele><time>2026-05-01T08:58:27Z</time></trkpt><trkpt lat="40.30423474744606" lon="9.565126572912927"><ele>247.0</ele><time>2026-05-01T08:58:28Z</time></trkpt><trkpt lat="40.304245276790354" lon="9.565332595250382"><ele>247.0</ele><time>2026-05-01T08:58:29Z</time></trkpt><trkpt lat="40.30427928701749" lon="9.565534449619733"><ele>248.0</ele><time>2026-05-01T08:58:30Z</time></trkpt><trkpt lat="40.30430521771446" lon="9.565721249029721"><ele>249.0</ele><time>2026-05-01T08:58:31Z</time></trkpt><trkpt lat="40.30430570735696" lon="9.565901862312606"><ele>250.0</ele><time>2026-05-01T08:58:32Z</time></trkpt><trkpt lat="40.30429360256862" lon="9.566057537479496"><ele>251.0</ele><time>2026-05-01T08:58:33Z</time></trkpt><trkpt lat="40.30426383630551" lon="9.566193546361545"><ele>252.0</ele><time>2026-05-01T08:58:34Z</time></trkpt><trkpt lat="40.304222326506356" lon="9.566332951481575"><ele>253.0</ele><time>2026-05-01T08:58:35Z</time></trkpt><trkpt lat="40.30417501228832" lon="9.566485914369371"><ele>254.0</ele><time>2026-05-01T08:58:36Z</time></trkpt><trkpt lat="40.30412162732577" lon="9.566653219199138"><ele>255.0</ele><time>2026-05-01T08:58:37Z</time></trkpt><trkpt lat="40.304068654025926" lon="9.5668358799264"><ele>255.33333333333331</ele><time>2026-05-01T08:58:38Z</time></trkpt><trkpt lat="40.30400743558755" lon="9.567032737729232"><ele>255.66666666666666</ele><time>2026-05-01T08:58:39Z</time></trkpt><trkpt lat="40.30392947995403" lon="9.567249332709112"><ele>256.0</ele><time>2026-05-01T08:58:40Z</time></trkpt><trkpt lat="40.30386570053995" lon="9.56751111389394"><ele>259.5</ele><time>2026-05-01T08:58:41Z</time></trkpt><trkpt lat="40.30378061206405" lon="9.567780043644426"><ele>263.0</ele><time>2026-05-01T08:58:42Z</time></trkpt><trkpt lat="40.30368976210161" lon="9.568075424740837"><ele>264.5</ele><time>2026-05-01T08:58:43Z</time></trkpt><trkpt lat="40.30357411175415" lon="9.568406571712398"><ele>266.0</ele><time>2026-05-01T08:58:44Z</time></trkpt><trkpt lat="40.30346157784699" lon="9.568774910429768"><ele>268.0</ele><time>2026-05-01T08:58:45Z</time></trkpt><trkpt lat="40.30336095172415" lon="9.569104071764487"><ele>270.0</ele><time>2026-05-01T08:58:46Z</time></trkpt><trkpt lat="40.30327719667024" lon="9.569399572763201"><ele>270.3333333333333</ele><time>2026-05-01T08:58:47Z</time></trkpt><trkpt lat="40.30319471386596" lon="9.56966341471515"><ele>270.66666666666663</ele><time>2026-05-01T08:58:48Z</time></trkpt><trkpt lat="40.30313950343548" lon="9.569880024797833"><ele>271.0</ele><time>2026-05-01T08:58:49Z</time></trkpt><trkpt lat="40.303120073053364" lon="9.570080986429115"><ele>271.0</ele><time>2026-05-01T08:58:50Z</time></trkpt><trkpt lat="40.30316610681854" lon="9.570286309507487"><ele>271.0</ele><time>2026-05-01T08:58:51Z</time></trkpt><trkpt lat="40.30325055686715" lon="9.570499055011764"><ele>271.0</ele><time>2026-05-01T08:58:52Z</time></trkpt><trkpt lat="40.30332399063647" lon="9.570691972193304"><ele>272.75</ele><time>2026-05-01T08:58:53Z</time></trkpt><trkpt lat="40.30335984927138" lon="9.570875211023479"><ele>274.5</ele><time>2026-05-01T08:58:54Z</time></trkpt><trkpt lat="40.30333225818995" lon="9.571047732413355"><ele>276.25</ele><time>2026-05-01T08:58:55Z</time></trkpt><trkpt lat="40.30331324305271" lon="9.571200226687912"><ele>278.0</ele><time>2026-05-01T08:58:56Z</time></trkpt><trkpt lat="40.30330356411781" lon="9.571363575893466"><ele>278.25</ele><time>2026-05-01T08:58:57Z</time></trkpt><trkpt lat="40.303280324283485" lon="9.571538021183542"><ele>278.5</ele><time>2026-05-01T08:58:58Z</time></trkpt><trkpt lat="40.303233867239236" lon="9.571714606396924"><ele>278.75</ele><time>2026-05-01T08:58:59Z</time></trkpt><trkpt lat="40.30322057872837" lon="9.571876254737978"><ele>279.0</ele><time>2026-05-01T08:59:00Z</time></trkpt><trkpt lat="40.30317459411468" lon="9.571994537065267"><ele>278.8</ele><time>2026-05-01T08:59:01Z</time></trkpt><trkpt lat="40.3031583083342" lon="9.572084300146841"><ele>278.59999999999997</ele><time>2026-05-01T08:59:02Z</time></trkpt><trkpt lat="40.30307335101415" lon="9.572145830933428"><ele>278.4</ele><time>2026-05-01T08:59:04Z</time></trkpt><trkpt lat="40.30298986480412" lon="9.57212870397004"><ele>278.2</ele><time>2026-05-01T08:59:06Z</time></trkpt><trkpt lat="40.30293648967446" lon="9.571979086050066"><ele>278.0</ele><time>2026-05-01T08:59:08Z</time></trkpt><trkpt lat="40.302886860860504" lon="9.571875038975787"><ele>280.0</ele><time>2026-05-01T08:59:09Z</time></trkpt><trkpt lat="40.30280261443922" lon="9.571780278043562"><ele>282.0</ele><time>2026-05-01T08:59:10Z</time></trkpt><trkpt lat="40.30270444022073" lon="9.571726725842854"><ele>284.0</ele><time>2026-05-01T08:59:11Z</time></trkpt><trkpt lat="40.30259637510783" lon="9.5717145703716"><ele>286.0</ele><time>2026-05-01T08:59:12Z</time></trkpt><trkpt lat="40.30250275870322" lon="9.571703032592826"><ele>288.0</ele><time>2026-05-01T08:59:13Z</time></trkpt><trkpt lat="40.30241550651335" lon="9.57168726250441"><ele>288.0</ele><time>2026-05-01T08:59:14Z</time></trkpt><trkpt lat="40.302315884726724" lon="9.57165886345096"><ele>288.0</ele><time>2026-05-01T08:59:15Z</time></trkpt><trkpt lat="40.30221463012011" lon="9.571644477899097"><ele>288.0</ele><time>2026-05-01T08:59:16Z</time></trkpt><trkpt lat="40.30211009978848" lon="9.571622600715157"><ele>288.0</ele><time>2026-05-01T08:59:17Z</time></trkpt><trkpt lat="40.30200909088274" lon="9.571601112311612"><ele>288.0</ele><time>2026-05-01T08:59:18Z</time></trkpt><trkpt lat="40.30190643585516" lon="9.571563198099684"><ele>289.0</ele><time>2026-05-01T08:59:19Z</time></trkpt><trkpt lat="40.301815751337315" lon="9.571476687843845"><ele>290.0</ele><time>2026-05-01T08:59:20Z</time></trkpt><trkpt lat="40.30171281656125" lon="9.57140054673031"><ele>291.0</ele><time>2026-05-01T08:59:21Z</time></trkpt><trkpt lat="40.30164348460606" lon="9.571270687331296"><ele>292.0</ele><time>2026-05-01T08:59:22Z</time></trkpt><trkpt lat="40.30155953463097" lon="9.571151819051714"><ele>292.0</ele><time>2026-05-01T08:59:23Z</time></trkpt><trkpt lat="40.30148495055448" lon="9.571011309232965"><ele>292.0</ele><time>2026-05-01T08:59:24Z</time></trkpt><trkpt lat="40.30140449783857" lon="9.570889012821445"><ele>292.0</ele><time>2026-05-01T08:59:25Z</time></trkpt><trkpt lat="40.30131137073504" lon="9.570805552892965"><ele>292.0</ele><time>2026-05-01T08:59:26Z</time></trkpt><trkpt lat="40.30119609885856" lon="9.570762544175219"><ele>291.25</ele><time>2026-05-01T08:59:27Z</time></trkpt><trkpt lat="40.30107442678455" lon="9.57079240705405"><ele>290.5</ele><time>2026-05-01T08:59:28Z</time></trkpt><trkpt lat="40.30097946864781" lon="9.570900697561237"><ele>289.75</ele><time>2026-05-01T08:59:29Z</time></trkpt><trkpt lat="40.30091100495877" lon="9.57105969369214"><ele>289.0</ele><time>2026-05-01T08:59:30Z</time></trkpt><trkpt lat="40.300876172683054" lon="9.571260831636925"><ele>291.66666666666663</ele><time>2026-05-01T08:59:31Z</time></trkpt><trkpt lat="40.30085570341288" lon="9.571458419398216"><ele>294.3333333333333</ele><time>2026-05-01T08:59:32Z</time></trkpt><trkpt lat="40.30083144152972" lon="9.571666535346713"><ele>297.0</ele><time>2026-05-01T08:59:33Z</time></trkpt><trkpt lat="40.30079823751609" lon="9.57188735389379"><ele>296.6666666666667</ele><time>2026-05-01T08:59:34Z</time></trkpt><trkpt lat="40.300724636408304" lon="9.572102696424865"><ele>296.33333333333337</ele><time>2026-05-01T08:59:35Z</time></trkpt><trkpt lat="40.30063432007645" lon="9.57231097579786"><ele>296.0</ele><time>2026-05-01T08:59:36Z</time></trkpt><trkpt lat="40.30053218471267" lon="9.572522130689832"><ele>296.0</ele><time>2026-05-01T08:59:37Z</time></trkpt><trkpt lat="40.30042540806372" lon="9.572728862693737"><ele>296.0</ele><time>2026-05-01T08:59:38Z</time></trkpt><trkpt lat="40.30031469293458" lon="9.572918811813025"><ele>296.0</ele><time>2026-05-01T08:59:39Z</time></trkpt><trkpt lat="40.30020719720141" lon="9.573095585698663"><ele>299.0</ele><time>2026-05-01T08:59:40Z</time></trkpt><trkpt lat="40.30011579674347" lon="9.573279845090047"><ele>302.0</ele><time>2026-05-01T08:59:41Z</time></trkpt><trkpt lat="40.300004021422225" lon="9.573440960506973"><ele>305.0</ele><time>2026-05-01T08:59:42Z</time></trkpt><trkpt lat="40.29993499646456" lon="9.573641239051389"><ele>308.0</ele><time>2026-05-01T08:59:43Z</time></trkpt><trkpt lat="40.29988883378576" lon="9.573847494821234"><ele>311.0</ele><time>2026-05-01T08:59:44Z</time></trkpt><trkpt lat="40.299865195174235" lon="9.574063438631153"><ele>314.0</ele><time>2026-05-01T08:59:45Z</time></trkpt><trkpt lat="40.29981995820089" lon="9.57426690424772"><ele>314.0</ele><time>2026-05-01T08:59:46Z</time></trkpt><trkpt lat="40.299777566722064" lon="9.574477612144646"><ele>314.0</ele><time>2026-05-01T08:59:47Z</time></trkpt><trkpt lat="40.29971517362864" lon="9.574687708787437"><ele>314.0</ele><time>2026-05-01T08:59:48Z</time></trkpt><trkpt lat="40.29963288598048" lon="9.574891503611049"><ele>314.33333333333337</ele><time>2026-05-01T08:59:49Z</time></trkpt><trkpt lat="40.299539978136345" lon="9.575098724750413"><ele>314.6666666666667</ele><time>2026-05-01T08:59:50Z</time></trkpt><trkpt lat="40.299448247572826" lon="9.575298421217276"><ele>315.0</ele><time>2026-05-01T08:59:51Z</time></trkpt><trkpt lat="40.29935542650688" lon="9.57550100160726"><ele>317.6666666666667</ele><time>2026-05-01T08:59:52Z</time></trkpt><trkpt lat="40.29926454454739" lon="9.575698586573381"><ele>320.33333333333337</ele><time>2026-05-01T08:59:53Z</time></trkpt><trkpt lat="40.29917406558818" lon="9.575894405552528"><ele>323.0</ele><time>2026-05-01T08:59:54Z</time></trkpt><trkpt lat="40.299085119984" lon="9.576090212378064"><ele>324.33333333333337</ele><time>2026-05-01T08:59:55Z</time></trkpt><trkpt lat="40.29899899694822" lon="9.576284779445059"><ele>325.6666666666667</ele><time>2026-05-01T08:59:56Z</time></trkpt><trkpt lat="40.29893423923269" lon="9.576492742201689"><ele>327.0</ele><time>2026-05-01T08:59:57Z</time></trkpt><trkpt lat="40.29886123196813" lon="9.576694936848051"><ele>327.0</ele><time>2026-05-01T08:59:58Z</time></trkpt><trkpt lat="40.29876405356855" lon="9.57688171871591"><ele>327.0</ele><time>2026-05-01T08:59:59Z</time></trkpt><trkpt lat="40.29865949808771" lon="9.577075313921156"><ele>327.0</ele><time>2026-05-01T09:00:00Z</time></trkpt><trkpt lat="40.298547960375444" lon="9.577248373237687"><ele>328.6666666666667</ele><time>2026-05-01T09:00:01Z</time></trkpt><trkpt lat="40.29842736444832" lon="9.577426933777284"><ele>330.33333333333337</ele><time>2026-05-01T09:00:02Z</time></trkpt><trkpt lat="40.29831379223142" lon="9.577587827358693"><ele>332.0</ele><time>2026-05-01T09:00:03Z</time></trkpt><trkpt lat="40.298199552065014" lon="9.577697097791708"><ele>332.75</ele><time>2026-05-01T09:00:04Z</time></trkpt><trkpt lat="40.29807339960075" lon="9.577748471444073"><ele>333.5</ele><time>2026-05-01T09:00:05Z</time></trkpt><trkpt lat="40.29793554708872" lon="9.577727137924466"><ele>334.25</ele><time>2026-05-01T09:00:06Z</time></trkpt><trkpt lat="40.297816276746275" lon="9.577625799616166"><ele>335.0</ele><time>2026-05-01T09:00:07Z</time></trkpt><trkpt lat="40.29770062871549" lon="9.577489090103503"><ele>335.0</ele><time>2026-05-01T09:00:08Z</time></trkpt><trkpt lat="40.297568957463604" lon="9.57739085286208"><ele>335.0</ele><time>2026-05-01T09:00:09Z</time></trkpt><trkpt lat="40.29744652757814" lon="9.577350302968316"><ele>335.0</ele><time>2026-05-01T09:00:10Z</time></trkpt><trkpt lat="40.29730388679782" lon="9.577407896175172"><ele>335.0</ele><time>2026-05-01T09:00:11Z</time></trkpt><trkpt lat="40.297164526006085" lon="9.577490966279928"><ele>336.0</ele><time>2026-05-01T09:00:12Z</time></trkpt><trkpt lat="40.297018114872" lon="9.577579565384418"><ele>337.0</ele><time>2026-05-01T09:00:13Z</time></trkpt><trkpt lat="40.296879768119915" lon="9.577670935834023"><ele>338.0</ele><time>2026-05-01T09:00:14Z</time></trkpt><trkpt lat="40.29675991749588" lon="9.577785261945163"><ele>339.75</ele><time>2026-05-01T09:00:15Z</time></trkpt><trkpt lat="40.29666023655527" lon="9.577929518776557"><ele>341.5</ele><time>2026-05-01T09:00:16Z</time></trkpt><trkpt lat="40.296587524686515" lon="9.57809666879388"><ele>343.25</ele><time>2026-05-01T09:00:17Z</time></trkpt><trkpt lat="40.29652504215548" lon="9.578267222173501"><ele>345.0</ele><time>2026-05-01T09:00:18Z</time></trkpt><trkpt lat="40.29648729596489" lon="9.578446499952081"><ele>345.0</ele><time>2026-05-01T09:00:19Z</time></trkpt><trkpt lat="40.296484649153875" lon="9.578637733099198"><ele>345.0</ele><time>2026-05-01T09:00:20Z</time></trkpt><trkpt lat="40.29649444194859" lon="9.578830076931386"><ele>345.0</ele><time>2026-05-01T09:00:21Z</time></trkpt><trkpt lat="40.29650831221763" lon="9.579018799085032"><ele>345.0</ele><time>2026-05-01T09:00:22Z</time></trkpt><trkpt lat="40.29652859302788" lon="9.579206264189141"><ele>345.0</ele><time>2026-05-01T09:00:23Z</time></trkpt><trkpt lat="40.296549182401854" lon="9.579396665388986"><ele>345.0</ele><time>2026-05-01T09:00:24Z</time></trkpt><trkpt lat="40.296571065689" lon="9.579583959054862"><ele>345.0</ele><time>2026-05-01T09:00:25Z</time></trkpt><trkpt lat="40.29658691310025" lon="9.579768278848546"><ele>345.0</ele><time>2026-05-01T09:00:26Z</time></trkpt><trkpt lat="40.29656573335655" lon="9.579950329099855"><ele>345.5</ele><time>2026-05-01T09:00:27Z</time></trkpt><trkpt lat="40.296544615813" lon="9.580139552520933"><ele>346.0</ele><time>2026-05-01T09:00:28Z</time></trkpt><trkpt lat="40.296441527963346" lon="9.580291058216083"><ele>346.5</ele><time>2026-05-01T09:00:29Z</time></trkpt><trkpt lat="40.29635847098459" lon="9.580451297555483"><ele>347.0</ele><time>2026-05-01T09:00:30Z</time></trkpt><trkpt lat="40.29629381333514" lon="9.580617635608862"><ele>347.25</ele><time>2026-05-01T09:00:31Z</time></trkpt><trkpt lat="40.296224893073166" lon="9.580773958748335"><ele>347.5</ele><time>2026-05-01T09:00:32Z</time></trkpt><trkpt lat="40.29617354941419" lon="9.58094403373253"><ele>347.75</ele><time>2026-05-01T09:00:33Z</time></trkpt><trkpt lat="40.29615481375771" lon="9.581136139363139"><ele>348.0</ele><time>2026-05-01T09:00:34Z</time></trkpt><trkpt lat="40.296139372081676" lon="9.581330058877656"><ele>349.0</ele><time>2026-05-01T09:00:35Z</time></trkpt><trkpt lat="40.29612883296506" lon="9.581523602961573"><ele>350.0</ele><time>2026-05-01T09:00:36Z</time></trkpt><trkpt lat="40.296126567721025" lon="9.581718289966778"><ele>351.0</ele><time>2026-05-01T09:00:37Z</time></trkpt><trkpt lat="40.296135062835866" lon="9.58191612993868"><ele>352.0</ele><time>2026-05-01T09:00:38Z</time></trkpt><trkpt lat="40.296147763795474" lon="9.582115093531845"><ele>352.0</ele><time>2026-05-01T09:00:39Z</time></trkpt><trkpt lat="40.29615996197061" lon="9.582318464049479"><ele>352.0</ele><time>2026-05-01T09:00:40Z</time></trkpt><trkpt lat="40.296172724133754" lon="9.582521412821778"><ele>352.0</ele><time>2026-05-01T09:00:41Z</time></trkpt><trkpt lat="40.29618760307132" lon="9.582724416035214"><ele>353.75</ele><time>2026-05-01T09:00:42Z</time></trkpt><trkpt lat="40.29620070730608" lon="9.582922695139306"><ele>355.5</ele><time>2026-05-01T09:00:43Z</time></trkpt><trkpt lat="40.296213157684285" lon="9.58309796365136"><ele>357.25</ele><time>2026-05-01T09:00:44Z</time></trkpt><trkpt lat="40.296228808778764" lon="9.5832513721437"><ele>359.0</ele><time>2026-05-01T09:00:45Z</time></trkpt><trkpt lat="40.296242097222084" lon="9.583383975620034"><ele>359.0</ele><time>2026-05-01T09:00:46Z</time></trkpt><trkpt lat="40.2962516785521" lon="9.583501817757917"><ele>359.0</ele><time>2026-05-01T09:00:47Z</time></trkpt><trkpt lat="40.296260933995704" lon="9.583615613388648"><ele>359.0</ele><time>2026-05-01T09:00:48Z</time></trkpt><trkpt lat="40.29627530642394" lon="9.583723034267194"><ele>359.0</ele><time>2026-05-01T09:00:49Z</time></trkpt><trkpt lat="40.296309035309164" lon="9.58379440365765"><ele>359.0</ele><time>2026-05-01T09:00:50Z</time></trkpt><trkpt lat="40.29641935182937" lon="9.583788618131488"><ele>359.0</ele><time>2026-05-01T09:00:52Z</time></trkpt><trkpt lat="40.296485862808005" lon="9.58379540611769"><ele>360.83333333333337</ele><time>2026-05-01T09:00:53Z</time></trkpt><trkpt lat="40.296557591694935" lon="9.583791174633097"><ele>362.6666666666667</ele><time>2026-05-01T09:00:54Z</time></trkpt><trkpt lat="40.29662897129309" lon="9.583826617928366"><ele>364.5</ele><time>2026-05-01T09:00:55Z</time></trkpt><trkpt lat="40.2966888727183" lon="9.583889749179372"><ele>366.3333333333333</ele><time>2026-05-01T09:00:56Z</time></trkpt><trkpt lat="40.296745726366474" lon="9.583968140965812"><ele>368.16666666666663</ele><time>2026-05-01T09:00:57Z</time></trkpt><trkpt lat="40.2968006385037" lon="9.584065629942796"><ele>370.0</ele><time>2026-05-01T09:00:58Z</time></trkpt><trkpt lat="40.296854619637514" lon="9.584162831532774"><ele>370.0</ele><time>2026-05-01T09:00:59Z</time></trkpt><trkpt lat="40.29689327131218" lon="9.584282844631394"><ele>370.0</ele><time>2026-05-01T09:01:00Z</time></trkpt><trkpt lat="40.296954023521785" lon="9.584420182431797"><ele>370.0</ele><time>2026-05-01T09:01:01Z</time></trkpt><trkpt lat="40.297013180466195" lon="9.58456753043982"><ele>370.0</ele><time>2026-05-01T09:01:02Z</time></trkpt><trkpt lat="40.297058664250905" lon="9.58468671982836"><ele>370.0</ele><time>2026-05-01T09:01:03Z</time></trkpt><trkpt lat="40.29709604980148" lon="9.584808515705474"><ele>371.0</ele><time>2026-05-01T09:01:04Z</time></trkpt><trkpt lat="40.29713644550747" lon="9.584960001806703"><ele>372.0</ele><time>2026-05-01T09:01:05Z</time></trkpt><trkpt lat="40.29716781900518" lon="9.585150704627956"><ele>373.0</ele><time>2026-05-01T09:01:06Z</time></trkpt><trkpt lat="40.29721337542166" lon="9.585345495408758"><ele>374.0</ele><time>2026-05-01T09:01:07Z</time></trkpt><trkpt lat="40.297241215619884" lon="9.585558262237956"><ele>375.75</ele><time>2026-05-01T09:01:08Z</time></trkpt><trkpt lat="40.29727469656642" lon="9.585757481651378"><ele>377.5</ele><time>2026-05-01T09:01:09Z</time></trkpt><trkpt lat="40.29731243388084" lon="9.585949519336635"><ele>379.25</ele><time>2026-05-01T09:01:10Z</time></trkpt><trkpt lat="40.29733927465929" lon="9.58611410376552"><ele>381.0</ele><time>2026-05-01T09:01:11Z</time></trkpt><trkpt lat="40.29736445052365" lon="9.586271267152652"><ele>382.25</ele><time>2026-05-01T09:01:12Z</time></trkpt><trkpt lat="40.29739132036342" lon="9.586426711483977"><ele>383.5</ele><time>2026-05-01T09:01:13Z</time></trkpt><trkpt lat="40.29742008583989" lon="9.58658412356176"><ele>384.75</ele><time>2026-05-01T09:01:14Z</time></trkpt><trkpt lat="40.297448927878065" lon="9.586747546948361"><ele>386.0</ele><time>2026-05-01T09:01:15Z</time></trkpt><trkpt lat="40.29747326863849" lon="9.586916244783701"><ele>387.0</ele><time>2026-05-01T09:01:16Z</time></trkpt><trkpt lat="40.29748716251308" lon="9.587097854648448"><ele>388.0</ele><time>2026-05-01T09:01:17Z</time></trkpt><trkpt lat="40.29746707928746" lon="9.58727765904395"><ele>389.0</ele><time>2026-05-01T09:01:18Z</time></trkpt><trkpt lat="40.29743187515334" lon="9.587459212891277"><ele>390.0</ele><time>2026-05-01T09:01:19Z</time></trkpt><trkpt lat="40.29736650393271" lon="9.587639916675688"><ele>390.0</ele><time>2026-05-01T09:01:20Z</time></trkpt><trkpt lat="40.29727273500427" lon="9.587815439467276"><ele>390.0</ele><time>2026-05-01T09:01:21Z</time></trkpt><trkpt lat="40.29717446607578" lon="9.58798678153857"><ele>390.0</ele><time>2026-05-01T09:01:22Z</time></trkpt><trkpt lat="40.29708050791073" lon="9.588150951848203"><ele>391.0</ele><time>2026-05-01T09:01:23Z</time></trkpt><trkpt lat="40.29698971655491" lon="9.58830987069145"><ele>392.0</ele><time>2026-05-01T09:01:24Z</time></trkpt><trkpt lat="40.296902709590405" lon="9.588462212614067"><ele>393.0</ele><time>2026-05-01T09:01:25Z</time></trkpt><trkpt lat="40.29681680812312" lon="9.58861272142337"><ele>394.0</ele><time>2026-05-01T09:01:26Z</time></trkpt><trkpt lat="40.296739950385835" lon="9.58876602363689"><ele>395.5</ele><time>2026-05-01T09:01:27Z</time></trkpt><trkpt lat="40.296657456988235" lon="9.588908817940071"><ele>397.0</ele><time>2026-05-01T09:01:28Z</time></trkpt><trkpt lat="40.296585318967466" lon="9.589033388361418"><ele>398.5</ele><time>2026-05-01T09:01:29Z</time></trkpt><trkpt lat="40.296515521645354" lon="9.589156118308043"><ele>400.0</ele><time>2026-05-01T09:01:30Z</time></trkpt><trkpt lat="40.29644320420411" lon="9.58928577246022"><ele>400.0</ele><time>2026-05-01T09:01:31Z</time></trkpt><trkpt lat="40.296362985922386" lon="9.589415917522313"><ele>400.0</ele><time>2026-05-01T09:01:32Z</time></trkpt><trkpt lat="40.2962859936336" lon="9.589549466525588"><ele>400.0</ele><time>2026-05-01T09:01:33Z</time></trkpt><trkpt lat="40.29621168964206" lon="9.589682392171031"><ele>400.0</ele><time>2026-05-01T09:01:34Z</time></trkpt><trkpt lat="40.29614313367153" lon="9.589808885582606"><ele>401.5</ele><time>2026-05-01T09:01:35Z</time></trkpt><trkpt lat="40.296071789403605" lon="9.589931542426287"><ele>403.0</ele><time>2026-05-01T09:01:36Z</time></trkpt><trkpt lat="40.295976327904505" lon="9.590020935620274"><ele>404.5</ele><time>2026-05-01T09:01:37Z</time></trkpt><trkpt lat="40.295884591358565" lon="9.590106488814353"><ele>406.0</ele><time>2026-05-01T09:01:38Z</time></trkpt><trkpt lat="40.29578840370798" lon="9.590180071297496"><ele>406.0</ele><time>2026-05-01T09:01:39Z</time></trkpt><trkpt lat="40.29568744436261" lon="9.590238308148699"><ele>406.0</ele><time>2026-05-01T09:01:40Z</time></trkpt><trkpt lat="40.29560216460584" lon="9.590285094315059"><ele>406.0</ele><time>2026-05-01T09:01:41Z</time></trkpt><trkpt lat="40.29551535070017" lon="9.590312075808999"><ele>406.0</ele><time>2026-05-01T09:01:42Z</time></trkpt><trkpt lat="40.29542342881441" lon="9.590342140163841"><ele>406.0</ele><time>2026-05-01T09:01:43Z</time></trkpt><trkpt lat="40.295330771751985" lon="9.590374025616358"><ele>408.0</ele><time>2026-05-01T09:01:44Z</time></trkpt><trkpt lat="40.2952216812625" lon="9.590412001863234"><ele>410.0</ele><time>2026-05-01T09:01:45Z</time></trkpt><trkpt lat="40.29510425360814" lon="9.590453055805785"><ele>412.0</ele><time>2026-05-01T09:01:46Z</time></trkpt><trkpt lat="40.294978494041594" lon="9.590495349335411"><ele>414.0</ele><time>2026-05-01T09:01:47Z</time></trkpt><trkpt lat="40.29485322831598" lon="9.59053915003603"><ele>415.0</ele><time>2026-05-01T09:01:48Z</time></trkpt><trkpt lat="40.29473088965665" lon="9.590589666089384"><ele>416.0</ele><time>2026-05-01T09:01:49Z</time></trkpt><trkpt lat="40.29461422050699" lon="9.590657929141974"><ele>417.0</ele><time>2026-05-01T09:01:50Z</time></trkpt><trkpt lat="40.29450008540529" lon="9.59075474439337"><ele>418.0</ele><time>2026-05-01T09:01:51Z</time></trkpt><trkpt lat="40.294380363896416" lon="9.590873094110501"><ele>418.0</ele><time>2026-05-01T09:01:52Z</time></trkpt><trkpt lat="40.294260007705866" lon="9.59098943583671"><ele>418.0</ele><time>2026-05-01T09:01:53Z</time></trkpt><trkpt lat="40.294139053860185" lon="9.59111246176447"><ele>418.0</ele><time>2026-05-01T09:01:54Z</time></trkpt><trkpt lat="40.294015513018955" lon="9.591236346230225"><ele>420.0</ele><time>2026-05-01T09:01:55Z</time></trkpt><trkpt lat="40.2938872464009" lon="9.591363722717318"><ele>422.0</ele><time>2026-05-01T09:01:56Z</time></trkpt><trkpt lat="40.29375417238481" lon="9.591494170672563"><ele>424.0</ele><time>2026-05-01T09:01:57Z</time></trkpt><trkpt lat="40.29361651213874" lon="9.591625729312076"><ele>424.0</ele><time>2026-05-01T09:01:58Z</time></trkpt><trkpt lat="40.29347824899492" lon="9.59176187028895"><ele>424.0</ele><time>2026-05-01T09:01:59Z</time></trkpt><trkpt lat="40.29334008950459" lon="9.59189652925614"><ele>424.0</ele><time>2026-05-01T09:02:00Z</time></trkpt><trkpt lat="40.29321058006464" lon="9.592026286644318"><ele>425.5</ele><time>2026-05-01T09:02:01Z</time></trkpt><trkpt lat="40.293086393029725" lon="9.592153732677518"><ele>427.0</ele><time>2026-05-01T09:02:02Z</time></trkpt><trkpt lat="40.292967873786935" lon="9.592272995371957"><ele>428.5</ele><time>2026-05-01T09:02:03Z</time></trkpt><trkpt lat="40.29285839367486" lon="9.592381325014047"><ele>430.0</ele><time>2026-05-01T09:02:04Z</time></trkpt><trkpt lat="40.29275992858586" lon="9.592479909234177"><ele>430.0</ele><time>2026-05-01T09:02:05Z</time></trkpt><trkpt lat="40.292671878044516" lon="9.592558289724707"><ele>430.0</ele><time>2026-05-01T09:02:06Z</time></trkpt><trkpt lat="40.292586613140095" lon="9.59265390510748"><ele>430.0</ele><time>2026-05-01T09:02:07Z</time></trkpt><trkpt lat="40.292508526510844" lon="9.592735273906474"><ele>430.0</ele><time>2026-05-01T09:02:08Z</time></trkpt><trkpt lat="40.292428383058585" lon="9.5928145529442"><ele>430.0</ele><time>2026-05-01T09:02:09Z</time></trkpt><trkpt lat="40.292349868790936" lon="9.592888091594109"><ele>431.4</ele><time>2026-05-01T09:02:10Z</time></trkpt><trkpt lat="40.292268071272915" lon="9.592968331196913"><ele>432.8</ele><time>2026-05-01T09:02:11Z</time></trkpt><trkpt lat="40.29218275713969" lon="9.593050337282847"><ele>434.20000000000005</ele><time>2026-05-01T09:02:12Z</time></trkpt><trkpt lat="40.29209366864931" lon="9.593137627763088"><ele>435.6</ele><time>2026-05-01T09:02:13Z</time></trkpt><trkpt lat="40.291996385466426" lon="9.593233430279994"><ele>437.0</ele><time>2026-05-01T09:02:14Z</time></trkpt><trkpt lat="40.291891929767246" lon="9.593336553255709"><ele>437.0</ele><time>2026-05-01T09:02:15Z</time></trkpt><trkpt lat="40.291774497628" lon="9.593434776921205"><ele>437.0</ele><time>2026-05-01T09:02:16Z</time></trkpt><trkpt lat="40.29164098555601" lon="9.593507420906384"><ele>437.0</ele><time>2026-05-01T09:02:17Z</time></trkpt><trkpt lat="40.29148997554776" lon="9.593550425195412"><ele>437.0</ele><time>2026-05-01T09:02:18Z</time></trkpt><trkpt lat="40.29133888015941" lon="9.59356893208519"><ele>437.0</ele><time>2026-05-01T09:02:19Z</time></trkpt><trkpt lat="40.291187064943195" lon="9.593563225290149"><ele>437.0</ele><time>2026-05-01T09:02:20Z</time></trkpt><trkpt lat="40.29103845416663" lon="9.59356514234309"><ele>437.0</ele><time>2026-05-01T09:02:21Z</time></trkpt><trkpt lat="40.29089004479292" lon="9.593565490811555"><ele>437.0</ele><time>2026-05-01T09:02:22Z</time></trkpt><trkpt lat="40.290742750246125" lon="9.593540533647717"><ele>437.0</ele><time>2026-05-01T09:02:23Z</time></trkpt><trkpt lat="40.29059672445046" lon="9.593485652846166"><ele>437.0</ele><time>2026-05-01T09:02:24Z</time></trkpt><trkpt lat="40.29045678720525" lon="9.59340149140665"><ele>437.0</ele><time>2026-05-01T09:02:25Z</time></trkpt><trkpt lat="40.290326929583514" lon="9.593303782506315"><ele>440.3333333333333</ele><time>2026-05-01T09:02:26Z</time></trkpt><trkpt lat="40.29019477625679" lon="9.59321686625419"><ele>443.66666666666663</ele><time>2026-05-01T09:02:27Z</time></trkpt><trkpt lat="40.29005110517373" lon="9.593151152822918"><ele>447.0</ele><time>2026-05-01T09:02:28Z</time></trkpt><trkpt lat="40.28989641835512" lon="9.59310727207736"><ele>447.25</ele><time>2026-05-01T09:02:29Z</time></trkpt><trkpt lat="40.2897544869924" lon="9.593080413217418"><ele>447.5</ele><time>2026-05-01T09:02:30Z</time></trkpt><trkpt lat="40.28962828599062" lon="9.593058476438348"><ele>447.75</ele><time>2026-05-01T09:02:31Z</time></trkpt><trkpt lat="40.2895053329025" lon="9.593043781196062"><ele>448.0</ele><time>2026-05-01T09:02:32Z</time></trkpt><trkpt lat="40.289382187311425" lon="9.593036067131145"><ele>448.0</ele><time>2026-05-01T09:02:33Z</time></trkpt><trkpt lat="40.2892544850524" lon="9.593066429509161"><ele>448.0</ele><time>2026-05-01T09:02:34Z</time></trkpt><trkpt lat="40.28912883867952" lon="9.593135418523405"><ele>448.0</ele><time>2026-05-01T09:02:35Z</time></trkpt><trkpt lat="40.28900676674591" lon="9.593219391329315"><ele>448.0</ele><time>2026-05-01T09:02:36Z</time></trkpt><trkpt lat="40.28888071230701" lon="9.59330076991917"><ele>448.25</ele><time>2026-05-01T09:02:37Z</time></trkpt><trkpt lat="40.288745951071746" lon="9.593356839173294"><ele>448.5</ele><time>2026-05-01T09:02:38Z</time></trkpt><trkpt lat="40.2886028810772" lon="9.593371378835032"><ele>448.75</ele><time>2026-05-01T09:02:39Z</time></trkpt><trkpt lat="40.288460590230954" lon="9.593356355765875"><ele>449.0</ele><time>2026-05-01T09:02:40Z</time></trkpt><trkpt lat="40.28832680647219" lon="9.593302317182985"><ele>449.0</ele><time>2026-05-01T09:02:41Z</time></trkpt><trkpt lat="40.288198204962164" lon="9.593228620069436"><ele>449.0</ele><time>2026-05-01T09:02:42Z</time></trkpt><trkpt lat="40.28808349508891" lon="9.593158693251667"><ele>449.0</ele><time>2026-05-01T09:02:43Z</time></trkpt><trkpt lat="40.287960276326416" lon="9.59309812362647"><ele>449.0</ele><time>2026-05-01T09:02:44Z</time></trkpt><trkpt lat="40.28785012008864" lon="9.59304503526144"><ele>453.66666666666663</ele><time>2026-05-01T09:02:45Z</time></trkpt><trkpt lat="40.28774069450303" lon="9.592993445528919"><ele>458.33333333333337</ele><time>2026-05-01T09:02:46Z</time></trkpt><trkpt lat="40.28751837541859" lon="9.592882048473037"><ele>463.0</ele><time>2026-05-01T09:02:48Z</time></trkpt><trkpt lat="40.28740333753221" lon="9.59282788402609"><ele>459.75</ele><time>2026-05-01T09:02:49Z</time></trkpt><trkpt lat="40.28728770908535" lon="9.59277040205443"><ele>456.5</ele><time>2026-05-01T09:02:50Z</time></trkpt><trkpt lat="40.28716774104643" lon="9.5927136230553"><ele>453.25</ele><time>2026-05-01T09:02:51Z</time></trkpt><trkpt lat="40.28704113227221" lon="9.592654886262125"><ele>450.0</ele><time>2026-05-01T09:02:52Z</time></trkpt><trkpt lat="40.286911611590035" lon="9.592595803124293"><ele>450.0</ele><time>2026-05-01T09:02:53Z</time></trkpt><trkpt lat="40.286778436742544" lon="9.592535479815094"><ele>450.0</ele><time>2026-05-01T09:02:54Z</time></trkpt><trkpt lat="40.286645012142024" lon="9.592471899288094"><ele>450.0</ele><time>2026-05-01T09:02:55Z</time></trkpt><trkpt lat="40.28652519855048" lon="9.592414413252314"><ele>450.0</ele><time>2026-05-01T09:02:56Z</time></trkpt><trkpt lat="40.286412055157825" lon="9.592360521959591"><ele>453.75</ele><time>2026-05-01T09:02:57Z</time></trkpt><trkpt lat="40.28629486553896" lon="9.592289781506283"><ele>457.5</ele><time>2026-05-01T09:02:58Z</time></trkpt><trkpt lat="40.28616179999626" lon="9.592228951940942"><ele>461.25</ele><time>2026-05-01T09:02:59Z</time></trkpt><trkpt lat="40.28602492557875" lon="9.592162640595392"><ele>465.0</ele><time>2026-05-01T09:03:00Z</time></trkpt><trkpt lat="40.285886132119124" lon="9.59209604944417"><ele>465.0</ele><time>2026-05-01T09:03:01Z</time></trkpt><trkpt lat="40.28574592526317" lon="9.592029628960068"><ele>465.0</ele><time>2026-05-01T09:03:02Z</time></trkpt><trkpt lat="40.28560363046108" lon="9.59197477123816"><ele>465.0</ele><time>2026-05-01T09:03:03Z</time></trkpt><trkpt lat="40.285480016926485" lon="9.591935014579798"><ele>465.0</ele><time>2026-05-01T09:03:04Z</time></trkpt><trkpt lat="40.285359102881586" lon="9.591906570622392"><ele>460.0</ele><time>2026-05-01T09:03:05Z</time></trkpt><trkpt lat="40.28523404625578" lon="9.5918872382357"><ele>455.0</ele><time>2026-05-01T09:03:06Z</time></trkpt><trkpt lat="40.28509482993363" lon="9.591871404775999"><ele>450.0</ele><time>2026-05-01T09:03:07Z</time></trkpt><trkpt lat="40.28494242240391" lon="9.591838190968526"><ele>445.0</ele><time>2026-05-01T09:03:08Z</time></trkpt><trkpt lat="40.28480063525197" lon="9.591758636576888"><ele>446.5</ele><time>2026-05-01T09:03:09Z</time></trkpt><trkpt lat="40.284675767071754" lon="9.591668018350639"><ele>448.0</ele><time>2026-05-01T09:03:10Z</time></trkpt><trkpt lat="40.28456049408079" lon="9.591584110070468"><ele>449.5</ele><time>2026-05-01T09:03:11Z</time></trkpt><trkpt lat="40.2844570168231" lon="9.591511462667185"><ele>451.0</ele><time>2026-05-01T09:03:12Z</time></trkpt><trkpt lat="40.284374338320035" lon="9.591445998231283"><ele>451.0</ele><time>2026-05-01T09:03:13Z</time></trkpt><trkpt lat="40.28428496830266" lon="9.591371636290834"><ele>451.0</ele><time>2026-05-01T09:03:14Z</time></trkpt><trkpt lat="40.284179500698606" lon="9.591316042974343"><ele>451.0</ele><time>2026-05-01T09:03:15Z</time></trkpt><trkpt lat="40.284059835822475" lon="9.59129272745813"><ele>451.0</ele><time>2026-05-01T09:03:16Z</time></trkpt><trkpt lat="40.283940453245" lon="9.591264331285394"><ele>454.25</ele><time>2026-05-01T09:03:17Z</time></trkpt><trkpt lat="40.28380446476583" lon="9.591225898323943"><ele>457.5</ele><time>2026-05-01T09:03:18Z</time></trkpt><trkpt lat="40.28366316256391" lon="9.59117897937694"><ele>460.75</ele><time>2026-05-01T09:03:19Z</time></trkpt><trkpt lat="40.28353381735757" lon="9.591139785998976"><ele>464.0</ele><time>2026-05-01T09:03:20Z</time></trkpt><trkpt lat="40.28342075503896" lon="9.591109001493336"><ele>464.2</ele><time>2026-05-01T09:03:21Z</time></trkpt><trkpt lat="40.28329945155096" lon="9.591099590430614"><ele>464.4</ele><time>2026-05-01T09:03:22Z</time></trkpt><trkpt lat="40.28319944519517" lon="9.591117313240579"><ele>464.6</ele><time>2026-05-01T09:03:23Z</time></trkpt><trkpt lat="40.283101652487105" lon="9.591146687262222"><ele>464.8</ele><time>2026-05-01T09:03:25Z</time></trkpt><trkpt lat="40.283038411767784" lon="9.591170069175156"><ele>465.0</ele><time>2026-05-01T09:03:27Z</time></trkpt><trkpt lat="40.282931736003974" lon="9.59122031142853"><ele>465.0</ele><time>2026-05-01T09:03:29Z</time></trkpt><trkpt lat="40.28285746255653" lon="9.591244443577816"><ele>465.0</ele><time>2026-05-01T09:03:30Z</time></trkpt><trkpt lat="40.28277764791389" lon="9.59125197811588"><ele>465.0</ele><time>2026-05-01T09:03:31Z</time></trkpt><trkpt lat="40.28269126625259" lon="9.591236411139539"><ele>465.0</ele><time>2026-05-01T09:03:32Z</time></trkpt><trkpt lat="40.282601198714076" lon="9.591196275428523"><ele>465.0</ele><time>2026-05-01T09:03:33Z</time></trkpt><trkpt lat="40.2825381024597" lon="9.591160678784286"><ele>465.0</ele><time>2026-05-01T09:03:34Z</time></trkpt><trkpt lat="40.28245928664591" lon="9.5911125263376"><ele>459.4</ele><time>2026-05-01T09:03:36Z</time></trkpt><trkpt lat="40.28239633123646" lon="9.591083214970364"><ele>453.8</ele><time>2026-05-01T09:03:37Z</time></trkpt><trkpt lat="40.282303283897164" lon="9.591052809865475"><ele>448.20000000000005</ele><time>2026-05-01T09:03:38Z</time></trkpt><trkpt lat="40.28218854195813" lon="9.59103231855003"><ele>442.6</ele><time>2026-05-01T09:03:39Z</time></trkpt><trkpt lat="40.28206702773887" lon="9.591029384973732"><ele>437.0</ele><time>2026-05-01T09:03:40Z</time></trkpt><trkpt lat="40.28194264872323" lon="9.591039715094652"><ele>436.5</ele><time>2026-05-01T09:03:41Z</time></trkpt><trkpt lat="40.28181352181384" lon="9.591053246733674"><ele>436.0</ele><time>2026-05-01T09:03:42Z</time></trkpt><trkpt lat="40.281693453089446" lon="9.591053734232089"><ele>435.5</ele><time>2026-05-01T09:03:43Z</time></trkpt><trkpt lat="40.28158831930392" lon="9.591058734204383"><ele>435.0</ele><time>2026-05-01T09:03:44Z</time></trkpt><trkpt lat="40.28149197869215" lon="9.591069055034346"><ele>435.2</ele><time>2026-05-01T09:03:45Z</time></trkpt><trkpt lat="40.28138908861458" lon="9.591075076582841"><ele>435.4</ele><time>2026-05-01T09:03:46Z</time></trkpt><trkpt lat="40.281289861702334" lon="9.591080513511299"><ele>435.6</ele><time>2026-05-01T09:03:47Z</time></trkpt><trkpt lat="40.2811808605196" lon="9.591089219948344"><ele>435.8</ele><time>2026-05-01T09:03:48Z</time></trkpt><trkpt lat="40.281051444702655" lon="9.5911088817795"><ele>436.0</ele><time>2026-05-01T09:03:49Z</time></trkpt><trkpt lat="40.28092259011109" lon="9.591144606114193"><ele>442.5</ele><time>2026-05-01T09:03:50Z</time></trkpt><trkpt lat="40.28078127657458" lon="9.591215636027945"><ele>449.0</ele><time>2026-05-01T09:03:51Z</time></trkpt><trkpt lat="40.28067856366522" lon="9.591267535610466"><ele>455.5</ele><time>2026-05-01T09:03:52Z</time></trkpt><trkpt lat="40.28057658887473" lon="9.59129955049914"><ele>462.0</ele><time>2026-05-01T09:03:53Z</time></trkpt><trkpt lat="40.28047563400774" lon="9.591318998888665"><ele>462.0</ele><time>2026-05-01T09:03:54Z</time></trkpt><trkpt lat="40.2803606043318" lon="9.59134181435597"><ele>462.0</ele><time>2026-05-01T09:03:55Z</time></trkpt><trkpt lat="40.280229219077206" lon="9.591366065698661"><ele>462.0</ele><time>2026-05-01T09:03:56Z</time></trkpt><trkpt lat="40.28009205471813" lon="9.591365150545311"><ele>462.0</ele><time>2026-05-01T09:03:57Z</time></trkpt><trkpt lat="40.27995784998217" lon="9.591379615396415"><ele>462.0</ele><time>2026-05-01T09:03:58Z</time></trkpt><trkpt lat="40.27984377101745" lon="9.591402989053867"><ele>462.0</ele><time>2026-05-01T09:03:59Z</time></trkpt><trkpt lat="40.279735610420275" lon="9.591404875895941"><ele>462.0</ele><time>2026-05-01T09:04:00Z</time></trkpt><trkpt lat="40.2796055214333" lon="9.591424038411775"><ele>462.0</ele><time>2026-05-01T09:04:01Z</time></trkpt><trkpt lat="40.27948039628842" lon="9.591436855935891"><ele>461.66666666666663</ele><time>2026-05-01T09:04:02Z</time></trkpt><trkpt lat="40.27935867080674" lon="9.591464611409103"><ele>461.3333333333333</ele><time>2026-05-01T09:04:03Z</time></trkpt><trkpt lat="40.27920050907908" lon="9.591492846792487"><ele>461.0</ele><time>2026-05-01T09:04:04Z</time></trkpt><trkpt lat="40.27900360552902" lon="9.591540614023977"><ele>453.5</ele><time>2026-05-01T09:04:05Z</time></trkpt><trkpt lat="40.278765161034805" lon="9.591577594452103"><ele>446.0</ele><time>2026-05-01T09:04:06Z</time></trkpt><trkpt lat="40.278461550588716" lon="9.591655137092141"><ele>446.0</ele><time>2026-05-01T09:04:07Z</time></trkpt><trkpt lat="40.278195656767515" lon="9.59172424572468"><ele>446.0</ele><time>2026-05-01T09:04:08Z</time></trkpt><trkpt lat="40.27797238900925" lon="9.591782454827612"><ele>444.3333333333333</ele><time>2026-05-01T09:04:09Z</time></trkpt><trkpt lat="40.27777803251638" lon="9.591846970364273"><ele>442.66666666666663</ele><time>2026-05-01T09:04:10Z</time></trkpt><trkpt lat="40.27760259513518" lon="9.591892693854696"><ele>441.0</ele><time>2026-05-01T09:04:11Z</time></trkpt><trkpt lat="40.277443612603335" lon="9.591934708421801"><ele>441.0</ele><time>2026-05-01T09:04:12Z</time></trkpt><trkpt lat="40.27729717782044" lon="9.591968861575644"><ele>441.0</ele><time>2026-05-01T09:04:13Z</time></trkpt><trkpt lat="40.27714526720653" lon="9.592008526855789"><ele>441.0</ele><time>2026-05-01T09:04:14Z</time></trkpt><trkpt lat="40.27698922782526" lon="9.59204827287349"><ele>451.33333333333337</ele><time>2026-05-01T09:04:15Z</time></trkpt><trkpt lat="40.27682945064592" lon="9.59209049427241"><ele>461.6666666666667</ele><time>2026-05-01T09:04:16Z</time></trkpt><trkpt lat="40.27667612357321" lon="9.59212981931678"><ele>472.0</ele><time>2026-05-01T09:04:17Z</time></trkpt><trkpt lat="40.276546956489824" lon="9.592153553335551"><ele>472.0</ele><time>2026-05-01T09:04:18Z</time></trkpt><trkpt lat="40.27642131890212" lon="9.592188427486946"><ele>472.0</ele><time>2026-05-01T09:04:19Z</time></trkpt><trkpt lat="40.27630362403956" lon="9.592215242215609"><ele>472.0</ele><time>2026-05-01T09:04:20Z</time></trkpt><trkpt lat="40.27617980471487" lon="9.592230534874568"><ele>472.0</ele><time>2026-05-01T09:04:21Z</time></trkpt><trkpt lat="40.27606120477415" lon="9.592243045841284"><ele>472.0</ele><time>2026-05-01T09:04:22Z</time></trkpt><trkpt lat="40.27594328200482" lon="9.592253856289801"><ele>472.00000000000006</ele><time>2026-05-01T09:04:23Z</time></trkpt><trkpt lat="40.275825569572504" lon="9.592259321965196"><ele>472.00000000000006</ele><time>2026-05-01T09:04:24Z</time></trkpt><trkpt lat="40.275719062970005" lon="9.592267957684333"><ele>472.0</ele><time>2026-05-01T09:04:25Z</time></trkpt><trkpt lat="40.275642480966354" lon="9.592252263110005"><ele>472.0</ele><time>2026-05-01T09:04:26Z</time></trkpt><trkpt lat="40.27555918896773" lon="9.592435596249894"><ele>473.0</ele><time>2026-05-01T09:04:28Z</time></trkpt><trkpt lat="40.27552859501611" lon="9.592568636363259"><ele>474.0</ele><time>2026-05-01T09:04:29Z</time></trkpt><trkpt lat="40.27550146351079" lon="9.592720407331427"><ele>475.0</ele><time>2026-05-01T09:04:30Z</time></trkpt><trkpt lat="40.275465524195745" lon="9.592881652600916"><ele>476.0</ele><time>2026-05-01T09:04:31Z</time></trkpt><trkpt lat="40.27542262295697" lon="9.59303649511498"><ele>490.5</ele><time>2026-05-01T09:04:32Z</time></trkpt><trkpt lat="40.27537134085774" lon="9.593186948295106"><ele>505.0</ele><time>2026-05-01T09:04:33Z</time></trkpt><trkpt lat="40.275331017184925" lon="9.593338313885798"><ele>519.5</ele><time>2026-05-01T09:04:34Z</time></trkpt><trkpt lat="40.27527616425098" lon="9.593490964868279"><ele>534.0</ele><time>2026-05-01T09:04:35.026Z</time></trkpt><trkpt lat="40.275225397090715" lon="9.593674113630168"><ele>549.5</ele><time>2026-05-01T09:04:36.025Z</time></trkpt><trkpt lat="40.2751648951268" lon="9.593823093864348"><ele>565.0</ele><time>2026-05-01T09:04:37.026Z</time></trkpt><trkpt lat="40.27506152572971" lon="9.594412634899697"><ele>560.75</ele><time>2026-05-01T09:04:40.711Z</time></trkpt><trkpt lat="40.27503255239542" lon="9.594571988418304"><ele>556.5</ele><time>2026-05-01T09:04:41.711Z</time></trkpt><trkpt lat="40.275003272450746" lon="9.59473113663469"><ele>552.25</ele><time>2026-05-01T09:04:42.711Z</time></trkpt><trkpt lat="40.27499016812338" lon="9.594895516004577"><ele>548.0</ele><time>2026-05-01T09:04:43.711Z</time></trkpt><trkpt lat="40.2749612041775" lon="9.595055062702704"><ele>548.0</ele><time>2026-05-01T09:04:44.712Z</time></trkpt><trkpt lat="40.27491609173739" lon="9.595209252198414"><ele>548.0</ele><time>2026-05-01T09:04:45.711Z</time></trkpt><trkpt lat="40.27488714573459" lon="9.595368699918772"><ele>548.0</ele><time>2026-05-01T09:04:46.711Z</time></trkpt><trkpt lat="40.27485784365119" lon="9.595527994697525"><ele>548.0</ele><time>2026-05-01T09:04:47.712Z</time></trkpt><trkpt lat="40.2748514130785" lon="9.59747858949174"><ele>529.6</ele><time>2026-05-01T09:04:49.35Z</time></trkpt><trkpt lat="40.274796859792474" lon="9.597608041793817"><ele>511.19999999999993</ele><time>2026-05-01T09:04:50.3Z</time></trkpt><trkpt lat="40.274707509528305" lon="9.597724374608152"><ele>492.8</ele><time>2026-05-01T09:04:51.25Z</time></trkpt><trkpt lat="40.27461557434617" lon="9.597810149654547"><ele>474.4</ele><time>2026-05-01T09:04:52.2Z</time></trkpt><trkpt lat="40.27453268389346" lon="9.597860231915893"><ele>456.0</ele><time>2026-05-01T09:04:53.15Z</time></trkpt><trkpt lat="40.27445624855686" lon="9.597902325047487"><ele>455.66666666666663</ele><time>2026-05-01T09:04:54.1Z</time></trkpt><trkpt lat="40.274161593534785" lon="9.597719042560083"><ele>455.3333333333333</ele><time>2026-05-01T09:04:55.05Z</time></trkpt><trkpt lat="40.27413563765612" lon="9.597813045809595"><ele>455.0</ele><time>2026-05-01T09:04:59Z</time></trkpt><trkpt lat="40.274180041856376" lon="9.597925761680477"><ele>450.8333333333333</ele><time>2026-05-01T09:05:01Z</time></trkpt><trkpt lat="40.27425347954159" lon="9.598001036089649"><ele>446.66666666666663</ele><time>2026-05-01T09:05:03Z</time></trkpt><trkpt lat="40.27434069195465" lon="9.598021144839128"><ele>442.5</ele><time>2026-05-01T09:05:05Z</time></trkpt><trkpt lat="40.274395256586494" lon="9.598066476911336"><ele>438.33333333333337</ele><time>2026-05-01T09:05:09Z</time></trkpt><trkpt lat="40.274319379320254" lon="9.598021854552277"><ele>434.1666666666667</ele><time>2026-05-01T09:18:27Z</time></trkpt><trkpt lat="40.27436576863285" lon="9.597941315020833"><ele>430.0</ele><time>2026-05-01T09:18:32Z</time></trkpt><trkpt lat="40.274438369159064" lon="9.597921590367807"><ele>430.00000000000006</ele><time>2026-05-01T09:18:34Z</time></trkpt><trkpt lat="40.27450891584167" lon="9.597883770779731"><ele>430.0</ele><time>2026-05-01T09:18:37Z</time></trkpt><trkpt lat="40.27459221603445" lon="9.597860214054519"><ele>430.0</ele><time>2026-05-01T09:18:39Z</time></trkpt><trkpt lat="40.27465107598919" lon="9.597824474747036"><ele>430.0</ele><time>2026-05-01T09:18:41Z</time></trkpt><trkpt lat="40.274724566181646" lon="9.59775031942259"><ele>430.00000000000006</ele><time>2026-05-01T09:18:43Z</time></trkpt><trkpt lat="40.2747774274723" lon="9.597684698649832"><ele>430.0</ele><time>2026-05-01T09:18:44Z</time></trkpt><trkpt lat="40.27482541878179" lon="9.597609661901714"><ele>435.2</ele><time>2026-05-01T09:18:45Z</time></trkpt><trkpt lat="40.27485978605913" lon="9.597534998281139"><ele>440.4</ele><time>2026-05-01T09:18:46Z</time></trkpt><trkpt lat="40.27487817451151" lon="9.597439566758032"><ele>445.6</ele><time>2026-05-01T09:18:47Z</time></trkpt><trkpt lat="40.27487812832773" lon="9.597329536586907"><ele>450.8</ele><time>2026-05-01T09:18:48Z</time></trkpt><trkpt lat="40.274861980140805" lon="9.597193347916404"><ele>456.0</ele><time>2026-05-01T09:18:49Z</time></trkpt><trkpt lat="40.27495546564741" lon="9.59708242427178"><ele>462.5</ele><time>2026-05-01T09:18:50Z</time></trkpt><trkpt lat="40.27497515029088" lon="9.59693831408968"><ele>469.0</ele><time>2026-05-01T09:18:51Z</time></trkpt><trkpt lat="40.27499724929251" lon="9.596776528604416"><ele>475.5</ele><time>2026-05-01T09:18:52Z</time></trkpt><trkpt lat="40.27502061164919" lon="9.59660565356685"><ele>482.0</ele><time>2026-05-01T09:18:53Z</time></trkpt><trkpt lat="40.2750460325463" lon="9.596420444143652"><ele>482.0</ele><time>2026-05-01T09:18:54Z</time></trkpt><trkpt lat="40.275073075548406" lon="9.596223416583435"><ele>482.0</ele><time>2026-05-01T09:18:55Z</time></trkpt><trkpt lat="40.27510210200989" lon="9.596011938313131"><ele>482.0</ele><time>2026-05-01T09:18:56Z</time></trkpt><trkpt lat="40.275029654382735" lon="9.596539794055348"><ele>482.0</ele><time>2026-05-01T09:18:57.026Z</time></trkpt><trkpt lat="40.275043607203095" lon="9.596457144236958"><ele>482.00000000000006</ele><time>2026-05-01T09:18:58.025Z</time></trkpt><trkpt lat="40.27505578418646" lon="9.596366552608828"><ele>482.00000000000006</ele><time>2026-05-01T09:18:59.025Z</time></trkpt><trkpt lat="40.2750681552581" lon="9.596275818404465"><ele>482.0</ele><time>2026-05-01T09:19:00.026Z</time></trkpt><trkpt lat="40.2750799572151" lon="9.596189830164402"><ele>482.0</ele><time>2026-05-01T09:19:00.976Z</time></trkpt><trkpt lat="40.275359652881534" lon="9.59402573936301"><ele>508.0</ele><time>2026-05-01T09:19:04.71Z</time></trkpt><trkpt lat="40.27543966213684" lon="9.593446634151103"><ele>534.0</ele><time>2026-05-01T09:19:05.711Z</time></trkpt><trkpt lat="40.27552206895991" lon="9.59286839048894"><ele>514.6666666666666</ele><time>2026-05-01T09:19:06.711Z</time></trkpt><trkpt lat="40.275595894997096" lon="9.59247735113302"><ele>495.3333333333333</ele><time>2026-05-01T09:19:20.1Z</time></trkpt><trkpt lat="40.27559334080613" lon="9.592365637743752"><ele>476.0</ele><time>2026-05-01T09:19:31Z</time></trkpt><trkpt lat="40.27560931554497" lon="9.592231677916883"><ele>476.0</ele><time>2026-05-01T09:19:34Z</time></trkpt><trkpt lat="40.27543178709418" lon="9.59220485146355"><ele>476.0</ele><time>2026-05-01T09:19:35Z</time></trkpt><trkpt lat="40.27529449622429" lon="9.592214127205304"><ele>476.0</ele><time>2026-05-01T09:19:36Z</time></trkpt><trkpt lat="40.27507726058872" lon="9.592195099193006"><ele>476.0</ele><time>2026-05-01T09:19:37Z</time></trkpt><trkpt lat="40.27490011525099" lon="9.592125568210562"><ele>476.0</ele><time>2026-05-01T09:19:38Z</time></trkpt><trkpt lat="40.27476919368203" lon="9.5920243018593"><ele>476.0</ele><time>2026-05-01T09:19:39Z</time></trkpt><trkpt lat="40.274650030471555" lon="9.591898989835421"><ele>474.0</ele><time>2026-05-01T09:19:40Z</time></trkpt><trkpt lat="40.274527982878965" lon="9.59177739568496"><ele>472.0</ele><time>2026-05-01T09:19:41Z</time></trkpt><trkpt lat="40.27441886447124" lon="9.59167834589706"><ele>470.0</ele><time>2026-05-01T09:19:42Z</time></trkpt><trkpt lat="40.274309359721315" lon="9.59158125755779"><ele>468.0</ele><time>2026-05-01T09:19:43Z</time></trkpt><trkpt lat="40.27419598497309" lon="9.591488505669194"><ele>468.0</ele><time>2026-05-01T09:19:44Z</time></trkpt><trkpt lat="40.274088834906394" lon="9.591384075697645"><ele>468.0</ele><time>2026-05-01T09:19:45Z</time></trkpt><trkpt lat="40.27398509112682" lon="9.591260736090323"><ele>468.0</ele><time>2026-05-01T09:19:46Z</time></trkpt><trkpt lat="40.27388739251956" lon="9.591108139573388"><ele>468.0</ele><time>2026-05-01T09:19:47Z</time></trkpt><trkpt lat="40.273796199038486" lon="9.59095338392839"><ele>469.66666666666663</ele><time>2026-05-01T09:19:48Z</time></trkpt><trkpt lat="40.273699999425006" lon="9.590795731488232"><ele>471.3333333333333</ele><time>2026-05-01T09:19:49Z</time></trkpt><trkpt lat="40.27354534831623" lon="9.590598781276766"><ele>473.0</ele><time>2026-05-01T09:19:50Z</time></trkpt><trkpt lat="40.2734229063841" lon="9.590433771462905"><ele>467.66666666666663</ele><time>2026-05-01T09:19:51Z</time></trkpt><trkpt lat="40.27332191993174" lon="9.59027869742283"><ele>462.33333333333337</ele><time>2026-05-01T09:19:52Z</time></trkpt><trkpt lat="40.27324786103086" lon="9.590092309386264"><ele>457.0</ele><time>2026-05-01T09:19:53Z</time></trkpt><trkpt lat="40.27320026801316" lon="9.589854630666263"><ele>457.0</ele><time>2026-05-01T09:19:54Z</time></trkpt><trkpt lat="40.27318625391292" lon="9.58963441166064"><ele>457.0</ele><time>2026-05-01T09:19:55Z</time></trkpt><trkpt lat="40.273157313040656" lon="9.589408249318929"><ele>457.0</ele><time>2026-05-01T09:19:56Z</time></trkpt><trkpt lat="40.27311735283038" lon="9.58919557042206"><ele>458.25</ele><time>2026-05-01T09:19:57Z</time></trkpt><trkpt lat="40.27306721889765" lon="9.589018400844644"><ele>459.5</ele><time>2026-05-01T09:19:58Z</time></trkpt><trkpt lat="40.27300988243701" lon="9.588867739079173"><ele>460.75</ele><time>2026-05-01T09:19:59Z</time></trkpt><trkpt lat="40.27292413120666" lon="9.588743543315383"><ele>462.0</ele><time>2026-05-01T09:20:00Z</time></trkpt><trkpt lat="40.27279999684877" lon="9.588660534781754"><ele>462.0</ele><time>2026-05-01T09:20:01Z</time></trkpt><trkpt lat="40.27266421255637" lon="9.588592715685312"><ele>462.0</ele><time>2026-05-01T09:20:02Z</time></trkpt><trkpt lat="40.2725380364525" lon="9.58848590898923"><ele>462.0</ele><time>2026-05-01T09:20:03Z</time></trkpt><trkpt lat="40.27246080435132" lon="9.588314274277876"><ele>462.0</ele><time>2026-05-01T09:20:04Z</time></trkpt><trkpt lat="40.27246499451163" lon="9.588121107323888"><ele>462.0</ele><time>2026-05-01T09:20:05Z</time></trkpt><trkpt lat="40.27244902680453" lon="9.587942067049687"><ele>462.0</ele><time>2026-05-01T09:20:06Z</time></trkpt><trkpt lat="40.27241948243589" lon="9.587784461319973"><ele>462.0</ele><time>2026-05-01T09:20:07Z</time></trkpt><trkpt lat="40.27230890169418" lon="9.58766409410128"><ele>462.0</ele><time>2026-05-01T09:20:08Z</time></trkpt><trkpt lat="40.272184333392595" lon="9.587554330808302"><ele>464.66666666666663</ele><time>2026-05-01T09:20:09Z</time></trkpt><trkpt lat="40.27204298911749" lon="9.587450364045008"><ele>467.3333333333333</ele><time>2026-05-01T09:20:10Z</time></trkpt><trkpt lat="40.2718655424675" lon="9.587384276920242"><ele>470.0</ele><time>2026-05-01T09:20:11Z</time></trkpt><trkpt lat="40.2716996430325" lon="9.587308897358858"><ele>470.0</ele><time>2026-05-01T09:20:12Z</time></trkpt><trkpt lat="40.27157238131657" lon="9.587209114825663"><ele>470.0</ele><time>2026-05-01T09:20:13Z</time></trkpt><trkpt lat="40.2714775202024" lon="9.5870546622269"><ele>470.0</ele><time>2026-05-01T09:20:14Z</time></trkpt><trkpt lat="40.27139797746705" lon="9.586862176931092"><ele>475.66666666666663</ele><time>2026-05-01T09:20:15Z</time></trkpt><trkpt lat="40.27132441271591" lon="9.586662709490112"><ele>481.33333333333337</ele><time>2026-05-01T09:20:16Z</time></trkpt><trkpt lat="40.27125827511103" lon="9.586462067507743"><ele>487.0</ele><time>2026-05-01T09:20:17Z</time></trkpt><trkpt lat="40.27121737116525" lon="9.586249366498942"><ele>483.75</ele><time>2026-05-01T09:20:18Z</time></trkpt><trkpt lat="40.271184904542686" lon="9.586044634580556"><ele>480.5</ele><time>2026-05-01T09:20:19Z</time></trkpt><trkpt lat="40.271147373935726" lon="9.5858608425808"><ele>477.25</ele><time>2026-05-01T09:20:20Z</time></trkpt><trkpt lat="40.27108292660555" lon="9.585695160360126"><ele>474.0</ele><time>2026-05-01T09:20:21Z</time></trkpt><trkpt lat="40.2709984431556" lon="9.585541695044185"><ele>474.0</ele><time>2026-05-01T09:20:22Z</time></trkpt><trkpt lat="40.270894355642675" lon="9.585404934996417"><ele>474.0</ele><time>2026-05-01T09:20:23Z</time></trkpt><trkpt lat="40.27081391062352" lon="9.585259075590816"><ele>474.0</ele><time>2026-05-01T09:20:24Z</time></trkpt><trkpt lat="40.270770942715764" lon="9.585104191361571"><ele>474.0</ele><time>2026-05-01T09:20:25Z</time></trkpt><trkpt lat="40.27073801033408" lon="9.584956840875957"><ele>478.5</ele><time>2026-05-01T09:20:26Z</time></trkpt><trkpt lat="40.27067613409373" lon="9.584833211823474"><ele>483.0</ele><time>2026-05-01T09:20:27Z</time></trkpt><trkpt lat="40.270564511744794" lon="9.584736726474096"><ele>487.5</ele><time>2026-05-01T09:20:28Z</time></trkpt><trkpt lat="40.270430777494816" lon="9.584658159799819"><ele>492.0</ele><time>2026-05-01T09:20:29Z</time></trkpt><trkpt lat="40.27029189864112" lon="9.584565127365233"><ele>483.0</ele><time>2026-05-01T09:20:30Z</time></trkpt><trkpt lat="40.27016418715642" lon="9.58441691758722"><ele>474.0</ele><time>2026-05-01T09:20:31Z</time></trkpt><trkpt lat="40.270038612433105" lon="9.584251607978604"><ele>465.0</ele><time>2026-05-01T09:20:32Z</time></trkpt><trkpt lat="40.269915038527955" lon="9.584095896738855"><ele>465.0</ele><time>2026-05-01T09:20:33Z</time></trkpt><trkpt lat="40.26982601116414" lon="9.583930320830358"><ele>465.0</ele><time>2026-05-01T09:20:34Z</time></trkpt><trkpt lat="40.26976631538381" lon="9.583767327045754"><ele>465.0</ele><time>2026-05-01T09:20:35Z</time></trkpt><trkpt lat="40.269746376248534" lon="9.58356402826971"><ele>465.0</ele><time>2026-05-01T09:20:36Z</time></trkpt><trkpt lat="40.269534839419386" lon="9.583557387856636"><ele>464.75</ele><time>2026-05-01T09:20:37Z</time></trkpt><trkpt lat="40.26937753686803" lon="9.583507646521436"><ele>464.5</ele><time>2026-05-01T09:20:38Z</time></trkpt><trkpt lat="40.26923328000954" lon="9.583450740683613"><ele>464.25</ele><time>2026-05-01T09:20:39Z</time></trkpt><trkpt lat="40.26912788071585" lon="9.58333946207847"><ele>464.0</ele><time>2026-05-01T09:20:40Z</time></trkpt><trkpt lat="40.269062867727776" lon="9.583168841785398"><ele>464.0</ele><time>2026-05-01T09:20:41Z</time></trkpt><trkpt lat="40.268975901003344" lon="9.583028708337071"><ele>464.0</ele><time>2026-05-01T09:20:42Z</time></trkpt><trkpt lat="40.268856076753" lon="9.582958863284647"><ele>464.0</ele><time>2026-05-01T09:20:43Z</time></trkpt><trkpt lat="40.26869626903293" lon="9.582976696050059"><ele>464.0</ele><time>2026-05-01T09:20:44Z</time></trkpt><trkpt lat="40.26854144016209" lon="9.582989127538873"><ele>461.75</ele><time>2026-05-01T09:20:45Z</time></trkpt><trkpt lat="40.268415277766046" lon="9.58293931093656"><ele>459.5</ele><time>2026-05-01T09:20:46Z</time></trkpt><trkpt lat="40.26834553416935" lon="9.582780324647972"><ele>457.25</ele><time>2026-05-01T09:20:47Z</time></trkpt><trkpt lat="40.26823398194227" lon="9.58265220688752"><ele>455.0</ele><time>2026-05-01T09:20:48Z</time></trkpt><trkpt lat="40.268110515672284" lon="9.582522682590836"><ele>464.3333333333333</ele><time>2026-05-01T09:20:49Z</time></trkpt><trkpt lat="40.2679675934774" lon="9.582406072366629"><ele>473.66666666666663</ele><time>2026-05-01T09:20:50Z</time></trkpt><trkpt lat="40.26782255789627" lon="9.582283919620256"><ele>483.0</ele><time>2026-05-01T09:20:51Z</time></trkpt><trkpt lat="40.267673441375145" lon="9.5821539644148"><ele>483.0</ele><time>2026-05-01T09:20:52Z</time></trkpt><trkpt lat="40.267522382501824" lon="9.582021884709174"><ele>483.0</ele><time>2026-05-01T09:20:53Z</time></trkpt><trkpt lat="40.26736367680791" lon="9.581890771465805"><ele>483.0</ele><time>2026-05-01T09:20:54Z</time></trkpt><trkpt lat="40.26720785522049" lon="9.581763435533354"><ele>483.66666666666663</ele><time>2026-05-01T09:20:55Z</time></trkpt><trkpt lat="40.26707055666338" lon="9.581643102291926"><ele>484.3333333333333</ele><time>2026-05-01T09:20:56Z</time></trkpt><trkpt lat="40.266951956905295" lon="9.581521837036405"><ele>485.0</ele><time>2026-05-01T09:20:57Z</time></trkpt><trkpt lat="40.26685275613261" lon="9.581372839304084"><ele>485.0</ele><time>2026-05-01T09:20:58Z</time></trkpt><trkpt lat="40.266755429678234" lon="9.581204603969512"><ele>485.0</ele><time>2026-05-01T09:20:59Z</time></trkpt><trkpt lat="40.26664178628021" lon="9.58105346224164"><ele>485.0</ele><time>2026-05-01T09:21:00Z</time></trkpt><trkpt lat="40.26649745502212" lon="9.580941540429636"><ele>483.0</ele><time>2026-05-01T09:21:01Z</time></trkpt><trkpt lat="40.26632944163239" lon="9.580877418783821"><ele>481.0</ele><time>2026-05-01T09:21:02Z</time></trkpt><trkpt lat="40.26617168878762" lon="9.580811535716938"><ele>479.0</ele><time>2026-05-01T09:21:03Z</time></trkpt><trkpt lat="40.26603864031523" lon="9.580738337252457"><ele>479.0</ele><time>2026-05-01T09:21:04Z</time></trkpt><trkpt lat="40.26592651646428" lon="9.58064200498128"><ele>479.0</ele><time>2026-05-01T09:21:05Z</time></trkpt><trkpt lat="40.26582676039912" lon="9.580510398356994"><ele>479.0</ele><time>2026-05-01T09:21:06Z</time></trkpt><trkpt lat="40.26572849149263" lon="9.580347218480338"><ele>479.0</ele><time>2026-05-01T09:21:07Z</time></trkpt><trkpt lat="40.26562200174433" lon="9.580185252027709"><ele>478.25</ele><time>2026-05-01T09:21:08Z</time></trkpt><trkpt lat="40.26552023724124" lon="9.580035185483329"><ele>477.5</ele><time>2026-05-01T09:21:09Z</time></trkpt><trkpt lat="40.26543028248129" lon="9.579899027183203"><ele>476.75</ele><time>2026-05-01T09:21:10Z</time></trkpt><trkpt lat="40.26533741373254" lon="9.579780596497484"><ele>476.0</ele><time>2026-05-01T09:21:11Z</time></trkpt><trkpt lat="40.265229754597094" lon="9.579698580062981"><ele>476.0</ele><time>2026-05-01T09:21:12Z</time></trkpt><trkpt lat="40.265099883671105" lon="9.579691714751531"><ele>476.0</ele><time>2026-05-01T09:21:13Z</time></trkpt><trkpt lat="40.26496092939175" lon="9.579762895501865"><ele>476.0</ele><time>2026-05-01T09:21:14Z</time></trkpt><trkpt lat="40.26481010976786" lon="9.579850560319954"><ele>476.0</ele><time>2026-05-01T09:21:15Z</time></trkpt><trkpt lat="40.26464953356673" lon="9.579934738790401"><ele>476.75</ele><time>2026-05-01T09:21:16Z</time></trkpt><trkpt lat="40.264511335564606" lon="9.579951290753923"><ele>477.5</ele><time>2026-05-01T09:21:17Z</time></trkpt><trkpt lat="40.26438132907398" lon="9.579871998204665"><ele>478.25</ele><time>2026-05-01T09:21:18Z</time></trkpt><trkpt lat="40.26424564489317" lon="9.579828827393014"><ele>479.0</ele><time>2026-05-01T09:21:19Z</time></trkpt><trkpt lat="40.264106878017714" lon="9.57976277398994"><ele>479.0</ele><time>2026-05-01T09:21:20Z</time></trkpt><trkpt lat="40.26397268420158" lon="9.5797193245798"><ele>479.0</ele><time>2026-05-01T09:21:21Z</time></trkpt><trkpt lat="40.26384607327431" lon="9.57968978111625"><ele>479.0</ele><time>2026-05-01T09:21:22Z</time></trkpt><trkpt lat="40.26370959505955" lon="9.579686110835752"><ele>479.0</ele><time>2026-05-01T09:21:23Z</time></trkpt><trkpt lat="40.26356662746236" lon="9.579734193320542"><ele>481.66666666666663</ele><time>2026-05-01T09:21:24Z</time></trkpt><trkpt lat="40.263418630287674" lon="9.579787756316534"><ele>484.33333333333337</ele><time>2026-05-01T09:21:25Z</time></trkpt><trkpt lat="40.263262070903664" lon="9.579741981015783"><ele>487.0</ele><time>2026-05-01T09:21:26Z</time></trkpt><trkpt lat="40.263102942593584" lon="9.579734220083742"><ele>489.33333333333337</ele><time>2026-05-01T09:21:27Z</time></trkpt><trkpt lat="40.26293082107785" lon="9.579731519486769"><ele>491.66666666666663</ele><time>2026-05-01T09:21:28Z</time></trkpt><trkpt lat="40.262753850586755" lon="9.579738030477454"><ele>494.0</ele><time>2026-05-01T09:21:29Z</time></trkpt><trkpt lat="40.26257944919605" lon="9.579689761578784"><ele>494.0</ele><time>2026-05-01T09:21:30Z</time></trkpt><trkpt lat="40.26240452967704" lon="9.57956320529999"><ele>494.0</ele><time>2026-05-01T09:21:31Z</time></trkpt><trkpt lat="40.26224717214314" lon="9.579477758838921"><ele>494.0</ele><time>2026-05-01T09:21:32Z</time></trkpt><trkpt lat="40.26210301427197" lon="9.579376528917017"><ele>486.66666666666663</ele><time>2026-05-01T09:21:33Z</time></trkpt><trkpt lat="40.26197367237886" lon="9.579264627128383"><ele>479.33333333333337</ele><time>2026-05-01T09:21:34Z</time></trkpt><trkpt lat="40.26183469529629" lon="9.579187562902495"><ele>472.0</ele><time>2026-05-01T09:21:35Z</time></trkpt><trkpt lat="40.261680673755244" lon="9.579168829288252"><ele>472.0</ele><time>2026-05-01T09:21:36Z</time></trkpt><trkpt lat="40.26151231180061" lon="9.57918390469994"><ele>472.0</ele><time>2026-05-01T09:21:37Z</time></trkpt><trkpt lat="40.26133505014536" lon="9.579161951737404"><ele>472.0</ele><time>2026-05-01T09:21:38Z</time></trkpt><trkpt lat="40.26114650681948" lon="9.579075895715798"><ele>477.33333333333337</ele><time>2026-05-01T09:21:39Z</time></trkpt><trkpt lat="40.26099066873063" lon="9.578983450680608"><ele>482.66666666666663</ele><time>2026-05-01T09:21:40Z</time></trkpt><trkpt lat="40.26081579741504" lon="9.5788837357051"><ele>488.0</ele><time>2026-05-01T09:21:41Z</time></trkpt><trkpt lat="40.26063751466207" lon="9.578804577389048"><ele>493.0</ele><time>2026-05-01T09:21:42Z</time></trkpt><trkpt lat="40.26045769781671" lon="9.578733276905313"><ele>498.0</ele><time>2026-05-01T09:21:43Z</time></trkpt><trkpt lat="40.26028300028566" lon="9.57866537487577"><ele>503.0</ele><time>2026-05-01T09:21:44Z</time></trkpt><trkpt lat="40.26010867443743" lon="9.578596272992554"><ele>503.75</ele><time>2026-05-01T09:21:45Z</time></trkpt><trkpt lat="40.25995499187076" lon="9.578524098025573"><ele>504.5</ele><time>2026-05-01T09:21:46Z</time></trkpt><trkpt lat="40.25984485745561" lon="9.57843032733434"><ele>505.25</ele><time>2026-05-01T09:21:47Z</time></trkpt><trkpt lat="40.25978032981896" lon="9.57828873043363"><ele>506.0</ele><time>2026-05-01T09:21:48Z</time></trkpt><trkpt lat="40.2597485848819" lon="9.578129902120278"><ele>506.0</ele><time>2026-05-01T09:21:49Z</time></trkpt><trkpt lat="40.259722169689084" lon="9.577977061758967"><ele>506.0</ele><time>2026-05-01T09:21:50Z</time></trkpt><trkpt lat="40.25963199450637" lon="9.577870119947395"><ele>506.0</ele><time>2026-05-01T09:21:51Z</time></trkpt><trkpt lat="40.25953104572261" lon="9.577767216427658"><ele>506.0</ele><time>2026-05-01T09:21:52Z</time></trkpt><trkpt lat="40.259401290678966" lon="9.577702216789358"><ele>499.25</ele><time>2026-05-01T09:21:53Z</time></trkpt><trkpt lat="40.25926496742995" lon="9.577689959061782"><ele>492.5</ele><time>2026-05-01T09:21:54Z</time></trkpt><trkpt lat="40.25912576979918" lon="9.577720684488279"><ele>485.75</ele><time>2026-05-01T09:21:55Z</time></trkpt><trkpt lat="40.25897073393539" lon="9.577731709354124"><ele>479.0</ele><time>2026-05-01T09:21:56Z</time></trkpt><trkpt lat="40.258810962490976" lon="9.5776710928338"><ele>479.0</ele><time>2026-05-01T09:21:57Z</time></trkpt><trkpt lat="40.258644091579846" lon="9.5775824812766"><ele>479.0</ele><time>2026-05-01T09:21:58Z</time></trkpt><trkpt lat="40.258452316408224" lon="9.577527212118467"><ele>479.0</ele><time>2026-05-01T09:21:59Z</time></trkpt><trkpt lat="40.258241409972236" lon="9.577508724512535"><ele>485.66666666666663</ele><time>2026-05-01T09:22:00Z</time></trkpt><trkpt lat="40.25802622977525" lon="9.577490100869953"><ele>492.33333333333337</ele><time>2026-05-01T09:22:01Z</time></trkpt><trkpt lat="40.25781177011893" lon="9.57747322316336"><ele>499.0</ele><time>2026-05-01T09:22:02Z</time></trkpt><trkpt lat="40.257634912092215" lon="9.577418215784695"><ele>499.0</ele><time>2026-05-01T09:22:03Z</time></trkpt><trkpt lat="40.257447292232264" lon="9.577352637263143"><ele>499.0</ele><time>2026-05-01T09:22:04Z</time></trkpt><trkpt lat="40.257269616952726" lon="9.577267482733427"><ele>499.0</ele><time>2026-05-01T09:22:05Z</time></trkpt><trkpt lat="40.25708445994556" lon="9.577217708861296"><ele>504.33333333333337</ele><time>2026-05-01T09:22:06Z</time></trkpt><trkpt lat="40.25689813950481" lon="9.577212060974578"><ele>509.66666666666663</ele><time>2026-05-01T09:22:07Z</time></trkpt><trkpt lat="40.256711248528646" lon="9.57720846218412"><ele>515.0</ele><time>2026-05-01T09:22:08Z</time></trkpt><trkpt lat="40.256529429538034" lon="9.577199070693226"><ele>521.3333333333333</ele><time>2026-05-01T09:22:09Z</time></trkpt><trkpt lat="40.25635127522817" lon="9.577183207781376"><ele>527.6666666666666</ele><time>2026-05-01T09:22:10Z</time></trkpt><trkpt lat="40.25618975107793" lon="9.577133707792974"><ele>534.0</ele><time>2026-05-01T09:22:11Z</time></trkpt><trkpt lat="40.25603168386036" lon="9.577030990398042"><ele>530.3333333333334</ele><time>2026-05-01T09:22:12Z</time></trkpt><trkpt lat="40.25586283291069" lon="9.576963189730455"><ele>526.6666666666667</ele><time>2026-05-01T09:22:13Z</time></trkpt><trkpt lat="40.25569975527971" lon="9.576928785351933"><ele>523.0</ele><time>2026-05-01T09:22:14Z</time></trkpt><trkpt lat="40.25555559326843" lon="9.57689748626165"><ele>523.0</ele><time>2026-05-01T09:22:15Z</time></trkpt><trkpt lat="40.255411211098334" lon="9.576830968024579"><ele>523.0</ele><time>2026-05-01T09:22:16Z</time></trkpt><trkpt lat="40.25529073856632" lon="9.576726065438823"><ele>523.0</ele><time>2026-05-01T09:22:17Z</time></trkpt><trkpt lat="40.25518524511451" lon="9.576549078043051"><ele>523.0</ele><time>2026-05-01T09:22:18Z</time></trkpt><trkpt lat="40.255072874996316" lon="9.576374729512846"><ele>523.0</ele><time>2026-05-01T09:22:19Z</time></trkpt><trkpt lat="40.254966533711666" lon="9.5762227004053"><ele>523.0</ele><time>2026-05-01T09:22:20Z</time></trkpt><trkpt lat="40.254834205709045" lon="9.576109774732624"><ele>524.5</ele><time>2026-05-01T09:22:21Z</time></trkpt><trkpt lat="40.25471754170975" lon="9.57600263860242"><ele>526.0</ele><time>2026-05-01T09:22:22Z</time></trkpt><trkpt lat="40.254621136251956" lon="9.575896753529694"><ele>527.5</ele><time>2026-05-01T09:22:23Z</time></trkpt><trkpt lat="40.25453844953034" lon="9.575786791715766"><ele>529.0</ele><time>2026-05-01T09:22:24Z</time></trkpt><trkpt lat="40.254485288827276" lon="9.575658352891221"><ele>529.0</ele><time>2026-05-01T09:22:25Z</time></trkpt><trkpt lat="40.254456544748315" lon="9.575535734548126"><ele>529.0</ele><time>2026-05-01T09:22:26Z</time></trkpt><trkpt lat="40.254431308885266" lon="9.575421512495467"><ele>529.0</ele><time>2026-05-01T09:22:27Z</time></trkpt><trkpt lat="40.25439627708221" lon="9.575311065680529"><ele>529.0</ele><time>2026-05-01T09:22:28Z</time></trkpt><trkpt lat="40.254353180679466" lon="9.57523724001498"><ele>529.0</ele><time>2026-05-01T09:22:29Z</time></trkpt><trkpt lat="40.25427098762624" lon="9.575158841054026"><ele>528.4</ele><time>2026-05-01T09:22:31Z</time></trkpt><trkpt lat="40.254161254036234" lon="9.57510930204539"><ele>527.8</ele><time>2026-05-01T09:22:33Z</time></trkpt><trkpt lat="40.25407915302114" lon="9.575107744715417"><ele>527.2</ele><time>2026-05-01T09:22:34Z</time></trkpt><trkpt lat="40.253987520446195" lon="9.575083897351927"><ele>526.6</ele><time>2026-05-01T09:22:35Z</time></trkpt><trkpt lat="40.25387487020458" lon="9.575069786177826"><ele>526.0</ele><time>2026-05-01T09:22:36Z</time></trkpt><trkpt lat="40.25373910839886" lon="9.575053780384863"><ele>526.0</ele><time>2026-05-01T09:22:37Z</time></trkpt><trkpt lat="40.25359069401277" lon="9.575037133423834"><ele>526.0</ele><time>2026-05-01T09:22:38Z</time></trkpt><trkpt lat="40.2534389349183" lon="9.575017013806379"><ele>526.0</ele><time>2026-05-01T09:22:39Z</time></trkpt><trkpt lat="40.253304308101654" lon="9.574962009285228"><ele>526.0</ele><time>2026-05-01T09:22:40Z</time></trkpt><trkpt lat="40.2531469294089" lon="9.574891960111145"><ele>532.0</ele><time>2026-05-01T09:22:41Z</time></trkpt><trkpt lat="40.25298907310231" lon="9.574810877823651"><ele>538.0</ele><time>2026-05-01T09:22:42Z</time></trkpt><trkpt lat="40.25283090533691" lon="9.5747320290756"><ele>544.0</ele><time>2026-05-01T09:22:43Z</time></trkpt><trkpt lat="40.2526726393273" lon="9.574649432648648"><ele>544.0</ele><time>2026-05-01T09:22:44Z</time></trkpt><trkpt lat="40.252516186573565" lon="9.574552719707784"><ele>544.0</ele><time>2026-05-01T09:22:45Z</time></trkpt><trkpt lat="40.25236374924513" lon="9.574446492368127"><ele>544.0</ele><time>2026-05-01T09:22:46Z</time></trkpt><trkpt lat="40.25221199427981" lon="9.574351651241958"><ele>541.25</ele><time>2026-05-01T09:22:47Z</time></trkpt><trkpt lat="40.252068476709994" lon="9.574302883644581"><ele>538.5</ele><time>2026-05-01T09:22:48Z</time></trkpt><trkpt lat="40.25193607543523" lon="9.574269828057275"><ele>535.75</ele><time>2026-05-01T09:22:49Z</time></trkpt><trkpt lat="40.251813553491225" lon="9.574197671813966"><ele>533.0</ele><time>2026-05-01T09:22:50Z</time></trkpt><trkpt lat="40.25169918001916" lon="9.574095430155413"><ele>533.0</ele><time>2026-05-01T09:22:51Z</time></trkpt><trkpt lat="40.2515886428177" lon="9.574001044764685"><ele>533.0</ele><time>2026-05-01T09:22:52Z</time></trkpt><trkpt lat="40.2514821925908" lon="9.573926266918228"><ele>533.0</ele><time>2026-05-01T09:22:53Z</time></trkpt><trkpt lat="40.251365914899125" lon="9.573873667581966"><ele>533.0</ele><time>2026-05-01T09:22:54Z</time></trkpt><trkpt lat="40.25124308296855" lon="9.57383544846361"><ele>538.0</ele><time>2026-05-01T09:22:55Z</time></trkpt><trkpt lat="40.251118422583765" lon="9.57381214985783"><ele>543.0</ele><time>2026-05-01T09:22:56Z</time></trkpt><trkpt lat="40.2510039820565" lon="9.573776772108983"><ele>548.0</ele><time>2026-05-01T09:22:57Z</time></trkpt><trkpt lat="40.250899160580175" lon="9.57370245677048"><ele>553.0</ele><time>2026-05-01T09:22:58Z</time></trkpt><trkpt lat="40.25081184514183" lon="9.573603746289162"><ele>549.6</ele><time>2026-05-01T09:22:59Z</time></trkpt><trkpt lat="40.25073972482854" lon="9.573514101148813"><ele>546.1999999999999</ele><time>2026-05-01T09:23:00Z</time></trkpt><trkpt lat="40.25065361560172" lon="9.573452972337488"><ele>542.8</ele><time>2026-05-01T09:23:01Z</time></trkpt><trkpt lat="40.25055197413697" lon="9.573434504064055"><ele>539.4</ele><time>2026-05-01T09:23:02Z</time></trkpt><trkpt lat="40.25044031490876" lon="9.573428730542734"><ele>536.0</ele><time>2026-05-01T09:23:03Z</time></trkpt><trkpt lat="40.250316231759" lon="9.57339667654459"><ele>536.0</ele><time>2026-05-01T09:23:04Z</time></trkpt><trkpt lat="40.250189511784164" lon="9.573334192735668"><ele>536.0</ele><time>2026-05-01T09:23:05Z</time></trkpt><trkpt lat="40.25006920250436" lon="9.573250812753493"><ele>536.0</ele><time>2026-05-01T09:23:06Z</time></trkpt><trkpt lat="40.249948265393094" lon="9.573167158597467"><ele>536.0</ele><time>2026-05-01T09:23:07Z</time></trkpt><trkpt lat="40.24982674997282" lon="9.573087845803574"><ele>542.25</ele><time>2026-05-01T09:23:08Z</time></trkpt><trkpt lat="40.24970826429441" lon="9.573008735548179"><ele>548.5</ele><time>2026-05-01T09:23:09Z</time></trkpt><trkpt lat="40.24958123009333" lon="9.572941392054004"><ele>554.75</ele><time>2026-05-01T09:23:10Z</time></trkpt><trkpt lat="40.24943634906861" lon="9.572898880878508"><ele>561.0</ele><time>2026-05-01T09:23:11Z</time></trkpt><trkpt lat="40.24928892288921" lon="9.572892499800108"><ele>561.0</ele><time>2026-05-01T09:23:12Z</time></trkpt><trkpt lat="40.24913293757228" lon="9.5729018725799"><ele>561.0</ele><time>2026-05-01T09:23:13Z</time></trkpt><trkpt lat="40.24896082620208" lon="9.572913971549099"><ele>561.0</ele><time>2026-05-01T09:23:14Z</time></trkpt><trkpt lat="40.24880747026083" lon="9.572873106190707"><ele>555.6666666666666</ele><time>2026-05-01T09:23:15Z</time></trkpt><trkpt lat="40.24866318944636" lon="9.572802411522773"><ele>550.3333333333333</ele><time>2026-05-01T09:23:16Z</time></trkpt><trkpt lat="40.24852341994123" lon="9.572712939492556"><ele>545.0</ele><time>2026-05-01T09:23:17Z</time></trkpt><trkpt lat="40.248390792088365" lon="9.572617733640602"><ele>545.0</ele><time>2026-05-01T09:23:18Z</time></trkpt><trkpt lat="40.248261061673624" lon="9.572512721761226"><ele>545.0</ele><time>2026-05-01T09:23:19Z</time></trkpt><trkpt lat="40.24813461981364" lon="9.5724014170441"><ele>545.0</ele><time>2026-05-01T09:23:20Z</time></trkpt><trkpt lat="40.24801170436064" lon="9.572283644080054"><ele>542.75</ele><time>2026-05-01T09:23:21Z</time></trkpt><trkpt lat="40.247893940817306" lon="9.572166373060966"><ele>540.5</ele><time>2026-05-01T09:23:22Z</time></trkpt><trkpt lat="40.24777391649199" lon="9.572059821598598"><ele>538.25</ele><time>2026-05-01T09:23:23Z</time></trkpt><trkpt lat="40.24764861988469" lon="9.571966952738881"><ele>536.0</ele><time>2026-05-01T09:23:24Z</time></trkpt><trkpt lat="40.24751058762929" lon="9.571913455101098"><ele>536.0</ele><time>2026-05-01T09:23:25Z</time></trkpt><trkpt lat="40.24736314724192" lon="9.57190911125825"><ele>536.0</ele><time>2026-05-01T09:23:26Z</time></trkpt><trkpt lat="40.24722049627554" lon="9.57190475137951"><ele>536.0</ele><time>2026-05-01T09:23:27Z</time></trkpt><trkpt lat="40.24709215356027" lon="9.571873824713265"><ele>536.0</ele><time>2026-05-01T09:23:28Z</time></trkpt><trkpt lat="40.24699250286903" lon="9.571809895379308"><ele>542.0</ele><time>2026-05-01T09:23:29Z</time></trkpt><trkpt lat="40.246915488032876" lon="9.571719893383746"><ele>548.0</ele><time>2026-05-01T09:23:30Z</time></trkpt><trkpt lat="40.246832968264506" lon="9.571612991842489"><ele>554.0</ele><time>2026-05-01T09:23:31Z</time></trkpt><trkpt lat="40.24674237658631" lon="9.571482715973806"><ele>560.0</ele><time>2026-05-01T09:23:32Z</time></trkpt><trkpt lat="40.24662407555733" lon="9.571364055065695"><ele>560.0</ele><time>2026-05-01T09:23:33Z</time></trkpt><trkpt lat="40.24647630989745" lon="9.571270249626627"><ele>560.0</ele><time>2026-05-01T09:23:34Z</time></trkpt><trkpt lat="40.2463209887768" lon="9.571167154109304"><ele>560.0</ele><time>2026-05-01T09:23:35Z</time></trkpt><trkpt lat="40.24616750803853" lon="9.571051725555327"><ele>559.0</ele><time>2026-05-01T09:23:36Z</time></trkpt><trkpt lat="40.246016639527284" lon="9.57093734153888"><ele>558.0</ele><time>2026-05-01T09:23:37Z</time></trkpt><trkpt lat="40.245875098811084" lon="9.570822051149372"><ele>557.0</ele><time>2026-05-01T09:23:38Z</time></trkpt><trkpt lat="40.245741262029334" lon="9.570695190784843"><ele>576.3333333333333</ele><time>2026-05-01T09:23:39Z</time></trkpt><trkpt lat="40.2456142241418" lon="9.57056828585845"><ele>595.6666666666666</ele><time>2026-05-01T09:23:40Z</time></trkpt><trkpt lat="40.24548886196724" lon="9.570456610013865"><ele>615.0</ele><time>2026-05-01T09:23:41Z</time></trkpt><trkpt lat="40.245366462868766" lon="9.570361938048634"><ele>602.0</ele><time>2026-05-01T09:23:42Z</time></trkpt><trkpt lat="40.24525439830156" lon="9.570273701541794"><ele>589.0</ele><time>2026-05-01T09:23:43Z</time></trkpt><trkpt lat="40.24513688173504" lon="9.5701684114799"><ele>576.0</ele><time>2026-05-01T09:23:44Z</time></trkpt><trkpt lat="40.24503559610668" lon="9.570003592701738"><ele>563.0</ele><time>2026-05-01T09:23:45Z</time></trkpt><trkpt lat="40.24492550780386" lon="9.569827113056856"><ele>563.0</ele><time>2026-05-01T09:23:46Z</time></trkpt><trkpt lat="40.244799400701936" lon="9.56966561952143"><ele>563.0</ele><time>2026-05-01T09:23:47Z</time></trkpt><trkpt lat="40.244631907956524" lon="9.569515913718632"><ele>563.0</ele><time>2026-05-01T09:23:48Z</time></trkpt><trkpt lat="40.24447515694449" lon="9.569349968485072"><ele>563.3333333333333</ele><time>2026-05-01T09:23:49Z</time></trkpt><trkpt lat="40.244323036214745" lon="9.569179950199157"><ele>563.6666666666666</ele><time>2026-05-01T09:23:50Z</time></trkpt><trkpt lat="40.24418242037599" lon="9.569031114261088"><ele>564.0</ele><time>2026-05-01T09:23:51Z</time></trkpt><trkpt lat="40.244054720215345" lon="9.568898510323773"><ele>562.25</ele><time>2026-05-01T09:23:52Z</time></trkpt><trkpt lat="40.24393645523318" lon="9.568774247614119"><ele>560.5</ele><time>2026-05-01T09:23:53Z</time></trkpt><trkpt lat="40.243825356333836" lon="9.568654948417828"><ele>558.75</ele><time>2026-05-01T09:23:54Z</time></trkpt><trkpt lat="40.24371105122379" lon="9.568552261058553"><ele>557.0</ele><time>2026-05-01T09:23:55Z</time></trkpt><trkpt lat="40.24357161377524" lon="9.568490668251544"><ele>557.0</ele><time>2026-05-01T09:23:56Z</time></trkpt><trkpt lat="40.24341562947233" lon="9.568457823701344"><ele>557.0</ele><time>2026-05-01T09:23:57Z</time></trkpt><trkpt lat="40.24325739320478" lon="9.56840776571267"><ele>557.0</ele><time>2026-05-01T09:23:58Z</time></trkpt><trkpt lat="40.24310672149725" lon="9.56832780305074"><ele>570.0</ele><time>2026-05-01T09:23:59Z</time></trkpt><trkpt lat="40.24296103942832" lon="9.56824096935298"><ele>583.0</ele><time>2026-05-01T09:24:00Z</time></trkpt><trkpt lat="40.24282997426745" lon="9.56809541958117"><ele>596.0</ele><time>2026-05-01T09:24:01Z</time></trkpt><trkpt lat="40.24264639674472" lon="9.56798257290557"><ele>596.6666666666666</ele><time>2026-05-01T09:24:02Z</time></trkpt><trkpt lat="40.24249583156283" lon="9.567828457462788"><ele>597.3333333333334</ele><time>2026-05-01T09:24:03Z</time></trkpt><trkpt lat="40.242333727118194" lon="9.56767029460652"><ele>598.0</ele><time>2026-05-01T09:24:04Z</time></trkpt><trkpt lat="40.24217700512762" lon="9.567557011697597"><ele>598.0</ele><time>2026-05-01T09:24:05Z</time></trkpt><trkpt lat="40.24202309079842" lon="9.567461465769393"><ele>598.0</ele><time>2026-05-01T09:24:06Z</time></trkpt><trkpt lat="40.24191359333719" lon="9.567346316815629"><ele>598.0</ele><time>2026-05-01T09:24:07Z</time></trkpt><trkpt lat="40.241884790145974" lon="9.567190325962747"><ele>598.0</ele><time>2026-05-01T09:24:08Z</time></trkpt><trkpt lat="40.241871336670364" lon="9.566997740826052"><ele>591.0</ele><time>2026-05-01T09:24:09Z</time></trkpt><trkpt lat="40.24183347344783" lon="9.566783495049625"><ele>584.0</ele><time>2026-05-01T09:24:10Z</time></trkpt><trkpt lat="40.241727846770274" lon="9.566584239897287"><ele>577.0</ele><time>2026-05-01T09:24:11Z</time></trkpt><trkpt lat="40.24156848288539" lon="9.566389246838268"><ele>573.5</ele><time>2026-05-01T09:24:12Z</time></trkpt><trkpt lat="40.241383486204356" lon="9.566214847364837"><ele>570.0</ele><time>2026-05-01T09:24:13Z</time></trkpt><trkpt lat="40.24117468768112" lon="9.566079453521523"><ele>570.0</ele><time>2026-05-01T09:24:14Z</time></trkpt><trkpt lat="40.240943500704226" lon="9.565987029523862"><ele>570.0</ele><time>2026-05-01T09:24:15Z</time></trkpt><trkpt lat="40.24068321232644" lon="9.565906820413572"><ele>587.0</ele><time>2026-05-01T09:24:16Z</time></trkpt><trkpt lat="40.24040800601924" lon="9.565797420784191"><ele>604.0</ele><time>2026-05-01T09:24:17Z</time></trkpt><trkpt lat="40.2401465709008" lon="9.565661499899742"><ele>604.0</ele><time>2026-05-01T09:24:18Z</time></trkpt><trkpt lat="40.239926415898296" lon="9.565511085216041"><ele>604.0</ele><time>2026-05-01T09:24:19Z</time></trkpt><trkpt lat="40.23973536284759" lon="9.56537220070349"><ele>605.0</ele><time>2026-05-01T09:24:20Z</time></trkpt><trkpt lat="40.23958056268076" lon="9.565216032067717"><ele>606.0</ele><time>2026-05-01T09:24:21Z</time></trkpt><trkpt lat="40.23945466217862" lon="9.565031519484926"><ele>607.0</ele><time>2026-05-01T09:24:22Z</time></trkpt><trkpt lat="40.23932453263835" lon="9.56486874904424"><ele>607.0</ele><time>2026-05-01T09:24:23Z</time></trkpt><trkpt lat="40.23916003067443" lon="9.564753453883874"><ele>607.0</ele><time>2026-05-01T09:24:24Z</time></trkpt><trkpt lat="40.23895482823291" lon="9.564674855799561"><ele>607.0</ele><time>2026-05-01T09:24:25Z</time></trkpt><trkpt lat="40.238785442882865" lon="9.564582634124456"><ele>611.0</ele><time>2026-05-01T09:24:26Z</time></trkpt><trkpt lat="40.23863141378115" lon="9.564422192133971"><ele>615.0</ele><time>2026-05-01T09:24:27Z</time></trkpt><trkpt lat="40.2384815304861" lon="9.564224925370757"><ele>619.0</ele><time>2026-05-01T09:24:28Z</time></trkpt><trkpt lat="40.2383678837332" lon="9.564045924804626"><ele>619.0</ele><time>2026-05-01T09:24:29Z</time></trkpt><trkpt lat="40.238278243641375" lon="9.563872663107546"><ele>619.0</ele><time>2026-05-01T09:24:30Z</time></trkpt><trkpt lat="40.23821317241493" lon="9.563702946095743"><ele>619.0</ele><time>2026-05-01T09:24:31Z</time></trkpt><trkpt lat="40.23816504766851" lon="9.563536727175507"><ele>619.0</ele><time>2026-05-01T09:24:32Z</time></trkpt><trkpt lat="40.23811194206609" lon="9.563356941009149"><ele>624.0</ele><time>2026-05-01T09:24:33Z</time></trkpt><trkpt lat="40.238045957333235" lon="9.563179408671173"><ele>629.0</ele><time>2026-05-01T09:24:34Z</time></trkpt><trkpt lat="40.23796325609802" lon="9.56301153310237"><ele>634.0</ele><time>2026-05-01T09:24:35Z</time></trkpt><trkpt lat="40.23786599897804" lon="9.56285101162972"><ele>626.25</ele><time>2026-05-01T09:24:36Z</time></trkpt><trkpt lat="40.23776249660297" lon="9.56269731180282"><ele>618.5</ele><time>2026-05-01T09:24:37Z</time></trkpt><trkpt lat="40.23766961638681" lon="9.562562491848684"><ele>610.75</ele><time>2026-05-01T09:24:38Z</time></trkpt><trkpt lat="40.237570956500306" lon="9.562451601793173"><ele>603.0</ele><time>2026-05-01T09:24:39Z</time></trkpt><trkpt lat="40.23746489026316" lon="9.562331591493884"><ele>603.0</ele><time>2026-05-01T09:24:40Z</time></trkpt><trkpt lat="40.237341208135454" lon="9.562241044790905"><ele>603.0</ele><time>2026-05-01T09:24:41Z</time></trkpt><trkpt lat="40.237216022290596" lon="9.562139984210797"><ele>603.0</ele><time>2026-05-01T09:24:42Z</time></trkpt><trkpt lat="40.23708829207686" lon="9.562030605769838"><ele>603.0</ele><time>2026-05-01T09:24:43Z</time></trkpt><trkpt lat="40.23695539539326" lon="9.561912238086206"><ele>606.0</ele><time>2026-05-01T09:24:44Z</time></trkpt><trkpt lat="40.23681842358747" lon="9.561795665448114"><ele>609.0</ele><time>2026-05-01T09:24:45Z</time></trkpt><trkpt lat="40.23668770816217" lon="9.561676423129846"><ele>612.0</ele><time>2026-05-01T09:24:46Z</time></trkpt><trkpt lat="40.2365639924356" lon="9.561556731363954"><ele>613.6666666666666</ele><time>2026-05-01T09:24:47Z</time></trkpt><trkpt lat="40.23645203365245" lon="9.561421543627196"><ele>615.3333333333333</ele><time>2026-05-01T09:24:48Z</time></trkpt><trkpt lat="40.23634552206354" lon="9.561268364321531"><ele>617.0</ele><time>2026-05-01T09:24:49Z</time></trkpt><trkpt lat="40.23625101131669" lon="9.561099710902807"><ele>617.0</ele><time>2026-05-01T09:24:50Z</time></trkpt><trkpt lat="40.23614234521782" lon="9.560943094736448"><ele>617.0</ele><time>2026-05-01T09:24:51Z</time></trkpt><trkpt lat="40.236012695012555" lon="9.56080983039712"><ele>617.0</ele><time>2026-05-01T09:24:52Z</time></trkpt><trkpt lat="40.235867043002116" lon="9.560698247662215"><ele>617.0</ele><time>2026-05-01T09:24:53Z</time></trkpt><trkpt lat="40.2357108968086" lon="9.560608986380636"><ele>617.0</ele><time>2026-05-01T09:24:54Z</time></trkpt><trkpt lat="40.23554549829161" lon="9.56054247773333"><ele>617.0</ele><time>2026-05-01T09:24:55Z</time></trkpt><trkpt lat="40.23537371795808" lon="9.560494284123834"><ele>613.3333333333333</ele><time>2026-05-01T09:24:56Z</time></trkpt><trkpt lat="40.235202616619056" lon="9.560448047563616"><ele>609.6666666666666</ele><time>2026-05-01T09:24:57Z</time></trkpt><trkpt lat="40.235033210154995" lon="9.560383023686576"><ele>606.0</ele><time>2026-05-01T09:24:58Z</time></trkpt><trkpt lat="40.23487495764862" lon="9.560278459746113"><ele>616.6666666666666</ele><time>2026-05-01T09:24:59Z</time></trkpt><trkpt lat="40.23473063652301" lon="9.560149342190064"><ele>627.3333333333333</ele><time>2026-05-01T09:25:00Z</time></trkpt><trkpt lat="40.23459458305581" lon="9.560003080738483"><ele>638.0</ele><time>2026-05-01T09:25:01Z</time></trkpt><trkpt lat="40.23445753037652" lon="9.559867203679822"><ele>638.0</ele><time>2026-05-01T09:25:02Z</time></trkpt><trkpt lat="40.23431355621566" lon="9.55974013978561"><ele>638.0</ele><time>2026-05-01T09:25:03Z</time></trkpt><trkpt lat="40.23417276284971" lon="9.559622453324394"><ele>638.0</ele><time>2026-05-01T09:25:04Z</time></trkpt><trkpt lat="40.23404464739639" lon="9.559534071473266"><ele>639.5</ele><time>2026-05-01T09:25:05Z</time></trkpt><trkpt lat="40.23392026785407" lon="9.559456917761896"><ele>641.0</ele><time>2026-05-01T09:25:06Z</time></trkpt><trkpt lat="40.233794536349464" lon="9.55936292548722"><ele>642.5</ele><time>2026-05-01T09:25:07Z</time></trkpt><trkpt lat="40.23367799774904" lon="9.55923117475551"><ele>644.0</ele><time>2026-05-01T09:25:08Z</time></trkpt><trkpt lat="40.23356728045614" lon="9.559069464490193"><ele>644.0</ele><time>2026-05-01T09:25:09Z</time></trkpt><trkpt lat="40.23345977567868" lon="9.55894274335025"><ele>644.0</ele><time>2026-05-01T09:25:10Z</time></trkpt><trkpt lat="40.23334821280805" lon="9.5588477106011"><ele>644.0</ele><time>2026-05-01T09:25:11Z</time></trkpt><trkpt lat="40.23323986491412" lon="9.558763120649607"><ele>644.0</ele><time>2026-05-01T09:25:12Z</time></trkpt><trkpt lat="40.233144930864256" lon="9.558678951853846"><ele>645.4000000000001</ele><time>2026-05-01T09:25:13Z</time></trkpt><trkpt lat="40.23307633484072" lon="9.558557133339175"><ele>646.8</ele><time>2026-05-01T09:25:14Z</time></trkpt><trkpt lat="40.23307063375196" lon="9.558426029899243"><ele>648.2</ele><time>2026-05-01T09:25:15Z</time></trkpt><trkpt lat="40.23305305533351" lon="9.558295056188262"><ele>649.5999999999999</ele><time>2026-05-01T09:25:16Z</time></trkpt><trkpt lat="40.2330026658938" lon="9.558208529307684"><ele>651.0</ele><time>2026-05-01T09:25:17Z</time></trkpt><trkpt lat="40.23293168917437" lon="9.55809952158552"><ele>651.0</ele><time>2026-05-01T09:25:18Z</time></trkpt><trkpt lat="40.232831624996805" lon="9.558003411696593"><ele>651.0</ele><time>2026-05-01T09:25:19Z</time></trkpt><trkpt lat="40.23271658980021" lon="9.55792422197923"><ele>651.0</ele><time>2026-05-01T09:25:20Z</time></trkpt><trkpt lat="40.23259423436206" lon="9.557845084477485"><ele>651.0</ele><time>2026-05-01T09:25:21Z</time></trkpt><trkpt lat="40.23247046615101" lon="9.55777240313863"><ele>645.75</ele><time>2026-05-01T09:25:22Z</time></trkpt><trkpt lat="40.23234111490224" lon="9.557714813906271"><ele>640.5</ele><time>2026-05-01T09:25:23Z</time></trkpt><trkpt lat="40.23220888443107" lon="9.557670461071206"><ele>635.25</ele><time>2026-05-01T09:25:24Z</time></trkpt><trkpt lat="40.23208417694895" lon="9.557607225295362"><ele>630.0</ele><time>2026-05-01T09:25:25Z</time></trkpt><trkpt lat="40.23196211919218" lon="9.557569774324037"><ele>630.0</ele><time>2026-05-01T09:25:26Z</time></trkpt><trkpt lat="40.23185752064789" lon="9.557528561174582"><ele>630.0</ele><time>2026-05-01T09:25:27Z</time></trkpt><trkpt lat="40.23174614560169" lon="9.557517790505255"><ele>630.0</ele><time>2026-05-01T09:25:28Z</time></trkpt><trkpt lat="40.23163579634523" lon="9.557545887141432"><ele>630.0</ele><time>2026-05-01T09:25:29Z</time></trkpt><trkpt lat="40.231541543076226" lon="9.557578482328582"><ele>630.0</ele><time>2026-05-01T09:25:30Z</time></trkpt><trkpt lat="40.23144934937758" lon="9.557570361688613"><ele>636.75</ele><time>2026-05-01T09:25:31Z</time></trkpt><trkpt lat="40.231344323247455" lon="9.557490848958626"><ele>643.5</ele><time>2026-05-01T09:25:32Z</time></trkpt><trkpt lat="40.23125660946369" lon="9.5573826649557"><ele>650.25</ele><time>2026-05-01T09:25:33Z</time></trkpt><trkpt lat="40.23117174329362" lon="9.557260866275609"><ele>657.0</ele><time>2026-05-01T09:25:34Z</time></trkpt><trkpt lat="40.23106630894882" lon="9.557137153921026"><ele>648.0</ele><time>2026-05-01T09:25:36Z</time></trkpt><trkpt lat="40.23099444801571" lon="9.557030539947624"><ele>639.0</ele><time>2026-05-01T09:25:37Z</time></trkpt><trkpt lat="40.23090883871663" lon="9.556942015180136"><ele>630.0</ele><time>2026-05-01T09:25:38Z</time></trkpt><trkpt lat="40.23079969180532" lon="9.556885220957724"><ele>621.0</ele><time>2026-05-01T09:25:39Z</time></trkpt><trkpt lat="40.230672209312" lon="9.556849686468384"><ele>626.3333333333334</ele><time>2026-05-01T09:25:40Z</time></trkpt><trkpt lat="40.23053381452649" lon="9.556836675160874"><ele>631.6666666666667</ele><time>2026-05-01T09:25:41Z</time></trkpt><trkpt lat="40.23037768137599" lon="9.556814484109724"><ele>637.0</ele><time>2026-05-01T09:25:42Z</time></trkpt><trkpt lat="40.2302231199198" lon="9.5567639812729"><ele>637.0</ele><time>2026-05-01T09:25:43Z</time></trkpt><trkpt lat="40.230077019453525" lon="9.55670635349014"><ele>637.0</ele><time>2026-05-01T09:25:44Z</time></trkpt><trkpt lat="40.2299625117375" lon="9.55663817309952"><ele>637.0</ele><time>2026-05-01T09:25:45Z</time></trkpt><trkpt lat="40.229841504508364" lon="9.556567230373364"><ele>637.0</ele><time>2026-05-01T09:25:46Z</time></trkpt><trkpt lat="40.229735220505084" lon="9.556492638905599"><ele>640.4000000000001</ele><time>2026-05-01T09:25:47Z</time></trkpt><trkpt lat="40.229671095520715" lon="9.556377237712523"><ele>643.8000000000001</ele><time>2026-05-01T09:25:48Z</time></trkpt><trkpt lat="40.22957718125142" lon="9.556287461851117"><ele>647.2</ele><time>2026-05-01T09:25:49Z</time></trkpt><trkpt lat="40.22950193716633" lon="9.55618130497607"><ele>650.6</ele><time>2026-05-01T09:25:50Z</time></trkpt><trkpt lat="40.22940759411805" lon="9.556115520127275"><ele>654.0</ele><time>2026-05-01T09:25:51Z</time></trkpt><trkpt lat="40.229302907032135" lon="9.556112255999718"><ele>654.0</ele><time>2026-05-01T09:25:52Z</time></trkpt><trkpt lat="40.22920369784968" lon="9.556164489802054"><ele>654.0</ele><time>2026-05-01T09:25:53Z</time></trkpt><trkpt lat="40.22911709778984" lon="9.556255827948565"><ele>654.0</ele><time>2026-05-01T09:25:54Z</time></trkpt><trkpt lat="40.22903561760245" lon="9.556346583079856"><ele>654.0</ele><time>2026-05-01T09:25:55Z</time></trkpt><trkpt lat="40.228961922482796" lon="9.556431340494855"><ele>654.0</ele><time>2026-05-01T09:25:56Z</time></trkpt><trkpt lat="40.228848614652264" lon="9.556388043660448"><ele>656.4000000000001</ele><time>2026-05-01T09:25:57Z</time></trkpt><trkpt lat="40.22873627681082" lon="9.556336849251156"><ele>658.8</ele><time>2026-05-01T09:25:58Z</time></trkpt><trkpt lat="40.22861702623867" lon="9.556295243315061"><ele>661.2</ele><time>2026-05-01T09:25:59Z</time></trkpt><trkpt lat="40.2285246546259" lon="9.55624621309835"><ele>663.5999999999999</ele><time>2026-05-01T09:26:00Z</time></trkpt><trkpt lat="40.2284367638847" lon="9.556208656767893"><ele>666.0</ele><time>2026-05-01T09:26:01Z</time></trkpt><trkpt lat="40.228341163511935" lon="9.556171891244862"><ele>664.75</ele><time>2026-05-01T09:26:02Z</time></trkpt><trkpt lat="40.22823356803597" lon="9.556118916364465"><ele>663.5</ele><time>2026-05-01T09:26:03Z</time></trkpt><trkpt lat="40.22812436520841" lon="9.556043767849124"><ele>662.25</ele><time>2026-05-01T09:26:04Z</time></trkpt><trkpt lat="40.228014961490594" lon="9.55593477063034"><ele>661.0</ele><time>2026-05-01T09:26:05Z</time></trkpt><trkpt lat="40.227900326024525" lon="9.555817582395136"><ele>661.0</ele><time>2026-05-01T09:26:06Z</time></trkpt><trkpt lat="40.22776684601943" lon="9.55570273351359"><ele>661.0</ele><time>2026-05-01T09:26:07Z</time></trkpt><trkpt lat="40.22762555094017" lon="9.555617832006497"><ele>661.0</ele><time>2026-05-01T09:26:08Z</time></trkpt><trkpt lat="40.22745082634209" lon="9.55554828497974"><ele>668.6666666666667</ele><time>2026-05-01T09:26:09Z</time></trkpt><trkpt lat="40.22725575858862" lon="9.555476084682207"><ele>676.3333333333334</ele><time>2026-05-01T09:26:10Z</time></trkpt><trkpt lat="40.22704878262873" lon="9.555398443340254"><ele>684.0</ele><time>2026-05-01T09:26:11Z</time></trkpt><trkpt lat="40.22682230145463" lon="9.5552990036379"><ele>668.5</ele><time>2026-05-01T09:26:12Z</time></trkpt><trkpt lat="40.2265778819041" lon="9.555191230346306"><ele>653.0</ele><time>2026-05-01T09:26:13Z</time></trkpt><trkpt lat="40.226305633292874" lon="9.555091524561218"><ele>653.0</ele><time>2026-05-01T09:26:14Z</time></trkpt><trkpt lat="40.2260496369205" lon="9.554983712063246"><ele>653.0</ele><time>2026-05-01T09:26:15Z</time></trkpt><trkpt lat="40.22585323117717" lon="9.55494903908087"><ele>653.0</ele><time>2026-05-01T09:26:16Z</time></trkpt><trkpt lat="40.225679252120166" lon="9.55490492352172"><ele>653.0</ele><time>2026-05-01T09:26:17Z</time></trkpt><trkpt lat="40.22552757459332" lon="9.5548635635839"><ele>653.0</ele><time>2026-05-01T09:26:18Z</time></trkpt><trkpt lat="40.22540908206788" lon="9.554772044933024"><ele>658.3333333333333</ele><time>2026-05-01T09:26:19Z</time></trkpt><trkpt lat="40.225301522490845" lon="9.554611661665588"><ele>663.6666666666666</ele><time>2026-05-01T09:26:20Z</time></trkpt><trkpt lat="40.22514817443412" lon="9.554464832289392"><ele>669.0</ele><time>2026-05-01T09:26:21Z</time></trkpt><trkpt lat="40.224953893823646" lon="9.554359475948491"><ele>666.6666666666666</ele><time>2026-05-01T09:26:22Z</time></trkpt><trkpt lat="40.2247450114288" lon="9.554275747307607"><ele>664.3333333333333</ele><time>2026-05-01T09:26:23Z</time></trkpt><trkpt lat="40.224523060930615" lon="9.55419756064294"><ele>662.0</ele><time>2026-05-01T09:26:24Z</time></trkpt><trkpt lat="40.22432932278345" lon="9.554126806502563"><ele>662.0</ele><time>2026-05-01T09:26:25Z</time></trkpt><trkpt lat="40.224166316604034" lon="9.55403475233505"><ele>662.0</ele><time>2026-05-01T09:26:26Z</time></trkpt><trkpt lat="40.2240160051687" lon="9.553950266633475"><ele>662.0</ele><time>2026-05-01T09:26:27Z</time></trkpt><trkpt lat="40.22386195685046" lon="9.553894927074623"><ele>666.6666666666666</ele><time>2026-05-01T09:26:28Z</time></trkpt><trkpt lat="40.22369490830019" lon="9.553877309945982"><ele>671.3333333333334</ele><time>2026-05-01T09:26:29Z</time></trkpt><trkpt lat="40.22351951994078" lon="9.553877378460953"><ele>676.0</ele><time>2026-05-01T09:26:30Z</time></trkpt><trkpt lat="40.22333771038336" lon="9.553918173792384"><ele>676.0</ele><time>2026-05-01T09:26:31Z</time></trkpt><trkpt lat="40.2231510227172" lon="9.553960333886803"><ele>676.0</ele><time>2026-05-01T09:26:32Z</time></trkpt><trkpt lat="40.22297153032472" lon="9.553959487241976"><ele>676.0</ele><time>2026-05-01T09:26:33Z</time></trkpt><trkpt lat="40.22281305495028" lon="9.553914424935545"><ele>678.3333333333334</ele><time>2026-05-01T09:26:34Z</time></trkpt><trkpt lat="40.22265529375448" lon="9.553864413207501"><ele>680.6666666666666</ele><time>2026-05-01T09:26:35Z</time></trkpt><trkpt lat="40.22249662343039" lon="9.553834609450426"><ele>683.0</ele><time>2026-05-01T09:26:36Z</time></trkpt><trkpt lat="40.22233505998003" lon="9.553836538217906"><ele>683.6666666666666</ele><time>2026-05-01T09:26:37Z</time></trkpt><trkpt lat="40.22216501534904" lon="9.553869112009558"><ele>684.3333333333334</ele><time>2026-05-01T09:26:38Z</time></trkpt><trkpt lat="40.2219881687156" lon="9.553890678153106"><ele>685.0</ele><time>2026-05-01T09:26:39Z</time></trkpt><trkpt lat="40.221799147004845" lon="9.553872859013273"><ele>685.0</ele><time>2026-05-01T09:26:40Z</time></trkpt><trkpt lat="40.221614354045194" lon="9.553856123410727"><ele>685.0</ele><time>2026-05-01T09:26:41Z</time></trkpt><trkpt lat="40.22143491451292" lon="9.553839576434516"><ele>685.0</ele><time>2026-05-01T09:26:42Z</time></trkpt><trkpt lat="40.221262129042515" lon="9.553821267980263"><ele>687.0</ele><time>2026-05-01T09:26:43Z</time></trkpt><trkpt lat="40.22109865524844" lon="9.553775424572303"><ele>689.0</ele><time>2026-05-01T09:26:44Z</time></trkpt><trkpt lat="40.22096301517492" lon="9.553745184934126"><ele>691.0</ele><time>2026-05-01T09:26:45Z</time></trkpt><trkpt lat="40.220825913425365" lon="9.553781620150138"><ele>693.0</ele><time>2026-05-01T09:26:46Z</time></trkpt><trkpt lat="40.22069820857502" lon="9.553870488034612"><ele>694.75</ele><time>2026-05-01T09:26:47Z</time></trkpt><trkpt lat="40.22057972127243" lon="9.553939573537418"><ele>696.5</ele><time>2026-05-01T09:26:48Z</time></trkpt><trkpt lat="40.22044986602788" lon="9.553914933274037"><ele>698.25</ele><time>2026-05-01T09:26:49Z</time></trkpt><trkpt lat="40.22030857249858" lon="9.553912772677615"><ele>700.0</ele><time>2026-05-01T09:26:50Z</time></trkpt><trkpt lat="40.220142754415335" lon="9.553876861893784"><ele>700.0</ele><time>2026-05-01T09:26:51Z</time></trkpt><trkpt lat="40.21998743260011" lon="9.553858409814342"><ele>700.0</ele><time>2026-05-01T09:26:52Z</time></trkpt><trkpt lat="40.21985735773275" lon="9.553843384568998"><ele>700.0</ele><time>2026-05-01T09:26:53Z</time></trkpt><trkpt lat="40.219745641526764" lon="9.553830040524524"><ele>700.0</ele><time>2026-05-01T09:26:54Z</time></trkpt><trkpt lat="40.219674582112596" lon="9.553816671891846"><ele>695.5</ele><time>2026-05-01T09:26:55Z</time></trkpt><trkpt lat="40.21955744447563" lon="9.553675515227328"><ele>691.0</ele><time>2026-05-01T09:26:57Z</time></trkpt><trkpt lat="40.219452937810246" lon="9.553556079634754"><ele>686.5</ele><time>2026-05-01T09:26:58Z</time></trkpt><trkpt lat="40.219378360554984" lon="9.553410219588358"><ele>682.0</ele><time>2026-05-01T09:26:59Z</time></trkpt><trkpt lat="40.21929781141337" lon="9.553295868859035"><ele>682.0</ele><time>2026-05-01T09:27:00Z</time></trkpt><trkpt lat="40.21919206201276" lon="9.553242886996635"><ele>682.0</ele><time>2026-05-01T09:27:01Z</time></trkpt><trkpt lat="40.219073646605715" lon="9.55324798520134"><ele>682.0</ele><time>2026-05-01T09:27:02Z</time></trkpt><trkpt lat="40.2189509969439" lon="9.553268134953678"><ele>682.0</ele><time>2026-05-01T09:27:03Z</time></trkpt><trkpt lat="40.21882955560015" lon="9.55324776285276"><ele>690.0</ele><time>2026-05-01T09:27:04Z</time></trkpt><trkpt lat="40.21871378805286" lon="9.553173261394612"><ele>698.0</ele><time>2026-05-01T09:27:05Z</time></trkpt><trkpt lat="40.21861981630457" lon="9.55307116397359"><ele>706.0</ele><time>2026-05-01T09:27:06Z</time></trkpt><trkpt lat="40.21853391668376" lon="9.552999831718774"><ele>714.0</ele><time>2026-05-01T09:27:07Z</time></trkpt><trkpt lat="40.218434989484" lon="9.55294461107197"><ele>714.0</ele><time>2026-05-01T09:27:08Z</time></trkpt><trkpt lat="40.21831679196332" lon="9.552914221011735"><ele>714.0</ele><time>2026-05-01T09:27:09Z</time></trkpt><trkpt lat="40.21818976427609" lon="9.552916256073336"><ele>714.0</ele><time>2026-05-01T09:27:10Z</time></trkpt><trkpt lat="40.21805914703997" lon="9.552926759145143"><ele>714.0</ele><time>2026-05-01T09:27:11Z</time></trkpt><trkpt lat="40.21792963246878" lon="9.552915606300509"><ele>709.5</ele><time>2026-05-01T09:27:12Z</time></trkpt><trkpt lat="40.21780386905858" lon="9.55285946679152"><ele>705.0</ele><time>2026-05-01T09:27:13Z</time></trkpt><trkpt lat="40.21768661306854" lon="9.552780034626409"><ele>700.5</ele><time>2026-05-01T09:27:14Z</time></trkpt><trkpt lat="40.21758591430084" lon="9.552708335529982"><ele>696.0</ele><time>2026-05-01T09:27:15Z</time></trkpt><trkpt lat="40.21749799453573" lon="9.552632453512478"><ele>696.0</ele><time>2026-05-01T09:27:16Z</time></trkpt><trkpt lat="40.21741387225518" lon="9.552530629188697"><ele>696.0</ele><time>2026-05-01T09:27:17Z</time></trkpt><trkpt lat="40.21731791672904" lon="9.552425444974565"><ele>696.0</ele><time>2026-05-01T09:27:18Z</time></trkpt><trkpt lat="40.217206206412556" lon="9.552327497186395"><ele>696.0</ele><time>2026-05-01T09:27:19Z</time></trkpt><trkpt lat="40.21707197385276" lon="9.55224954398235"><ele>701.3333333333334</ele><time>2026-05-01T09:27:20Z</time></trkpt><trkpt lat="40.216918063510946" lon="9.552196762646618"><ele>706.6666666666667</ele><time>2026-05-01T09:27:21Z</time></trkpt><trkpt lat="40.21674608726019" lon="9.552168328963786"><ele>712.0</ele><time>2026-05-01T09:27:22Z</time></trkpt><trkpt lat="40.216570779812386" lon="9.55216409196948"><ele>716.0</ele><time>2026-05-01T09:27:23Z</time></trkpt><trkpt lat="40.216404532983596" lon="9.5521847748004"><ele>720.0</ele><time>2026-05-01T09:27:24Z</time></trkpt><trkpt lat="40.21626400915225" lon="9.552219782827096"><ele>724.0</ele><time>2026-05-01T09:27:25Z</time></trkpt><trkpt lat="40.21614307570841" lon="9.55220774344096"><ele>728.0</ele><time>2026-05-01T09:27:26Z</time></trkpt><trkpt lat="40.21599401379901" lon="9.552179142988948"><ele>728.0</ele><time>2026-05-01T09:27:27Z</time></trkpt><trkpt lat="40.215804274713555" lon="9.552147940318399"><ele>728.0</ele><time>2026-05-01T09:27:28Z</time></trkpt><trkpt lat="40.21559672419154" lon="9.55206633834303"><ele>728.0</ele><time>2026-05-01T09:27:29Z</time></trkpt><trkpt lat="40.215396067282214" lon="9.551979368641215"><ele>719.3333333333333</ele><time>2026-05-01T09:27:30Z</time></trkpt><trkpt lat="40.21524214091051" lon="9.55186759365797"><ele>710.6666666666666</ele><time>2026-05-01T09:27:31Z</time></trkpt><trkpt lat="40.21510678648177" lon="9.551772732029278"><ele>702.0</ele><time>2026-05-01T09:27:32Z</time></trkpt><trkpt lat="40.21496733820015" lon="9.551733702751621"><ele>706.3333333333334</ele><time>2026-05-01T09:27:33Z</time></trkpt><trkpt lat="40.21479164272012" lon="9.551763706693592"><ele>710.6666666666667</ele><time>2026-05-01T09:27:34Z</time></trkpt><trkpt lat="40.21459633433071" lon="9.551790800985183"><ele>715.0</ele><time>2026-05-01T09:27:35Z</time></trkpt><trkpt lat="40.214410319511906" lon="9.551794177396571"><ele>715.0</ele><time>2026-05-01T09:27:36Z</time></trkpt><trkpt lat="40.21424088498881" lon="9.551778312353134"><ele>715.0</ele><time>2026-05-01T09:27:37Z</time></trkpt><trkpt lat="40.21406491322059" lon="9.551718031565935"><ele>715.0</ele><time>2026-05-01T09:27:38Z</time></trkpt><trkpt lat="40.213880032238094" lon="9.551620538736584"><ele>725.0</ele><time>2026-05-01T09:27:39Z</time></trkpt><trkpt lat="40.213694552628716" lon="9.551489428163137"><ele>735.0</ele><time>2026-05-01T09:27:40Z</time></trkpt><trkpt lat="40.2135075063154" lon="9.551362725336595"><ele>745.0</ele><time>2026-05-01T09:27:41Z</time></trkpt><trkpt lat="40.21333665242883" lon="9.55125754750394"><ele>741.6666666666667</ele><time>2026-05-01T09:27:42Z</time></trkpt><trkpt lat="40.21318483802233" lon="9.551166038217087"><ele>738.3333333333334</ele><time>2026-05-01T09:27:43Z</time></trkpt><trkpt lat="40.21304763102104" lon="9.551075729329897"><ele>735.0</ele><time>2026-05-01T09:27:44Z</time></trkpt><trkpt lat="40.212911012298214" lon="9.550977718948168"><ele>735.0</ele><time>2026-05-01T09:27:45Z</time></trkpt><trkpt lat="40.2127819528831" lon="9.55086045984501"><ele>735.0</ele><time>2026-05-01T09:27:46Z</time></trkpt><trkpt lat="40.2126523176486" lon="9.55072916980797"><ele>735.0</ele><time>2026-05-01T09:27:47Z</time></trkpt><trkpt lat="40.21252389826928" lon="9.550585221690389"><ele>735.0</ele><time>2026-05-01T09:27:48Z</time></trkpt><trkpt lat="40.21239930394751" lon="9.550428067720825"><ele>735.0</ele><time>2026-05-01T09:27:49Z</time></trkpt><trkpt lat="40.21227820275565" lon="9.550274355679907"><ele>735.0</ele><time>2026-05-01T09:27:50Z</time></trkpt><trkpt lat="40.21215476144958" lon="9.550132183246747"><ele>739.75</ele><time>2026-05-01T09:27:51Z</time></trkpt><trkpt lat="40.21203309472669" lon="9.550002910313188"><ele>744.5</ele><time>2026-05-01T09:27:52Z</time></trkpt><trkpt lat="40.2119183421324" lon="9.549890731196072"><ele>749.25</ele><time>2026-05-01T09:27:53Z</time></trkpt><trkpt lat="40.21180448835645" lon="9.549774255329485"><ele>754.0</ele><time>2026-05-01T09:27:54Z</time></trkpt><trkpt lat="40.21170229112141" lon="9.5496244456863"><ele>758.0</ele><time>2026-05-01T09:27:55Z</time></trkpt><trkpt lat="40.21160492372003" lon="9.549450093736228"><ele>762.0</ele><time>2026-05-01T09:27:56Z</time></trkpt><trkpt lat="40.21150871382041" lon="9.549271364503408"><ele>766.0</ele><time>2026-05-01T09:27:57Z</time></trkpt><trkpt lat="40.21139027535453" lon="9.54910497433749"><ele>766.0</ele><time>2026-05-01T09:27:58Z</time></trkpt><trkpt lat="40.21125903269527" lon="9.54894017172027"><ele>766.0</ele><time>2026-05-01T09:27:59Z</time></trkpt><trkpt lat="40.2111042503875" lon="9.548766043818516"><ele>766.0</ele><time>2026-05-01T09:28:00Z</time></trkpt><trkpt lat="40.21093427568644" lon="9.548629314254828"><ele>766.0</ele><time>2026-05-01T09:28:01Z</time></trkpt><trkpt lat="40.21074875122262" lon="9.548484136896219"><ele>766.0</ele><time>2026-05-01T09:28:02Z</time></trkpt><trkpt lat="40.210564632589666" lon="9.548355697453799"><ele>766.0</ele><time>2026-05-01T09:28:03Z</time></trkpt><trkpt lat="40.21040648131585" lon="9.548234631849269"><ele>766.0</ele><time>2026-05-01T09:28:04Z</time></trkpt><trkpt lat="40.21026219249097" lon="9.548118300857032"><ele>766.0</ele><time>2026-05-01T09:28:05Z</time></trkpt><trkpt lat="40.21013612038964" lon="9.547983601724953"><ele>766.0</ele><time>2026-05-01T09:28:06Z</time></trkpt><trkpt lat="40.210040945153175" lon="9.54779122393408"><ele>770.3333333333334</ele><time>2026-05-01T09:28:07Z</time></trkpt><trkpt lat="40.209934711731236" lon="9.547599184587165"><ele>774.6666666666667</ele><time>2026-05-01T09:28:08Z</time></trkpt><trkpt lat="40.2097968247367" lon="9.547439430698812"><ele>779.0</ele><time>2026-05-01T09:28:09Z</time></trkpt><trkpt lat="40.209646035221134" lon="9.547283786424451"><ele>779.0</ele><time>2026-05-01T09:28:10Z</time></trkpt><trkpt lat="40.20950384439195" lon="9.54711087468678"><ele>779.0</ele><time>2026-05-01T09:28:11Z</time></trkpt><trkpt lat="40.2093762126253" lon="9.546914095829283"><ele>779.0</ele><time>2026-05-01T09:28:12Z</time></trkpt><trkpt lat="40.20924939687124" lon="9.546712880999456"><ele>780.3333333333334</ele><time>2026-05-01T09:28:13Z</time></trkpt><trkpt lat="40.20912859151492" lon="9.546492801699294"><ele>781.6666666666667</ele><time>2026-05-01T09:28:14Z</time></trkpt><trkpt lat="40.20900502145009" lon="9.546262051514333"><ele>783.0</ele><time>2026-05-01T09:28:15Z</time></trkpt><trkpt lat="40.208896912093486" lon="9.546046641443173"><ele>783.0</ele><time>2026-05-01T09:28:16Z</time></trkpt><trkpt lat="40.20879754251656" lon="9.545855088924945"><ele>783.0</ele><time>2026-05-01T09:28:17Z</time></trkpt><trkpt lat="40.20870666914537" lon="9.54567771059722"><ele>783.0</ele><time>2026-05-01T09:28:18Z</time></trkpt><trkpt lat="40.20862038364881" lon="9.54550840266396"><ele>776.25</ele><time>2026-05-01T09:28:19Z</time></trkpt><trkpt lat="40.20853903131032" lon="9.545339426144194"><ele>769.5</ele><time>2026-05-01T09:28:20Z</time></trkpt><trkpt lat="40.208463208719756" lon="9.545187932493114"><ele>762.75</ele><time>2026-05-01T09:28:21Z</time></trkpt><trkpt lat="40.208383495017344" lon="9.545056126910419"><ele>756.0</ele><time>2026-05-01T09:28:22Z</time></trkpt><trkpt lat="40.208274508054174" lon="9.544953078739857"><ele>765.0</ele><time>2026-05-01T09:28:23Z</time></trkpt><trkpt lat="40.20813908746514" lon="9.54490083394494"><ele>774.0</ele><time>2026-05-01T09:28:24Z</time></trkpt><trkpt lat="40.207969598699165" lon="9.544835241511297"><ele>783.0</ele><time>2026-05-01T09:28:25Z</time></trkpt><trkpt lat="40.207803453294886" lon="9.54477676812126"><ele>783.0</ele><time>2026-05-01T09:28:26Z</time></trkpt><trkpt lat="40.20763173137283" lon="9.54471617758145"><ele>783.0</ele><time>2026-05-01T09:28:27Z</time></trkpt><trkpt lat="40.20746412410269" lon="9.544671845121206"><ele>783.0</ele><time>2026-05-01T09:28:28Z</time></trkpt><trkpt lat="40.20730311086062" lon="9.544643330603636"><ele>788.6666666666667</ele><time>2026-05-01T09:28:29Z</time></trkpt><trkpt lat="40.207147607530516" lon="9.544610699506826"><ele>794.3333333333334</ele><time>2026-05-01T09:28:30Z</time></trkpt><trkpt lat="40.20699751281892" lon="9.544564603818019"><ele>800.0</ele><time>2026-05-01T09:28:31Z</time></trkpt><trkpt lat="40.20684325227098" lon="9.544509958999628"><ele>789.6666666666667</ele><time>2026-05-01T09:28:32Z</time></trkpt><trkpt lat="40.20668684163187" lon="9.544454789960227"><ele>779.3333333333333</ele><time>2026-05-01T09:28:33Z</time></trkpt><trkpt lat="40.20652564524383" lon="9.544401250020291"><ele>769.0</ele><time>2026-05-01T09:28:34Z</time></trkpt><trkpt lat="40.20636077932155" lon="9.544357502461187"><ele>769.0</ele><time>2026-05-01T09:28:35Z</time></trkpt><trkpt lat="40.20620334592898" lon="9.544314898168773"><ele>769.0</ele><time>2026-05-01T09:28:36Z</time></trkpt><trkpt lat="40.20603487337717" lon="9.544312286011035"><ele>769.0</ele><time>2026-05-01T09:28:37Z</time></trkpt><trkpt lat="40.20587226739375" lon="9.544336288504986"><ele>769.0</ele><time>2026-05-01T09:28:38Z</time></trkpt><trkpt lat="40.205706004626585" lon="9.544357096428076"><ele>769.0</ele><time>2026-05-01T09:28:39Z</time></trkpt><trkpt lat="40.2055425070693" lon="9.544383697033291"><ele>769.0</ele><time>2026-05-01T09:28:40Z</time></trkpt><trkpt lat="40.20538243936438" lon="9.5443741460977"><ele>776.6666666666666</ele><time>2026-05-01T09:28:41Z</time></trkpt><trkpt lat="40.20524583515061" lon="9.544265211183426"><ele>784.3333333333333</ele><time>2026-05-01T09:28:42Z</time></trkpt><trkpt lat="40.20513077731105" lon="9.544124409609989"><ele>792.0</ele><time>2026-05-01T09:28:43Z</time></trkpt><trkpt lat="40.204993049524155" lon="9.543976575114971"><ele>792.0</ele><time>2026-05-01T09:28:44Z</time></trkpt><trkpt lat="40.20487491625753" lon="9.54384043648988"><ele>792.0</ele><time>2026-05-01T09:28:45Z</time></trkpt><trkpt lat="40.20473235442858" lon="9.543761192796524"><ele>792.0</ele><time>2026-05-01T09:28:46Z</time></trkpt><trkpt lat="40.20456391635925" lon="9.543729115031413"><ele>787.3333333333333</ele><time>2026-05-01T09:28:47Z</time></trkpt><trkpt lat="40.20439087570204" lon="9.543649395830506"><ele>782.6666666666666</ele><time>2026-05-01T09:28:48Z</time></trkpt><trkpt lat="40.204244096232394" lon="9.543532890344663"><ele>778.0</ele><time>2026-05-01T09:28:49Z</time></trkpt><trkpt lat="40.20408256170505" lon="9.543356240421053"><ele>790.3333333333333</ele><time>2026-05-01T09:28:50Z</time></trkpt><trkpt lat="40.20391383559231" lon="9.543216086037091"><ele>802.6666666666667</ele><time>2026-05-01T09:28:51Z</time></trkpt><trkpt lat="40.20372551803924" lon="9.543120177371454"><ele>815.0</ele><time>2026-05-01T09:28:52Z</time></trkpt><trkpt lat="40.20358606480425" lon="9.543045117633667"><ele>815.0</ele><time>2026-05-01T09:28:53Z</time></trkpt><trkpt lat="40.203487382109145" lon="9.542937465802162"><ele>815.0</ele><time>2026-05-01T09:28:54Z</time></trkpt><trkpt lat="40.20340794527318" lon="9.54282523246438"><ele>815.0</ele><time>2026-05-01T09:28:55Z</time></trkpt><trkpt lat="40.20333098543903" lon="9.542731345544428"><ele>815.0</ele><time>2026-05-01T09:28:56Z</time></trkpt><trkpt lat="40.20325386649818" lon="9.542640666049218"><ele>817.4</ele><time>2026-05-01T09:28:57Z</time></trkpt><trkpt lat="40.20317806909414" lon="9.542550292249205"><ele>819.8</ele><time>2026-05-01T09:28:58Z</time></trkpt><trkpt lat="40.20310588268808" lon="9.542460643778103"><ele>822.2</ele><time>2026-05-01T09:28:59Z</time></trkpt><trkpt lat="40.203029078888974" lon="9.542362480148713"><ele>824.6</ele><time>2026-05-01T09:29:00Z</time></trkpt><trkpt lat="40.20294693179589" lon="9.542249604488813"><ele>827.0</ele><time>2026-05-01T09:29:01Z</time></trkpt><trkpt lat="40.20289399833391" lon="9.542106966260398"><ele>818.75</ele><time>2026-05-01T09:29:02Z</time></trkpt><trkpt lat="40.20283441048174" lon="9.541968679574206"><ele>810.5</ele><time>2026-05-01T09:29:03Z</time></trkpt><trkpt lat="40.20279765951048" lon="9.541816870268208"><ele>802.25</ele><time>2026-05-01T09:29:04Z</time></trkpt><trkpt lat="40.202713986567716" lon="9.541702754519099"><ele>794.0</ele><time>2026-05-01T09:29:05Z</time></trkpt><trkpt lat="40.202606940135055" lon="9.54160991857324"><ele>794.0</ele><time>2026-05-01T09:29:06Z</time></trkpt><trkpt lat="40.20247366876828" lon="9.541578518727045"><ele>794.0</ele><time>2026-05-01T09:29:07Z</time></trkpt><trkpt lat="40.202321715001936" lon="9.541617402717712"><ele>794.0</ele><time>2026-05-01T09:29:08Z</time></trkpt><trkpt lat="40.20217966156977" lon="9.541631811133877"><ele>794.0</ele><time>2026-05-01T09:29:09Z</time></trkpt><trkpt lat="40.2020412688414" lon="9.541609505383919"><ele>798.0</ele><time>2026-05-01T09:29:10Z</time></trkpt><trkpt lat="40.20192073593087" lon="9.541581644676222"><ele>802.0</ele><time>2026-05-01T09:29:11Z</time></trkpt><trkpt lat="40.20181689872024" lon="9.541569031474115"><ele>806.0</ele><time>2026-05-01T09:29:12Z</time></trkpt><trkpt lat="40.20172614704322" lon="9.541551713639405"><ele>810.0</ele><time>2026-05-01T09:29:13Z</time></trkpt><trkpt lat="40.20163636433898" lon="9.541526129125549"><ele>814.0</ele><time>2026-05-01T09:29:14Z</time></trkpt><trkpt lat="40.20154676527851" lon="9.541467653734522"><ele>812.75</ele><time>2026-05-01T09:29:15Z</time></trkpt><trkpt lat="40.20145328958607" lon="9.541383168357848"><ele>811.5</ele><time>2026-05-01T09:29:16Z</time></trkpt><trkpt lat="40.201370786286226" lon="9.541261133723237"><ele>810.25</ele><time>2026-05-01T09:29:17Z</time></trkpt><trkpt lat="40.20131902109338" lon="9.54111627909388"><ele>809.0</ele><time>2026-05-01T09:29:18Z</time></trkpt><trkpt lat="40.201286941691336" lon="9.540985808833147"><ele>809.0</ele><time>2026-05-01T09:29:19Z</time></trkpt><trkpt lat="40.20122115456387" lon="9.540842664288435"><ele>809.0</ele><time>2026-05-01T09:29:20Z</time></trkpt><trkpt lat="40.201127782169685" lon="9.540763319731226"><ele>809.0</ele><time>2026-05-01T09:29:21Z</time></trkpt><trkpt lat="40.2010159525355" lon="9.540695415694119"><ele>809.0</ele><time>2026-05-01T09:29:22Z</time></trkpt><trkpt lat="40.200893177052144" lon="9.540649547291297"><ele>809.0</ele><time>2026-05-01T09:29:23Z</time></trkpt><trkpt lat="40.20075923584959" lon="9.540664982649378"><ele>809.0</ele><time>2026-05-01T09:29:24Z</time></trkpt><trkpt lat="40.20062832944907" lon="9.540733054700912"><ele>809.0</ele><time>2026-05-01T09:29:25Z</time></trkpt><trkpt lat="40.20051604901465" lon="9.540819675980481"><ele>809.0</ele><time>2026-05-01T09:29:26Z</time></trkpt><trkpt lat="40.20041894117577" lon="9.540885931453758"><ele>810.8000000000001</ele><time>2026-05-01T09:29:27Z</time></trkpt><trkpt lat="40.20032909924257" lon="9.540926800283795"><ele>812.6</ele><time>2026-05-01T09:29:28Z</time></trkpt><trkpt lat="40.2002287041427" lon="9.540908120822355"><ele>814.4</ele><time>2026-05-01T09:29:29Z</time></trkpt><trkpt lat="40.200134075627034" lon="9.540890646503884"><ele>816.2</ele><time>2026-05-01T09:29:30Z</time></trkpt><trkpt lat="40.20006716730547" lon="9.540833439126134"><ele>818.0</ele><time>2026-05-01T09:29:31Z</time></trkpt><trkpt lat="40.19995183457771" lon="9.540729399045533"><ele>818.0</ele><time>2026-05-01T09:29:32Z</time></trkpt><trkpt lat="40.199861897102046" lon="9.540601063990666"><ele>818.0</ele><time>2026-05-01T09:29:33Z</time></trkpt><trkpt lat="40.199777618931655" lon="9.540516622939151"><ele>818.0</ele><time>2026-05-01T09:29:34Z</time></trkpt><trkpt lat="40.19967623627279" lon="9.540455941632333"><ele>818.0</ele><time>2026-05-01T09:29:35Z</time></trkpt><trkpt lat="40.19957059712224" lon="9.540403626642627"><ele>819.8</ele><time>2026-05-01T09:29:36Z</time></trkpt><trkpt lat="40.199477906259666" lon="9.540348182237175"><ele>821.5999999999999</ele><time>2026-05-01T09:29:37Z</time></trkpt><trkpt lat="40.19941160680847" lon="9.540255176410314"><ele>823.4000000000001</ele><time>2026-05-01T09:29:38Z</time></trkpt><trkpt lat="40.199383748683516" lon="9.540118704751539"><ele>825.2</ele><time>2026-05-01T09:29:39Z</time></trkpt><trkpt lat="40.19942033517507" lon="9.539951869332013"><ele>827.0</ele><time>2026-05-01T09:29:40Z</time></trkpt><trkpt lat="40.19942862119216" lon="9.539815104749971"><ele>827.0</ele><time>2026-05-01T09:29:41Z</time></trkpt><trkpt lat="40.19945152028744" lon="9.539700326330454"><ele>827.0</ele><time>2026-05-01T09:29:42Z</time></trkpt><trkpt lat="40.19944070432843" lon="9.539582049729402"><ele>827.0</ele><time>2026-05-01T09:29:43Z</time></trkpt><trkpt lat="40.199407479551496" lon="9.53946422456113"><ele>827.0</ele><time>2026-05-01T09:29:44Z</time></trkpt><trkpt lat="40.19935353719252" lon="9.539373490473219"><ele>827.0</ele><time>2026-05-01T09:29:45Z</time></trkpt><trkpt lat="40.19928945057144" lon="9.539300509424553"><ele>825.0</ele><time>2026-05-01T09:29:46Z</time></trkpt><trkpt lat="40.199218617960874" lon="9.53923570607207"><ele>823.0</ele><time>2026-05-01T09:29:47Z</time></trkpt><trkpt lat="40.19913746044007" lon="9.539179300227294"><ele>821.0</ele><time>2026-05-01T09:29:48Z</time></trkpt><trkpt lat="40.199042024253494" lon="9.5391435363893"><ele>819.0</ele><time>2026-05-01T09:29:49Z</time></trkpt><trkpt lat="40.19893705074852" lon="9.539130790270058"><ele>817.0</ele><time>2026-05-01T09:29:50Z</time></trkpt><trkpt lat="40.19882907073353" lon="9.539152921770249"><ele>817.0</ele><time>2026-05-01T09:29:51Z</time></trkpt><trkpt lat="40.19872604850477" lon="9.539201172731776"><ele>817.0</ele><time>2026-05-01T09:29:52Z</time></trkpt><trkpt lat="40.19863496291249" lon="9.539256514204082"><ele>817.0</ele><time>2026-05-01T09:29:53Z</time></trkpt><trkpt lat="40.19856333554167" lon="9.539296893864492"><ele>817.0</ele><time>2026-05-01T09:29:54Z</time></trkpt><trkpt lat="40.198463674683914" lon="9.539320246588773"><ele>817.0</ele><time>2026-05-01T09:29:56Z</time></trkpt><trkpt lat="40.19835688283811" lon="9.539309601756148"><ele>817.0</ele><time>2026-05-01T09:29:58Z</time></trkpt><trkpt lat="40.19826929163134" lon="9.539237277097808"><ele>817.0</ele><time>2026-05-01T09:30:00Z</time></trkpt><trkpt lat="40.19818879089284" lon="9.539101506928308"><ele>817.0</ele><time>2026-05-01T09:30:02Z</time></trkpt><trkpt lat="40.198132751493155" lon="9.539016607725031"><ele>817.0</ele><time>2026-05-01T09:30:03Z</time></trkpt><trkpt lat="40.198078311838664" lon="9.538921567976852"><ele>817.0</ele><time>2026-05-01T09:30:04Z</time></trkpt><trkpt lat="40.1980165599628" lon="9.538825512033936"><ele>819.2</ele><time>2026-05-01T09:30:05Z</time></trkpt><trkpt lat="40.19795729064642" lon="9.538735846557076"><ele>821.4000000000001</ele><time>2026-05-01T09:30:06Z</time></trkpt><trkpt lat="40.19788693174525" lon="9.538648691205754"><ele>823.5999999999999</ele><time>2026-05-01T09:30:07Z</time></trkpt><trkpt lat="40.197805792431815" lon="9.538577603181633"><ele>825.8</ele><time>2026-05-01T09:30:08Z</time></trkpt><trkpt lat="40.19770894516763" lon="9.5385287804823"><ele>828.0</ele><time>2026-05-01T09:30:09Z</time></trkpt><trkpt lat="40.19761129330961" lon="9.538488569244215"><ele>828.0</ele><time>2026-05-01T09:30:10Z</time></trkpt><trkpt lat="40.19751473702626" lon="9.538431566473353"><ele>828.0</ele><time>2026-05-01T09:30:11Z</time></trkpt><trkpt lat="40.197435955816054" lon="9.538338995794573"><ele>828.0</ele><time>2026-05-01T09:30:12Z</time></trkpt><trkpt lat="40.19737857252919" lon="9.538208977657776"><ele>828.0</ele><time>2026-05-01T09:30:13Z</time></trkpt><trkpt lat="40.19737340523873" lon="9.538044529472238"><ele>828.0</ele><time>2026-05-01T09:30:14Z</time></trkpt><trkpt lat="40.19739514546806" lon="9.537894287972083"><ele>828.0</ele><time>2026-05-01T09:30:15Z</time></trkpt><trkpt lat="40.19742359113495" lon="9.537743622307415"><ele>828.0</ele><time>2026-05-01T09:30:16Z</time></trkpt><trkpt lat="40.1974223809731" lon="9.537636508538329"><ele>828.0</ele><time>2026-05-01T09:30:17Z</time></trkpt><trkpt lat="40.19742250810012" lon="9.537548229861708"><ele>828.0</ele><time>2026-05-01T09:30:18Z</time></trkpt><trkpt lat="40.197413366307096" lon="9.537393227235166"><ele>826.8</ele><time>2026-05-01T09:30:20Z</time></trkpt><trkpt lat="40.19740850252475" lon="9.53729248013434"><ele>825.5999999999999</ele><time>2026-05-01T09:30:21Z</time></trkpt><trkpt lat="40.19740022929037" lon="9.537178545523576"><ele>824.4000000000001</ele><time>2026-05-01T09:30:22Z</time></trkpt><trkpt lat="40.19739027958651" lon="9.537047334159219"><ele>823.2</ele><time>2026-05-01T09:30:23Z</time></trkpt><trkpt lat="40.197382426971416" lon="9.536913821322038"><ele>822.0</ele><time>2026-05-01T09:30:24Z</time></trkpt><trkpt lat="40.19737254215972" lon="9.536788828733325"><ele>822.0</ele><time>2026-05-01T09:30:25Z</time></trkpt><trkpt lat="40.19736539937773" lon="9.536683083696282"><ele>822.0</ele><time>2026-05-01T09:30:26Z</time></trkpt><trkpt lat="40.19736069418051" lon="9.536537303207083"><ele>822.0</ele><time>2026-05-01T09:30:28Z</time></trkpt><trkpt lat="40.19736511562557" lon="9.536439619421415"><ele>822.0</ele><time>2026-05-01T09:30:30Z</time></trkpt><trkpt lat="40.197359054051724" lon="9.536317158409535"><ele>822.0</ele><time>2026-05-01T09:30:33Z</time></trkpt><trkpt lat="40.19735406335099" lon="9.536220415625328"><ele>822.0</ele><time>2026-05-01T09:30:35Z</time></trkpt><trkpt lat="40.19732656114471" lon="9.536064246697215"><ele>820.5</ele><time>2026-05-01T09:30:37Z</time></trkpt><trkpt lat="40.19729099731254" lon="9.535968015297437"><ele>819.0</ele><time>2026-05-01T09:30:38Z</time></trkpt><trkpt lat="40.197207789358956" lon="9.535894968570602"><ele>817.5</ele><time>2026-05-01T09:30:39Z</time></trkpt><trkpt lat="40.19712784938814" lon="9.535883489457946"><ele>816.0</ele><time>2026-05-01T09:30:40Z</time></trkpt><trkpt lat="40.19705735743672" lon="9.535893578367356"><ele>814.5</ele><time>2026-05-01T09:30:41Z</time></trkpt><trkpt lat="40.19698647019467" lon="9.535926748406359"><ele>813.0</ele><time>2026-05-01T09:30:42Z</time></trkpt><trkpt lat="40.19691310655123" lon="9.53595751812875"><ele>813.0</ele><time>2026-05-01T09:30:43Z</time></trkpt><trkpt lat="40.196836551927156" lon="9.535991683664667"><ele>813.0</ele><time>2026-05-01T09:30:44Z</time></trkpt><trkpt lat="40.19675247130913" lon="9.536027664542239"><ele>813.0</ele><time>2026-05-01T09:30:45Z</time></trkpt><trkpt lat="40.19666078139818" lon="9.536071067814268"><ele>813.0</ele><time>2026-05-01T09:30:46Z</time></trkpt><trkpt lat="40.19656430053485" lon="9.536125339322801"><ele>813.0</ele><time>2026-05-01T09:30:47Z</time></trkpt><trkpt lat="40.196461533388174" lon="9.536182408581853"><ele>815.5</ele><time>2026-05-01T09:30:48Z</time></trkpt><trkpt lat="40.196351302009575" lon="9.536241584162012"><ele>818.0</ele><time>2026-05-01T09:30:49Z</time></trkpt><trkpt lat="40.196239197839624" lon="9.536308795277227"><ele>820.5</ele><time>2026-05-01T09:30:50Z</time></trkpt><trkpt lat="40.1961287624005" lon="9.536389462234995"><ele>823.0</ele><time>2026-05-01T09:30:51Z</time></trkpt><trkpt lat="40.19602401247722" lon="9.536480000289693"><ele>823.0</ele><time>2026-05-01T09:30:52Z</time></trkpt><trkpt lat="40.19592920303645" lon="9.536594033650928"><ele>823.0</ele><time>2026-05-01T09:30:53Z</time></trkpt><trkpt lat="40.19584883220351" lon="9.536727460932287"><ele>823.0</ele><time>2026-05-01T09:30:54Z</time></trkpt><trkpt lat="40.19577133766697" lon="9.536867250516915"><ele>823.0</ele><time>2026-05-01T09:30:55Z</time></trkpt><trkpt lat="40.19570219167154" lon="9.536991190554273"><ele>825.9999999999999</ele><time>2026-05-01T09:30:56Z</time></trkpt><trkpt lat="40.19563723999275" lon="9.537097137210234"><ele>829.0</ele><time>2026-05-01T09:30:57Z</time></trkpt><trkpt lat="40.195581440905805" lon="9.537192190843816"><ele>832.0</ele><time>2026-05-01T09:30:58Z</time></trkpt><trkpt lat="40.19552480862989" lon="9.537277721736062"><ele>835.0</ele><time>2026-05-01T09:30:59Z</time></trkpt><trkpt lat="40.19545870285262" lon="9.537336856047999"><ele>837.9999999999999</ele><time>2026-05-01T09:31:00Z</time></trkpt><trkpt lat="40.195389089385216" lon="9.537375294663654"><ele>841.0</ele><time>2026-05-01T09:31:01Z</time></trkpt><trkpt lat="40.19533069564637" lon="9.537412504169682"><ele>840.9999999999999</ele><time>2026-05-01T09:31:02Z</time></trkpt><trkpt lat="40.19527066050114" lon="9.537455070514545"><ele>841.0</ele><time>2026-05-01T09:31:03Z</time></trkpt><trkpt lat="40.19521370650114" lon="9.537497184827664"><ele>841.0</ele><time>2026-05-01T09:31:04Z</time></trkpt><trkpt lat="40.195139450729954" lon="9.537507247908717"><ele>841.0</ele><time>2026-05-01T09:31:05Z</time></trkpt><trkpt lat="40.19506726293278" lon="9.537480749809346"><ele>840.9999999999999</ele><time>2026-05-01T09:31:06Z</time></trkpt><trkpt lat="40.19500123114315" lon="9.53742177835113"><ele>841.0</ele><time>2026-05-01T09:31:07Z</time></trkpt><trkpt lat="40.19494811031161" lon="9.537332387509222"><ele>841.0</ele><time>2026-05-01T09:31:08Z</time></trkpt><trkpt lat="40.19489547083724" lon="9.537232108482474"><ele>841.0</ele><time>2026-05-01T09:31:09Z</time></trkpt><trkpt lat="40.194835781616014" lon="9.537136624202459"><ele>841.0</ele><time>2026-05-01T09:31:10Z</time></trkpt><trkpt lat="40.19474286540246" lon="9.537065722523515"><ele>841.0</ele><time>2026-05-01T09:31:11Z</time></trkpt><trkpt lat="40.19463336877886" lon="9.537023318420932"><ele>841.0</ele><time>2026-05-01T09:31:12Z</time></trkpt><trkpt lat="40.19452140523484" lon="9.537010390843985"><ele>841.9999999999999</ele><time>2026-05-01T09:31:13Z</time></trkpt><trkpt lat="40.1944244016124" lon="9.537006537241266"><ele>843.0</ele><time>2026-05-01T09:31:14Z</time></trkpt><trkpt lat="40.19433407004546" lon="9.537001496544296"><ele>844.0</ele><time>2026-05-01T09:31:15Z</time></trkpt><trkpt lat="40.19425589108309" lon="9.537040426131648"><ele>845.0</ele><time>2026-05-01T09:31:16Z</time></trkpt><trkpt lat="40.1941867931152" lon="9.537094792426524"><ele>845.9999999999999</ele><time>2026-05-01T09:31:17Z</time></trkpt><trkpt lat="40.19412284347191" lon="9.537166022361372"><ele>847.0</ele><time>2026-05-01T09:31:18Z</time></trkpt><trkpt lat="40.194063110407264" lon="9.537248365433353"><ele>848.6</ele><time>2026-05-01T09:31:19Z</time></trkpt><trkpt lat="40.193985583175234" lon="9.537323859177326"><ele>850.2</ele><time>2026-05-01T09:31:20Z</time></trkpt><trkpt lat="40.19390851407468" lon="9.537365644577719"><ele>851.8</ele><time>2026-05-01T09:31:21Z</time></trkpt><trkpt lat="40.19382051999937" lon="9.537359593360199"><ele>853.4</ele><time>2026-05-01T09:31:22Z</time></trkpt><trkpt lat="40.19373821222379" lon="9.53731086905485"><ele>855.0</ele><time>2026-05-01T09:31:23Z</time></trkpt><trkpt lat="40.19366033116913" lon="9.537226625990908"><ele>855.0</ele><time>2026-05-01T09:31:24Z</time></trkpt><trkpt lat="40.193576720236756" lon="9.537110119609302"><ele>855.0</ele><time>2026-05-01T09:31:25Z</time></trkpt><trkpt lat="40.19348096553409" lon="9.536991227130576"><ele>855.0</ele><time>2026-05-01T09:31:26Z</time></trkpt><trkpt lat="40.193407991265026" lon="9.536911419607458"><ele>855.0</ele><time>2026-05-01T09:31:27Z</time></trkpt><trkpt lat="40.19332844881824" lon="9.536823104130542"><ele>855.2</ele><time>2026-05-01T09:31:28Z</time></trkpt><trkpt lat="40.1932531500881" lon="9.536738685286279"><ele>855.4</ele><time>2026-05-01T09:31:29Z</time></trkpt><trkpt lat="40.193172589927734" lon="9.536657415187088"><ele>855.5999999999999</ele><time>2026-05-01T09:31:30Z</time></trkpt><trkpt lat="40.19308914284721" lon="9.536565565147106"><ele>855.8</ele><time>2026-05-01T09:31:32Z</time></trkpt><trkpt lat="40.19299758367164" lon="9.536470169182516"><ele>856.0</ele><time>2026-05-01T09:31:34Z</time></trkpt><trkpt lat="40.19295174508826" lon="9.536412795564477"><ele>855.9999999999999</ele><time>2026-05-01T09:31:35Z</time></trkpt><trkpt lat="40.19287095150748" lon="9.536314158243545"><ele>856.0</ele><time>2026-05-01T09:31:37Z</time></trkpt><trkpt lat="40.19281915467626" lon="9.536259049460407"><ele>856.0</ele><time>2026-05-01T09:31:38Z</time></trkpt><trkpt lat="40.192772509890915" lon="9.53618694769327"><ele>856.0</ele><time>2026-05-01T09:31:39Z</time></trkpt><trkpt lat="40.19276059697945" lon="9.5360870849107"><ele>855.9999999999999</ele><time>2026-05-01T09:31:40Z</time></trkpt><trkpt lat="40.19275416593874" lon="9.535992997091943"><ele>856.0</ele><time>2026-05-01T09:31:41Z</time></trkpt><trkpt lat="40.192743558704066" lon="9.535907286848287"><ele>850.3333333333333</ele><time>2026-05-01T09:31:42Z</time></trkpt><trkpt lat="40.192701303958295" lon="9.535751618161697"><ele>844.6666666666666</ele><time>2026-05-01T09:31:44Z</time></trkpt><trkpt lat="40.19265430279899" lon="9.535685308808103"><ele>839.0</ele><time>2026-05-01T09:31:45Z</time></trkpt><trkpt lat="40.19259391220975" lon="9.53563914332256"><ele>833.3333333333333</ele><time>2026-05-01T09:31:46Z</time></trkpt><trkpt lat="40.192518144415025" lon="9.53562028582363"><ele>827.6666666666666</ele><time>2026-05-01T09:31:47Z</time></trkpt><trkpt lat="40.192434411118754" lon="9.535623915815949"><ele>822.0</ele><time>2026-05-01T09:31:48Z</time></trkpt><trkpt lat="40.19234399325147" lon="9.5356284690662"><ele>821.2</ele><time>2026-05-01T09:31:49Z</time></trkpt><trkpt lat="40.19224983639534" lon="9.535635250607447"><ele>820.4000000000001</ele><time>2026-05-01T09:31:50Z</time></trkpt><trkpt lat="40.1921568992983" lon="9.535636396497212"><ele>819.5999999999999</ele><time>2026-05-01T09:31:51Z</time></trkpt><trkpt lat="40.19205636136977" lon="9.535657885160687"><ele>818.8</ele><time>2026-05-01T09:31:52Z</time></trkpt><trkpt lat="40.19194193644192" lon="9.535735503394399"><ele>818.0</ele><time>2026-05-01T09:31:53Z</time></trkpt><trkpt lat="40.19179816132286" lon="9.535799547816069"><ele>818.0</ele><time>2026-05-01T09:31:54Z</time></trkpt><trkpt lat="40.19165073684278" lon="9.53587747850243"><ele>818.0</ele><time>2026-05-01T09:31:55Z</time></trkpt><trkpt lat="40.19149053842896" lon="9.535963968779724"><ele>818.0</ele><time>2026-05-01T09:31:56Z</time></trkpt><trkpt lat="40.1913596187292" lon="9.536056746513763"><ele>811.75</ele><time>2026-05-01T09:31:57Z</time></trkpt><trkpt lat="40.19122976695062" lon="9.536126638933656"><ele>805.5</ele><time>2026-05-01T09:31:58Z</time></trkpt><trkpt lat="40.191103508297594" lon="9.536174762204466"><ele>799.25</ele><time>2026-05-01T09:31:59Z</time></trkpt><trkpt lat="40.191013252702945" lon="9.536230737699675"><ele>793.0</ele><time>2026-05-01T09:32:00Z</time></trkpt><trkpt lat="40.190943233799466" lon="9.536286866912416"><ele>802.5999999999999</ele><time>2026-05-01T09:32:01Z</time></trkpt><trkpt lat="40.19089616473829" lon="9.536363737932968"><ele>812.1999999999999</ele><time>2026-05-01T09:32:02Z</time></trkpt><trkpt lat="40.19084147873546" lon="9.536419843398129"><ele>821.8</ele><time>2026-05-01T09:32:03Z</time></trkpt><trkpt lat="40.19071625166027" lon="9.536487000021095"><ele>831.4</ele><time>2026-05-01T09:32:05Z</time></trkpt><trkpt lat="40.1906262779533" lon="9.536484909921572"><ele>841.0</ele><time>2026-05-01T09:32:06Z</time></trkpt><trkpt lat="40.19050411748567" lon="9.536469177732512"><ele>841.0</ele><time>2026-05-01T09:32:07Z</time></trkpt><trkpt lat="40.1903522527473" lon="9.536511429168517"><ele>841.0</ele><time>2026-05-01T09:32:08Z</time></trkpt><trkpt lat="40.19024279549268" lon="9.536571080797263"><ele>841.0</ele><time>2026-05-01T09:32:09Z</time></trkpt><trkpt lat="40.190167551922194" lon="9.536625874410884"><ele>841.0</ele><time>2026-05-01T09:32:10Z</time></trkpt><trkpt lat="40.19009890861999" lon="9.536595277736584"><ele>841.0</ele><time>2026-05-01T09:32:11Z</time></trkpt><trkpt lat="40.18999814672143" lon="9.536466763082508"><ele>841.0</ele><time>2026-05-01T09:32:13Z</time></trkpt><trkpt lat="40.18996610623006" lon="9.536395626488455"><ele>841.0</ele><time>2026-05-01T09:32:14Z</time></trkpt><trkpt lat="40.1899329829961" lon="9.536324076095461"><ele>841.0</ele><time>2026-05-01T09:32:15Z</time></trkpt><trkpt lat="40.189909761105625" lon="9.536230096284676"><ele>841.0</ele><time>2026-05-01T09:32:16Z</time></trkpt><trkpt lat="40.189892524132965" lon="9.5361433886785"><ele>841.0</ele><time>2026-05-01T09:32:17Z</time></trkpt><trkpt lat="40.189860298787124" lon="9.536045553644701"><ele>841.0</ele><time>2026-05-01T09:32:18Z</time></trkpt><trkpt lat="40.189800233573486" lon="9.535963572903176"><ele>841.0</ele><time>2026-05-01T09:32:19Z</time></trkpt><trkpt lat="40.189718522634834" lon="9.535910356875187"><ele>838.5999999999999</ele><time>2026-05-01T09:32:20Z</time></trkpt><trkpt lat="40.189626680957446" lon="9.535867980806966"><ele>836.2</ele><time>2026-05-01T09:32:21Z</time></trkpt><trkpt lat="40.18953352619106" lon="9.535826433934472"><ele>833.8</ele><time>2026-05-01T09:32:22Z</time></trkpt><trkpt lat="40.189460324183244" lon="9.535794472131213"><ele>831.4000000000001</ele><time>2026-05-01T09:32:23Z</time></trkpt><trkpt lat="40.18939381191458" lon="9.535743205523943"><ele>829.0</ele><time>2026-05-01T09:32:24Z</time></trkpt><trkpt lat="40.18928405788247" lon="9.535682483308236"><ele>829.0</ele><time>2026-05-01T09:32:25Z</time></trkpt><trkpt lat="40.18916484859621" lon="9.535618685677868"><ele>829.0</ele><time>2026-05-01T09:32:26Z</time></trkpt><trkpt lat="40.18905172418941" lon="9.535556276800888"><ele>829.0</ele><time>2026-05-01T09:32:27Z</time></trkpt><trkpt lat="40.188922243119926" lon="9.535550883442182"><ele>829.0</ele><time>2026-05-01T09:32:28Z</time></trkpt><trkpt lat="40.18877662643611" lon="9.535625556527243"><ele>827.6666666666666</ele><time>2026-05-01T09:32:29Z</time></trkpt><trkpt lat="40.188598887279795" lon="9.53574205997105"><ele>826.3333333333333</ele><time>2026-05-01T09:32:30Z</time></trkpt><trkpt lat="40.18843608996708" lon="9.535871133623406"><ele>825.0</ele><time>2026-05-01T09:32:31Z</time></trkpt><trkpt lat="40.188299931476756" lon="9.535993636566321"><ele>825.0</ele><time>2026-05-01T09:32:32Z</time></trkpt><trkpt lat="40.18817860409686" lon="9.536078305568072"><ele>825.0</ele><time>2026-05-01T09:32:33Z</time></trkpt><trkpt lat="40.188049644481325" lon="9.53608816521249"><ele>825.0</ele><time>2026-05-01T09:32:34Z</time></trkpt><trkpt lat="40.18790388537915" lon="9.53602628733048"><ele>825.0</ele><time>2026-05-01T09:32:35Z</time></trkpt><trkpt lat="40.187742353208726" lon="9.535902207890071"><ele>827.0</ele><time>2026-05-01T09:32:36Z</time></trkpt><trkpt lat="40.18759080776664" lon="9.535763247368655"><ele>829.0</ele><time>2026-05-01T09:32:37Z</time></trkpt><trkpt lat="40.187470799612896" lon="9.535619501294203"><ele>831.0</ele><time>2026-05-01T09:32:38Z</time></trkpt><trkpt lat="40.187370579099365" lon="9.535528052831614"><ele>830.5</ele><time>2026-05-01T09:32:39Z</time></trkpt><trkpt lat="40.187252938581224" lon="9.535487145501623"><ele>830.0</ele><time>2026-05-01T09:32:40Z</time></trkpt><trkpt lat="40.18712017375185" lon="9.535526286701012"><ele>829.5</ele><time>2026-05-01T09:32:41Z</time></trkpt><trkpt lat="40.18697645535498" lon="9.535644638098356"><ele>829.0</ele><time>2026-05-01T09:32:42Z</time></trkpt><trkpt lat="40.1868026151674" lon="9.535798621127027"><ele>829.0</ele><time>2026-05-01T09:32:43Z</time></trkpt><trkpt lat="40.186620269951355" lon="9.535931006272184"><ele>829.0</ele><time>2026-05-01T09:32:44Z</time></trkpt><trkpt lat="40.186475771549304" lon="9.536086037330657"><ele>829.0</ele><time>2026-05-01T09:32:45Z</time></trkpt><trkpt lat="40.18637094025572" lon="9.536236256853146"><ele>831.6</ele><time>2026-05-01T09:32:46Z</time></trkpt><trkpt lat="40.18627167700809" lon="9.536305470653032"><ele>834.2</ele><time>2026-05-01T09:32:47Z</time></trkpt><trkpt lat="40.18618223839347" lon="9.536330959942493"><ele>836.8000000000001</ele><time>2026-05-01T09:32:48Z</time></trkpt><trkpt lat="40.186110823864446" lon="9.536320735638403"><ele>839.4000000000001</ele><time>2026-05-01T09:32:49Z</time></trkpt><trkpt lat="40.18602205820797" lon="9.536221637112387"><ele>842.0</ele><time>2026-05-01T09:32:51Z</time></trkpt><trkpt lat="40.18574978912732" lon="9.535912087240174"><ele>848.25</ele><time>2026-05-01T09:32:52Z</time></trkpt><trkpt lat="40.18566136928112" lon="9.535785294907399"><ele>854.5</ele><time>2026-05-01T09:32:53Z</time></trkpt><trkpt lat="40.1856411496998" lon="9.535627422235002"><ele>860.75</ele><time>2026-05-01T09:32:54Z</time></trkpt><trkpt lat="40.18565953052969" lon="9.53546886081713"><ele>867.0</ele><time>2026-05-01T09:32:55Z</time></trkpt><trkpt lat="40.185661645351225" lon="9.535204786530604"><ele>867.0</ele><time>2026-05-01T09:32:56Z</time></trkpt><trkpt lat="40.18563217374243" lon="9.534967170950603"><ele>867.0</ele><time>2026-05-01T09:32:57Z</time></trkpt><trkpt lat="40.18557411604264" lon="9.534728708878642"><ele>867.0</ele><time>2026-05-01T09:32:58Z</time></trkpt><trkpt lat="40.18551202047563" lon="9.534531385394686"><ele>859.75</ele><time>2026-05-01T09:32:59Z</time></trkpt><trkpt lat="40.185461698202474" lon="9.534381999242637"><ele>852.5</ele><time>2026-05-01T09:33:00Z</time></trkpt><trkpt lat="40.1853877110683" lon="9.534273921615007"><ele>845.25</ele><time>2026-05-01T09:33:01Z</time></trkpt><trkpt lat="40.185269739958116" lon="9.534208090919314"><ele>838.0</ele><time>2026-05-01T09:33:02Z</time></trkpt><trkpt lat="40.185125624610784" lon="9.534200341154838"><ele>838.0</ele><time>2026-05-01T09:33:03Z</time></trkpt><trkpt lat="40.18496633670026" lon="9.534249556122875"><ele>838.0</ele><time>2026-05-01T09:33:04Z</time></trkpt><trkpt lat="40.18481370787756" lon="9.534313648709778"><ele>838.0</ele><time>2026-05-01T09:33:05Z</time></trkpt><trkpt lat="40.18469056177302" lon="9.53436063832787"><ele>845.25</ele><time>2026-05-01T09:33:06Z</time></trkpt><trkpt lat="40.18458580165047" lon="9.534354536396988"><ele>852.5</ele><time>2026-05-01T09:33:07Z</time></trkpt><trkpt lat="40.18449900208724" lon="9.534276375901648"><ele>859.75</ele><time>2026-05-01T09:33:08Z</time></trkpt><trkpt lat="40.18448695567474" lon="9.534128322416096"><ele>867.0</ele><time>2026-05-01T09:33:09Z</time></trkpt><trkpt lat="40.18444891262582" lon="9.533954341925106"><ele>867.0</ele><time>2026-05-01T09:33:10Z</time></trkpt><trkpt lat="40.1843986756325" lon="9.533762305237694"><ele>867.0</ele><time>2026-05-01T09:33:11Z</time></trkpt><trkpt lat="40.18431030223324" lon="9.533597031522378"><ele>867.0</ele><time>2026-05-01T09:33:12Z</time></trkpt><trkpt lat="40.184180156266954" lon="9.533473124124262"><ele>862.6666666666667</ele><time>2026-05-01T09:33:13Z</time></trkpt><trkpt lat="40.18400378727554" lon="9.533388144484178"><ele>858.3333333333334</ele><time>2026-05-01T09:33:14Z</time></trkpt><trkpt lat="40.18382184302949" lon="9.533332793308718"><ele>854.0</ele><time>2026-05-01T09:33:15Z</time></trkpt><trkpt lat="40.183641272841726" lon="9.533288214641113"><ele>854.0</ele><time>2026-05-01T09:33:16Z</time></trkpt><trkpt lat="40.183459258895255" lon="9.533234321744537"><ele>854.0</ele><time>2026-05-01T09:33:17Z</time></trkpt><trkpt lat="40.18325333950509" lon="9.53321922060432"><ele>854.0</ele><time>2026-05-01T09:33:18Z</time></trkpt><trkpt lat="40.183028666678254" lon="9.53320007925774"><ele>859.0</ele><time>2026-05-01T09:33:19Z</time></trkpt><trkpt lat="40.18279592755957" lon="9.533183411104645"><ele>864.0</ele><time>2026-05-01T09:33:20Z</time></trkpt><trkpt lat="40.18259688963137" lon="9.533163146108766"><ele>869.0</ele><time>2026-05-01T09:33:21Z</time></trkpt><trkpt lat="40.182424622980186" lon="9.533084856680661"><ele>871.3333333333334</ele><time>2026-05-01T09:33:22Z</time></trkpt><trkpt lat="40.182259210872196" lon="9.532987002130497"><ele>873.6666666666667</ele><time>2026-05-01T09:33:23Z</time></trkpt><trkpt lat="40.1821082978708" lon="9.532901639959658"><ele>876.0</ele><time>2026-05-01T09:33:24Z</time></trkpt><trkpt lat="40.181979119215086" lon="9.532838954340983"><ele>865.75</ele><time>2026-05-01T09:33:25Z</time></trkpt><trkpt lat="40.18186308415086" lon="9.532788008918754"><ele>855.5</ele><time>2026-05-01T09:33:26Z</time></trkpt><trkpt lat="40.18174819805472" lon="9.532757988335137"><ele>845.25</ele><time>2026-05-01T09:33:27Z</time></trkpt><trkpt lat="40.18161661188681" lon="9.532786295020971"><ele>835.0</ele><time>2026-05-01T09:33:28Z</time></trkpt><trkpt lat="40.18147941665557" lon="9.532854162244867"><ele>847.5</ele><time>2026-05-01T09:33:29Z</time></trkpt><trkpt lat="40.18135139896771" lon="9.53294829837541"><ele>860.0</ele><time>2026-05-01T09:33:30Z</time></trkpt><trkpt lat="40.181216064352185" lon="9.533002973603814"><ele>872.5</ele><time>2026-05-01T09:33:31Z</time></trkpt><trkpt lat="40.18107892975504" lon="9.532968177673691"><ele>885.0</ele><time>2026-05-01T09:33:32Z</time></trkpt><trkpt lat="40.18092906274195" lon="9.532936735908157"><ele>874.75</ele><time>2026-05-01T09:33:33Z</time></trkpt><trkpt lat="40.18078216340584" lon="9.53287038167223"><ele>864.5</ele><time>2026-05-01T09:33:34Z</time></trkpt><trkpt lat="40.18064404793578" lon="9.532813998679735"><ele>854.25</ele><time>2026-05-01T09:33:35Z</time></trkpt><trkpt lat="40.1805088673872" lon="9.532772464592489"><ele>844.0</ele><time>2026-05-01T09:33:36Z</time></trkpt><trkpt lat="40.18036959585916" lon="9.532742940820116"><ele>844.0</ele><time>2026-05-01T09:33:37Z</time></trkpt><trkpt lat="40.1802085998902" lon="9.532751868015973"><ele>844.0</ele><time>2026-05-01T09:33:38Z</time></trkpt><trkpt lat="40.18000611998654" lon="9.532802807089325"><ele>844.0</ele><time>2026-05-01T09:33:39Z</time></trkpt><trkpt lat="40.17978598881528" lon="9.532813975367967"><ele>850.6666666666666</ele><time>2026-05-01T09:33:40Z</time></trkpt><trkpt lat="40.1796096040577" lon="9.532807209937078"><ele>857.3333333333333</ele><time>2026-05-01T09:33:41Z</time></trkpt><trkpt lat="40.17944976836268" lon="9.53279149572662"><ele>864.0</ele><time>2026-05-01T09:33:42Z</time></trkpt><trkpt lat="40.179310171964644" lon="9.53274811554101"><ele>864.0</ele><time>2026-05-01T09:33:43Z</time></trkpt><trkpt lat="40.179194887137484" lon="9.532699491708026"><ele>864.0</ele><time>2026-05-01T09:33:44Z</time></trkpt><trkpt lat="40.1791024332598" lon="9.532613052638334"><ele>864.0</ele><time>2026-05-01T09:33:45Z</time></trkpt><trkpt lat="40.17902897248166" lon="9.532475954117832"><ele>864.0</ele><time>2026-05-01T09:33:46Z</time></trkpt><trkpt lat="40.178990738769734" lon="9.532312929808873"><ele>864.0</ele><time>2026-05-01T09:33:47Z</time></trkpt><trkpt lat="40.17904609169267" lon="9.53214089730283"><ele>864.0</ele><time>2026-05-01T09:33:48Z</time></trkpt><trkpt lat="40.179059190571216" lon="9.53194676550667"><ele>864.0</ele><time>2026-05-01T09:33:49Z</time></trkpt><trkpt lat="40.17908170570469" lon="9.531788369383696"><ele>864.0</ele><time>2026-05-01T09:33:50Z</time></trkpt><trkpt lat="40.17906089873936" lon="9.53162027378416"><ele>864.75</ele><time>2026-05-01T09:33:51Z</time></trkpt><trkpt lat="40.17902924448842" lon="9.531452812054386"><ele>865.5</ele><time>2026-05-01T09:33:52Z</time></trkpt><trkpt lat="40.17904798429859" lon="9.531278183580444"><ele>866.25</ele><time>2026-05-01T09:33:53Z</time></trkpt><trkpt lat="40.17908633182155" lon="9.531064092358548"><ele>867.0</ele><time>2026-05-01T09:33:54Z</time></trkpt><trkpt lat="40.179141291599365" lon="9.5308172449683"><ele>867.0</ele><time>2026-05-01T09:33:55Z</time></trkpt><trkpt lat="40.17921155559241" lon="9.53057419944645"><ele>867.0</ele><time>2026-05-01T09:33:56Z</time></trkpt><trkpt lat="40.179293535627046" lon="9.530380257809577"><ele>867.0</ele><time>2026-05-01T09:33:57Z</time></trkpt><trkpt lat="40.179330015472324" lon="9.530215566715487"><ele>867.25</ele><time>2026-05-01T09:33:58Z</time></trkpt><trkpt lat="40.179311165217534" lon="9.53005326859669"><ele>867.5</ele><time>2026-05-01T09:33:59Z</time></trkpt><trkpt lat="40.17924159126779" lon="9.529891978841723"><ele>867.75</ele><time>2026-05-01T09:34:00Z</time></trkpt><trkpt lat="40.17912432505086" lon="9.529712043286514"><ele>868.0</ele><time>2026-05-01T09:34:01Z</time></trkpt><trkpt lat="40.17901731615021" lon="9.529504209286397"><ele>870.75</ele><time>2026-05-01T09:34:02Z</time></trkpt><trkpt lat="40.17895595866744" lon="9.52932113828882"><ele>873.5</ele><time>2026-05-01T09:34:03Z</time></trkpt><trkpt lat="40.17888363148573" lon="9.52917517333713"><ele>876.25</ele><time>2026-05-01T09:34:04Z</time></trkpt><trkpt lat="40.17875782654193" lon="9.529069637959019"><ele>879.0</ele><time>2026-05-01T09:34:05Z</time></trkpt><trkpt lat="40.178600512989696" lon="9.529019605835254"><ele>879.0</ele><time>2026-05-01T09:34:06Z</time></trkpt><trkpt lat="40.17842219024025" lon="9.529004744194092"><ele>879.0</ele><time>2026-05-01T09:34:07Z</time></trkpt><trkpt lat="40.17825795460329" lon="9.52890987035224"><ele>879.0</ele><time>2026-05-01T09:34:08Z</time></trkpt><trkpt lat="40.17808050061925" lon="9.52875048179627"><ele>882.0</ele><time>2026-05-01T09:34:09Z</time></trkpt><trkpt lat="40.177871233570244" lon="9.528549682106185"><ele>885.0</ele><time>2026-05-01T09:34:10Z</time></trkpt><trkpt lat="40.17770203529822" lon="9.52828705644277"><ele>885.0</ele><time>2026-05-01T09:34:11Z</time></trkpt><trkpt lat="40.1775447431695" lon="9.528042569475403"><ele>885.0</ele><time>2026-05-01T09:34:12Z</time></trkpt><trkpt lat="40.177415747432605" lon="9.527809824339936"><ele>888.6666666666667</ele><time>2026-05-01T09:34:13Z</time></trkpt><trkpt lat="40.17728923292287" lon="9.527607624475552"><ele>892.3333333333334</ele><time>2026-05-01T09:34:14Z</time></trkpt><trkpt lat="40.1771422520622" lon="9.527447990923749"><ele>896.0</ele><time>2026-05-01T09:34:15Z</time></trkpt><trkpt lat="40.17695525943766" lon="9.527309199105487"><ele>896.0</ele><time>2026-05-01T09:34:16Z</time></trkpt><trkpt lat="40.17671661673068" lon="9.527184840370898"><ele>896.0</ele><time>2026-05-01T09:34:17Z</time></trkpt><trkpt lat="40.17649718564725" lon="9.527076898427229"><ele>883.0</ele><time>2026-05-01T09:34:18Z</time></trkpt><trkpt lat="40.176313677258044" lon="9.527003827001552"><ele>870.0</ele><time>2026-05-01T09:34:19Z</time></trkpt><trkpt lat="40.17616024224624" lon="9.52698978263069"><ele>857.0</ele><time>2026-05-01T09:34:20Z</time></trkpt><trkpt lat="40.176021107568346" lon="9.527036162966821"><ele>873.6666666666667</ele><time>2026-05-01T09:34:21Z</time></trkpt><trkpt lat="40.175879096677335" lon="9.527155680082135"><ele>890.3333333333333</ele><time>2026-05-01T09:34:22Z</time></trkpt><trkpt lat="40.17572796040234" lon="9.527284295459284"><ele>907.0</ele><time>2026-05-01T09:34:23Z</time></trkpt><trkpt lat="40.17558630713441" lon="9.527316123824606"><ele>907.75</ele><time>2026-05-01T09:34:24Z</time></trkpt><trkpt lat="40.1754881114945" lon="9.527245284391928"><ele>908.5</ele><time>2026-05-01T09:34:25Z</time></trkpt><trkpt lat="40.17535433966594" lon="9.527197045001571"><ele>909.25</ele><time>2026-05-01T09:34:26Z</time></trkpt><trkpt lat="40.17520534277701" lon="9.527186632069947"><ele>910.0</ele><time>2026-05-01T09:34:27Z</time></trkpt><trkpt lat="40.17500075575368" lon="9.527219264119543"><ele>913.0</ele><time>2026-05-01T09:34:28Z</time></trkpt><trkpt lat="40.17477424996214" lon="9.527158101362575"><ele>916.0</ele><time>2026-05-01T09:34:29Z</time></trkpt><trkpt lat="40.17451294717875" lon="9.527110225584329"><ele>903.5</ele><time>2026-05-01T09:34:30Z</time></trkpt><trkpt lat="40.174242722465195" lon="9.527030876363016"><ele>891.0</ele><time>2026-05-01T09:34:31Z</time></trkpt><trkpt lat="40.173946759576665" lon="9.526949229292288"><ele>891.0</ele><time>2026-05-01T09:34:32Z</time></trkpt><trkpt lat="40.173678939122375" lon="9.526871173252875"><ele>891.0</ele><time>2026-05-01T09:34:33Z</time></trkpt><trkpt lat="40.17344362821089" lon="9.526811907587605"><ele>891.0</ele><time>2026-05-01T09:34:34Z</time></trkpt><trkpt lat="40.17324166372366" lon="9.526794201924433"><ele>891.0</ele><time>2026-05-01T09:34:35Z</time></trkpt><trkpt lat="40.17301969470107" lon="9.52683861960209"><ele>891.0</ele><time>2026-05-01T09:34:36Z</time></trkpt><trkpt lat="40.172772170221194" lon="9.52690992995305"><ele>895.6666666666667</ele><time>2026-05-01T09:34:37Z</time></trkpt><trkpt lat="40.17254707707066" lon="9.526964931928585"><ele>900.3333333333334</ele><time>2026-05-01T09:34:38Z</time></trkpt><trkpt lat="40.17234705675742" lon="9.52700707027468"><ele>905.0</ele><time>2026-05-01T09:34:39Z</time></trkpt><trkpt lat="40.172160513734696" lon="9.527049390199943"><ele>904.6666666666667</ele><time>2026-05-01T09:34:40Z</time></trkpt><trkpt lat="40.17197889550627" lon="9.527097399558928"><ele>904.3333333333333</ele><time>2026-05-01T09:34:41Z</time></trkpt><trkpt lat="40.1718097313056" lon="9.527131308690713"><ele>904.0</ele><time>2026-05-01T09:34:42Z</time></trkpt><trkpt lat="40.17163751402868" lon="9.527119284210082"><ele>901.6666666666666</ele><time>2026-05-01T09:34:43Z</time></trkpt><trkpt lat="40.1714275662886" lon="9.527072823794905"><ele>899.3333333333333</ele><time>2026-05-01T09:34:44Z</time></trkpt><trkpt lat="40.17121248704136" lon="9.52699886909422"><ele>897.0</ele><time>2026-05-01T09:34:45Z</time></trkpt><trkpt lat="40.17101426518809" lon="9.526937931269257"><ele>899.0</ele><time>2026-05-01T09:34:46Z</time></trkpt><trkpt lat="40.17084014382052" lon="9.526879030329019"><ele>901.0</ele><time>2026-05-01T09:34:47Z</time></trkpt><trkpt lat="40.170692251415254" lon="9.526796326002483"><ele>903.0</ele><time>2026-05-01T09:34:48Z</time></trkpt><trkpt lat="40.1705708524218" lon="9.526677762548633"><ele>903.0</ele><time>2026-05-01T09:34:49Z</time></trkpt><trkpt lat="40.17047638721288" lon="9.526531732325738"><ele>903.0</ele><time>2026-05-01T09:34:50Z</time></trkpt><trkpt lat="40.170399405838694" lon="9.526357158689041"><ele>903.0</ele><time>2026-05-01T09:34:51Z</time></trkpt><trkpt lat="40.17033494093625" lon="9.526156776350446"><ele>905.5</ele><time>2026-05-01T09:34:52Z</time></trkpt><trkpt lat="40.170247136670156" lon="9.525989502647388"><ele>908.0</ele><time>2026-05-01T09:34:53Z</time></trkpt><trkpt lat="40.17019584035417" lon="9.525816807046235"><ele>910.5</ele><time>2026-05-01T09:34:54Z</time></trkpt><trkpt lat="40.17010863429709" lon="9.525702448826346"><ele>913.0</ele><time>2026-05-01T09:34:55Z</time></trkpt><trkpt lat="40.16997379954026" lon="9.525692338696157"><ele>915.75</ele><time>2026-05-01T09:34:56Z</time></trkpt><trkpt lat="40.16985334479982" lon="9.525753805616757"><ele>918.5</ele><time>2026-05-01T09:34:57Z</time></trkpt><trkpt lat="40.16976292513656" lon="9.525900232726773"><ele>921.25</ele><time>2026-05-01T09:34:58Z</time></trkpt><trkpt lat="40.169701369676915" lon="9.52607472262596"><ele>924.0</ele><time>2026-05-01T09:34:59Z</time></trkpt><trkpt lat="40.16965894856445" lon="9.526318387889521"><ele>924.0</ele><time>2026-05-01T09:35:00Z</time></trkpt><trkpt lat="40.16957408138897" lon="9.52656291294353"><ele>924.0</ele><time>2026-05-01T09:35:01Z</time></trkpt><trkpt lat="40.16941162145787" lon="9.526767166995507"><ele>924.0</ele><time>2026-05-01T09:35:02Z</time></trkpt><trkpt lat="40.1692040748905" lon="9.526934105777356"><ele>925.5</ele><time>2026-05-01T09:35:03Z</time></trkpt><trkpt lat="40.16898626166836" lon="9.52710742376215"><ele>927.0</ele><time>2026-05-01T09:35:04Z</time></trkpt><trkpt lat="40.16875203090634" lon="9.527295048093002"><ele>927.0</ele><time>2026-05-01T09:35:05Z</time></trkpt><trkpt lat="40.16852455220321" lon="9.527495917672242"><ele>927.0</ele><time>2026-05-01T09:35:06Z</time></trkpt><trkpt lat="40.168317655477495" lon="9.527677580028907"><ele>927.3333333333333</ele><time>2026-05-01T09:35:07Z</time></trkpt><trkpt lat="40.16813371681057" lon="9.52783908746596"><ele>927.6666666666666</ele><time>2026-05-01T09:35:08Z</time></trkpt><trkpt lat="40.167958961259146" lon="9.527968884834044"><ele>928.0</ele><time>2026-05-01T09:35:09Z</time></trkpt><trkpt lat="40.16776331359421" lon="9.52806333369423"><ele>928.0</ele><time>2026-05-01T09:35:10Z</time></trkpt><trkpt lat="40.167547127451314" lon="9.52813962901048"><ele>928.0</ele><time>2026-05-01T09:35:11Z</time></trkpt><trkpt lat="40.167347356656016" lon="9.528218897345551"><ele>928.0</ele><time>2026-05-01T09:35:12Z</time></trkpt><trkpt lat="40.167161561986596" lon="9.528300702840866"><ele>930.3333333333333</ele><time>2026-05-01T09:35:13Z</time></trkpt><trkpt lat="40.16697078401066" lon="9.528383566670431"><ele>932.6666666666667</ele><time>2026-05-01T09:35:14Z</time></trkpt><trkpt lat="40.166759685197555" lon="9.528426928280986"><ele>935.0</ele><time>2026-05-01T09:35:15Z</time></trkpt><trkpt lat="40.16652389309229" lon="9.52841642288095"><ele>936.3333333333334</ele><time>2026-05-01T09:35:16Z</time></trkpt><trkpt lat="40.166315782579666" lon="9.528401622875467"><ele>937.6666666666667</ele><time>2026-05-01T09:35:17Z</time></trkpt><trkpt lat="40.1661210083192" lon="9.528417329584627"><ele>939.0</ele><time>2026-05-01T09:35:18Z</time></trkpt><trkpt lat="40.16593080176316" lon="9.528488334736801"><ele>939.0</ele><time>2026-05-01T09:35:19Z</time></trkpt><trkpt lat="40.16575695931774" lon="9.528615490547006"><ele>939.0</ele><time>2026-05-01T09:35:20Z</time></trkpt><trkpt lat="40.16559906130981" lon="9.52874038261025"><ele>939.0</ele><time>2026-05-01T09:35:21Z</time></trkpt><trkpt lat="40.1654281457343" lon="9.52884402792752"><ele>937.0</ele><time>2026-05-01T09:35:22Z</time></trkpt><trkpt lat="40.16522657273746" lon="9.528898410713186"><ele>935.0</ele><time>2026-05-01T09:35:23Z</time></trkpt><trkpt lat="40.16500332313759" lon="9.528897597721606"><ele>933.0</ele><time>2026-05-01T09:35:24Z</time></trkpt><trkpt lat="40.1647708673519" lon="9.528883924474913"><ele>933.0</ele><time>2026-05-01T09:35:25Z</time></trkpt><trkpt lat="40.16453800158302" lon="9.528887520538323"><ele>933.0</ele><time>2026-05-01T09:35:26Z</time></trkpt><trkpt lat="40.16430969226737" lon="9.528898716326468"><ele>933.0</ele><time>2026-05-01T09:35:27Z</time></trkpt><trkpt lat="40.16410270030803" lon="9.528885378019678"><ele>933.0</ele><time>2026-05-01T09:35:28Z</time></trkpt><trkpt lat="40.1639129450778" lon="9.528831444012905"><ele>933.0</ele><time>2026-05-01T09:35:29Z</time></trkpt><trkpt lat="40.163746531118576" lon="9.528731571387183"><ele>935.3333333333333</ele><time>2026-05-01T09:35:30Z</time></trkpt><trkpt lat="40.16360601531474" lon="9.528614056411758"><ele>937.6666666666666</ele><time>2026-05-01T09:35:31Z</time></trkpt><trkpt lat="40.163516978368826" lon="9.528448233592862"><ele>940.0</ele><time>2026-05-01T09:35:32Z</time></trkpt><trkpt lat="40.16347059833129" lon="9.528232814936977"><ele>940.0</ele><time>2026-05-01T09:35:33Z</time></trkpt><trkpt lat="40.16343721844782" lon="9.52802618057002"><ele>940.0</ele><time>2026-05-01T09:35:34Z</time></trkpt><trkpt lat="40.16339546816346" lon="9.527833891892199"><ele>940.0</ele><time>2026-05-01T09:35:35Z</time></trkpt><trkpt lat="40.163301829037884" lon="9.527649778458416"><ele>938.0</ele><time>2026-05-01T09:35:36Z</time></trkpt><trkpt lat="40.16316515451287" lon="9.527492300923662"><ele>936.0</ele><time>2026-05-01T09:35:37Z</time></trkpt><trkpt lat="40.16303506698029" lon="9.527369058138726"><ele>934.0</ele><time>2026-05-01T09:35:38Z</time></trkpt><trkpt lat="40.16290813642813" lon="9.52723311024688"><ele>934.0</ele><time>2026-05-01T09:35:39Z</time></trkpt><trkpt lat="40.162781346905454" lon="9.527089765861684"><ele>934.0</ele><time>2026-05-01T09:35:40Z</time></trkpt><trkpt lat="40.1626833301574" lon="9.526941660041558"><ele>934.0</ele><time>2026-05-01T09:35:41Z</time></trkpt><trkpt lat="40.16263792947571" lon="9.526741892414627"><ele>934.3333333333333</ele><time>2026-05-01T09:35:42Z</time></trkpt><trkpt lat="40.16264363804524" lon="9.526527945096046"><ele>934.6666666666667</ele><time>2026-05-01T09:35:43Z</time></trkpt><trkpt lat="40.1627075869735" lon="9.52633231706876"><ele>935.0</ele><time>2026-05-01T09:35:44Z</time></trkpt><trkpt lat="40.162768678881044" lon="9.526162907869441"><ele>935.0</ele><time>2026-05-01T09:35:45Z</time></trkpt><trkpt lat="40.162852690756615" lon="9.525971418185945"><ele>935.0</ele><time>2026-05-01T09:35:46Z</time></trkpt><trkpt lat="40.16293300997104" lon="9.525772397992869"><ele>935.0</ele><time>2026-05-01T09:35:47Z</time></trkpt><trkpt lat="40.163002895037266" lon="9.525592398264923"><ele>935.0</ele><time>2026-05-01T09:35:48Z</time></trkpt><trkpt lat="40.16305189715811" lon="9.525437911876052"><ele>935.0</ele><time>2026-05-01T09:35:49Z</time></trkpt><trkpt lat="40.16305819330012" lon="9.525286786374362"><ele>935.0</ele><time>2026-05-01T09:35:50Z</time></trkpt><trkpt lat="40.163016267312635" lon="9.525132541721478"><ele>935.0</ele><time>2026-05-01T09:35:51Z</time></trkpt><trkpt lat="40.162911682092194" lon="9.525018395142268"><ele>937.0</ele><time>2026-05-01T09:35:52Z</time></trkpt><trkpt lat="40.16277037926198" lon="9.524955796935956"><ele>939.0</ele><time>2026-05-01T09:35:53Z</time></trkpt><trkpt lat="40.16262468272921" lon="9.524879911976651"><ele>941.0</ele><time>2026-05-01T09:35:54Z</time></trkpt><trkpt lat="40.16248309844802" lon="9.524794548548412"><ele>941.0</ele><time>2026-05-01T09:35:55Z</time></trkpt><trkpt lat="40.16241245438066" lon="9.524703538942045"><ele>941.0</ele><time>2026-05-01T09:35:56Z</time></trkpt><trkpt lat="40.162281384451326" lon="9.524540270998433"><ele>941.0</ele><time>2026-05-01T09:35:57Z</time></trkpt><trkpt lat="40.162176272666834" lon="9.52439669779584"><ele>941.0</ele><time>2026-05-01T09:35:58Z</time></trkpt><trkpt lat="40.162084540595025" lon="9.52425868006076"><ele>939.75</ele><time>2026-05-01T09:35:59Z</time></trkpt><trkpt lat="40.16205710412383" lon="9.524071477545387"><ele>938.5</ele><time>2026-05-01T09:36:00Z</time></trkpt><trkpt lat="40.162033311608305" lon="9.523871204412275"><ele>937.25</ele><time>2026-05-01T09:36:01Z</time></trkpt><trkpt lat="40.16198107815267" lon="9.523708428388824"><ele>936.0</ele><time>2026-05-01T09:36:02Z</time></trkpt><trkpt lat="40.16191972958331" lon="9.523566972968634"><ele>936.0</ele><time>2026-05-01T09:36:03Z</time></trkpt><trkpt lat="40.161854998780306" lon="9.523432811067668"><ele>936.0</ele><time>2026-05-01T09:36:04Z</time></trkpt><trkpt lat="40.16181573766252" lon="9.523274339638604"><ele>936.0</ele><time>2026-05-01T09:36:05Z</time></trkpt><trkpt lat="40.161841539282165" lon="9.523099204407346"><ele>936.0</ele><time>2026-05-01T09:36:06Z</time></trkpt><trkpt lat="40.16189507764879" lon="9.522932431510092"><ele>933.6666666666667</ele><time>2026-05-01T09:36:07Z</time></trkpt><trkpt lat="40.16196507376285" lon="9.522754335644048"><ele>931.3333333333334</ele><time>2026-05-01T09:36:08Z</time></trkpt><trkpt lat="40.16204054570162" lon="9.522572127912834"><ele>929.0</ele><time>2026-05-01T09:36:09Z</time></trkpt><trkpt lat="40.16209469756142" lon="9.522375930407067"><ele>929.0</ele><time>2026-05-01T09:36:10Z</time></trkpt><trkpt lat="40.162141701976665" lon="9.522183300850811"><ele>929.0</ele><time>2026-05-01T09:36:11Z</time></trkpt><trkpt lat="40.16213932359671" lon="9.5219814046482"><ele>929.0</ele><time>2026-05-01T09:36:12Z</time></trkpt><trkpt lat="40.16209894829976" lon="9.521801126824721"><ele>928.6666666666667</ele><time>2026-05-01T09:36:13Z</time></trkpt><trkpt lat="40.16205982927028" lon="9.521616400560994"><ele>928.3333333333333</ele><time>2026-05-01T09:36:14Z</time></trkpt><trkpt lat="40.16205193271058" lon="9.521412493700835"><ele>928.0</ele><time>2026-05-01T09:36:15Z</time></trkpt><trkpt lat="40.16211948794579" lon="9.521222453714909"><ele>927.6666666666666</ele><time>2026-05-01T09:36:16Z</time></trkpt><trkpt lat="40.16219965909718" lon="9.521028681481326"><ele>927.3333333333333</ele><time>2026-05-01T09:36:17Z</time></trkpt><trkpt lat="40.16230824051204" lon="9.520816337885165"><ele>927.0</ele><time>2026-05-01T09:36:18Z</time></trkpt><trkpt lat="40.16238686861713" lon="9.520599446355854"><ele>937.6666666666667</ele><time>2026-05-01T09:36:19Z</time></trkpt><trkpt lat="40.16246029296714" lon="9.520395233702631"><ele>948.3333333333334</ele><time>2026-05-01T09:36:20Z</time></trkpt><trkpt lat="40.162521191725986" lon="9.5202016287025"><ele>959.0</ele><time>2026-05-01T09:36:21Z</time></trkpt><trkpt lat="40.16256845694569" lon="9.520027624427474"><ele>959.0</ele><time>2026-05-01T09:36:22Z</time></trkpt><trkpt lat="40.162589431385264" lon="9.519859442557255"><ele>959.0</ele><time>2026-05-01T09:36:23Z</time></trkpt><trkpt lat="40.16256559022938" lon="9.51969385897139"><ele>959.0</ele><time>2026-05-01T09:36:24Z</time></trkpt><trkpt lat="40.1624726029588" lon="9.519535314622376"><ele>959.0</ele><time>2026-05-01T09:36:25Z</time></trkpt><trkpt lat="40.16233774677322" lon="9.51941402530186"><ele>963.3333333333334</ele><time>2026-05-01T09:36:26Z</time></trkpt><trkpt lat="40.16217762687656" lon="9.51933837162993"><ele>967.6666666666667</ele><time>2026-05-01T09:36:27Z</time></trkpt><trkpt lat="40.16197351831487" lon="9.51933294151774"><ele>972.0</ele><time>2026-05-01T09:36:28Z</time></trkpt><trkpt lat="40.16176317683029" lon="9.519366133056447"><ele>975.0</ele><time>2026-05-01T09:36:29Z</time></trkpt><trkpt lat="40.16150891245939" lon="9.51938397664164"><ele>978.0</ele><time>2026-05-01T09:36:30Z</time></trkpt><trkpt lat="40.16120989621558" lon="9.519400692824911"><ele>978.0</ele><time>2026-05-01T09:36:31Z</time></trkpt><trkpt lat="40.16090827415998" lon="9.519419209489486"><ele>978.0</ele><time>2026-05-01T09:36:32Z</time></trkpt><trkpt lat="40.160648007300765" lon="9.519415931458724"><ele>979.0</ele><time>2026-05-01T09:36:33Z</time></trkpt><trkpt lat="40.16040662834787" lon="9.519435712457458"><ele>980.0</ele><time>2026-05-01T09:36:34Z</time></trkpt><trkpt lat="40.16017934169714" lon="9.51944513327133"><ele>980.0</ele><time>2026-05-01T09:36:35Z</time></trkpt><trkpt lat="40.15997502070419" lon="9.519456800176668"><ele>980.0</ele><time>2026-05-01T09:36:36Z</time></trkpt><trkpt lat="40.15978542407605" lon="9.519461942001465"><ele>980.0</ele><time>2026-05-01T09:36:37Z</time></trkpt><trkpt lat="40.15960496555187" lon="9.519441785856499"><ele>975.0</ele><time>2026-05-01T09:36:38Z</time></trkpt><trkpt lat="40.159439079479505" lon="9.519350958373607"><ele>970.0</ele><time>2026-05-01T09:36:39Z</time></trkpt><trkpt lat="40.159276681221655" lon="9.519224113821062"><ele>965.0</ele><time>2026-05-01T09:36:40Z</time></trkpt><trkpt lat="40.159116519336614" lon="9.519108938275414"><ele>956.0</ele><time>2026-05-01T09:36:41Z</time></trkpt><trkpt lat="40.158987649709594" lon="9.51897752254503"><ele>947.0</ele><time>2026-05-01T09:36:42Z</time></trkpt><trkpt lat="40.15885983737766" lon="9.51886553385652"><ele>938.0</ele><time>2026-05-01T09:36:43Z</time></trkpt><trkpt lat="40.158738163578555" lon="9.518757306567753"><ele>942.25</ele><time>2026-05-01T09:36:44Z</time></trkpt><trkpt lat="40.15863858260157" lon="9.518629029367537"><ele>946.5</ele><time>2026-05-01T09:36:45Z</time></trkpt><trkpt lat="40.158592219443555" lon="9.51844671910634"><ele>950.75</ele><time>2026-05-01T09:36:46Z</time></trkpt><trkpt lat="40.158528494664274" lon="9.518265854308433"><ele>955.0</ele><time>2026-05-01T09:36:47Z</time></trkpt><trkpt lat="40.15848147420874" lon="9.518081832778241"><ele>955.0</ele><time>2026-05-01T09:36:48Z</time></trkpt><trkpt lat="40.15843461420464" lon="9.517911070322246"><ele>955.0</ele><time>2026-05-01T09:36:49Z</time></trkpt><trkpt lat="40.158387636312185" lon="9.517715932187283"><ele>955.0</ele><time>2026-05-01T09:36:50Z</time></trkpt><trkpt lat="40.15834598155966" lon="9.51750679612157"><ele>958.0</ele><time>2026-05-01T09:36:51Z</time></trkpt><trkpt lat="40.158322999084554" lon="9.517318109853187"><ele>961.0</ele><time>2026-05-01T09:36:52Z</time></trkpt><trkpt lat="40.15830167702112" lon="9.51713287466541"><ele>964.0</ele><time>2026-05-01T09:36:53Z</time></trkpt><trkpt lat="40.158277468388164" lon="9.516950360253727"><ele>967.0</ele><time>2026-05-01T09:36:54Z</time></trkpt><trkpt lat="40.15827856480324" lon="9.516768465894943"><ele>967.25</ele><time>2026-05-01T09:36:55Z</time></trkpt><trkpt lat="40.15832326911385" lon="9.516582870409238"><ele>967.5</ele><time>2026-05-01T09:36:56Z</time></trkpt><trkpt lat="40.15838130807752" lon="9.516422598057"><ele>967.75</ele><time>2026-05-01T09:36:57Z</time></trkpt><trkpt lat="40.158438329596464" lon="9.516281666148261"><ele>968.0</ele><time>2026-05-01T09:36:58Z</time></trkpt><trkpt lat="40.15850230749219" lon="9.516145693734021"><ele>962.0</ele><time>2026-05-01T09:36:59Z</time></trkpt><trkpt lat="40.158589212557374" lon="9.516010275971157"><ele>956.0</ele><time>2026-05-01T09:37:00Z</time></trkpt><trkpt lat="40.15872898864319" lon="9.515914549151177"><ele>950.0</ele><time>2026-05-01T09:37:01Z</time></trkpt><trkpt lat="40.15887413066002" lon="9.515826010184268"><ele>950.0</ele><time>2026-05-01T09:37:02Z</time></trkpt><trkpt lat="40.15902549552733" lon="9.51573135664459"><ele>950.0</ele><time>2026-05-01T09:37:03Z</time></trkpt><trkpt lat="40.159200168353244" lon="9.515647190830835"><ele>950.0</ele><time>2026-05-01T09:37:04Z</time></trkpt><trkpt lat="40.15937910643985" lon="9.515557042837031"><ele>951.0</ele><time>2026-05-01T09:37:05Z</time></trkpt><trkpt lat="40.15954373779443" lon="9.515451068681331"><ele>952.0</ele><time>2026-05-01T09:37:06Z</time></trkpt><trkpt lat="40.15969306685874" lon="9.515317277445101"><ele>953.0</ele><time>2026-05-01T09:37:07Z</time></trkpt><trkpt lat="40.15982905994745" lon="9.515142198598646"><ele>961.0</ele><time>2026-05-01T09:37:08Z</time></trkpt><trkpt lat="40.159971726449015" lon="9.51495897091893"><ele>969.0</ele><time>2026-05-01T09:37:09Z</time></trkpt><trkpt lat="40.16011781116648" lon="9.514789495757022"><ele>977.0</ele><time>2026-05-01T09:37:10Z</time></trkpt><trkpt lat="40.1602582547457" lon="9.514633335889794"><ele>977.0</ele><time>2026-05-01T09:37:11Z</time></trkpt><trkpt lat="40.16042134129918" lon="9.514504121321837"><ele>977.0</ele><time>2026-05-01T09:37:12Z</time></trkpt><trkpt lat="40.16058060066625" lon="9.51439857335521"><ele>977.0</ele><time>2026-05-01T09:37:13Z</time></trkpt><trkpt lat="40.160708740319855" lon="9.514319476336127"><ele>977.0</ele><time>2026-05-01T09:37:14Z</time></trkpt><trkpt lat="40.16082187028915" lon="9.514255355608185"><ele>977.0</ele><time>2026-05-01T09:37:15Z</time></trkpt><trkpt lat="40.160912001240256" lon="9.514158153149568"><ele>977.0</ele><time>2026-05-01T09:37:16Z</time></trkpt><trkpt lat="40.16101422642154" lon="9.514010914948013"><ele>977.0</ele><time>2026-05-01T09:37:17Z</time></trkpt><trkpt lat="40.161145571386186" lon="9.513835877607463"><ele>974.2</ele><time>2026-05-01T09:37:18Z</time></trkpt><trkpt lat="40.161241553038145" lon="9.513701529794517"><ele>971.4000000000001</ele><time>2026-05-01T09:37:19Z</time></trkpt><trkpt lat="40.16130476639643" lon="9.51361295540382"><ele>968.5999999999999</ele><time>2026-05-01T09:37:20Z</time></trkpt><trkpt lat="40.16136595711536" lon="9.5135272206879"><ele>965.8</ele><time>2026-05-01T09:37:21Z</time></trkpt><trkpt lat="40.16142388111083" lon="9.513445167363857"><ele>963.0</ele><time>2026-05-01T09:37:22Z</time></trkpt><trkpt lat="40.1614836710919" lon="9.513359271363754"><ele>968.75</ele><time>2026-05-01T09:37:23Z</time></trkpt><trkpt lat="40.16155596687402" lon="9.513255409653087"><ele>974.5</ele><time>2026-05-01T09:37:24Z</time></trkpt><trkpt lat="40.161638636182786" lon="9.51313657489127"><ele>980.25</ele><time>2026-05-01T09:37:25Z</time></trkpt><trkpt lat="40.16171456673565" lon="9.513027426894121"><ele>986.0</ele><time>2026-05-01T09:37:26Z</time></trkpt><trkpt lat="40.16178851975817" lon="9.512921325621106"><ele>983.25</ele><time>2026-05-01T09:37:27Z</time></trkpt><trkpt lat="40.16186204315405" lon="9.51279540258615"><ele>980.5</ele><time>2026-05-01T09:37:28Z</time></trkpt><trkpt lat="40.161943580994475" lon="9.512674508724508"><ele>977.75</ele><time>2026-05-01T09:37:29Z</time></trkpt><trkpt lat="40.1620153601832" lon="9.512564871573842"><ele>975.0</ele><time>2026-05-01T09:37:30Z</time></trkpt><trkpt lat="40.162086562354276" lon="9.512447157601478"><ele>975.0</ele><time>2026-05-01T09:37:31Z</time></trkpt><trkpt lat="40.162136768725524" lon="9.512295449609708"><ele>975.0</ele><time>2026-05-01T09:37:32Z</time></trkpt><trkpt lat="40.16215214076112" lon="9.512119125070027"><ele>975.0</ele><time>2026-05-01T09:37:33Z</time></trkpt><trkpt lat="40.162141072886115" lon="9.511938303079639"><ele>975.0</ele><time>2026-05-01T09:37:34Z</time></trkpt><trkpt lat="40.16209599482774" lon="9.511745663448217"><ele>976.3333333333333</ele><time>2026-05-01T09:37:35Z</time></trkpt><trkpt lat="40.16203387149156" lon="9.511534130094732"><ele>977.6666666666666</ele><time>2026-05-01T09:37:36Z</time></trkpt><trkpt lat="40.161976852382374" lon="9.511292770945952"><ele>979.0</ele><time>2026-05-01T09:37:37Z</time></trkpt><trkpt lat="40.16191982442269" lon="9.511034362750813"><ele>981.6666666666666</ele><time>2026-05-01T09:37:38Z</time></trkpt><trkpt lat="40.161858329111396" lon="9.510759272188672"><ele>984.3333333333333</ele><time>2026-05-01T09:37:39Z</time></trkpt><trkpt lat="40.161796282806556" lon="9.51048049954702"><ele>987.0</ele><time>2026-05-01T09:37:40Z</time></trkpt><trkpt lat="40.16173794142844" lon="9.51022765292607"><ele>987.0</ele><time>2026-05-01T09:37:41Z</time></trkpt><trkpt lat="40.16167290849477" lon="9.51001408357652"><ele>987.0</ele><time>2026-05-01T09:37:42Z</time></trkpt><trkpt lat="40.16159207538936" lon="9.509823662256075"><ele>987.0</ele><time>2026-05-01T09:37:43Z</time></trkpt><trkpt lat="40.16150070438184" lon="9.509653584080377"><ele>987.5</ele><time>2026-05-01T09:37:44Z</time></trkpt><trkpt lat="40.16139896593235" lon="9.509522504767657"><ele>988.0</ele><time>2026-05-01T09:37:45Z</time></trkpt><trkpt lat="40.161275036324525" lon="9.509446931793981"><ele>988.5</ele><time>2026-05-01T09:37:46Z</time></trkpt><trkpt lat="40.16113290428264" lon="9.50942383497302"><ele>989.0</ele><time>2026-05-01T09:37:47Z</time></trkpt><trkpt lat="40.16096889853657" lon="9.509426028788631"><ele>989.0</ele><time>2026-05-01T09:37:48Z</time></trkpt><trkpt lat="40.16080780879131" lon="9.509406750587479"><ele>989.0</ele><time>2026-05-01T09:37:49Z</time></trkpt><trkpt lat="40.16067131179645" lon="9.509350553473487"><ele>989.0</ele><time>2026-05-01T09:37:50Z</time></trkpt><trkpt lat="40.16055884326994" lon="9.509283665029512"><ele>989.0</ele><time>2026-05-01T09:37:51Z</time></trkpt><trkpt lat="40.160463258699146" lon="9.509199642416075"><ele>994.0</ele><time>2026-05-01T09:37:52Z</time></trkpt><trkpt lat="40.160367623213254" lon="9.509098602772307"><ele>999.0</ele><time>2026-05-01T09:37:53Z</time></trkpt><trkpt lat="40.16027771802021" lon="9.508991624378522"><ele>1004.0</ele><time>2026-05-01T09:37:54Z</time></trkpt><trkpt lat="40.160189718263005" lon="9.508891370793682"><ele>1009.0</ele><time>2026-05-01T09:37:55Z</time></trkpt><trkpt lat="40.16009773851765" lon="9.508810135103188"><ele>1009.0</ele><time>2026-05-01T09:37:56Z</time></trkpt><trkpt lat="40.160005951951305" lon="9.508757253081232"><ele>1009.0000000000001</ele><time>2026-05-01T09:37:57Z</time></trkpt><trkpt lat="40.15991588939383" lon="9.50871799023586"><ele>1009.0000000000001</ele><time>2026-05-01T09:37:58Z</time></trkpt><trkpt lat="40.15981923878056" lon="9.508688264954271"><ele>1009.0</ele><time>2026-05-01T09:37:59Z</time></trkpt><trkpt lat="40.15972124340203" lon="9.508658753669685"><ele>1009.0</ele><time>2026-05-01T09:38:00Z</time></trkpt><trkpt lat="40.15963257849704" lon="9.508634047241777"><ele>1008.1666666666666</ele><time>2026-05-01T09:38:01Z</time></trkpt><trkpt lat="40.159568973748186" lon="9.508615356557097"><ele>1007.3333333333333</ele><time>2026-05-01T09:38:02Z</time></trkpt><trkpt lat="40.15947646762804" lon="9.508590184319598"><ele>1006.5</ele><time>2026-05-01T09:38:04Z</time></trkpt><trkpt lat="40.159369742127346" lon="9.508558848047137"><ele>1005.6666666666667</ele><time>2026-05-01T09:38:06Z</time></trkpt><trkpt lat="40.159296149802714" lon="9.508541067746172"><ele>1004.8333333333334</ele><time>2026-05-01T09:38:08Z</time></trkpt><trkpt lat="40.15920558433683" lon="9.508489256174068"><ele>1004.0</ele><time>2026-05-01T09:38:11Z</time></trkpt><trkpt lat="40.15912134262591" lon="9.508429274156164"><ele>1004.0</ele><time>2026-05-01T09:38:13Z</time></trkpt><trkpt lat="40.159035945606796" lon="9.508338722442526"><ele>1004.0000000000001</ele><time>2026-05-01T09:38:15Z</time></trkpt><trkpt lat="40.15894952141632" lon="9.508251081522843"><ele>1004.0000000000001</ele><time>2026-05-01T09:38:17Z</time></trkpt><trkpt lat="40.15888494275367" lon="9.508193765898849"><ele>1004.0</ele><time>2026-05-01T09:38:19Z</time></trkpt><trkpt lat="40.15882380085235" lon="9.508120647759515"><ele>1004.0</ele><time>2026-05-01T09:38:21Z</time></trkpt><trkpt lat="40.15876223639999" lon="9.508054195120208"><ele>1004.3333333333334</ele><time>2026-05-01T09:38:23Z</time></trkpt><trkpt lat="40.15870981631964" lon="9.507991295418087"><ele>1004.6666666666667</ele><time>2026-05-01T09:38:25Z</time></trkpt><trkpt lat="40.15865173246567" lon="9.507920686101555"><ele>1005.0</ele><time>2026-05-01T09:38:28Z</time></trkpt><trkpt lat="40.15859553386287" lon="9.507880260787635"><ele>1005.3333333333333</ele><time>2026-05-01T09:38:51Z</time></trkpt><trkpt lat="40.15853453946675" lon="9.507818000506123"><ele>1005.6666666666666</ele><time>2026-05-01T09:38:58Z</time></trkpt><trkpt lat="40.15845133644943" lon="9.507964668404444"><ele>1006.0</ele><time>2026-05-01T09:41:36Z</time></trkpt><trkpt lat="40.158518020626744" lon="9.507893867818472"><ele>1005.8</ele><time>2026-05-01T09:48:59Z</time></trkpt><trkpt lat="40.15853774469484" lon="9.507796464673953"><ele>1005.5999999999999</ele><time>2026-05-01T09:49:03Z</time></trkpt><trkpt lat="40.158425133066785" lon="9.507702953454313"><ele>1005.4</ele><time>2026-05-01T09:49:05Z</time></trkpt><trkpt lat="40.15835264562916" lon="9.50763431493237"><ele>1005.2</ele><time>2026-05-01T09:49:06Z</time></trkpt><trkpt lat="40.1582640665577" lon="9.50754429567102"><ele>1005.0</ele><time>2026-05-01T09:49:07Z</time></trkpt><trkpt lat="40.15817249200834" lon="9.507451596676097"><ele>1005.0</ele><time>2026-05-01T09:49:08Z</time></trkpt><trkpt lat="40.15807615183015" lon="9.507363596338015"><ele>1005.0</ele><time>2026-05-01T09:49:09Z</time></trkpt><trkpt lat="40.15796919872875" lon="9.507290194338454"><ele>1005.0</ele><time>2026-05-01T09:49:10Z</time></trkpt><trkpt lat="40.157857661546664" lon="9.507226360897212"><ele>1005.0</ele><time>2026-05-01T09:49:11Z</time></trkpt><trkpt lat="40.15774711505024" lon="9.507172051711434"><ele>1005.0</ele><time>2026-05-01T09:49:12Z</time></trkpt><trkpt lat="40.15763797128473" lon="9.507132039358213"><ele>1005.0</ele><time>2026-05-01T09:49:13Z</time></trkpt><trkpt lat="40.1575402958254" lon="9.507100750148696"><ele>1005.0</ele><time>2026-05-01T09:49:14Z</time></trkpt><trkpt lat="40.15745342644537" lon="9.507075227175923"><ele>1005.0</ele><time>2026-05-01T09:49:15Z</time></trkpt><trkpt lat="40.157378635328755" lon="9.507050277826032"><ele>1005.0</ele><time>2026-05-01T09:49:16Z</time></trkpt><trkpt lat="40.157305031424166" lon="9.507024896784321"><ele>1010.0</ele><time>2026-05-01T09:49:17Z</time></trkpt><trkpt lat="40.157217840421225" lon="9.506995554963206"><ele>1015.0</ele><time>2026-05-01T09:49:18Z</time></trkpt><trkpt lat="40.15712699200795" lon="9.506965932074998"><ele>1020.0</ele><time>2026-05-01T09:49:19Z</time></trkpt><trkpt lat="40.15702985391295" lon="9.506943524565443"><ele>1025.0</ele><time>2026-05-01T09:49:20Z</time></trkpt><trkpt lat="40.156929335482054" lon="9.50692209531755"><ele>1030.0</ele><time>2026-05-01T09:49:21Z</time></trkpt><trkpt lat="40.156829813710026" lon="9.50691480787056"><ele>1030.0</ele><time>2026-05-01T09:49:22Z</time></trkpt><trkpt lat="40.156739461795716" lon="9.506912230931206"><ele>1030.0</ele><time>2026-05-01T09:49:23Z</time></trkpt><trkpt lat="40.156645227112975" lon="9.506908081401695"><ele>1030.0</ele><time>2026-05-01T09:49:24Z</time></trkpt><trkpt lat="40.1565501033182" lon="9.506921997842497"><ele>1030.0</ele><time>2026-05-01T09:49:25Z</time></trkpt><trkpt lat="40.15644647552064" lon="9.506951271081501"><ele>1030.0</ele><time>2026-05-01T09:49:26Z</time></trkpt><trkpt lat="40.15633759654917" lon="9.506999605499109"><ele>1032.25</ele><time>2026-05-01T09:49:27Z</time></trkpt><trkpt lat="40.1562250953038" lon="9.507046107050252"><ele>1034.5</ele><time>2026-05-01T09:49:28Z</time></trkpt><trkpt lat="40.156110168220415" lon="9.507088937850156"><ele>1036.75</ele><time>2026-05-01T09:49:29Z</time></trkpt><trkpt lat="40.155992740088614" lon="9.50712911959462"><ele>1039.0</ele><time>2026-05-01T09:49:30Z</time></trkpt><trkpt lat="40.15586357264074" lon="9.50715675933035"><ele>1032.75</ele><time>2026-05-01T09:49:31Z</time></trkpt><trkpt lat="40.15572635986562" lon="9.50716104817838"><ele>1026.5</ele><time>2026-05-01T09:49:32Z</time></trkpt><trkpt lat="40.155579327501144" lon="9.507165724657572"><ele>1020.25</ele><time>2026-05-01T09:49:33Z</time></trkpt><trkpt lat="40.15542720539524" lon="9.507169648576477"><ele>1014.0</ele><time>2026-05-01T09:49:34Z</time></trkpt><trkpt lat="40.15527075176648" lon="9.507174199574363"><ele>1014.0</ele><time>2026-05-01T09:49:35Z</time></trkpt><trkpt lat="40.155110461359996" lon="9.507182130300809"><ele>1014.0</ele><time>2026-05-01T09:49:36Z</time></trkpt><trkpt lat="40.154945253919536" lon="9.507230340482188"><ele>1014.0</ele><time>2026-05-01T09:49:37Z</time></trkpt><trkpt lat="40.154781552387455" lon="9.507291415171398"><ele>1018.0</ele><time>2026-05-01T09:49:38Z</time></trkpt><trkpt lat="40.154612073535944" lon="9.507360899798005"><ele>1022.0</ele><time>2026-05-01T09:49:39Z</time></trkpt><trkpt lat="40.15444256961219" lon="9.507428560324357"><ele>1026.0</ele><time>2026-05-01T09:49:40Z</time></trkpt><trkpt lat="40.15427230023997" lon="9.50749350360595"><ele>1026.0</ele><time>2026-05-01T09:49:41Z</time></trkpt><trkpt lat="40.15410330032894" lon="9.5075597096589"><ele>1026.0</ele><time>2026-05-01T09:49:42Z</time></trkpt><trkpt lat="40.153935183992765" lon="9.507627750409156"><ele>1026.0</ele><time>2026-05-01T09:49:43Z</time></trkpt><trkpt lat="40.153768905420364" lon="9.50769675129018"><ele>1025.6666666666667</ele><time>2026-05-01T09:49:44Z</time></trkpt><trkpt lat="40.153594741798834" lon="9.50774224217886"><ele>1025.3333333333335</ele><time>2026-05-01T09:49:45Z</time></trkpt><trkpt lat="40.15341314824687" lon="9.507754191281377"><ele>1025.0</ele><time>2026-05-01T09:49:46Z</time></trkpt><trkpt lat="40.153216890400195" lon="9.507718124297442"><ele>1022.6666666666667</ele><time>2026-05-01T09:49:47Z</time></trkpt><trkpt lat="40.15302802836939" lon="9.507669944633795"><ele>1020.3333333333333</ele><time>2026-05-01T09:49:48Z</time></trkpt><trkpt lat="40.152841871610015" lon="9.507593783246861"><ele>1018.0</ele><time>2026-05-01T09:49:49Z</time></trkpt><trkpt lat="40.15266249679136" lon="9.507515118308334"><ele>1018.0</ele><time>2026-05-01T09:49:50Z</time></trkpt><trkpt lat="40.15248791964606" lon="9.507459433183246"><ele>1018.0</ele><time>2026-05-01T09:49:51Z</time></trkpt><trkpt lat="40.15232197400579" lon="9.507425960891402"><ele>1018.0</ele><time>2026-05-01T09:49:52Z</time></trkpt><trkpt lat="40.152152529331424" lon="9.507402904684941"><ele>1015.6666666666666</ele><time>2026-05-01T09:49:53Z</time></trkpt><trkpt lat="40.151978406499076" lon="9.50739383230973"><ele>1013.3333333333333</ele><time>2026-05-01T09:49:54Z</time></trkpt><trkpt lat="40.15180107203757" lon="9.507396486848847"><ele>1011.0</ele><time>2026-05-01T09:49:55Z</time></trkpt><trkpt lat="40.15162485370395" lon="9.507401434902555"><ele>1009.3333333333333</ele><time>2026-05-01T09:49:56Z</time></trkpt><trkpt lat="40.15145394160302" lon="9.507406845879496"><ele>1007.6666666666666</ele><time>2026-05-01T09:49:57Z</time></trkpt><trkpt lat="40.151291333063746" lon="9.507408800512337"><ele>1006.0</ele><time>2026-05-01T09:49:58Z</time></trkpt><trkpt lat="40.1511247317615" lon="9.507408996071288"><ele>1006.0</ele><time>2026-05-01T09:49:59Z</time></trkpt><trkpt lat="40.15095158031002" lon="9.507399592114814"><ele>1006.0</ele><time>2026-05-01T09:50:00Z</time></trkpt><trkpt lat="40.150773339728765" lon="9.507356359021625"><ele>1006.0</ele><time>2026-05-01T09:50:01Z</time></trkpt><trkpt lat="40.150597437637785" lon="9.507275359727155"><ele>1002.0</ele><time>2026-05-01T09:50:02Z</time></trkpt><trkpt lat="40.15042186178573" lon="9.507184860871318"><ele>998.0</ele><time>2026-05-01T09:50:03Z</time></trkpt><trkpt lat="40.150239402107196" lon="9.507095582459678"><ele>994.0</ele><time>2026-05-01T09:50:04Z</time></trkpt><trkpt lat="40.15005398026429" lon="9.50700744274998"><ele>1000.3333333333333</ele><time>2026-05-01T09:50:05Z</time></trkpt><trkpt lat="40.14986585126186" lon="9.506923722144743"><ele>1006.6666666666667</ele><time>2026-05-01T09:50:06Z</time></trkpt><trkpt lat="40.149673725987974" lon="9.506849713279848"><ele>1013.0</ele><time>2026-05-01T09:50:07Z</time></trkpt><trkpt lat="40.14947688110425" lon="9.506799494263028"><ele>1013.0</ele><time>2026-05-01T09:50:08Z</time></trkpt><trkpt lat="40.14927582590667" lon="9.506770210279548"><ele>1013.0</ele><time>2026-05-01T09:50:09Z</time></trkpt><trkpt lat="40.14907278436436" lon="9.50674565270463"><ele>1013.0</ele><time>2026-05-01T09:50:10Z</time></trkpt><trkpt lat="40.1488650559868" lon="9.506717572913017"><ele>1007.6666666666667</ele><time>2026-05-01T09:50:11Z</time></trkpt><trkpt lat="40.1486555358085" lon="9.506682538745885"><ele>1002.3333333333333</ele><time>2026-05-01T09:50:12Z</time></trkpt><trkpt lat="40.148440464200505" lon="9.506636682531282"><ele>997.0</ele><time>2026-05-01T09:50:13Z</time></trkpt><trkpt lat="40.14822451197361" lon="9.506585831400852"><ele>989.5</ele><time>2026-05-01T09:50:14Z</time></trkpt><trkpt lat="40.14800559891335" lon="9.506525891239372"><ele>982.0</ele><time>2026-05-01T09:50:15Z</time></trkpt><trkpt lat="40.14778473340482" lon="9.506459985632981"><ele>982.0</ele><time>2026-05-01T09:50:16Z</time></trkpt><trkpt lat="40.147563010981145" lon="9.506379974696005"><ele>982.0</ele><time>2026-05-01T09:50:17Z</time></trkpt><trkpt lat="40.147341496566696" lon="9.506283958117754"><ele>997.0</ele><time>2026-05-01T09:50:18Z</time></trkpt><trkpt lat="40.14711628454869" lon="9.506201354057795"><ele>1012.0</ele><time>2026-05-01T09:50:19Z</time></trkpt><trkpt lat="40.14688400208414" lon="9.506142905377946"><ele>1012.0</ele><time>2026-05-01T09:50:20Z</time></trkpt><trkpt lat="40.14664413149666" lon="9.506105875929606"><ele>1012.0</ele><time>2026-05-01T09:50:21Z</time></trkpt><trkpt lat="40.1464008875308" lon="9.506125954524467"><ele>1006.5</ele><time>2026-05-01T09:50:22Z</time></trkpt><trkpt lat="40.146168294341564" lon="9.506149444930957"><ele>1001.0</ele><time>2026-05-01T09:50:23Z</time></trkpt><trkpt lat="40.14593962651609" lon="9.50616105179279"><ele>1001.0</ele><time>2026-05-01T09:50:24Z</time></trkpt><trkpt lat="40.145718818678695" lon="9.506163817033693"><ele>1001.0</ele><time>2026-05-01T09:50:25Z</time></trkpt><trkpt lat="40.14550647176024" lon="9.506157736694279"><ele>1001.0</ele><time>2026-05-01T09:50:26Z</time></trkpt><trkpt lat="40.14529548900279" lon="9.506139327756545"><ele>997.0</ele><time>2026-05-01T09:50:27Z</time></trkpt><trkpt lat="40.14508771472664" lon="9.506072349530923"><ele>993.0</ele><time>2026-05-01T09:50:28Z</time></trkpt><trkpt lat="40.14489854475176" lon="9.50594347015837"><ele>989.0</ele><time>2026-05-01T09:50:29Z</time></trkpt><trkpt lat="40.14471361290815" lon="9.505821189375574"><ele>982.3333333333334</ele><time>2026-05-01T09:50:30Z</time></trkpt><trkpt lat="40.144540851141834" lon="9.50569508676038"><ele>975.6666666666667</ele><time>2026-05-01T09:50:31Z</time></trkpt><trkpt lat="40.14434758526807" lon="9.50562085896396"><ele>969.0</ele><time>2026-05-01T09:50:32Z</time></trkpt><trkpt lat="40.144137986285195" lon="9.505595929339366"><ele>968.0</ele><time>2026-05-01T09:50:33Z</time></trkpt><trkpt lat="40.14391535127776" lon="9.50562201341217"><ele>967.0</ele><time>2026-05-01T09:50:34Z</time></trkpt><trkpt lat="40.143692820124976" lon="9.50567051845071"><ele>966.0</ele><time>2026-05-01T09:50:35Z</time></trkpt><trkpt lat="40.14346642129159" lon="9.505712534933343"><ele>966.0</ele><time>2026-05-01T09:50:36Z</time></trkpt><trkpt lat="40.143232294556476" lon="9.505688534740147"><ele>966.0</ele><time>2026-05-01T09:50:37Z</time></trkpt><trkpt lat="40.14301413988597" lon="9.505649427204514"><ele>965.0</ele><time>2026-05-01T09:50:38Z</time></trkpt><trkpt lat="40.14280710611934" lon="9.505639754997453"><ele>964.0</ele><time>2026-05-01T09:50:39Z</time></trkpt><trkpt lat="40.14257614429676" lon="9.505643816388417"><ele>963.0</ele><time>2026-05-01T09:50:40Z</time></trkpt><trkpt lat="40.142346446373956" lon="9.505713465582588"><ele>963.0</ele><time>2026-05-01T09:50:41Z</time></trkpt><trkpt lat="40.14211089275961" lon="9.505766831505245"><ele>963.0</ele><time>2026-05-01T09:50:42Z</time></trkpt><trkpt lat="40.14186638386401" lon="9.505814527381022"><ele>963.0</ele><time>2026-05-01T09:50:43Z</time></trkpt><trkpt lat="40.14162636913018" lon="9.505864864958442"><ele>963.0</ele><time>2026-05-01T09:50:44Z</time></trkpt><trkpt lat="40.14140148833958" lon="9.505902321998892"><ele>961.3333333333333</ele><time>2026-05-01T09:50:45Z</time></trkpt><trkpt lat="40.14117823804143" lon="9.505880828817213"><ele>959.6666666666666</ele><time>2026-05-01T09:50:46Z</time></trkpt><trkpt lat="40.14095874607574" lon="9.505841382495744"><ele>958.0</ele><time>2026-05-01T09:50:47Z</time></trkpt><trkpt lat="40.14074541596343" lon="9.505802457159886"><ele>955.0</ele><time>2026-05-01T09:50:48Z</time></trkpt><trkpt lat="40.14049204256521" lon="9.505771206228294"><ele>952.0</ele><time>2026-05-01T09:50:49Z</time></trkpt><trkpt lat="40.14025061671484" lon="9.505749807167115"><ele>952.0</ele><time>2026-05-01T09:50:50Z</time></trkpt><trkpt lat="40.14000919511117" lon="9.505740682812498"><ele>952.0</ele><time>2026-05-01T09:50:51Z</time></trkpt><trkpt lat="40.13976572778468" lon="9.505747123277617"><ele>948.5</ele><time>2026-05-01T09:50:52Z</time></trkpt><trkpt lat="40.139522075465095" lon="9.505738380440057"><ele>945.0</ele><time>2026-05-01T09:50:53Z</time></trkpt><trkpt lat="40.13928268622314" lon="9.505713409694907"><ele>945.0</ele><time>2026-05-01T09:50:54Z</time></trkpt><trkpt lat="40.139050855200445" lon="9.505687862258666"><ele>945.0</ele><time>2026-05-01T09:50:55Z</time></trkpt><trkpt lat="40.138836209842026" lon="9.505685547853258"><ele>945.0</ele><time>2026-05-01T09:50:56Z</time></trkpt><trkpt lat="40.1386206125098" lon="9.505721868873827"><ele>947.5</ele><time>2026-05-01T09:50:57Z</time></trkpt><trkpt lat="40.138400011616866" lon="9.505806912167975"><ele>950.0</ele><time>2026-05-01T09:50:58Z</time></trkpt><trkpt lat="40.13817626419538" lon="9.50590664782691"><ele>961.5</ele><time>2026-05-01T09:50:59Z</time></trkpt><trkpt lat="40.13794922718439" lon="9.506000964173142"><ele>973.0</ele><time>2026-05-01T09:51:00Z</time></trkpt><trkpt lat="40.13771518028371" lon="9.506087083357183"><ele>973.0</ele><time>2026-05-01T09:51:01Z</time></trkpt><trkpt lat="40.1374754445904" lon="9.506167219574081"><ele>973.0</ele><time>2026-05-01T09:51:02Z</time></trkpt><trkpt lat="40.13723392931061" lon="9.506247562945529"><ele>954.0</ele><time>2026-05-01T09:51:03Z</time></trkpt><trkpt lat="40.136994201641414" lon="9.5063265966284"><ele>935.0</ele><time>2026-05-01T09:51:04Z</time></trkpt><trkpt lat="40.13676096695339" lon="9.506409675829204"><ele>939.5</ele><time>2026-05-01T09:51:05Z</time></trkpt><trkpt lat="40.13652372767312" lon="9.506487196547614"><ele>944.0</ele><time>2026-05-01T09:51:06Z</time></trkpt><trkpt lat="40.13628534614047" lon="9.506564915326072"><ele>944.0</ele><time>2026-05-01T09:51:07Z</time></trkpt><trkpt lat="40.13604713135282" lon="9.506652267625048"><ele>944.0</ele><time>2026-05-01T09:51:08Z</time></trkpt><trkpt lat="40.1358152208876" lon="9.506724868196963"><ele>949.0</ele><time>2026-05-01T09:51:09Z</time></trkpt><trkpt lat="40.1355942240573" lon="9.506755007815048"><ele>954.0</ele><time>2026-05-01T09:51:10Z</time></trkpt><trkpt lat="40.135368248218484" lon="9.5067364086274"><ele>959.0</ele><time>2026-05-01T09:51:11Z</time></trkpt><trkpt lat="40.13516132427687" lon="9.506807592534159"><ele>959.0</ele><time>2026-05-01T09:51:12Z</time></trkpt><trkpt lat="40.134957518241166" lon="9.5069002915731"><ele>959.0</ele><time>2026-05-01T09:51:13Z</time></trkpt><trkpt lat="40.13474881196696" lon="9.506969372392877"><ele>959.0</ele><time>2026-05-01T09:51:14Z</time></trkpt><trkpt lat="40.134547631838025" lon="9.506995215705537"><ele>959.3333333333334</ele><time>2026-05-01T09:51:15Z</time></trkpt><trkpt lat="40.13435275389549" lon="9.506945834598017"><ele>959.6666666666667</ele><time>2026-05-01T09:51:16Z</time></trkpt><trkpt lat="40.13412197712086" lon="9.506829270894999"><ele>960.0</ele><time>2026-05-01T09:51:17Z</time></trkpt><trkpt lat="40.13390208192741" lon="9.506722111971712"><ele>957.0</ele><time>2026-05-01T09:51:18Z</time></trkpt><trkpt lat="40.13367560826891" lon="9.506678744373183"><ele>954.0</ele><time>2026-05-01T09:51:19Z</time></trkpt><trkpt lat="40.13344375211222" lon="9.506674271293827"><ele>964.0</ele><time>2026-05-01T09:51:20Z</time></trkpt><trkpt lat="40.133212261297636" lon="9.506695835808909"><ele>974.0</ele><time>2026-05-01T09:51:21Z</time></trkpt><trkpt lat="40.132975415335316" lon="9.506720878064424"><ele>974.0</ele><time>2026-05-01T09:51:22Z</time></trkpt><trkpt lat="40.13273805149873" lon="9.506742034429198"><ele>974.0</ele><time>2026-05-01T09:51:23Z</time></trkpt><trkpt lat="40.13249320468086" lon="9.506761465524514"><ele>980.5</ele><time>2026-05-01T09:51:24Z</time></trkpt><trkpt lat="40.13225305892701" lon="9.506781972111048"><ele>987.0</ele><time>2026-05-01T09:51:25Z</time></trkpt><trkpt lat="40.131998787482054" lon="9.506818959877494"><ele>987.0</ele><time>2026-05-01T09:51:26Z</time></trkpt><trkpt lat="40.13176514643486" lon="9.506897012104954"><ele>987.0</ele><time>2026-05-01T09:51:27Z</time></trkpt><trkpt lat="40.131553241598894" lon="9.506995928281574"><ele>967.3333333333333</ele><time>2026-05-01T09:51:28Z</time></trkpt><trkpt lat="40.1313564326833" lon="9.50709097639281"><ele>947.6666666666666</ele><time>2026-05-01T09:51:29Z</time></trkpt><trkpt lat="40.13116531052244" lon="9.507193062924193"><ele>928.0</ele><time>2026-05-01T09:51:30Z</time></trkpt><trkpt lat="40.13095275340378" lon="9.50722825267341"><ele>932.6666666666666</ele><time>2026-05-01T09:51:31Z</time></trkpt><trkpt lat="40.130720654319596" lon="9.507216532545478"><ele>937.3333333333333</ele><time>2026-05-01T09:51:32Z</time></trkpt><trkpt lat="40.130517989167004" lon="9.50721360999355"><ele>942.0</ele><time>2026-05-01T09:51:33Z</time></trkpt><trkpt lat="40.130296612578" lon="9.507249294352786"><ele>942.0</ele><time>2026-05-01T09:51:34Z</time></trkpt><trkpt lat="40.13004226566318" lon="9.507238227308479"><ele>942.0</ele><time>2026-05-01T09:51:35Z</time></trkpt><trkpt lat="40.12981938253139" lon="9.507263628174726"><ele>946.6666666666667</ele><time>2026-05-01T09:51:36Z</time></trkpt><trkpt lat="40.12962786254863" lon="9.507346838824615"><ele>951.3333333333334</ele><time>2026-05-01T09:51:37Z</time></trkpt><trkpt lat="40.12943652171396" lon="9.507401245770978"><ele>956.0</ele><time>2026-05-01T09:51:38Z</time></trkpt><trkpt lat="40.12925039812128" lon="9.507442884788592"><ele>956.0</ele><time>2026-05-01T09:51:39Z</time></trkpt><trkpt lat="40.12906512073616" lon="9.507482210927444"><ele>956.0</ele><time>2026-05-01T09:51:40Z</time></trkpt><trkpt lat="40.1288976860278" lon="9.507546937018548"><ele>956.0</ele><time>2026-05-01T09:51:41Z</time></trkpt><trkpt lat="40.12874759025556" lon="9.50764174123946"><ele>961.3333333333334</ele><time>2026-05-01T09:51:42Z</time></trkpt><trkpt lat="40.12860260430753" lon="9.507722199177211"><ele>966.6666666666667</ele><time>2026-05-01T09:51:43Z</time></trkpt><trkpt lat="40.12843364820206" lon="9.507738211298566"><ele>972.0</ele><time>2026-05-01T09:51:44Z</time></trkpt><trkpt lat="40.128246209780016" lon="9.507741730544483"><ele>977.6666666666667</ele><time>2026-05-01T09:51:45Z</time></trkpt><trkpt lat="40.128049448772316" lon="9.507779143943427"><ele>983.3333333333334</ele><time>2026-05-01T09:51:46Z</time></trkpt><trkpt lat="40.127847759101776" lon="9.50784447439942"><ele>989.0</ele><time>2026-05-01T09:51:47Z</time></trkpt><trkpt lat="40.127642264231355" lon="9.507918359332127"><ele>977.3333333333334</ele><time>2026-05-01T09:51:48Z</time></trkpt><trkpt lat="40.127434897192884" lon="9.507992170164343"><ele>965.6666666666667</ele><time>2026-05-01T09:51:49Z</time></trkpt><trkpt lat="40.127231859247935" lon="9.508055514678427"><ele>954.0</ele><time>2026-05-01T09:51:50Z</time></trkpt><trkpt lat="40.127036418997584" lon="9.50811851543527"><ele>954.0</ele><time>2026-05-01T09:51:51Z</time></trkpt><trkpt lat="40.126855718437014" lon="9.508200198823744"><ele>954.0</ele><time>2026-05-01T09:51:52Z</time></trkpt><trkpt lat="40.126694127389605" lon="9.508287336017892"><ele>954.0</ele><time>2026-05-01T09:51:53Z</time></trkpt><trkpt lat="40.126528763989" lon="9.50836974077225"><ele>958.6666666666667</ele><time>2026-05-01T09:51:54Z</time></trkpt><trkpt lat="40.12636401567917" lon="9.508429077331535"><ele>963.3333333333334</ele><time>2026-05-01T09:51:55Z</time></trkpt><trkpt lat="40.126200922173815" lon="9.50847021422578"><ele>968.0</ele><time>2026-05-01T09:51:56Z</time></trkpt><trkpt lat="40.126060837562065" lon="9.508526275855717"><ele>968.0</ele><time>2026-05-01T09:51:57Z</time></trkpt><trkpt lat="40.125927633553964" lon="9.508585914024845"><ele>968.0</ele><time>2026-05-01T09:51:58Z</time></trkpt><trkpt lat="40.12580930990363" lon="9.508623074478939"><ele>968.0</ele><time>2026-05-01T09:51:59Z</time></trkpt><trkpt lat="40.12569817412635" lon="9.50866512619948"><ele>968.0</ele><time>2026-05-01T09:52:00Z</time></trkpt><trkpt lat="40.12559234586596" lon="9.508702046173864"><ele>971.75</ele><time>2026-05-01T09:52:01Z</time></trkpt><trkpt lat="40.125486266257234" lon="9.508735773602181"><ele>975.5</ele><time>2026-05-01T09:52:02Z</time></trkpt><trkpt lat="40.12537165336256" lon="9.508744149746786"><ele>979.25</ele><time>2026-05-01T09:52:03Z</time></trkpt><trkpt lat="40.1252501072888" lon="9.508729374062996"><ele>983.0</ele><time>2026-05-01T09:52:04Z</time></trkpt><trkpt lat="40.12512173637153" lon="9.508742345968328"><ele>973.25</ele><time>2026-05-01T09:52:05Z</time></trkpt><trkpt lat="40.12498965607176" lon="9.508785239453578"><ele>963.5</ele><time>2026-05-01T09:52:06Z</time></trkpt><trkpt lat="40.12485742347836" lon="9.508846649866383"><ele>953.75</ele><time>2026-05-01T09:52:07Z</time></trkpt><trkpt lat="40.124721966089545" lon="9.508919253794327"><ele>944.0</ele><time>2026-05-01T09:52:08Z</time></trkpt><trkpt lat="40.12458701146343" lon="9.508990062747094"><ele>944.0</ele><time>2026-05-01T09:52:09Z</time></trkpt><trkpt lat="40.12446072143377" lon="9.509058621292287"><ele>944.0</ele><time>2026-05-01T09:52:10Z</time></trkpt><trkpt lat="40.12433724567972" lon="9.509118255060544"><ele>944.0</ele><time>2026-05-01T09:52:11Z</time></trkpt><trkpt lat="40.124208275331966" lon="9.50916607022895"><ele>944.0</ele><time>2026-05-01T09:52:12Z</time></trkpt><trkpt lat="40.124072708497316" lon="9.509204225234082"><ele>946.5</ele><time>2026-05-01T09:52:13Z</time></trkpt><trkpt lat="40.12393087513376" lon="9.5092336843845"><ele>949.0</ele><time>2026-05-01T09:52:14Z</time></trkpt><trkpt lat="40.12378392790499" lon="9.509259251332738"><ele>951.5</ele><time>2026-05-01T09:52:15Z</time></trkpt><trkpt lat="40.12363567313898" lon="9.509289639149822"><ele>954.0</ele><time>2026-05-01T09:52:16Z</time></trkpt><trkpt lat="40.12348436897017" lon="9.509323836237963"><ele>954.0</ele><time>2026-05-01T09:52:17Z</time></trkpt><trkpt lat="40.12332993992587" lon="9.509355761057204"><ele>954.0</ele><time>2026-05-01T09:52:18Z</time></trkpt><trkpt lat="40.123171586974905" lon="9.509378246638255"><ele>954.0</ele><time>2026-05-01T09:52:19Z</time></trkpt><trkpt lat="40.12301181844192" lon="9.509391740338181"><ele>957.3333333333333</ele><time>2026-05-01T09:52:20Z</time></trkpt><trkpt lat="40.1228529949189" lon="9.509414157704564"><ele>960.6666666666666</ele><time>2026-05-01T09:52:21Z</time></trkpt><trkpt lat="40.12269608540623" lon="9.509445869188875"><ele>964.0</ele><time>2026-05-01T09:52:22Z</time></trkpt><trkpt lat="40.12253916568052" lon="9.509480313011085"><ele>965.6666666666666</ele><time>2026-05-01T09:52:23Z</time></trkpt><trkpt lat="40.12238096614462" lon="9.509505816680111"><ele>967.3333333333333</ele><time>2026-05-01T09:52:24Z</time></trkpt><trkpt lat="40.12220867515918" lon="9.50950846514498"><ele>969.0</ele><time>2026-05-01T09:52:25Z</time></trkpt><trkpt lat="40.12203328870617" lon="9.509528305637494"><ele>969.0</ele><time>2026-05-01T09:52:26Z</time></trkpt><trkpt lat="40.12184017014315" lon="9.509519550243096"><ele>969.0</ele><time>2026-05-01T09:52:27Z</time></trkpt><trkpt lat="40.1216408510209" lon="9.509519301491952"><ele>969.0</ele><time>2026-05-01T09:52:28Z</time></trkpt><trkpt lat="40.121431860396875" lon="9.5095379084276"><ele>968.6666666666667</ele><time>2026-05-01T09:52:29Z</time></trkpt><trkpt lat="40.12121817830256" lon="9.509559893253918"><ele>968.3333333333334</ele><time>2026-05-01T09:52:30Z</time></trkpt><trkpt lat="40.1209988705313" lon="9.509588544197753"><ele>968.0</ele><time>2026-05-01T09:52:31Z</time></trkpt><trkpt lat="40.12077955915544" lon="9.509592190979916"><ele>949.0</ele><time>2026-05-01T09:52:32Z</time></trkpt><trkpt lat="40.120562772412555" lon="9.5096226859452"><ele>930.0</ele><time>2026-05-01T09:52:33Z</time></trkpt><trkpt lat="40.12035319347007" lon="9.509653938163073"><ele>911.0</ele><time>2026-05-01T09:52:34Z</time></trkpt><trkpt lat="40.12016078075255" lon="9.509705328832062"><ele>911.0</ele><time>2026-05-01T09:52:35Z</time></trkpt><trkpt lat="40.119991831572904" lon="9.509754043995374"><ele>911.0</ele><time>2026-05-01T09:52:36Z</time></trkpt><trkpt lat="40.11982918427917" lon="9.509781573255006"><ele>911.0</ele><time>2026-05-01T09:52:37Z</time></trkpt><trkpt lat="40.11968283026377" lon="9.50971799103299"><ele>914.5</ele><time>2026-05-01T09:52:38Z</time></trkpt><trkpt lat="40.11955766630554" lon="9.50969707604051"><ele>918.0</ele><time>2026-05-01T09:52:39Z</time></trkpt><trkpt lat="40.11944963388864" lon="9.50972206443304"><ele>921.5</ele><time>2026-05-01T09:52:40Z</time></trkpt><trkpt lat="40.119350055892426" lon="9.509790896393552"><ele>925.0</ele><time>2026-05-01T09:52:41Z</time></trkpt><trkpt lat="40.119233809761795" lon="9.509913410180745"><ele>939.6666666666666</ele><time>2026-05-01T09:52:42Z</time></trkpt><trkpt lat="40.119065825266816" lon="9.510037039468695"><ele>954.3333333333333</ele><time>2026-05-01T09:52:43Z</time></trkpt><trkpt lat="40.11890957422094" lon="9.51018203015388"><ele>969.0</ele><time>2026-05-01T09:52:44Z</time></trkpt><trkpt lat="40.118761678778256" lon="9.510310637194728"><ele>954.6666666666667</ele><time>2026-05-01T09:52:45Z</time></trkpt><trkpt lat="40.11857409649421" lon="9.510465638967013"><ele>940.3333333333334</ele><time>2026-05-01T09:52:46Z</time></trkpt><trkpt lat="40.11841366522008" lon="9.51067506425126"><ele>926.0</ele><time>2026-05-01T09:52:47Z</time></trkpt><trkpt lat="40.118268679408" lon="9.510855399659128"><ele>923.3333333333334</ele><time>2026-05-01T09:52:48Z</time></trkpt><trkpt lat="40.118120195571095" lon="9.51102884597867"><ele>920.6666666666667</ele><time>2026-05-01T09:52:49Z</time></trkpt><trkpt lat="40.117936584820406" lon="9.511164444144905"><ele>918.0</ele><time>2026-05-01T09:52:50Z</time></trkpt><trkpt lat="40.117749404319284" lon="9.511307964503754"><ele>918.0</ele><time>2026-05-01T09:52:51Z</time></trkpt><trkpt lat="40.11758061593866" lon="9.51146139019263"><ele>918.0</ele><time>2026-05-01T09:52:52Z</time></trkpt><trkpt lat="40.117417104042694" lon="9.51158041265023"><ele>918.0</ele><time>2026-05-01T09:52:53Z</time></trkpt><trkpt lat="40.117253753614214" lon="9.511667687661104"><ele>924.3333333333333</ele><time>2026-05-01T09:52:54Z</time></trkpt><trkpt lat="40.11709674675875" lon="9.511765957171974"><ele>930.6666666666666</ele><time>2026-05-01T09:52:55Z</time></trkpt><trkpt lat="40.11691957527373" lon="9.511834658359641"><ele>937.0</ele><time>2026-05-01T09:52:56Z</time></trkpt><trkpt lat="40.11672351546389" lon="9.511861127161827"><ele>943.3333333333333</ele><time>2026-05-01T09:52:57Z</time></trkpt><trkpt lat="40.116520974352404" lon="9.511892746673436"><ele>949.6666666666667</ele><time>2026-05-01T09:52:58Z</time></trkpt><trkpt lat="40.11634804096162" lon="9.511968941655562"><ele>956.0</ele><time>2026-05-01T09:52:59Z</time></trkpt><trkpt lat="40.116191086133114" lon="9.512074728709676"><ele>946.0</ele><time>2026-05-01T09:53:00Z</time></trkpt><trkpt lat="40.11602576867772" lon="9.512201244526564"><ele>936.0</ele><time>2026-05-01T09:53:01Z</time></trkpt><trkpt lat="40.11582891958085" lon="9.512243358043088"><ele>926.0</ele><time>2026-05-01T09:53:02Z</time></trkpt><trkpt lat="40.1156152710768" lon="9.512308759352244"><ele>926.0</ele><time>2026-05-01T09:53:03Z</time></trkpt><trkpt lat="40.11538768204664" lon="9.512408689977963"><ele>926.0</ele><time>2026-05-01T09:53:04Z</time></trkpt><trkpt lat="40.11515327605247" lon="9.512516792021849"><ele>926.0</ele><time>2026-05-01T09:53:05Z</time></trkpt><trkpt lat="40.11492604454736" lon="9.512635651796161"><ele>926.0</ele><time>2026-05-01T09:53:06Z</time></trkpt><trkpt lat="40.11471365121799" lon="9.512748604871522"><ele>933.5</ele><time>2026-05-01T09:53:07Z</time></trkpt><trkpt lat="40.11449911419787" lon="9.512859132697042"><ele>941.0</ele><time>2026-05-01T09:53:08Z</time></trkpt><trkpt lat="40.11427710817407" lon="9.51298163265254"><ele>932.5</ele><time>2026-05-01T09:53:09Z</time></trkpt><trkpt lat="40.11405120926064" lon="9.51311739217824"><ele>924.0</ele><time>2026-05-01T09:53:10Z</time></trkpt><trkpt lat="40.11382248082152" lon="9.513262422013078"><ele>924.0</ele><time>2026-05-01T09:53:11Z</time></trkpt><trkpt lat="40.11359463674507" lon="9.513409001857916"><ele>924.0</ele><time>2026-05-01T09:53:12Z</time></trkpt><trkpt lat="40.11338372355339" lon="9.513552590985592"><ele>919.0</ele><time>2026-05-01T09:53:13Z</time></trkpt><trkpt lat="40.113185034327216" lon="9.513726088484528"><ele>914.0</ele><time>2026-05-01T09:53:14Z</time></trkpt><trkpt lat="40.11299445955526" lon="9.513939599489138"><ele>914.0</ele><time>2026-05-01T09:53:15Z</time></trkpt><trkpt lat="40.11280919481683" lon="9.514139751674834"><ele>914.0</ele><time>2026-05-01T09:53:16Z</time></trkpt><trkpt lat="40.112638690624" lon="9.514317852394562"><ele>914.0</ele><time>2026-05-01T09:53:17Z</time></trkpt><trkpt lat="40.11248622362673" lon="9.51447483293517"><ele>914.0</ele><time>2026-05-01T09:53:18Z</time></trkpt><trkpt lat="40.11234844861631" lon="9.514612089473642"><ele>914.0</ele><time>2026-05-01T09:53:19Z</time></trkpt><trkpt lat="40.11222382461263" lon="9.514736938570776"><ele>908.6666666666667</ele><time>2026-05-01T09:53:20Z</time></trkpt><trkpt lat="40.112102303553264" lon="9.514867689636965"><ele>903.3333333333333</ele><time>2026-05-01T09:53:21Z</time></trkpt><trkpt lat="40.111987494688385" lon="9.515032793023234"><ele>898.0</ele><time>2026-05-01T09:53:22Z</time></trkpt><trkpt lat="40.11186414923644" lon="9.515234447242678"><ele>899.6666666666666</ele><time>2026-05-01T09:53:23Z</time></trkpt><trkpt lat="40.111744324649806" lon="9.51543675912799"><ele>901.3333333333333</ele><time>2026-05-01T09:53:24Z</time></trkpt><trkpt lat="40.11162982258063" lon="9.515627272997826"><ele>903.0</ele><time>2026-05-01T09:53:25Z</time></trkpt><trkpt lat="40.111516599629056" lon="9.515822964088638"><ele>894.0</ele><time>2026-05-01T09:53:26Z</time></trkpt><trkpt lat="40.1114139952118" lon="9.516032544633239"><ele>885.0</ele><time>2026-05-01T09:53:27Z</time></trkpt><trkpt lat="40.11133887706426" lon="9.516258571366103"><ele>876.0</ele><time>2026-05-01T09:53:28Z</time></trkpt><trkpt lat="40.11128617082" lon="9.51648021925214"><ele>876.0</ele><time>2026-05-01T09:53:29Z</time></trkpt><trkpt lat="40.11122673516461" lon="9.516686261775352"><ele>876.0</ele><time>2026-05-01T09:53:30Z</time></trkpt><trkpt lat="40.11113900373171" lon="9.51686384565962"><ele>876.0</ele><time>2026-05-01T09:53:31Z</time></trkpt><trkpt lat="40.11098312262366" lon="9.516956128014403"><ele>882.0</ele><time>2026-05-01T09:53:32Z</time></trkpt><trkpt lat="40.11087915968286" lon="9.51711192660111"><ele>888.0</ele><time>2026-05-01T09:53:33Z</time></trkpt><trkpt lat="40.11078315693195" lon="9.517304152168236"><ele>894.0</ele><time>2026-05-01T09:53:34Z</time></trkpt><trkpt lat="40.11072044149844" lon="9.517559208833571"><ele>885.0</ele><time>2026-05-01T09:53:35Z</time></trkpt><trkpt lat="40.11067697978183" lon="9.517817204007528"><ele>876.0</ele><time>2026-05-01T09:53:36Z</time></trkpt><trkpt lat="40.110632696699156" lon="9.518047732837276"><ele>867.0</ele><time>2026-05-01T09:53:37Z</time></trkpt><trkpt lat="40.11055909444395" lon="9.518246532463575"><ele>867.0</ele><time>2026-05-01T09:53:38Z</time></trkpt><trkpt lat="40.110404262704044" lon="9.518379239361451"><ele>867.0</ele><time>2026-05-01T09:53:39Z</time></trkpt><trkpt lat="40.11023508176928" lon="9.518561769516525"><ele>867.0</ele><time>2026-05-01T09:53:40Z</time></trkpt><trkpt lat="40.11004994838507" lon="9.518752801862778"><ele>866.3333333333333</ele><time>2026-05-01T09:53:41Z</time></trkpt><trkpt lat="40.10985466717422" lon="9.518891553828881"><ele>865.6666666666666</ele><time>2026-05-01T09:53:42Z</time></trkpt><trkpt lat="40.10966521697009" lon="9.518987127743557"><ele>865.0</ele><time>2026-05-01T09:53:43Z</time></trkpt><trkpt lat="40.109474243436594" lon="9.519076173568642"><ele>865.0</ele><time>2026-05-01T09:53:44Z</time></trkpt><trkpt lat="40.1093031010639" lon="9.519200750494281"><ele>865.0</ele><time>2026-05-01T09:53:45Z</time></trkpt><trkpt lat="40.10914452490513" lon="9.519349259972858"><ele>865.0</ele><time>2026-05-01T09:53:46Z</time></trkpt><trkpt lat="40.10898998654854" lon="9.519510105351594"><ele>861.3333333333333</ele><time>2026-05-01T09:53:47Z</time></trkpt><trkpt lat="40.108839424714795" lon="9.519678114352656"><ele>857.6666666666667</ele><time>2026-05-01T09:53:48Z</time></trkpt><trkpt lat="40.10869837244784" lon="9.519866457173285"><ele>854.0</ele><time>2026-05-01T09:53:49Z</time></trkpt><trkpt lat="40.10855468120097" lon="9.520057724789643"><ele>854.0</ele><time>2026-05-01T09:53:50Z</time></trkpt><trkpt lat="40.10840439454866" lon="9.520244155287505"><ele>854.0</ele><time>2026-05-01T09:53:51Z</time></trkpt><trkpt lat="40.108258150645646" lon="9.520413121038619"><ele>854.0</ele><time>2026-05-01T09:53:52Z</time></trkpt><trkpt lat="40.10810245575435" lon="9.520556198788396"><ele>856.3333333333334</ele><time>2026-05-01T09:53:53Z</time></trkpt><trkpt lat="40.107906483808684" lon="9.520617690244455"><ele>858.6666666666667</ele><time>2026-05-01T09:53:54Z</time></trkpt><trkpt lat="40.107709616907904" lon="9.52069674051689"><ele>861.0</ele><time>2026-05-01T09:53:55Z</time></trkpt><trkpt lat="40.107526863274906" lon="9.520755501660922"><ele>848.6666666666667</ele><time>2026-05-01T09:53:56Z</time></trkpt><trkpt lat="40.10737031852494" lon="9.520842165470675"><ele>836.3333333333334</ele><time>2026-05-01T09:53:57Z</time></trkpt><trkpt lat="40.1072269635113" lon="9.520981895658103"><ele>824.0</ele><time>2026-05-01T09:53:58Z</time></trkpt><trkpt lat="40.10709321444986" lon="9.521161707069965"><ele>834.0</ele><time>2026-05-01T09:53:59Z</time></trkpt><trkpt lat="40.10695915341533" lon="9.521355709442549"><ele>844.0</ele><time>2026-05-01T09:54:00Z</time></trkpt><trkpt lat="40.10681834301378" lon="9.52153851162043"><ele>854.0</ele><time>2026-05-01T09:54:01Z</time></trkpt><trkpt lat="40.106686001548006" lon="9.521700219828304"><ele>846.0</ele><time>2026-05-01T09:54:02Z</time></trkpt><trkpt lat="40.10657177881721" lon="9.521866205956607"><ele>838.0</ele><time>2026-05-01T09:54:03Z</time></trkpt><trkpt lat="40.10647277198897" lon="9.5220560725717"><ele>830.0</ele><time>2026-05-01T09:54:04Z</time></trkpt><trkpt lat="40.10639222584084" lon="9.522283377602017"><ele>830.0</ele><time>2026-05-01T09:54:05Z</time></trkpt><trkpt lat="40.10631206151361" lon="9.522520584603017"><ele>830.0</ele><time>2026-05-01T09:54:06Z</time></trkpt><trkpt lat="40.10619034320128" lon="9.522730678556858"><ele>830.0</ele><time>2026-05-01T09:54:07Z</time></trkpt><trkpt lat="40.10603670152093" lon="9.522926478643397"><ele>828.0</ele><time>2026-05-01T09:54:08Z</time></trkpt><trkpt lat="40.10587740617199" lon="9.523117005176125"><ele>826.0</ele><time>2026-05-01T09:54:09Z</time></trkpt><trkpt lat="40.10572723350728" lon="9.523290012880501"><ele>824.0</ele><time>2026-05-01T09:54:10Z</time></trkpt><trkpt lat="40.10554198291704" lon="9.523399979168927"><ele>824.0</ele><time>2026-05-01T09:54:11Z</time></trkpt><trkpt lat="40.105370545368416" lon="9.523542859528048"><ele>824.0</ele><time>2026-05-01T09:54:12Z</time></trkpt><trkpt lat="40.10520341883848" lon="9.523657866999628"><ele>824.0</ele><time>2026-05-01T09:54:13Z</time></trkpt><trkpt lat="40.10505673197626" lon="9.523770244006734"><ele>819.6666666666667</ele><time>2026-05-01T09:54:14Z</time></trkpt><trkpt lat="40.10493753045516" lon="9.523911039230162"><ele>815.3333333333333</ele><time>2026-05-01T09:54:15Z</time></trkpt><trkpt lat="40.10484214710381" lon="9.524098495498496"><ele>811.0</ele><time>2026-05-01T09:54:16Z</time></trkpt><trkpt lat="40.10478827947837" lon="9.524303243582084"><ele>811.0</ele><time>2026-05-01T09:54:17Z</time></trkpt><trkpt lat="40.10476171660386" lon="9.52448105276234"><ele>811.0</ele><time>2026-05-01T09:54:18Z</time></trkpt><trkpt lat="40.10478831483155" lon="9.524636979988442"><ele>811.0</ele><time>2026-05-01T09:54:19Z</time></trkpt><trkpt lat="40.104852825157806" lon="9.524774443367921"><ele>811.0</ele><time>2026-05-01T09:54:20Z</time></trkpt><trkpt lat="40.10496634634199" lon="9.524880863474564"><ele>817.6666666666666</ele><time>2026-05-01T09:54:21Z</time></trkpt><trkpt lat="40.10511812171611" lon="9.524918200240027"><ele>824.3333333333333</ele><time>2026-05-01T09:54:22Z</time></trkpt><trkpt lat="40.105288743926714" lon="9.524920772799344"><ele>831.0</ele><time>2026-05-01T09:54:23Z</time></trkpt><trkpt lat="40.105457381817" lon="9.5249235063987"><ele>831.0</ele><time>2026-05-01T09:54:24Z</time></trkpt><trkpt lat="40.105605443220206" lon="9.524934776347937"><ele>831.0</ele><time>2026-05-01T09:54:25Z</time></trkpt><trkpt lat="40.105736037654964" lon="9.524949883554198"><ele>831.0</ele><time>2026-05-01T09:54:26Z</time></trkpt><trkpt lat="40.10585419142557" lon="9.524961290354295"><ele>831.0</ele><time>2026-05-01T09:54:27Z</time></trkpt><trkpt lat="40.10596662465017" lon="9.524975638868804"><ele>831.5</ele><time>2026-05-01T09:54:28Z</time></trkpt><trkpt lat="40.10607134122802" lon="9.525017324937926"><ele>832.0</ele><time>2026-05-01T09:54:29Z</time></trkpt><trkpt lat="40.10615811022528" lon="9.525114731592046"><ele>832.5</ele><time>2026-05-01T09:54:30Z</time></trkpt><trkpt lat="40.106232917581345" lon="9.52525537109949"><ele>833.0</ele><time>2026-05-01T09:54:31Z</time></trkpt><trkpt lat="40.10633454497591" lon="9.525404862343441"><ele>827.75</ele><time>2026-05-01T09:54:32Z</time></trkpt><trkpt lat="40.10640772882951" lon="9.525558817162485"><ele>822.5</ele><time>2026-05-01T09:54:33Z</time></trkpt><trkpt lat="40.10644773094156" lon="9.52571926464562"><ele>817.25</ele><time>2026-05-01T09:54:34Z</time></trkpt><trkpt lat="40.10647452010393" lon="9.52588157623227"><ele>812.0</ele><time>2026-05-01T09:54:35Z</time></trkpt><trkpt lat="40.1064792410086" lon="9.526058358272227"><ele>813.25</ele><time>2026-05-01T09:54:36Z</time></trkpt><trkpt lat="40.10646062257599" lon="9.52624860547613"><ele>814.5</ele><time>2026-05-01T09:54:37Z</time></trkpt><trkpt lat="40.106408138206284" lon="9.526408873948233"><ele>815.75</ele><time>2026-05-01T09:54:38Z</time></trkpt><trkpt lat="40.10633716884154" lon="9.526547870896637"><ele>817.0</ele><time>2026-05-01T09:54:39Z</time></trkpt><trkpt lat="40.10626265631638" lon="9.5266873899186"><ele>817.0</ele><time>2026-05-01T09:54:40Z</time></trkpt><trkpt lat="40.10616006568173" lon="9.526794975764235"><ele>817.0</ele><time>2026-05-01T09:54:41Z</time></trkpt><trkpt lat="40.106057528450556" lon="9.526841880399953"><ele>817.0</ele><time>2026-05-01T09:54:42Z</time></trkpt><trkpt lat="40.105909809755545" lon="9.52687506106443"><ele>817.0</ele><time>2026-05-01T09:54:43Z</time></trkpt><trkpt lat="40.10576587727067" lon="9.5269002328699"><ele>812.5</ele><time>2026-05-01T09:54:44Z</time></trkpt><trkpt lat="40.10562509600379" lon="9.526925980123782"><ele>808.0</ele><time>2026-05-01T09:54:45Z</time></trkpt><trkpt lat="40.10549926704482" lon="9.526969447010325"><ele>803.5</ele><time>2026-05-01T09:54:46Z</time></trkpt><trkpt lat="40.10537773577134" lon="9.52700030184907"><ele>799.0</ele><time>2026-05-01T09:54:47Z</time></trkpt><trkpt lat="40.10525576581084" lon="9.52704859617588"><ele>796.75</ele><time>2026-05-01T09:54:48Z</time></trkpt><trkpt lat="40.10513207783789" lon="9.527111976007642"><ele>794.5</ele><time>2026-05-01T09:54:49Z</time></trkpt><trkpt lat="40.105009325594565" lon="9.527200082216945"><ele>792.25</ele><time>2026-05-01T09:54:50Z</time></trkpt><trkpt lat="40.104888722244446" lon="9.527305208937802"><ele>790.0</ele><time>2026-05-01T09:54:51Z</time></trkpt><trkpt lat="40.104771173152145" lon="9.527428577354145"><ele>790.0</ele><time>2026-05-01T09:54:52Z</time></trkpt><trkpt lat="40.104661899623295" lon="9.527563586631668"><ele>790.0</ele><time>2026-05-01T09:54:53Z</time></trkpt><trkpt lat="40.10457091130579" lon="9.527723248858322"><ele>790.0</ele><time>2026-05-01T09:54:54Z</time></trkpt><trkpt lat="40.10451226439298" lon="9.527903423726412"><ele>791.25</ele><time>2026-05-01T09:54:55Z</time></trkpt><trkpt lat="40.104471159544424" lon="9.528074550353418"><ele>792.5</ele><time>2026-05-01T09:54:56Z</time></trkpt><trkpt lat="40.10443197542646" lon="9.528248501928406"><ele>793.75</ele><time>2026-05-01T09:54:57Z</time></trkpt><trkpt lat="40.10439825835084" lon="9.528435866973"><ele>795.0</ele><time>2026-05-01T09:54:58Z</time></trkpt><trkpt lat="40.10439940675585" lon="9.528638216059509"><ele>794.3333333333333</ele><time>2026-05-01T09:54:59Z</time></trkpt><trkpt lat="40.104441200052214" lon="9.528846076150703"><ele>793.6666666666666</ele><time>2026-05-01T09:55:00Z</time></trkpt><trkpt lat="40.10449760630458" lon="9.529069637005415"><ele>793.0</ele><time>2026-05-01T09:55:01Z</time></trkpt><trkpt lat="40.104543990235804" lon="9.529283639250494"><ele>793.0</ele><time>2026-05-01T09:55:02Z</time></trkpt><trkpt lat="40.104581264218666" lon="9.52946369870419"><ele>793.0</ele><time>2026-05-01T09:55:03Z</time></trkpt><trkpt lat="40.10461191475444" lon="9.52961458250418"><ele>793.0</ele><time>2026-05-01T09:55:04Z</time></trkpt><trkpt lat="40.10464557125454" lon="9.529763054663325"><ele>793.0</ele><time>2026-05-01T09:55:05Z</time></trkpt><trkpt lat="40.104680229645616" lon="9.52989951148325"><ele>792.5999999999999</ele><time>2026-05-01T09:55:06Z</time></trkpt><trkpt lat="40.10470729471591" lon="9.530040031301262"><ele>792.1999999999999</ele><time>2026-05-01T09:55:07Z</time></trkpt><trkpt lat="40.104729167348815" lon="9.530175149133019"><ele>791.8</ele><time>2026-05-01T09:55:08Z</time></trkpt><trkpt lat="40.10474282524304" lon="9.530307984543722"><ele>791.4</ele><time>2026-05-01T09:55:09Z</time></trkpt><trkpt lat="40.104739123267116" lon="9.530436439282001"><ele>791.0</ele><time>2026-05-01T09:55:10Z</time></trkpt><trkpt lat="40.104669784117156" lon="9.530530775911744"><ele>789.5</ele><time>2026-05-01T09:55:11Z</time></trkpt><trkpt lat="40.10458631412448" lon="9.530600290048087"><ele>788.0</ele><time>2026-05-01T09:55:12Z</time></trkpt><trkpt lat="40.10446736738526" lon="9.530614151205693"><ele>786.5</ele><time>2026-05-01T09:55:13Z</time></trkpt><trkpt lat="40.104348187770725" lon="9.53054560685682"><ele>785.0</ele><time>2026-05-01T09:55:14Z</time></trkpt><trkpt lat="40.104281953672256" lon="9.530413039271393"><ele>786.5</ele><time>2026-05-01T09:55:15Z</time></trkpt><trkpt lat="40.10426450286043" lon="9.530239424592455"><ele>788.0</ele><time>2026-05-01T09:55:16Z</time></trkpt><trkpt lat="40.104280405155244" lon="9.530044261155298"><ele>789.5</ele><time>2026-05-01T09:55:17Z</time></trkpt><trkpt lat="40.10430899959225" lon="9.52987409528391"><ele>791.0</ele><time>2026-05-01T09:55:18Z</time></trkpt><trkpt lat="40.104338242331174" lon="9.529728308387405"><ele>791.0</ele><time>2026-05-01T09:55:19Z</time></trkpt><trkpt lat="40.1043465396982" lon="9.529607892738312"><ele>791.0</ele><time>2026-05-01T09:55:20Z</time></trkpt><trkpt lat="40.10430414712388" lon="9.529498227744826"><ele>791.0</ele><time>2026-05-01T09:55:21Z</time></trkpt><trkpt lat="40.104235758468874" lon="9.529424692831851"><ele>791.0</ele><time>2026-05-01T09:55:22Z</time></trkpt><trkpt lat="40.1041314355263" lon="9.529411146608613"><ele>791.0</ele><time>2026-05-01T09:55:23Z</time></trkpt><trkpt lat="40.10402767156744" lon="9.529434960168336"><ele>789.1999999999999</ele><time>2026-05-01T09:55:24Z</time></trkpt><trkpt lat="40.10394355437381" lon="9.52951055255416"><ele>787.4</ele><time>2026-05-01T09:55:25Z</time></trkpt><trkpt lat="40.103895900511894" lon="9.529634963214898"><ele>785.6</ele><time>2026-05-01T09:55:26Z</time></trkpt><trkpt lat="40.10387733155621" lon="9.529763990228352"><ele>783.8</ele><time>2026-05-01T09:55:27Z</time></trkpt><trkpt lat="40.10386648966811" lon="9.529880405204606"><ele>782.0</ele><time>2026-05-01T09:55:28Z</time></trkpt><trkpt lat="40.10384040925513" lon="9.530007271017281"><ele>782.0</ele><time>2026-05-01T09:55:29Z</time></trkpt><trkpt lat="40.10379292753011" lon="9.530147274243665"><ele>782.0</ele><time>2026-05-01T09:55:30Z</time></trkpt><trkpt lat="40.10369232234592" lon="9.530236089665435"><ele>782.0</ele><time>2026-05-01T09:55:31Z</time></trkpt><trkpt lat="40.10357463893616" lon="9.530295195200313"><ele>782.0</ele><time>2026-05-01T09:55:32Z</time></trkpt><trkpt lat="40.103439425937545" lon="9.53027684244269"><ele>782.0</ele><time>2026-05-01T09:55:33Z</time></trkpt><trkpt lat="40.10329266840318" lon="9.53024033356063"><ele>782.0</ele><time>2026-05-01T09:55:34Z</time></trkpt><trkpt lat="40.10313864991877" lon="9.530207450878224"><ele>782.0</ele><time>2026-05-01T09:55:35Z</time></trkpt><trkpt lat="40.10300282647303" lon="9.530167056811804"><ele>782.0</ele><time>2026-05-01T09:55:36Z</time></trkpt><trkpt lat="40.10287774331808" lon="9.530138657261496"><ele>780.75</ele><time>2026-05-01T09:55:37Z</time></trkpt><trkpt lat="40.10275475070724" lon="9.530113683927354"><ele>779.5</ele><time>2026-05-01T09:55:38Z</time></trkpt><trkpt lat="40.10262640875281" lon="9.530080159494805"><ele>778.25</ele><time>2026-05-01T09:55:39Z</time></trkpt><trkpt lat="40.10249474470841" lon="9.530046531880032"><ele>777.0</ele><time>2026-05-01T09:55:40Z</time></trkpt><trkpt lat="40.10236252618378" lon="9.530020150089252"><ele>776.5</ele><time>2026-05-01T09:55:41Z</time></trkpt><trkpt lat="40.1022309092729" lon="9.529985734195073"><ele>776.0</ele><time>2026-05-01T09:55:42Z</time></trkpt><trkpt lat="40.10210883168441" lon="9.529949913233795"><ele>775.5</ele><time>2026-05-01T09:55:43Z</time></trkpt><trkpt lat="40.10200123622311" lon="9.529891186261306"><ele>775.0</ele><time>2026-05-01T09:55:44Z</time></trkpt><trkpt lat="40.10191914148069" lon="9.529775696803393"><ele>775.0</ele><time>2026-05-01T09:55:45Z</time></trkpt><trkpt lat="40.101865395400466" lon="9.529617606412213"><ele>775.0</ele><time>2026-05-01T09:55:46Z</time></trkpt><trkpt lat="40.10187772939684" lon="9.52942476051709"><ele>775.0</ele><time>2026-05-01T09:55:47Z</time></trkpt><trkpt lat="40.101876047193805" lon="9.529244828461065"><ele>775.0</ele><time>2026-05-01T09:55:48Z</time></trkpt><trkpt lat="40.10188656345352" lon="9.52908409377487"><ele>773.5</ele><time>2026-05-01T09:55:49Z</time></trkpt><trkpt lat="40.10187266294612" lon="9.528935748034742"><ele>772.0</ele><time>2026-05-01T09:55:50Z</time></trkpt><trkpt lat="40.101828479519824" lon="9.528794635846204"><ele>770.5</ele><time>2026-05-01T09:55:51Z</time></trkpt><trkpt lat="40.101751188264245" lon="9.528672738639958"><ele>769.0</ele><time>2026-05-01T09:55:52Z</time></trkpt><trkpt lat="40.10164629999102" lon="9.528589046642024"><ele>763.75</ele><time>2026-05-01T09:55:53Z</time></trkpt><trkpt lat="40.101509568175366" lon="9.528582581688077"><ele>758.5</ele><time>2026-05-01T09:55:54Z</time></trkpt><trkpt lat="40.10136696216103" lon="9.528605170368188"><ele>753.25</ele><time>2026-05-01T09:55:55Z</time></trkpt><trkpt lat="40.101217994030534" lon="9.52864563224696"><ele>748.0</ele><time>2026-05-01T09:55:56Z</time></trkpt><trkpt lat="40.10107264130012" lon="9.528689671199045"><ele>749.75</ele><time>2026-05-01T09:55:57Z</time></trkpt><trkpt lat="40.100943167059945" lon="9.528737607405008"><ele>751.5</ele><time>2026-05-01T09:55:58Z</time></trkpt><trkpt lat="40.100807681309966" lon="9.528790890427084"><ele>753.25</ele><time>2026-05-01T09:55:59Z</time></trkpt><trkpt lat="40.100656396089164" lon="9.528845415738148"><ele>755.0</ele><time>2026-05-01T09:56:00Z</time></trkpt><trkpt lat="40.10049155493616" lon="9.528899683782686"><ele>755.0</ele><time>2026-05-01T09:56:01Z</time></trkpt><trkpt lat="40.10030382318156" lon="9.528951897804044"><ele>755.0</ele><time>2026-05-01T09:56:02Z</time></trkpt><trkpt lat="40.100100941274455" lon="9.528990562438068"><ele>755.0</ele><time>2026-05-01T09:56:03Z</time></trkpt><trkpt lat="40.099913502167205" lon="9.52902740994878"><ele>751.3333333333333</ele><time>2026-05-01T09:56:04Z</time></trkpt><trkpt lat="40.09973978608199" lon="9.529073422045542"><ele>747.6666666666666</ele><time>2026-05-01T09:56:05Z</time></trkpt><trkpt lat="40.09957337908886" lon="9.529142736007724"><ele>744.0</ele><time>2026-05-01T09:56:06Z</time></trkpt><trkpt lat="40.09939834727522" lon="9.529242245605756"><ele>744.0</ele><time>2026-05-01T09:56:07Z</time></trkpt><trkpt lat="40.099207884208774" lon="9.529368983542842"><ele>744.0</ele><time>2026-05-01T09:56:08Z</time></trkpt><trkpt lat="40.09903067256186" lon="9.529484030504307"><ele>744.0</ele><time>2026-05-01T09:56:09Z</time></trkpt><trkpt lat="40.098852625861795" lon="9.529593886351693"><ele>742.6666666666666</ele><time>2026-05-01T09:56:10Z</time></trkpt><trkpt lat="40.0986721775619" lon="9.529702767701513"><ele>741.3333333333333</ele><time>2026-05-01T09:56:11Z</time></trkpt><trkpt lat="40.09850212929159" lon="9.529804901579663"><ele>740.0</ele><time>2026-05-01T09:56:12Z</time></trkpt><trkpt lat="40.09833533774477" lon="9.529904651892961"><ele>739.6666666666666</ele><time>2026-05-01T09:56:13Z</time></trkpt><trkpt lat="40.098161532241946" lon="9.530001935524464"><ele>739.3333333333334</ele><time>2026-05-01T09:56:14Z</time></trkpt><trkpt lat="40.09797802985414" lon="9.530085395134615"><ele>739.0</ele><time>2026-05-01T09:56:15Z</time></trkpt><trkpt lat="40.09779714440533" lon="9.530142979439276"><ele>739.0</ele><time>2026-05-01T09:56:16Z</time></trkpt><trkpt lat="40.09761777270103" lon="9.530158020762133"><ele>739.0</ele><time>2026-05-01T09:56:17Z</time></trkpt><trkpt lat="40.09743017513098" lon="9.530165289685748"><ele>739.0</ele><time>2026-05-01T09:56:18Z</time></trkpt><trkpt lat="40.097239115217285" lon="9.530179457961836"><ele>736.6666666666667</ele><time>2026-05-01T09:56:19Z</time></trkpt><trkpt lat="40.09704927068255" lon="9.530175538131134"><ele>734.3333333333334</ele><time>2026-05-01T09:56:20Z</time></trkpt><trkpt lat="40.09686346104439" lon="9.530180492805904"><ele>732.0</ele><time>2026-05-01T09:56:21Z</time></trkpt><trkpt lat="40.09669230421388" lon="9.53020225737674"><ele>730.25</ele><time>2026-05-01T09:56:22Z</time></trkpt><trkpt lat="40.09653635214936" lon="9.530250336497389"><ele>728.5</ele><time>2026-05-01T09:56:23Z</time></trkpt><trkpt lat="40.096418740987076" lon="9.530346504484354"><ele>726.75</ele><time>2026-05-01T09:56:24Z</time></trkpt><trkpt lat="40.09632237448168" lon="9.53049683761558"><ele>725.0</ele><time>2026-05-01T09:56:25Z</time></trkpt><trkpt lat="40.09625676761776" lon="9.530687276163281"><ele>725.0</ele><time>2026-05-01T09:56:26Z</time></trkpt><trkpt lat="40.096218797442184" lon="9.530905073976967"><ele>725.0</ele><time>2026-05-01T09:56:27Z</time></trkpt><trkpt lat="40.09621473265786" lon="9.531157499049678"><ele>725.0</ele><time>2026-05-01T09:56:28Z</time></trkpt><trkpt lat="40.09621133637935" lon="9.531445717495918"><ele>725.0</ele><time>2026-05-01T09:56:29Z</time></trkpt><trkpt lat="40.09620804191499" lon="9.531759339765237"><ele>725.0</ele><time>2026-05-01T09:56:30Z</time></trkpt><trkpt lat="40.09620480670304" lon="9.532096650064018"><ele>724.5</ele><time>2026-05-01T09:56:31Z</time></trkpt><trkpt lat="40.09621828848662" lon="9.532436486186823"><ele>724.0</ele><time>2026-05-01T09:56:32Z</time></trkpt><trkpt lat="40.096210830405916" lon="9.532735864680317"><ele>725.0</ele><time>2026-05-01T09:56:33Z</time></trkpt><trkpt lat="40.09620646305426" lon="9.533017869403789"><ele>726.0</ele><time>2026-05-01T09:56:34Z</time></trkpt><trkpt lat="40.09620248479561" lon="9.533285198995292"><ele>727.0</ele><time>2026-05-01T09:56:35Z</time></trkpt><trkpt lat="40.09616570070375" lon="9.533519319415136"><ele>727.0</ele><time>2026-05-01T09:56:36Z</time></trkpt><trkpt lat="40.09609179991428" lon="9.533689311685714"><ele>727.0</ele><time>2026-05-01T09:56:37Z</time></trkpt><trkpt lat="40.096012222370234" lon="9.533878337176402"><ele>727.0</ele><time>2026-05-01T09:56:38Z</time></trkpt><trkpt lat="40.09583349609335" lon="9.53396204044579"><ele>726.6666666666667</ele><time>2026-05-01T09:56:39Z</time></trkpt><trkpt lat="40.0956585047791" lon="9.534097906515338"><ele>726.3333333333334</ele><time>2026-05-01T09:56:40Z</time></trkpt><trkpt lat="40.09548286937325" lon="9.534238513567072"><ele>726.0</ele><time>2026-05-01T09:56:41Z</time></trkpt><trkpt lat="40.09532480858614" lon="9.534364626532815"><ele>726.0</ele><time>2026-05-01T09:56:42Z</time></trkpt><trkpt lat="40.09519479652042" lon="9.53449906552926"><ele>726.0</ele><time>2026-05-01T09:56:43Z</time></trkpt><trkpt lat="40.09510343936298" lon="9.534679247080925"><ele>726.0</ele><time>2026-05-01T09:56:44Z</time></trkpt><trkpt lat="40.09505014379156" lon="9.534914956298781"><ele>725.0</ele><time>2026-05-01T09:56:45Z</time></trkpt><trkpt lat="40.09499734430531" lon="9.535170863903826"><ele>724.0</ele><time>2026-05-01T09:56:46Z</time></trkpt><trkpt lat="40.094937345215854" lon="9.535441974981774"><ele>723.0</ele><time>2026-05-01T09:56:47Z</time></trkpt><trkpt lat="40.09487382784948" lon="9.535702907850228"><ele>722.3333333333334</ele><time>2026-05-01T09:56:48Z</time></trkpt><trkpt lat="40.094816250365135" lon="9.535937304764131"><ele>721.6666666666667</ele><time>2026-05-01T09:56:49Z</time></trkpt><trkpt lat="40.09475774734331" lon="9.53617529245256"><ele>721.0</ele><time>2026-05-01T09:56:50Z</time></trkpt><trkpt lat="40.094699151793584" lon="9.536415645586118"><ele>721.0</ele><time>2026-05-01T09:56:51Z</time></trkpt><trkpt lat="40.0946288584395" lon="9.536634554456928"><ele>721.0</ele><time>2026-05-01T09:56:52Z</time></trkpt><trkpt lat="40.09458005327704" lon="9.536841282581033"><ele>721.0</ele><time>2026-05-01T09:56:53Z</time></trkpt><trkpt lat="40.09456169092413" lon="9.537038514693792"><ele>721.0</ele><time>2026-05-01T09:56:54Z</time></trkpt><trkpt lat="40.09455098453387" lon="9.53723602228086"><ele>721.0</ele><time>2026-05-01T09:56:55Z</time></trkpt><trkpt lat="40.09457091116752" lon="9.537445702484867"><ele>721.0</ele><time>2026-05-01T09:56:56Z</time></trkpt><trkpt lat="40.094606209630605" lon="9.537660158336998"><ele>721.0</ele><time>2026-05-01T09:56:57Z</time></trkpt><trkpt lat="40.0946713469935" lon="9.537866927099724"><ele>721.0</ele><time>2026-05-01T09:56:58Z</time></trkpt><trkpt lat="40.094750217684094" lon="9.538043690357867"><ele>721.0</ele><time>2026-05-01T09:56:59Z</time></trkpt><trkpt lat="40.094845340370576" lon="9.538208241031457"><ele>721.6666666666667</ele><time>2026-05-01T09:57:00Z</time></trkpt><trkpt lat="40.09495978287342" lon="9.53836033701866"><ele>722.3333333333334</ele><time>2026-05-01T09:57:01Z</time></trkpt><trkpt lat="40.09508818684803" lon="9.53850709797624"><ele>723.0</ele><time>2026-05-01T09:57:02Z</time></trkpt><trkpt lat="40.09521029355158" lon="9.538678358090717"><ele>722.3333333333334</ele><time>2026-05-01T09:57:03Z</time></trkpt><trkpt lat="40.095359866466254" lon="9.538840319151863"><ele>721.6666666666667</ele><time>2026-05-01T09:57:04Z</time></trkpt><trkpt lat="40.095504943683935" lon="9.539033144238969"><ele>721.0</ele><time>2026-05-01T09:57:05Z</time></trkpt><trkpt lat="40.095642110759485" lon="9.539209699847742"><ele>720.75</ele><time>2026-05-01T09:57:06Z</time></trkpt><trkpt lat="40.095765562377714" lon="9.539367282968515"><ele>720.5</ele><time>2026-05-01T09:57:07Z</time></trkpt><trkpt lat="40.09587523239237" lon="9.539507268819001"><ele>720.25</ele><time>2026-05-01T09:57:08Z</time></trkpt><trkpt lat="40.09596738651196" lon="9.539613418969202"><ele>720.0</ele><time>2026-05-01T09:57:09Z</time></trkpt><trkpt lat="40.09606166791399" lon="9.539678992459898"><ele>720.0</ele><time>2026-05-01T09:57:10Z</time></trkpt><trkpt lat="40.096179038300264" lon="9.539698757350974"><ele>720.0</ele><time>2026-05-01T09:57:11Z</time></trkpt><trkpt lat="40.09630333817069" lon="9.539660711106162"><ele>720.0</ele><time>2026-05-01T09:57:12Z</time></trkpt><trkpt lat="40.0964181133624" lon="9.539615046865878"><ele>720.0</ele><time>2026-05-01T09:57:13Z</time></trkpt><trkpt lat="40.09652232063446" lon="9.539576218126278"><ele>719.6</ele><time>2026-05-01T09:57:14Z</time></trkpt><trkpt lat="40.096621391105764" lon="9.539549463833968"><ele>719.2</ele><time>2026-05-01T09:57:15Z</time></trkpt><trkpt lat="40.096716500586616" lon="9.539538456066252"><ele>718.8</ele><time>2026-05-01T09:57:16Z</time></trkpt><trkpt lat="40.09682611957281" lon="9.539551142103926"><ele>718.4</ele><time>2026-05-01T09:57:17Z</time></trkpt><trkpt lat="40.09694073981222" lon="9.539601751749588"><ele>718.0</ele><time>2026-05-01T09:57:18Z</time></trkpt><trkpt lat="40.097034420150685" lon="9.53969259801675"><ele>719.0</ele><time>2026-05-01T09:57:19Z</time></trkpt><trkpt lat="40.097100915412604" lon="9.53979719750559"><ele>720.0</ele><time>2026-05-01T09:57:20Z</time></trkpt><trkpt lat="40.09715362093402" lon="9.539917144950502"><ele>721.0</ele><time>2026-05-01T09:57:21Z</time></trkpt><trkpt lat="40.09718955827681" lon="9.540057164471103"><ele>722.0</ele><time>2026-05-01T09:57:22Z</time></trkpt><trkpt lat="40.097197882356575" lon="9.54021772139038"><ele>723.0</ele><time>2026-05-01T09:57:23Z</time></trkpt><trkpt lat="40.097181509635796" lon="9.54039224071816"><ele>723.25</ele><time>2026-05-01T09:57:24Z</time></trkpt><trkpt lat="40.097164378534266" lon="9.540565091064925"><ele>723.5</ele><time>2026-05-01T09:57:25Z</time></trkpt><trkpt lat="40.097149719128005" lon="9.540737280756474"><ele>723.75</ele><time>2026-05-01T09:57:26Z</time></trkpt><trkpt lat="40.09713073055328" lon="9.540902218088082"><ele>724.0</ele><time>2026-05-01T09:57:27Z</time></trkpt><trkpt lat="40.09707556496105" lon="9.54103832810904"><ele>724.0</ele><time>2026-05-01T09:57:28Z</time></trkpt><trkpt lat="40.09703132107047" lon="9.54117698744064"><ele>724.0</ele><time>2026-05-01T09:57:29Z</time></trkpt><trkpt lat="40.096986626077395" lon="9.541319243845926"><ele>724.0</ele><time>2026-05-01T09:57:30Z</time></trkpt><trkpt lat="40.096942355180744" lon="9.541464777203938"><ele>724.0</ele><time>2026-05-01T09:57:31Z</time></trkpt><trkpt lat="40.09688929504881" lon="9.541745497732569"><ele>724.6666666666667</ele><time>2026-05-01T09:57:32Z</time></trkpt><trkpt lat="40.096886027112774" lon="9.541955319704192"><ele>725.3333333333334</ele><time>2026-05-01T09:57:33Z</time></trkpt><trkpt lat="40.09690757491661" lon="9.54219207149024"><ele>726.0</ele><time>2026-05-01T09:57:34Z</time></trkpt><trkpt lat="40.096936190871176" lon="9.54245927760724"><ele>726.3333333333334</ele><time>2026-05-01T09:57:35Z</time></trkpt><trkpt lat="40.09693182729598" lon="9.542744347266815"><ele>726.6666666666667</ele><time>2026-05-01T09:57:36Z</time></trkpt><trkpt lat="40.09695181721738" lon="9.543017142599478"><ele>727.0</ele><time>2026-05-01T09:57:37Z</time></trkpt><trkpt lat="40.096953245679046" lon="9.543267069816451"><ele>727.0</ele><time>2026-05-01T09:57:38Z</time></trkpt><trkpt lat="40.096962835025465" lon="9.543498107085718"><ele>727.0</ele><time>2026-05-01T09:57:39Z</time></trkpt><trkpt lat="40.09697068399525" lon="9.543716697643923"><ele>727.0</ele><time>2026-05-01T09:57:40Z</time></trkpt><trkpt lat="40.09693710025946" lon="9.543915696909563"><ele>725.25</ele><time>2026-05-01T09:57:41Z</time></trkpt><trkpt lat="40.0968930317133" lon="9.54409877013241"><ele>723.5</ele><time>2026-05-01T09:57:42Z</time></trkpt><trkpt lat="40.096848236560184" lon="9.544276809749752"><ele>721.75</ele><time>2026-05-01T09:57:43Z</time></trkpt><trkpt lat="40.09681932286782" lon="9.544440733065297"><ele>720.0</ele><time>2026-05-01T09:57:44Z</time></trkpt><trkpt lat="40.09678242506357" lon="9.544568956464733"><ele>719.4</ele><time>2026-05-01T09:57:45Z</time></trkpt><trkpt lat="40.096767734306404" lon="9.544698044795641"><ele>718.8</ele><time>2026-05-01T09:57:46Z</time></trkpt><trkpt lat="40.096791758102" lon="9.544824892039497"><ele>718.2</ele><time>2026-05-01T09:57:47Z</time></trkpt><trkpt lat="40.096860264354014" lon="9.54493736547455"><ele>717.6</ele><time>2026-05-01T09:57:48Z</time></trkpt><trkpt lat="40.096960684830876" lon="9.54502847583501"><ele>717.0</ele><time>2026-05-01T09:57:49Z</time></trkpt><trkpt lat="40.09705193626948" lon="9.545109805871009"><ele>717.0</ele><time>2026-05-01T09:57:50Z</time></trkpt><trkpt lat="40.09713308432228" lon="9.545190655693265"><ele>717.0</ele><time>2026-05-01T09:57:51Z</time></trkpt><trkpt lat="40.09721424745522" lon="9.54528548432603"><ele>717.0</ele><time>2026-05-01T09:57:52Z</time></trkpt><trkpt lat="40.097248583026044" lon="9.545423377924713"><ele>717.0</ele><time>2026-05-01T09:57:53Z</time></trkpt><trkpt lat="40.09724282485035" lon="9.54559731476654"><ele>717.6666666666666</ele><time>2026-05-01T09:57:54Z</time></trkpt><trkpt lat="40.09722191091537" lon="9.545805031979288"><ele>718.3333333333333</ele><time>2026-05-01T09:57:55Z</time></trkpt><trkpt lat="40.09719342607585" lon="9.546096482361119"><ele>719.0</ele><time>2026-05-01T09:57:56Z</time></trkpt><trkpt lat="40.09716128777337" lon="9.546425314184745"><ele>716.0</ele><time>2026-05-01T09:57:57Z</time></trkpt><trkpt lat="40.097127904166236" lon="9.546766887680995"><ele>713.0</ele><time>2026-05-01T09:57:58Z</time></trkpt><trkpt lat="40.09709745637292" lon="9.547081021210456"><ele>712.0</ele><time>2026-05-01T09:57:59Z</time></trkpt><trkpt lat="40.09706457437725" lon="9.547417809437905"><ele>711.0</ele><time>2026-05-01T09:58:00Z</time></trkpt><trkpt lat="40.0970394638019" lon="9.54772638217827"><ele>709.0</ele><time>2026-05-01T09:58:01Z</time></trkpt><trkpt lat="40.09700436975168" lon="9.548018561755956"><ele>707.0</ele><time>2026-05-01T09:58:02Z</time></trkpt><trkpt lat="40.096974894053616" lon="9.548312809890206"><ele>707.0</ele><time>2026-05-01T09:58:03Z</time></trkpt><trkpt lat="40.0969182197542" lon="9.548616442256444"><ele>707.0</ele><time>2026-05-01T09:58:04Z</time></trkpt><trkpt lat="40.09680348733624" lon="9.548929725919743"><ele>703.0</ele><time>2026-05-01T09:58:05Z</time></trkpt><trkpt lat="40.09671142666158" lon="9.54926909438982"><ele>699.0</ele><time>2026-05-01T09:58:06Z</time></trkpt><trkpt lat="40.09662262738782" lon="9.549565015356277"><ele>699.6666666666666</ele><time>2026-05-01T09:58:07Z</time></trkpt><trkpt lat="40.096551893199695" lon="9.549820858711403"><ele>700.3333333333333</ele><time>2026-05-01T09:58:08Z</time></trkpt><trkpt lat="40.09649229088578" lon="9.550029919069832"><ele>701.0</ele><time>2026-05-01T09:58:09Z</time></trkpt><trkpt lat="40.0964422504728" lon="9.55020022266933"><ele>701.0</ele><time>2026-05-01T09:58:10Z</time></trkpt><trkpt lat="40.096397712226" lon="9.550359167231404"><ele>701.0</ele><time>2026-05-01T09:58:11Z</time></trkpt><trkpt lat="40.096323596724076" lon="9.550487272666645"><ele>701.0</ele><time>2026-05-01T09:58:12Z</time></trkpt><trkpt lat="40.09623724008191" lon="9.550597714081263"><ele>701.0</ele><time>2026-05-01T09:58:13Z</time></trkpt><trkpt lat="40.09609338216314" lon="9.550600429539957"><ele>698.0</ele><time>2026-05-01T09:58:14Z</time></trkpt><trkpt lat="40.09591518394574" lon="9.550616608208962"><ele>695.0</ele><time>2026-05-01T09:58:15Z</time></trkpt><trkpt lat="40.095742893943516" lon="9.550641033754486"><ele>692.0</ele><time>2026-05-01T09:58:16Z</time></trkpt><trkpt lat="40.09560000044184" lon="9.550665632374608"><ele>692.0</ele><time>2026-05-01T09:58:17Z</time></trkpt><trkpt lat="40.09548315812407" lon="9.550740455477204"><ele>692.0</ele><time>2026-05-01T09:58:18Z</time></trkpt><trkpt lat="40.095406578796954" lon="9.550892510678633"><ele>692.0</ele><time>2026-05-01T09:58:19Z</time></trkpt><trkpt lat="40.0953762489913" lon="9.551101811314396"><ele>692.0</ele><time>2026-05-01T09:58:20Z</time></trkpt><trkpt lat="40.09537532853439" lon="9.551355299238047"><ele>692.3333333333333</ele><time>2026-05-01T09:58:21Z</time></trkpt><trkpt lat="40.09536729957711" lon="9.551637814080477"><ele>692.6666666666666</ele><time>2026-05-01T09:58:22Z</time></trkpt><trkpt lat="40.0953475524811" lon="9.551914205670082"><ele>693.0</ele><time>2026-05-01T09:58:23Z</time></trkpt><trkpt lat="40.09532690605305" lon="9.552186587276527"><ele>693.0</ele><time>2026-05-01T09:58:24Z</time></trkpt><trkpt lat="40.095301243176806" lon="9.552432176429269"><ele>693.0</ele><time>2026-05-01T09:58:25Z</time></trkpt><trkpt lat="40.095280873622826" lon="9.552647395727583"><ele>693.0</ele><time>2026-05-01T09:58:26Z</time></trkpt><trkpt lat="40.09527291079111" lon="9.552846952311427"><ele>694.75</ele><time>2026-05-01T09:58:27Z</time></trkpt><trkpt lat="40.095280405962235" lon="9.553032642257975"><ele>696.5</ele><time>2026-05-01T09:58:28Z</time></trkpt><trkpt lat="40.095327014327836" lon="9.553211512835635"><ele>698.25</ele><time>2026-05-01T09:58:29Z</time></trkpt><trkpt lat="40.095439497572976" lon="9.553339376313373"><ele>700.0</ele><time>2026-05-01T09:58:30Z</time></trkpt><trkpt lat="40.095580982369" lon="9.553406744761718"><ele>699.3333333333334</ele><time>2026-05-01T09:58:31Z</time></trkpt><trkpt lat="40.09576371885399" lon="9.553425687600193"><ele>698.6666666666666</ele><time>2026-05-01T09:58:32Z</time></trkpt><trkpt lat="40.09595311852834" lon="9.553448310279494"><ele>698.0</ele><time>2026-05-01T09:58:33Z</time></trkpt><trkpt lat="40.09610857274914" lon="9.553509765781678"><ele>698.0</ele><time>2026-05-01T09:58:34Z</time></trkpt><trkpt lat="40.09624276445936" lon="9.55360856883204"><ele>698.0</ele><time>2026-05-01T09:58:35Z</time></trkpt><trkpt lat="40.09635672753859" lon="9.553771697508967"><ele>698.0</ele><time>2026-05-01T09:58:36Z</time></trkpt><trkpt lat="40.09648231295941" lon="9.553970790345641"><ele>699.6666666666666</ele><time>2026-05-01T09:58:37Z</time></trkpt><trkpt lat="40.096603137959924" lon="9.55419863543503"><ele>701.3333333333334</ele><time>2026-05-01T09:58:38Z</time></trkpt><trkpt lat="40.096729315141744" lon="9.554412804388852"><ele>703.0</ele><time>2026-05-01T09:58:39Z</time></trkpt><trkpt lat="40.09685098958129" lon="9.554612533409554"><ele>704.6666666666667</ele><time>2026-05-01T09:58:40Z</time></trkpt><trkpt lat="40.09696642449983" lon="9.554806326790146"><ele>706.3333333333334</ele><time>2026-05-01T09:58:41Z</time></trkpt><trkpt lat="40.097082562294915" lon="9.555008090903693"><ele>708.0</ele><time>2026-05-01T09:58:42Z</time></trkpt><trkpt lat="40.09718485888318" lon="9.555232279265859"><ele>709.6666666666666</ele><time>2026-05-01T09:58:43Z</time></trkpt><trkpt lat="40.09723637031419" lon="9.555488029803964"><ele>711.3333333333333</ele><time>2026-05-01T09:58:44Z</time></trkpt><trkpt lat="40.09725455888643" lon="9.555755270182157"><ele>713.0</ele><time>2026-05-01T09:58:45Z</time></trkpt><trkpt lat="40.09725946627845" lon="9.556021172124211"><ele>714.6666666666666</ele><time>2026-05-01T09:58:46Z</time></trkpt><trkpt lat="40.09727097802328" lon="9.556275189331512"><ele>716.3333333333334</ele><time>2026-05-01T09:58:47Z</time></trkpt><trkpt lat="40.097287979563326" lon="9.556506087988467"><ele>718.0</ele><time>2026-05-01T09:58:48Z</time></trkpt><trkpt lat="40.097307568279156" lon="9.556718884616375"><ele>718.0</ele><time>2026-05-01T09:58:49Z</time></trkpt><trkpt lat="40.097325541701785" lon="9.556940708213464"><ele>718.0</ele><time>2026-05-01T09:58:50Z</time></trkpt><trkpt lat="40.097343595528955" lon="9.55717725585154"><ele>718.0</ele><time>2026-05-01T09:58:51Z</time></trkpt><trkpt lat="40.097317076939426" lon="9.557416314007805"><ele>717.6666666666667</ele><time>2026-05-01T09:58:52Z</time></trkpt><trkpt lat="40.09726423904284" lon="9.557657355052037"><ele>717.3333333333334</ele><time>2026-05-01T09:58:53Z</time></trkpt><trkpt lat="40.09718043347174" lon="9.557901209617484"><ele>717.0</ele><time>2026-05-01T09:58:54Z</time></trkpt><trkpt lat="40.097107456161766" lon="9.558157205250598"><ele>716.3333333333334</ele><time>2026-05-01T09:58:55Z</time></trkpt><trkpt lat="40.097017193103035" lon="9.558393648228286"><ele>715.6666666666667</ele><time>2026-05-01T09:58:56Z</time></trkpt><trkpt lat="40.09694223433809" lon="9.55861340941256"><ele>715.0</ele><time>2026-05-01T09:58:57Z</time></trkpt><trkpt lat="40.09691767982037" lon="9.558816445916486"><ele>715.0</ele><time>2026-05-01T09:58:58Z</time></trkpt><trkpt lat="40.09695110066458" lon="9.559006014807492"><ele>715.0</ele><time>2026-05-01T09:58:59Z</time></trkpt><trkpt lat="40.09703692052885" lon="9.559177953161262"><ele>715.0</ele><time>2026-05-01T09:59:00Z</time></trkpt><trkpt lat="40.09712866399208" lon="9.559341245453165"><ele>715.0</ele><time>2026-05-01T09:59:01Z</time></trkpt><trkpt lat="40.09719886337177" lon="9.559487657083633"><ele>715.0</ele><time>2026-05-01T09:59:02Z</time></trkpt><trkpt lat="40.09725091717995" lon="9.559618580705603"><ele>715.0</ele><time>2026-05-01T09:59:03Z</time></trkpt><trkpt lat="40.0973026267496" lon="9.559752746873114"><ele>715.0</ele><time>2026-05-01T09:59:04Z</time></trkpt><trkpt lat="40.09732717333914" lon="9.55991719504071"><ele>716.5</ele><time>2026-05-01T09:59:05Z</time></trkpt><trkpt lat="40.09734904412544" lon="9.560090345187204"><ele>718.0</ele><time>2026-05-01T09:59:06Z</time></trkpt><trkpt lat="40.09729712415727" lon="9.560255128488965"><ele>719.5</ele><time>2026-05-01T09:59:07Z</time></trkpt><trkpt lat="40.09728103480642" lon="9.560402400977381"><ele>721.0</ele><time>2026-05-01T09:59:08Z</time></trkpt><trkpt lat="40.097261519094" lon="9.560535180957974"><ele>721.25</ele><time>2026-05-01T09:59:09Z</time></trkpt><trkpt lat="40.09726958222796" lon="9.560668321906872"><ele>721.5</ele><time>2026-05-01T09:59:10Z</time></trkpt><trkpt lat="40.097311558772084" lon="9.560805170064494"><ele>721.75</ele><time>2026-05-01T09:59:11Z</time></trkpt><trkpt lat="40.097390621021326" lon="9.5609297383691"><ele>722.0</ele><time>2026-05-01T09:59:12Z</time></trkpt><trkpt lat="40.0975077122828" lon="9.561012256542096"><ele>720.75</ele><time>2026-05-01T09:59:13Z</time></trkpt><trkpt lat="40.09763659194581" lon="9.561051321110066"><ele>719.5</ele><time>2026-05-01T09:59:14Z</time></trkpt><trkpt lat="40.09776932347993" lon="9.561067939845554"><ele>718.25</ele><time>2026-05-01T09:59:15Z</time></trkpt><trkpt lat="40.097891759349544" lon="9.561090135863129"><ele>717.0</ele><time>2026-05-01T09:59:16Z</time></trkpt><trkpt lat="40.097992313142015" lon="9.561115495663715"><ele>717.0</ele><time>2026-05-01T09:59:17Z</time></trkpt><trkpt lat="40.09807886674699" lon="9.561137319508864"><ele>717.0</ele><time>2026-05-01T09:59:18Z</time></trkpt><trkpt lat="40.09815399304772" lon="9.561162503624688"><ele>717.0</ele><time>2026-05-01T09:59:19Z</time></trkpt><trkpt lat="40.09823503174991" lon="9.561195512787837"><ele>717.0</ele><time>2026-05-01T09:59:20Z</time></trkpt><trkpt lat="40.09832454580535" lon="9.561260111803465"><ele>717.0</ele><time>2026-05-01T09:59:21Z</time></trkpt><trkpt lat="40.0983787711282" lon="9.561392696134755"><ele>719.25</ele><time>2026-05-01T09:59:22Z</time></trkpt><trkpt lat="40.09843702955643" lon="9.561541035779994"><ele>721.5</ele><time>2026-05-01T09:59:23Z</time></trkpt><trkpt lat="40.09847258396793" lon="9.561703749078815"><ele>723.75</ele><time>2026-05-01T09:59:24Z</time></trkpt><trkpt lat="40.09850848415775" lon="9.561839715806444"><ele>726.0</ele><time>2026-05-01T09:59:25Z</time></trkpt><trkpt lat="40.09854839257441" lon="9.561973465027682"><ele>727.0</ele><time>2026-05-01T09:59:26Z</time></trkpt><trkpt lat="40.098591218237445" lon="9.562119370353365"><ele>728.0</ele><time>2026-05-01T09:59:27Z</time></trkpt><trkpt lat="40.09862954513554" lon="9.562276696951084"><ele>729.0</ele><time>2026-05-01T09:59:28Z</time></trkpt><trkpt lat="40.098641046195105" lon="9.562445248335605"><ele>730.0</ele><time>2026-05-01T09:59:29Z</time></trkpt><trkpt lat="40.098568949841955" lon="9.562615699637904"><ele>730.0</ele><time>2026-05-01T09:59:30Z</time></trkpt><trkpt lat="40.09850706099784" lon="9.56282094076772"><ele>730.0</ele><time>2026-05-01T09:59:31Z</time></trkpt><trkpt lat="40.09841699427184" lon="9.563043788810587"><ele>730.0</ele><time>2026-05-01T09:59:32Z</time></trkpt><trkpt lat="40.098331425106565" lon="9.563291704184145"><ele>732.0</ele><time>2026-05-01T09:59:33Z</time></trkpt><trkpt lat="40.09822419659053" lon="9.563531921023849"><ele>734.0</ele><time>2026-05-01T09:59:34Z</time></trkpt><trkpt lat="40.09813701073275" lon="9.56375902354393"><ele>736.0</ele><time>2026-05-01T09:59:35Z</time></trkpt><trkpt lat="40.09807605025291" lon="9.563956514443616"><ele>736.1999999999999</ele><time>2026-05-01T09:59:36Z</time></trkpt><trkpt lat="40.09801025737545" lon="9.56412183060663"><ele>736.4</ele><time>2026-05-01T09:59:37Z</time></trkpt><trkpt lat="40.097963877191646" lon="9.564257409930065"><ele>736.6</ele><time>2026-05-01T09:59:38Z</time></trkpt><trkpt lat="40.09793541436723" lon="9.564380511878168"><ele>736.8</ele><time>2026-05-01T09:59:39Z</time></trkpt><trkpt lat="40.09793761451059" lon="9.564494202826918"><ele>737.0</ele><time>2026-05-01T09:59:40Z</time></trkpt><trkpt lat="40.09799389251672" lon="9.564599248299713"><ele>736.3333333333333</ele><time>2026-05-01T09:59:41Z</time></trkpt><trkpt lat="40.09810649772025" lon="9.564688348664681"><ele>735.6666666666666</ele><time>2026-05-01T09:59:42Z</time></trkpt><trkpt lat="40.09824242024038" lon="9.564824737498043"><ele>735.0</ele><time>2026-05-01T09:59:43Z</time></trkpt><trkpt lat="40.09840602624271" lon="9.564972642673421"><ele>735.0</ele><time>2026-05-01T09:59:44Z</time></trkpt><trkpt lat="40.098583136328976" lon="9.565117118545073"><ele>735.0</ele><time>2026-05-01T09:59:45Z</time></trkpt><trkpt lat="40.098719912797016" lon="9.565314927772805"><ele>735.0</ele><time>2026-05-01T09:59:46Z</time></trkpt><trkpt lat="40.098805963390255" lon="9.56552481007837"><ele>738.3333333333334</ele><time>2026-05-01T09:59:47Z</time></trkpt><trkpt lat="40.098888546752384" lon="9.565783881521373"><ele>741.6666666666667</ele><time>2026-05-01T09:59:48Z</time></trkpt><trkpt lat="40.098980525791305" lon="9.566047203360203"><ele>745.0</ele><time>2026-05-01T09:59:49Z</time></trkpt><trkpt lat="40.09906799029866" lon="9.566259018079531"><ele>744.3333333333334</ele><time>2026-05-01T09:59:50Z</time></trkpt><trkpt lat="40.099196310832006" lon="9.566412463359537"><ele>743.6666666666666</ele><time>2026-05-01T09:59:51Z</time></trkpt><trkpt lat="40.099371126328904" lon="9.566512067107881"><ele>743.0</ele><time>2026-05-01T09:59:52Z</time></trkpt><trkpt lat="40.09954349315587" lon="9.566614269223578"><ele>743.0</ele><time>2026-05-01T09:59:53Z</time></trkpt><trkpt lat="40.099646864385555" lon="9.566791257275055"><ele>743.0</ele><time>2026-05-01T09:59:54Z</time></trkpt><trkpt lat="40.0997350171047" lon="9.567008080821369"><ele>743.0</ele><time>2026-05-01T09:59:55Z</time></trkpt><trkpt lat="40.09980277821147" lon="9.567256289169123"><ele>745.3333333333333</ele><time>2026-05-01T09:59:56Z</time></trkpt><trkpt lat="40.09983299634279" lon="9.567484170235588"><ele>747.6666666666666</ele><time>2026-05-01T09:59:57Z</time></trkpt><trkpt lat="40.09983146644125" lon="9.567688092511196"><ele>750.0</ele><time>2026-05-01T09:59:58Z</time></trkpt><trkpt lat="40.09979457963419" lon="9.567885344256647"><ele>750.0</ele><time>2026-05-01T09:59:59Z</time></trkpt><trkpt lat="40.09969977567378" lon="9.568059538070786"><ele>750.0</ele><time>2026-05-01T10:00:00Z</time></trkpt><trkpt lat="40.099562314698446" lon="9.56820434791657"><ele>750.0</ele><time>2026-05-01T10:00:01Z</time></trkpt><trkpt lat="40.099381477967235" lon="9.568341203733892"><ele>750.0</ele><time>2026-05-01T10:00:02Z</time></trkpt><trkpt lat="40.09917575301252" lon="9.568515835040728"><ele>750.0</ele><time>2026-05-01T10:00:03Z</time></trkpt><trkpt lat="40.098940128726646" lon="9.568681507769643"><ele>753.5</ele><time>2026-05-01T10:00:04Z</time></trkpt><trkpt lat="40.09871136424133" lon="9.56885553545184"><ele>757.0</ele><time>2026-05-01T10:00:05Z</time></trkpt><trkpt lat="40.09852008744253" lon="9.569036835639745"><ele>757.0</ele><time>2026-05-01T10:00:06Z</time></trkpt><trkpt lat="40.09834551994731" lon="9.569267423179394"><ele>757.0</ele><time>2026-05-01T10:00:07Z</time></trkpt><trkpt lat="40.098188319117035" lon="9.569532303749357"><ele>762.0</ele><time>2026-05-01T10:00:08Z</time></trkpt><trkpt lat="40.098034871222396" lon="9.56981964748035"><ele>767.0</ele><time>2026-05-01T10:00:09Z</time></trkpt><trkpt lat="40.09788887147424" lon="9.570097716248284"><ele>767.0</ele><time>2026-05-01T10:00:10Z</time></trkpt><trkpt lat="40.09774933273032" lon="9.5703478492734"><ele>767.0</ele><time>2026-05-01T10:00:11Z</time></trkpt><trkpt lat="40.097656182847764" lon="9.570627984247633"><ele>762.3333333333333</ele><time>2026-05-01T10:00:12Z</time></trkpt><trkpt lat="40.09759512680029" lon="9.570921191648479"><ele>757.6666666666666</ele><time>2026-05-01T10:00:13Z</time></trkpt><trkpt lat="40.0975443023007" lon="9.571187315652395"><ele>753.0</ele><time>2026-05-01T10:00:14Z</time></trkpt><trkpt lat="40.097500358682026" lon="9.571429387413287"><ele>752.0</ele><time>2026-05-01T10:00:15Z</time></trkpt><trkpt lat="40.09747878551134" lon="9.571662458189113"><ele>751.0</ele><time>2026-05-01T10:00:16Z</time></trkpt><trkpt lat="40.0975023553547" lon="9.571881952838757"><ele>750.0</ele><time>2026-05-01T10:00:17Z</time></trkpt><trkpt lat="40.09757196135682" lon="9.572085649732934"><ele>750.0</ele><time>2026-05-01T10:00:18Z</time></trkpt><trkpt lat="40.09766547085382" lon="9.572288825066348"><ele>750.0</ele><time>2026-05-01T10:00:19Z</time></trkpt><trkpt lat="40.09772885255037" lon="9.572474935833888"><ele>750.0</ele><time>2026-05-01T10:00:20Z</time></trkpt><trkpt lat="40.09767957801403" lon="9.572710794738224"><ele>752.0</ele><time>2026-05-01T10:00:21Z</time></trkpt><trkpt lat="40.097661289515784" lon="9.572924528167507"><ele>754.0</ele><time>2026-05-01T10:00:22Z</time></trkpt><trkpt lat="40.097642371678006" lon="9.57311971010946"><ele>756.0</ele><time>2026-05-01T10:00:23Z</time></trkpt><trkpt lat="40.09760928553259" lon="9.57330014432997"><ele>756.0</ele><time>2026-05-01T10:00:24Z</time></trkpt><trkpt lat="40.09754399514682" lon="9.573450616024893"><ele>756.0</ele><time>2026-05-01T10:00:25Z</time></trkpt><trkpt lat="40.09745798400107" lon="9.573582317692326"><ele>756.0</ele><time>2026-05-01T10:00:26Z</time></trkpt><trkpt lat="40.09735361791589" lon="9.57372616016257"><ele>756.0</ele><time>2026-05-01T10:00:27Z</time></trkpt><trkpt lat="40.0972567791403" lon="9.573857980803371"><ele>753.8</ele><time>2026-05-01T10:00:28Z</time></trkpt><trkpt lat="40.09717462668249" lon="9.573979074606214"><ele>751.5999999999999</ele><time>2026-05-01T10:00:29Z</time></trkpt><trkpt lat="40.09712973403102" lon="9.574109097544307"><ele>749.4</ele><time>2026-05-01T10:00:30Z</time></trkpt><trkpt lat="40.09710973117813" lon="9.574236199456239"><ele>747.2</ele><time>2026-05-01T10:00:31Z</time></trkpt><trkpt lat="40.09714596742858" lon="9.574372486542822"><ele>745.0</ele><time>2026-05-01T10:00:32Z</time></trkpt><trkpt lat="40.09728384928694" lon="9.57446329365043"><ele>746.6666666666667</ele><time>2026-05-01T10:00:33Z</time></trkpt><trkpt lat="40.097415877526444" lon="9.574533120594177"><ele>748.3333333333334</ele><time>2026-05-01T10:00:34Z</time></trkpt><trkpt lat="40.09755902865552" lon="9.574602853005523"><ele>750.0</ele><time>2026-05-01T10:00:35Z</time></trkpt><trkpt lat="40.09772069099059" lon="9.574676752523757"><ele>750.0</ele><time>2026-05-01T10:00:36Z</time></trkpt><trkpt lat="40.097905318505035" lon="9.574745522955729"><ele>750.0</ele><time>2026-05-01T10:00:37Z</time></trkpt><trkpt lat="40.09809890260004" lon="9.574815661604012"><ele>750.0</ele><time>2026-05-01T10:00:38Z</time></trkpt><trkpt lat="40.09826991479217" lon="9.574925143585993"><ele>755.0</ele><time>2026-05-01T10:00:39Z</time></trkpt><trkpt lat="40.09843330294239" lon="9.57502489536395"><ele>760.0</ele><time>2026-05-01T10:00:40Z</time></trkpt><trkpt lat="40.09856322220638" lon="9.575104666685846"><ele>765.0</ele><time>2026-05-01T10:00:41Z</time></trkpt><trkpt lat="40.098684461191965" lon="9.575162957440439"><ele>765.0</ele><time>2026-05-01T10:00:42Z</time></trkpt><trkpt lat="40.098792970894294" lon="9.57525126505279"><ele>765.0</ele><time>2026-05-01T10:00:43Z</time></trkpt><trkpt lat="40.09887210010268" lon="9.575391619068922"><ele>765.0</ele><time>2026-05-01T10:00:44Z</time></trkpt><trkpt lat="40.09895253127378" lon="9.575517096059903"><ele>765.0</ele><time>2026-05-01T10:00:45Z</time></trkpt><trkpt lat="40.09900982143268" lon="9.575654491360085"><ele>765.75</ele><time>2026-05-01T10:00:46Z</time></trkpt><trkpt lat="40.09907798047289" lon="9.575796935485132"><ele>766.5</ele><time>2026-05-01T10:00:47Z</time></trkpt><trkpt lat="40.09915796687259" lon="9.575944227596983"><ele>767.25</ele><time>2026-05-01T10:00:48Z</time></trkpt><trkpt lat="40.09925499135459" lon="9.57607675063363"><ele>768.0</ele><time>2026-05-01T10:00:49Z</time></trkpt><trkpt lat="40.099369065412766" lon="9.576191848518386"><ele>760.0</ele><time>2026-05-01T10:00:50Z</time></trkpt><trkpt lat="40.099496005557306" lon="9.576269381019658"><ele>752.0</ele><time>2026-05-01T10:00:51Z</time></trkpt><trkpt lat="40.09963267663542" lon="9.576305667124835"><ele>744.0</ele><time>2026-05-01T10:00:52Z</time></trkpt><trkpt lat="40.099763414331136" lon="9.576298276619857"><ele>736.0</ele><time>2026-05-01T10:00:53Z</time></trkpt><trkpt lat="40.099904828164966" lon="9.576246012507022"><ele>739.3333333333334</ele><time>2026-05-01T10:00:54Z</time></trkpt><trkpt lat="40.10010029497431" lon="9.576189471429299"><ele>742.6666666666666</ele><time>2026-05-01T10:00:55Z</time></trkpt><trkpt lat="40.10030739105246" lon="9.576131864614851"><ele>746.0</ele><time>2026-05-01T10:00:56Z</time></trkpt><trkpt lat="40.1005195964434" lon="9.576101851761084"><ele>752.0</ele><time>2026-05-01T10:00:57Z</time></trkpt><trkpt lat="40.10069344087606" lon="9.576083423645525"><ele>758.0</ele><time>2026-05-01T10:00:58Z</time></trkpt><trkpt lat="40.10083273109281" lon="9.576069269120831"><ele>764.0</ele><time>2026-05-01T10:00:59Z</time></trkpt><trkpt lat="40.10092973299939" lon="9.576040226922249"><ele>770.0</ele><time>2026-05-01T10:01:00Z</time></trkpt><trkpt lat="40.101034643133396" lon="9.576037184937464"><ele>770.0</ele><time>2026-05-01T10:01:02Z</time></trkpt><trkpt lat="40.101124623015465" lon="9.576147033937303"><ele>770.0</ele><time>2026-05-01T10:01:04Z</time></trkpt><trkpt lat="40.10113956708648" lon="9.57625442476047"><ele>770.0</ele><time>2026-05-01T10:01:05Z</time></trkpt><trkpt lat="40.10107400760043" lon="9.576388732843338"><ele>770.0</ele><time>2026-05-01T10:01:06Z</time></trkpt><trkpt lat="40.101009858359205" lon="9.576539959423274"><ele>766.75</ele><time>2026-05-01T10:01:07Z</time></trkpt><trkpt lat="40.10096215628778" lon="9.576703612393205"><ele>763.5</ele><time>2026-05-01T10:01:08Z</time></trkpt><trkpt lat="40.10093132700356" lon="9.576869968879858"><ele>760.25</ele><time>2026-05-01T10:01:09Z</time></trkpt><trkpt lat="40.10093787554064" lon="9.57704988371681"><ele>757.0</ele><time>2026-05-01T10:01:10Z</time></trkpt><trkpt lat="40.10096170544177" lon="9.577225248011638"><ele>753.25</ele><time>2026-05-01T10:01:11Z</time></trkpt><trkpt lat="40.100999189571944" lon="9.577374690630078"><ele>749.5</ele><time>2026-05-01T10:01:12Z</time></trkpt><trkpt lat="40.101065966448616" lon="9.577516655561423"><ele>745.75</ele><time>2026-05-01T10:01:13Z</time></trkpt><trkpt lat="40.10116921370824" lon="9.577639908686708"><ele>742.0</ele><time>2026-05-01T10:01:14Z</time></trkpt><trkpt lat="40.101286331219384" lon="9.577736757346448"><ele>742.0</ele><time>2026-05-01T10:01:15Z</time></trkpt><trkpt lat="40.1014035934364" lon="9.577809908911167"><ele>742.0</ele><time>2026-05-01T10:01:16Z</time></trkpt><trkpt lat="40.1015231802664" lon="9.577865842170965"><ele>742.0</ele><time>2026-05-01T10:01:17Z</time></trkpt><trkpt lat="40.10163619563183" lon="9.577914135247484"><ele>742.0</ele><time>2026-05-01T10:01:18Z</time></trkpt><trkpt lat="40.10173486181425" lon="9.577981970472035"><ele>742.5</ele><time>2026-05-01T10:01:19Z</time></trkpt><trkpt lat="40.101821449468304" lon="9.578062468390506"><ele>743.0</ele><time>2026-05-01T10:01:20Z</time></trkpt><trkpt lat="40.101891327450915" lon="9.578186326871602"><ele>743.5</ele><time>2026-05-01T10:01:21Z</time></trkpt><trkpt lat="40.10192770927749" lon="9.578338573675733"><ele>744.0</ele><time>2026-05-01T10:01:22Z</time></trkpt><trkpt lat="40.101961473795335" lon="9.57850029399575"><ele>741.5</ele><time>2026-05-01T10:01:23Z</time></trkpt><trkpt lat="40.10194669003828" lon="9.578685309678788"><ele>739.0</ele><time>2026-05-01T10:01:24Z</time></trkpt><trkpt lat="40.10189415018659" lon="9.578854952464646"><ele>736.5</ele><time>2026-05-01T10:01:25Z</time></trkpt><trkpt lat="40.10185951103852" lon="9.579026486528656"><ele>734.0</ele><time>2026-05-01T10:01:26Z</time></trkpt><trkpt lat="40.10183467615212" lon="9.57919928142321"><ele>734.0</ele><time>2026-05-01T10:01:27Z</time></trkpt><trkpt lat="40.10180903262589" lon="9.579359666068878"><ele>734.0</ele><time>2026-05-01T10:01:28Z</time></trkpt><trkpt lat="40.10180889552522" lon="9.579529293089166"><ele>734.0</ele><time>2026-05-01T10:01:29Z</time></trkpt><trkpt lat="40.101837284604" lon="9.579694545886166"><ele>734.0</ele><time>2026-05-01T10:01:30Z</time></trkpt><trkpt lat="40.10188471965042" lon="9.579856633009383"><ele>732.2</ele><time>2026-05-01T10:01:31Z</time></trkpt><trkpt lat="40.10194369149285" lon="9.579998097400711"><ele>730.4000000000001</ele><time>2026-05-01T10:01:32Z</time></trkpt><trkpt lat="40.1020006167659" lon="9.580094933622409"><ele>728.6</ele><time>2026-05-01T10:01:33Z</time></trkpt><trkpt lat="40.102071122153404" lon="9.58017193536328"><ele>726.8</ele><time>2026-05-01T10:01:34Z</time></trkpt><trkpt lat="40.10213482844745" lon="9.580207148247009"><ele>725.0</ele><time>2026-05-01T10:01:35Z</time></trkpt><trkpt lat="40.1022256605747" lon="9.580194963949687"><ele>725.0</ele><time>2026-05-01T10:01:36Z</time></trkpt><trkpt lat="40.102346640046235" lon="9.580130283336647"><ele>725.0</ele><time>2026-05-01T10:01:37Z</time></trkpt><trkpt lat="40.10249376342879" lon="9.580091843971086"><ele>725.0</ele><time>2026-05-01T10:01:38Z</time></trkpt><trkpt lat="40.10265787463855" lon="9.580057086560377"><ele>725.0</ele><time>2026-05-01T10:01:39Z</time></trkpt><trkpt lat="40.10287766215876" lon="9.58003912592714"><ele>732.0</ele><time>2026-05-01T10:01:40Z</time></trkpt><trkpt lat="40.10312536739326" lon="9.579982278571736"><ele>739.0</ele><time>2026-05-01T10:01:41Z</time></trkpt><trkpt lat="40.103347172997694" lon="9.579919496177013"><ele>739.0</ele><time>2026-05-01T10:01:42Z</time></trkpt><trkpt lat="40.103560692713" lon="9.579945266775182"><ele>739.0</ele><time>2026-05-01T10:01:43Z</time></trkpt><trkpt lat="40.10375423775572" lon="9.579976341130395"><ele>739.0</ele><time>2026-05-01T10:01:44Z</time></trkpt><trkpt lat="40.103928660684744" lon="9.580042689490694"><ele>742.6666666666667</ele><time>2026-05-01T10:01:45Z</time></trkpt><trkpt lat="40.10409515419291" lon="9.580134014260615"><ele>746.3333333333334</ele><time>2026-05-01T10:01:46Z</time></trkpt><trkpt lat="40.10423667787203" lon="9.58023760621388"><ele>750.0</ele><time>2026-05-01T10:01:47Z</time></trkpt><trkpt lat="40.10430083471119" lon="9.580396513313067"><ele>743.5</ele><time>2026-05-01T10:01:48Z</time></trkpt><trkpt lat="40.10435694587272" lon="9.580558182781427"><ele>737.0</ele><time>2026-05-01T10:01:49Z</time></trkpt><trkpt lat="40.10444529544394" lon="9.580704045518248"><ele>730.5</ele><time>2026-05-01T10:01:50Z</time></trkpt><trkpt lat="40.10457937547892" lon="9.580808675984287"><ele>724.0</ele><time>2026-05-01T10:01:51Z</time></trkpt><trkpt lat="40.10476085306025" lon="9.580885979833388"><ele>730.3333333333334</ele><time>2026-05-01T10:01:52Z</time></trkpt><trkpt lat="40.10494178761437" lon="9.580936893892499"><ele>736.6666666666666</ele><time>2026-05-01T10:01:53Z</time></trkpt><trkpt lat="40.105093900453646" lon="9.58097939302143"><ele>743.0</ele><time>2026-05-01T10:01:54Z</time></trkpt><trkpt lat="40.10519596672846" lon="9.581030940038007"><ele>743.0</ele><time>2026-05-01T10:01:55Z</time></trkpt><trkpt lat="40.10525499431831" lon="9.581151048815913"><ele>743.0</ele><time>2026-05-01T10:01:56Z</time></trkpt><trkpt lat="40.10527132474424" lon="9.581272797833734"><ele>743.0</ele><time>2026-05-01T10:01:57Z</time></trkpt><trkpt lat="40.10519818116316" lon="9.581452279506365"><ele>743.0</ele><time>2026-05-01T10:01:58Z</time></trkpt><trkpt lat="40.10516408009621" lon="9.581687953379209"><ele>742.0</ele><time>2026-05-01T10:01:59Z</time></trkpt><trkpt lat="40.105110933259446" lon="9.581920145715097"><ele>741.0</ele><time>2026-05-01T10:02:00Z</time></trkpt><trkpt lat="40.10501838953078" lon="9.582087926265388"><ele>740.0</ele><time>2026-05-01T10:02:01Z</time></trkpt><trkpt lat="40.10489188092287" lon="9.582262769718964"><ele>730.6666666666666</ele><time>2026-05-01T10:02:02Z</time></trkpt><trkpt lat="40.10475437603755" lon="9.582468847617488"><ele>721.3333333333334</ele><time>2026-05-01T10:02:03Z</time></trkpt><trkpt lat="40.104636182832806" lon="9.582588869928573"><ele>712.0</ele><time>2026-05-01T10:02:04Z</time></trkpt><trkpt lat="40.10451786610993" lon="9.58253253366838"><ele>712.0</ele><time>2026-05-01T10:02:05Z</time></trkpt><trkpt lat="40.104406244678096" lon="9.58256837264108"><ele>712.0</ele><time>2026-05-01T10:02:06Z</time></trkpt><trkpt lat="40.10428359941572" lon="9.582584727368566"><ele>712.0</ele><time>2026-05-01T10:02:07Z</time></trkpt><trkpt lat="40.10413975389969" lon="9.582706147764883"><ele>712.0</ele><time>2026-05-01T10:02:08Z</time></trkpt><trkpt lat="40.10396994818886" lon="9.582930840020458"><ele>710.5</ele><time>2026-05-01T10:02:09Z</time></trkpt><trkpt lat="40.10375989780182" lon="9.58315760503543"><ele>709.0</ele><time>2026-05-01T10:02:10Z</time></trkpt><trkpt lat="40.103539349566034" lon="9.583373495980887"><ele>709.0</ele><time>2026-05-01T10:02:11Z</time></trkpt><trkpt lat="40.10333850070127" lon="9.583565968163535"><ele>709.0</ele><time>2026-05-01T10:02:12Z</time></trkpt><trkpt lat="40.10320437741417" lon="9.583689576058141"><ele>709.0</ele><time>2026-05-01T10:02:13Z</time></trkpt><trkpt lat="40.10311046803434" lon="9.583789400787115"><ele>709.75</ele><time>2026-05-01T10:02:14Z</time></trkpt><trkpt lat="40.10308252866667" lon="9.583932325254755"><ele>710.5</ele><time>2026-05-01T10:02:15Z</time></trkpt><trkpt lat="40.103104210789944" lon="9.58410946410696"><ele>711.25</ele><time>2026-05-01T10:02:16Z</time></trkpt><trkpt lat="40.10317864209568" lon="9.584295590152905"><ele>712.0</ele><time>2026-05-01T10:02:17Z</time></trkpt><trkpt lat="40.1032934374522" lon="9.584459907283591"><ele>704.3333333333334</ele><time>2026-05-01T10:02:18Z</time></trkpt><trkpt lat="40.10345215469462" lon="9.58457082839616"><ele>696.6666666666666</ele><time>2026-05-01T10:02:19Z</time></trkpt><trkpt lat="40.103638490380206" lon="9.584692711540198"><ele>689.0</ele><time>2026-05-01T10:02:20Z</time></trkpt><trkpt lat="40.103759188573996" lon="9.58485734197387"><ele>689.0</ele><time>2026-05-01T10:02:21Z</time></trkpt><trkpt lat="40.10385027233246" lon="9.5850318476427"><ele>689.0</ele><time>2026-05-01T10:02:22Z</time></trkpt><trkpt lat="40.10387986447901" lon="9.585253656708689"><ele>689.0</ele><time>2026-05-01T10:02:23Z</time></trkpt><trkpt lat="40.10391702463394" lon="9.58549563613179"><ele>685.25</ele><time>2026-05-01T10:02:24Z</time></trkpt><trkpt lat="40.103881891850996" lon="9.585687823772847"><ele>681.5</ele><time>2026-05-01T10:02:25Z</time></trkpt><trkpt lat="40.10377976414718" lon="9.585797601038895"><ele>677.75</ele><time>2026-05-01T10:02:26Z</time></trkpt><trkpt lat="40.103720830648925" lon="9.585908279572447"><ele>674.0</ele><time>2026-05-01T10:02:27Z</time></trkpt><trkpt lat="40.103668813058086" lon="9.586018844685704"><ele>674.0</ele><time>2026-05-01T10:02:28Z</time></trkpt><trkpt lat="40.10367006521623" lon="9.586148855579951"><ele>674.0</ele><time>2026-05-01T10:02:29Z</time></trkpt><trkpt lat="40.10372975688003" lon="9.586286159081133"><ele>674.0</ele><time>2026-05-01T10:02:30Z</time></trkpt><trkpt lat="40.103820437063725" lon="9.586439534208138"><ele>674.0</ele><time>2026-05-01T10:02:31Z</time></trkpt><trkpt lat="40.10386466308826" lon="9.586648006644074"><ele>673.6666666666666</ele><time>2026-05-01T10:02:32Z</time></trkpt><trkpt lat="40.103826267772796" lon="9.586866149322901"><ele>673.3333333333334</ele><time>2026-05-01T10:02:33Z</time></trkpt><trkpt lat="40.10374913653878" lon="9.587085953042235"><ele>673.0</ele><time>2026-05-01T10:02:34Z</time></trkpt><trkpt lat="40.10365853139368" lon="9.587278949059542"><ele>673.3333333333334</ele><time>2026-05-01T10:02:35Z</time></trkpt><trkpt lat="40.103608532720315" lon="9.5874599148606"><ele>673.6666666666666</ele><time>2026-05-01T10:02:36Z</time></trkpt><trkpt lat="40.10362808905439" lon="9.587653472725316"><ele>674.0</ele><time>2026-05-01T10:02:37Z</time></trkpt><trkpt lat="40.10371811792444" lon="9.587850127826181"><ele>674.0</ele><time>2026-05-01T10:02:38Z</time></trkpt><trkpt lat="40.10380755910169" lon="9.588031406183363"><ele>674.0</ele><time>2026-05-01T10:02:39Z</time></trkpt><trkpt lat="40.10381623370715" lon="9.588204704016293"><ele>674.0</ele><time>2026-05-01T10:02:40Z</time></trkpt><trkpt lat="40.10371721894861" lon="9.58837199601107"><ele>674.0</ele><time>2026-05-01T10:02:41Z</time></trkpt><trkpt lat="40.10366024402402" lon="9.588587216779112"><ele>674.0</ele><time>2026-05-01T10:02:42Z</time></trkpt><trkpt lat="40.1036209762635" lon="9.588825908129623"><ele>674.0</ele><time>2026-05-01T10:02:43Z</time></trkpt><trkpt lat="40.10366493061676" lon="9.589059322322305"><ele>676.3333333333333</ele><time>2026-05-01T10:02:44Z</time></trkpt><trkpt lat="40.103670554849465" lon="9.58925884725552"><ele>678.6666666666666</ele><time>2026-05-01T10:02:45Z</time></trkpt><trkpt lat="40.103599870842174" lon="9.589449308401758"><ele>681.0</ele><time>2026-05-01T10:02:46Z</time></trkpt><trkpt lat="40.10348021682726" lon="9.589657318489392"><ele>691.0</ele><time>2026-05-01T10:02:47Z</time></trkpt><trkpt lat="40.10333212703743" lon="9.589890936326608"><ele>701.0</ele><time>2026-05-01T10:02:48Z</time></trkpt><trkpt lat="40.10317188309659" lon="9.59014674387356"><ele>692.5</ele><time>2026-05-01T10:02:49Z</time></trkpt><trkpt lat="40.10302376186207" lon="9.590402771243195"><ele>684.0</ele><time>2026-05-01T10:02:50Z</time></trkpt><trkpt lat="40.102885889477875" lon="9.590634123260466"><ele>684.0</ele><time>2026-05-01T10:02:51Z</time></trkpt><trkpt lat="40.10274925381409" lon="9.590840145120678"><ele>684.0</ele><time>2026-05-01T10:02:52Z</time></trkpt><trkpt lat="40.10260939601831" lon="9.591022555631723"><ele>684.0</ele><time>2026-05-01T10:02:53Z</time></trkpt><trkpt lat="40.10247804841161" lon="9.591189960201467"><ele>680.0</ele><time>2026-05-01T10:02:54Z</time></trkpt><trkpt lat="40.10237843434257" lon="9.591383719925174"><ele>676.0</ele><time>2026-05-01T10:02:55Z</time></trkpt><trkpt lat="40.102312626104435" lon="9.591593326551374"><ele>672.0</ele><time>2026-05-01T10:02:56Z</time></trkpt><trkpt lat="40.10220679976311" lon="9.591727277746143"><ele>672.0</ele><time>2026-05-01T10:02:57Z</time></trkpt><trkpt lat="40.102057803628846" lon="9.591826946446096"><ele>672.0</ele><time>2026-05-01T10:02:58Z</time></trkpt><trkpt lat="40.10189353659487" lon="9.591944295534013"><ele>672.0</ele><time>2026-05-01T10:02:59Z</time></trkpt><trkpt lat="40.1017559267484" lon="9.592121757179127"><ele>669.0</ele><time>2026-05-01T10:03:00Z</time></trkpt><trkpt lat="40.10162091758653" lon="9.59233458614508"><ele>666.0</ele><time>2026-05-01T10:03:01Z</time></trkpt><trkpt lat="40.10149611917727" lon="9.59253335760161"><ele>663.0</ele><time>2026-05-01T10:03:02Z</time></trkpt><trkpt lat="40.10137845513278" lon="9.592724793279345"><ele>673.0</ele><time>2026-05-01T10:03:03Z</time></trkpt><trkpt lat="40.101261980495494" lon="9.592913840926903"><ele>683.0</ele><time>2026-05-01T10:03:04Z</time></trkpt><trkpt lat="40.1011606706297" lon="9.593086945089299"><ele>693.0</ele><time>2026-05-01T10:03:05Z</time></trkpt><trkpt lat="40.10105466326573" lon="9.593248043495265"><ele>693.0</ele><time>2026-05-01T10:03:06Z</time></trkpt><trkpt lat="40.100955989496185" lon="9.59339368120843"><ele>693.0</ele><time>2026-05-01T10:03:07Z</time></trkpt><trkpt lat="40.10083763511822" lon="9.593528154605181"><ele>693.0</ele><time>2026-05-01T10:03:08Z</time></trkpt><trkpt lat="40.100705162045855" lon="9.593670726438498"><ele>693.3333333333334</ele><time>2026-05-01T10:03:09Z</time></trkpt><trkpt lat="40.10056870053676" lon="9.593811160838849"><ele>693.6666666666667</ele><time>2026-05-01T10:03:10Z</time></trkpt><trkpt lat="40.10040550601679" lon="9.593910285023473"><ele>694.0</ele><time>2026-05-01T10:03:11Z</time></trkpt><trkpt lat="40.10023638775077" lon="9.593988716121725"><ele>694.0</ele><time>2026-05-01T10:03:12Z</time></trkpt><trkpt lat="40.10006746113835" lon="9.594071256890937"><ele>694.0</ele><time>2026-05-01T10:03:13Z</time></trkpt><trkpt lat="40.09990221022944" lon="9.594192138563717"><ele>694.0</ele><time>2026-05-01T10:03:14Z</time></trkpt><trkpt lat="40.09973746189237" lon="9.594303110847926"><ele>698.0</ele><time>2026-05-01T10:03:15Z</time></trkpt><trkpt lat="40.099572238124225" lon="9.594414403257403"><ele>702.0</ele><time>2026-05-01T10:03:16Z</time></trkpt><trkpt lat="40.09941396038435" lon="9.59452140361148"><ele>706.0</ele><time>2026-05-01T10:03:17Z</time></trkpt><trkpt lat="40.09925972648066" lon="9.594623520976894"><ele>706.0</ele><time>2026-05-01T10:03:18Z</time></trkpt><trkpt lat="40.09910649231983" lon="9.594725734303442"><ele>706.0</ele><time>2026-05-01T10:03:19Z</time></trkpt><trkpt lat="40.09896566729894" lon="9.59484033437765"><ele>706.0</ele><time>2026-05-01T10:03:20Z</time></trkpt><trkpt lat="40.098833362080256" lon="9.594981570594566"><ele>700.6666666666667</ele><time>2026-05-01T10:03:21Z</time></trkpt><trkpt lat="40.09870203395981" lon="9.595157445028034"><ele>695.3333333333334</ele><time>2026-05-01T10:03:22Z</time></trkpt><trkpt lat="40.09860781592316" lon="9.595324114730085"><ele>690.0</ele><time>2026-05-01T10:03:23Z</time></trkpt><trkpt lat="40.09848205924661" lon="9.59559259853778"><ele>690.0</ele><time>2026-05-01T10:03:24Z</time></trkpt><trkpt lat="40.09837898716733" lon="9.595894598003058"><ele>690.0</ele><time>2026-05-01T10:03:25Z</time></trkpt><trkpt lat="40.09829238283585" lon="9.596121640293596"><ele>690.0</ele><time>2026-05-01T10:03:26Z</time></trkpt><trkpt lat="40.09822998309673" lon="9.59630192819217"><ele>693.75</ele><time>2026-05-01T10:03:27Z</time></trkpt><trkpt lat="40.09817287810699" lon="9.596361085703668"><ele>697.5</ele><time>2026-05-01T10:03:28Z</time></trkpt><trkpt lat="40.09803651059663" lon="9.596422073980683"><ele>701.25</ele><time>2026-05-01T10:03:29Z</time></trkpt><trkpt lat="40.09787911938746" lon="9.596425213158257"><ele>705.0</ele><time>2026-05-01T10:03:30Z</time></trkpt><trkpt lat="40.097708809780265" lon="9.596446038910319"><ele>705.0</ele><time>2026-05-01T10:03:31Z</time></trkpt><trkpt lat="40.09751846832752" lon="9.5964370677127"><ele>705.0</ele><time>2026-05-01T10:03:32Z</time></trkpt><trkpt lat="40.09731110190826" lon="9.596420993155538"><ele>705.0</ele><time>2026-05-01T10:03:33Z</time></trkpt><trkpt lat="40.0970973702383" lon="9.596418701806002"><ele>706.3333333333334</ele><time>2026-05-01T10:03:34Z</time></trkpt><trkpt lat="40.096875548481215" lon="9.596416224706822"><ele>707.6666666666667</ele><time>2026-05-01T10:03:35Z</time></trkpt><trkpt lat="40.09664794714462" lon="9.596413511128075"><ele>709.0</ele><time>2026-05-01T10:03:36Z</time></trkpt><trkpt lat="40.096416272924536" lon="9.5964132062601"><ele>709.6666666666667</ele><time>2026-05-01T10:03:37Z</time></trkpt><trkpt lat="40.09619374414921" lon="9.596404786749211"><ele>710.3333333333334</ele><time>2026-05-01T10:03:38Z</time></trkpt><trkpt lat="40.09599293808839" lon="9.596380189613791"><ele>711.0</ele><time>2026-05-01T10:03:39Z</time></trkpt><trkpt lat="40.095784024271154" lon="9.59633259144555"><ele>710.6666666666666</ele><time>2026-05-01T10:03:40Z</time></trkpt><trkpt lat="40.0955871944676" lon="9.596303861306687"><ele>710.3333333333333</ele><time>2026-05-01T10:03:41Z</time></trkpt><trkpt lat="40.09537470086628" lon="9.596305718036671"><ele>710.0</ele><time>2026-05-01T10:03:42Z</time></trkpt><trkpt lat="40.09516564011028" lon="9.5963401512536"><ele>710.0</ele><time>2026-05-01T10:03:43Z</time></trkpt><trkpt lat="40.094951549385115" lon="9.59640194581158"><ele>710.0</ele><time>2026-05-01T10:03:44Z</time></trkpt><trkpt lat="40.094739647338606" lon="9.596464468917384"><ele>710.0</ele><time>2026-05-01T10:03:45Z</time></trkpt><trkpt lat="40.09454200369573" lon="9.596521821789327"><ele>704.0</ele><time>2026-05-01T10:03:46Z</time></trkpt><trkpt lat="40.094354537571995" lon="9.596569921574355"><ele>698.0</ele><time>2026-05-01T10:03:47Z</time></trkpt><trkpt lat="40.094175321247704" lon="9.596584440966554"><ele>692.0</ele><time>2026-05-01T10:03:48Z</time></trkpt><trkpt lat="40.09399311675216" lon="9.59660764535577"><ele>681.3333333333333</ele><time>2026-05-01T10:03:49Z</time></trkpt><trkpt lat="40.093838584973454" lon="9.596714148461691"><ele>670.6666666666666</ele><time>2026-05-01T10:03:50Z</time></trkpt><trkpt lat="40.09368865845076" lon="9.59683389278741"><ele>660.0</ele><time>2026-05-01T10:03:51Z</time></trkpt><trkpt lat="40.093570594908876" lon="9.596960849851403"><ele>660.6666666666666</ele><time>2026-05-01T10:03:52Z</time></trkpt><trkpt lat="40.09343967534064" lon="9.59712039011055"><ele>661.3333333333333</ele><time>2026-05-01T10:03:53Z</time></trkpt><trkpt lat="40.09331150641993" lon="9.597278009062391"><ele>662.0</ele><time>2026-05-01T10:03:54Z</time></trkpt><trkpt lat="40.09319759323414" lon="9.597417700001595"><ele>662.0</ele><time>2026-05-01T10:03:55Z</time></trkpt><trkpt lat="40.093061825709036" lon="9.597588304960073"><ele>662.0</ele><time>2026-05-01T10:03:56Z</time></trkpt><trkpt lat="40.09290265293712" lon="9.597759595560884"><ele>662.0</ele><time>2026-05-01T10:03:57Z</time></trkpt><trkpt lat="40.092729113687184" lon="9.597902418035986"><ele>665.0</ele><time>2026-05-01T10:03:58Z</time></trkpt><trkpt lat="40.09254094112212" lon="9.598035733859303"><ele>668.0</ele><time>2026-05-01T10:03:59Z</time></trkpt><trkpt lat="40.09234080029476" lon="9.598168359647152"><ele>671.0</ele><time>2026-05-01T10:04:00Z</time></trkpt><trkpt lat="40.09215173344997" lon="9.598293647119766"><ele>671.0</ele><time>2026-05-01T10:04:01Z</time></trkpt><trkpt lat="40.091953129638775" lon="9.598425657573546"><ele>671.0</ele><time>2026-05-01T10:04:02Z</time></trkpt><trkpt lat="40.09177480364272" lon="9.59854456490356"><ele>671.0</ele><time>2026-05-01T10:04:03Z</time></trkpt><trkpt lat="40.09159388783042" lon="9.598665199177292"><ele>678.6666666666666</ele><time>2026-05-01T10:04:04Z</time></trkpt><trkpt lat="40.09141203292531" lon="9.59878769233465"><ele>686.3333333333334</ele><time>2026-05-01T10:04:05Z</time></trkpt><trkpt lat="40.091223483777846" lon="9.598912642866855"><ele>694.0</ele><time>2026-05-01T10:04:06Z</time></trkpt><trkpt lat="40.091030110701496" lon="9.599015952227424"><ele>694.0</ele><time>2026-05-01T10:04:07Z</time></trkpt><trkpt lat="40.090815244580305" lon="9.599080193072194"><ele>694.0</ele><time>2026-05-01T10:04:08Z</time></trkpt><trkpt lat="40.09061310014011" lon="9.599117325463608"><ele>694.0</ele><time>2026-05-01T10:04:09Z</time></trkpt><trkpt lat="40.09042998774571" lon="9.599176845666909"><ele>687.3333333333334</ele><time>2026-05-01T10:04:10Z</time></trkpt><trkpt lat="40.090252159384775" lon="9.599274538878959"><ele>680.6666666666666</ele><time>2026-05-01T10:04:11Z</time></trkpt><trkpt lat="40.09007471581803" lon="9.599399468055491"><ele>674.0</ele><time>2026-05-01T10:04:12Z</time></trkpt><trkpt lat="40.08992160238385" lon="9.599596729633147"><ele>671.6666666666666</ele><time>2026-05-01T10:04:13Z</time></trkpt><trkpt lat="40.08977092915088" lon="9.59983215908112"><ele>669.3333333333334</ele><time>2026-05-01T10:04:14Z</time></trkpt><trkpt lat="40.08962594027764" lon="9.600032218407575"><ele>667.0</ele><time>2026-05-01T10:04:15Z</time></trkpt><trkpt lat="40.089467599519146" lon="9.60022097673327"><ele>682.0</ele><time>2026-05-01T10:04:16Z</time></trkpt><trkpt lat="40.08929535729952" lon="9.60044699072525"><ele>697.0</ele><time>2026-05-01T10:04:17Z</time></trkpt><trkpt lat="40.08910191327339" lon="9.600619593514569"><ele>682.0</ele><time>2026-05-01T10:04:18Z</time></trkpt><trkpt lat="40.088906784183145" lon="9.60079203491813"><ele>667.0</ele><time>2026-05-01T10:04:19Z</time></trkpt><trkpt lat="40.088714883987585" lon="9.600975566019542"><ele>681.0</ele><time>2026-05-01T10:04:20Z</time></trkpt><trkpt lat="40.088507277180476" lon="9.601197300354755"><ele>695.0</ele><time>2026-05-01T10:04:21Z</time></trkpt><trkpt lat="40.08829256224037" lon="9.601418444066805"><ele>677.5</ele><time>2026-05-01T10:04:22Z</time></trkpt><trkpt lat="40.08807138324106" lon="9.601613277978654"><ele>660.0</ele><time>2026-05-01T10:04:23Z</time></trkpt><trkpt lat="40.087871553788304" lon="9.601757050336762"><ele>660.0</ele><time>2026-05-01T10:04:24Z</time></trkpt><trkpt lat="40.087671907902504" lon="9.601963908658186"><ele>660.0</ele><time>2026-05-01T10:04:25Z</time></trkpt><trkpt lat="40.087471232800105" lon="9.602160946406494"><ele>661.0</ele><time>2026-05-01T10:04:26Z</time></trkpt><trkpt lat="40.08726129323428" lon="9.60234614743734"><ele>662.0</ele><time>2026-05-01T10:04:27Z</time></trkpt><trkpt lat="40.08709562231932" lon="9.602433698581589"><ele>663.0</ele><time>2026-05-01T10:04:28Z</time></trkpt><trkpt lat="40.086993004591875" lon="9.602547417298661"><ele>663.0</ele><time>2026-05-01T10:04:29Z</time></trkpt><trkpt lat="40.086839595757866" lon="9.60268523343238"><ele>663.0</ele><time>2026-05-01T10:04:30Z</time></trkpt><trkpt lat="40.086704285791036" lon="9.602778011446475"><ele>663.0</ele><time>2026-05-01T10:04:31Z</time></trkpt><trkpt lat="40.08658983780542" lon="9.602854210001164"><ele>662.2</ele><time>2026-05-01T10:04:32Z</time></trkpt><trkpt lat="40.086497513316246" lon="9.602904397330688"><ele>661.4</ele><time>2026-05-01T10:04:33Z</time></trkpt><trkpt lat="40.086424844036294" lon="9.602935640351728"><ele>660.6</ele><time>2026-05-01T10:04:34Z</time></trkpt><trkpt lat="40.08635822940333" lon="9.602902447372612"><ele>659.8000000000001</ele><time>2026-05-01T10:04:35Z</time></trkpt><trkpt lat="40.086254123555136" lon="9.602780705363173"><ele>659.0</ele><time>2026-05-01T10:04:36Z</time></trkpt><trkpt lat="40.08612450845706" lon="9.60269247307189"><ele>659.0</ele><time>2026-05-01T10:04:37Z</time></trkpt><trkpt lat="40.08599664420349" lon="9.602661636605728"><ele>659.0</ele><time>2026-05-01T10:04:38Z</time></trkpt><trkpt lat="40.0858730999011" lon="9.602706623807215"><ele>659.0</ele><time>2026-05-01T10:04:39Z</time></trkpt><trkpt lat="40.08574034356875" lon="9.602799269452008"><ele>659.0</ele><time>2026-05-01T10:04:40Z</time></trkpt><trkpt lat="40.08557951500402" lon="9.602882532255906"><ele>671.0</ele><time>2026-05-01T10:04:41Z</time></trkpt><trkpt lat="40.085413891627404" lon="9.602943289215222"><ele>683.0</ele><time>2026-05-01T10:04:42Z</time></trkpt><trkpt lat="40.08525844984318" lon="9.602950251676164"><ele>695.0</ele><time>2026-05-01T10:04:43Z</time></trkpt><trkpt lat="40.085114318898114" lon="9.60288712963813"><ele>688.0</ele><time>2026-05-01T10:04:44Z</time></trkpt><trkpt lat="40.0849534569784" lon="9.602790511779917"><ele>681.0</ele><time>2026-05-01T10:04:45Z</time></trkpt><trkpt lat="40.08479147974457" lon="9.602696769912368"><ele>674.0</ele><time>2026-05-01T10:04:46Z</time></trkpt><trkpt lat="40.08464661974464" lon="9.60261559959981"><ele>674.0</ele><time>2026-05-01T10:04:47Z</time></trkpt><trkpt lat="40.084508462979436" lon="9.602541998334448"><ele>674.0</ele><time>2026-05-01T10:04:48Z</time></trkpt><trkpt lat="40.08437104744151" lon="9.602485490497099"><ele>674.0</ele><time>2026-05-01T10:04:49Z</time></trkpt><trkpt lat="40.08424340252259" lon="9.602432956498204"><ele>674.0</ele><time>2026-05-01T10:04:50Z</time></trkpt><trkpt lat="40.08412998043303" lon="9.602355617281711"><ele>671.0</ele><time>2026-05-01T10:04:51Z</time></trkpt><trkpt lat="40.08403335504648" lon="9.602187297443841"><ele>668.0</ele><time>2026-05-01T10:04:52Z</time></trkpt><trkpt lat="40.08394358642177" lon="9.601978810186651"><ele>665.0</ele><time>2026-05-01T10:04:53Z</time></trkpt><trkpt lat="40.08387096760484" lon="9.60178397829216"><ele>662.5</ele><time>2026-05-01T10:04:54Z</time></trkpt><trkpt lat="40.083761685427014" lon="9.601647690260444"><ele>660.0</ele><time>2026-05-01T10:04:55Z</time></trkpt><trkpt lat="40.08363748812791" lon="9.601568974853702"><ele>657.5</ele><time>2026-05-01T10:04:56Z</time></trkpt><trkpt lat="40.08352816975356" lon="9.601544183826169"><ele>655.0</ele><time>2026-05-01T10:04:57Z</time></trkpt><trkpt lat="40.08345742122792" lon="9.601574972781416"><ele>655.0</ele><time>2026-05-01T10:04:58Z</time></trkpt><trkpt lat="40.083397223793256" lon="9.601605109263343"><ele>655.0</ele><time>2026-05-01T10:04:59Z</time></trkpt><trkpt lat="40.083174276852525" lon="9.601828900740374"><ele>655.0</ele><time>2026-05-01T10:05:00Z</time></trkpt><trkpt lat="40.08303054105211" lon="9.601940178313745"><ele>656.0</ele><time>2026-05-01T10:05:01Z</time></trkpt><trkpt lat="40.08290709944829" lon="9.601922545124385"><ele>657.0</ele><time>2026-05-01T10:05:02Z</time></trkpt><trkpt lat="40.08274419683463" lon="9.601877012348814"><ele>658.0</ele><time>2026-05-01T10:05:03Z</time></trkpt><trkpt lat="40.08255112642117" lon="9.60182588679448"><ele>662.3333333333334</ele><time>2026-05-01T10:05:04Z</time></trkpt><trkpt lat="40.082324124532924" lon="9.601823415805114"><ele>666.6666666666666</ele><time>2026-05-01T10:05:05Z</time></trkpt><trkpt lat="40.082119657107214" lon="9.60188087806379"><ele>671.0</ele><time>2026-05-01T10:05:06Z</time></trkpt><trkpt lat="40.0819127778771" lon="9.60197749332255"><ele>668.6666666666666</ele><time>2026-05-01T10:05:07Z</time></trkpt><trkpt lat="40.08173511520398" lon="9.602110640884646"><ele>666.3333333333334</ele><time>2026-05-01T10:05:08Z</time></trkpt><trkpt lat="40.081593801167486" lon="9.602220308197305"><ele>664.0</ele><time>2026-05-01T10:05:09Z</time></trkpt><trkpt lat="40.081466146403905" lon="9.602228358653763"><ele>664.0</ele><time>2026-05-01T10:05:10Z</time></trkpt><trkpt lat="40.081387081542104" lon="9.602126189883888"><ele>664.0</ele><time>2026-05-01T10:05:11Z</time></trkpt><trkpt lat="40.0812592232294" lon="9.602043050026959"><ele>664.0</ele><time>2026-05-01T10:05:12Z</time></trkpt><trkpt lat="40.081110840203245" lon="9.60201353819377"><ele>664.0</ele><time>2026-05-01T10:05:13Z</time></trkpt><trkpt lat="40.080977782179886" lon="9.602009133183884"><ele>664.0</ele><time>2026-05-01T10:05:14Z</time></trkpt><trkpt lat="40.08081566914747" lon="9.602106835792673"><ele>664.0</ele><time>2026-05-01T10:05:15Z</time></trkpt><trkpt lat="40.080623791303076" lon="9.602202649504754"><ele>664.0</ele><time>2026-05-01T10:05:16Z</time></trkpt><trkpt lat="40.08045014426755" lon="9.602242527134752"><ele>667.6666666666667</ele><time>2026-05-01T10:05:17Z</time></trkpt><trkpt lat="40.08026318666858" lon="9.602165492821413"><ele>671.3333333333334</ele><time>2026-05-01T10:05:18Z</time></trkpt><trkpt lat="40.08005470901153" lon="9.602150623530454"><ele>675.0</ele><time>2026-05-01T10:05:19Z</time></trkpt><trkpt lat="40.07984729562319" lon="9.602129172938255"><ele>678.3333333333334</ele><time>2026-05-01T10:05:20Z</time></trkpt><trkpt lat="40.07962151819685" lon="9.602164102098625"><ele>681.6666666666667</ele><time>2026-05-01T10:05:21Z</time></trkpt><trkpt lat="40.0794140389369" lon="9.602250855903444"><ele>685.0</ele><time>2026-05-01T10:05:22Z</time></trkpt><trkpt lat="40.07923448776624" lon="9.602330077427528"><ele>690.6666666666667</ele><time>2026-05-01T10:05:23Z</time></trkpt><trkpt lat="40.079068042464655" lon="9.602412526680437"><ele>696.3333333333334</ele><time>2026-05-01T10:05:24Z</time></trkpt><trkpt lat="40.07890097061439" lon="9.60249693624899"><ele>702.0</ele><time>2026-05-01T10:05:25Z</time></trkpt><trkpt lat="40.07873860081767" lon="9.602583086743959"><ele>702.0</ele><time>2026-05-01T10:05:26Z</time></trkpt><trkpt lat="40.07862930644227" lon="9.602776420876715"><ele>702.0</ele><time>2026-05-01T10:05:27Z</time></trkpt><trkpt lat="40.07852977403184" lon="9.602975571051122"><ele>702.0</ele><time>2026-05-01T10:05:28Z</time></trkpt><trkpt lat="40.07845721847212" lon="9.603211370887387"><ele>699.3333333333334</ele><time>2026-05-01T10:05:29Z</time></trkpt><trkpt lat="40.07840153268425" lon="9.603454394590662"><ele>696.6666666666667</ele><time>2026-05-01T10:05:30Z</time></trkpt><trkpt lat="40.07833776500613" lon="9.603684771614343"><ele>694.0</ele><time>2026-05-01T10:05:31Z</time></trkpt><trkpt lat="40.07827649198208" lon="9.603904111687973"><ele>700.0</ele><time>2026-05-01T10:05:32Z</time></trkpt><trkpt lat="40.07822387946396" lon="9.604122722777424"><ele>706.0</ele><time>2026-05-01T10:05:33Z</time></trkpt><trkpt lat="40.07819457553288" lon="9.604344488335549"><ele>712.0</ele><time>2026-05-01T10:05:34Z</time></trkpt><trkpt lat="40.078162446615465" lon="9.60454440776775"><ele>712.8</ele><time>2026-05-01T10:05:35Z</time></trkpt><trkpt lat="40.07810489902293" lon="9.604676667295035"><ele>713.6</ele><time>2026-05-01T10:05:36Z</time></trkpt><trkpt lat="40.07804094478993" lon="9.604733485366705"><ele>714.4</ele><time>2026-05-01T10:05:37Z</time></trkpt><trkpt lat="40.07794901189327" lon="9.604725813783082"><ele>715.1999999999999</ele><time>2026-05-01T10:05:38Z</time></trkpt><trkpt lat="40.07785817288414" lon="9.604679639485777"><ele>716.0</ele><time>2026-05-01T10:05:39Z</time></trkpt><trkpt lat="40.07779503763599" lon="9.604573331223877"><ele>715.0</ele><time>2026-05-01T10:05:40Z</time></trkpt><trkpt lat="40.0777730475392" lon="9.604427596511561"><ele>714.0</ele><time>2026-05-01T10:05:41Z</time></trkpt><trkpt lat="40.07783578337787" lon="9.6042515848369"><ele>713.0</ele><time>2026-05-01T10:05:42Z</time></trkpt><trkpt lat="40.07791817104354" lon="9.604074263764373"><ele>712.0</ele><time>2026-05-01T10:05:43Z</time></trkpt><trkpt lat="40.07800019509545" lon="9.60389441974256"><ele>712.0</ele><time>2026-05-01T10:05:44Z</time></trkpt><trkpt lat="40.07805450651822" lon="9.603720709167286"><ele>712.0</ele><time>2026-05-01T10:05:45Z</time></trkpt><trkpt lat="40.07805159258938" lon="9.603533074569262"><ele>712.0</ele><time>2026-05-01T10:05:46Z</time></trkpt><trkpt lat="40.07798261691091" lon="9.60333686019197"><ele>712.0</ele><time>2026-05-01T10:05:47Z</time></trkpt><trkpt lat="40.07789683259413" lon="9.603108483376495"><ele>712.0</ele><time>2026-05-01T10:05:48Z</time></trkpt><trkpt lat="40.07782362206525" lon="9.602890386406772"><ele>712.0</ele><time>2026-05-01T10:05:49Z</time></trkpt><trkpt lat="40.0777695986453" lon="9.602695478837791"><ele>712.0</ele><time>2026-05-01T10:05:50Z</time></trkpt><trkpt lat="40.07772280164508" lon="9.602530594374514"><ele>712.0</ele><time>2026-05-01T10:05:51Z</time></trkpt><trkpt lat="40.07766124778733" lon="9.602396076045881"><ele>712.0</ele><time>2026-05-01T10:05:52Z</time></trkpt><trkpt lat="40.07755024915265" lon="9.602311127280926"><ele>712.0</ele><time>2026-05-01T10:05:53Z</time></trkpt><trkpt lat="40.077418557440716" lon="9.602306375973054"><ele>710.25</ele><time>2026-05-01T10:05:54Z</time></trkpt><trkpt lat="40.07729083962929" lon="9.602373457686788"><ele>708.5</ele><time>2026-05-01T10:05:55Z</time></trkpt><trkpt lat="40.07719646406431" lon="9.602510611816971"><ele>706.75</ele><time>2026-05-01T10:05:56Z</time></trkpt><trkpt lat="40.07712972167743" lon="9.602708302579588"><ele>705.0</ele><time>2026-05-01T10:05:57Z</time></trkpt><trkpt lat="40.07708692376999" lon="9.602962731373959"><ele>705.0</ele><time>2026-05-01T10:05:58Z</time></trkpt><trkpt lat="40.07705375769316" lon="9.603190518056993"><ele>705.0</ele><time>2026-05-01T10:05:59Z</time></trkpt><trkpt lat="40.076988486143826" lon="9.603387494254891"><ele>705.0</ele><time>2026-05-01T10:06:00Z</time></trkpt><trkpt lat="40.07684898413088" lon="9.603546329094936"><ele>706.0</ele><time>2026-05-01T10:06:01Z</time></trkpt><trkpt lat="40.076676936290326" lon="9.603675444469705"><ele>707.0</ele><time>2026-05-01T10:06:02Z</time></trkpt><trkpt lat="40.076482388869785" lon="9.603806871208057"><ele>708.0</ele><time>2026-05-01T10:06:03Z</time></trkpt><trkpt lat="40.07628493717113" lon="9.603945740716794"><ele>708.0</ele><time>2026-05-01T10:06:04Z</time></trkpt><trkpt lat="40.07608562060384" lon="9.604094413124756"><ele>708.0</ele><time>2026-05-01T10:06:05Z</time></trkpt><trkpt lat="40.07592197960899" lon="9.604268418092659"><ele>708.0</ele><time>2026-05-01T10:06:06Z</time></trkpt><trkpt lat="40.07577386461781" lon="9.604458036197798"><ele>709.6666666666666</ele><time>2026-05-01T10:06:07Z</time></trkpt><trkpt lat="40.07562417474031" lon="9.604615589270674"><ele>711.3333333333333</ele><time>2026-05-01T10:06:08Z</time></trkpt><trkpt lat="40.075436658447614" lon="9.604720007787071"><ele>713.0</ele><time>2026-05-01T10:06:09Z</time></trkpt><trkpt lat="40.07522546855888" lon="9.604806116796473"><ele>713.0</ele><time>2026-05-01T10:06:10Z</time></trkpt><trkpt lat="40.07503738568297" lon="9.60490117069046"><ele>713.0</ele><time>2026-05-01T10:06:11Z</time></trkpt><trkpt lat="40.07487202880368" lon="9.60502117719565"><ele>713.0</ele><time>2026-05-01T10:06:12Z</time></trkpt><trkpt lat="40.07474582283298" lon="9.605201089759227"><ele>710.6666666666666</ele><time>2026-05-01T10:06:13Z</time></trkpt><trkpt lat="40.07462994264841" lon="9.6054252824947"><ele>708.3333333333334</ele><time>2026-05-01T10:06:14Z</time></trkpt><trkpt lat="40.07449650635716" lon="9.605645732700255"><ele>706.0</ele><time>2026-05-01T10:06:15Z</time></trkpt><trkpt lat="40.07435500598899" lon="9.60584650184878"><ele>706.0</ele><time>2026-05-01T10:06:16Z</time></trkpt><trkpt lat="40.074237397664575" lon="9.60603997914647"><ele>706.0</ele><time>2026-05-01T10:06:17Z</time></trkpt><trkpt lat="40.07414616085939" lon="9.606235911737535"><ele>706.0</ele><time>2026-05-01T10:06:18Z</time></trkpt><trkpt lat="40.07408771656579" lon="9.606459728778402"><ele>702.0</ele><time>2026-05-01T10:06:19Z</time></trkpt><trkpt lat="40.074066059186684" lon="9.606726200215318"><ele>698.0</ele><time>2026-05-01T10:06:20Z</time></trkpt><trkpt lat="40.074060079229305" lon="9.60701140575889"><ele>694.0</ele><time>2026-05-01T10:06:21Z</time></trkpt><trkpt lat="40.07401544558725" lon="9.607277559805217"><ele>694.0</ele><time>2026-05-01T10:06:22Z</time></trkpt><trkpt lat="40.07397174882016" lon="9.60750337408508"><ele>694.0</ele><time>2026-05-01T10:06:23Z</time></trkpt><trkpt lat="40.0739159109307" lon="9.60768886820666"><ele>694.0</ele><time>2026-05-01T10:06:24Z</time></trkpt><trkpt lat="40.07379792905305" lon="9.60783613098424"><ele>699.6666666666667</ele><time>2026-05-01T10:06:25Z</time></trkpt><trkpt lat="40.073668759620205" lon="9.608015057800806"><ele>705.3333333333334</ele><time>2026-05-01T10:06:26Z</time></trkpt><trkpt lat="40.07351193281057" lon="9.608160086723935"><ele>711.0</ele><time>2026-05-01T10:06:27Z</time></trkpt><trkpt lat="40.07336392616847" lon="9.608304271342089"><ele>710.0</ele><time>2026-05-01T10:06:28Z</time></trkpt><trkpt lat="40.07323005411733" lon="9.60843024790222"><ele>709.0</ele><time>2026-05-01T10:06:29Z</time></trkpt><trkpt lat="40.073124481074885" lon="9.60860844668586"><ele>708.0</ele><time>2026-05-01T10:06:30Z</time></trkpt><trkpt lat="40.07309187125084" lon="9.608809041525033"><ele>708.0</ele><time>2026-05-01T10:06:31Z</time></trkpt><trkpt lat="40.073113145670845" lon="9.609027787884637"><ele>708.0</ele><time>2026-05-01T10:06:32Z</time></trkpt><trkpt lat="40.073069091344266" lon="9.609209929358068"><ele>708.0</ele><time>2026-05-01T10:06:33Z</time></trkpt><trkpt lat="40.07297832210588" lon="9.60937087678823"><ele>708.0</ele><time>2026-05-01T10:06:34Z</time></trkpt><trkpt lat="40.072863928577625" lon="9.609488001742799"><ele>708.0</ele><time>2026-05-01T10:06:35Z</time></trkpt><trkpt lat="40.07272798375594" lon="9.609529075970118"><ele>708.0</ele><time>2026-05-01T10:06:36Z</time></trkpt><trkpt lat="40.0725919151048" lon="9.60949391226766"><ele>708.0</ele><time>2026-05-01T10:06:37Z</time></trkpt><trkpt lat="40.07241349935867" lon="9.609470618757708"><ele>707.6666666666666</ele><time>2026-05-01T10:06:38Z</time></trkpt><trkpt lat="40.07221714319767" lon="9.60943551277845"><ele>707.3333333333333</ele><time>2026-05-01T10:06:39Z</time></trkpt><trkpt lat="40.07201845246228" lon="9.609467852553434"><ele>707.0</ele><time>2026-05-01T10:06:40Z</time></trkpt><trkpt lat="40.071839179651825" lon="9.60955065465448"><ele>713.3333333333333</ele><time>2026-05-01T10:06:41Z</time></trkpt><trkpt lat="40.07167046613562" lon="9.609629705503181"><ele>719.6666666666666</ele><time>2026-05-01T10:06:42Z</time></trkpt><trkpt lat="40.071512852464146" lon="9.609666998148516"><ele>726.0</ele><time>2026-05-01T10:06:43Z</time></trkpt><trkpt lat="40.07135320576629" lon="9.609666240839086"><ele>726.0</ele><time>2026-05-01T10:06:44Z</time></trkpt><trkpt lat="40.071209473405425" lon="9.609633247685073"><ele>726.0</ele><time>2026-05-01T10:06:45Z</time></trkpt><trkpt lat="40.07109051552805" lon="9.609574077388963"><ele>726.0</ele><time>2026-05-01T10:06:46Z</time></trkpt><trkpt lat="40.07098059539396" lon="9.609513799760586"><ele>726.0</ele><time>2026-05-01T10:06:47Z</time></trkpt><trkpt lat="40.07087528282424" lon="9.609452050658232"><ele>721.8</ele><time>2026-05-01T10:06:48Z</time></trkpt><trkpt lat="40.07076117169541" lon="9.609413666801503"><ele>717.5999999999999</ele><time>2026-05-01T10:06:49Z</time></trkpt><trkpt lat="40.070648730946374" lon="9.609391613136582"><ele>713.4</ele><time>2026-05-01T10:06:50Z</time></trkpt><trkpt lat="40.070546258264294" lon="9.609386356734783"><ele>709.2</ele><time>2026-05-01T10:06:51Z</time></trkpt><trkpt lat="40.07044878415392" lon="9.60939767986277"><ele>705.0</ele><time>2026-05-01T10:06:52Z</time></trkpt><trkpt lat="40.070354298763114" lon="9.609438299212123"><ele>706.75</ele><time>2026-05-01T10:06:53Z</time></trkpt><trkpt lat="40.07026401216889" lon="9.609492994940233"><ele>708.5</ele><time>2026-05-01T10:06:54Z</time></trkpt><trkpt lat="40.07016955438643" lon="9.609546293733503"><ele>710.25</ele><time>2026-05-01T10:06:55Z</time></trkpt><trkpt lat="40.07005099331638" lon="9.609609984310753"><ele>712.0</ele><time>2026-05-01T10:06:56Z</time></trkpt><trkpt lat="40.069925851396256" lon="9.609680751435855"><ele>712.0</ele><time>2026-05-01T10:06:57Z</time></trkpt><trkpt lat="40.06978840612175" lon="9.609745729364368"><ele>712.0</ele><time>2026-05-01T10:06:58Z</time></trkpt><trkpt lat="40.06964555956443" lon="9.60981972108636"><ele>712.0</ele><time>2026-05-01T10:06:59Z</time></trkpt><trkpt lat="40.0694981804939" lon="9.609891282561312"><ele>712.0</ele><time>2026-05-01T10:07:00Z</time></trkpt><trkpt lat="40.06935801052892" lon="9.609961969056991"><ele>712.0</ele><time>2026-05-01T10:07:01Z</time></trkpt><trkpt lat="40.0692389394352" lon="9.610044268401053"><ele>712.0</ele><time>2026-05-01T10:07:02Z</time></trkpt><trkpt lat="40.069145687241445" lon="9.610155331324407"><ele>712.0</ele><time>2026-05-01T10:07:03Z</time></trkpt><trkpt lat="40.069074601308316" lon="9.610296956435818"><ele>712.0</ele><time>2026-05-01T10:07:04Z</time></trkpt><trkpt lat="40.069007992694125" lon="9.610425652467253"><ele>712.0</ele><time>2026-05-01T10:07:05Z</time></trkpt><trkpt lat="40.06891567250987" lon="9.610521721667016"><ele>712.0</ele><time>2026-05-01T10:07:06Z</time></trkpt><trkpt lat="40.06880450788103" lon="9.610576659879765"><ele>712.0</ele><time>2026-05-01T10:07:07Z</time></trkpt><trkpt lat="40.06870105207786" lon="9.610622669499671"><ele>712.0</ele><time>2026-05-01T10:07:08Z</time></trkpt><trkpt lat="40.06861483644001" lon="9.610673823150183"><ele>712.0</ele><time>2026-05-01T10:07:09Z</time></trkpt><trkpt lat="40.06854963717447" lon="9.610746523198285"><ele>712.0</ele><time>2026-05-01T10:07:10Z</time></trkpt><trkpt lat="40.068514283789355" lon="9.610846693943191"><ele>712.0</ele><time>2026-05-01T10:07:11Z</time></trkpt><trkpt lat="40.068479787539815" lon="9.61096210817966"><ele>712.0</ele><time>2026-05-01T10:07:12Z</time></trkpt><trkpt lat="40.068426173499475" lon="9.611074489953147"><ele>712.6</ele><time>2026-05-01T10:07:13Z</time></trkpt><trkpt lat="40.068358194227386" lon="9.611188153451327"><ele>713.2</ele><time>2026-05-01T10:07:14Z</time></trkpt><trkpt lat="40.06828150412717" lon="9.6112918995857"><ele>713.8</ele><time>2026-05-01T10:07:15Z</time></trkpt><trkpt lat="40.068194041221545" lon="9.611378645371127"><ele>714.4</ele><time>2026-05-01T10:07:16Z</time></trkpt><trkpt lat="40.0680849569655" lon="9.611417928832141"><ele>715.0</ele><time>2026-05-01T10:07:17Z</time></trkpt><trkpt lat="40.06797556200347" lon="9.611478391692502"><ele>715.0</ele><time>2026-05-01T10:07:18Z</time></trkpt><trkpt lat="40.06785022066927" lon="9.61151809693386"><ele>715.0</ele><time>2026-05-01T10:07:19Z</time></trkpt><trkpt lat="40.067718042867774" lon="9.611566664408839"><ele>715.0</ele><time>2026-05-01T10:07:20Z</time></trkpt><trkpt lat="40.067585923233565" lon="9.61162283779114"><ele>715.0</ele><time>2026-05-01T10:07:21Z</time></trkpt><trkpt lat="40.067457860105065" lon="9.611687885054119"><ele>712.25</ele><time>2026-05-01T10:07:22Z</time></trkpt><trkpt lat="40.06734525515566" lon="9.611760317956216"><ele>709.5</ele><time>2026-05-01T10:07:23Z</time></trkpt><trkpt lat="40.06724429403712" lon="9.61183376626884"><ele>706.75</ele><time>2026-05-01T10:07:24Z</time></trkpt><trkpt lat="40.06714351773369" lon="9.611879712292279"><ele>704.0</ele><time>2026-05-01T10:07:25Z</time></trkpt><trkpt lat="40.067037654816076" lon="9.61185252951103"><ele>704.0</ele><time>2026-05-01T10:07:26Z</time></trkpt><trkpt lat="40.06692980817273" lon="9.611868064597651"><ele>704.0</ele><time>2026-05-01T10:07:27Z</time></trkpt><trkpt lat="40.06682300051858" lon="9.611871112504545"><ele>704.0</ele><time>2026-05-01T10:07:28Z</time></trkpt><trkpt lat="40.06671945574648" lon="9.611918578296653"><ele>704.0</ele><time>2026-05-01T10:07:29Z</time></trkpt><trkpt lat="40.06661161267027" lon="9.611993330946014"><ele>704.0</ele><time>2026-05-01T10:07:30Z</time></trkpt><trkpt lat="40.066503548089415" lon="9.61206447765613"><ele>708.25</ele><time>2026-05-01T10:07:31Z</time></trkpt><trkpt lat="40.06638797840009" lon="9.612125850111633"><ele>712.5</ele><time>2026-05-01T10:07:32Z</time></trkpt><trkpt lat="40.0662598008773" lon="9.612175660772337"><ele>716.75</ele><time>2026-05-01T10:07:33Z</time></trkpt><trkpt lat="40.0661286614546" lon="9.612204833394017"><ele>721.0</ele><time>2026-05-01T10:07:34Z</time></trkpt><trkpt lat="40.06599292243277" lon="9.612249724674978"><ele>721.0</ele><time>2026-05-01T10:07:35Z</time></trkpt><trkpt lat="40.065867155127634" lon="9.612302567704752"><ele>721.0</ele><time>2026-05-01T10:07:36Z</time></trkpt><trkpt lat="40.0657671887104" lon="9.612351213134165"><ele>721.0</ele><time>2026-05-01T10:07:37Z</time></trkpt><trkpt lat="40.06568585947915" lon="9.612404083560605"><ele>721.0</ele><time>2026-05-01T10:07:38Z</time></trkpt><trkpt lat="40.065604851611994" lon="9.612453773204566"><ele>721.0</ele><time>2026-05-01T10:07:39Z</time></trkpt><trkpt lat="40.06551385027197" lon="9.61248669225848"><ele>720.5999999999999</ele><time>2026-05-01T10:07:40Z</time></trkpt><trkpt lat="40.065413473248746" lon="9.612513034450846"><ele>720.2</ele><time>2026-05-01T10:07:41Z</time></trkpt><trkpt lat="40.06531011303729" lon="9.612476101613385"><ele>719.8</ele><time>2026-05-01T10:07:42Z</time></trkpt><trkpt lat="40.065212843617516" lon="9.612400150994578"><ele>719.4000000000001</ele><time>2026-05-01T10:07:43Z</time></trkpt><trkpt lat="40.06510819170288" lon="9.612386902695809"><ele>719.0</ele><time>2026-05-01T10:07:44Z</time></trkpt><trkpt lat="40.0649998463952" lon="9.612356213571251"><ele>719.75</ele><time>2026-05-01T10:07:45Z</time></trkpt><trkpt lat="40.0648878191683" lon="9.612353852200336"><ele>720.5</ele><time>2026-05-01T10:07:46Z</time></trkpt><trkpt lat="40.06476559126993" lon="9.612380242428385"><ele>721.25</ele><time>2026-05-01T10:07:47Z</time></trkpt><trkpt lat="40.064616398599625" lon="9.612411086330583"><ele>722.0</ele><time>2026-05-01T10:07:48Z</time></trkpt><trkpt lat="40.06445698104797" lon="9.61243721284614"><ele>722.0</ele><time>2026-05-01T10:07:49Z</time></trkpt><trkpt lat="40.06430096233133" lon="9.612461830118214"><ele>722.0</ele><time>2026-05-01T10:07:50Z</time></trkpt><trkpt lat="40.06415647217183" lon="9.612488538060632"><ele>722.0</ele><time>2026-05-01T10:07:51Z</time></trkpt><trkpt lat="40.06400608949988" lon="9.612517919371337"><ele>722.5</ele><time>2026-05-01T10:07:52Z</time></trkpt><trkpt lat="40.063860353983685" lon="9.612543309438704"><ele>723.0</ele><time>2026-05-01T10:07:53Z</time></trkpt><trkpt lat="40.06371822921975" lon="9.612570678061795"><ele>723.5</ele><time>2026-05-01T10:07:54Z</time></trkpt><trkpt lat="40.063590801450026" lon="9.612617654965844"><ele>724.0</ele><time>2026-05-01T10:07:55Z</time></trkpt><trkpt lat="40.06347570155431" lon="9.612701121084509"><ele>724.0</ele><time>2026-05-01T10:07:56Z</time></trkpt><trkpt lat="40.06337163318602" lon="9.612818990632"><ele>724.0</ele><time>2026-05-01T10:07:57Z</time></trkpt><trkpt lat="40.063265011216494" lon="9.612926387890857"><ele>724.0</ele><time>2026-05-01T10:07:58Z</time></trkpt><trkpt lat="40.06315769005746" lon="9.613035435320448"><ele>724.0</ele><time>2026-05-01T10:07:59Z</time></trkpt><trkpt lat="40.06304466572948" lon="9.613139647466229"><ele>720.5</ele><time>2026-05-01T10:08:00Z</time></trkpt><trkpt lat="40.06292059150117" lon="9.613193902163918"><ele>717.0</ele><time>2026-05-01T10:08:01Z</time></trkpt><trkpt lat="40.06279751355144" lon="9.61324704693238"><ele>713.5</ele><time>2026-05-01T10:08:02Z</time></trkpt><trkpt lat="40.062672284192175" lon="9.613293469366557"><ele>710.0</ele><time>2026-05-01T10:08:03Z</time></trkpt><trkpt lat="40.06254201155993" lon="9.613333431890295"><ele>708.0</ele><time>2026-05-01T10:08:04Z</time></trkpt><trkpt lat="40.062421708305834" lon="9.613352904482491"><ele>706.0</ele><time>2026-05-01T10:08:05Z</time></trkpt><trkpt lat="40.06227929349336" lon="9.613354817194946"><ele>704.0</ele><time>2026-05-01T10:08:06Z</time></trkpt><trkpt lat="40.06211371871817" lon="9.613346249963945"><ele>702.0</ele><time>2026-05-01T10:08:07Z</time></trkpt><trkpt lat="40.06195170857549" lon="9.613330265343969"><ele>702.0</ele><time>2026-05-01T10:08:08Z</time></trkpt><trkpt lat="40.061806210447024" lon="9.613314280394645"><ele>702.0</ele><time>2026-05-01T10:08:09Z</time></trkpt><trkpt lat="40.06166518334535" lon="9.613283132095217"><ele>702.0</ele><time>2026-05-01T10:08:10Z</time></trkpt><trkpt lat="40.06153153578739" lon="9.613249049074494"><ele>702.0</ele><time>2026-05-01T10:08:11Z</time></trkpt><trkpt lat="40.061403896382444" lon="9.613214742471111"><ele>704.0</ele><time>2026-05-01T10:08:12Z</time></trkpt><trkpt lat="40.061286525084746" lon="9.613215342129298"><ele>706.0</ele><time>2026-05-01T10:08:13Z</time></trkpt><trkpt lat="40.06118128684524" lon="9.613227307349142"><ele>708.0</ele><time>2026-05-01T10:08:14Z</time></trkpt><trkpt lat="40.061083101102106" lon="9.613320367770656"><ele>710.0</ele><time>2026-05-01T10:08:15Z</time></trkpt><trkpt lat="40.0609889946125" lon="9.61346424870693"><ele>710.0</ele><time>2026-05-01T10:08:16Z</time></trkpt><trkpt lat="40.06088151702517" lon="9.613610378970225"><ele>710.0</ele><time>2026-05-01T10:08:17Z</time></trkpt><trkpt lat="40.060766257658244" lon="9.613741630365888"><ele>710.0</ele><time>2026-05-01T10:08:18Z</time></trkpt><trkpt lat="40.06066106841706" lon="9.613857543884254"><ele>710.0</ele><time>2026-05-01T10:08:19Z</time></trkpt><trkpt lat="40.06056409541486" lon="9.613957877818395"><ele>706.25</ele><time>2026-05-01T10:08:20Z</time></trkpt><trkpt lat="40.06045860956364" lon="9.614025708288777"><ele>702.5</ele><time>2026-05-01T10:08:21Z</time></trkpt><trkpt lat="40.06035214730217" lon="9.614066553032101"><ele>698.75</ele><time>2026-05-01T10:08:22Z</time></trkpt><trkpt lat="40.06023830657612" lon="9.614075950803842"><ele>695.0</ele><time>2026-05-01T10:08:23Z</time></trkpt><trkpt lat="40.06012770078238" lon="9.614078737174307"><ele>695.0</ele><time>2026-05-01T10:08:24Z</time></trkpt><trkpt lat="40.06003342822599" lon="9.614103030064836"><ele>695.0</ele><time>2026-05-01T10:08:25Z</time></trkpt><trkpt lat="40.059950529013314" lon="9.614139465528353"><ele>695.0</ele><time>2026-05-01T10:08:26Z</time></trkpt><trkpt lat="40.05987444058826" lon="9.614217830135837"><ele>695.0</ele><time>2026-05-01T10:08:27Z</time></trkpt><trkpt lat="40.05979834814041" lon="9.614361775937452"><ele>695.0</ele><time>2026-05-01T10:08:28Z</time></trkpt><trkpt lat="40.059731755364595" lon="9.614489327613777"><ele>693.0</ele><time>2026-05-01T10:08:29Z</time></trkpt><trkpt lat="40.05963850193802" lon="9.614593846748804"><ele>691.0</ele><time>2026-05-01T10:08:30Z</time></trkpt><trkpt lat="40.05953769959817" lon="9.61468754447345"><ele>689.0</ele><time>2026-05-01T10:08:31Z</time></trkpt><trkpt lat="40.05943217418059" lon="9.614766761019196"><ele>687.0</ele><time>2026-05-01T10:08:32Z</time></trkpt><trkpt lat="40.05933759817378" lon="9.614838787199703"><ele>687.0</ele><time>2026-05-01T10:08:33Z</time></trkpt><trkpt lat="40.05924932587161" lon="9.614896788801813"><ele>687.0</ele><time>2026-05-01T10:08:34Z</time></trkpt><trkpt lat="40.05914992215705" lon="9.614940322828646"><ele>687.0</ele><time>2026-05-01T10:08:35Z</time></trkpt><trkpt lat="40.059031365832176" lon="9.614981723636893"><ele>687.0</ele><time>2026-05-01T10:08:36Z</time></trkpt><trkpt lat="40.05888801336253" lon="9.61500049196157"><ele>686.3333333333334</ele><time>2026-05-01T10:08:37Z</time></trkpt><trkpt lat="40.05869457694812" lon="9.615021491964933"><ele>685.6666666666667</ele><time>2026-05-01T10:08:38Z</time></trkpt><trkpt lat="40.05850531990718" lon="9.615040197331771"><ele>685.0</ele><time>2026-05-01T10:08:39Z</time></trkpt><trkpt lat="40.05833883521074" lon="9.615066918328111"><ele>681.0</ele><time>2026-05-01T10:08:40Z</time></trkpt><trkpt lat="40.05818824547967" lon="9.615019058830772"><ele>677.0</ele><time>2026-05-01T10:08:41Z</time></trkpt><trkpt lat="40.05805342626838" lon="9.614946335829554"><ele>673.0</ele><time>2026-05-01T10:08:42Z</time></trkpt><trkpt lat="40.057935782274036" lon="9.61485498499797"><ele>669.0</ele><time>2026-05-01T10:08:43Z</time></trkpt><trkpt lat="40.05782824122191" lon="9.614781600029902"><ele>669.0</ele><time>2026-05-01T10:08:44Z</time></trkpt><trkpt lat="40.05773715849249" lon="9.614691617339666"><ele>669.0</ele><time>2026-05-01T10:08:45Z</time></trkpt><trkpt lat="40.057640571824656" lon="9.61462522440237"><ele>669.0</ele><time>2026-05-01T10:08:46Z</time></trkpt><trkpt lat="40.057537158369854" lon="9.614612142059883"><ele>669.0</ele><time>2026-05-01T10:08:47Z</time></trkpt><trkpt lat="40.05743502620242" lon="9.614672156252924"><ele>669.0</ele><time>2026-05-01T10:08:48Z</time></trkpt><trkpt lat="40.057337235476076" lon="9.61472466889562"><ele>667.4000000000001</ele><time>2026-05-01T10:08:49Z</time></trkpt><trkpt lat="40.05724258621097" lon="9.614770883649884"><ele>665.8</ele><time>2026-05-01T10:08:50Z</time></trkpt><trkpt lat="40.05714334571895" lon="9.61480463581489"><ele>664.2</ele><time>2026-05-01T10:08:51Z</time></trkpt><trkpt lat="40.05703493207053" lon="9.614814666259848"><ele>662.5999999999999</ele><time>2026-05-01T10:08:52Z</time></trkpt><trkpt lat="40.05691801932432" lon="9.614762187871028"><ele>661.0</ele><time>2026-05-01T10:08:53Z</time></trkpt><trkpt lat="40.05678999768605" lon="9.614705733464934"><ele>661.0</ele><time>2026-05-01T10:08:54Z</time></trkpt><trkpt lat="40.056659349749765" lon="9.614660905098518"><ele>661.0</ele><time>2026-05-01T10:08:55Z</time></trkpt><trkpt lat="40.056554600839455" lon="9.614591084974208"><ele>661.0</ele><time>2026-05-01T10:08:56Z</time></trkpt><trkpt lat="40.056454264840696" lon="9.614556407194202"><ele>661.0</ele><time>2026-05-01T10:08:57Z</time></trkpt><trkpt lat="40.05635674810153" lon="9.614537705718725"><ele>661.75</ele><time>2026-05-01T10:08:58Z</time></trkpt><trkpt lat="40.05625456776987" lon="9.614545122623861"><ele>662.5</ele><time>2026-05-01T10:08:59Z</time></trkpt><trkpt lat="40.05614464450747" lon="9.614591302960129"><ele>663.25</ele><time>2026-05-01T10:09:00Z</time></trkpt><trkpt lat="40.056031412509334" lon="9.61467983515196"><ele>664.0</ele><time>2026-05-01T10:09:01Z</time></trkpt><trkpt lat="40.05590519564943" lon="9.614774391665623"><ele>667.0</ele><time>2026-05-01T10:09:02Z</time></trkpt><trkpt lat="40.05577506349922" lon="9.614825009603011"><ele>670.0</ele><time>2026-05-01T10:09:03Z</time></trkpt><trkpt lat="40.05564407508307" lon="9.61491250709723"><ele>673.0</ele><time>2026-05-01T10:09:04Z</time></trkpt><trkpt lat="40.05553824770556" lon="9.61501796208335"><ele>676.0</ele><time>2026-05-01T10:09:05Z</time></trkpt><trkpt lat="40.05543335441102" lon="9.61508103804003"><ele>676.0</ele><time>2026-05-01T10:09:06Z</time></trkpt><trkpt lat="40.05536454238945" lon="9.615160252845547"><ele>676.0</ele><time>2026-05-01T10:09:07Z</time></trkpt><trkpt lat="40.055284355835404" lon="9.615213872282647"><ele>676.0</ele><time>2026-05-01T10:09:08Z</time></trkpt><trkpt lat="40.05522124346086" lon="9.615257268255295"><ele>676.0</ele><time>2026-05-01T10:09:09Z</time></trkpt><trkpt lat="40.05516058461197" lon="9.615307871301683"><ele>676.0</ele><time>2026-05-01T10:09:10Z</time></trkpt><trkpt lat="40.05510833854546" lon="9.615381525318877"><ele>676.0</ele><time>2026-05-01T10:09:11Z</time></trkpt><trkpt lat="40.05505697633823" lon="9.615441955669182"><ele>674.0</ele><time>2026-05-01T10:09:12Z</time></trkpt><trkpt lat="40.05502122294086" lon="9.615528950219993"><ele>672.0</ele><time>2026-05-01T10:09:13Z</time></trkpt><trkpt lat="40.05501611391357" lon="9.615641361967965"><ele>670.0</ele><time>2026-05-01T10:09:14Z</time></trkpt><trkpt lat="40.05506547347928" lon="9.615743566354977"><ele>668.0</ele><time>2026-05-01T10:09:15Z</time></trkpt><trkpt lat="40.0551547557784" lon="9.615814237209898"><ele>666.0</ele><time>2026-05-01T10:09:16Z</time></trkpt><trkpt lat="40.05524798089219" lon="9.61585704705398"><ele>666.0</ele><time>2026-05-01T10:09:17Z</time></trkpt><trkpt lat="40.055343754214064" lon="9.615902002304296"><ele>666.0</ele><time>2026-05-01T10:09:18Z</time></trkpt><trkpt lat="40.055447743117355" lon="9.615981890245923"><ele>666.0</ele><time>2026-05-01T10:09:19Z</time></trkpt><trkpt lat="40.05553919523503" lon="9.616090526493636"><ele>666.0</ele><time>2026-05-01T10:09:20Z</time></trkpt><trkpt lat="40.05558617591546" lon="9.616240359043461"><ele>668.25</ele><time>2026-05-01T10:09:21Z</time></trkpt><trkpt lat="40.05563865588105" lon="9.616408002901217"><ele>670.5</ele><time>2026-05-01T10:09:22Z</time></trkpt><trkpt lat="40.05567857028948" lon="9.616576790644698"><ele>672.75</ele><time>2026-05-01T10:09:23Z</time></trkpt><trkpt lat="40.055728336103265" lon="9.616721773831241"><ele>675.0</ele><time>2026-05-01T10:09:24Z</time></trkpt><trkpt lat="40.0557945288233" lon="9.616851187698867"><ele>669.0</ele><time>2026-05-01T10:09:25Z</time></trkpt><trkpt lat="40.05585342182668" lon="9.616981034216671"><ele>663.0</ele><time>2026-05-01T10:09:26Z</time></trkpt><trkpt lat="40.05589364854647" lon="9.617123881160465"><ele>657.0</ele><time>2026-05-01T10:09:27Z</time></trkpt><trkpt lat="40.05590553503569" lon="9.617285019637094"><ele>651.0</ele><time>2026-05-01T10:09:28Z</time></trkpt><trkpt lat="40.05591069771324" lon="9.617446947108169"><ele>651.0</ele><time>2026-05-01T10:09:29Z</time></trkpt><trkpt lat="40.05591339769989" lon="9.617612141182368"><ele>651.0</ele><time>2026-05-01T10:09:30Z</time></trkpt><trkpt lat="40.055876881131105" lon="9.617773541690093"><ele>651.0</ele><time>2026-05-01T10:09:31Z</time></trkpt><trkpt lat="40.055847356182355" lon="9.617940949968444"><ele>651.0</ele><time>2026-05-01T10:09:32Z</time></trkpt><trkpt lat="40.05580293710898" lon="9.6181082430514"><ele>650.75</ele><time>2026-05-01T10:09:33Z</time></trkpt><trkpt lat="40.05576761482412" lon="9.618277054772282"><ele>650.5</ele><time>2026-05-01T10:09:34Z</time></trkpt><trkpt lat="40.05574245940087" lon="9.618445471929057"><ele>650.25</ele><time>2026-05-01T10:09:35Z</time></trkpt><trkpt lat="40.05571713070386" lon="9.618605994460683"><ele>650.0</ele><time>2026-05-01T10:09:36Z</time></trkpt><trkpt lat="40.05570427460755" lon="9.618763045601032"><ele>650.0</ele><time>2026-05-01T10:09:37Z</time></trkpt><trkpt lat="40.05571727841068" lon="9.618909444068494"><ele>650.0</ele><time>2026-05-01T10:09:38Z</time></trkpt><trkpt lat="40.055762005662395" lon="9.619045918089583"><ele>650.0</ele><time>2026-05-01T10:09:39Z</time></trkpt><trkpt lat="40.05581910210424" lon="9.61917010424693"><ele>650.0</ele><time>2026-05-01T10:09:40Z</time></trkpt><trkpt lat="40.05588360001139" lon="9.619291188503041"><ele>648.25</ele><time>2026-05-01T10:09:41Z</time></trkpt><trkpt lat="40.05594992569507" lon="9.61942810508726"><ele>646.5</ele><time>2026-05-01T10:09:42Z</time></trkpt><trkpt lat="40.05601595697564" lon="9.619581604744402"><ele>644.75</ele><time>2026-05-01T10:09:43Z</time></trkpt><trkpt lat="40.056046466496994" lon="9.619760263333477"><ele>643.0</ele><time>2026-05-01T10:09:44Z</time></trkpt><trkpt lat="40.05609811437794" lon="9.619935737228232"><ele>643.0</ele><time>2026-05-01T10:09:45Z</time></trkpt><trkpt lat="40.05613992481444" lon="9.620112812408868"><ele>643.0</ele><time>2026-05-01T10:09:46Z</time></trkpt><trkpt lat="40.05615993226694" lon="9.620309425508292"><ele>643.0</ele><time>2026-05-01T10:09:47Z</time></trkpt><trkpt lat="40.05618150411101" lon="9.6205179883061"><ele>643.0</ele><time>2026-05-01T10:09:48Z</time></trkpt><trkpt lat="40.05622398479366" lon="9.620735806484719"><ele>643.0</ele><time>2026-05-01T10:09:49Z</time></trkpt><trkpt lat="40.05625972465941" lon="9.620961159592966"><ele>643.0</ele><time>2026-05-01T10:09:50Z</time></trkpt><trkpt lat="40.05631459936125" lon="9.62117150712402"><ele>645.6666666666667</ele><time>2026-05-01T10:09:51Z</time></trkpt><trkpt lat="40.056378765650045" lon="9.62137243110987"><ele>648.3333333333334</ele><time>2026-05-01T10:09:52Z</time></trkpt><trkpt lat="40.056440337622654" lon="9.621556175302413"><ele>651.0</ele><time>2026-05-01T10:09:53Z</time></trkpt><trkpt lat="40.056503484570044" lon="9.62173181434929"><ele>651.0</ele><time>2026-05-01T10:09:54Z</time></trkpt><trkpt lat="40.05656915655709" lon="9.621880044787545"><ele>651.0</ele><time>2026-05-01T10:09:55Z</time></trkpt><trkpt lat="40.05665550540022" lon="9.621995775895153"><ele>651.0</ele><time>2026-05-01T10:09:56Z</time></trkpt><trkpt lat="40.05676217427344" lon="9.622084631193054"><ele>651.0</ele><time>2026-05-01T10:09:57Z</time></trkpt><trkpt lat="40.056834602318595" lon="9.622195034824825"><ele>645.0</ele><time>2026-05-01T10:09:58Z</time></trkpt><trkpt lat="40.05689152422728" lon="9.62231901672834"><ele>639.0</ele><time>2026-05-01T10:09:59Z</time></trkpt><trkpt lat="40.05691491424112" lon="9.622455984892452"><ele>633.0</ele><time>2026-05-01T10:10:00Z</time></trkpt><trkpt lat="40.05691369941529" lon="9.622634028916535"><ele>627.0</ele><time>2026-05-01T10:10:01Z</time></trkpt><trkpt lat="40.05689742977297" lon="9.622840682060337"><ele>625.25</ele><time>2026-05-01T10:10:02Z</time></trkpt><trkpt lat="40.05685523347957" lon="9.623016590182749"><ele>623.5</ele><time>2026-05-01T10:10:03Z</time></trkpt><trkpt lat="40.05681085454129" lon="9.623186336256847"><ele>621.75</ele><time>2026-05-01T10:10:04Z</time></trkpt><trkpt lat="40.05677767616607" lon="9.62335455969915"><ele>620.0</ele><time>2026-05-01T10:10:05Z</time></trkpt><trkpt lat="40.0567574219065" lon="9.62352436468661"><ele>618.0</ele><time>2026-05-01T10:10:06Z</time></trkpt><trkpt lat="40.05674998773555" lon="9.623691132756889"><ele>616.0</ele><time>2026-05-01T10:10:07Z</time></trkpt><trkpt lat="40.056755395780705" lon="9.623854741028843"><ele>614.0</ele><time>2026-05-01T10:10:08Z</time></trkpt><trkpt lat="40.05674871707177" lon="9.624021112971686"><ele>612.0</ele><time>2026-05-01T10:10:09Z</time></trkpt><trkpt lat="40.0567206960332" lon="9.62419180047495"><ele>612.0</ele><time>2026-05-01T10:10:10Z</time></trkpt><trkpt lat="40.056659200359654" lon="9.624362509318264"><ele>612.0</ele><time>2026-05-01T10:10:11Z</time></trkpt><trkpt lat="40.056592940588075" lon="9.62451409726672"><ele>612.0</ele><time>2026-05-01T10:10:12Z</time></trkpt><trkpt lat="40.05651281372017" lon="9.624647845929335"><ele>612.0</ele><time>2026-05-01T10:10:13Z</time></trkpt><trkpt lat="40.056403375711355" lon="9.62476109954706"><ele>608.75</ele><time>2026-05-01T10:10:14Z</time></trkpt><trkpt lat="40.056299145381054" lon="9.624855965518487"><ele>605.5</ele><time>2026-05-01T10:10:15Z</time></trkpt><trkpt lat="40.056188201287426" lon="9.624927076287348"><ele>602.25</ele><time>2026-05-01T10:10:16Z</time></trkpt><trkpt lat="40.05606641034456" lon="9.624964228707219"><ele>599.0</ele><time>2026-05-01T10:10:17Z</time></trkpt><trkpt lat="40.055938598137615" lon="9.624971588956331"><ele>599.0</ele><time>2026-05-01T10:10:18Z</time></trkpt><trkpt lat="40.055818616188226" lon="9.624964274283068"><ele>599.0</ele><time>2026-05-01T10:10:19Z</time></trkpt><trkpt lat="40.055698928657414" lon="9.624949651371743"><ele>599.0</ele><time>2026-05-01T10:10:20Z</time></trkpt><trkpt lat="40.05558905530215" lon="9.624874852959358"><ele>599.0</ele><time>2026-05-01T10:10:21Z</time></trkpt><trkpt lat="40.05547336088842" lon="9.624782237443805"><ele>597.75</ele><time>2026-05-01T10:10:22Z</time></trkpt><trkpt lat="40.05534867763177" lon="9.624721189931485"><ele>596.5</ele><time>2026-05-01T10:10:23Z</time></trkpt><trkpt lat="40.05521621998687" lon="9.62471580016882"><ele>595.25</ele><time>2026-05-01T10:10:24Z</time></trkpt><trkpt lat="40.05509557636242" lon="9.624749320463222"><ele>594.0</ele><time>2026-05-01T10:10:25Z</time></trkpt><trkpt lat="40.05498734005255" lon="9.624809405616366"><ele>590.75</ele><time>2026-05-01T10:10:26Z</time></trkpt><trkpt lat="40.05488695866422" lon="9.62489826592611"><ele>587.5</ele><time>2026-05-01T10:10:27Z</time></trkpt><trkpt lat="40.0547911832941" lon="9.625012043870369"><ele>584.25</ele><time>2026-05-01T10:10:28Z</time></trkpt><trkpt lat="40.054707722708294" lon="9.625151829922777"><ele>581.0</ele><time>2026-05-01T10:10:29Z</time></trkpt><trkpt lat="40.054634689933216" lon="9.625276262120403"><ele>579.6666666666666</ele><time>2026-05-01T10:10:30Z</time></trkpt><trkpt lat="40.05457318638716" lon="9.62538861600933"><ele>578.3333333333333</ele><time>2026-05-01T10:10:31Z</time></trkpt><trkpt lat="40.05452758448677" lon="9.625490223418902"><ele>577.0</ele><time>2026-05-01T10:10:32Z</time></trkpt><trkpt lat="40.05450126936492" lon="9.625570662975871"><ele>575.6666666666666</ele><time>2026-05-01T10:10:33Z</time></trkpt><trkpt lat="40.054461809182726" lon="9.625659206689532"><ele>574.3333333333334</ele><time>2026-05-01T10:10:35Z</time></trkpt><trkpt lat="40.05440291710246" lon="9.625755726480484"><ele>573.0</ele><time>2026-05-01T10:10:38Z</time></trkpt><trkpt lat="40.054364051100926" lon="9.625839045127757"><ele>573.0</ele><time>2026-05-01T10:10:42Z</time></trkpt><trkpt lat="40.05433830958422" lon="9.625970256601327"><ele>573.0</ele><time>2026-05-01T10:12:33Z</time></trkpt><trkpt lat="40.054312617272544" lon="9.62609191108158"><ele>573.0</ele><time>2026-05-01T10:12:35Z</time></trkpt><trkpt lat="40.05428993058805" lon="9.626235879907318"><ele>573.0</ele><time>2026-05-01T10:12:37Z</time></trkpt><trkpt lat="40.05428676122324" lon="9.626321531107049"><ele>573.0</ele><time>2026-05-01T10:12:38Z</time></trkpt><trkpt lat="40.0543039754793" lon="9.62641103995207"><ele>573.0</ele><time>2026-05-01T10:12:47Z</time></trkpt><trkpt lat="40.054312096736005" lon="9.626588579286286"><ele>572.8333333333334</ele><time>2026-05-01T10:12:49Z</time></trkpt><trkpt lat="40.05431959996973" lon="9.626725268237331"><ele>572.6666666666666</ele><time>2026-05-01T10:12:50Z</time></trkpt><trkpt lat="40.05435963760739" lon="9.62683752580334"><ele>572.5</ele><time>2026-05-01T10:12:51Z</time></trkpt><trkpt lat="40.054382795319526" lon="9.626927775730495"><ele>572.3333333333333</ele><time>2026-05-01T10:12:52Z</time></trkpt><trkpt lat="40.05439995895307" lon="9.627009120964392"><ele>572.1666666666666</ele><time>2026-05-01T10:12:53Z</time></trkpt><trkpt lat="40.05439977615489" lon="9.627128837939617"><ele>572.0</ele><time>2026-05-01T10:12:55Z</time></trkpt><trkpt lat="40.05437403402621" lon="9.627269554472171"><ele>572.0</ele><time>2026-05-01T10:12:57Z</time></trkpt><trkpt lat="40.054339840105456" lon="9.627408353575298"><ele>572.0</ele><time>2026-05-01T10:12:58Z</time></trkpt><trkpt lat="40.05429075689909" lon="9.627576057702196"><ele>572.0</ele><time>2026-05-01T10:12:59Z</time></trkpt><trkpt lat="40.0542154223659" lon="9.62775998191094"><ele>572.0</ele><time>2026-05-01T10:13:00Z</time></trkpt><trkpt lat="40.054117541223825" lon="9.627920209923378"><ele>565.3333333333333</ele><time>2026-05-01T10:13:01Z</time></trkpt><trkpt lat="40.053986603104285" lon="9.628067469791977"><ele>558.6666666666666</ele><time>2026-05-01T10:13:02Z</time></trkpt><trkpt lat="40.05384649755851" lon="9.62817197431779"><ele>552.0</ele><time>2026-05-01T10:13:03Z</time></trkpt><trkpt lat="40.05373351571165" lon="9.628238149975186"><ele>552.0</ele><time>2026-05-01T10:13:04Z</time></trkpt><trkpt lat="40.05364636031416" lon="9.62832996663631"><ele>552.0</ele><time>2026-05-01T10:13:05Z</time></trkpt><trkpt lat="40.05359901639069" lon="9.62847406222367"><ele>552.0</ele><time>2026-05-01T10:13:06Z</time></trkpt><trkpt lat="40.0535972542397" lon="9.628636116911995"><ele>552.0</ele><time>2026-05-01T10:13:07Z</time></trkpt><trkpt lat="40.053649485087" lon="9.628810643775953"><ele>552.0</ele><time>2026-05-01T10:13:08Z</time></trkpt><trkpt lat="40.05370631553822" lon="9.62900814251903"><ele>552.0</ele><time>2026-05-01T10:13:09Z</time></trkpt><trkpt lat="40.05371864801377" lon="9.62924211038307"><ele>552.0</ele><time>2026-05-01T10:13:10Z</time></trkpt><trkpt lat="40.05369284804952" lon="9.629477293133972"><ele>552.6666666666666</ele><time>2026-05-01T10:13:11Z</time></trkpt><trkpt lat="40.05362918913782" lon="9.62974337848208"><ele>553.3333333333333</ele><time>2026-05-01T10:13:12Z</time></trkpt><trkpt lat="40.05356138014874" lon="9.630027886006953"><ele>554.0</ele><time>2026-05-01T10:13:13Z</time></trkpt><trkpt lat="40.0535302748745" lon="9.630296051078536"><ele>557.3333333333333</ele><time>2026-05-01T10:13:14Z</time></trkpt><trkpt lat="40.053505903204794" lon="9.630539683095126"><ele>560.6666666666666</ele><time>2026-05-01T10:13:15Z</time></trkpt><trkpt lat="40.05343965999391" lon="9.630738496345568"><ele>564.0</ele><time>2026-05-01T10:13:16Z</time></trkpt><trkpt lat="40.053347289164265" lon="9.630898068152588"><ele>554.3333333333334</ele><time>2026-05-01T10:13:17Z</time></trkpt><trkpt lat="40.05321987739976" lon="9.631043496914195"><ele>544.6666666666667</ele><time>2026-05-01T10:13:18Z</time></trkpt><trkpt lat="40.05315095566972" lon="9.631244797276961"><ele>535.0</ele><time>2026-05-01T10:13:19Z</time></trkpt><trkpt lat="40.05306736422233" lon="9.631473920906979"><ele>535.0</ele><time>2026-05-01T10:13:20Z</time></trkpt><trkpt lat="40.05299161871011" lon="9.631742467764512"><ele>535.0</ele><time>2026-05-01T10:13:21Z</time></trkpt><trkpt lat="40.052914722069126" lon="9.631975611524341"><ele>535.0</ele><time>2026-05-01T10:13:22Z</time></trkpt><trkpt lat="40.05278580533554" lon="9.632131283312578"><ele>535.6666666666667</ele><time>2026-05-01T10:13:23Z</time></trkpt><trkpt lat="40.05264090135301" lon="9.632311710579645"><ele>536.3333333333334</ele><time>2026-05-01T10:13:24Z</time></trkpt><trkpt lat="40.052483060944944" lon="9.632517909695643"><ele>537.0</ele><time>2026-05-01T10:13:25Z</time></trkpt><trkpt lat="40.05233733445203" lon="9.632735450003477"><ele>541.3333333333334</ele><time>2026-05-01T10:13:26Z</time></trkpt><trkpt lat="40.05219466332755" lon="9.632905460990415"><ele>545.6666666666667</ele><time>2026-05-01T10:13:27Z</time></trkpt><trkpt lat="40.052075125906335" lon="9.633069864204863"><ele>550.0</ele><time>2026-05-01T10:13:28Z</time></trkpt><trkpt lat="40.05198480007298" lon="9.633282726564806"><ele>550.0</ele><time>2026-05-01T10:13:29Z</time></trkpt><trkpt lat="40.05192062235072" lon="9.633543432489768"><ele>550.0</ele><time>2026-05-01T10:13:30Z</time></trkpt><trkpt lat="40.05188082362094" lon="9.633781300773713"><ele>550.0</ele><time>2026-05-01T10:13:31Z</time></trkpt><trkpt lat="40.051856232314655" lon="9.634012210489628"><ele>550.0</ele><time>2026-05-01T10:13:32Z</time></trkpt><trkpt lat="40.051875332715" lon="9.634241462298176"><ele>550.0</ele><time>2026-05-01T10:13:33Z</time></trkpt><trkpt lat="40.051982317515844" lon="9.634464071897062"><ele>550.0</ele><time>2026-05-01T10:13:34Z</time></trkpt><trkpt lat="40.05207692192718" lon="9.634646528111658"><ele>547.6</ele><time>2026-05-01T10:13:35Z</time></trkpt><trkpt lat="40.05216103555145" lon="9.634798224813476"><ele>545.2</ele><time>2026-05-01T10:13:36Z</time></trkpt><trkpt lat="40.0521883995049" lon="9.63492172229295"><ele>542.8</ele><time>2026-05-01T10:13:37Z</time></trkpt><trkpt lat="40.05214902132169" lon="9.635036797784565"><ele>540.4</ele><time>2026-05-01T10:13:38Z</time></trkpt><trkpt lat="40.05207301225783" lon="9.635120080340911"><ele>538.0</ele><time>2026-05-01T10:13:39Z</time></trkpt><trkpt lat="40.05194365277977" lon="9.635163292560295"><ele>538.0</ele><time>2026-05-01T10:13:40Z</time></trkpt><trkpt lat="40.051850778385656" lon="9.63527384362654"><ele>538.0</ele><time>2026-05-01T10:13:41Z</time></trkpt><trkpt lat="40.051811124256794" lon="9.635396629323722"><ele>538.0</ele><time>2026-05-01T10:13:42Z</time></trkpt><trkpt lat="40.051828284099045" lon="9.635539607468873"><ele>538.0</ele><time>2026-05-01T10:13:43Z</time></trkpt><trkpt lat="40.05190052879194" lon="9.635695744224407"><ele>538.5</ele><time>2026-05-01T10:13:44Z</time></trkpt><trkpt lat="40.052004459802504" lon="9.63584335834237"><ele>539.0</ele><time>2026-05-01T10:13:45Z</time></trkpt><trkpt lat="40.05209873733093" lon="9.635986551669426"><ele>539.5</ele><time>2026-05-01T10:13:46Z</time></trkpt><trkpt lat="40.052142744325806" lon="9.63611425155571"><ele>540.0</ele><time>2026-05-01T10:13:47Z</time></trkpt><trkpt lat="40.052108303506536" lon="9.636234159377455"><ele>540.0</ele><time>2026-05-01T10:13:48Z</time></trkpt><trkpt lat="40.05202964953794" lon="9.636318031751655"><ele>540.0</ele><time>2026-05-01T10:13:49Z</time></trkpt><trkpt lat="40.051948570597936" lon="9.636455395951668"><ele>540.0</ele><time>2026-05-01T10:13:50Z</time></trkpt><trkpt lat="40.051849161988116" lon="9.636602985514337"><ele>540.0</ele><time>2026-05-01T10:13:51Z</time></trkpt><trkpt lat="40.05177168476385" lon="9.63682530486184"><ele>544.0</ele><time>2026-05-01T10:13:52Z</time></trkpt><trkpt lat="40.05171801136087" lon="9.637051738324356"><ele>548.0</ele><time>2026-05-01T10:13:53Z</time></trkpt><trkpt lat="40.05169351890308" lon="9.637268178514303"><ele>552.0</ele><time>2026-05-01T10:13:54Z</time></trkpt><trkpt lat="40.051680151418424" lon="9.637478731549283"><ele>540.3333333333334</ele><time>2026-05-01T10:13:55Z</time></trkpt><trkpt lat="40.05158241696928" lon="9.637630943450342"><ele>528.6666666666667</ele><time>2026-05-01T10:13:56Z</time></trkpt><trkpt lat="40.05147652783436" lon="9.637803075319512"><ele>517.0</ele><time>2026-05-01T10:13:57Z</time></trkpt><trkpt lat="40.05135110609674" lon="9.637926188510153"><ele>517.0</ele><time>2026-05-01T10:13:58Z</time></trkpt><trkpt lat="40.05124400744483" lon="9.638081574790048"><ele>517.0</ele><time>2026-05-01T10:13:59Z</time></trkpt><trkpt lat="40.051146115919394" lon="9.638260056646317"><ele>517.0</ele><time>2026-05-01T10:14:00Z</time></trkpt><trkpt lat="40.05107365421719" lon="9.63848740471026"><ele>523.25</ele><time>2026-05-01T10:14:01Z</time></trkpt><trkpt lat="40.05100863169326" lon="9.638689202651486"><ele>529.5</ele><time>2026-05-01T10:14:02Z</time></trkpt><trkpt lat="40.050946808146314" lon="9.638849801542491"><ele>535.75</ele><time>2026-05-01T10:14:03Z</time></trkpt><trkpt lat="40.050900362402224" lon="9.638972944765268"><ele>542.0</ele><time>2026-05-01T10:14:04Z</time></trkpt><trkpt lat="40.05086030442451" lon="9.639075384582974"><ele>542.0</ele><time>2026-05-01T10:14:05Z</time></trkpt><trkpt lat="40.05081145970264" lon="9.63919454822651"><ele>542.0</ele><time>2026-05-01T10:14:07Z</time></trkpt><trkpt lat="40.050781321272154" lon="9.639275101701422"><ele>542.0</ele><time>2026-05-01T10:14:09Z</time></trkpt><trkpt lat="40.05073767265291" lon="9.639348707840657"><ele>542.0</ele><time>2026-05-01T10:14:12Z</time></trkpt><trkpt lat="40.050679300664406" lon="9.639399588542727"><ele>542.0</ele><time>2026-05-01T10:14:16Z</time></trkpt><trkpt lat="40.050701341658666" lon="9.639501670883638"><ele>542.0</ele><time>2026-05-01T10:15:54Z</time></trkpt><trkpt lat="40.050721947558955" lon="9.6395979817569"><ele>533.6666666666666</ele><time>2026-05-01T10:15:56Z</time></trkpt><trkpt lat="40.05070334773586" lon="9.639686562707793"><ele>525.3333333333333</ele><time>2026-05-01T10:15:57Z</time></trkpt><trkpt lat="40.0507013293348" lon="9.639798269014928"><ele>517.0</ele><time>2026-05-01T10:15:58Z</time></trkpt><trkpt lat="40.05070070595421" lon="9.639922009897647"><ele>508.66666666666663</ele><time>2026-05-01T10:15:59Z</time></trkpt><trkpt lat="40.050715074496004" lon="9.640035064180045"><ele>500.3333333333333</ele><time>2026-05-01T10:16:00Z</time></trkpt><trkpt lat="40.05070916267224" lon="9.64013263497542"><ele>492.0</ele><time>2026-05-01T10:16:01Z</time></trkpt><trkpt lat="40.05070582940177" lon="9.640220679684585"><ele>492.1666666666667</ele><time>2026-05-01T10:16:02Z</time></trkpt><trkpt lat="40.05070214789784" lon="9.64031239017007"><ele>492.33333333333337</ele><time>2026-05-01T10:16:03Z</time></trkpt><trkpt lat="40.050699014784584" lon="9.640403700602649"><ele>492.5</ele><time>2026-05-01T10:16:04Z</time></trkpt><trkpt lat="40.05069522487519" lon="9.640499851486068"><ele>492.6666666666667</ele><time>2026-05-01T10:16:05Z</time></trkpt><trkpt lat="40.05068876504088" lon="9.640604405270873"><ele>492.83333333333337</ele><time>2026-05-01T10:16:06Z</time></trkpt><trkpt lat="40.050681089205575" lon="9.640722902226786"><ele>493.0</ele><time>2026-05-01T10:16:07Z</time></trkpt><trkpt lat="40.05067369008553" lon="9.64085113245931"><ele>493.0</ele><time>2026-05-01T10:16:08Z</time></trkpt><trkpt lat="40.05065064118616" lon="9.64098872613057"><ele>493.0</ele><time>2026-05-01T10:16:09Z</time></trkpt><trkpt lat="40.050658297338764" lon="9.641134333869273"><ele>493.0</ele><time>2026-05-01T10:16:10Z</time></trkpt><trkpt lat="40.05065080362527" lon="9.641282592804435"><ele>493.0</ele><time>2026-05-01T10:16:11Z</time></trkpt><trkpt lat="40.05064114860307" lon="9.641433940714114"><ele>494.2</ele><time>2026-05-01T10:16:12Z</time></trkpt><trkpt lat="40.050633180142285" lon="9.641586404043567"><ele>495.4</ele><time>2026-05-01T10:16:13Z</time></trkpt><trkpt lat="40.05062689170522" lon="9.641732932465711"><ele>496.59999999999997</ele><time>2026-05-01T10:16:14Z</time></trkpt><trkpt lat="40.05062043678938" lon="9.641867374644782"><ele>497.79999999999995</ele><time>2026-05-01T10:16:15Z</time></trkpt><trkpt lat="40.05061109678322" lon="9.642010843760257"><ele>499.0</ele><time>2026-05-01T10:16:16Z</time></trkpt><trkpt lat="40.050594164546716" lon="9.642157632131774"><ele>501.0</ele><time>2026-05-01T10:16:17Z</time></trkpt><trkpt lat="40.050564131846855" lon="9.642307363195899"><ele>503.0</ele><time>2026-05-01T10:16:18Z</time></trkpt><trkpt lat="40.05052122981311" lon="9.64246190227928"><ele>505.0</ele><time>2026-05-01T10:16:19Z</time></trkpt><trkpt lat="40.05047370704568" lon="9.642623832317234"><ele>507.0</ele><time>2026-05-01T10:16:20Z</time></trkpt><trkpt lat="40.05041228173016" lon="9.642787733641944"><ele>512.3333333333334</ele><time>2026-05-01T10:16:21Z</time></trkpt><trkpt lat="40.05036803866094" lon="9.642969081766823"><ele>517.6666666666667</ele><time>2026-05-01T10:16:22Z</time></trkpt><trkpt lat="40.050333167403444" lon="9.643168883817468"><ele>523.0</ele><time>2026-05-01T10:16:23Z</time></trkpt><trkpt lat="40.050277885859" lon="9.643368169138164"><ele>523.0</ele><time>2026-05-01T10:16:24Z</time></trkpt><trkpt lat="40.05021702430117" lon="9.64356575522614"><ele>523.0</ele><time>2026-05-01T10:16:25Z</time></trkpt><trkpt lat="40.05013482080125" lon="9.643759079300235"><ele>523.0</ele><time>2026-05-01T10:16:26Z</time></trkpt><trkpt lat="40.05000905853699" lon="9.643919613091017"><ele>520.3333333333334</ele><time>2026-05-01T10:16:27Z</time></trkpt><trkpt lat="40.049886040448264" lon="9.644113386824394"><ele>517.6666666666666</ele><time>2026-05-01T10:16:28Z</time></trkpt><trkpt lat="40.04977920896453" lon="9.644336830081174"><ele>515.0</ele><time>2026-05-01T10:16:29Z</time></trkpt><trkpt lat="40.04965371052531" lon="9.644563338477269"><ele>515.0</ele><time>2026-05-01T10:16:30Z</time></trkpt><trkpt lat="40.04952238663567" lon="9.644798651071502"><ele>515.0</ele><time>2026-05-01T10:16:31Z</time></trkpt><trkpt lat="40.04938378849105" lon="9.64503459104159"><ele>515.0</ele><time>2026-05-01T10:16:32Z</time></trkpt><trkpt lat="40.04925531805199" lon="9.645255111429716"><ele>515.0</ele><time>2026-05-01T10:16:33Z</time></trkpt><trkpt lat="40.049128317768194" lon="9.645475585040614"><ele>515.0</ele><time>2026-05-01T10:16:34Z</time></trkpt><trkpt lat="40.04899972661703" lon="9.645700949893472"><ele>515.6666666666666</ele><time>2026-05-01T10:16:35Z</time></trkpt><trkpt lat="40.048873523014244" lon="9.645933917404893"><ele>516.3333333333334</ele><time>2026-05-01T10:16:36Z</time></trkpt><trkpt lat="40.0487481576178" lon="9.646165333522651"><ele>517.0</ele><time>2026-05-01T10:16:37Z</time></trkpt><trkpt lat="40.048629555864345" lon="9.646388675762257"><ele>517.0</ele><time>2026-05-01T10:16:38Z</time></trkpt><trkpt lat="40.048515614633125" lon="9.646604010223294"><ele>517.0</ele><time>2026-05-01T10:16:39Z</time></trkpt><trkpt lat="40.04840785107746" lon="9.646811209927248"><ele>517.0</ele><time>2026-05-01T10:16:40Z</time></trkpt><trkpt lat="40.04830237244592" lon="9.647003515159774"><ele>503.0</ele><time>2026-05-01T10:16:41Z</time></trkpt><trkpt lat="40.04819708842579" lon="9.647181042270345"><ele>489.0</ele><time>2026-05-01T10:16:42Z</time></trkpt><trkpt lat="40.04809925269562" lon="9.64737141751108"><ele>475.0</ele><time>2026-05-01T10:16:43Z</time></trkpt><trkpt lat="40.04802386934712" lon="9.647586641128239"><ele>481.0</ele><time>2026-05-01T10:16:44Z</time></trkpt><trkpt lat="40.04797586414526" lon="9.647824401025158"><ele>487.0</ele><time>2026-05-01T10:16:45Z</time></trkpt><trkpt lat="40.047933428359514" lon="9.64806930792912"><ele>493.0</ele><time>2026-05-01T10:16:46Z</time></trkpt><trkpt lat="40.047883729423575" lon="9.648302426667984"><ele>493.0</ele><time>2026-05-01T10:16:47Z</time></trkpt><trkpt lat="40.047822698186316" lon="9.648529288804541"><ele>493.0</ele><time>2026-05-01T10:16:48Z</time></trkpt><trkpt lat="40.0477399409106" lon="9.648731657045763"><ele>493.0</ele><time>2026-05-01T10:16:49Z</time></trkpt><trkpt lat="40.04764608157221" lon="9.648906550757824"><ele>490.6666666666667</ele><time>2026-05-01T10:16:50Z</time></trkpt><trkpt lat="40.04752375012914" lon="9.649031481462673"><ele>488.33333333333337</ele><time>2026-05-01T10:16:51Z</time></trkpt><trkpt lat="40.04736139136264" lon="9.649103478829039"><ele>486.0</ele><time>2026-05-01T10:16:52Z</time></trkpt><trkpt lat="40.0471915011831" lon="9.649177733318602"><ele>486.0</ele><time>2026-05-01T10:16:53Z</time></trkpt><trkpt lat="40.04704767299539" lon="9.649310183284989"><ele>486.0</ele><time>2026-05-01T10:16:54Z</time></trkpt><trkpt lat="40.04690558584507" lon="9.649459840781246"><ele>486.0</ele><time>2026-05-01T10:16:55Z</time></trkpt><trkpt lat="40.046757522005805" lon="9.649608853437407"><ele>480.0</ele><time>2026-05-01T10:16:56Z</time></trkpt><trkpt lat="40.04664482557392" lon="9.649898326676215"><ele>474.0</ele><time>2026-05-01T10:16:57Z</time></trkpt><trkpt lat="40.04650671825614" lon="9.650109554645981"><ele>480.66666666666663</ele><time>2026-05-01T10:16:58Z</time></trkpt><trkpt lat="40.046361931251944" lon="9.650317843029459"><ele>487.3333333333333</ele><time>2026-05-01T10:16:59Z</time></trkpt><trkpt lat="40.04621501727875" lon="9.650524667092903"><ele>494.0</ele><time>2026-05-01T10:17:00Z</time></trkpt><trkpt lat="40.046070791113955" lon="9.650734056557376"><ele>494.0</ele><time>2026-05-01T10:17:01Z</time></trkpt><trkpt lat="40.04593614809267" lon="9.65093018388116"><ele>494.0</ele><time>2026-05-01T10:17:02Z</time></trkpt><trkpt lat="40.04581090836317" lon="9.65111644395213"><ele>494.0</ele><time>2026-05-01T10:17:03Z</time></trkpt><trkpt lat="40.04569201322893" lon="9.651303485935324"><ele>487.3333333333333</ele><time>2026-05-01T10:17:04Z</time></trkpt><trkpt lat="40.04557798641748" lon="9.651502370733656"><ele>480.66666666666663</ele><time>2026-05-01T10:17:05Z</time></trkpt><trkpt lat="40.045479813638686" lon="9.651716832658861"><ele>474.0</ele><time>2026-05-01T10:17:06Z</time></trkpt><trkpt lat="40.045391713711695" lon="9.65193993487607"><ele>479.66666666666663</ele><time>2026-05-01T10:17:07Z</time></trkpt><trkpt lat="40.045302554152315" lon="9.65216822779809"><ele>485.3333333333333</ele><time>2026-05-01T10:17:08Z</time></trkpt><trkpt lat="40.04520653645811" lon="9.652393188873619"><ele>491.0</ele><time>2026-05-01T10:17:09Z</time></trkpt><trkpt lat="40.04511184537613" lon="9.652604958829338"><ele>485.66666666666663</ele><time>2026-05-01T10:17:10Z</time></trkpt><trkpt lat="40.04502525656968" lon="9.652805842475143"><ele>480.33333333333337</ele><time>2026-05-01T10:17:11Z</time></trkpt><trkpt lat="40.044928504497264" lon="9.652981482492056"><ele>475.0</ele><time>2026-05-01T10:17:12Z</time></trkpt><trkpt lat="40.044837939202544" lon="9.653165516920973"><ele>475.0</ele><time>2026-05-01T10:17:13Z</time></trkpt><trkpt lat="40.04474578881209" lon="9.653351986664955"><ele>475.0</ele><time>2026-05-01T10:17:14Z</time></trkpt><trkpt lat="40.044651653546346" lon="9.653537792370896"><ele>475.0</ele><time>2026-05-01T10:17:15Z</time></trkpt><trkpt lat="40.04455388399449" lon="9.65374435347507"><ele>484.0</ele><time>2026-05-01T10:17:16Z</time></trkpt><trkpt lat="40.044449713542186" lon="9.653933676257132"><ele>493.0</ele><time>2026-05-01T10:17:17Z</time></trkpt><trkpt lat="40.04433626051634" lon="9.654125086412913"><ele>502.0</ele><time>2026-05-01T10:17:18Z</time></trkpt><trkpt lat="40.0441865366728" lon="9.65428673620578"><ele>500.6666666666667</ele><time>2026-05-01T10:17:19Z</time></trkpt><trkpt lat="40.04402796665704" lon="9.654442235423147"><ele>499.33333333333337</ele><time>2026-05-01T10:17:20Z</time></trkpt><trkpt lat="40.043853688757416" lon="9.654573241554596"><ele>498.0</ele><time>2026-05-01T10:17:21Z</time></trkpt><trkpt lat="40.04368764723668" lon="9.654696939290675"><ele>498.0</ele><time>2026-05-01T10:17:22Z</time></trkpt><trkpt lat="40.0435217303639" lon="9.654820040291133"><ele>498.0</ele><time>2026-05-01T10:17:23Z</time></trkpt><trkpt lat="40.04336608319743" lon="9.654935494679648"><ele>498.0</ele><time>2026-05-01T10:17:24Z</time></trkpt><trkpt lat="40.04323032184266" lon="9.655051799993721"><ele>498.75</ele><time>2026-05-01T10:17:25Z</time></trkpt><trkpt lat="40.04309359588346" lon="9.655149676453574"><ele>499.5</ele><time>2026-05-01T10:17:26Z</time></trkpt><trkpt lat="40.04296279423741" lon="9.65523512788059"><ele>500.25</ele><time>2026-05-01T10:17:27Z</time></trkpt><trkpt lat="40.0428351775576" lon="9.655318815550803"><ele>501.0</ele><time>2026-05-01T10:17:28Z</time></trkpt><trkpt lat="40.04271689311279" lon="9.655405429344057"><ele>501.0</ele><time>2026-05-01T10:17:29Z</time></trkpt><trkpt lat="40.04259446506742" lon="9.655519157198169"><ele>501.0</ele><time>2026-05-01T10:17:30Z</time></trkpt><trkpt lat="40.04248146769885" lon="9.65563507927093"><ele>501.0</ele><time>2026-05-01T10:17:31Z</time></trkpt><trkpt lat="40.04240911580362" lon="9.655818193136257"><ele>501.5</ele><time>2026-05-01T10:17:32Z</time></trkpt><trkpt lat="40.04233693410188" lon="9.65597701736525"><ele>502.0</ele><time>2026-05-01T10:17:33Z</time></trkpt><trkpt lat="40.04224385310276" lon="9.656098268010464"><ele>502.5</ele><time>2026-05-01T10:17:34Z</time></trkpt><trkpt lat="40.04213494133954" lon="9.656186399432961"><ele>503.0</ele><time>2026-05-01T10:17:35Z</time></trkpt><trkpt lat="40.04202627408815" lon="9.656243678893269"><ele>503.0</ele><time>2026-05-01T10:17:36Z</time></trkpt><trkpt lat="40.04192116654442" lon="9.656274384930118"><ele>502.99999999999994</ele><time>2026-05-01T10:17:37Z</time></trkpt><trkpt lat="40.04180883440863" lon="9.656308364915992"><ele>502.99999999999994</ele><time>2026-05-01T10:17:38Z</time></trkpt><trkpt lat="40.04171275648975" lon="9.656332845683593"><ele>503.0</ele><time>2026-05-01T10:17:39Z</time></trkpt><trkpt lat="40.04162120002389" lon="9.656372023090139"><ele>503.0</ele><time>2026-05-01T10:17:40Z</time></trkpt><trkpt lat="40.04152688046104" lon="9.656428141397784"><ele>499.5</ele><time>2026-05-01T10:17:41Z</time></trkpt><trkpt lat="40.04143731981815" lon="9.656498010737863"><ele>496.0</ele><time>2026-05-01T10:17:42Z</time></trkpt><trkpt lat="40.04134014599822" lon="9.656580180603829"><ele>492.5</ele><time>2026-05-01T10:17:43Z</time></trkpt><trkpt lat="40.04123744777938" lon="9.656653103776536"><ele>489.0</ele><time>2026-05-01T10:17:44Z</time></trkpt><trkpt lat="40.041121361513135" lon="9.656736162243153"><ele>489.0</ele><time>2026-05-01T10:17:45Z</time></trkpt><trkpt lat="40.04101215189597" lon="9.656814293766987"><ele>489.0</ele><time>2026-05-01T10:17:46Z</time></trkpt><trkpt lat="40.04091462632793" lon="9.656889836489091"><ele>489.0</ele><time>2026-05-01T10:17:47Z</time></trkpt><trkpt lat="40.04082787066624" lon="9.656968581941719"><ele>489.0</ele><time>2026-05-01T10:17:48Z</time></trkpt><trkpt lat="40.04073091382414" lon="9.65704712646724"><ele>491.25</ele><time>2026-05-01T10:17:49Z</time></trkpt><trkpt lat="40.04062341287539" lon="9.657110662532755"><ele>493.5</ele><time>2026-05-01T10:17:50Z</time></trkpt><trkpt lat="40.040521218672865" lon="9.657194586034615"><ele>495.75</ele><time>2026-05-01T10:17:51Z</time></trkpt><trkpt lat="40.04040804072318" lon="9.657288639681042"><ele>498.0</ele><time>2026-05-01T10:17:52Z</time></trkpt><trkpt lat="40.04029475830803" lon="9.657374050958415"><ele>498.0</ele><time>2026-05-01T10:17:53Z</time></trkpt><trkpt lat="40.04018930885198" lon="9.657460485474463"><ele>498.0</ele><time>2026-05-01T10:17:54Z</time></trkpt><trkpt lat="40.040078775552786" lon="9.657534543019269"><ele>498.0</ele><time>2026-05-01T10:17:55Z</time></trkpt><trkpt lat="40.03995978993105" lon="9.657575975029573"><ele>498.0</ele><time>2026-05-01T10:17:56Z</time></trkpt><trkpt lat="40.03984121173166" lon="9.657612652223106"><ele>493.75</ele><time>2026-05-01T10:17:57Z</time></trkpt><trkpt lat="40.03971820379681" lon="9.657654193972562"><ele>489.5</ele><time>2026-05-01T10:17:58Z</time></trkpt><trkpt lat="40.03959062149628" lon="9.657702747560673"><ele>485.25</ele><time>2026-05-01T10:17:59Z</time></trkpt><trkpt lat="40.0394640838415" lon="9.657739670162686"><ele>481.0</ele><time>2026-05-01T10:18:00Z</time></trkpt><trkpt lat="40.03935920105736" lon="9.657790064057012"><ele>487.20000000000005</ele><time>2026-05-01T10:18:01Z</time></trkpt><trkpt lat="40.03925837882041" lon="9.65782297589906"><ele>493.40000000000003</ele><time>2026-05-01T10:18:02Z</time></trkpt><trkpt lat="40.03917638372582" lon="9.65786478415478"><ele>499.6</ele><time>2026-05-01T10:18:03Z</time></trkpt><trkpt lat="40.03908521366274" lon="9.657896909080264"><ele>505.8</ele><time>2026-05-01T10:18:04Z</time></trkpt><trkpt lat="40.03898541616609" lon="9.657947803899106"><ele>512.0</ele><time>2026-05-01T10:18:05Z</time></trkpt><trkpt lat="40.03888990143352" lon="9.657981716404144"><ele>511.99999999999994</ele><time>2026-05-01T10:18:06Z</time></trkpt><trkpt lat="40.038793790374015" lon="9.65801425447827"><ele>512.0</ele><time>2026-05-01T10:18:07Z</time></trkpt><trkpt lat="40.0386944156776" lon="9.658042659231757"><ele>512.0</ele><time>2026-05-01T10:18:08Z</time></trkpt><trkpt lat="40.038600751687305" lon="9.658051332481426"><ele>512.0</ele><time>2026-05-01T10:18:09Z</time></trkpt><trkpt lat="40.03851979120364" lon="9.658047770312777"><ele>511.99999999999994</ele><time>2026-05-01T10:18:10Z</time></trkpt><trkpt lat="40.03844995086464" lon="9.658046763389956"><ele>512.0</ele><time>2026-05-01T10:18:11Z</time></trkpt><trkpt lat="40.03838621357026" lon="9.658052575662735"><ele>511.99999999999994</ele><time>2026-05-01T10:18:12Z</time></trkpt><trkpt lat="40.0383242293434" lon="9.658072540464852"><ele>512.0</ele><time>2026-05-01T10:18:13Z</time></trkpt><trkpt lat="40.03825295914621" lon="9.658065366072602"><ele>512.0</ele><time>2026-05-01T10:18:14Z</time></trkpt><trkpt lat="40.0381784349691" lon="9.658079502033399"><ele>512.0</ele><time>2026-05-01T10:18:15Z</time></trkpt><trkpt lat="40.038112064859874" lon="9.658216571249593"><ele>511.99999999999994</ele><time>2026-05-01T10:18:16Z</time></trkpt><trkpt lat="40.03802756280986" lon="9.65825178390047"><ele>512.0</ele><time>2026-05-01T10:18:17Z</time></trkpt><trkpt lat="40.03794085720252" lon="9.658283977026992"><ele>509.66666666666663</ele><time>2026-05-01T10:18:18Z</time></trkpt><trkpt lat="40.037853439963285" lon="9.658315861654057"><ele>507.3333333333333</ele><time>2026-05-01T10:18:19Z</time></trkpt><trkpt lat="40.03776701870933" lon="9.658358455327384"><ele>505.0</ele><time>2026-05-01T10:18:20Z</time></trkpt><trkpt lat="40.03768542622546" lon="9.65840565980557"><ele>502.66666666666663</ele><time>2026-05-01T10:18:21Z</time></trkpt><trkpt lat="40.0376112561606" lon="9.658451024206832"><ele>500.3333333333333</ele><time>2026-05-01T10:18:22Z</time></trkpt><trkpt lat="40.03754899676761" lon="9.658485987199494"><ele>498.0</ele><time>2026-05-01T10:18:23Z</time></trkpt><trkpt lat="40.037494414964534" lon="9.658530991111705"><ele>497.59999999999997</ele><time>2026-05-01T10:18:24Z</time></trkpt><trkpt lat="40.037374046825256" lon="9.658604194199901"><ele>497.19999999999993</ele><time>2026-05-01T10:18:26Z</time></trkpt><trkpt lat="40.03730102744444" lon="9.658649082569434"><ele>496.8</ele><time>2026-05-01T10:18:27Z</time></trkpt><trkpt lat="40.03722911580694" lon="9.658697288387092"><ele>496.4</ele><time>2026-05-01T10:18:28Z</time></trkpt><trkpt lat="40.03714861377837" lon="9.658746965504402"><ele>496.0</ele><time>2026-05-01T10:18:29Z</time></trkpt><trkpt lat="40.03705015859285" lon="9.658770401563133"><ele>496.50000000000006</ele><time>2026-05-01T10:18:30Z</time></trkpt><trkpt lat="40.03697661082017" lon="9.658821628436645"><ele>497.0</ele><time>2026-05-01T10:18:31Z</time></trkpt><trkpt lat="40.036896088717086" lon="9.658854485966138"><ele>497.5</ele><time>2026-05-01T10:18:32Z</time></trkpt><trkpt lat="40.03681146355987" lon="9.658867232596796"><ele>498.0</ele><time>2026-05-01T10:18:33Z</time></trkpt><trkpt lat="40.03673570855379" lon="9.658917513890533"><ele>498.50000000000006</ele><time>2026-05-01T10:18:34Z</time></trkpt><trkpt lat="40.03664899548043" lon="9.65894477180992"><ele>499.0</ele><time>2026-05-01T10:18:35Z</time></trkpt><trkpt lat="40.03655999292557" lon="9.658980971514392"><ele>499.0</ele><time>2026-05-01T10:18:36Z</time></trkpt><trkpt lat="40.03648501177558" lon="9.659007784950544"><ele>499.0</ele><time>2026-05-01T10:18:37Z</time></trkpt><trkpt lat="40.036392194496564" lon="9.6590383792886"><ele>499.0</ele><time>2026-05-01T10:18:39Z</time></trkpt><trkpt lat="40.03627730487855" lon="9.65906995282379"><ele>499.0</ele><time>2026-05-01T10:18:41Z</time></trkpt><trkpt lat="40.03619913727873" lon="9.659117954891844"><ele>499.0</ele><time>2026-05-01T10:18:42Z</time></trkpt><trkpt lat="40.036130780907186" lon="9.659233738626293"><ele>499.0</ele><time>2026-05-01T10:18:43Z</time></trkpt><trkpt lat="40.03606841968798" lon="9.659338593840868"><ele>499.0</ele><time>2026-05-01T10:18:44Z</time></trkpt><trkpt lat="40.03600277502102" lon="9.659441944050574"><ele>499.0</ele><time>2026-05-01T10:18:45Z</time></trkpt><trkpt lat="40.03595456904304" lon="9.659568499371852"><ele>499.0</ele><time>2026-05-01T10:18:46Z</time></trkpt><trkpt lat="40.03588660325992" lon="9.659677498644509"><ele>499.0</ele><time>2026-05-01T10:18:47Z</time></trkpt><trkpt lat="40.03584614458596" lon="9.659793538759523"><ele>493.0</ele><time>2026-05-01T10:18:48Z</time></trkpt><trkpt lat="40.03578642088873" lon="9.659907543190107"><ele>487.0</ele><time>2026-05-01T10:18:49Z</time></trkpt><trkpt lat="40.03570666332731" lon="9.66002725187004"><ele>481.0</ele><time>2026-05-01T10:18:50Z</time></trkpt><trkpt lat="40.03552401813021" lon="9.660227850428077"><ele>486.4</ele><time>2026-05-01T10:18:52Z</time></trkpt><trkpt lat="40.03544875975809" lon="9.660329809668646"><ele>491.8</ele><time>2026-05-01T10:18:53Z</time></trkpt><trkpt lat="40.03537452836603" lon="9.66043203144821"><ele>497.19999999999993</ele><time>2026-05-01T10:18:54Z</time></trkpt><trkpt lat="40.03529782125008" lon="9.660529392747128"><ele>502.59999999999997</ele><time>2026-05-01T10:18:55Z</time></trkpt><trkpt lat="40.03522460457583" lon="9.660618264708345"><ele>508.0</ele><time>2026-05-01T10:18:56Z</time></trkpt><trkpt lat="40.03514612289577" lon="9.660710894619568"><ele>508.0</ele><time>2026-05-01T10:18:57Z</time></trkpt><trkpt lat="40.03505835924701" lon="9.66079255843926"><ele>508.0</ele><time>2026-05-01T10:18:58Z</time></trkpt><trkpt lat="40.034976436644996" lon="9.660875669479823"><ele>508.0</ele><time>2026-05-01T10:18:59Z</time></trkpt><trkpt lat="40.034894505595716" lon="9.66095514388372"><ele>508.0</ele><time>2026-05-01T10:19:00Z</time></trkpt><trkpt lat="40.03487090676437" lon="9.661141906497416"><ele>509.5</ele><time>2026-05-01T10:19:01Z</time></trkpt><trkpt lat="40.034781272719364" lon="9.66126612459126"><ele>511.0</ele><time>2026-05-01T10:19:02Z</time></trkpt><trkpt lat="40.03468826313043" lon="9.661384951916423"><ele>512.5</ele><time>2026-05-01T10:19:03Z</time></trkpt><trkpt lat="40.0346041039619" lon="9.661498343055467"><ele>514.0</ele><time>2026-05-01T10:19:04Z</time></trkpt><trkpt lat="40.03452132942833" lon="9.66160594025645"><ele>514.0</ele><time>2026-05-01T10:19:05Z</time></trkpt><trkpt lat="40.034444524408165" lon="9.661719607237881"><ele>514.0</ele><time>2026-05-01T10:19:06Z</time></trkpt><trkpt lat="40.0343728065669" lon="9.661831334005138"><ele>514.0</ele><time>2026-05-01T10:19:07Z</time></trkpt><trkpt lat="40.03430116252262" lon="9.661937590579374"><ele>514.0</ele><time>2026-05-01T10:19:08Z</time></trkpt><trkpt lat="40.03422198587865" lon="9.66202291865593"><ele>514.0</ele><time>2026-05-01T10:19:09Z</time></trkpt><trkpt lat="40.03412534677128" lon="9.662083881990611"><ele>512.5</ele><time>2026-05-01T10:19:10Z</time></trkpt><trkpt lat="40.03402863239966" lon="9.662153602795565"><ele>511.0</ele><time>2026-05-01T10:19:11Z</time></trkpt><trkpt lat="40.03392248714966" lon="9.662229987204206"><ele>509.5</ele><time>2026-05-01T10:19:12Z</time></trkpt><trkpt lat="40.03380942147871" lon="9.662321862368769"><ele>508.0</ele><time>2026-05-01T10:19:13Z</time></trkpt><trkpt lat="40.033718761918834" lon="9.662460571018375"><ele>508.0</ele><time>2026-05-01T10:19:14Z</time></trkpt><trkpt lat="40.03363345552935" lon="9.662614646844746"><ele>508.0</ele><time>2026-05-01T10:19:15Z</time></trkpt><trkpt lat="40.033549729896166" lon="9.662776181137506"><ele>508.0</ele><time>2026-05-01T10:19:16Z</time></trkpt><trkpt lat="40.03346478623713" lon="9.662936787379879"><ele>508.0</ele><time>2026-05-01T10:19:17Z</time></trkpt><trkpt lat="40.03338098402524" lon="9.66310215193992"><ele>507.0</ele><time>2026-05-01T10:19:18Z</time></trkpt><trkpt lat="40.0333053492313" lon="9.663268044827955"><ele>506.0</ele><time>2026-05-01T10:19:19Z</time></trkpt><trkpt lat="40.033224255902915" lon="9.66340439321094"><ele>505.0</ele><time>2026-05-01T10:19:20Z</time></trkpt><trkpt lat="40.03316762033088" lon="9.663521105902715"><ele>504.0</ele><time>2026-05-01T10:19:21Z</time></trkpt><trkpt lat="40.03312853199548" lon="9.663602148978708"><ele>507.3333333333333</ele><time>2026-05-01T10:19:22Z</time></trkpt><trkpt lat="40.03310564779299" lon="9.663685701167386"><ele>510.66666666666663</ele><time>2026-05-01T10:19:24Z</time></trkpt><trkpt lat="40.033226509753945" lon="9.663708393357897"><ele>514.0</ele><time>2026-05-01T10:19:28Z</time></trkpt><trkpt lat="40.03326339255933" lon="9.663631743391614"><ele>517.3333333333333</ele><time>2026-05-01T10:19:29Z</time></trkpt><trkpt lat="40.033328095235966" lon="9.663553270266156"><ele>520.6666666666666</ele><time>2026-05-01T10:19:30Z</time></trkpt><trkpt lat="40.03339294582282" lon="9.663470505126165"><ele>524.0</ele><time>2026-05-01T10:19:31Z</time></trkpt><trkpt lat="40.03346835462522" lon="9.66338001430964"><ele>526.75</ele><time>2026-05-01T10:19:32Z</time></trkpt><trkpt lat="40.03356304097807" lon="9.66327156244691"><ele>529.5</ele><time>2026-05-01T10:19:33Z</time></trkpt><trkpt lat="40.03366758208308" lon="9.663166141205831"><ele>532.25</ele><time>2026-05-01T10:19:34Z</time></trkpt><trkpt lat="40.03377656514023" lon="9.66308621333368"><ele>535.0</ele><time>2026-05-01T10:19:35Z</time></trkpt><trkpt lat="40.03388366428954" lon="9.663034054970614"><ele>535.0</ele><time>2026-05-01T10:19:36Z</time></trkpt><trkpt lat="40.033988321686316" lon="9.663005102765734"><ele>535.0</ele><time>2026-05-01T10:19:37Z</time></trkpt><trkpt lat="40.03411213001115" lon="9.662986121167181"><ele>535.0</ele><time>2026-05-01T10:19:38Z</time></trkpt><trkpt lat="40.034395308063054" lon="9.66294987224011"><ele>542.5</ele><time>2026-05-01T10:19:40Z</time></trkpt><trkpt lat="40.03453579843156" lon="9.662938673964309"><ele>550.0</ele><time>2026-05-01T10:19:41Z</time></trkpt><trkpt lat="40.03465273498464" lon="9.662921339129419"><ele>557.5</ele><time>2026-05-01T10:19:42Z</time></trkpt><trkpt lat="40.034723421093986" lon="9.66291303820609"><ele>565.0</ele><time>2026-05-01T10:19:43Z</time></trkpt><trkpt lat="40.03468832856782" lon="9.663083089374911"><ele>565.0</ele><time>2026-05-01T10:19:46Z</time></trkpt><trkpt lat="40.03462305547445" lon="9.663111328829881"><ele>565.0</ele><time>2026-05-01T10:19:47Z</time></trkpt><trkpt lat="40.03453417628319" lon="9.663196255137128"><ele>565.0</ele><time>2026-05-01T10:19:48Z</time></trkpt><trkpt lat="40.03443105974551" lon="9.663321308172556"><ele>565.0</ele><time>2026-05-01T10:19:49Z</time></trkpt><trkpt lat="40.034332862518866" lon="9.66345221008968"><ele>565.0</ele><time>2026-05-01T10:19:50Z</time></trkpt><trkpt lat="40.034243143262586" lon="9.663581824408212"><ele>565.0</ele><time>2026-05-01T10:19:51Z</time></trkpt><trkpt lat="40.03417286918769" lon="9.663685788028394"><ele>565.0</ele><time>2026-05-01T10:19:52Z</time></trkpt><trkpt lat="40.034106941770226" lon="9.663782780891738"><ele>565.0</ele><time>2026-05-01T10:19:53Z</time></trkpt><trkpt lat="40.03403964724737" lon="9.663881784981472"><ele>565.0</ele><time>2026-05-01T10:19:54Z</time></trkpt><trkpt lat="40.03396256894721" lon="9.663978954080871"><ele>563.5</ele><time>2026-05-01T10:19:55Z</time></trkpt><trkpt lat="40.03388168252123" lon="9.664070438530915"><ele>562.0</ele><time>2026-05-01T10:19:56Z</time></trkpt><trkpt lat="40.03379343339324" lon="9.664158246818529"><ele>560.5</ele><time>2026-05-01T10:19:57Z</time></trkpt><trkpt lat="40.033701413218246" lon="9.66423148207915"><ele>559.0</ele><time>2026-05-01T10:19:58Z</time></trkpt><trkpt lat="40.03358600143371" lon="9.664297446401871"><ele>559.0</ele><time>2026-05-01T10:19:59Z</time></trkpt><trkpt lat="40.033495918337195" lon="9.664387107708533"><ele>559.0</ele><time>2026-05-01T10:20:00Z</time></trkpt><trkpt lat="40.033446511823726" lon="9.664547127588975"><ele>559.0</ele><time>2026-05-01T10:20:01Z</time></trkpt><trkpt lat="40.03337786023764" lon="9.66466175756512"><ele>559.0</ele><time>2026-05-01T10:20:02Z</time></trkpt><trkpt lat="40.03332641954228" lon="9.664767554953231"><ele>556.4</ele><time>2026-05-01T10:20:03Z</time></trkpt><trkpt lat="40.03326629607858" lon="9.664871060429574"><ele>553.8</ele><time>2026-05-01T10:20:05Z</time></trkpt><trkpt lat="40.03323377915696" lon="9.664953914648486"><ele>551.2</ele><time>2026-05-01T10:20:08Z</time></trkpt><trkpt lat="40.03318244669746" lon="9.665023382334395"><ele>548.6</ele><time>2026-05-01T10:20:10Z</time></trkpt><trkpt lat="40.03322380379909" lon="9.665124731224168"><ele>546.0</ele><time>2026-05-01T10:20:12Z</time></trkpt><trkpt lat="40.03334936712085" lon="9.665070420578978"><ele>554.2</ele><time>2026-05-01T10:20:14Z</time></trkpt><trkpt lat="40.03344298688578" lon="9.66491465355916"><ele>562.4000000000001</ele><time>2026-05-01T10:20:16Z</time></trkpt><trkpt lat="40.03352871779424" lon="9.664835881234586"><ele>570.6</ele><time>2026-05-01T10:20:17Z</time></trkpt><trkpt lat="40.033610182661604" lon="9.664792579659874"><ele>578.8000000000001</ele><time>2026-05-01T10:20:18Z</time></trkpt><trkpt lat="40.033672125594975" lon="9.664730106162269"><ele>587.0</ele><time>2026-05-01T10:20:19Z</time></trkpt><trkpt lat="40.03371220574775" lon="9.664658333826505"><ele>587.0</ele><time>2026-05-01T10:20:20Z</time></trkpt><trkpt lat="40.03376675938625" lon="9.664604348386577"><ele>587.0</ele><time>2026-05-01T10:20:22Z</time></trkpt><trkpt lat="40.03381604929724" lon="9.664689382563441"><ele>587.0</ele><time>2026-05-01T10:20:25Z</time></trkpt><trkpt lat="40.03374974931888" lon="9.664757593541147"><ele>587.0</ele><time>2026-05-01T10:20:27Z</time></trkpt><trkpt lat="40.03370103994364" lon="9.664846284753871"><ele>587.0</ele><time>2026-05-01T10:20:28Z</time></trkpt><trkpt lat="40.03365219191831" lon="9.66492906891942"><ele>587.0</ele><time>2026-05-01T10:20:29Z</time></trkpt><trkpt lat="40.03360304976712" lon="9.665004193736493"><ele>587.0</ele><time>2026-05-01T10:20:30Z</time></trkpt><trkpt lat="40.03355839006574" lon="9.665072466006794"><ele>587.0</ele><time>2026-05-01T10:20:31Z</time></trkpt><trkpt lat="40.03352358031353" lon="9.665143313254012"><ele>587.0</ele><time>2026-05-01T10:20:32Z</time></trkpt><trkpt lat="40.033448667479384" lon="9.665279751046684"><ele>587.0</ele><time>2026-05-01T10:20:34Z</time></trkpt><trkpt lat="40.03337773110834" lon="9.665325119251774"><ele>587.0</ele><time>2026-05-01T10:20:35Z</time></trkpt><trkpt lat="40.03329456930245" lon="9.665347233032689"><ele>587.0</ele><time>2026-05-01T10:20:36Z</time></trkpt><trkpt lat="40.03320801827911" lon="9.665373999535554"><ele>583.2</ele><time>2026-05-01T10:20:37Z</time></trkpt><trkpt lat="40.03314670671308" lon="9.665423343703587"><ele>579.4000000000001</ele><time>2026-05-01T10:20:38Z</time></trkpt><trkpt lat="40.03311553221294" lon="9.665542593895674"><ele>575.5999999999999</ele><time>2026-05-01T10:20:39Z</time></trkpt><trkpt lat="40.033140647558064" lon="9.665667615546651"><ele>571.8</ele><time>2026-05-01T10:20:40Z</time></trkpt><trkpt lat="40.03313312207" lon="9.665810310583506"><ele>568.0</ele><time>2026-05-01T10:20:42Z</time></trkpt><trkpt lat="40.03320070965128" lon="9.66590326706921"><ele>580.0</ele><time>2026-05-01T10:20:44Z</time></trkpt><trkpt lat="40.03332307480252" lon="9.665845735910938"><ele>592.0</ele><time>2026-05-01T10:20:46Z</time></trkpt><trkpt lat="40.033398476528355" lon="9.665740428333025"><ele>604.0</ele><time>2026-05-01T10:20:47Z</time></trkpt><trkpt lat="40.03348790806698" lon="9.665615860401642"><ele>616.0</ele><time>2026-05-01T10:20:48Z</time></trkpt><trkpt lat="40.03356463345046" lon="9.665538008980578"><ele>616.0</ele><time>2026-05-01T10:20:49Z</time></trkpt><trkpt lat="40.03362329025618" lon="9.665462931602924"><ele>616.0</ele><time>2026-05-01T10:20:51Z</time></trkpt><trkpt lat="40.03370809332305" lon="9.665435727107718"><ele>616.0</ele><time>2026-05-01T10:20:54Z</time></trkpt><trkpt lat="40.03366014064678" lon="9.665561855025002"><ele>616.0</ele><time>2026-05-01T10:20:56Z</time></trkpt><trkpt lat="40.0335889158388" lon="9.665664088285572"><ele>616.0</ele><time>2026-05-01T10:20:57Z</time></trkpt><trkpt lat="40.03353326877155" lon="9.66580651739851"><ele>616.0</ele><time>2026-05-01T10:20:58Z</time></trkpt><trkpt lat="40.03347250581967" lon="9.665907150387161"><ele>616.0</ele><time>2026-05-01T10:20:59Z</time></trkpt><trkpt lat="40.03340545529466" lon="9.665971091211448"><ele>616.0</ele><time>2026-05-01T10:21:00Z</time></trkpt><trkpt lat="40.03334331180997" lon="9.666033239515052"><ele>616.0</ele><time>2026-05-01T10:21:01Z</time></trkpt><trkpt lat="40.033294866009875" lon="9.66610074943024"><ele>616.0</ele><time>2026-05-01T10:21:02Z</time></trkpt><trkpt lat="40.03322639666833" lon="9.666157581525793"><ele>616.0</ele><time>2026-05-01T10:21:03Z</time></trkpt><trkpt lat="40.03316319214213" lon="9.666226248471993"><ele>614.0</ele><time>2026-05-01T10:21:04Z</time></trkpt><trkpt lat="40.03307993554171" lon="9.666343268100297"><ele>612.0</ele><time>2026-05-01T10:21:06Z</time></trkpt><trkpt lat="40.033061252030194" lon="9.666479949443728"><ele>610.0</ele><time>2026-05-01T10:21:08Z</time></trkpt><trkpt lat="40.033185951689" lon="9.666512303233867"><ele>608.0</ele><time>2026-05-01T10:21:10Z</time></trkpt><trkpt lat="40.03325868708908" lon="9.666437814936554"><ele>606.0</ele><time>2026-05-01T10:21:11Z</time></trkpt><trkpt lat="40.0333450275753" lon="9.666309312091784"><ele>609.3333333333334</ele><time>2026-05-01T10:21:12Z</time></trkpt><trkpt lat="40.03347054518124" lon="9.666149034064857"><ele>612.6666666666667</ele><time>2026-05-01T10:21:13Z</time></trkpt><trkpt lat="40.03365165553624" lon="9.666012950609778"><ele>616.0</ele><time>2026-05-01T10:21:14Z</time></trkpt><trkpt lat="40.033806392697585" lon="9.66586357754761"><ele>616.0</ele><time>2026-05-01T10:21:15Z</time></trkpt><trkpt lat="40.033928575522225" lon="9.665766689830447"><ele>616.0</ele><time>2026-05-01T10:21:16Z</time></trkpt><trkpt lat="40.034025605477424" lon="9.665692867861944"><ele>616.0</ele><time>2026-05-01T10:21:17Z</time></trkpt><trkpt lat="40.034131859086564" lon="9.66564703449925"><ele>616.0</ele><time>2026-05-01T10:21:18Z</time></trkpt><trkpt lat="40.034245046258725" lon="9.665604190677765"><ele>619.0</ele><time>2026-05-01T10:21:19Z</time></trkpt><trkpt lat="40.03434495078217" lon="9.665525215789462"><ele>622.0</ele><time>2026-05-01T10:21:20Z</time></trkpt><trkpt lat="40.034435400914255" lon="9.665412164770768"><ele>625.0</ele><time>2026-05-01T10:21:21Z</time></trkpt><trkpt lat="40.03451072689766" lon="9.66530020150315"><ele>628.0</ele><time>2026-05-01T10:21:22Z</time></trkpt><trkpt lat="40.0345933510504" lon="9.665204206782649"><ele>628.0</ele><time>2026-05-01T10:21:23Z</time></trkpt><trkpt lat="40.03466865796382" lon="9.665113533298515"><ele>628.0</ele><time>2026-05-01T10:21:24Z</time></trkpt><trkpt lat="40.034734037057696" lon="9.665044034347785"><ele>628.0</ele><time>2026-05-01T10:21:25Z</time></trkpt><trkpt lat="40.03480680236376" lon="9.665008731622564"><ele>628.0</ele><time>2026-05-01T10:21:26Z</time></trkpt><trkpt lat="40.034882128256164" lon="9.665032988021384"><ele>628.0</ele><time>2026-05-01T10:21:27Z</time></trkpt><trkpt lat="40.03492340114808" lon="9.665118811366174"><ele>628.0</ele><time>2026-05-01T10:21:28Z</time></trkpt><trkpt lat="40.0349053057131" lon="9.66523788822213"><ele>632.75</ele><time>2026-05-01T10:21:29Z</time></trkpt><trkpt lat="40.034901402316066" lon="9.665364526180534"><ele>637.5</ele><time>2026-05-01T10:21:30Z</time></trkpt><trkpt lat="40.03489609268167" lon="9.66552182401536"><ele>642.25</ele><time>2026-05-01T10:21:31Z</time></trkpt><trkpt lat="40.03490190049116" lon="9.665691387634611"><ele>647.0</ele><time>2026-05-01T10:21:32Z</time></trkpt><trkpt lat="40.03489435492971" lon="9.66585525053444"><ele>647.0</ele><time>2026-05-01T10:21:33Z</time></trkpt><trkpt lat="40.034898249361206" lon="9.66600565914194"><ele>647.0</ele><time>2026-05-01T10:21:34Z</time></trkpt><trkpt lat="40.03490009858227" lon="9.666124214433854"><ele>647.0</ele><time>2026-05-01T10:21:35Z</time></trkpt><trkpt lat="40.03490924150903" lon="9.666228097748144"><ele>647.0</ele><time>2026-05-01T10:21:37Z</time></trkpt><trkpt lat="40.034903391004825" lon="9.66631179626365"><ele>647.0</ele><time>2026-05-01T10:21:40Z</time></trkpt><trkpt lat="40.03480635366768" lon="9.666351738186021"><ele>647.6666666666666</ele><time>2026-05-01T10:21:43Z</time></trkpt><trkpt lat="40.034719717337445" lon="9.66642215508023"><ele>648.3333333333333</ele><time>2026-05-01T10:21:45Z</time></trkpt><trkpt lat="40.03466548026024" lon="9.666466238143085"><ele>649.0</ele><time>2026-05-01T10:21:46Z</time></trkpt><trkpt lat="40.0346087624707" lon="9.666506548646023"><ele>649.6666666666666</ele><time>2026-05-01T10:21:47Z</time></trkpt><trkpt lat="40.034520843925705" lon="9.666583913545239"><ele>650.3333333333334</ele><time>2026-05-01T10:21:49Z</time></trkpt><trkpt lat="40.03444004994536" lon="9.666630437751381"><ele>651.0</ele><time>2026-05-01T10:21:51Z</time></trkpt><trkpt lat="40.03431915594567" lon="9.666657900535846"><ele>651.0</ele><time>2026-05-01T10:21:53Z</time></trkpt><trkpt lat="40.03425270637032" lon="9.666667652074427"><ele>651.0</ele><time>2026-05-01T10:21:54Z</time></trkpt><trkpt lat="40.034140631471" lon="9.666703036241696"><ele>651.0</ele><time>2026-05-01T10:21:56Z</time></trkpt><trkpt lat="40.034036350639454" lon="9.66671336999373"><ele>651.0</ele><time>2026-05-01T10:21:58Z</time></trkpt><trkpt lat="40.033938754652354" lon="9.666799838128137"><ele>651.0</ele><time>2026-05-01T10:22:00Z</time></trkpt><trkpt lat="40.033881650599845" lon="9.666858616921797"><ele>650.1666666666666</ele><time>2026-05-01T10:22:01Z</time></trkpt><trkpt lat="40.03379994319297" lon="9.666943541410008"><ele>649.3333333333334</ele><time>2026-05-01T10:22:03Z</time></trkpt><trkpt lat="40.033713786458826" lon="9.666981555805615"><ele>648.5</ele><time>2026-05-01T10:22:05Z</time></trkpt><trkpt lat="40.03363535054578" lon="9.667026481384326"><ele>647.6666666666667</ele><time>2026-05-01T10:22:07Z</time></trkpt><trkpt lat="40.03357267524479" lon="9.667068524279145"><ele>646.8333333333334</ele><time>2026-05-01T10:22:09Z</time></trkpt><trkpt lat="40.033555543746914" lon="9.667190971375037"><ele>646.0</ele><time>2026-05-01T10:22:11Z</time></trkpt><trkpt lat="40.03354159075655" lon="9.667305984621846"><ele>646.0</ele><time>2026-05-01T10:22:13Z</time></trkpt><trkpt lat="40.03348282942853" lon="9.667388901797825"><ele>646.0</ele><time>2026-05-01T10:22:15Z</time></trkpt><trkpt lat="40.03340316674791" lon="9.667462681650782"><ele>646.0</ele><time>2026-05-01T10:22:17Z</time></trkpt><trkpt lat="40.03333610530937" lon="9.667501332767493"><ele>646.0</ele><time>2026-05-01T10:22:18Z</time></trkpt><trkpt lat="40.033267207184466" lon="9.667527938756535"><ele>646.0</ele><time>2026-05-01T10:22:19Z</time></trkpt><trkpt lat="40.033160912893834" lon="9.667538044585324"><ele>646.0</ele><time>2026-05-01T10:22:21Z</time></trkpt><trkpt lat="40.03309100751402" lon="9.667539390679519"><ele>645.3333333333334</ele><time>2026-05-01T10:22:23Z</time></trkpt><trkpt lat="40.0330142561306" lon="9.66752282048458"><ele>644.6666666666667</ele><time>2026-05-01T10:22:25Z</time></trkpt><trkpt lat="40.032930561562786" lon="9.66755167495761"><ele>644.0</ele><time>2026-05-01T10:22:27Z</time></trkpt><trkpt lat="40.03284532211216" lon="9.66759091473321"><ele>643.3333333333334</ele><time>2026-05-01T10:22:29Z</time></trkpt><trkpt lat="40.032822008284285" lon="9.66770073291917"><ele>642.6666666666666</ele><time>2026-05-01T10:22:32Z</time></trkpt><trkpt lat="40.03275521119311" lon="9.667770991403415"><ele>642.0</ele><time>2026-05-01T10:22:34Z</time></trkpt><trkpt lat="40.032683152726044" lon="9.667854977693493"><ele>642.0</ele><time>2026-05-01T10:22:36Z</time></trkpt><trkpt lat="40.032606029406224" lon="9.667944013372338"><ele>642.0</ele><time>2026-05-01T10:22:38Z</time></trkpt><trkpt lat="40.03253891604783" lon="9.66801658541524"><ele>642.0</ele><time>2026-05-01T10:22:39Z</time></trkpt><trkpt lat="40.032416873652444" lon="9.668090652297305"><ele>642.0</ele><time>2026-05-01T10:22:41Z</time></trkpt><trkpt lat="40.03231620808608" lon="9.668118886693806"><ele>642.0</ele><time>2026-05-01T10:22:43Z</time></trkpt><trkpt lat="40.032247553432654" lon="9.66813495693024"><ele>641.0</ele><time>2026-05-01T10:22:45Z</time></trkpt><trkpt lat="40.03213377179278" lon="9.667794881478681"><ele>640.0</ele><time>2026-05-01T10:26:00Z</time></trkpt><trkpt lat="40.03220584522071" lon="9.667814383909217"><ele>639.0</ele><time>2026-05-01T10:33:49Z</time></trkpt><trkpt lat="40.032286618688325" lon="9.667770241660186"><ele>638.0</ele><time>2026-05-01T10:33:52Z</time></trkpt><trkpt lat="40.032354215300884" lon="9.667726893901573"><ele>638.0</ele><time>2026-05-01T10:33:54Z</time></trkpt><trkpt lat="40.032424600846745" lon="9.6676492712886"><ele>638.0</ele><time>2026-05-01T10:33:56Z</time></trkpt><trkpt lat="40.03251605519583" lon="9.667584194944661"><ele>638.0</ele><time>2026-05-01T10:33:58Z</time></trkpt><trkpt lat="40.03258655629985" lon="9.6675656395708"><ele>638.0</ele><time>2026-05-01T10:33:59Z</time></trkpt><trkpt lat="40.032680941963434" lon="9.667500137180694"><ele>638.0</ele><time>2026-05-01T10:34:01Z</time></trkpt><trkpt lat="40.03288702057249" lon="9.667446686001732"><ele>638.0</ele><time>2026-05-01T10:34:05Z</time></trkpt><trkpt lat="40.03295189575517" lon="9.6674781986552"><ele>638.0</ele><time>2026-05-01T10:34:06Z</time></trkpt><trkpt lat="40.033022057929784" lon="9.667520202849097"><ele>638.0</ele><time>2026-05-01T10:34:07Z</time></trkpt><trkpt lat="40.03312154032728" lon="9.667569431822397"><ele>638.0</ele><time>2026-05-01T10:34:09Z</time></trkpt><trkpt lat="40.03319478587392" lon="9.66758513731334"><ele>638.0</ele><time>2026-05-01T10:34:11Z</time></trkpt><trkpt lat="40.03326672143452" lon="9.66755978902922"><ele>638.0</ele><time>2026-05-01T10:34:13Z</time></trkpt><trkpt lat="40.03339123052252" lon="9.66750154062914"><ele>639.3333333333333</ele><time>2026-05-01T10:34:15Z</time></trkpt><trkpt lat="40.03345705603713" lon="9.66745918443917"><ele>640.6666666666666</ele><time>2026-05-01T10:34:16Z</time></trkpt><trkpt lat="40.033514882042994" lon="9.667409246383059"><ele>642.0</ele><time>2026-05-01T10:34:17Z</time></trkpt><trkpt lat="40.03357476934733" lon="9.667304524869973"><ele>643.3333333333334</ele><time>2026-05-01T10:34:19Z</time></trkpt><trkpt lat="40.03358895398556" lon="9.667192589161942"><ele>644.6666666666667</ele><time>2026-05-01T10:34:21Z</time></trkpt><trkpt lat="40.033605568781645" lon="9.667063152608181"><ele>646.0</ele><time>2026-05-01T10:34:23Z</time></trkpt><trkpt lat="40.03367169121896" lon="9.66703291365244"><ele>646.0</ele><time>2026-05-01T10:34:25Z</time></trkpt><trkpt lat="40.03374680049594" lon="9.667014803933622"><ele>646.0</ele><time>2026-05-01T10:34:27Z</time></trkpt><trkpt lat="40.03384489247933" lon="9.666953653210681"><ele>646.0</ele><time>2026-05-01T10:34:29Z</time></trkpt><trkpt lat="40.033952345737966" lon="9.666843686978826"><ele>646.0</ele><time>2026-05-01T10:34:31Z</time></trkpt><trkpt lat="40.03401272128524" lon="9.666780155828036"><ele>646.0</ele><time>2026-05-01T10:34:32Z</time></trkpt><trkpt lat="40.034070807737685" lon="9.666739835407713"><ele>646.8333333333334</ele><time>2026-05-01T10:34:33Z</time></trkpt><trkpt lat="40.03417144076105" lon="9.666723679845505"><ele>647.6666666666667</ele><time>2026-05-01T10:34:35Z</time></trkpt><trkpt lat="40.03428779325393" lon="9.666705036125736"><ele>648.5</ele><time>2026-05-01T10:34:37Z</time></trkpt><trkpt lat="40.03435500543747" lon="9.66667772853678"><ele>649.3333333333334</ele><time>2026-05-01T10:34:38Z</time></trkpt><trkpt lat="40.034426239491616" lon="9.666657655383984"><ele>650.1666666666666</ele><time>2026-05-01T10:34:39Z</time></trkpt><trkpt lat="40.034494340793906" lon="9.666636260296869"><ele>651.0</ele><time>2026-05-01T10:34:40Z</time></trkpt><trkpt lat="40.03456270923985" lon="9.666597676612135"><ele>651.0</ele><time>2026-05-01T10:34:41Z</time></trkpt><trkpt lat="40.034630947014946" lon="9.666551179947934"><ele>651.0</ele><time>2026-05-01T10:34:42Z</time></trkpt><trkpt lat="40.034699965839096" lon="9.666500679823107"><ele>651.0</ele><time>2026-05-01T10:34:43Z</time></trkpt><trkpt lat="40.03476150411813" lon="9.66644613806724"><ele>651.0</ele><time>2026-05-01T10:34:44Z</time></trkpt><trkpt lat="40.03489758119883" lon="9.666328700466996"><ele>651.0</ele><time>2026-05-01T10:34:47Z</time></trkpt><trkpt lat="40.034964555207814" lon="9.666274264958416"><ele>651.0</ele><time>2026-05-01T10:34:50Z</time></trkpt><trkpt lat="40.03492719142366" lon="9.666144278103827"><ele>651.0</ele><time>2026-05-01T10:34:51Z</time></trkpt><trkpt lat="40.0349183606545" lon="9.665995560683793"><ele>651.0</ele><time>2026-05-01T10:34:53Z</time></trkpt><trkpt lat="40.03490911511958" lon="9.665869395810606"><ele>651.0</ele><time>2026-05-01T10:34:55Z</time></trkpt><trkpt lat="40.034915559234214" lon="9.665732149493063"><ele>651.0</ele><time>2026-05-01T10:34:57Z</time></trkpt><trkpt lat="40.03492496372408" lon="9.665649933744849"><ele>650.3333333333334</ele><time>2026-05-01T10:34:58Z</time></trkpt><trkpt lat="40.03492670357852" lon="9.665555700929378"><ele>649.6666666666666</ele><time>2026-05-01T10:34:59Z</time></trkpt><trkpt lat="40.03492616402962" lon="9.665456873828846"><ele>649.0</ele><time>2026-05-01T10:35:00Z</time></trkpt><trkpt lat="40.03492900839868" lon="9.665353725063207"><ele>648.3333333333333</ele><time>2026-05-01T10:35:01Z</time></trkpt><trkpt lat="40.03493504641881" lon="9.6652553336515"><ele>647.6666666666666</ele><time>2026-05-01T10:35:02Z</time></trkpt><trkpt lat="40.03493496986925" lon="9.665171920059784"><ele>647.0</ele><time>2026-05-01T10:35:03Z</time></trkpt><trkpt lat="40.034893518131895" lon="9.665010076998604"><ele>643.2</ele><time>2026-05-01T10:35:05Z</time></trkpt><trkpt lat="40.034821713513786" lon="9.66495148247806"><ele>639.4000000000001</ele><time>2026-05-01T10:35:06Z</time></trkpt><trkpt lat="40.03472404009365" lon="9.664977526786036"><ele>635.5999999999999</ele><time>2026-05-01T10:35:07Z</time></trkpt><trkpt lat="40.03465315775034" lon="9.665075450656833"><ele>631.8</ele><time>2026-05-01T10:35:08Z</time></trkpt><trkpt lat="40.03458690789531" lon="9.66516953906382"><ele>628.0</ele><time>2026-05-01T10:35:09Z</time></trkpt><trkpt lat="40.03451419760436" lon="9.665270182041517"><ele>632.75</ele><time>2026-05-01T10:35:10Z</time></trkpt><trkpt lat="40.0344322888027" lon="9.665374169026482"><ele>637.5</ele><time>2026-05-01T10:35:11Z</time></trkpt><trkpt lat="40.03434402542454" lon="9.66547729981032"><ele>642.25</ele><time>2026-05-01T10:35:12Z</time></trkpt><trkpt lat="40.0342560993921" lon="9.665573836806551"><ele>647.0</ele><time>2026-05-01T10:35:13Z</time></trkpt><trkpt lat="40.034147851326395" lon="9.66561762102131"><ele>639.25</ele><time>2026-05-01T10:35:14Z</time></trkpt><trkpt lat="40.03403107435937" lon="9.665661611618654"><ele>631.5</ele><time>2026-05-01T10:35:15Z</time></trkpt><trkpt lat="40.03392225557892" lon="9.665719009416199"><ele>623.75</ele><time>2026-05-01T10:35:16Z</time></trkpt><trkpt lat="40.033833364266464" lon="9.665806573249958"><ele>616.0</ele><time>2026-05-01T10:35:17Z</time></trkpt><trkpt lat="40.033749620850784" lon="9.665890406752837"><ele>616.0</ele><time>2026-05-01T10:35:18Z</time></trkpt><trkpt lat="40.0336641999166" lon="9.6659623548888"><ele>616.0</ele><time>2026-05-01T10:35:19Z</time></trkpt><trkpt lat="40.033585875478394" lon="9.666041950582393"><ele>616.0</ele><time>2026-05-01T10:35:20Z</time></trkpt><trkpt lat="40.03350217624926" lon="9.666108579504666"><ele>616.0</ele><time>2026-05-01T10:35:21Z</time></trkpt><trkpt lat="40.033418989486115" lon="9.666163850436359"><ele>616.0</ele><time>2026-05-01T10:35:22Z</time></trkpt><trkpt lat="40.033344020982796" lon="9.666234240603222"><ele>614.3333333333334</ele><time>2026-05-01T10:35:23Z</time></trkpt><trkpt lat="40.03327633074329" lon="9.666312085571125"><ele>612.6666666666667</ele><time>2026-05-01T10:35:24Z</time></trkpt><trkpt lat="40.03321305831985" lon="9.666386625390308"><ele>611.0</ele><time>2026-05-01T10:35:25Z</time></trkpt><trkpt lat="40.033159433832495" lon="9.666444917688914"><ele>609.3333333333334</ele><time>2026-05-01T10:35:26Z</time></trkpt><trkpt lat="40.03309244933115" lon="9.666470404094815"><ele>607.6666666666666</ele><time>2026-05-01T10:35:28Z</time></trkpt><trkpt lat="40.03308709771745" lon="9.666312596594494"><ele>606.0</ele><time>2026-05-01T10:35:30Z</time></trkpt><trkpt lat="40.03316751414594" lon="9.666261650678448"><ele>606.0</ele><time>2026-05-01T10:35:31Z</time></trkpt><trkpt lat="40.03324945757389" lon="9.66618899729757"><ele>606.0</ele><time>2026-05-01T10:35:32Z</time></trkpt><trkpt lat="40.03332207965831" lon="9.666091448698444"><ele>606.0</ele><time>2026-05-01T10:35:33Z</time></trkpt><trkpt lat="40.03340990136853" lon="9.666011627569523"><ele>606.0</ele><time>2026-05-01T10:35:34Z</time></trkpt><trkpt lat="40.03349692110386" lon="9.665924176697601"><ele>606.0</ele><time>2026-05-01T10:35:35Z</time></trkpt><trkpt lat="40.033561092341664" lon="9.665825955879281"><ele>607.6666666666666</ele><time>2026-05-01T10:35:36Z</time></trkpt><trkpt lat="40.0336097961743" lon="9.665715604513702"><ele>609.3333333333334</ele><time>2026-05-01T10:35:37Z</time></trkpt><trkpt lat="40.03366123956375" lon="9.665614476072893"><ele>611.0</ele><time>2026-05-01T10:35:38Z</time></trkpt><trkpt lat="40.03371799680585" lon="9.66553622101153"><ele>612.6666666666667</ele><time>2026-05-01T10:35:39Z</time></trkpt><trkpt lat="40.03374094281944" lon="9.665420431870286"><ele>614.3333333333334</ele><time>2026-05-01T10:35:41Z</time></trkpt><trkpt lat="40.03367874810177" lon="9.665358324809333"><ele>616.0</ele><time>2026-05-01T10:35:42Z</time></trkpt><trkpt lat="40.033587461674934" lon="9.665442102242512"><ele>616.0</ele><time>2026-05-01T10:35:43Z</time></trkpt><trkpt lat="40.033530638631255" lon="9.665503318205106"><ele>616.0</ele><time>2026-05-01T10:35:44Z</time></trkpt><trkpt lat="40.03347868117203" lon="9.66559497841051"><ele>616.0</ele><time>2026-05-01T10:35:45Z</time></trkpt><trkpt lat="40.03342629555052" lon="9.665674300834464"><ele>616.0</ele><time>2026-05-01T10:35:46Z</time></trkpt><trkpt lat="40.033373413516735" lon="9.665743168552911"><ele>616.0</ele><time>2026-05-01T10:35:47Z</time></trkpt><trkpt lat="40.03331138180795" lon="9.665785952219984"><ele>616.0</ele><time>2026-05-01T10:35:48Z</time></trkpt><trkpt lat="40.0332220625915" lon="9.665870751230678"><ele>608.0</ele><time>2026-05-01T10:35:50Z</time></trkpt><trkpt lat="40.033145827610994" lon="9.665826591952099"><ele>600.0</ele><time>2026-05-01T10:35:52Z</time></trkpt><trkpt lat="40.0331644910695" lon="9.66566194213623"><ele>592.0</ele><time>2026-05-01T10:35:54Z</time></trkpt><trkpt lat="40.03317007753103" lon="9.665557066940305"><ele>584.0</ele><time>2026-05-01T10:35:55Z</time></trkpt><trkpt lat="40.03319621951511" lon="9.665457731555325"><ele>576.0</ele><time>2026-05-01T10:35:56Z</time></trkpt><trkpt lat="40.03323483431288" lon="9.665380081284503"><ele>568.0</ele><time>2026-05-01T10:35:57Z</time></trkpt><trkpt lat="40.033296947802086" lon="9.665332997838805"><ele>571.8</ele><time>2026-05-01T10:35:58Z</time></trkpt><trkpt lat="40.03339033780535" lon="9.66534341170988"><ele>575.5999999999999</ele><time>2026-05-01T10:35:59Z</time></trkpt><trkpt lat="40.033475725723044" lon="9.665275424610304"><ele>579.4000000000001</ele><time>2026-05-01T10:36:00Z</time></trkpt><trkpt lat="40.03355518985714" lon="9.665180217741652"><ele>583.2</ele><time>2026-05-01T10:36:01Z</time></trkpt><trkpt lat="40.033616911396415" lon="9.665063073452743"><ele>587.0</ele><time>2026-05-01T10:36:02Z</time></trkpt><trkpt lat="40.033678497055824" lon="9.66495795069042"><ele>587.0</ele><time>2026-05-01T10:36:03Z</time></trkpt><trkpt lat="40.03373923311776" lon="9.66485695014417"><ele>587.0</ele><time>2026-05-01T10:36:04Z</time></trkpt><trkpt lat="40.03378695835106" lon="9.664766075386671"><ele>587.0</ele><time>2026-05-01T10:36:05Z</time></trkpt><trkpt lat="40.033824814497514" lon="9.664623134419779"><ele>587.0</ele><time>2026-05-01T10:36:07Z</time></trkpt><trkpt lat="40.03374674093302" lon="9.664543746144833"><ele>587.0</ele><time>2026-05-01T10:36:09Z</time></trkpt><trkpt lat="40.03368293054852" lon="9.66463616630548"><ele>587.0</ele><time>2026-05-01T10:36:10Z</time></trkpt><trkpt lat="40.03363010993143" lon="9.664714944334396"><ele>587.0</ele><time>2026-05-01T10:36:11Z</time></trkpt><trkpt lat="40.033529040807785" lon="9.664759213213848"><ele>587.0</ele><time>2026-05-01T10:36:12Z</time></trkpt><trkpt lat="40.03342716257187" lon="9.66484736925914"><ele>587.0</ele><time>2026-05-01T10:36:13Z</time></trkpt><trkpt lat="40.033347675081565" lon="9.664934146990394"><ele>587.0</ele><time>2026-05-01T10:36:14Z</time></trkpt><trkpt lat="40.03328507080469" lon="9.665005167815634"><ele>587.0</ele><time>2026-05-01T10:36:15Z</time></trkpt><trkpt lat="40.03322007824203" lon="9.66503537058576"><ele>587.0</ele><time>2026-05-01T10:36:19Z</time></trkpt><trkpt lat="40.033230560150734" lon="9.664948914223002"><ele>587.0</ele><time>2026-05-01T10:36:21Z</time></trkpt><trkpt lat="40.033295758773384" lon="9.664892381610475"><ele>587.0</ele><time>2026-05-01T10:36:22Z</time></trkpt><trkpt lat="40.033352821650226" lon="9.664774567419078"><ele>587.0</ele><time>2026-05-01T10:36:23Z</time></trkpt><trkpt lat="40.03342044695826" lon="9.664650355257717"><ele>587.0</ele><time>2026-05-01T10:36:24Z</time></trkpt><trkpt lat="40.033478228820115" lon="9.664515029667982"><ele>581.4</ele><time>2026-05-01T10:36:25Z</time></trkpt><trkpt lat="40.033535156635146" lon="9.66440429541169"><ele>575.8000000000001</ele><time>2026-05-01T10:36:26Z</time></trkpt><trkpt lat="40.033608279037" lon="9.66431658479708"><ele>570.2</ele><time>2026-05-01T10:36:27Z</time></trkpt><trkpt lat="40.03370637590339" lon="9.664277681481526"><ele>564.6</ele><time>2026-05-01T10:36:28Z</time></trkpt><trkpt lat="40.03379298306665" lon="9.664186217654086"><ele>559.0</ele><time>2026-05-01T10:36:29Z</time></trkpt><trkpt lat="40.03389170982813" lon="9.664105955026667"><ele>559.0</ele><time>2026-05-01T10:36:30Z</time></trkpt><trkpt lat="40.03399138304847" lon="9.664003934045002"><ele>559.0</ele><time>2026-05-01T10:36:31Z</time></trkpt><trkpt lat="40.03408054416624" lon="9.663886202370717"><ele>559.0</ele><time>2026-05-01T10:36:32Z</time></trkpt><trkpt lat="40.03416052553651" lon="9.663754759723691"><ele>559.0</ele><time>2026-05-01T10:36:33Z</time></trkpt><trkpt lat="40.03424360927391" lon="9.663631291543226"><ele>560.5</ele><time>2026-05-01T10:36:34Z</time></trkpt><trkpt lat="40.03432120283899" lon="9.663510019707777"><ele>562.0</ele><time>2026-05-01T10:36:35Z</time></trkpt><trkpt lat="40.03441035788699" lon="9.663393457075259"><ele>563.5</ele><time>2026-05-01T10:36:36Z</time></trkpt><trkpt lat="40.03449659772914" lon="9.663282710570869"><ele>565.0</ele><time>2026-05-01T10:36:37Z</time></trkpt><trkpt lat="40.03457596117806" lon="9.66318318005481"><ele>565.0</ele><time>2026-05-01T10:36:38Z</time></trkpt><trkpt lat="40.0346619928073" lon="9.663113497312434"><ele>565.0</ele><time>2026-05-01T10:36:39Z</time></trkpt><trkpt lat="40.03473230552231" lon="9.663055190208915"><ele>565.0</ele><time>2026-05-01T10:36:40Z</time></trkpt><trkpt lat="40.034750524494704" lon="9.662941690827985"><ele>565.0</ele><time>2026-05-01T10:36:42Z</time></trkpt><trkpt lat="40.034645754543355" lon="9.662837945765922"><ele>565.0</ele><time>2026-05-01T10:36:44Z</time></trkpt><trkpt lat="40.03455969607346" lon="9.662866194872722"><ele>565.0</ele><time>2026-05-01T10:36:45Z</time></trkpt><trkpt lat="40.03447486781879" lon="9.662882274736814"><ele>565.0</ele><time>2026-05-01T10:36:46Z</time></trkpt><trkpt lat="40.03437783597842" lon="9.662900449033701"><ele>565.0</ele><time>2026-05-01T10:36:47Z</time></trkpt><trkpt lat="40.03423306743463" lon="9.662925461514428"><ele>565.0</ele><time>2026-05-01T10:36:49Z</time></trkpt><trkpt lat="40.03414563898781" lon="9.66293779352443"><ele>565.0</ele><time>2026-05-01T10:36:50Z</time></trkpt><trkpt lat="40.034051796588514" lon="9.662963752059367"><ele>559.0</ele><time>2026-05-01T10:36:51Z</time></trkpt><trkpt lat="40.03394727458541" lon="9.662977945498692"><ele>553.0</ele><time>2026-05-01T10:36:52Z</time></trkpt><trkpt lat="40.03384756655879" lon="9.66299546205889"><ele>547.0</ele><time>2026-05-01T10:36:53Z</time></trkpt><trkpt lat="40.03377018538298" lon="9.663023221800511"><ele>541.0</ele><time>2026-05-01T10:36:54Z</time></trkpt><trkpt lat="40.033681148011524" lon="9.663086577795392"><ele>535.0</ele><time>2026-05-01T10:36:55Z</time></trkpt><trkpt lat="40.03359290287014" lon="9.663173289709658"><ele>535.0</ele><time>2026-05-01T10:36:56Z</time></trkpt><trkpt lat="40.03351709417852" lon="9.66325609618932"><ele>535.0</ele><time>2026-05-01T10:36:57Z</time></trkpt><trkpt lat="40.03344805808916" lon="9.663338753008631"><ele>535.0</ele><time>2026-05-01T10:36:58Z</time></trkpt><trkpt lat="40.033386572435006" lon="9.663416133716867"><ele>535.0</ele><time>2026-05-01T10:36:59Z</time></trkpt><trkpt lat="40.03333088044294" lon="9.663486195661976"><ele>535.0</ele><time>2026-05-01T10:37:00Z</time></trkpt><trkpt lat="40.033283598572865" lon="9.663556488406714"><ele>535.0</ele><time>2026-05-01T10:37:01Z</time></trkpt><trkpt lat="40.03324762510815" lon="9.663624002074394"><ele>535.0</ele><time>2026-05-01T10:37:02Z</time></trkpt><trkpt lat="40.03318471974263" lon="9.663697325057486"><ele>535.0</ele><time>2026-05-01T10:37:04Z</time></trkpt><trkpt lat="40.03320529449592" lon="9.663570136203175"><ele>535.0</ele><time>2026-05-01T10:37:10Z</time></trkpt><trkpt lat="40.03325523362702" lon="9.66346816637932"><ele>535.0</ele><time>2026-05-01T10:37:11Z</time></trkpt><trkpt lat="40.03331361816312" lon="9.663350874125223"><ele>535.0</ele><time>2026-05-01T10:37:12Z</time></trkpt><trkpt lat="40.033369006541214" lon="9.66320674821567"><ele>535.0</ele><time>2026-05-01T10:37:13Z</time></trkpt><trkpt lat="40.03344749049446" lon="9.66307053916247"><ele>535.0</ele><time>2026-05-01T10:37:14Z</time></trkpt><trkpt lat="40.033519528752514" lon="9.662928114828352"><ele>535.0</ele><time>2026-05-01T10:37:15Z</time></trkpt><trkpt lat="40.033601658044944" lon="9.662778832921848"><ele>535.0</ele><time>2026-05-01T10:37:16Z</time></trkpt><trkpt lat="40.033668095194535" lon="9.662657095472355"><ele>529.6</ele><time>2026-05-01T10:37:17Z</time></trkpt><trkpt lat="40.03372904892553" lon="9.662538985746622"><ele>524.2</ele><time>2026-05-01T10:37:18Z</time></trkpt><trkpt lat="40.03379914233793" lon="9.662433752093339"><ele>518.8</ele><time>2026-05-01T10:37:19Z</time></trkpt><trkpt lat="40.033880405307755" lon="9.662328231151498"><ele>513.4</ele><time>2026-05-01T10:37:20Z</time></trkpt><trkpt lat="40.033973366256426" lon="9.662234601176266"><ele>508.0</ele><time>2026-05-01T10:37:21Z</time></trkpt><trkpt lat="40.034071208540105" lon="9.662147135188894"><ele>509.5</ele><time>2026-05-01T10:37:22Z</time></trkpt><trkpt lat="40.03417615529635" lon="9.66207633017819"><ele>511.0</ele><time>2026-05-01T10:37:23Z</time></trkpt><trkpt lat="40.03428565914795" lon="9.662017579184322"><ele>512.5</ele><time>2026-05-01T10:37:24Z</time></trkpt><trkpt lat="40.034370891960386" lon="9.661893896404726"><ele>514.0</ele><time>2026-05-01T10:37:25Z</time></trkpt><trkpt lat="40.03444821301809" lon="9.661769304437167"><ele>514.0</ele><time>2026-05-01T10:37:26Z</time></trkpt><trkpt lat="40.03453956814499" lon="9.661632598971593"><ele>514.0</ele><time>2026-05-01T10:37:27Z</time></trkpt><trkpt lat="40.03462652823454" lon="9.661517011249675"><ele>514.0</ele><time>2026-05-01T10:37:28Z</time></trkpt><trkpt lat="40.03471194228452" lon="9.661405672281438"><ele>514.0</ele><time>2026-05-01T10:37:29Z</time></trkpt><trkpt lat="40.03479081837905" lon="9.661301494292307"><ele>514.0</ele><time>2026-05-01T10:37:30Z</time></trkpt><trkpt lat="40.03486199461729" lon="9.661204601290276"><ele>514.0</ele><time>2026-05-01T10:37:31Z</time></trkpt><trkpt lat="40.03491981389975" lon="9.661126403842283"><ele>514.0</ele><time>2026-05-01T10:37:32Z</time></trkpt><trkpt lat="40.03498638672523" lon="9.661035875180916"><ele>514.0</ele><time>2026-05-01T10:37:34Z</time></trkpt><trkpt lat="40.035013160023965" lon="9.6609439907556"><ele>514.0</ele><time>2026-05-01T10:37:37Z</time></trkpt><trkpt lat="40.034860968285834" lon="9.660987881899763"><ele>514.0</ele><time>2026-05-01T10:37:41Z</time></trkpt><trkpt lat="40.034808834763105" lon="9.661055766820123"><ele>514.0</ele><time>2026-05-01T10:37:42Z</time></trkpt><trkpt lat="40.034753671879194" lon="9.661116363840886"><ele>514.0</ele><time>2026-05-01T10:37:43Z</time></trkpt><trkpt lat="40.03468466318985" lon="9.661178641153239"><ele>514.0</ele><time>2026-05-01T10:37:44Z</time></trkpt><trkpt lat="40.03461141597527" lon="9.661244674949264"><ele>514.0</ele><time>2026-05-01T10:37:45Z</time></trkpt><trkpt lat="40.034529027708984" lon="9.661306557503297"><ele>514.0</ele><time>2026-05-01T10:37:46Z</time></trkpt><trkpt lat="40.03443287484958" lon="9.661330556362795"><ele>514.0</ele><time>2026-05-01T10:37:47Z</time></trkpt><trkpt lat="40.034342168455915" lon="9.661368134265649"><ele>514.0</ele><time>2026-05-01T10:37:48Z</time></trkpt><trkpt lat="40.034264295014694" lon="9.661407486769274"><ele>514.0</ele><time>2026-05-01T10:37:49Z</time></trkpt><trkpt lat="40.034189154828816" lon="9.661386401002037"><ele>514.0</ele><time>2026-05-01T10:37:50Z</time></trkpt><trkpt lat="40.034119090804644" lon="9.661399068575463"><ele>514.0</ele><time>2026-05-01T10:37:51Z</time></trkpt><trkpt lat="40.0340458954322" lon="9.661415701464973"><ele>514.0</ele><time>2026-05-01T10:37:52Z</time></trkpt><trkpt lat="40.03394739763223" lon="9.661483665041448"><ele>508.79999999999995</ele><time>2026-05-01T10:37:53Z</time></trkpt><trkpt lat="40.03383252522681" lon="9.661524950676867"><ele>503.59999999999997</ele><time>2026-05-01T10:37:54Z</time></trkpt><trkpt lat="40.033717325787" lon="9.661569413669008"><ele>498.4</ele><time>2026-05-01T10:37:55Z</time></trkpt><trkpt lat="40.033620606357964" lon="9.661612051960443"><ele>493.2</ele><time>2026-05-01T10:37:56Z</time></trkpt><trkpt lat="40.033528375924675" lon="9.661622224778954"><ele>488.0</ele><time>2026-05-01T10:37:57Z</time></trkpt><trkpt lat="40.03344673153895" lon="9.661656225214603"><ele>487.99999999999994</ele><time>2026-05-01T10:37:58Z</time></trkpt><trkpt lat="40.03337014357997" lon="9.66169003510684"><ele>488.0</ele><time>2026-05-01T10:37:59Z</time></trkpt><trkpt lat="40.033294939117035" lon="9.661731886039394"><ele>487.99999999999994</ele><time>2026-05-01T10:38:00Z</time></trkpt><trkpt lat="40.03323536657672" lon="9.661792730177963"><ele>487.99999999999994</ele><time>2026-05-01T10:38:01Z</time></trkpt><trkpt lat="40.03317551042497" lon="9.661843162358714"><ele>488.0</ele><time>2026-05-01T10:38:02Z</time></trkpt><trkpt lat="40.033119783375426" lon="9.661890612224882"><ele>487.99999999999994</ele><time>2026-05-01T10:38:03Z</time></trkpt><trkpt lat="40.03306328506892" lon="9.661937899401357"><ele>487.99999999999994</ele><time>2026-05-01T10:38:04Z</time></trkpt><trkpt lat="40.03299824551143" lon="9.661962625327652"><ele>487.5714285714285</ele><time>2026-05-01T10:38:05Z</time></trkpt><trkpt lat="40.03294271185572" lon="9.662006078516622"><ele>487.1428571428571</ele><time>2026-05-01T10:38:06Z</time></trkpt><trkpt lat="40.03289675958268" lon="9.662065343948278"><ele>486.7142857142857</ele><time>2026-05-01T10:38:07Z</time></trkpt><trkpt lat="40.032840425635975" lon="9.662122697749938"><ele>486.2857142857143</ele><time>2026-05-01T10:38:08Z</time></trkpt><trkpt lat="40.03279404321353" lon="9.662208130529198"><ele>485.8571428571429</ele><time>2026-05-01T10:38:09Z</time></trkpt><trkpt lat="40.032750312531974" lon="9.662287629075418"><ele>485.4285714285715</ele><time>2026-05-01T10:38:10Z</time></trkpt><trkpt lat="40.03269929478804" lon="9.662356616377632"><ele>485.00000000000006</ele><time>2026-05-01T10:38:11Z</time></trkpt><trkpt lat="40.032631105506226" lon="9.662416801990323"><ele>484.99999999999994</ele><time>2026-05-01T10:38:12Z</time></trkpt><trkpt lat="40.03256417330149" lon="9.662485325936032"><ele>485.0</ele><time>2026-05-01T10:38:13Z</time></trkpt><trkpt lat="40.03250685337222" lon="9.66254253541838"><ele>485.0</ele><time>2026-05-01T10:38:14Z</time></trkpt><trkpt lat="40.032431758102064" lon="9.662608147219732"><ele>485.0</ele><time>2026-05-01T10:38:16Z</time></trkpt><trkpt lat="40.03236162563781" lon="9.662645699672291"><ele>484.99999999999994</ele><time>2026-05-01T10:38:25Z</time></trkpt><trkpt lat="40.03239193145553" lon="9.662571603790871"><ele>485.0</ele><time>2026-05-01T10:38:28Z</time></trkpt><trkpt lat="40.03244806252573" lon="9.662504848096397"><ele>485.0</ele><time>2026-05-01T10:38:29Z</time></trkpt><trkpt lat="40.03251778384702" lon="9.662430977417023"><ele>485.0</ele><time>2026-05-01T10:38:30Z</time></trkpt><trkpt lat="40.03256771080936" lon="9.662358199496447"><ele>485.0</ele><time>2026-05-01T10:38:34Z</time></trkpt><trkpt lat="40.03248447591152" lon="9.662221935162876"><ele>485.0</ele><time>2026-05-01T10:38:39Z</time></trkpt><trkpt lat="40.03237910532577" lon="9.662313505378005"><ele>485.0</ele><time>2026-05-01T10:38:41Z</time></trkpt><trkpt lat="40.03231531351756" lon="9.662351611002288"><ele>483.16666666666663</ele><time>2026-05-01T10:38:42Z</time></trkpt><trkpt lat="40.032247585658936" lon="9.662385293582485"><ele>481.3333333333333</ele><time>2026-05-01T10:38:43Z</time></trkpt><trkpt lat="40.03217564426108" lon="9.662399603085452"><ele>479.5</ele><time>2026-05-01T10:38:44Z</time></trkpt><trkpt lat="40.032060611628324" lon="9.662404926166117"><ele>477.66666666666663</ele><time>2026-05-01T10:38:46Z</time></trkpt><trkpt lat="40.031996126326945" lon="9.662399626163628"><ele>475.8333333333333</ele><time>2026-05-01T10:38:47Z</time></trkpt><trkpt lat="40.03194107509982" lon="9.662453188588309"><ele>474.0</ele><time>2026-05-01T10:38:48Z</time></trkpt><trkpt lat="40.03185308602831" lon="9.662344860226268"><ele>474.0</ele><time>2026-05-01T10:38:50Z</time></trkpt><trkpt lat="40.03185646144561" lon="9.66225248324428"><ele>474.0</ele><time>2026-05-01T10:38:51Z</time></trkpt><trkpt lat="40.03193947690298" lon="9.662112350863659"><ele>474.0</ele><time>2026-05-01T10:38:53Z</time></trkpt><trkpt lat="40.032012784861834" lon="9.662043976819337"><ele>474.0</ele><time>2026-05-01T10:38:54Z</time></trkpt><trkpt lat="40.032101157651745" lon="9.661978776082742"><ele>474.0</ele><time>2026-05-01T10:38:55Z</time></trkpt><trkpt lat="40.03218345076192" lon="9.66192609176057"><ele>472.1666666666667</ele><time>2026-05-01T10:38:56Z</time></trkpt><trkpt lat="40.032256033327315" lon="9.661873537490605"><ele>470.33333333333337</ele><time>2026-05-01T10:38:57Z</time></trkpt><trkpt lat="40.032323283526935" lon="9.661817104730453"><ele>468.5</ele><time>2026-05-01T10:38:58Z</time></trkpt><trkpt lat="40.03238789280362" lon="9.661757849802513"><ele>466.6666666666667</ele><time>2026-05-01T10:38:59Z</time></trkpt><trkpt lat="40.03244261072505" lon="9.661690432371199"><ele>464.83333333333337</ele><time>2026-05-01T10:39:00Z</time></trkpt><trkpt lat="40.032480187568034" lon="9.661611548653164"><ele>463.0</ele><time>2026-05-01T10:39:01Z</time></trkpt><trkpt lat="40.03248687218548" lon="9.661414040381006"><ele>463.0</ele><time>2026-05-01T10:39:03Z</time></trkpt><trkpt lat="40.03248022115198" lon="9.661295216587943"><ele>462.99999999999994</ele><time>2026-05-01T10:39:04Z</time></trkpt><trkpt lat="40.03246877552439" lon="9.66118860165235"><ele>462.99999999999994</ele><time>2026-05-01T10:39:05Z</time></trkpt><trkpt lat="40.032475213249256" lon="9.661092255423812"><ele>463.0</ele><time>2026-05-01T10:39:06Z</time></trkpt><trkpt lat="40.032496533137525" lon="9.66094842003537"><ele>463.0</ele><time>2026-05-01T10:39:08Z</time></trkpt><trkpt lat="40.03260178872745" lon="9.66083821940212"><ele>459.2</ele><time>2026-05-01T10:39:10Z</time></trkpt><trkpt lat="40.032678793316535" lon="9.660786172210019"><ele>455.4</ele><time>2026-05-01T10:39:11Z</time></trkpt><trkpt lat="40.03276064252548" lon="9.660724611046623"><ele>451.59999999999997</ele><time>2026-05-01T10:39:12Z</time></trkpt><trkpt lat="40.03283875787489" lon="9.660648052594743"><ele>447.79999999999995</ele><time>2026-05-01T10:39:13Z</time></trkpt><trkpt lat="40.03291284772981" lon="9.66056705953869"><ele>444.0</ele><time>2026-05-01T10:39:14Z</time></trkpt><trkpt lat="40.03298863448767" lon="9.66050540220055"><ele>444.0</ele><time>2026-05-01T10:39:15Z</time></trkpt><trkpt lat="40.033073491495" lon="9.66046370302191"><ele>444.0</ele><time>2026-05-01T10:39:16Z</time></trkpt><trkpt lat="40.033169465883425" lon="9.660433898291368"><ele>444.0</ele><time>2026-05-01T10:39:17Z</time></trkpt><trkpt lat="40.03326703542736" lon="9.660394462451912"><ele>444.0</ele><time>2026-05-01T10:39:18Z</time></trkpt><trkpt lat="40.03336648130196" lon="9.660347919879896"><ele>444.0</ele><time>2026-05-01T10:39:19Z</time></trkpt><trkpt lat="40.033473009080105" lon="9.660285856157309"><ele>442.25</ele><time>2026-05-01T10:39:20Z</time></trkpt><trkpt lat="40.033578108553634" lon="9.660211514332804"><ele>440.5</ele><time>2026-05-01T10:39:21Z</time></trkpt><trkpt lat="40.03366945892934" lon="9.660102880354733"><ele>438.75</ele><time>2026-05-01T10:39:22Z</time></trkpt><trkpt lat="40.03374160100203" lon="9.659973505361405"><ele>437.0</ele><time>2026-05-01T10:39:23Z</time></trkpt><trkpt lat="40.0338065039294" lon="9.659858297074566"><ele>437.0</ele><time>2026-05-01T10:39:24Z</time></trkpt><trkpt lat="40.03388009633483" lon="9.659776405041754"><ele>437.00000000000006</ele><time>2026-05-01T10:39:25Z</time></trkpt><trkpt lat="40.033971473311176" lon="9.659748808866974"><ele>437.00000000000006</ele><time>2026-05-01T10:39:26Z</time></trkpt><trkpt lat="40.03404910830349" lon="9.659671996686816"><ele>437.0</ele><time>2026-05-01T10:39:27Z</time></trkpt><trkpt lat="40.034132590777865" lon="9.659613142382685"><ele>437.0</ele><time>2026-05-01T10:39:28Z</time></trkpt><trkpt lat="40.03421190262574" lon="9.659541756068686"><ele>436.6</ele><time>2026-05-01T10:39:29Z</time></trkpt><trkpt lat="40.034291044867715" lon="9.659469460912149"><ele>436.20000000000005</ele><time>2026-05-01T10:39:30Z</time></trkpt><trkpt lat="40.03437059002988" lon="9.659390002495096"><ele>435.8</ele><time>2026-05-01T10:39:31Z</time></trkpt><trkpt lat="40.03441274487421" lon="9.659268508688626"><ele>435.4</ele><time>2026-05-01T10:39:32Z</time></trkpt><trkpt lat="40.03447744981836" lon="9.659172516615422"><ele>435.0</ele><time>2026-05-01T10:39:33Z</time></trkpt><trkpt lat="40.03449010630392" lon="9.659041363514923"><ele>435.0</ele><time>2026-05-01T10:39:34Z</time></trkpt><trkpt lat="40.03451853729503" lon="9.658911717137462"><ele>435.0</ele><time>2026-05-01T10:39:35Z</time></trkpt><trkpt lat="40.03452318948802" lon="9.658771118629714"><ele>435.0</ele><time>2026-05-01T10:39:36Z</time></trkpt><trkpt lat="40.034514287231985" lon="9.65863104951702"><ele>435.0</ele><time>2026-05-01T10:39:37Z</time></trkpt><trkpt lat="40.034522765361274" lon="9.658488680606572"><ele>435.0</ele><time>2026-05-01T10:39:38Z</time></trkpt><trkpt lat="40.034536505423986" lon="9.6583606839042"><ele>432.8</ele><time>2026-05-01T10:39:39Z</time></trkpt><trkpt lat="40.03457908840664" lon="9.658257897417634"><ele>430.6</ele><time>2026-05-01T10:39:40Z</time></trkpt><trkpt lat="40.03464736902297" lon="9.65815906853068"><ele>428.4</ele><time>2026-05-01T10:39:41Z</time></trkpt><trkpt lat="40.03474450562831" lon="9.658082474690081"><ele>426.2</ele><time>2026-05-01T10:39:42Z</time></trkpt><trkpt lat="40.03483273255721" lon="9.658046455197788"><ele>424.0</ele><time>2026-05-01T10:39:43Z</time></trkpt><trkpt lat="40.03489913710852" lon="9.657993732865306"><ele>424.0</ele><time>2026-05-01T10:39:44Z</time></trkpt><trkpt lat="40.034964072726964" lon="9.657908141732081"><ele>424.0</ele><time>2026-05-01T10:39:45Z</time></trkpt><trkpt lat="40.03503292817641" lon="9.65780917418156"><ele>424.0</ele><time>2026-05-01T10:39:46Z</time></trkpt><trkpt lat="40.03510231650277" lon="9.657708088959737"><ele>424.0</ele><time>2026-05-01T10:39:47Z</time></trkpt><trkpt lat="40.03517984942073" lon="9.6576043628517"><ele>424.0</ele><time>2026-05-01T10:39:48Z</time></trkpt><trkpt lat="40.03527028341923" lon="9.657511642746007"><ele>429.0</ele><time>2026-05-01T10:39:49Z</time></trkpt><trkpt lat="40.03536616120926" lon="9.657423952898696"><ele>434.0</ele><time>2026-05-01T10:39:50Z</time></trkpt><trkpt lat="40.03548159637394" lon="9.65736150804303"><ele>439.0</ele><time>2026-05-01T10:39:51Z</time></trkpt><trkpt lat="40.03559281978084" lon="9.657280662768681"><ele>444.0</ele><time>2026-05-01T10:39:52Z</time></trkpt><trkpt lat="40.035704798394256" lon="9.657199268529377"><ele>442.25</ele><time>2026-05-01T10:39:53Z</time></trkpt><trkpt lat="40.035805035415414" lon="9.65710388233479"><ele>440.5</ele><time>2026-05-01T10:39:54Z</time></trkpt><trkpt lat="40.03591526870222" lon="9.65703680248258"><ele>438.75</ele><time>2026-05-01T10:39:55Z</time></trkpt><trkpt lat="40.03602682108675" lon="9.656961521960428"><ele>437.0</ele><time>2026-05-01T10:39:56Z</time></trkpt><trkpt lat="40.03614255572818" lon="9.656893006308847"><ele>437.0</ele><time>2026-05-01T10:39:57Z</time></trkpt><trkpt lat="40.03627053707076" lon="9.656844199650608"><ele>437.0</ele><time>2026-05-01T10:39:58Z</time></trkpt><trkpt lat="40.03640527977409" lon="9.656808578008475"><ele>437.0</ele><time>2026-05-01T10:39:59Z</time></trkpt><trkpt lat="40.03654603032713" lon="9.656776235425644"><ele>437.0</ele><time>2026-05-01T10:40:00Z</time></trkpt><trkpt lat="40.03669490021464" lon="9.65675013264616"><ele>438.25</ele><time>2026-05-01T10:40:01Z</time></trkpt><trkpt lat="40.03683894651344" lon="9.656707938895151"><ele>439.5</ele><time>2026-05-01T10:40:02Z</time></trkpt><trkpt lat="40.036989026469556" lon="9.65667351296175"><ele>440.75</ele><time>2026-05-01T10:40:03Z</time></trkpt><trkpt lat="40.03713241134542" lon="9.656637518600782"><ele>442.0</ele><time>2026-05-01T10:40:04Z</time></trkpt><trkpt lat="40.037266636269095" lon="9.656602469559209"><ele>442.0</ele><time>2026-05-01T10:40:05Z</time></trkpt><trkpt lat="40.03740365236905" lon="9.656556578453468"><ele>442.0</ele><time>2026-05-01T10:40:06Z</time></trkpt><trkpt lat="40.03754256476152" lon="9.656508107478325"><ele>442.0</ele><time>2026-05-01T10:40:07Z</time></trkpt><trkpt lat="40.03768254887497" lon="9.656450068084453"><ele>442.0</ele><time>2026-05-01T10:40:08Z</time></trkpt><trkpt lat="40.037820533550885" lon="9.656389560895311"><ele>442.5</ele><time>2026-05-01T10:40:09Z</time></trkpt><trkpt lat="40.03795680275382" lon="9.656329352346964"><ele>443.0</ele><time>2026-05-01T10:40:10Z</time></trkpt><trkpt lat="40.038092217965996" lon="9.656271187630807"><ele>443.5</ele><time>2026-05-01T10:40:11Z</time></trkpt><trkpt lat="40.03822687973781" lon="9.656216918231703"><ele>444.0</ele><time>2026-05-01T10:40:12Z</time></trkpt><trkpt lat="40.03835972060649" lon="9.656162599689099"><ele>439.5</ele><time>2026-05-01T10:40:13Z</time></trkpt><trkpt lat="40.038491151797366" lon="9.65610207565924"><ele>435.0</ele><time>2026-05-01T10:40:14Z</time></trkpt><trkpt lat="40.0386213581677" lon="9.656032704212159"><ele>430.5</ele><time>2026-05-01T10:40:15Z</time></trkpt><trkpt lat="40.03874741775392" lon="9.655944810693256"><ele>426.0</ele><time>2026-05-01T10:40:16Z</time></trkpt><trkpt lat="40.03886810563135" lon="9.655838948474868"><ele>426.0</ele><time>2026-05-01T10:40:17Z</time></trkpt><trkpt lat="40.038988750993845" lon="9.655730298336499"><ele>426.0</ele><time>2026-05-01T10:40:18Z</time></trkpt><trkpt lat="40.03910867850861" lon="9.65561806465611"><ele>426.0</ele><time>2026-05-01T10:40:19Z</time></trkpt><trkpt lat="40.03922860968426" lon="9.655507332367442"><ele>426.0</ele><time>2026-05-01T10:40:20Z</time></trkpt><trkpt lat="40.03934711856797" lon="9.655398950033433"><ele>428.75</ele><time>2026-05-01T10:40:21Z</time></trkpt><trkpt lat="40.03946039805618" lon="9.655303089455801"><ele>431.5</ele><time>2026-05-01T10:40:22Z</time></trkpt><trkpt lat="40.03957648544832" lon="9.655219109844989"><ele>434.25</ele><time>2026-05-01T10:40:23Z</time></trkpt><trkpt lat="40.03971219507159" lon="9.655177070619592"><ele>437.0</ele><time>2026-05-01T10:40:24Z</time></trkpt><trkpt lat="40.03984835317745" lon="9.655178275709773"><ele>433.75</ele><time>2026-05-01T10:40:25Z</time></trkpt><trkpt lat="40.03996535998499" lon="9.655162770552494"><ele>430.5</ele><time>2026-05-01T10:40:26Z</time></trkpt><trkpt lat="40.040095597439155" lon="9.655121482043795"><ele>427.25</ele><time>2026-05-01T10:40:27Z</time></trkpt><trkpt lat="40.040181022223635" lon="9.65499763062101"><ele>424.0</ele><time>2026-05-01T10:40:28Z</time></trkpt><trkpt lat="40.0402882546836" lon="9.654877525706198"><ele>424.0</ele><time>2026-05-01T10:40:29Z</time></trkpt><trkpt lat="40.040393450794014" lon="9.65473314380063"><ele>424.0</ele><time>2026-05-01T10:40:30Z</time></trkpt><trkpt lat="40.04049210186972" lon="9.654603226616237"><ele>424.0</ele><time>2026-05-01T10:40:31Z</time></trkpt><trkpt lat="40.04059167844936" lon="9.654501708374585"><ele>424.0</ele><time>2026-05-01T10:40:32Z</time></trkpt><trkpt lat="40.04072516093474" lon="9.65445082387955"><ele>422.25</ele><time>2026-05-01T10:40:33Z</time></trkpt><trkpt lat="40.04086163070557" lon="9.654371132388981"><ele>420.5</ele><time>2026-05-01T10:40:34Z</time></trkpt><trkpt lat="40.04099702813526" lon="9.654316125165252"><ele>418.75</ele><time>2026-05-01T10:40:35Z</time></trkpt><trkpt lat="40.04111322827914" lon="9.654257508954984"><ele>417.0</ele><time>2026-05-01T10:40:36Z</time></trkpt><trkpt lat="40.041193637315274" lon="9.654169887249061"><ele>417.0</ele><time>2026-05-01T10:40:37Z</time></trkpt><trkpt lat="40.041245086165375" lon="9.65407703088845"><ele>417.0</ele><time>2026-05-01T10:40:38Z</time></trkpt><trkpt lat="40.04128060667298" lon="9.653974980538761"><ele>417.0</ele><time>2026-05-01T10:40:39Z</time></trkpt><trkpt lat="40.041314144365245" lon="9.6538821527128"><ele>417.0</ele><time>2026-05-01T10:40:40Z</time></trkpt><trkpt lat="40.0413616962959" lon="9.653802830476115"><ele>417.0</ele><time>2026-05-01T10:40:41Z</time></trkpt><trkpt lat="40.041446040859014" lon="9.653761720581839"><ele>417.0</ele><time>2026-05-01T10:40:42Z</time></trkpt><trkpt lat="40.04154053927822" lon="9.653723725269082"><ele>419.25</ele><time>2026-05-01T10:40:43Z</time></trkpt><trkpt lat="40.04163393110045" lon="9.653736968851204"><ele>421.5</ele><time>2026-05-01T10:40:44Z</time></trkpt><trkpt lat="40.04174152843916" lon="9.653755541490085"><ele>423.75</ele><time>2026-05-01T10:40:45Z</time></trkpt><trkpt lat="40.04186785474421" lon="9.653780844213816"><ele>426.0</ele><time>2026-05-01T10:40:46Z</time></trkpt><trkpt lat="40.042001097061785" lon="9.653777465441246"><ele>426.0</ele><time>2026-05-01T10:40:47Z</time></trkpt><trkpt lat="40.0421266408238" lon="9.6537754499326"><ele>426.0</ele><time>2026-05-01T10:40:48Z</time></trkpt><trkpt lat="40.04222858391529" lon="9.653732822654872"><ele>426.0</ele><time>2026-05-01T10:40:49Z</time></trkpt><trkpt lat="40.04231073700485" lon="9.653646910490957"><ele>426.0</ele><time>2026-05-01T10:40:50Z</time></trkpt><trkpt lat="40.042393566866664" lon="9.653525922890683"><ele>423.0</ele><time>2026-05-01T10:40:51Z</time></trkpt><trkpt lat="40.04249007940218" lon="9.653412336176418"><ele>420.0</ele><time>2026-05-01T10:40:52Z</time></trkpt><trkpt lat="40.04258256584105" lon="9.65331157098523"><ele>417.0</ele><time>2026-05-01T10:40:53Z</time></trkpt><trkpt lat="40.04266325677888" lon="9.65321620694129"><ele>414.0</ele><time>2026-05-01T10:40:54Z</time></trkpt><trkpt lat="40.04274219092002" lon="9.6531167336358"><ele>414.0</ele><time>2026-05-01T10:40:55Z</time></trkpt><trkpt lat="40.042819651766756" lon="9.653002517160854"><ele>414.0</ele><time>2026-05-01T10:40:56Z</time></trkpt><trkpt lat="40.042886439069996" lon="9.652867664490856"><ele>414.0</ele><time>2026-05-01T10:40:57Z</time></trkpt><trkpt lat="40.04294248077971" lon="9.652714475723458"><ele>414.0</ele><time>2026-05-01T10:40:58Z</time></trkpt><trkpt lat="40.0430027286196" lon="9.652557375400884"><ele>409.25</ele><time>2026-05-01T10:40:59Z</time></trkpt><trkpt lat="40.04305960738526" lon="9.652401923576784"><ele>404.5</ele><time>2026-05-01T10:41:00Z</time></trkpt><trkpt lat="40.043110903541255" lon="9.652244644896035"><ele>399.75</ele><time>2026-05-01T10:41:01Z</time></trkpt><trkpt lat="40.04314550343921" lon="9.652080449337408"><ele>395.0</ele><time>2026-05-01T10:41:02Z</time></trkpt><trkpt lat="40.043162143728175" lon="9.651907470347055"><ele>397.25</ele><time>2026-05-01T10:41:03Z</time></trkpt><trkpt lat="40.04317136190471" lon="9.651730747222365"><ele>399.5</ele><time>2026-05-01T10:41:04Z</time></trkpt><trkpt lat="40.04318889365071" lon="9.651568011004183"><ele>401.75</ele><time>2026-05-01T10:41:05Z</time></trkpt><trkpt lat="40.04322638620909" lon="9.651419177211503"><ele>404.0</ele><time>2026-05-01T10:41:06Z</time></trkpt><trkpt lat="40.04331248870869" lon="9.651313341072221"><ele>404.0</ele><time>2026-05-01T10:41:07Z</time></trkpt><trkpt lat="40.04338667773462" lon="9.651200093116675"><ele>404.0</ele><time>2026-05-01T10:41:08Z</time></trkpt><trkpt lat="40.04341607102686" lon="9.651080510719963"><ele>404.0</ele><time>2026-05-01T10:41:09Z</time></trkpt><trkpt lat="40.04343798324531" lon="9.650980854482874"><ele>404.0</ele><time>2026-05-01T10:41:10Z</time></trkpt><trkpt lat="40.04342283630021" lon="9.650879265860922"><ele>404.0</ele><time>2026-05-01T10:41:11Z</time></trkpt><trkpt lat="40.04334735464455" lon="9.650820082221838"><ele>395.79999999999995</ele><time>2026-05-01T10:41:12Z</time></trkpt><trkpt lat="40.043278384280775" lon="9.65076087497777"><ele>387.59999999999997</ele><time>2026-05-01T10:41:13Z</time></trkpt><trkpt lat="40.04317578326695" lon="9.650767724489818"><ele>379.4</ele><time>2026-05-01T10:41:14Z</time></trkpt><trkpt lat="40.04308800911618" lon="9.650825141384137"><ele>371.2</ele><time>2026-05-01T10:41:15Z</time></trkpt><trkpt lat="40.04303846598096" lon="9.650948088773477"><ele>363.0</ele><time>2026-05-01T10:41:16Z</time></trkpt><trkpt lat="40.04300362311994" lon="9.651076220254756"><ele>366.75</ele><time>2026-05-01T10:41:17Z</time></trkpt><trkpt lat="40.04296724609759" lon="9.651232839830465"><ele>370.5</ele><time>2026-05-01T10:41:18Z</time></trkpt><trkpt lat="40.04292809722376" lon="9.651387403911214"><ele>374.25</ele><time>2026-05-01T10:41:19Z</time></trkpt><trkpt lat="40.04289291312689" lon="9.65152716299405"><ele>378.0</ele><time>2026-05-01T10:41:20Z</time></trkpt><trkpt lat="40.04284146449738" lon="9.651651878519578"><ele>378.0</ele><time>2026-05-01T10:41:21Z</time></trkpt><trkpt lat="40.042818548940254" lon="9.651785380826036"><ele>378.0</ele><time>2026-05-01T10:41:22Z</time></trkpt><trkpt lat="40.042784674913435" lon="9.651903983076846"><ele>378.0</ele><time>2026-05-01T10:41:23Z</time></trkpt><trkpt lat="40.0427484797874" lon="9.652012262449725"><ele>378.0</ele><time>2026-05-01T10:41:24Z</time></trkpt><trkpt lat="40.04270067156218" lon="9.652101622350868"><ele>378.0</ele><time>2026-05-01T10:41:25Z</time></trkpt><trkpt lat="40.04262768950808" lon="9.652151421210165"><ele>378.0</ele><time>2026-05-01T10:41:26Z</time></trkpt><trkpt lat="40.042540681090436" lon="9.652151691432984"><ele>378.0</ele><time>2026-05-01T10:41:27Z</time></trkpt><trkpt lat="40.04246506942189" lon="9.652104988178012"><ele>378.0</ele><time>2026-05-01T10:41:28Z</time></trkpt><trkpt lat="40.04241399573673" lon="9.652019588849038"><ele>378.0</ele><time>2026-05-01T10:41:29Z</time></trkpt><trkpt lat="40.04242411141561" lon="9.651884810083624"><ele>378.0</ele><time>2026-05-01T10:41:30Z</time></trkpt><trkpt lat="40.042458477625644" lon="9.65177980391689"><ele>378.0</ele><time>2026-05-01T10:41:31Z</time></trkpt><trkpt lat="40.04250486328308" lon="9.651680096459076"><ele>378.0</ele><time>2026-05-01T10:41:32Z</time></trkpt><trkpt lat="40.04255249947386" lon="9.651562525819301"><ele>378.0</ele><time>2026-05-01T10:41:33Z</time></trkpt><trkpt lat="40.042605928217746" lon="9.651434682078234"><ele>378.0</ele><time>2026-05-01T10:41:34Z</time></trkpt><trkpt lat="40.04264954090928" lon="9.651289072264001"><ele>378.0</ele><time>2026-05-01T10:41:35Z</time></trkpt><trkpt lat="40.042711948208776" lon="9.651148935034973"><ele>375.0</ele><time>2026-05-01T10:41:36Z</time></trkpt><trkpt lat="40.04276726439678" lon="9.651009216445281"><ele>372.0</ele><time>2026-05-01T10:41:37Z</time></trkpt><trkpt lat="40.04283940323473" lon="9.650883478426664"><ele>369.0</ele><time>2026-05-01T10:41:38Z</time></trkpt><trkpt lat="40.042881180198435" lon="9.650737378832758"><ele>366.0</ele><time>2026-05-01T10:41:39Z</time></trkpt><trkpt lat="40.04292570516746" lon="9.650642832660754"><ele>363.0</ele><time>2026-05-01T10:41:40Z</time></trkpt><trkpt lat="40.04298545990449" lon="9.650509576592032"><ele>363.0</ele><time>2026-05-01T10:41:42Z</time></trkpt><trkpt lat="40.043016759507665" lon="9.650437571087288"><ele>363.0</ele><time>2026-05-01T10:41:43Z</time></trkpt><trkpt lat="40.04305258087179" lon="9.650348990721852"><ele>363.0</ele><time>2026-05-01T10:41:44Z</time></trkpt><trkpt lat="40.0430868773275" lon="9.650252050257377"><ele>363.0</ele><time>2026-05-01T10:41:45Z</time></trkpt><trkpt lat="40.04311500381619" lon="9.650150756010216"><ele>363.0</ele><time>2026-05-01T10:41:46Z</time></trkpt><trkpt lat="40.04312441890086" lon="9.650044433145931"><ele>363.0</ele><time>2026-05-01T10:41:47Z</time></trkpt><trkpt lat="40.04313112303031" lon="9.649933085900441"><ele>360.2</ele><time>2026-05-01T10:41:48Z</time></trkpt><trkpt lat="40.04310546116229" lon="9.649820339657618"><ele>357.4</ele><time>2026-05-01T10:41:49Z</time></trkpt><trkpt lat="40.04307174371043" lon="9.649709752919376"><ele>354.59999999999997</ele><time>2026-05-01T10:41:50Z</time></trkpt><trkpt lat="40.04303877807031" lon="9.649599645105326"><ele>351.79999999999995</ele><time>2026-05-01T10:41:51Z</time></trkpt><trkpt lat="40.04300710047912" lon="9.64948312968197"><ele>349.0</ele><time>2026-05-01T10:41:52Z</time></trkpt><trkpt lat="40.042976758221776" lon="9.649366983840121"><ele>346.79999999999995</ele><time>2026-05-01T10:41:53Z</time></trkpt><trkpt lat="40.042946392645035" lon="9.649250748601702"><ele>344.59999999999997</ele><time>2026-05-01T10:41:54Z</time></trkpt><trkpt lat="40.0429168495946" lon="9.64913899628994"><ele>342.4</ele><time>2026-05-01T10:41:55Z</time></trkpt><trkpt lat="40.04288665618314" lon="9.649025097888241"><ele>340.2</ele><time>2026-05-01T10:41:56Z</time></trkpt><trkpt lat="40.04285706006131" lon="9.64891475846738"><ele>338.0</ele><time>2026-05-01T10:41:57Z</time></trkpt><trkpt lat="40.04282763574864" lon="9.648807298303597"><ele>338.0</ele><time>2026-05-01T10:41:58Z</time></trkpt><trkpt lat="40.04279791228127" lon="9.648701100910724"><ele>338.0</ele><time>2026-05-01T10:41:59Z</time></trkpt><trkpt lat="40.04276568320308" lon="9.64858726018151"><ele>338.0</ele><time>2026-05-01T10:42:00Z</time></trkpt><trkpt lat="40.04273288175415" lon="9.64847401719387"><ele>338.0</ele><time>2026-05-01T10:42:01Z</time></trkpt><trkpt lat="40.04269923865446" lon="9.648362720628601"><ele>338.0</ele><time>2026-05-01T10:42:02Z</time></trkpt><trkpt lat="40.04266541297568" lon="9.648254554769135"><ele>339.0</ele><time>2026-05-01T10:42:03Z</time></trkpt><trkpt lat="40.04263585446177" lon="9.64814312924931"><ele>340.0</ele><time>2026-05-01T10:42:04Z</time></trkpt><trkpt lat="40.042612344599874" lon="9.64803711224388"><ele>341.0</ele><time>2026-05-01T10:42:05Z</time></trkpt><trkpt lat="40.04260001538977" lon="9.647930370196951"><ele>342.0</ele><time>2026-05-01T10:42:06Z</time></trkpt><trkpt lat="40.04260358609753" lon="9.647814537394474"><ele>343.0</ele><time>2026-05-01T10:42:07Z</time></trkpt><trkpt lat="40.04261492824883" lon="9.64770036352308"><ele>344.0</ele><time>2026-05-01T10:42:08Z</time></trkpt><trkpt lat="40.04262953081743" lon="9.647592904535534"><ele>344.0</ele><time>2026-05-01T10:42:09Z</time></trkpt><trkpt lat="40.0426368922705" lon="9.647486428359825"><ele>344.0</ele><time>2026-05-01T10:42:10Z</time></trkpt><trkpt lat="40.04264685228473" lon="9.647390201125692"><ele>344.0</ele><time>2026-05-01T10:42:11Z</time></trkpt><trkpt lat="40.04268169518069" lon="9.647308062001743"><ele>344.0</ele><time>2026-05-01T10:42:12Z</time></trkpt><trkpt lat="40.04269871991693" lon="9.6471595219147"><ele>344.0</ele><time>2026-05-01T10:42:14Z</time></trkpt><trkpt lat="40.04267116379336" lon="9.647082048559138"><ele>344.0</ele><time>2026-05-01T10:42:15Z</time></trkpt><trkpt lat="40.04261221111401" lon="9.64697081154541"><ele>343.0</ele><time>2026-05-01T10:42:17Z</time></trkpt><trkpt lat="40.04252420711814" lon="9.646916982113176"><ele>342.0</ele><time>2026-05-01T10:42:19Z</time></trkpt><trkpt lat="40.04241264258148" lon="9.646950760515567"><ele>341.0</ele><time>2026-05-01T10:42:21Z</time></trkpt><trkpt lat="40.04237388455339" lon="9.647028130299688"><ele>340.0</ele><time>2026-05-01T10:42:22Z</time></trkpt><trkpt lat="40.0423327156937" lon="9.647157893948583"><ele>339.0</ele><time>2026-05-01T10:42:24Z</time></trkpt><trkpt lat="40.04231568621346" lon="9.647285407977334"><ele>331.4</ele><time>2026-05-01T10:42:26Z</time></trkpt><trkpt lat="40.04231147178081" lon="9.64741725803051"><ele>323.79999999999995</ele><time>2026-05-01T10:42:28Z</time></trkpt><trkpt lat="40.042298944580075" lon="9.64754675309374"><ele>316.20000000000005</ele><time>2026-05-01T10:42:30Z</time></trkpt><trkpt lat="40.04229204467882" lon="9.647697254136919"><ele>308.6</ele><time>2026-05-01T10:42:32Z</time></trkpt><trkpt lat="40.04226787691218" lon="9.647779921245315"><ele>301.0</ele><time>2026-05-01T10:42:33Z</time></trkpt><trkpt lat="40.04227322522013" lon="9.647869568517132"><ele>300.0</ele><time>2026-05-01T10:42:34Z</time></trkpt><trkpt lat="40.04226004295837" lon="9.647958214619953"><ele>299.0</ele><time>2026-05-01T10:42:35Z</time></trkpt><trkpt lat="40.04226163852331" lon="9.648066872487654"><ele>298.0</ele><time>2026-05-01T10:42:36Z</time></trkpt><trkpt lat="40.04225485862697" lon="9.648177757909673"><ele>297.0</ele><time>2026-05-01T10:42:37Z</time></trkpt><trkpt lat="40.04229865667058" lon="9.648284131513707"><ele>296.0</ele><time>2026-05-01T10:42:38Z</time></trkpt><trkpt lat="40.042315070295004" lon="9.648401635109938"><ele>295.0</ele><time>2026-05-01T10:42:39Z</time></trkpt><trkpt lat="40.04235656336498" lon="9.648490797799381"><ele>295.0</ele><time>2026-05-01T10:42:40Z</time></trkpt><trkpt lat="40.04237630113775" lon="9.64859056191074"><ele>295.0</ele><time>2026-05-01T10:42:41Z</time></trkpt><trkpt lat="40.04239046742442" lon="9.648700298895038"><ele>295.0</ele><time>2026-05-01T10:42:42Z</time></trkpt><trkpt lat="40.04240232144012" lon="9.64880705365145"><ele>295.0</ele><time>2026-05-01T10:42:43Z</time></trkpt><trkpt lat="40.04241151459455" lon="9.648907456445789"><ele>295.0</ele><time>2026-05-01T10:42:44Z</time></trkpt><trkpt lat="40.042424426228514" lon="9.649012979034184"><ele>295.0</ele><time>2026-05-01T10:42:45Z</time></trkpt><trkpt lat="40.042436152679336" lon="9.649106915286406"><ele>295.4</ele><time>2026-05-01T10:42:46Z</time></trkpt><trkpt lat="40.042447102836086" lon="9.649197996194419"><ele>295.8</ele><time>2026-05-01T10:42:47Z</time></trkpt><trkpt lat="40.04244874208869" lon="9.64928463139891"><ele>296.2</ele><time>2026-05-01T10:42:48Z</time></trkpt><trkpt lat="40.04244056446437" lon="9.649442893506894"><ele>296.6</ele><time>2026-05-01T10:42:50Z</time></trkpt><trkpt lat="40.04238837830247" lon="9.649568070199841"><ele>297.0</ele><time>2026-05-01T10:42:52Z</time></trkpt><trkpt lat="40.04230497888041" lon="9.649662782155"><ele>301.2</ele><time>2026-05-01T10:42:54Z</time></trkpt><trkpt lat="40.04219213812543" lon="9.649741390967709"><ele>305.4</ele><time>2026-05-01T10:42:56Z</time></trkpt><trkpt lat="40.04211534255633" lon="9.64978396409984"><ele>309.6</ele><time>2026-05-01T10:42:57Z</time></trkpt><trkpt lat="40.04202317477843" lon="9.64983323354843"><ele>313.8</ele><time>2026-05-01T10:42:58Z</time></trkpt><trkpt lat="40.04192565424319" lon="9.649882074084333"><ele>318.0</ele><time>2026-05-01T10:42:59Z</time></trkpt><trkpt lat="40.04183030352559" lon="9.649926999153163"><ele>318.0</ele><time>2026-05-01T10:43:00Z</time></trkpt><trkpt lat="40.04174241679562" lon="9.649973205581288"><ele>318.0</ele><time>2026-05-01T10:43:01Z</time></trkpt><trkpt lat="40.041662641215204" lon="9.650033937964666"><ele>318.0</ele><time>2026-05-01T10:43:02Z</time></trkpt><trkpt lat="40.04160014685771" lon="9.650151552488175"><ele>318.0</ele><time>2026-05-01T10:43:03Z</time></trkpt><trkpt lat="40.04152702172451" lon="9.65022858852526"><ele>318.0</ele><time>2026-05-01T10:43:04Z</time></trkpt><trkpt lat="40.04144661466366" lon="9.65031125027706"><ele>314.3333333333333</ele><time>2026-05-01T10:43:05Z</time></trkpt><trkpt lat="40.041365896718446" lon="9.650389261438075"><ele>310.6666666666667</ele><time>2026-05-01T10:43:06Z</time></trkpt><trkpt lat="40.04129690702048" lon="9.650455573869149"><ele>307.0</ele><time>2026-05-01T10:43:07Z</time></trkpt><trkpt lat="40.041242286723104" lon="9.650509118576869"><ele>303.33333333333337</ele><time>2026-05-01T10:43:08Z</time></trkpt><trkpt lat="40.041193398605095" lon="9.650561095366973"><ele>299.6666666666667</ele><time>2026-05-01T10:43:09Z</time></trkpt><trkpt lat="40.04114058650919" lon="9.65063016148983"><ele>296.0</ele><time>2026-05-01T10:43:10Z</time></trkpt><trkpt lat="40.04109069664291" lon="9.6507033872423"><ele>296.0</ele><time>2026-05-01T10:43:11Z</time></trkpt><trkpt lat="40.041077334984394" lon="9.650821732291405"><ele>296.0</ele><time>2026-05-01T10:43:12Z</time></trkpt><trkpt lat="40.04108876158541" lon="9.650940897044919"><ele>296.0</ele><time>2026-05-01T10:43:13Z</time></trkpt><trkpt lat="40.041065441684225" lon="9.651045731772035"><ele>296.0</ele><time>2026-05-01T10:43:14Z</time></trkpt><trkpt lat="40.04104671092063" lon="9.651144315656875"><ele>296.0</ele><time>2026-05-01T10:43:15Z</time></trkpt><trkpt lat="40.04101105696429" lon="9.651234354227187"><ele>296.0</ele><time>2026-05-01T10:43:16Z</time></trkpt><trkpt lat="40.04096921068449" lon="9.651318765173503"><ele>299.8</ele><time>2026-05-01T10:43:17Z</time></trkpt><trkpt lat="40.040883342476256" lon="9.651351224818985"><ele>303.6</ele><time>2026-05-01T10:43:18Z</time></trkpt><trkpt lat="40.040797153398536" lon="9.651389782266069"><ele>307.4</ele><time>2026-05-01T10:43:19Z</time></trkpt><trkpt lat="40.04070491887274" lon="9.651414985009119"><ele>311.2</ele><time>2026-05-01T10:43:20Z</time></trkpt><trkpt lat="40.040603464886665" lon="9.651433037755357"><ele>315.0</ele><time>2026-05-01T10:43:21Z</time></trkpt><trkpt lat="40.04051005948425" lon="9.651449452814811"><ele>315.0</ele><time>2026-05-01T10:43:22Z</time></trkpt><trkpt lat="40.040422934584115" lon="9.651464483254422"><ele>315.0</ele><time>2026-05-01T10:43:23Z</time></trkpt><trkpt lat="40.04034208878199" lon="9.651475944214113"><ele>315.0</ele><time>2026-05-01T10:43:24Z</time></trkpt><trkpt lat="40.04025533944313" lon="9.651477617565455"><ele>315.0</ele><time>2026-05-01T10:43:25Z</time></trkpt><trkpt lat="40.040157158484874" lon="9.651454960854508"><ele>315.0</ele><time>2026-05-01T10:43:26Z</time></trkpt><trkpt lat="40.040061673434366" lon="9.65141572027666"><ele>313.0</ele><time>2026-05-01T10:43:27Z</time></trkpt><trkpt lat="40.03996160034887" lon="9.651374327141992"><ele>311.0</ele><time>2026-05-01T10:43:28Z</time></trkpt><trkpt lat="40.03985917189299" lon="9.651337144550691"><ele>309.0</ele><time>2026-05-01T10:43:29Z</time></trkpt><trkpt lat="40.039763279938484" lon="9.651301342318538"><ele>307.0</ele><time>2026-05-01T10:43:30Z</time></trkpt><trkpt lat="40.03967461870356" lon="9.651262186525779"><ele>305.0</ele><time>2026-05-01T10:43:31Z</time></trkpt><trkpt lat="40.039593899487606" lon="9.651224477798014"><ele>305.0</ele><time>2026-05-01T10:43:32Z</time></trkpt><trkpt lat="40.0395137969149" lon="9.651180495601201"><ele>305.0</ele><time>2026-05-01T10:43:33Z</time></trkpt><trkpt lat="40.03944538711296" lon="9.651155063642495"><ele>305.0</ele><time>2026-05-01T10:43:34Z</time></trkpt><trkpt lat="40.03934776335733" lon="9.651114613956109"><ele>305.0</ele><time>2026-05-01T10:43:36Z</time></trkpt><trkpt lat="40.039295463682635" lon="9.65102789951386"><ele>305.0</ele><time>2026-05-01T10:43:38Z</time></trkpt><trkpt lat="40.03931303242776" lon="9.65088074071999"><ele>300.0</ele><time>2026-05-01T10:43:40Z</time></trkpt><trkpt lat="40.039356079124644" lon="9.650819823272576"><ele>295.0</ele><time>2026-05-01T10:43:41Z</time></trkpt><trkpt lat="40.039473922136644" lon="9.650786141728728"><ele>290.0</ele><time>2026-05-01T10:43:43Z</time></trkpt><trkpt lat="40.039540381135" lon="9.650835911573866"><ele>285.0</ele><time>2026-05-01T10:43:44Z</time></trkpt><trkpt lat="40.03961320434921" lon="9.650858800278712"><ele>280.0</ele><time>2026-05-01T10:43:45Z</time></trkpt><trkpt lat="40.03970750815681" lon="9.650873038826253"><ele>275.0</ele><time>2026-05-01T10:43:46Z</time></trkpt><trkpt lat="40.039796552554826" lon="9.650924636972492"><ele>275.0</ele><time>2026-05-01T10:43:47Z</time></trkpt><trkpt lat="40.039883733363624" lon="9.650976793855193"><ele>275.0</ele><time>2026-05-01T10:43:48Z</time></trkpt><trkpt lat="40.039960081669456" lon="9.65102324661437"><ele>275.0</ele><time>2026-05-01T10:43:49Z</time></trkpt><trkpt lat="40.04001710332312" lon="9.651065361797864"><ele>275.0</ele><time>2026-05-01T10:43:50Z</time></trkpt><trkpt lat="40.04008333442775" lon="9.65109211871948"><ele>275.0</ele><time>2026-05-01T10:43:51Z</time></trkpt><trkpt lat="40.04020368948913" lon="9.651075565569432"><ele>275.0</ele><time>2026-05-01T10:43:53Z</time></trkpt><trkpt lat="40.040269945808134" lon="9.651031848490979"><ele>276.5</ele><time>2026-05-01T10:43:54Z</time></trkpt><trkpt lat="40.04033204756287" lon="9.650963130716606"><ele>278.0</ele><time>2026-05-01T10:43:55Z</time></trkpt><trkpt lat="40.040389492705344" lon="9.650885343546149"><ele>279.5</ele><time>2026-05-01T10:43:56Z</time></trkpt><trkpt lat="40.04043256702986" lon="9.650807686407447"><ele>281.0</ele><time>2026-05-01T10:43:57Z</time></trkpt><trkpt lat="40.04048029621585" lon="9.650742279832889"><ele>282.5</ele><time>2026-05-01T10:43:58Z</time></trkpt><trkpt lat="40.0405176210216" lon="9.650598216887108"><ele>284.0</ele><time>2026-05-01T10:44:00Z</time></trkpt><trkpt lat="40.04048100041772" lon="9.650507854885845"><ele>284.0</ele><time>2026-05-01T10:44:01Z</time></trkpt><trkpt lat="40.04046274116365" lon="9.650421778891172"><ele>284.0</ele><time>2026-05-01T10:44:02Z</time></trkpt><trkpt lat="40.04043856997205" lon="9.650313826276964"><ele>284.0</ele><time>2026-05-01T10:44:03Z</time></trkpt><trkpt lat="40.040427651694706" lon="9.65019221818419"><ele>284.0</ele><time>2026-05-01T10:44:04Z</time></trkpt><trkpt lat="40.04042868394774" lon="9.650062911432466"><ele>284.0</ele><time>2026-05-01T10:44:05Z</time></trkpt><trkpt lat="40.04043104260006" lon="9.649924976337672"><ele>278.25</ele><time>2026-05-01T10:44:06Z</time></trkpt><trkpt lat="40.0404315273218" lon="9.649773727379177"><ele>272.5</ele><time>2026-05-01T10:44:07Z</time></trkpt><trkpt lat="40.040421218297794" lon="9.649612237689164"><ele>266.75</ele><time>2026-05-01T10:44:08Z</time></trkpt><trkpt lat="40.04040682108566" lon="9.649444404965315"><ele>261.0</ele><time>2026-05-01T10:44:09Z</time></trkpt><trkpt lat="40.0404039055469" lon="9.649306538769123"><ele>258.8</ele><time>2026-05-01T10:44:10Z</time></trkpt><trkpt lat="40.04041536054762" lon="9.649171931548162"><ele>256.6</ele><time>2026-05-01T10:44:11Z</time></trkpt><trkpt lat="40.040445033517" lon="9.649034099071548"><ele>254.4</ele><time>2026-05-01T10:44:12Z</time></trkpt><trkpt lat="40.04051611052682" lon="9.648914288077245"><ele>252.2</ele><time>2026-05-01T10:44:13Z</time></trkpt><trkpt lat="40.04062152168534" lon="9.648841040951517"><ele>250.0</ele><time>2026-05-01T10:44:14Z</time></trkpt><trkpt lat="40.04072651341189" lon="9.648763846357182"><ele>251.75</ele><time>2026-05-01T10:44:15Z</time></trkpt><trkpt lat="40.040814764211696" lon="9.648663033492854"><ele>253.5</ele><time>2026-05-01T10:44:16Z</time></trkpt><trkpt lat="40.04088186895376" lon="9.648538904136963"><ele>255.25</ele><time>2026-05-01T10:44:17Z</time></trkpt><trkpt lat="40.0409128258218" lon="9.64837434150516"><ele>257.0</ele><time>2026-05-01T10:44:18Z</time></trkpt><trkpt lat="40.04088916257237" lon="9.648195490074636"><ele>257.0</ele><time>2026-05-01T10:44:19Z</time></trkpt><trkpt lat="40.040864700830625" lon="9.648005235135"><ele>257.0</ele><time>2026-05-01T10:44:20Z</time></trkpt><trkpt lat="40.040815966996355" lon="9.647787776247453"><ele>257.0</ele><time>2026-05-01T10:44:21Z</time></trkpt><trkpt lat="40.040745989048084" lon="9.647523156696959"><ele>246.0</ele><time>2026-05-01T10:44:22Z</time></trkpt><trkpt lat="40.0406826275593" lon="9.647268667996421"><ele>235.0</ele><time>2026-05-01T10:44:23Z</time></trkpt><trkpt lat="40.040626925504455" lon="9.647063759655671"><ele>224.0</ele><time>2026-05-01T10:44:24Z</time></trkpt><trkpt lat="40.040560311146514" lon="9.64689371495368"><ele>223.0</ele><time>2026-05-01T10:44:25Z</time></trkpt><trkpt lat="40.040490562289925" lon="9.646749359153963"><ele>222.0</ele><time>2026-05-01T10:44:26Z</time></trkpt><trkpt lat="40.04042177885727" lon="9.646625080711232"><ele>221.0</ele><time>2026-05-01T10:44:27Z</time></trkpt><trkpt lat="40.040355030074224" lon="9.646506661068685"><ele>220.0</ele><time>2026-05-01T10:44:28Z</time></trkpt><trkpt lat="40.04032062774096" lon="9.646368594093095"><ele>220.0</ele><time>2026-05-01T10:44:29Z</time></trkpt><trkpt lat="40.04028256113465" lon="9.646232193294344"><ele>220.0</ele><time>2026-05-01T10:44:30Z</time></trkpt><trkpt lat="40.04024492737202" lon="9.646101472693044"><ele>220.0</ele><time>2026-05-01T10:44:31Z</time></trkpt><trkpt lat="40.04020806778924" lon="9.645972534997945"><ele>220.0</ele><time>2026-05-01T10:44:32Z</time></trkpt><trkpt lat="40.04017049344392" lon="9.645827453339887"><ele>220.0</ele><time>2026-05-01T10:44:33Z</time></trkpt><trkpt lat="40.04012686929589" lon="9.64564798724584"><ele>219.2</ele><time>2026-05-01T10:44:34Z</time></trkpt><trkpt lat="40.04009214197776" lon="9.645487094134078"><ele>218.4</ele><time>2026-05-01T10:44:35Z</time></trkpt><trkpt lat="40.040083486697064" lon="9.64534904260475"><ele>217.60000000000002</ele><time>2026-05-01T10:44:36Z</time></trkpt><trkpt lat="40.04010632199448" lon="9.645239613906401"><ele>216.8</ele><time>2026-05-01T10:44:37Z</time></trkpt><trkpt lat="40.04014469702677" lon="9.645140261515921"><ele>216.0</ele><time>2026-05-01T10:44:38Z</time></trkpt><trkpt lat="40.04021553631104" lon="9.645048559719688"><ele>214.33333333333331</ele><time>2026-05-01T10:44:39Z</time></trkpt><trkpt lat="40.040334648241405" lon="9.644948794915857"><ele>212.66666666666666</ele><time>2026-05-01T10:44:40Z</time></trkpt><trkpt lat="40.04048989943751" lon="9.64481947003751"><ele>211.0</ele><time>2026-05-01T10:44:41Z</time></trkpt><trkpt lat="40.040626188437884" lon="9.644695217975668"><ele>211.0</ele><time>2026-05-01T10:44:42Z</time></trkpt><trkpt lat="40.0407257071494" lon="9.644599406032002"><ele>211.0</ele><time>2026-05-01T10:44:43Z</time></trkpt><trkpt lat="40.04076235676488" lon="9.644451359360858"><ele>211.0</ele><time>2026-05-01T10:44:44Z</time></trkpt><trkpt lat="40.04076861910853" lon="9.644310951778287"><ele>211.0</ele><time>2026-05-01T10:44:45Z</time></trkpt><trkpt lat="40.0407379116957" lon="9.644144220476647"><ele>205.0</ele><time>2026-05-01T10:44:46Z</time></trkpt><trkpt lat="40.04065941323204" lon="9.644027422421523"><ele>199.0</ele><time>2026-05-01T10:44:47Z</time></trkpt><trkpt lat="40.040579566777524" lon="9.643824608866078"><ele>193.0</ele><time>2026-05-01T10:44:48Z</time></trkpt><trkpt lat="40.040445216475995" lon="9.643641120869354"><ele>195.0</ele><time>2026-05-01T10:44:49Z</time></trkpt><trkpt lat="40.04032099503648" lon="9.643444200896543"><ele>197.0</ele><time>2026-05-01T10:44:50Z</time></trkpt><trkpt lat="40.040209509661935" lon="9.643269643337575"><ele>199.0</ele><time>2026-05-01T10:44:51Z</time></trkpt><trkpt lat="40.04009545782519" lon="9.6431215486668"><ele>199.0</ele><time>2026-05-01T10:44:52Z</time></trkpt><trkpt lat="40.03997079042791" lon="9.643005608910233"><ele>199.0</ele><time>2026-05-01T10:44:53Z</time></trkpt><trkpt lat="40.03984828771431" lon="9.642906367558426"><ele>199.0</ele><time>2026-05-01T10:44:54Z</time></trkpt><trkpt lat="40.039735337846864" lon="9.642804847288913"><ele>199.0</ele><time>2026-05-01T10:44:55Z</time></trkpt><trkpt lat="40.039627799719234" lon="9.642681396628724"><ele>195.25</ele><time>2026-05-01T10:44:56Z</time></trkpt><trkpt lat="40.039554895544846" lon="9.642518210324592"><ele>191.5</ele><time>2026-05-01T10:44:57Z</time></trkpt><trkpt lat="40.03947307082211" lon="9.6423677358027"><ele>187.75</ele><time>2026-05-01T10:44:58Z</time></trkpt><trkpt lat="40.03939486020696" lon="9.642222418646627"><ele>184.0</ele><time>2026-05-01T10:44:59Z</time></trkpt><trkpt lat="40.039332583713325" lon="9.642091869205103"><ele>184.0</ele><time>2026-05-01T10:45:00Z</time></trkpt><trkpt lat="40.03930546406043" lon="9.641966769186242"><ele>184.0</ele><time>2026-05-01T10:45:01Z</time></trkpt><trkpt lat="40.03930624101211" lon="9.641829390565002"><ele>184.0</ele><time>2026-05-01T10:45:02Z</time></trkpt><trkpt lat="40.039349082077216" lon="9.641707267585172"><ele>184.0</ele><time>2026-05-01T10:45:03Z</time></trkpt><trkpt lat="40.03941428000617" lon="9.641602746176492"><ele>184.0</ele><time>2026-05-01T10:45:04Z</time></trkpt><trkpt lat="40.03950875373375" lon="9.641537495861456"><ele>183.25</ele><time>2026-05-01T10:45:05Z</time></trkpt><trkpt lat="40.03962412015101" lon="9.641516649341602"><ele>182.5</ele><time>2026-05-01T10:45:06Z</time></trkpt><trkpt lat="40.03975255072412" lon="9.641549573152535"><ele>181.75</ele><time>2026-05-01T10:45:07Z</time></trkpt><trkpt lat="40.03990016597151" lon="9.641550494974647"><ele>181.0</ele><time>2026-05-01T10:45:08Z</time></trkpt><trkpt lat="40.04005877162401" lon="9.641579442612379"><ele>181.0</ele><time>2026-05-01T10:45:09Z</time></trkpt><trkpt lat="40.04022795799154" lon="9.641597899698576"><ele>181.0</ele><time>2026-05-01T10:45:10Z</time></trkpt><trkpt lat="40.04040603811773" lon="9.641638593540984"><ele>181.0</ele><time>2026-05-01T10:45:11Z</time></trkpt><trkpt lat="40.04053820299741" lon="9.641641657578749"><ele>181.0</ele><time>2026-05-01T10:45:12Z</time></trkpt><trkpt lat="40.04068043803419" lon="9.641663079937818"><ele>181.0</ele><time>2026-05-01T10:45:13Z</time></trkpt><trkpt lat="40.04081782093666" lon="9.641679232797236"><ele>181.0</ele><time>2026-05-01T10:45:14Z</time></trkpt><trkpt lat="40.04094959245909" lon="9.64169638016498"><ele>181.0</ele><time>2026-05-01T10:45:15Z</time></trkpt><trkpt lat="40.041067341408436" lon="9.641711241532002"><ele>180.16666666666669</ele><time>2026-05-01T10:45:16Z</time></trkpt><trkpt lat="40.04115894792237" lon="9.641702846796834"><ele>179.33333333333334</ele><time>2026-05-01T10:45:17Z</time></trkpt><trkpt lat="40.04123951704959" lon="9.641662089344612"><ele>178.5</ele><time>2026-05-01T10:45:18Z</time></trkpt><trkpt lat="40.04129473591517" lon="9.641577013769128"><ele>177.66666666666666</ele><time>2026-05-01T10:45:19Z</time></trkpt><trkpt lat="40.04131262618686" lon="9.64146672256269"><ele>176.83333333333331</ele><time>2026-05-01T10:45:20Z</time></trkpt><trkpt lat="40.0412928482723" lon="9.641341223970583"><ele>176.0</ele><time>2026-05-01T10:45:21Z</time></trkpt><trkpt lat="40.041237135732786" lon="9.641239344335427"><ele>176.0</ele><time>2026-05-01T10:45:22Z</time></trkpt><trkpt lat="40.041142225035266" lon="9.64116181877421"><ele>176.0</ele><time>2026-05-01T10:45:23Z</time></trkpt><trkpt lat="40.04101713417788" lon="9.641129117632046"><ele>176.0</ele><time>2026-05-01T10:45:24Z</time></trkpt><trkpt lat="40.040877207854706" lon="9.641116603796029"><ele>176.0</ele><time>2026-05-01T10:45:25Z</time></trkpt><trkpt lat="40.040733399601066" lon="9.641101782128965"><ele>172.25</ele><time>2026-05-01T10:45:26Z</time></trkpt><trkpt lat="40.04058505054752" lon="9.641072078693234"><ele>168.5</ele><time>2026-05-01T10:45:27Z</time></trkpt><trkpt lat="40.04044677817926" lon="9.641026900634829"><ele>164.75</ele><time>2026-05-01T10:45:28Z</time></trkpt><trkpt lat="40.04032526777248" lon="9.640956698100714"><ele>161.0</ele><time>2026-05-01T10:45:29Z</time></trkpt><trkpt lat="40.040213996931435" lon="9.640868518607332"><ele>161.0</ele><time>2026-05-01T10:45:30Z</time></trkpt><trkpt lat="40.04011665681092" lon="9.640761866702453"><ele>161.0</ele><time>2026-05-01T10:45:31Z</time></trkpt><trkpt lat="40.040012938161475" lon="9.640673739222311"><ele>161.0</ele><time>2026-05-01T10:45:32Z</time></trkpt><trkpt lat="40.039934755564396" lon="9.640557317266627"><ele>161.0</ele><time>2026-05-01T10:45:33Z</time></trkpt><trkpt lat="40.03984321483647" lon="9.64046680648017"><ele>159.25</ele><time>2026-05-01T10:45:34Z</time></trkpt><trkpt lat="40.03973899750674" lon="9.640410606341957"><ele>157.5</ele><time>2026-05-01T10:45:35Z</time></trkpt><trkpt lat="40.03962801920362" lon="9.64038722278809"><ele>155.75</ele><time>2026-05-01T10:45:36Z</time></trkpt><trkpt lat="40.039508636714295" lon="9.640400456990365"><ele>154.0</ele><time>2026-05-01T10:45:37Z</time></trkpt><trkpt lat="40.03939823079876" lon="9.640433799889921"><ele>154.0</ele><time>2026-05-01T10:45:38Z</time></trkpt><trkpt lat="40.039296463486984" lon="9.640483330415059"><ele>154.0</ele><time>2026-05-01T10:45:39Z</time></trkpt><trkpt lat="40.039204403951324" lon="9.640548456615585"><ele>154.0</ele><time>2026-05-01T10:45:40Z</time></trkpt><trkpt lat="40.03910881022574" lon="9.640589443291976"><ele>154.0</ele><time>2026-05-01T10:45:41Z</time></trkpt><trkpt lat="40.03903854534746" lon="9.640692458756018"><ele>154.0</ele><time>2026-05-01T10:45:42Z</time></trkpt><trkpt lat="40.03894499611352" lon="9.64074002978193"><ele>152.0</ele><time>2026-05-01T10:45:43Z</time></trkpt><trkpt lat="40.03885656786185" lon="9.640793542715453"><ele>150.0</ele><time>2026-05-01T10:45:44Z</time></trkpt><trkpt lat="40.03876730623866" lon="9.640845527948153"><ele>148.0</ele><time>2026-05-01T10:45:45Z</time></trkpt><trkpt lat="40.03866797740419" lon="9.640839684131416"><ele>146.0</ele><time>2026-05-01T10:45:46Z</time></trkpt><trkpt lat="40.03857262636223" lon="9.64082575779173"><ele>144.0</ele><time>2026-05-01T10:45:47Z</time></trkpt><trkpt lat="40.03848658290464" lon="9.64081880856477"><ele>144.0</ele><time>2026-05-01T10:45:48Z</time></trkpt><trkpt lat="40.038380668187834" lon="9.640779497905429"><ele>144.0</ele><time>2026-05-01T10:45:50Z</time></trkpt><trkpt lat="40.03832164322342" lon="9.640695712536159"><ele>144.0</ele><time>2026-05-01T10:45:52Z</time></trkpt><trkpt lat="40.0382568395169" lon="9.640619582212649"><ele>144.0</ele><time>2026-05-01T10:45:54Z</time></trkpt><trkpt lat="40.038171084359945" lon="9.64054525972067"><ele>144.0</ele><time>2026-05-01T10:45:56Z</time></trkpt><trkpt lat="40.038099998888065" lon="9.64050563950289"><ele>143.5</ele><time>2026-05-01T10:45:57Z</time></trkpt><trkpt lat="40.03802771795411" lon="9.640472829706622"><ele>143.0</ele><time>2026-05-01T10:45:58Z</time></trkpt><trkpt lat="40.03795644398807" lon="9.640443963509474"><ele>142.5</ele><time>2026-05-01T10:45:59Z</time></trkpt><trkpt lat="40.037889306015046" lon="9.64040160335614"><ele>142.0</ele><time>2026-05-01T10:46:00Z</time></trkpt><trkpt lat="40.03782310656645" lon="9.640336615286017"><ele>141.5</ele><time>2026-05-01T10:46:01Z</time></trkpt><trkpt lat="40.03778654911712" lon="9.64025341714305"><ele>141.0</ele><time>2026-05-01T10:46:02Z</time></trkpt><trkpt lat="40.037733798834644" lon="9.640128395001039"><ele>139.33333333333334</ele><time>2026-05-01T10:46:04Z</time></trkpt><trkpt lat="40.037702392712326" lon="9.640054780496493"><ele>137.66666666666666</ele><time>2026-05-01T10:46:06Z</time></trkpt><trkpt lat="40.0376502942256" lon="9.640007411304406"><ele>136.0</ele><time>2026-05-01T10:46:09Z</time></trkpt><trkpt lat="40.03758503172231" lon="9.639988280206367"><ele>134.33333333333331</ele><time>2026-05-01T10:46:10Z</time></trkpt><trkpt lat="40.037494630974955" lon="9.639992101849113"><ele>132.66666666666666</ele><time>2026-05-01T10:46:11Z</time></trkpt><trkpt lat="40.03738777908778" lon="9.640003579029322"><ele>131.0</ele><time>2026-05-01T10:46:12Z</time></trkpt><trkpt lat="40.03727527886106" lon="9.64002779188235"><ele>131.0</ele><time>2026-05-01T10:46:13Z</time></trkpt><trkpt lat="40.037176833889994" lon="9.64002780859164"><ele>131.0</ele><time>2026-05-01T10:46:14Z</time></trkpt><trkpt lat="40.037083692060634" lon="9.640034718478542"><ele>131.0</ele><time>2026-05-01T10:46:15Z</time></trkpt><trkpt lat="40.03699519562571" lon="9.640046461711755"><ele>131.0</ele><time>2026-05-01T10:46:16Z</time></trkpt><trkpt lat="40.03691370050792" lon="9.640067746021433"><ele>131.0</ele><time>2026-05-01T10:46:17Z</time></trkpt><trkpt lat="40.03683460240226" lon="9.640075423167945"><ele>131.0</ele><time>2026-05-01T10:46:18Z</time></trkpt><trkpt lat="40.03676202042804" lon="9.640108390020927"><ele>131.0</ele><time>2026-05-01T10:46:19Z</time></trkpt><trkpt lat="40.03667073982018" lon="9.640128161861682"><ele>131.0</ele><time>2026-05-01T10:46:20Z</time></trkpt><trkpt lat="40.03656769159316" lon="9.640157497908035"><ele>131.0</ele><time>2026-05-01T10:46:21Z</time></trkpt><trkpt lat="40.03646354960842" lon="9.640197062717725"><ele>131.0</ele><time>2026-05-01T10:46:22Z</time></trkpt><trkpt lat="40.03635640656829" lon="9.640222518131493"><ele>131.0</ele><time>2026-05-01T10:46:23Z</time></trkpt><trkpt lat="40.03624456554976" lon="9.640193233614744"><ele>129.5</ele><time>2026-05-01T10:46:24Z</time></trkpt><trkpt lat="40.03612755057302" lon="9.64017715653559"><ele>128.0</ele><time>2026-05-01T10:46:25Z</time></trkpt><trkpt lat="40.0359934745116" lon="9.640178997496983"><ele>126.5</ele><time>2026-05-01T10:46:26Z</time></trkpt><trkpt lat="40.035869141993516" lon="9.640152793047713"><ele>125.0</ele><time>2026-05-01T10:46:27Z</time></trkpt><trkpt lat="40.03574607748024" lon="9.64014921459954"><ele>123.5</ele><time>2026-05-01T10:46:28Z</time></trkpt><trkpt lat="40.03562643886436" lon="9.640176367228324"><ele>122.0</ele><time>2026-05-01T10:46:29Z</time></trkpt><trkpt lat="40.03550627822157" lon="9.640178605682268"><ele>120.5</ele><time>2026-05-01T10:46:30Z</time></trkpt><trkpt lat="40.03537628448352" lon="9.640201946026137"><ele>119.0</ele><time>2026-05-01T10:46:31Z</time></trkpt><trkpt lat="40.035251126837366" lon="9.640226732798745"><ele>119.0</ele><time>2026-05-01T10:46:32Z</time></trkpt><trkpt lat="40.03514572182799" lon="9.640278914705497"><ele>119.0</ele><time>2026-05-01T10:46:33Z</time></trkpt><trkpt lat="40.035045715715526" lon="9.640327779597344"><ele>119.0</ele><time>2026-05-01T10:46:34Z</time></trkpt><trkpt lat="40.03493559315651" lon="9.640384886796973"><ele>119.0</ele><time>2026-05-01T10:46:35Z</time></trkpt><trkpt lat="40.034845662201306" lon="9.640481365411192"><ele>118.0</ele><time>2026-05-01T10:46:36Z</time></trkpt><trkpt lat="40.03474245050395" lon="9.640524305857134"><ele>117.0</ele><time>2026-05-01T10:46:37Z</time></trkpt><trkpt lat="40.03463967614495" lon="9.640553548351818"><ele>116.0</ele><time>2026-05-01T10:46:38Z</time></trkpt><trkpt lat="40.03452331328672" lon="9.640552465772855"><ele>115.0</ele><time>2026-05-01T10:46:39Z</time></trkpt><trkpt lat="40.0343947160692" lon="9.640547555970079"><ele>115.00000000000001</ele><time>2026-05-01T10:46:40Z</time></trkpt><trkpt lat="40.03429072854296" lon="9.640550272821946"><ele>115.0</ele><time>2026-05-01T10:46:41Z</time></trkpt><trkpt lat="40.034205213852246" lon="9.640555304735354"><ele>115.0</ele><time>2026-05-01T10:46:42Z</time></trkpt><trkpt lat="40.03412997060252" lon="9.640559802655034"><ele>115.0</ele><time>2026-05-01T10:46:43Z</time></trkpt><trkpt lat="40.03405043911796" lon="9.6405739953382"><ele>115.00000000000001</ele><time>2026-05-01T10:46:45Z</time></trkpt><trkpt lat="40.03399262343153" lon="9.640621059707238"><ele>115.0</ele><time>2026-05-01T10:46:47Z</time></trkpt><trkpt lat="40.03385513066674" lon="9.640676876646282"><ele>114.0</ele><time>2026-05-01T10:46:49Z</time></trkpt><trkpt lat="40.033735332132515" lon="9.640700038585036"><ele>113.0</ele><time>2026-05-01T10:46:50Z</time></trkpt><trkpt lat="40.03362603281503" lon="9.64071576057263"><ele>112.0</ele><time>2026-05-01T10:46:51Z</time></trkpt><trkpt lat="40.033520362746295" lon="9.640712820258928"><ele>111.0</ele><time>2026-05-01T10:46:52Z</time></trkpt><trkpt lat="40.03340896938525" lon="9.640687707147407"><ele>109.0</ele><time>2026-05-01T10:46:53Z</time></trkpt><trkpt lat="40.03329677002743" lon="9.64066252423734"><ele>107.0</ele><time>2026-05-01T10:46:54Z</time></trkpt><trkpt lat="40.033183963603165" lon="9.640642412718694"><ele>105.0</ele><time>2026-05-01T10:46:55Z</time></trkpt><trkpt lat="40.0330654877421" lon="9.640623349586098"><ele>103.0</ele><time>2026-05-01T10:46:56Z</time></trkpt><trkpt lat="40.032941869986864" lon="9.640602156443705"><ele>103.0</ele><time>2026-05-01T10:46:57Z</time></trkpt><trkpt lat="40.0328139354411" lon="9.640577627372718"><ele>103.0</ele><time>2026-05-01T10:46:58Z</time></trkpt><trkpt lat="40.03267967662745" lon="9.640549311829053"><ele>103.0</ele><time>2026-05-01T10:46:59Z</time></trkpt><trkpt lat="40.032543612253306" lon="9.64051940695625"><ele>103.0</ele><time>2026-05-01T10:47:00Z</time></trkpt><trkpt lat="40.03240480528872" lon="9.640481185876155"><ele>103.0</ele><time>2026-05-01T10:47:01Z</time></trkpt><trkpt lat="40.032267695966134" lon="9.640419754504974"><ele>103.0</ele><time>2026-05-01T10:47:02Z</time></trkpt><trkpt lat="40.03213671989001" lon="9.640328036657667"><ele>103.0</ele><time>2026-05-01T10:47:03Z</time></trkpt><trkpt lat="40.032010034795206" lon="9.64022341211542"><ele>103.0</ele><time>2026-05-01T10:47:04Z</time></trkpt><trkpt lat="40.03188025334451" lon="9.64012304686215"><ele>103.0</ele><time>2026-05-01T10:47:05Z</time></trkpt><trkpt lat="40.03174282805488" lon="9.640021221995788"><ele>103.0</ele><time>2026-05-01T10:47:06Z</time></trkpt><trkpt lat="40.03162125344503" lon="9.639882576437664"><ele>103.0</ele><time>2026-05-01T10:47:07Z</time></trkpt><trkpt lat="40.03152174776856" lon="9.639711282869738"><ele>100.66666666666667</ele><time>2026-05-01T10:47:08Z</time></trkpt><trkpt lat="40.03140153844433" lon="9.63955891627251"><ele>98.33333333333334</ele><time>2026-05-01T10:47:09Z</time></trkpt><trkpt lat="40.03124995226543" lon="9.6394330814251"><ele>96.0</ele><time>2026-05-01T10:47:10Z</time></trkpt><trkpt lat="40.03109159196148" lon="9.639331990370726"><ele>96.0</ele><time>2026-05-01T10:47:11Z</time></trkpt><trkpt lat="40.0309261178022" lon="9.639256659670767"><ele>96.0</ele><time>2026-05-01T10:47:12Z</time></trkpt><trkpt lat="40.03073962669092" lon="9.639211203378704"><ele>96.0</ele><time>2026-05-01T10:47:13Z</time></trkpt><trkpt lat="40.03055118360312" lon="9.639164132457886"><ele>93.66666666666667</ele><time>2026-05-01T10:47:14Z</time></trkpt><trkpt lat="40.03037250740012" lon="9.639111043139929"><ele>91.33333333333334</ele><time>2026-05-01T10:47:15Z</time></trkpt><trkpt lat="40.030200575743734" lon="9.639064256348389"><ele>89.0</ele><time>2026-05-01T10:47:16Z</time></trkpt><trkpt lat="40.030034744917174" lon="9.639018335640088"><ele>88.75</ele><time>2026-05-01T10:47:17Z</time></trkpt><trkpt lat="40.02987174814116" lon="9.638977110399837"><ele>88.5</ele><time>2026-05-01T10:47:18Z</time></trkpt><trkpt lat="40.029721646827134" lon="9.638929254900068"><ele>88.25</ele><time>2026-05-01T10:47:19Z</time></trkpt><trkpt lat="40.02960719349942" lon="9.638869236370542"><ele>88.0</ele><time>2026-05-01T10:47:20Z</time></trkpt><trkpt lat="40.029511421356474" lon="9.638773076073011"><ele>88.0</ele><time>2026-05-01T10:47:21Z</time></trkpt><trkpt lat="40.029435671489935" lon="9.638648467310826"><ele>88.0</ele><time>2026-05-01T10:47:22Z</time></trkpt><trkpt lat="40.02935972760792" lon="9.63850427139555"><ele>88.0</ele><time>2026-05-01T10:47:23Z</time></trkpt><trkpt lat="40.02929576827101" lon="9.638375154940434"><ele>88.0</ele><time>2026-05-01T10:47:24Z</time></trkpt><trkpt lat="40.02923526346366" lon="9.6382601875875"><ele>87.4</ele><time>2026-05-01T10:47:25Z</time></trkpt><trkpt lat="40.02917162131748" lon="9.638174376274907"><ele>86.80000000000001</ele><time>2026-05-01T10:47:26Z</time></trkpt><trkpt lat="40.0291238216115" lon="9.638107223925806"><ele>86.2</ele><time>2026-05-01T10:47:27Z</time></trkpt><trkpt lat="40.029063584644916" lon="9.6379820988901"><ele>85.6</ele><time>2026-05-01T10:47:29Z</time></trkpt><trkpt lat="40.029065814963154" lon="9.63779436370038"><ele>85.0</ele><time>2026-05-01T10:47:31Z</time></trkpt><trkpt lat="40.02908748001793" lon="9.637680131336444"><ele>85.0</ele><time>2026-05-01T10:47:32Z</time></trkpt><trkpt lat="40.02912700842718" lon="9.637565667677675"><ele>85.0</ele><time>2026-05-01T10:47:33Z</time></trkpt><trkpt lat="40.02917852928579" lon="9.637463115425149"><ele>85.0</ele><time>2026-05-01T10:47:34Z</time></trkpt><trkpt lat="40.0292153937456" lon="9.637359815690896"><ele>85.0</ele><time>2026-05-01T10:47:35Z</time></trkpt><trkpt lat="40.029248530563" lon="9.637261694871718"><ele>85.0</ele><time>2026-05-01T10:47:36Z</time></trkpt><trkpt lat="40.02928219975882" lon="9.63715819465011"><ele>85.0</ele><time>2026-05-01T10:47:37Z</time></trkpt><trkpt lat="40.02930678754854" lon="9.637050498536393"><ele>87.0</ele><time>2026-05-01T10:47:38Z</time></trkpt><trkpt lat="40.02930105769095" lon="9.63694228956365"><ele>89.0</ele><time>2026-05-01T10:47:39Z</time></trkpt><trkpt lat="40.02926228288749" lon="9.636834805009597"><ele>91.0</ele><time>2026-05-01T10:47:40Z</time></trkpt><trkpt lat="40.02920494646351" lon="9.636732466021222"><ele>93.0</ele><time>2026-05-01T10:47:41Z</time></trkpt><trkpt lat="40.02913379041451" lon="9.636626618165574"><ele>95.0</ele><time>2026-05-01T10:47:42Z</time></trkpt><trkpt lat="40.02903925186992" lon="9.636539606987286"><ele>95.0</ele><time>2026-05-01T10:47:43Z</time></trkpt><trkpt lat="40.02894514250043" lon="9.636477894952622"><ele>95.0</ele><time>2026-05-01T10:47:44Z</time></trkpt><trkpt lat="40.0288387097741" lon="9.636368985515537"><ele>95.0</ele><time>2026-05-01T10:47:45Z</time></trkpt><trkpt lat="40.02872553521516" lon="9.636267447126842"><ele>95.0</ele><time>2026-05-01T10:47:46Z</time></trkpt><trkpt lat="40.028610176150906" lon="9.636156931215307"><ele>96.75</ele><time>2026-05-01T10:47:47Z</time></trkpt><trkpt lat="40.028501215963296" lon="9.636033614555874"><ele>98.5</ele><time>2026-05-01T10:47:48Z</time></trkpt><trkpt lat="40.02838604783575" lon="9.635908727991584"><ele>100.25</ele><time>2026-05-01T10:47:49Z</time></trkpt><trkpt lat="40.02827375892705" lon="9.635775372071093"><ele>102.0</ele><time>2026-05-01T10:47:50Z</time></trkpt><trkpt lat="40.02818359718075" lon="9.635637117960815"><ele>102.0</ele><time>2026-05-01T10:47:51Z</time></trkpt><trkpt lat="40.02813330226305" lon="9.635538493405123"><ele>102.0</ele><time>2026-05-01T10:47:52Z</time></trkpt><trkpt lat="40.02807657244731" lon="9.635494074124935"><ele>102.0</ele><time>2026-05-01T10:47:53Z</time></trkpt><trkpt lat="40.02801600680508" lon="9.63545046106511"><ele>102.0</ele><time>2026-05-01T10:47:54Z</time></trkpt><trkpt lat="40.027949741663846" lon="9.635378847384066"><ele>102.0</ele><time>2026-05-01T10:47:55Z</time></trkpt><trkpt lat="40.02788538365906" lon="9.635320875672898"><ele>102.0</ele><time>2026-05-01T10:47:56Z</time></trkpt><trkpt lat="40.02781181828223" lon="9.635203047633128"><ele>102.83333333333333</ele><time>2026-05-01T10:47:58Z</time></trkpt><trkpt lat="40.027767798561385" lon="9.635109105804354"><ele>103.66666666666666</ele><time>2026-05-01T10:48:00Z</time></trkpt><trkpt lat="40.027790909119254" lon="9.635023077189366"><ele>104.5</ele><time>2026-05-01T10:48:01Z</time></trkpt><trkpt lat="40.02777399576557" lon="9.634930777787082"><ele>105.33333333333333</ele><time>2026-05-01T10:48:02Z</time></trkpt><trkpt lat="40.027756332553466" lon="9.634839266545569"><ele>106.16666666666666</ele><time>2026-05-01T10:48:03Z</time></trkpt><trkpt lat="40.02770437050632" lon="9.634745736182072"><ele>107.0</ele><time>2026-05-01T10:48:04Z</time></trkpt><trkpt lat="40.02762826664816" lon="9.634657596336067"><ele>107.0</ele><time>2026-05-01T10:48:05Z</time></trkpt><trkpt lat="40.027537157978735" lon="9.634578847065644"><ele>107.0</ele><time>2026-05-01T10:48:06Z</time></trkpt><trkpt lat="40.02743754814486" lon="9.634504435388125"><ele>107.0</ele><time>2026-05-01T10:48:07Z</time></trkpt><trkpt lat="40.02732984201155" lon="9.634442333160594"><ele>107.0</ele><time>2026-05-01T10:48:08Z</time></trkpt><trkpt lat="40.02723334377192" lon="9.634369817428107"><ele>103.6</ele><time>2026-05-01T10:48:09Z</time></trkpt><trkpt lat="40.027132697123484" lon="9.63430801844258"><ele>100.19999999999999</ele><time>2026-05-01T10:48:10Z</time></trkpt><trkpt lat="40.02703505168141" lon="9.63424737354619"><ele>96.8</ele><time>2026-05-01T10:48:11Z</time></trkpt><trkpt lat="40.02693956029052" lon="9.634178161674312"><ele>93.4</ele><time>2026-05-01T10:48:12Z</time></trkpt><trkpt lat="40.02687366384768" lon="9.6340743669217"><ele>90.0</ele><time>2026-05-01T10:48:13Z</time></trkpt><trkpt lat="40.02680665132288" lon="9.633973773110581"><ele>90.0</ele><time>2026-05-01T10:48:14Z</time></trkpt><trkpt lat="40.026759877007756" lon="9.63386224967644"><ele>90.0</ele><time>2026-05-01T10:48:15Z</time></trkpt><trkpt lat="40.02672036106011" lon="9.633733309922812"><ele>90.0</ele><time>2026-05-01T10:48:16Z</time></trkpt><trkpt lat="40.02670318011971" lon="9.63359667767372"><ele>90.0</ele><time>2026-05-01T10:48:17Z</time></trkpt><trkpt lat="40.02669708674253" lon="9.633442197845017"><ele>90.0</ele><time>2026-05-01T10:48:18Z</time></trkpt><trkpt lat="40.02666965418748" lon="9.633301517196276"><ele>89.75</ele><time>2026-05-01T10:48:19Z</time></trkpt><trkpt lat="40.02661401241921" lon="9.633164895936176"><ele>89.5</ele><time>2026-05-01T10:48:20Z</time></trkpt><trkpt lat="40.02654239137757" lon="9.633035729045723"><ele>89.25</ele><time>2026-05-01T10:48:21Z</time></trkpt><trkpt lat="40.02647388668568" lon="9.632903209424159"><ele>89.0</ele><time>2026-05-01T10:48:22Z</time></trkpt><trkpt lat="40.02640518216671" lon="9.632769153301334"><ele>89.0</ele><time>2026-05-01T10:48:23Z</time></trkpt><trkpt lat="40.02633746938412" lon="9.63263989394529"><ele>89.0</ele><time>2026-05-01T10:48:24Z</time></trkpt><trkpt lat="40.0262761074639" lon="9.632517382857738"><ele>89.0</ele><time>2026-05-01T10:48:25Z</time></trkpt><trkpt lat="40.0262122798833" lon="9.632410142678197"><ele>89.0</ele><time>2026-05-01T10:48:26Z</time></trkpt><trkpt lat="40.026136530108836" lon="9.632328698661569"><ele>89.0</ele><time>2026-05-01T10:48:27Z</time></trkpt><trkpt lat="40.026048493262756" lon="9.632311807919653"><ele>89.0</ele><time>2026-05-01T10:48:28Z</time></trkpt><trkpt lat="40.02595488958422" lon="9.632349546364457"><ele>89.0</ele><time>2026-05-01T10:48:29Z</time></trkpt><trkpt lat="40.02583753468407" lon="9.632391538049907"><ele>89.0</ele><time>2026-05-01T10:48:30Z</time></trkpt><trkpt lat="40.025711580868304" lon="9.632445253148282"><ele>89.0</ele><time>2026-05-01T10:48:31Z</time></trkpt><trkpt lat="40.02558962835811" lon="9.632497261756296"><ele>88.2</ele><time>2026-05-01T10:48:32Z</time></trkpt><trkpt lat="40.025488911460165" lon="9.632539621493635"><ele>87.4</ele><time>2026-05-01T10:48:33Z</time></trkpt><trkpt lat="40.02542037222939" lon="9.632561078831468"><ele>86.6</ele><time>2026-05-01T10:48:34Z</time></trkpt><trkpt lat="40.0253429657804" lon="9.632518912947695"><ele>85.8</ele><time>2026-05-01T10:48:36Z</time></trkpt><trkpt lat="40.02531093349727" lon="9.632342820106318"><ele>85.0</ele><time>2026-05-01T10:48:38Z</time></trkpt><trkpt lat="40.02528033097199" lon="9.632212541077978"><ele>85.0</ele><time>2026-05-01T10:48:39Z</time></trkpt><trkpt lat="40.02526915551617" lon="9.632055043815072"><ele>85.0</ele><time>2026-05-01T10:48:40Z</time></trkpt><trkpt lat="40.02525715961508" lon="9.631896756396907"><ele>85.0</ele><time>2026-05-01T10:48:41Z</time></trkpt><trkpt lat="40.0252438427171" lon="9.631751674635826"><ele>85.0</ele><time>2026-05-01T10:48:42Z</time></trkpt><trkpt lat="40.02522840409235" lon="9.631633153050641"><ele>85.0</ele><time>2026-05-01T10:48:43Z</time></trkpt><trkpt lat="40.02520511273156" lon="9.631517294356863"><ele>85.2</ele><time>2026-05-01T10:48:44Z</time></trkpt><trkpt lat="40.025173460335274" lon="9.631414636193538"><ele>85.4</ele><time>2026-05-01T10:48:45Z</time></trkpt><trkpt lat="40.02511254172609" lon="9.631318119047187"><ele>85.6</ele><time>2026-05-01T10:48:46Z</time></trkpt><trkpt lat="40.02502506156812" lon="9.631239997472383"><ele>85.8</ele><time>2026-05-01T10:48:47Z</time></trkpt><trkpt lat="40.02496270781002" lon="9.63112416270879"><ele>86.0</ele><time>2026-05-01T10:48:48Z</time></trkpt><trkpt lat="40.02488742254791" lon="9.631011129126351"><ele>85.4</ele><time>2026-05-01T10:48:49Z</time></trkpt><trkpt lat="40.024836979708084" lon="9.63088175543451"><ele>84.8</ele><time>2026-05-01T10:48:50Z</time></trkpt><trkpt lat="40.024780286195295" lon="9.630777428773248"><ele>84.2</ele><time>2026-05-01T10:48:51Z</time></trkpt><trkpt lat="40.02471423054659" lon="9.6307052744437"><ele>83.60000000000001</ele><time>2026-05-01T10:48:52Z</time></trkpt><trkpt lat="40.02464209241177" lon="9.630647361089059"><ele>83.0</ele><time>2026-05-01T10:48:53Z</time></trkpt><trkpt lat="40.02452342684666" lon="9.63061773678922"><ele>83.0</ele><time>2026-05-01T10:48:54Z</time></trkpt><trkpt lat="40.02439138199443" lon="9.630582538933652"><ele>83.0</ele><time>2026-05-01T10:48:55Z</time></trkpt><trkpt lat="40.02426031567897" lon="9.630501878909808"><ele>83.0</ele><time>2026-05-01T10:48:56Z</time></trkpt><trkpt lat="40.024122570791825" lon="9.63042203528241"><ele>83.0</ele><time>2026-05-01T10:48:57Z</time></trkpt><trkpt lat="40.0240098593723" lon="9.630344984430991"><ele>82.0</ele><time>2026-05-01T10:48:58Z</time></trkpt><trkpt lat="40.02392146962094" lon="9.630261744004692"><ele>81.0</ele><time>2026-05-01T10:48:59Z</time></trkpt><trkpt lat="40.023832738326355" lon="9.630179682484352"><ele>80.0</ele><time>2026-05-01T10:49:00Z</time></trkpt><trkpt lat="40.02371757516569" lon="9.630135037674943"><ele>79.0</ele><time>2026-05-01T10:49:01Z</time></trkpt><trkpt lat="40.02359503018898" lon="9.630103298873944"><ele>79.0</ele><time>2026-05-01T10:49:02Z</time></trkpt><trkpt lat="40.023456397326974" lon="9.630083329435385"><ele>79.0</ele><time>2026-05-01T10:49:03Z</time></trkpt><trkpt lat="40.02330355123383" lon="9.630056939711361"><ele>79.0</ele><time>2026-05-01T10:49:04Z</time></trkpt><trkpt lat="40.0231728861844" lon="9.630005634429718"><ele>79.0</ele><time>2026-05-01T10:49:05Z</time></trkpt><trkpt lat="40.02305116219879" lon="9.62997790123571"><ele>78.8</ele><time>2026-05-01T10:49:06Z</time></trkpt><trkpt lat="40.0229457588004" lon="9.62995107158854"><ele>78.60000000000001</ele><time>2026-05-01T10:49:07Z</time></trkpt><trkpt lat="40.02286052521198" lon="9.629912433074924"><ele>78.4</ele><time>2026-05-01T10:49:08Z</time></trkpt><trkpt lat="40.02280098708897" lon="9.629846299260524"><ele>78.2</ele><time>2026-05-01T10:49:09Z</time></trkpt><trkpt lat="40.02274748913536" lon="9.62975028452646"><ele>78.0</ele><time>2026-05-01T10:49:10Z</time></trkpt><trkpt lat="40.02268546219335" lon="9.629623268505199"><ele>78.0</ele><time>2026-05-01T10:49:11Z</time></trkpt><trkpt lat="40.02260465828319" lon="9.62948685173618"><ele>78.0</ele><time>2026-05-01T10:49:12Z</time></trkpt><trkpt lat="40.02252966234242" lon="9.629334109575103"><ele>78.0</ele><time>2026-05-01T10:49:13Z</time></trkpt><trkpt lat="40.02244452352465" lon="9.629180200967282"><ele>78.0</ele><time>2026-05-01T10:49:14Z</time></trkpt><trkpt lat="40.02231590849538" lon="9.62905402828718"><ele>77.6</ele><time>2026-05-01T10:49:15Z</time></trkpt><trkpt lat="40.02221675233749" lon="9.628932846846125"><ele>77.19999999999999</ele><time>2026-05-01T10:49:16Z</time></trkpt><trkpt lat="40.02213903717002" lon="9.628839660055508"><ele>76.8</ele><time>2026-05-01T10:49:17Z</time></trkpt><trkpt lat="40.02208234947747" lon="9.628761916934081"><ele>76.39999999999999</ele><time>2026-05-01T10:49:18Z</time></trkpt><trkpt lat="40.0219950941201" lon="9.62874895905303"><ele>76.0</ele><time>2026-05-01T10:49:19Z</time></trkpt><trkpt lat="40.02191638561176" lon="9.628811378751438"><ele>76.0</ele><time>2026-05-01T10:49:20Z</time></trkpt><trkpt lat="40.02183373501199" lon="9.628848051865686"><ele>76.0</ele><time>2026-05-01T10:49:21Z</time></trkpt><trkpt lat="40.021730717316956" lon="9.628887635083595"><ele>76.0</ele><time>2026-05-01T10:49:22Z</time></trkpt><trkpt lat="40.02161103804638" lon="9.6289434507702"><ele>76.0</ele><time>2026-05-01T10:49:23Z</time></trkpt><trkpt lat="40.021486891228086" lon="9.628989023346152"><ele>75.25</ele><time>2026-05-01T10:49:24Z</time></trkpt><trkpt lat="40.021359137846666" lon="9.629035195596835"><ele>74.5</ele><time>2026-05-01T10:49:25Z</time></trkpt><trkpt lat="40.02122685301563" lon="9.629082265703389"><ele>73.75</ele><time>2026-05-01T10:49:26Z</time></trkpt><trkpt lat="40.02108470788544" lon="9.629110737054145"><ele>73.0</ele><time>2026-05-01T10:49:27Z</time></trkpt><trkpt lat="40.0209428230582" lon="9.629165209600314"><ele>72.2</ele><time>2026-05-01T10:49:28Z</time></trkpt><trkpt lat="40.020810073358646" lon="9.629217360246775"><ele>71.4</ele><time>2026-05-01T10:49:29Z</time></trkpt><trkpt lat="40.020699770093096" lon="9.629260692823456"><ele>70.60000000000001</ele><time>2026-05-01T10:49:30Z</time></trkpt><trkpt lat="40.02061051975745" lon="9.629295754768119"><ele>69.8</ele><time>2026-05-01T10:49:31Z</time></trkpt><trkpt lat="40.0205395843051" lon="9.629323621708744"><ele>69.0</ele><time>2026-05-01T10:49:32Z</time></trkpt><trkpt lat="40.02045578708077" lon="9.629353288850906"><ele>69.0</ele><time>2026-05-01T10:49:33Z</time></trkpt><trkpt lat="40.02035044389259" lon="9.629394178715428"><ele>69.0</ele><time>2026-05-01T10:49:34Z</time></trkpt><trkpt lat="40.02023663303345" lon="9.62945320631584"><ele>69.0</ele><time>2026-05-01T10:49:35Z</time></trkpt><trkpt lat="40.02013380174234" lon="9.629488834961023"><ele>69.0</ele><time>2026-05-01T10:49:36Z</time></trkpt><trkpt lat="40.02005487450314" lon="9.629481441850487"><ele>69.0</ele><time>2026-05-01T10:49:37Z</time></trkpt><trkpt lat="40.02000208226491" lon="9.629430436722767"><ele>69.0</ele><time>2026-05-01T10:49:38Z</time></trkpt><trkpt lat="40.01998465159559" lon="9.629330156908443"><ele>69.0</ele><time>2026-05-01T10:49:39Z</time></trkpt><trkpt lat="40.01998835524227" lon="9.629224364026022"><ele>69.0</ele><time>2026-05-01T10:49:40Z</time></trkpt><trkpt lat="40.01998415531285" lon="9.629097858567487"><ele>69.0</ele><time>2026-05-01T10:49:41Z</time></trkpt><trkpt lat="40.019970296765564" lon="9.628939153026387"><ele>69.0</ele><time>2026-05-01T10:49:42Z</time></trkpt><trkpt lat="40.01996235312687" lon="9.628755508595303"><ele>68.0</ele><time>2026-05-01T10:49:43Z</time></trkpt><trkpt lat="40.019960072245276" lon="9.628538881620162"><ele>67.0</ele><time>2026-05-01T10:49:44Z</time></trkpt><trkpt lat="40.01996448611332" lon="9.628334620797707"><ele>66.0</ele><time>2026-05-01T10:49:45Z</time></trkpt><trkpt lat="40.01996192983779" lon="9.62815568867706"><ele>66.0</ele><time>2026-05-01T10:49:46Z</time></trkpt><trkpt lat="40.019963574439956" lon="9.628012769546793"><ele>66.0</ele><time>2026-05-01T10:49:47Z</time></trkpt><trkpt lat="40.0199345567202" lon="9.627883124867353"><ele>66.0</ele><time>2026-05-01T10:49:48Z</time></trkpt><trkpt lat="40.01985451455649" lon="9.627776892917389"><ele>66.0</ele><time>2026-05-01T10:49:49Z</time></trkpt><trkpt lat="40.01975964979918" lon="9.627675872380458"><ele>66.0</ele><time>2026-05-01T10:49:50Z</time></trkpt><trkpt lat="40.01971412179653" lon="9.627567338368802"><ele>65.75</ele><time>2026-05-01T10:49:51Z</time></trkpt><trkpt lat="40.01973980145534" lon="9.627441314978293"><ele>65.5</ele><time>2026-05-01T10:49:52Z</time></trkpt><trkpt lat="40.019792001020484" lon="9.627315471834516"><ele>65.25</ele><time>2026-05-01T10:49:53Z</time></trkpt><trkpt lat="40.01981951832474" lon="9.627143627350245"><ele>65.0</ele><time>2026-05-01T10:49:54Z</time></trkpt><trkpt lat="40.01985307834723" lon="9.626976990305806"><ele>64.5</ele><time>2026-05-01T10:49:55Z</time></trkpt><trkpt lat="40.019855578286645" lon="9.62680014529171"><ele>64.0</ele><time>2026-05-01T10:49:56Z</time></trkpt><trkpt lat="40.019803107356026" lon="9.626642001190989"><ele>63.5</ele><time>2026-05-01T10:49:57Z</time></trkpt><trkpt lat="40.01971553520839" lon="9.626495369143592"><ele>63.0</ele><time>2026-05-01T10:49:58Z</time></trkpt><trkpt lat="40.01963146622371" lon="9.626333281965556"><ele>63.0</ele><time>2026-05-01T10:49:59Z</time></trkpt><trkpt lat="40.01955863182504" lon="9.626158145456229"><ele>63.0</ele><time>2026-05-01T10:50:00Z</time></trkpt><trkpt lat="40.01952761866209" lon="9.625980376005419"><ele>63.0</ele><time>2026-05-01T10:50:01Z</time></trkpt><trkpt lat="40.01952384876544" lon="9.625792474865804"><ele>63.0</ele><time>2026-05-01T10:50:02Z</time></trkpt><trkpt lat="40.01950529086804" lon="9.62562021733204"><ele>63.75</ele><time>2026-05-01T10:50:03Z</time></trkpt><trkpt lat="40.01947354781543" lon="9.625472469785297"><ele>64.5</ele><time>2026-05-01T10:50:04Z</time></trkpt><trkpt lat="40.01938925272909" lon="9.62533385670018"><ele>65.25</ele><time>2026-05-01T10:50:05Z</time></trkpt><trkpt lat="40.019270372319404" lon="9.625204697883046"><ele>66.0</ele><time>2026-05-01T10:50:06Z</time></trkpt><trkpt lat="40.01913503809531" lon="9.625071534390742"><ele>67.0</ele><time>2026-05-01T10:50:07Z</time></trkpt><trkpt lat="40.01900373522465" lon="9.624907718813937"><ele>68.0</ele><time>2026-05-01T10:50:08Z</time></trkpt><trkpt lat="40.01886081236608" lon="9.624762881017416"><ele>69.0</ele><time>2026-05-01T10:50:09Z</time></trkpt><trkpt lat="40.01873546626624" lon="9.624607324458442"><ele>71.0</ele><time>2026-05-01T10:50:10Z</time></trkpt><trkpt lat="40.01861572389674" lon="9.62445562764166"><ele>73.0</ele><time>2026-05-01T10:50:11Z</time></trkpt><trkpt lat="40.01850130042239" lon="9.624302275282263"><ele>75.0</ele><time>2026-05-01T10:50:12Z</time></trkpt><trkpt lat="40.018390278570315" lon="9.62415112682122"><ele>75.33333333333333</ele><time>2026-05-01T10:50:13Z</time></trkpt><trkpt lat="40.01829943139418" lon="9.623987840406759"><ele>75.66666666666666</ele><time>2026-05-01T10:50:14Z</time></trkpt><trkpt lat="40.01819129935741" lon="9.623849921883997"><ele>76.0</ele><time>2026-05-01T10:50:15Z</time></trkpt><trkpt lat="40.01810399953787" lon="9.623686611708305"><ele>76.33333333333333</ele><time>2026-05-01T10:50:16Z</time></trkpt><trkpt lat="40.01804194262729" lon="9.623499836691565"><ele>76.66666666666667</ele><time>2026-05-01T10:50:17Z</time></trkpt><trkpt lat="40.017975002158586" lon="9.623316200575028"><ele>77.0</ele><time>2026-05-01T10:50:18Z</time></trkpt><trkpt lat="40.01790028559118" lon="9.623163214800496"><ele>77.0</ele><time>2026-05-01T10:50:19Z</time></trkpt><trkpt lat="40.01781423197823" lon="9.62305320865942"><ele>77.0</ele><time>2026-05-01T10:50:20Z</time></trkpt><trkpt lat="40.01771172870312" lon="9.622979704264884"><ele>77.0</ele><time>2026-05-01T10:50:21Z</time></trkpt><trkpt lat="40.01759247703887" lon="9.622918801983298"><ele>77.0</ele><time>2026-05-01T10:50:22Z</time></trkpt><trkpt lat="40.01747747967263" lon="9.622871483357882"><ele>76.8</ele><time>2026-05-01T10:50:23Z</time></trkpt><trkpt lat="40.01735585074719" lon="9.62285215573688"><ele>76.6</ele><time>2026-05-01T10:50:24Z</time></trkpt><trkpt lat="40.01723840366751" lon="9.622842295210981"><ele>76.39999999999999</ele><time>2026-05-01T10:50:25Z</time></trkpt><trkpt lat="40.01715900866461" lon="9.62278044498171"><ele>76.2</ele><time>2026-05-01T10:50:26Z</time></trkpt><trkpt lat="40.01712262109469" lon="9.622645133031396"><ele>76.0</ele><time>2026-05-01T10:50:27Z</time></trkpt><trkpt lat="40.01706237455559" lon="9.622516698696861"><ele>76.0</ele><time>2026-05-01T10:50:28Z</time></trkpt><trkpt lat="40.017018839825774" lon="9.622349103112626"><ele>76.0</ele><time>2026-05-01T10:50:29Z</time></trkpt><trkpt lat="40.01699383463937" lon="9.6221520214411"><ele>76.0</ele><time>2026-05-01T10:50:30Z</time></trkpt><trkpt lat="40.01695109780746" lon="9.621971624762203"><ele>76.0</ele><time>2026-05-01T10:50:31Z</time></trkpt><trkpt lat="40.01692614756856" lon="9.621800193314245"><ele>75.2</ele><time>2026-05-01T10:50:32Z</time></trkpt><trkpt lat="40.01691204400058" lon="9.621635071595025"><ele>74.39999999999999</ele><time>2026-05-01T10:50:33Z</time></trkpt><trkpt lat="40.016911645627104" lon="9.621471668324505"><ele>73.6</ele><time>2026-05-01T10:50:34Z</time></trkpt><trkpt lat="40.016921098538226" lon="9.621340211419106"><ele>72.8</ele><time>2026-05-01T10:50:35Z</time></trkpt><trkpt lat="40.01692968967258" lon="9.621220098372326"><ele>72.0</ele><time>2026-05-01T10:50:36Z</time></trkpt><trkpt lat="40.016934584791855" lon="9.621106669760369"><ele>71.5</ele><time>2026-05-01T10:50:37Z</time></trkpt><trkpt lat="40.016940487485634" lon="9.621007753623683"><ele>71.0</ele><time>2026-05-01T10:50:38Z</time></trkpt><trkpt lat="40.01694988866184" lon="9.620920234234788"><ele>70.5</ele><time>2026-05-01T10:50:39Z</time></trkpt><trkpt lat="40.016956411967385" lon="9.620832975542903"><ele>70.0</ele><time>2026-05-01T10:50:40Z</time></trkpt><trkpt lat="40.016966595859266" lon="9.620675036213582"><ele>69.5</ele><time>2026-05-01T10:50:42Z</time></trkpt><trkpt lat="40.016977751969776" lon="9.620529352068136"><ele>69.0</ele><time>2026-05-01T10:50:44Z</time></trkpt><trkpt lat="40.01697983371863" lon="9.620403627551525"><ele>68.83333333333333</ele><time>2026-05-01T10:50:46Z</time></trkpt><trkpt lat="40.01698399672031" lon="9.620299362880083"><ele>68.66666666666667</ele><time>2026-05-01T10:50:48Z</time></trkpt><trkpt lat="40.01698445255282" lon="9.620201120562424"><ele>68.5</ele><time>2026-05-01T10:50:50Z</time></trkpt><trkpt lat="40.01697707445595" lon="9.620069219847322"><ele>68.33333333333334</ele><time>2026-05-01T10:50:52Z</time></trkpt><trkpt lat="40.01697934092008" lon="9.619982922072532"><ele>68.16666666666667</ele><time>2026-05-01T10:50:53Z</time></trkpt><trkpt lat="40.01699100306921" lon="9.61987268039873"><ele>68.0</ele><time>2026-05-01T10:50:54Z</time></trkpt><trkpt lat="40.01700778932375" lon="9.619750067409562"><ele>68.0</ele><time>2026-05-01T10:50:55Z</time></trkpt><trkpt lat="40.01702500967455" lon="9.619613426347385"><ele>68.0</ele><time>2026-05-01T10:50:56Z</time></trkpt><trkpt lat="40.017024650222574" lon="9.61946452027959"><ele>68.0</ele><time>2026-05-01T10:50:57Z</time></trkpt><trkpt lat="40.01702949594401" lon="9.619311754215921"><ele>68.0</ele><time>2026-05-01T10:50:58Z</time></trkpt><trkpt lat="40.01703377025272" lon="9.6191770024771"><ele>68.0</ele><time>2026-05-01T10:50:59Z</time></trkpt><trkpt lat="40.017009899184224" lon="9.619034700484512"><ele>68.0</ele><time>2026-05-01T10:51:00Z</time></trkpt><trkpt lat="40.01701709510316" lon="9.618860633374714"><ele>68.0</ele><time>2026-05-01T10:51:01Z</time></trkpt><trkpt lat="40.017022813992504" lon="9.618684006548706"><ele>68.0</ele><time>2026-05-01T10:51:02Z</time></trkpt><trkpt lat="40.01702743121321" lon="9.618505934631163"><ele>68.0</ele><time>2026-05-01T10:51:03Z</time></trkpt><trkpt lat="40.017037212960275" lon="9.61830826410359"><ele>68.33333333333334</ele><time>2026-05-01T10:51:04Z</time></trkpt><trkpt lat="40.01704369109652" lon="9.618105712745082"><ele>68.66666666666667</ele><time>2026-05-01T10:51:05Z</time></trkpt><trkpt lat="40.017052980833064" lon="9.617894414188461"><ele>69.0</ele><time>2026-05-01T10:51:06Z</time></trkpt><trkpt lat="40.017060088386025" lon="9.617686459427992"><ele>68.5</ele><time>2026-05-01T10:51:07Z</time></trkpt><trkpt lat="40.01706752824624" lon="9.617485741743442"><ele>68.0</ele><time>2026-05-01T10:51:08Z</time></trkpt><trkpt lat="40.017073259973714" lon="9.617290815524582"><ele>67.5</ele><time>2026-05-01T10:51:09Z</time></trkpt><trkpt lat="40.01707899296185" lon="9.617103399959852"><ele>67.0</ele><time>2026-05-01T10:51:10Z</time></trkpt><trkpt lat="40.01708388503767" lon="9.616919197501499"><ele>67.0</ele><time>2026-05-01T10:51:11Z</time></trkpt><trkpt lat="40.017090780232984" lon="9.616741219028087"><ele>67.0</ele><time>2026-05-01T10:51:12Z</time></trkpt><trkpt lat="40.017098181782124" lon="9.616556967329092"><ele>67.0</ele><time>2026-05-01T10:51:13Z</time></trkpt><trkpt lat="40.01710737073318" lon="9.616366220905084"><ele>67.0</ele><time>2026-05-01T10:51:14Z</time></trkpt><trkpt lat="40.01711526354429" lon="9.616177409367914"><ele>66.25</ele><time>2026-05-01T10:51:15Z</time></trkpt><trkpt lat="40.0171144238653" lon="9.615994001163903"><ele>65.5</ele><time>2026-05-01T10:51:16Z</time></trkpt><trkpt lat="40.01712275878751" lon="9.615805306101073"><ele>64.75</ele><time>2026-05-01T10:51:17Z</time></trkpt><trkpt lat="40.017145123495425" lon="9.615629920739007"><ele>64.0</ele><time>2026-05-01T10:51:18Z</time></trkpt><trkpt lat="40.01714816124678" lon="9.615423758755787"><ele>63.666666666666664</ele><time>2026-05-01T10:51:19Z</time></trkpt><trkpt lat="40.017117564622254" lon="9.615229958509671"><ele>63.33333333333333</ele><time>2026-05-01T10:51:20Z</time></trkpt><trkpt lat="40.017080374452966" lon="9.61502989369261"><ele>63.0</ele><time>2026-05-01T10:51:21Z</time></trkpt><trkpt lat="40.017022972375216" lon="9.614816339961282"><ele>63.0</ele><time>2026-05-01T10:51:22Z</time></trkpt><trkpt lat="40.01696646319111" lon="9.614583028365372"><ele>63.0</ele><time>2026-05-01T10:51:23Z</time></trkpt><trkpt lat="40.0169150417062" lon="9.614365206050831"><ele>63.0</ele><time>2026-05-01T10:51:24Z</time></trkpt><trkpt lat="40.01685106121082" lon="9.614147789228852"><ele>63.0</ele><time>2026-05-01T10:51:25Z</time></trkpt><trkpt lat="40.016779243080435" lon="9.613942066812065"><ele>63.0</ele><time>2026-05-01T10:51:26Z</time></trkpt><trkpt lat="40.01670731695129" lon="9.613740092785353"><ele>63.0</ele><time>2026-05-01T10:51:27Z</time></trkpt><trkpt lat="40.0166347593964" lon="9.613536346046432"><ele>63.0</ele><time>2026-05-01T10:51:28Z</time></trkpt><trkpt lat="40.016548373877825" lon="9.613344059571762"><ele>63.0</ele><time>2026-05-01T10:51:29Z</time></trkpt><trkpt lat="40.016493675053596" lon="9.613135172291608"><ele>63.0</ele><time>2026-05-01T10:51:30Z</time></trkpt><trkpt lat="40.016425072702155" lon="9.612937607477518"><ele>63.66666666666667</ele><time>2026-05-01T10:51:31Z</time></trkpt><trkpt lat="40.016356690602706" lon="9.612739803390996"><ele>64.33333333333334</ele><time>2026-05-01T10:51:32Z</time></trkpt><trkpt lat="40.016287665490125" lon="9.612544415046457"><ele>65.0</ele><time>2026-05-01T10:51:33Z</time></trkpt><trkpt lat="40.01621713200914" lon="9.612346431342006"><ele>65.0</ele><time>2026-05-01T10:51:34Z</time></trkpt><trkpt lat="40.01613162201034" lon="9.61215971408722"><ele>65.0</ele><time>2026-05-01T10:51:35Z</time></trkpt><trkpt lat="40.01607035883147" lon="9.611960358235233"><ele>65.0</ele><time>2026-05-01T10:51:36Z</time></trkpt><trkpt lat="40.01598773263131" lon="9.611763766224195"><ele>65.0</ele><time>2026-05-01T10:51:37Z</time></trkpt><trkpt lat="40.015891376047726" lon="9.611566546811254"><ele>65.0</ele><time>2026-05-01T10:51:38Z</time></trkpt><trkpt lat="40.01577994317396" lon="9.611373081046422"><ele>65.0</ele><time>2026-05-01T10:51:39Z</time></trkpt><trkpt lat="40.01566183970301" lon="9.611182872979933"><ele>65.0</ele><time>2026-05-01T10:51:40Z</time></trkpt><trkpt lat="40.015541099994145" lon="9.61099095092152"><ele>65.0</ele><time>2026-05-01T10:51:41Z</time></trkpt><trkpt lat="40.01541484861729" lon="9.610799125528708"><ele>65.0</ele><time>2026-05-01T10:51:42Z</time></trkpt><trkpt lat="40.015283599396646" lon="9.61060559997535"><ele>65.0</ele><time>2026-05-01T10:51:43Z</time></trkpt><trkpt lat="40.01515228970556" lon="9.610411830569918"><ele>65.0</ele><time>2026-05-01T10:51:44Z</time></trkpt><trkpt lat="40.015022770303226" lon="9.610217658325068"><ele>65.0</ele><time>2026-05-01T10:51:45Z</time></trkpt><trkpt lat="40.01489267567541" lon="9.610021538051036"><ele>65.0</ele><time>2026-05-01T10:51:46Z</time></trkpt><trkpt lat="40.014762783649495" lon="9.609825723132607"><ele>65.0</ele><time>2026-05-01T10:51:47Z</time></trkpt><trkpt lat="40.01463289475863" lon="9.609629913002554"><ele>65.0</ele><time>2026-05-01T10:51:48Z</time></trkpt><trkpt lat="40.01450063811706" lon="9.609439510463933"><ele>65.0</ele><time>2026-05-01T10:51:49Z</time></trkpt><trkpt lat="40.01437287018087" lon="9.609260626917166"><ele>65.0</ele><time>2026-05-01T10:51:50Z</time></trkpt><trkpt lat="40.01425152452744" lon="9.609086511488728"><ele>65.0</ele><time>2026-05-01T10:51:51Z</time></trkpt><trkpt lat="40.01414662024121" lon="9.608916441070315"><ele>64.33333333333334</ele><time>2026-05-01T10:51:52Z</time></trkpt><trkpt lat="40.01405790838151" lon="9.608750834630541"><ele>63.66666666666667</ele><time>2026-05-01T10:51:53Z</time></trkpt><trkpt lat="40.01398127573218" lon="9.608567504183817"><ele>63.0</ele><time>2026-05-01T10:51:54Z</time></trkpt><trkpt lat="40.013924394334786" lon="9.608380238654588"><ele>63.0</ele><time>2026-05-01T10:51:55Z</time></trkpt><trkpt lat="40.01388983091084" lon="9.608185273729045"><ele>63.0</ele><time>2026-05-01T10:51:56Z</time></trkpt><trkpt lat="40.01387808416579" lon="9.607985610388274"><ele>63.0</ele><time>2026-05-01T10:51:57Z</time></trkpt><trkpt lat="40.01387841622911" lon="9.607776031137709"><ele>63.66666666666667</ele><time>2026-05-01T10:51:58Z</time></trkpt><trkpt lat="40.01388649654187" lon="9.60753254488828"><ele>64.33333333333334</ele><time>2026-05-01T10:51:59Z</time></trkpt><trkpt lat="40.013902848581644" lon="9.607266377335007"><ele>65.0</ele><time>2026-05-01T10:52:00Z</time></trkpt><trkpt lat="40.01390080556816" lon="9.607035435354186"><ele>65.66666666666667</ele><time>2026-05-01T10:52:01Z</time></trkpt><trkpt lat="40.01391770783351" lon="9.606822587907404"><ele>66.33333333333333</ele><time>2026-05-01T10:52:02Z</time></trkpt><trkpt lat="40.013933995892025" lon="9.606602201669435"><ele>67.0</ele><time>2026-05-01T10:52:03Z</time></trkpt><trkpt lat="40.01394905527359" lon="9.606383905148306"><ele>67.0</ele><time>2026-05-01T10:52:04Z</time></trkpt><trkpt lat="40.01396338241525" lon="9.606170428548472"><ele>67.0</ele><time>2026-05-01T10:52:05Z</time></trkpt><trkpt lat="40.01397517183646" lon="9.605962741835734"><ele>67.0</ele><time>2026-05-01T10:52:06Z</time></trkpt><trkpt lat="40.01398442843026" lon="9.605757680497915"><ele>68.75</ele><time>2026-05-01T10:52:07Z</time></trkpt><trkpt lat="40.013996133286184" lon="9.605560165264935"><ele>70.5</ele><time>2026-05-01T10:52:08Z</time></trkpt><trkpt lat="40.014007985362554" lon="9.605376281359485"><ele>72.25</ele><time>2026-05-01T10:52:09Z</time></trkpt><trkpt lat="40.01399793170398" lon="9.605218953862499"><ele>74.0</ele><time>2026-05-01T10:52:10Z</time></trkpt><trkpt lat="40.01397230440319" lon="9.60508837290933"><ele>74.0</ele><time>2026-05-01T10:52:11Z</time></trkpt><trkpt lat="40.013869839348516" lon="9.6049853897369"><ele>74.0</ele><time>2026-05-01T10:52:12Z</time></trkpt><trkpt lat="40.01376455151645" lon="9.604877298997131"><ele>74.0</ele><time>2026-05-01T10:52:13Z</time></trkpt><trkpt lat="40.013646406296864" lon="9.60477036632955"><ele>74.0</ele><time>2026-05-01T10:52:14Z</time></trkpt><trkpt lat="40.01352132289696" lon="9.60464424646965"><ele>74.0</ele><time>2026-05-01T10:52:15Z</time></trkpt><trkpt lat="40.01339778461586" lon="9.604516718654093"><ele>74.0</ele><time>2026-05-01T10:52:16Z</time></trkpt><trkpt lat="40.013281853581375" lon="9.6043621894274"><ele>74.0</ele><time>2026-05-01T10:52:17Z</time></trkpt><trkpt lat="40.01314527551488" lon="9.604225070148761"><ele>70.33333333333334</ele><time>2026-05-01T10:52:18Z</time></trkpt><trkpt lat="40.01300470364582" lon="9.604082917000595"><ele>66.66666666666667</ele><time>2026-05-01T10:52:19Z</time></trkpt><trkpt lat="40.01286323944561" lon="9.603935189477914"><ele>63.0</ele><time>2026-05-01T10:52:20Z</time></trkpt><trkpt lat="40.01272139692586" lon="9.603788950110719"><ele>63.0</ele><time>2026-05-01T10:52:21Z</time></trkpt><trkpt lat="40.012570128292204" lon="9.603667971938611"><ele>63.0</ele><time>2026-05-01T10:52:22Z</time></trkpt><trkpt lat="40.01243151210122" lon="9.603533114400792"><ele>63.0</ele><time>2026-05-01T10:52:23Z</time></trkpt><trkpt lat="40.01231309034237" lon="9.603387207814254"><ele>60.0</ele><time>2026-05-01T10:52:24Z</time></trkpt><trkpt lat="40.0121933987018" lon="9.603263885247"><ele>57.0</ele><time>2026-05-01T10:52:25Z</time></trkpt><trkpt lat="40.01207717986774" lon="9.603141340223814"><ele>54.0</ele><time>2026-05-01T10:52:26Z</time></trkpt><trkpt lat="40.01195109573255" lon="9.603023463054456"><ele>54.0</ele><time>2026-05-01T10:52:27Z</time></trkpt><trkpt lat="40.01180543475568" lon="9.60292355133668"><ele>54.0</ele><time>2026-05-01T10:52:28Z</time></trkpt><trkpt lat="40.01165338290589" lon="9.602815991620243"><ele>54.0</ele><time>2026-05-01T10:52:29Z</time></trkpt><trkpt lat="40.011498735112006" lon="9.602718085102525"><ele>52.66666666666667</ele><time>2026-05-01T10:52:30Z</time></trkpt><trkpt lat="40.011353234486386" lon="9.602639608022955"><ele>51.333333333333336</ele><time>2026-05-01T10:52:31Z</time></trkpt><trkpt lat="40.01120377786093" lon="9.602586609854757"><ele>50.0</ele><time>2026-05-01T10:52:32Z</time></trkpt><trkpt lat="40.01104731207034" lon="9.602573057494743"><ele>50.0</ele><time>2026-05-01T10:52:33Z</time></trkpt><trkpt lat="40.0108847033173" lon="9.602604376361718"><ele>50.0</ele><time>2026-05-01T10:52:34Z</time></trkpt><trkpt lat="40.01071811750881" lon="9.602634685035108"><ele>50.0</ele><time>2026-05-01T10:52:35Z</time></trkpt><trkpt lat="40.01054382680941" lon="9.60268145020944"><ele>50.333333333333336</ele><time>2026-05-01T10:52:36Z</time></trkpt><trkpt lat="40.01036444600058" lon="9.602725831341271"><ele>50.66666666666667</ele><time>2026-05-01T10:52:37Z</time></trkpt><trkpt lat="40.01018228062799" lon="9.602769230106789"><ele>51.0</ele><time>2026-05-01T10:52:38Z</time></trkpt><trkpt lat="40.009995266132584" lon="9.602816824274518"><ele>51.0</ele><time>2026-05-01T10:52:39Z</time></trkpt><trkpt lat="40.00980068376573" lon="9.602869458632643"><ele>51.0</ele><time>2026-05-01T10:52:40Z</time></trkpt><trkpt lat="40.00959844226778" lon="9.602923150184724"><ele>51.0</ele><time>2026-05-01T10:52:41Z</time></trkpt><trkpt lat="40.00941252542721" lon="9.602967383743323"><ele>51.0</ele><time>2026-05-01T10:52:42Z</time></trkpt><trkpt lat="40.00923315056641" lon="9.603002940576925"><ele>51.0</ele><time>2026-05-01T10:52:43Z</time></trkpt><trkpt lat="40.009050730826225" lon="9.603016332209831"><ele>51.0</ele><time>2026-05-01T10:52:44Z</time></trkpt><trkpt lat="40.00886707155447" lon="9.603005735743597"><ele>50.33333333333333</ele><time>2026-05-01T10:52:45Z</time></trkpt><trkpt lat="40.00868313090596" lon="9.602981628290168"><ele>49.666666666666664</ele><time>2026-05-01T10:52:46Z</time></trkpt><trkpt lat="40.00850669231596" lon="9.602950702149073"><ele>49.0</ele><time>2026-05-01T10:52:47Z</time></trkpt><trkpt lat="40.00834207697688" lon="9.602921929224078"><ele>49.0</ele><time>2026-05-01T10:52:48Z</time></trkpt><trkpt lat="40.00818376109183" lon="9.602893509808128"><ele>49.0</ele><time>2026-05-01T10:52:49Z</time></trkpt><trkpt lat="40.00802264363903" lon="9.602859623903871"><ele>49.0</ele><time>2026-05-01T10:52:50Z</time></trkpt><trkpt lat="40.00785702621496" lon="9.60284151492106"><ele>49.666666666666664</ele><time>2026-05-01T10:52:51Z</time></trkpt><trkpt lat="40.00768530177972" lon="9.602807016914408"><ele>50.33333333333333</ele><time>2026-05-01T10:52:52Z</time></trkpt><trkpt lat="40.007508615067245" lon="9.60275342005853"><ele>51.0</ele><time>2026-05-01T10:52:53Z</time></trkpt><trkpt lat="40.00733023814716" lon="9.602709925209378"><ele>53.0</ele><time>2026-05-01T10:52:54Z</time></trkpt><trkpt lat="40.00715139711865" lon="9.602673813018441"><ele>55.0</ele><time>2026-05-01T10:52:55Z</time></trkpt><trkpt lat="40.00697792365121" lon="9.602687103521868"><ele>57.0</ele><time>2026-05-01T10:52:56Z</time></trkpt><trkpt lat="40.00681082199309" lon="9.602713960989805"><ele>56.66666666666667</ele><time>2026-05-01T10:52:57Z</time></trkpt><trkpt lat="40.00663183121826" lon="9.602727035690357"><ele>56.333333333333336</ele><time>2026-05-01T10:52:58Z</time></trkpt><trkpt lat="40.006457523452255" lon="9.602761542457731"><ele>56.0</ele><time>2026-05-01T10:52:59Z</time></trkpt><trkpt lat="40.00628272077917" lon="9.602796147160722"><ele>56.0</ele><time>2026-05-01T10:53:00Z</time></trkpt><trkpt lat="40.0061102493309" lon="9.602830290380524"><ele>56.0</ele><time>2026-05-01T10:53:01Z</time></trkpt><trkpt lat="40.0059379373477" lon="9.602863985708568"><ele>56.0</ele><time>2026-05-01T10:53:02Z</time></trkpt><trkpt lat="40.00576593062771" lon="9.602895109426685"><ele>56.0</ele><time>2026-05-01T10:53:03Z</time></trkpt><trkpt lat="40.00559382134614" lon="9.602926251652494"><ele>56.0</ele><time>2026-05-01T10:53:04Z</time></trkpt><trkpt lat="40.00542592621454" lon="9.60295743156957"><ele>56.0</ele><time>2026-05-01T10:53:05Z</time></trkpt><trkpt lat="40.00525959502784" lon="9.602990338046737"><ele>56.0</ele><time>2026-05-01T10:53:06Z</time></trkpt><trkpt lat="40.00509025963962" lon="9.60302383878212"><ele>56.0</ele><time>2026-05-01T10:53:07Z</time></trkpt><trkpt lat="40.004921117751245" lon="9.603056650825378"><ele>56.0</ele><time>2026-05-01T10:53:08Z</time></trkpt><trkpt lat="40.004764773087956" lon="9.603085252892305"><ele>56.4</ele><time>2026-05-01T10:53:09Z</time></trkpt><trkpt lat="40.004624894888934" lon="9.603110644826561"><ele>56.8</ele><time>2026-05-01T10:53:10Z</time></trkpt><trkpt lat="40.00450733593657" lon="9.60313120778255"><ele>57.199999999999996</ele><time>2026-05-01T10:53:11Z</time></trkpt><trkpt lat="40.00441185758571" lon="9.60314790855297"><ele>57.599999999999994</ele><time>2026-05-01T10:53:12Z</time></trkpt><trkpt lat="40.00433313363565" lon="9.603161403123014"><ele>58.0</ele><time>2026-05-01T10:53:13Z</time></trkpt><trkpt lat="40.00426178521494" lon="9.603172762607135"><ele>58.4</ele><time>2026-05-01T10:53:14Z</time></trkpt><trkpt lat="40.00415378971676" lon="9.603235978884616"><ele>58.8</ele><time>2026-05-01T10:53:16Z</time></trkpt><trkpt lat="40.004104951033966" lon="9.603385853453164"><ele>59.2</ele><time>2026-05-01T10:53:18Z</time></trkpt><trkpt lat="40.00412371973192" lon="9.603501512063517"><ele>59.6</ele><time>2026-05-01T10:53:19Z</time></trkpt><trkpt lat="40.00412128203037" lon="9.60364394759529"><ele>60.0</ele><time>2026-05-01T10:53:20Z</time></trkpt><trkpt lat="40.00412765510908" lon="9.603816606954709"><ele>60.0</ele><time>2026-05-01T10:53:21Z</time></trkpt><trkpt lat="40.004129206218586" lon="9.604006781017512"><ele>60.0</ele><time>2026-05-01T10:53:22Z</time></trkpt><trkpt lat="40.004145424494475" lon="9.604208313739031"><ele>60.0</ele><time>2026-05-01T10:53:23Z</time></trkpt><trkpt lat="40.0041558417466" lon="9.604419956273773"><ele>58.5</ele><time>2026-05-01T10:53:24Z</time></trkpt><trkpt lat="40.00417293390297" lon="9.604629055088902"><ele>57.0</ele><time>2026-05-01T10:53:25Z</time></trkpt><trkpt lat="40.004186491548914" lon="9.604817737677518"><ele>55.5</ele><time>2026-05-01T10:53:26Z</time></trkpt><trkpt lat="40.00420639537683" lon="9.604988249865718"><ele>54.0</ele><time>2026-05-01T10:53:27Z</time></trkpt><trkpt lat="40.00422107718948" lon="9.605138066596517"><ele>54.0</ele><time>2026-05-01T10:53:28Z</time></trkpt><trkpt lat="40.004233729989025" lon="9.605274780737169"><ele>54.0</ele><time>2026-05-01T10:53:29Z</time></trkpt><trkpt lat="40.00422984260974" lon="9.605379113461721"><ele>54.0</ele><time>2026-05-01T10:53:30Z</time></trkpt><trkpt lat="40.00419602362025" lon="9.605455285087015"><ele>54.0</ele><time>2026-05-01T10:53:31Z</time></trkpt><trkpt lat="40.00413641500734" lon="9.605494143040096"><ele>54.0</ele><time>2026-05-01T10:53:32Z</time></trkpt><trkpt lat="40.00406242843031" lon="9.605423833801542"><ele>54.0</ele><time>2026-05-01T10:53:33Z</time></trkpt><trkpt lat="40.003938212248464" lon="9.605336817503048"><ele>54.75</ele><time>2026-05-01T10:53:35Z</time></trkpt><trkpt lat="40.00384263745959" lon="9.605281879710507"><ele>55.5</ele><time>2026-05-01T10:53:36Z</time></trkpt><trkpt lat="40.003741846743246" lon="9.60522840269481"><ele>56.25</ele><time>2026-05-01T10:53:37Z</time></trkpt><trkpt lat="40.00363438159586" lon="9.605171384372948"><ele>57.0</ele><time>2026-05-01T10:53:38Z</time></trkpt><trkpt lat="40.00351941437773" lon="9.605109413811936"><ele>57.0</ele><time>2026-05-01T10:53:39Z</time></trkpt><trkpt lat="40.003394743447274" lon="9.60503845361331"><ele>57.0</ele><time>2026-05-01T10:53:40Z</time></trkpt><trkpt lat="40.00325944587098" lon="9.604960494362123"><ele>57.0</ele><time>2026-05-01T10:53:41Z</time></trkpt><trkpt lat="40.003119355222886" lon="9.604879000531332"><ele>57.0</ele><time>2026-05-01T10:53:42Z</time></trkpt><trkpt lat="40.00296836969739" lon="9.604792550370592"><ele>57.66666666666667</ele><time>2026-05-01T10:53:43Z</time></trkpt><trkpt lat="40.002809578169355" lon="9.604708409072561"><ele>58.333333333333336</ele><time>2026-05-01T10:53:44Z</time></trkpt><trkpt lat="40.00264527000088" lon="9.604626274793537"><ele>59.0</ele><time>2026-05-01T10:53:45Z</time></trkpt><trkpt lat="40.00247916656386" lon="9.604544401802565"><ele>60.0</ele><time>2026-05-01T10:53:46Z</time></trkpt><trkpt lat="40.002314670550774" lon="9.6044624298065"><ele>61.0</ele><time>2026-05-01T10:53:47Z</time></trkpt><trkpt lat="40.00215150031906" lon="9.60438113467788"><ele>62.0</ele><time>2026-05-01T10:53:48Z</time></trkpt><trkpt lat="40.00200130412391" lon="9.604307997236889"><ele>62.0</ele><time>2026-05-01T10:53:49Z</time></trkpt><trkpt lat="40.001855103295185" lon="9.60423813729409"><ele>62.0</ele><time>2026-05-01T10:53:50Z</time></trkpt><trkpt lat="40.001717671552704" lon="9.60417876639539"><ele>62.0</ele><time>2026-05-01T10:53:51Z</time></trkpt><trkpt lat="40.00157288683527" lon="9.604161011830096"><ele>62.0</ele><time>2026-05-01T10:53:52Z</time></trkpt><trkpt lat="40.001417414101105" lon="9.604136243814887"><ele>62.66666666666667</ele><time>2026-05-01T10:53:53Z</time></trkpt><trkpt lat="40.00125348064053" lon="9.604124737327169"><ele>63.33333333333333</ele><time>2026-05-01T10:53:54Z</time></trkpt><trkpt lat="40.00108366402757" lon="9.604110548108771"><ele>64.0</ele><time>2026-05-01T10:53:55Z</time></trkpt><trkpt lat="40.00091574484947" lon="9.604096655431427"><ele>63.33333333333333</ele><time>2026-05-01T10:53:56Z</time></trkpt><trkpt lat="40.00074704311851" lon="9.604059603641028"><ele>62.66666666666667</ele><time>2026-05-01T10:53:57Z</time></trkpt><trkpt lat="40.00057739213022" lon="9.604040872214332"><ele>62.0</ele><time>2026-05-01T10:53:58Z</time></trkpt><trkpt lat="40.00040677303642" lon="9.604020022396815"><ele>62.0</ele><time>2026-05-01T10:53:59Z</time></trkpt><trkpt lat="40.00023365938706" lon="9.60399238180309"><ele>62.0</ele><time>2026-05-01T10:54:00Z</time></trkpt><trkpt lat="40.00006471073815" lon="9.60396381466239"><ele>62.0</ele><time>2026-05-01T10:54:01Z</time></trkpt><trkpt lat="39.99989752908242" lon="9.603935546232986"><ele>62.0</ele><time>2026-05-01T10:54:02Z</time></trkpt><trkpt lat="39.99973124047095" lon="9.603907799619344"><ele>62.0</ele><time>2026-05-01T10:54:03Z</time></trkpt><trkpt lat="39.9995773380446" lon="9.603885544578091"><ele>62.0</ele><time>2026-05-01T10:54:04Z</time></trkpt><trkpt lat="39.99943176971367" lon="9.60387207269517"><ele>62.0</ele><time>2026-05-01T10:54:05Z</time></trkpt><trkpt lat="39.99928798026366" lon="9.603898035152788"><ele>62.0</ele><time>2026-05-01T10:54:06Z</time></trkpt><trkpt lat="39.999148197200434" lon="9.603922689875937"><ele>62.0</ele><time>2026-05-01T10:54:07Z</time></trkpt><trkpt lat="39.9990004567747" lon="9.603934773071135"><ele>62.0</ele><time>2026-05-01T10:54:08Z</time></trkpt><trkpt lat="39.99884948624786" lon="9.603968901104235"><ele>62.0</ele><time>2026-05-01T10:54:09Z</time></trkpt><trkpt lat="39.99869859494443" lon="9.60400301131092"><ele>62.0</ele><time>2026-05-01T10:54:10Z</time></trkpt><trkpt lat="39.9985506311389" lon="9.60401685658091"><ele>62.0</ele><time>2026-05-01T10:54:11Z</time></trkpt><trkpt lat="39.99840682644518" lon="9.60400883539382"><ele>62.0</ele><time>2026-05-01T10:54:12Z</time></trkpt><trkpt lat="39.99828051326005" lon="9.604012403265491"><ele>62.0</ele><time>2026-05-01T10:54:13Z</time></trkpt><trkpt lat="39.998151405285576" lon="9.604073713291786"><ele>62.0</ele><time>2026-05-01T10:54:14Z</time></trkpt><trkpt lat="39.99802654149599" lon="9.604146193275001"><ele>62.0</ele><time>2026-05-01T10:54:15Z</time></trkpt><trkpt lat="39.99789070996397" lon="9.604240967637327"><ele>62.0</ele><time>2026-05-01T10:54:16Z</time></trkpt><trkpt lat="39.99773698178814" lon="9.604332216435868"><ele>62.0</ele><time>2026-05-01T10:54:17Z</time></trkpt><trkpt lat="39.997585388307584" lon="9.604467572796716"><ele>62.0</ele><time>2026-05-01T10:54:18Z</time></trkpt><trkpt lat="39.99740867469282" lon="9.604561553712742"><ele>62.0</ele><time>2026-05-01T10:54:19Z</time></trkpt><trkpt lat="39.99723141594903" lon="9.604676679691758"><ele>61.0</ele><time>2026-05-01T10:54:20Z</time></trkpt><trkpt lat="39.997052841619066" lon="9.604794319658467"><ele>60.0</ele><time>2026-05-01T10:54:21Z</time></trkpt><trkpt lat="39.99687826445553" lon="9.604938790910051"><ele>59.0</ele><time>2026-05-01T10:54:22Z</time></trkpt><trkpt lat="39.9967050725221" lon="9.605092635367493"><ele>58.333333333333336</ele><time>2026-05-01T10:54:23Z</time></trkpt><trkpt lat="39.9965389087383" lon="9.605239923576232"><ele>57.66666666666667</ele><time>2026-05-01T10:54:24Z</time></trkpt><trkpt lat="39.99637971346735" lon="9.605378614849865"><ele>57.0</ele><time>2026-05-01T10:54:25Z</time></trkpt><trkpt lat="39.99622712087296" lon="9.605506992147424"><ele>57.0</ele><time>2026-05-01T10:54:26Z</time></trkpt><trkpt lat="39.996084377040475" lon="9.605622337417902"><ele>57.0</ele><time>2026-05-01T10:54:27Z</time></trkpt><trkpt lat="39.995943739831446" lon="9.605729728112905"><ele>57.0</ele><time>2026-05-01T10:54:28Z</time></trkpt><trkpt lat="39.995807442442484" lon="9.605796435966736"><ele>58.66666666666667</ele><time>2026-05-01T10:54:29Z</time></trkpt><trkpt lat="39.99566621649908" lon="9.605842580656864"><ele>60.333333333333336</ele><time>2026-05-01T10:54:30Z</time></trkpt><trkpt lat="39.99550587234996" lon="9.605885254069328"><ele>62.0</ele><time>2026-05-01T10:54:31Z</time></trkpt><trkpt lat="39.99533382360696" lon="9.605935376308027"><ele>62.0</ele><time>2026-05-01T10:54:32Z</time></trkpt><trkpt lat="39.995158725185995" lon="9.605991626236102"><ele>62.0</ele><time>2026-05-01T10:54:33Z</time></trkpt><trkpt lat="39.99498242847491" lon="9.606045635493759"><ele>62.0</ele><time>2026-05-01T10:54:34Z</time></trkpt><trkpt lat="39.994792847655" lon="9.606091308637756"><ele>62.333333333333336</ele><time>2026-05-01T10:54:35Z</time></trkpt><trkpt lat="39.994605980303795" lon="9.606121746832168"><ele>62.66666666666667</ele><time>2026-05-01T10:54:36Z</time></trkpt><trkpt lat="39.99443627266" lon="9.60615088389458"><ele>63.0</ele><time>2026-05-01T10:54:37Z</time></trkpt><trkpt lat="39.994280971217506" lon="9.606187266950107"><ele>61.5</ele><time>2026-05-01T10:54:38Z</time></trkpt><trkpt lat="39.994134229723855" lon="9.606216703030544"><ele>60.0</ele><time>2026-05-01T10:54:39Z</time></trkpt><trkpt lat="39.99400432746761" lon="9.60623513988216"><ele>58.5</ele><time>2026-05-01T10:54:40Z</time></trkpt><trkpt lat="39.99389635081326" lon="9.606246201660241"><ele>57.0</ele><time>2026-05-01T10:54:41Z</time></trkpt><trkpt lat="39.99383399623779" lon="9.606177639632554"><ele>57.75</ele><time>2026-05-01T10:54:42Z</time></trkpt><trkpt lat="39.993750960925134" lon="9.606073505038061"><ele>58.5</ele><time>2026-05-01T10:54:43Z</time></trkpt><trkpt lat="39.99363154336849" lon="9.605966640362237"><ele>59.25</ele><time>2026-05-01T10:54:44Z</time></trkpt><trkpt lat="39.99350762372858" lon="9.605877688471857"><ele>60.0</ele><time>2026-05-01T10:54:45Z</time></trkpt><trkpt lat="39.99340387036802" lon="9.605829407716287"><ele>59.8</ele><time>2026-05-01T10:54:46Z</time></trkpt><trkpt lat="39.993319375135634" lon="9.605765758062866"><ele>59.6</ele><time>2026-05-01T10:54:48Z</time></trkpt><trkpt lat="39.99332148026411" lon="9.605678945462817"><ele>59.400000000000006</ele><time>2026-05-01T10:54:49Z</time></trkpt><trkpt lat="39.99331002120107" lon="9.605544706277012"><ele>59.2</ele><time>2026-05-01T10:54:50Z</time></trkpt><trkpt lat="39.99329447638988" lon="9.605362603474491"><ele>59.0</ele><time>2026-05-01T10:54:51Z</time></trkpt><trkpt lat="39.9932769793656" lon="9.605157631102506"><ele>59.66666666666667</ele><time>2026-05-01T10:54:52Z</time></trkpt><trkpt lat="39.99324413700913" lon="9.604928203851886"><ele>60.33333333333333</ele><time>2026-05-01T10:54:53Z</time></trkpt><trkpt lat="39.99322028699601" lon="9.604685011301806"><ele>61.0</ele><time>2026-05-01T10:54:54Z</time></trkpt><trkpt lat="39.99321454459397" lon="9.604420562898287"><ele>61.666666666666664</ele><time>2026-05-01T10:54:55Z</time></trkpt><trkpt lat="39.993192864683" lon="9.604160099084526"><ele>62.33333333333333</ele><time>2026-05-01T10:54:56Z</time></trkpt><trkpt lat="39.99317252497192" lon="9.603915736432834"><ele>63.0</ele><time>2026-05-01T10:54:57Z</time></trkpt><trkpt lat="39.99313807908654" lon="9.603700199621061"><ele>63.33333333333333</ele><time>2026-05-01T10:54:58Z</time></trkpt><trkpt lat="39.993120671326245" lon="9.603479317063414"><ele>63.666666666666664</ele><time>2026-05-01T10:54:59Z</time></trkpt><trkpt lat="39.99310265918306" lon="9.60325624181022"><ele>64.0</ele><time>2026-05-01T10:55:00Z</time></trkpt><trkpt lat="39.993083991678084" lon="9.603034648501987"><ele>64.33333333333333</ele><time>2026-05-01T10:55:01Z</time></trkpt><trkpt lat="39.99306426371261" lon="9.602815875113238"><ele>64.66666666666667</ele><time>2026-05-01T10:55:02Z</time></trkpt><trkpt lat="39.993043704833624" lon="9.602594332749588"><ele>65.0</ele><time>2026-05-01T10:55:03Z</time></trkpt><trkpt lat="39.99302418357272" lon="9.602369199715607"><ele>65.0</ele><time>2026-05-01T10:55:04Z</time></trkpt><trkpt lat="39.99300615791098" lon="9.602138397364849"><ele>65.0</ele><time>2026-05-01T10:55:05Z</time></trkpt><trkpt lat="39.99298622118861" lon="9.60189877876652"><ele>65.0</ele><time>2026-05-01T10:55:06Z</time></trkpt><trkpt lat="39.992966808176334" lon="9.601650822030376"><ele>65.66666666666667</ele><time>2026-05-01T10:55:07Z</time></trkpt><trkpt lat="39.99294718654615" lon="9.601398957862079"><ele>66.33333333333333</ele><time>2026-05-01T10:55:08Z</time></trkpt><trkpt lat="39.9929261749199" lon="9.60114343651082"><ele>67.0</ele><time>2026-05-01T10:55:09Z</time></trkpt><trkpt lat="39.9929058742659" lon="9.600890888836618"><ele>69.0</ele><time>2026-05-01T10:55:10Z</time></trkpt><trkpt lat="39.9928865779995" lon="9.600640573402611"><ele>71.0</ele><time>2026-05-01T10:55:11Z</time></trkpt><trkpt lat="39.99286940107383" lon="9.600391548575574"><ele>73.0</ele><time>2026-05-01T10:55:12Z</time></trkpt><trkpt lat="39.992857717110674" lon="9.600144545451391"><ele>75.33333333333333</ele><time>2026-05-01T10:55:13Z</time></trkpt><trkpt lat="39.992859048605055" lon="9.599924038841447"><ele>77.66666666666667</ele><time>2026-05-01T10:55:14Z</time></trkpt><trkpt lat="39.99290031261594" lon="9.599722577554243"><ele>80.0</ele><time>2026-05-01T10:55:15Z</time></trkpt><trkpt lat="39.99294740035211" lon="9.59950148617578"><ele>79.66666666666667</ele><time>2026-05-01T10:55:16Z</time></trkpt><trkpt lat="39.99302799744343" lon="9.59929200647987"><ele>79.33333333333333</ele><time>2026-05-01T10:55:17Z</time></trkpt><trkpt lat="39.99312112967891" lon="9.599076419889435"><ele>79.0</ele><time>2026-05-01T10:55:18Z</time></trkpt><trkpt lat="39.993210804254566" lon="9.598851948307148"><ele>79.66666666666666</ele><time>2026-05-01T10:55:19Z</time></trkpt><trkpt lat="39.993302594110936" lon="9.598618398034112"><ele>80.33333333333333</ele><time>2026-05-01T10:55:20Z</time></trkpt><trkpt lat="39.99339542565667" lon="9.598379833604984"><ele>81.0</ele><time>2026-05-01T10:55:21Z</time></trkpt><trkpt lat="39.99348844301043" lon="9.598138996481033"><ele>82.66666666666667</ele><time>2026-05-01T10:55:22Z</time></trkpt><trkpt lat="39.99358215936218" lon="9.597898854045066"><ele>84.33333333333334</ele><time>2026-05-01T10:55:23Z</time></trkpt><trkpt lat="39.99367810679592" lon="9.597663520204383"><ele>86.0</ele><time>2026-05-01T10:55:24Z</time></trkpt><trkpt lat="39.99376266312059" lon="9.597446146502177"><ele>86.33333333333334</ele><time>2026-05-01T10:55:25Z</time></trkpt><trkpt lat="39.99384155684657" lon="9.597245102651044"><ele>86.66666666666667</ele><time>2026-05-01T10:55:26Z</time></trkpt><trkpt lat="39.993901548358636" lon="9.59703599349949"><ele>87.0</ele><time>2026-05-01T10:55:27Z</time></trkpt><trkpt lat="39.99392986737769" lon="9.596812839050257"><ele>87.0</ele><time>2026-05-01T10:55:28Z</time></trkpt><trkpt lat="39.99394315595908" lon="9.59657094920234"><ele>87.0</ele><time>2026-05-01T10:55:29Z</time></trkpt><trkpt lat="39.99393890229684" lon="9.596321671747912"><ele>87.0</ele><time>2026-05-01T10:55:30Z</time></trkpt><trkpt lat="39.99393669274177" lon="9.596065828460787"><ele>86.66666666666667</ele><time>2026-05-01T10:55:31Z</time></trkpt><trkpt lat="39.993931470655205" lon="9.595802136697154"><ele>86.33333333333334</ele><time>2026-05-01T10:55:32Z</time></trkpt><trkpt lat="39.993934488744316" lon="9.595537755956185"><ele>86.0</ele><time>2026-05-01T10:55:33Z</time></trkpt><trkpt lat="39.99393326403103" lon="9.595263902764025"><ele>86.66666666666667</ele><time>2026-05-01T10:55:34Z</time></trkpt><trkpt lat="39.99393361815373" lon="9.59497273402944"><ele>87.33333333333333</ele><time>2026-05-01T10:55:35Z</time></trkpt><trkpt lat="39.99393439985477" lon="9.594680065965"><ele>88.0</ele><time>2026-05-01T10:55:36Z</time></trkpt><trkpt lat="39.993951844035266" lon="9.594388934859849"><ele>88.33333333333333</ele><time>2026-05-01T10:55:37Z</time></trkpt><trkpt lat="39.993953861257886" lon="9.594118903985867"><ele>88.66666666666667</ele><time>2026-05-01T10:55:38Z</time></trkpt><trkpt lat="39.99394092598857" lon="9.593863582325028"><ele>89.0</ele><time>2026-05-01T10:55:39Z</time></trkpt><trkpt lat="39.99395233853876" lon="9.59360339678712"><ele>89.0</ele><time>2026-05-01T10:55:40Z</time></trkpt><trkpt lat="39.99400648340763" lon="9.593340981787954"><ele>89.0</ele><time>2026-05-01T10:55:41Z</time></trkpt><trkpt lat="39.994071626700375" lon="9.593075719652905"><ele>89.0</ele><time>2026-05-01T10:55:42Z</time></trkpt><trkpt lat="39.99414584212241" lon="9.592810722744566"><ele>88.66666666666667</ele><time>2026-05-01T10:55:43Z</time></trkpt><trkpt lat="39.994208081252076" lon="9.592540002128384"><ele>88.33333333333333</ele><time>2026-05-01T10:55:44Z</time></trkpt><trkpt lat="39.99428506034432" lon="9.59228125274493"><ele>88.0</ele><time>2026-05-01T10:55:45Z</time></trkpt><trkpt lat="39.994353883192026" lon="9.592039009541095"><ele>88.0</ele><time>2026-05-01T10:55:46Z</time></trkpt><trkpt lat="39.994418137565965" lon="9.591809061206181"><ele>88.0</ele><time>2026-05-01T10:55:47Z</time></trkpt><trkpt lat="39.994486522763815" lon="9.591572035484917"><ele>88.0</ele><time>2026-05-01T10:55:48Z</time></trkpt><trkpt lat="39.99458690768841" lon="9.591352082755073"><ele>89.0</ele><time>2026-05-01T10:55:49Z</time></trkpt><trkpt lat="39.99468108920351" lon="9.591129120589414"><ele>90.0</ele><time>2026-05-01T10:55:50Z</time></trkpt><trkpt lat="39.99479027618347" lon="9.590916650691225"><ele>91.0</ele><time>2026-05-01T10:55:51Z</time></trkpt><trkpt lat="39.994894645673085" lon="9.590696228269206"><ele>91.0</ele><time>2026-05-01T10:55:52Z</time></trkpt><trkpt lat="39.995003214234295" lon="9.59047252496226"><ele>91.0</ele><time>2026-05-01T10:55:53Z</time></trkpt><trkpt lat="39.99512385796076" lon="9.590253390386927"><ele>91.0</ele><time>2026-05-01T10:55:54Z</time></trkpt><trkpt lat="39.995259785005935" lon="9.59004801359322"><ele>91.0</ele><time>2026-05-01T10:55:55Z</time></trkpt><trkpt lat="39.995414914739406" lon="9.589864288757418"><ele>91.0</ele><time>2026-05-01T10:55:56Z</time></trkpt><trkpt lat="39.99556879094944" lon="9.589678735577692"><ele>91.0</ele><time>2026-05-01T10:55:57Z</time></trkpt><trkpt lat="39.995726174876765" lon="9.589493804768491"><ele>90.0</ele><time>2026-05-01T10:55:58Z</time></trkpt><trkpt lat="39.99588589691762" lon="9.589310121255387"><ele>89.0</ele><time>2026-05-01T10:55:59Z</time></trkpt><trkpt lat="39.99604652311151" lon="9.589125724368413"><ele>88.0</ele><time>2026-05-01T10:56:00Z</time></trkpt><trkpt lat="39.99620786843842" lon="9.588937193581328"><ele>88.0</ele><time>2026-05-01T10:56:01Z</time></trkpt><trkpt lat="39.9963715845585" lon="9.588748788162198"><ele>88.0</ele><time>2026-05-01T10:56:02Z</time></trkpt><trkpt lat="39.99653656820213" lon="9.588559084060305"><ele>88.0</ele><time>2026-05-01T10:56:03Z</time></trkpt><trkpt lat="39.99670022397719" lon="9.588365457093088"><ele>87.66666666666666</ele><time>2026-05-01T10:56:04Z</time></trkpt><trkpt lat="39.99685049329686" lon="9.588161629023018"><ele>87.33333333333333</ele><time>2026-05-01T10:56:05Z</time></trkpt><trkpt lat="39.99698153011866" lon="9.587941951066822"><ele>87.0</ele><time>2026-05-01T10:56:06Z</time></trkpt><trkpt lat="39.99709603949268" lon="9.587708722274673"><ele>87.0</ele><time>2026-05-01T10:56:07Z</time></trkpt><trkpt lat="39.997201731817974" lon="9.587466621385682"><ele>87.0</ele><time>2026-05-01T10:56:08Z</time></trkpt><trkpt lat="39.99730690512955" lon="9.587220187466574"><ele>87.0</ele><time>2026-05-01T10:56:09Z</time></trkpt><trkpt lat="39.99741513308667" lon="9.586976069060151"><ele>87.0</ele><time>2026-05-01T10:56:10Z</time></trkpt><trkpt lat="39.9975252982341" lon="9.586737264532891"><ele>87.0</ele><time>2026-05-01T10:56:11Z</time></trkpt><trkpt lat="39.99763871467901" lon="9.58650556670894"><ele>87.0</ele><time>2026-05-01T10:56:12Z</time></trkpt><trkpt lat="39.99775695577764" lon="9.586283337871212"><ele>87.33333333333333</ele><time>2026-05-01T10:56:13Z</time></trkpt><trkpt lat="39.997882741308764" lon="9.586082843461464"><ele>87.66666666666666</ele><time>2026-05-01T10:56:14Z</time></trkpt><trkpt lat="39.99800741751527" lon="9.585900130612584"><ele>88.0</ele><time>2026-05-01T10:56:15Z</time></trkpt><trkpt lat="39.998129469363874" lon="9.58571118099374"><ele>88.0</ele><time>2026-05-01T10:56:16Z</time></trkpt><trkpt lat="39.99824808655004" lon="9.5855126490503"><ele>88.0</ele><time>2026-05-01T10:56:17Z</time></trkpt><trkpt lat="39.99836608778475" lon="9.58530866825807"><ele>88.0</ele><time>2026-05-01T10:56:18Z</time></trkpt><trkpt lat="39.99847341501403" lon="9.585094204131961"><ele>86.33333333333333</ele><time>2026-05-01T10:56:19Z</time></trkpt><trkpt lat="39.998563845785945" lon="9.584859810800104"><ele>84.66666666666667</ele><time>2026-05-01T10:56:20Z</time></trkpt><trkpt lat="39.99863002792643" lon="9.584602634660511"><ele>83.0</ele><time>2026-05-01T10:56:21Z</time></trkpt><trkpt lat="39.99869091519311" lon="9.58433850012116"><ele>83.0</ele><time>2026-05-01T10:56:22Z</time></trkpt><trkpt lat="39.998765710698414" lon="9.58405937781845"><ele>83.0</ele><time>2026-05-01T10:56:23Z</time></trkpt><trkpt lat="39.99884048274261" lon="9.58377692161662"><ele>83.0</ele><time>2026-05-01T10:56:24Z</time></trkpt><trkpt lat="39.99891254528328" lon="9.58349225893381"><ele>83.0</ele><time>2026-05-01T10:56:25Z</time></trkpt><trkpt lat="39.998986747466496" lon="9.583208202674045"><ele>83.0</ele><time>2026-05-01T10:56:26Z</time></trkpt><trkpt lat="39.999062049457926" lon="9.58292196568742"><ele>83.0</ele><time>2026-05-01T10:56:27Z</time></trkpt><trkpt lat="39.99914033174576" lon="9.58263366851284"><ele>81.5</ele><time>2026-05-01T10:56:28Z</time></trkpt><trkpt lat="39.999217273412334" lon="9.582346293898487"><ele>80.0</ele><time>2026-05-01T10:56:29Z</time></trkpt><trkpt lat="39.99929026228501" lon="9.582060888811151"><ele>80.66666666666667</ele><time>2026-05-01T10:56:30Z</time></trkpt><trkpt lat="39.999361863738784" lon="9.581781197244778"><ele>81.33333333333333</ele><time>2026-05-01T10:56:31Z</time></trkpt><trkpt lat="39.999435999084255" lon="9.581506236377868"><ele>82.0</ele><time>2026-05-01T10:56:32Z</time></trkpt><trkpt lat="39.99950761537752" lon="9.581235084308785"><ele>82.33333333333333</ele><time>2026-05-01T10:56:33Z</time></trkpt><trkpt lat="39.999577139844426" lon="9.580965954894312"><ele>82.66666666666667</ele><time>2026-05-01T10:56:34Z</time></trkpt><trkpt lat="39.99964751571109" lon="9.580704608710052"><ele>83.0</ele><time>2026-05-01T10:56:35Z</time></trkpt><trkpt lat="39.99971637380297" lon="9.580443674411736"><ele>83.33333333333334</ele><time>2026-05-01T10:56:36Z</time></trkpt><trkpt lat="39.99978524089493" lon="9.580186938314892"><ele>83.66666666666667</ele><time>2026-05-01T10:56:37Z</time></trkpt><trkpt lat="39.99985541283557" lon="9.579926382937431"><ele>84.0</ele><time>2026-05-01T10:56:38Z</time></trkpt><trkpt lat="39.999927038099315" lon="9.579662310123151"><ele>84.66666666666667</ele><time>2026-05-01T10:56:39Z</time></trkpt><trkpt lat="39.99999663131899" lon="9.579396192827597"><ele>85.33333333333334</ele><time>2026-05-01T10:56:40Z</time></trkpt><trkpt lat="40.00006592817168" lon="9.579131492506935"><ele>86.0</ele><time>2026-05-01T10:56:41Z</time></trkpt><trkpt lat="40.00013263610329" lon="9.578881541760538"><ele>86.66666666666667</ele><time>2026-05-01T10:56:42Z</time></trkpt><trkpt lat="40.00019668648028" lon="9.57864056768661"><ele>87.33333333333333</ele><time>2026-05-01T10:56:43Z</time></trkpt><trkpt lat="40.0002593191485" lon="9.578407841008739"><ele>88.0</ele><time>2026-05-01T10:56:44Z</time></trkpt><trkpt lat="40.000320286110856" lon="9.578176595351428"><ele>88.0</ele><time>2026-05-01T10:56:45Z</time></trkpt><trkpt lat="40.000380416599945" lon="9.577941572255511"><ele>88.0</ele><time>2026-05-01T10:56:46Z</time></trkpt><trkpt lat="40.00044102835499" lon="9.577702830004052"><ele>88.0</ele><time>2026-05-01T10:56:47Z</time></trkpt><trkpt lat="40.00050807863051" lon="9.577464934521046"><ele>89.0</ele><time>2026-05-01T10:56:48Z</time></trkpt><trkpt lat="40.000593233073076" lon="9.577231362884202"><ele>90.0</ele><time>2026-05-01T10:56:49Z</time></trkpt><trkpt lat="40.000699615607566" lon="9.576999449057455"><ele>91.0</ele><time>2026-05-01T10:56:50Z</time></trkpt><trkpt lat="40.000810824425116" lon="9.576761643279479"><ele>93.0</ele><time>2026-05-01T10:56:51Z</time></trkpt><trkpt lat="40.00092066188249" lon="9.576511010532036"><ele>95.0</ele><time>2026-05-01T10:56:52Z</time></trkpt><trkpt lat="40.0010314474016" lon="9.576251976126219"><ele>97.0</ele><time>2026-05-01T10:56:53Z</time></trkpt><trkpt lat="40.00114076731066" lon="9.575991871431775"><ele>97.0</ele><time>2026-05-01T10:56:54Z</time></trkpt><trkpt lat="40.001252561338504" lon="9.575721582571052"><ele>97.0</ele><time>2026-05-01T10:56:55Z</time></trkpt><trkpt lat="40.00136787223983" lon="9.575451399775945"><ele>98.5</ele><time>2026-05-01T10:56:56Z</time></trkpt><trkpt lat="40.00148435557221" lon="9.575183414360644"><ele>100.0</ele><time>2026-05-01T10:56:57Z</time></trkpt><trkpt lat="40.00159365454281" lon="9.574934322613053"><ele>101.0</ele><time>2026-05-01T10:56:58Z</time></trkpt><trkpt lat="40.001693219371475" lon="9.574702028707545"><ele>102.0</ele><time>2026-05-01T10:56:59Z</time></trkpt><trkpt lat="40.00179453454387" lon="9.574467098221765"><ele>103.0</ele><time>2026-05-01T10:57:00Z</time></trkpt><trkpt lat="40.00189449367477" lon="9.574232351412663"><ele>103.66666666666667</ele><time>2026-05-01T10:57:01Z</time></trkpt><trkpt lat="40.0019953499894" lon="9.574000804909526"><ele>104.33333333333334</ele><time>2026-05-01T10:57:02Z</time></trkpt><trkpt lat="40.00210033358932" lon="9.573769021097185"><ele>105.0</ele><time>2026-05-01T10:57:03Z</time></trkpt><trkpt lat="40.00221900403853" lon="9.573534734428915"><ele>104.66666666666666</ele><time>2026-05-01T10:57:04Z</time></trkpt><trkpt lat="40.00234770048899" lon="9.573300866259109"><ele>104.33333333333333</ele><time>2026-05-01T10:57:05Z</time></trkpt><trkpt lat="40.00248511325023" lon="9.573064281842584"><ele>104.0</ele><time>2026-05-01T10:57:06Z</time></trkpt><trkpt lat="40.00262677827414" lon="9.572824409266298"><ele>104.0</ele><time>2026-05-01T10:57:07Z</time></trkpt><trkpt lat="40.00276750100825" lon="9.572580628982228"><ele>104.0</ele><time>2026-05-01T10:57:08Z</time></trkpt><trkpt lat="40.00290805449117" lon="9.572334152561295"><ele>104.0</ele><time>2026-05-01T10:57:09Z</time></trkpt><trkpt lat="40.00304372391933" lon="9.572093462392564"><ele>104.0</ele><time>2026-05-01T10:57:10Z</time></trkpt><trkpt lat="40.00315623677344" lon="9.571890116004136"><ele>104.0</ele><time>2026-05-01T10:57:11Z</time></trkpt><trkpt lat="40.0032695266804" lon="9.571691366148126"><ele>103.66666666666666</ele><time>2026-05-01T10:57:12Z</time></trkpt><trkpt lat="40.00339423267252" lon="9.571485466120757"><ele>103.33333333333334</ele><time>2026-05-01T10:57:13Z</time></trkpt><trkpt lat="40.003521962066195" lon="9.57126864593843"><ele>103.0</ele><time>2026-05-01T10:57:14Z</time></trkpt><trkpt lat="40.00365040192021" lon="9.571039441992257"><ele>104.0</ele><time>2026-05-01T10:57:15Z</time></trkpt><trkpt lat="40.003784559109384" lon="9.570807024810994"><ele>105.0</ele><time>2026-05-01T10:57:16Z</time></trkpt><trkpt lat="40.003922849997" lon="9.570570402839653"><ele>106.5</ele><time>2026-05-01T10:57:17Z</time></trkpt><trkpt lat="40.00406251438779" lon="9.570327085193165"><ele>108.0</ele><time>2026-05-01T10:57:18Z</time></trkpt><trkpt lat="40.00420516323104" lon="9.570078975112576"><ele>104.5</ele><time>2026-05-01T10:57:19Z</time></trkpt><trkpt lat="40.00434664537043" lon="9.569831691002321"><ele>101.0</ele><time>2026-05-01T10:57:20Z</time></trkpt><trkpt lat="40.004485802500014" lon="9.569592788561742"><ele>103.0</ele><time>2026-05-01T10:57:21Z</time></trkpt><trkpt lat="40.00462604357315" lon="9.569352548442065"><ele>105.0</ele><time>2026-05-01T10:57:22Z</time></trkpt><trkpt lat="40.00477105666414" lon="9.569115476494277"><ele>105.0</ele><time>2026-05-01T10:57:23Z</time></trkpt><trkpt lat="40.004931940623784" lon="9.568890977211966"><ele>105.0</ele><time>2026-05-01T10:57:24Z</time></trkpt><trkpt lat="40.005109517383474" lon="9.568689989228924"><ele>105.66666666666666</ele><time>2026-05-01T10:57:25Z</time></trkpt><trkpt lat="40.00528431542439" lon="9.568503228107897"><ele>106.33333333333333</ele><time>2026-05-01T10:57:26Z</time></trkpt><trkpt lat="40.005448692138785" lon="9.568330438186402"><ele>107.0</ele><time>2026-05-01T10:57:27Z</time></trkpt><trkpt lat="40.00560878895104" lon="9.568151468893953"><ele>107.0</ele><time>2026-05-01T10:57:28Z</time></trkpt><trkpt lat="40.005746287253416" lon="9.567965772828456"><ele>107.0</ele><time>2026-05-01T10:57:29Z</time></trkpt><trkpt lat="40.005868123091176" lon="9.56775563378989"><ele>107.0</ele><time>2026-05-01T10:57:30Z</time></trkpt><trkpt lat="40.00597274060992" lon="9.567522442108785"><ele>107.0</ele><time>2026-05-01T10:57:31Z</time></trkpt><trkpt lat="40.00606264149596" lon="9.56726453723632"><ele>107.0</ele><time>2026-05-01T10:57:32Z</time></trkpt><trkpt lat="40.00615903204968" lon="9.567003075247367"><ele>107.0</ele><time>2026-05-01T10:57:33Z</time></trkpt><trkpt lat="40.00625743717764" lon="9.566737085911933"><ele>107.66666666666666</ele><time>2026-05-01T10:57:34Z</time></trkpt><trkpt lat="40.00635319936546" lon="9.566466963661137"><ele>108.33333333333334</ele><time>2026-05-01T10:57:35Z</time></trkpt><trkpt lat="40.006443377564196" lon="9.56621136385111"><ele>109.0</ele><time>2026-05-01T10:57:36Z</time></trkpt><trkpt lat="40.00653921026881" lon="9.565947450594116"><ele>110.66666666666667</ele><time>2026-05-01T10:57:37Z</time></trkpt><trkpt lat="40.00665000763041" lon="9.565695514423345"><ele>112.33333333333334</ele><time>2026-05-01T10:57:38Z</time></trkpt><trkpt lat="40.006773916062286" lon="9.565462789276195"><ele>114.0</ele><time>2026-05-01T10:57:39Z</time></trkpt><trkpt lat="40.00689665904293" lon="9.565251602282942"><ele>114.0</ele><time>2026-05-01T10:57:40Z</time></trkpt><trkpt lat="40.00701060533657" lon="9.565050789098706"><ele>114.0</ele><time>2026-05-01T10:57:41Z</time></trkpt><trkpt lat="40.00711321623667" lon="9.564847925643292"><ele>114.0</ele><time>2026-05-01T10:57:42Z</time></trkpt><trkpt lat="40.007190030018" lon="9.564628593839343"><ele>118.0</ele><time>2026-05-01T10:57:43Z</time></trkpt><trkpt lat="40.00723281111788" lon="9.564370087836034"><ele>122.0</ele><time>2026-05-01T10:57:44Z</time></trkpt><trkpt lat="40.00727999694104" lon="9.564089992610473"><ele>126.0</ele><time>2026-05-01T10:57:45Z</time></trkpt><trkpt lat="40.00733364153603" lon="9.563802192239315"><ele>128.5</ele><time>2026-05-01T10:57:46Z</time></trkpt><trkpt lat="40.007387734602325" lon="9.563512556531618"><ele>131.0</ele><time>2026-05-01T10:57:47Z</time></trkpt><trkpt lat="40.00743725899154" lon="9.56322523273988"><ele>131.0</ele><time>2026-05-01T10:57:48Z</time></trkpt><trkpt lat="40.007487349668736" lon="9.562937250290576"><ele>131.0</ele><time>2026-05-01T10:57:49Z</time></trkpt><trkpt lat="40.00753926988253" lon="9.562644997194768"><ele>117.5</ele><time>2026-05-01T10:57:50Z</time></trkpt><trkpt lat="40.007593331734135" lon="9.562351464712131"><ele>104.0</ele><time>2026-05-01T10:57:51Z</time></trkpt><trkpt lat="40.00764777924672" lon="9.562066903178708"><ele>104.0</ele><time>2026-05-01T10:57:52Z</time></trkpt><trkpt lat="40.00769764674571" lon="9.561803912750463"><ele>104.0</ele><time>2026-05-01T10:57:53Z</time></trkpt><trkpt lat="40.00774199031517" lon="9.56155563184747"><ele>104.0</ele><time>2026-05-01T10:57:54Z</time></trkpt><trkpt lat="40.00778786272124" lon="9.561313609773858"><ele>104.0</ele><time>2026-05-01T10:57:55Z</time></trkpt><trkpt lat="40.007834988046085" lon="9.561067651181"><ele>104.0</ele><time>2026-05-01T10:57:56Z</time></trkpt><trkpt lat="40.007865786512674" lon="9.560839936242813"><ele>104.0</ele><time>2026-05-01T10:57:57Z</time></trkpt><trkpt lat="40.007872467573975" lon="9.560601959371601"><ele>104.33333333333333</ele><time>2026-05-01T10:57:58Z</time></trkpt><trkpt lat="40.00784646536918" lon="9.560353611298654"><ele>104.66666666666666</ele><time>2026-05-01T10:57:59Z</time></trkpt><trkpt lat="40.00784992958446" lon="9.560087230009701"><ele>105.0</ele><time>2026-05-01T10:58:00Z</time></trkpt><trkpt lat="40.00783146181489" lon="9.559827453488236"><ele>105.0</ele><time>2026-05-01T10:58:01Z</time></trkpt><trkpt lat="40.007821587432645" lon="9.559547114534107"><ele>105.0</ele><time>2026-05-01T10:58:02Z</time></trkpt><trkpt lat="40.00785284804809" lon="9.559258178881139"><ele>105.0</ele><time>2026-05-01T10:58:03Z</time></trkpt><trkpt lat="40.0078790529642" lon="9.55895956000663"><ele>115.5</ele><time>2026-05-01T10:58:04Z</time></trkpt><trkpt lat="40.00789131405318" lon="9.558653189412075"><ele>126.0</ele><time>2026-05-01T10:58:05Z</time></trkpt><trkpt lat="40.00791855164604" lon="9.55834522273694"><ele>126.0</ele><time>2026-05-01T10:58:06Z</time></trkpt><trkpt lat="40.00796124616117" lon="9.558060935986633"><ele>126.0</ele><time>2026-05-01T10:58:07Z</time></trkpt><trkpt lat="40.00797209956429" lon="9.557794795743042"><ele>126.0</ele><time>2026-05-01T10:58:08Z</time></trkpt><trkpt lat="40.007998873427276" lon="9.557547558132832"><ele>130.66666666666666</ele><time>2026-05-01T10:58:09Z</time></trkpt><trkpt lat="40.00807313934862" lon="9.557350368245428"><ele>135.33333333333331</ele><time>2026-05-01T10:58:10Z</time></trkpt><trkpt lat="40.00816056940439" lon="9.5571635915641"><ele>140.0</ele><time>2026-05-01T10:58:11Z</time></trkpt><trkpt lat="40.00826199428316" lon="9.556946759673606"><ele>130.33333333333331</ele><time>2026-05-01T10:58:12Z</time></trkpt><trkpt lat="40.008360303779476" lon="9.556725722738127"><ele>120.66666666666666</ele><time>2026-05-01T10:58:13Z</time></trkpt><trkpt lat="40.008420487262256" lon="9.556488808348481"><ele>111.0</ele><time>2026-05-01T10:58:14Z</time></trkpt><trkpt lat="40.00846429153589" lon="9.556213093113788"><ele>112.5</ele><time>2026-05-01T10:58:15Z</time></trkpt><trkpt lat="40.00848602542266" lon="9.555897804881708"><ele>114.0</ele><time>2026-05-01T10:58:16Z</time></trkpt><trkpt lat="40.00851168415098" lon="9.555582846826988"><ele>115.0</ele><time>2026-05-01T10:58:17Z</time></trkpt><trkpt lat="40.008546046186595" lon="9.555293655585018"><ele>116.0</ele><time>2026-05-01T10:58:18Z</time></trkpt><trkpt lat="40.00863114736345" lon="9.555028835298218"><ele>117.0</ele><time>2026-05-01T10:58:19Z</time></trkpt><trkpt lat="40.00873087682854" lon="9.554747071871876"><ele>119.0</ele><time>2026-05-01T10:58:20Z</time></trkpt><trkpt lat="40.00883021386598" lon="9.554457715382298"><ele>121.0</ele><time>2026-05-01T10:58:21Z</time></trkpt><trkpt lat="40.00892734774656" lon="9.554176261102928"><ele>121.0</ele><time>2026-05-01T10:58:22Z</time></trkpt><trkpt lat="40.00900941160322" lon="9.553889515624835"><ele>121.0</ele><time>2026-05-01T10:58:23Z</time></trkpt><trkpt lat="40.009109074235965" lon="9.553614753192395"><ele>118.0</ele><time>2026-05-01T10:58:24Z</time></trkpt><trkpt lat="40.00920280668465" lon="9.55335208844463"><ele>115.0</ele><time>2026-05-01T10:58:25Z</time></trkpt><trkpt lat="40.009291631268354" lon="9.553115275480902"><ele>112.0</ele><time>2026-05-01T10:58:26Z</time></trkpt><trkpt lat="40.00936951035323" lon="9.552893050324089"><ele>114.0</ele><time>2026-05-01T10:58:27Z</time></trkpt><trkpt lat="40.0094199072644" lon="9.552676868195352"><ele>116.0</ele><time>2026-05-01T10:58:28Z</time></trkpt><trkpt lat="40.00941887844242" lon="9.552442207410179"><ele>118.0</ele><time>2026-05-01T10:58:29Z</time></trkpt><trkpt lat="40.00938161349673" lon="9.552192821985566"><ele>118.33333333333334</ele><time>2026-05-01T10:58:30Z</time></trkpt><trkpt lat="40.009355840575644" lon="9.551970827853902"><ele>118.66666666666666</ele><time>2026-05-01T10:58:31Z</time></trkpt><trkpt lat="40.00933935414314" lon="9.551773439616808"><ele>119.0</ele><time>2026-05-01T10:58:32Z</time></trkpt><trkpt lat="40.0093101629199" lon="9.551585843906183"><ele>119.0</ele><time>2026-05-01T10:58:33Z</time></trkpt><trkpt lat="40.00924272006311" lon="9.551433956803402"><ele>119.0</ele><time>2026-05-01T10:58:34Z</time></trkpt><trkpt lat="40.009118384381985" lon="9.55131875093147"><ele>119.0</ele><time>2026-05-01T10:58:35Z</time></trkpt><trkpt lat="40.00895421959263" lon="9.551238380398333"><ele>122.0</ele><time>2026-05-01T10:58:36Z</time></trkpt><trkpt lat="40.00873365166932" lon="9.55119697045227"><ele>125.0</ele><time>2026-05-01T10:58:37Z</time></trkpt><trkpt lat="40.00858907008313" lon="9.551099056830505"><ele>128.0</ele><time>2026-05-01T10:58:38Z</time></trkpt><trkpt lat="40.00850577985416" lon="9.55100347538781"><ele>128.0</ele><time>2026-05-01T10:58:39Z</time></trkpt><trkpt lat="40.00845100922831" lon="9.550892788122392"><ele>128.0</ele><time>2026-05-01T10:58:40Z</time></trkpt><trkpt lat="40.00849268487332" lon="9.550742527324322"><ele>128.0</ele><time>2026-05-01T10:58:41Z</time></trkpt><trkpt lat="40.00854521287405" lon="9.550604043280686"><ele>128.0</ele><time>2026-05-01T10:58:42Z</time></trkpt><trkpt lat="40.008672096812795" lon="9.550549844689664"><ele>128.0</ele><time>2026-05-01T10:58:43Z</time></trkpt><trkpt lat="40.0088166992075" lon="9.550491489150875"><ele>128.0</ele><time>2026-05-01T10:58:44Z</time></trkpt><trkpt lat="40.00894393528176" lon="9.550415507151707"><ele>128.0</ele><time>2026-05-01T10:58:45Z</time></trkpt><trkpt lat="40.00905331844184" lon="9.550322241554422"><ele>128.0</ele><time>2026-05-01T10:58:46Z</time></trkpt><trkpt lat="40.00913235059585" lon="9.550145375882728"><ele>128.33333333333331</ele><time>2026-05-01T10:58:47Z</time></trkpt><trkpt lat="40.00919109042444" lon="9.549900568514985"><ele>128.66666666666666</ele><time>2026-05-01T10:58:48Z</time></trkpt><trkpt lat="40.00926778811491" lon="9.549646742975453"><ele>129.0</ele><time>2026-05-01T10:58:49Z</time></trkpt><trkpt lat="40.00936117750615" lon="9.549385903376901"><ele>135.5</ele><time>2026-05-01T10:58:50Z</time></trkpt><trkpt lat="40.00946485629728" lon="9.549109842340819"><ele>142.0</ele><time>2026-05-01T10:58:51Z</time></trkpt><trkpt lat="40.00957171233811" lon="9.548824000718083"><ele>147.0</ele><time>2026-05-01T10:58:52Z</time></trkpt><trkpt lat="40.009688032783956" lon="9.548532578106554"><ele>152.0</ele><time>2026-05-01T10:58:53Z</time></trkpt><trkpt lat="40.00983738049205" lon="9.548253063489032"><ele>152.0</ele><time>2026-05-01T10:58:54Z</time></trkpt><trkpt lat="40.009972912283224" lon="9.547948112792993"><ele>152.0</ele><time>2026-05-01T10:58:55Z</time></trkpt><trkpt lat="40.0101081949757" lon="9.547688654371138"><ele>150.66666666666666</ele><time>2026-05-01T10:58:56Z</time></trkpt><trkpt lat="40.010229316109104" lon="9.547449164565236"><ele>149.33333333333334</ele><time>2026-05-01T10:58:57Z</time></trkpt><trkpt lat="40.010368010418986" lon="9.5472262540247"><ele>148.0</ele><time>2026-05-01T10:58:58Z</time></trkpt><trkpt lat="40.01054509801798" lon="9.547016148890249"><ele>148.0</ele><time>2026-05-01T10:58:59Z</time></trkpt><trkpt lat="40.01074148077297" lon="9.54683209700431"><ele>148.0</ele><time>2026-05-01T10:59:00Z</time></trkpt><trkpt lat="40.01091663631512" lon="9.546661233392085"><ele>145.66666666666669</ele><time>2026-05-01T10:59:01Z</time></trkpt><trkpt lat="40.011071092523714" lon="9.546495525654368"><ele>143.33333333333334</ele><time>2026-05-01T10:59:02Z</time></trkpt><trkpt lat="40.01121863876746" lon="9.546346231242113"><ele>141.0</ele><time>2026-05-01T10:59:03Z</time></trkpt><trkpt lat="40.011377174998074" lon="9.546252860726268"><ele>141.0</ele><time>2026-05-01T10:59:04Z</time></trkpt><trkpt lat="40.01157028372981" lon="9.54623916858855"><ele>141.0</ele><time>2026-05-01T10:59:05Z</time></trkpt><trkpt lat="40.0117521642107" lon="9.54624122354519"><ele>141.0</ele><time>2026-05-01T10:59:06Z</time></trkpt><trkpt lat="40.01193662468073" lon="9.54618542215695"><ele>144.33333333333334</ele><time>2026-05-01T10:59:07Z</time></trkpt><trkpt lat="40.01209815195642" lon="9.546054031422193"><ele>147.66666666666669</ele><time>2026-05-01T10:59:08Z</time></trkpt><trkpt lat="40.01227609720214" lon="9.545891123842459"><ele>151.0</ele><time>2026-05-01T10:59:09Z</time></trkpt><trkpt lat="40.012472523515875" lon="9.545753411181515"><ele>148.5</ele><time>2026-05-01T10:59:10Z</time></trkpt><trkpt lat="40.0126955700692" lon="9.545633803178436"><ele>146.0</ele><time>2026-05-01T10:59:11Z</time></trkpt><trkpt lat="40.012914360654676" lon="9.545504236074983"><ele>150.5</ele><time>2026-05-01T10:59:12Z</time></trkpt><trkpt lat="40.01312913062959" lon="9.545374768325024"><ele>155.0</ele><time>2026-05-01T10:59:13Z</time></trkpt><trkpt lat="40.013337899451585" lon="9.545252043011862"><ele>155.0</ele><time>2026-05-01T10:59:14Z</time></trkpt><trkpt lat="40.01353675558786" lon="9.545133236157332"><ele>155.0</ele><time>2026-05-01T10:59:15Z</time></trkpt><trkpt lat="40.013711555346724" lon="9.54501469684125"><ele>155.0</ele><time>2026-05-01T10:59:16Z</time></trkpt><trkpt lat="40.013872909945704" lon="9.544896311402194"><ele>155.0</ele><time>2026-05-01T10:59:17Z</time></trkpt><trkpt lat="40.01401335115363" lon="9.544804893584057"><ele>155.0</ele><time>2026-05-01T10:59:18Z</time></trkpt><trkpt lat="40.01419385682864" lon="9.544737329483505"><ele>155.0</ele><time>2026-05-01T10:59:19Z</time></trkpt><trkpt lat="40.01435214294582" lon="9.544728276325587"><ele>154.0</ele><time>2026-05-01T10:59:20Z</time></trkpt><trkpt lat="40.014474862146024" lon="9.54472504967868"><ele>153.0</ele><time>2026-05-01T10:59:21Z</time></trkpt><trkpt lat="40.01455784066687" lon="9.544667349577507"><ele>152.0</ele><time>2026-05-01T10:59:22Z</time></trkpt><trkpt lat="40.014596344019616" lon="9.54452085396997"><ele>151.0</ele><time>2026-05-01T10:59:23Z</time></trkpt><trkpt lat="40.01459705818559" lon="9.54434348104661"><ele>156.0</ele><time>2026-05-01T10:59:24Z</time></trkpt><trkpt lat="40.01456907885226" lon="9.544116647241077"><ele>161.0</ele><time>2026-05-01T10:59:25Z</time></trkpt><trkpt lat="40.014557376374086" lon="9.543909639238114"><ele>166.0</ele><time>2026-05-01T10:59:26Z</time></trkpt><trkpt lat="40.01461137046922" lon="9.543731497025341"><ele>173.0</ele><time>2026-05-01T10:59:27Z</time></trkpt><trkpt lat="40.01472966299027" lon="9.543566889120163"><ele>180.0</ele><time>2026-05-01T10:59:28Z</time></trkpt><trkpt lat="40.01486784408254" lon="9.543395770578584"><ele>187.0</ele><time>2026-05-01T10:59:29Z</time></trkpt><trkpt lat="40.01498611906515" lon="9.543225273741482"><ele>178.0</ele><time>2026-05-01T10:59:30Z</time></trkpt><trkpt lat="40.015084186273626" lon="9.543054076081903"><ele>169.0</ele><time>2026-05-01T10:59:31Z</time></trkpt><trkpt lat="40.01515785361929" lon="9.542865088593791"><ele>160.0</ele><time>2026-05-01T10:59:32Z</time></trkpt><trkpt lat="40.01519712546586" lon="9.5426424436642"><ele>160.0</ele><time>2026-05-01T10:59:33Z</time></trkpt><trkpt lat="40.01519130497704" lon="9.542401402771716"><ele>160.0</ele><time>2026-05-01T10:59:34Z</time></trkpt><trkpt lat="40.0151517830191" lon="9.542153794583488"><ele>160.0</ele><time>2026-05-01T10:59:35Z</time></trkpt><trkpt lat="40.01511044879058" lon="9.541928284523692"><ele>159.0</ele><time>2026-05-01T10:59:36Z</time></trkpt><trkpt lat="40.0150627583652" lon="9.541727225148247"><ele>158.0</ele><time>2026-05-01T10:59:37Z</time></trkpt><trkpt lat="40.01500730861358" lon="9.541554343148439"><ele>157.0</ele><time>2026-05-01T10:59:38Z</time></trkpt><trkpt lat="40.01494449543941" lon="9.541409008592044"><ele>156.0</ele><time>2026-05-01T10:59:39Z</time></trkpt><trkpt lat="40.01487515279717" lon="9.541274610531026"><ele>166.25</ele><time>2026-05-01T10:59:40Z</time></trkpt><trkpt lat="40.01480247143283" lon="9.541137808056256"><ele>176.5</ele><time>2026-05-01T10:59:41Z</time></trkpt><trkpt lat="40.01477470978831" lon="9.540968055271463"><ele>186.75</ele><time>2026-05-01T10:59:42Z</time></trkpt><trkpt lat="40.01480273796901" lon="9.540793974265778"><ele>197.0</ele><time>2026-05-01T10:59:43Z</time></trkpt><trkpt lat="40.014858212631275" lon="9.540616577162172"><ele>197.0</ele><time>2026-05-01T10:59:44Z</time></trkpt><trkpt lat="40.01491027366352" lon="9.54042174037075"><ele>197.0</ele><time>2026-05-01T10:59:45Z</time></trkpt><trkpt lat="40.0149823245153" lon="9.54023638812575"><ele>197.0</ele><time>2026-05-01T10:59:46Z</time></trkpt><trkpt lat="40.01509048005227" lon="9.540070008276434"><ele>185.0</ele><time>2026-05-01T10:59:47Z</time></trkpt><trkpt lat="40.01515332163183" lon="9.539864649244771"><ele>173.0</ele><time>2026-05-01T10:59:48Z</time></trkpt><trkpt lat="40.015186977360365" lon="9.539645573553283"><ele>161.0</ele><time>2026-05-01T10:59:49Z</time></trkpt><trkpt lat="40.015191289372645" lon="9.539445064236475"><ele>163.0</ele><time>2026-05-01T10:59:50Z</time></trkpt><trkpt lat="40.01517254719601" lon="9.539291528800756"><ele>165.0</ele><time>2026-05-01T10:59:51Z</time></trkpt><trkpt lat="40.01511668043183" lon="9.539154141250162"><ele>167.0</ele><time>2026-05-01T10:59:52Z</time></trkpt><trkpt lat="40.014988770470076" lon="9.539042719586165"><ele>169.0</ele><time>2026-05-01T10:59:53Z</time></trkpt><trkpt lat="40.01482598392023" lon="9.538949092227675"><ele>169.0</ele><time>2026-05-01T10:59:54Z</time></trkpt><trkpt lat="40.01464421060998" lon="9.538861318197277"><ele>169.0</ele><time>2026-05-01T10:59:55Z</time></trkpt><trkpt lat="40.01444022472975" lon="9.538790334102266"><ele>169.0</ele><time>2026-05-01T10:59:56Z</time></trkpt><trkpt lat="40.01420996839112" lon="9.538741667634882"><ele>161.0</ele><time>2026-05-01T10:59:57Z</time></trkpt><trkpt lat="40.01397118177407" lon="9.538701506415642"><ele>153.0</ele><time>2026-05-01T10:59:58Z</time></trkpt><trkpt lat="40.01373893285098" lon="9.538634439660923"><ele>153.0</ele><time>2026-05-01T10:59:59Z</time></trkpt><trkpt lat="40.01353132175257" lon="9.538592286039215"><ele>153.0</ele><time>2026-05-01T11:00:00Z</time></trkpt><trkpt lat="40.01334861146214" lon="9.538553210951097"><ele>153.0</ele><time>2026-05-01T11:00:01Z</time></trkpt><trkpt lat="40.01321025147538" lon="9.538495438589418"><ele>156.0</ele><time>2026-05-01T11:00:02Z</time></trkpt><trkpt lat="40.01308966277643" lon="9.538393922826009"><ele>159.0</ele><time>2026-05-01T11:00:03Z</time></trkpt><trkpt lat="40.01300101732687" lon="9.538235696314635"><ele>162.0</ele><time>2026-05-01T11:00:04Z</time></trkpt><trkpt lat="40.012916769041986" lon="9.538031208812306"><ele>160.0</ele><time>2026-05-01T11:00:05Z</time></trkpt><trkpt lat="40.01282255888377" lon="9.53784573050739"><ele>158.0</ele><time>2026-05-01T11:00:06Z</time></trkpt><trkpt lat="40.01274311631848" lon="9.537666744463733"><ele>156.0</ele><time>2026-05-01T11:00:07Z</time></trkpt><trkpt lat="40.01261793583013" lon="9.537512255974368"><ele>161.66666666666666</ele><time>2026-05-01T11:00:08Z</time></trkpt><trkpt lat="40.01246456986521" lon="9.537403079426355"><ele>167.33333333333331</ele><time>2026-05-01T11:00:09Z</time></trkpt><trkpt lat="40.01227553785976" lon="9.537351394739641"><ele>173.0</ele><time>2026-05-01T11:00:10Z</time></trkpt><trkpt lat="40.012088936899666" lon="9.537291556939557"><ele>173.0</ele><time>2026-05-01T11:00:11Z</time></trkpt><trkpt lat="40.01193231548963" lon="9.537253312065635"><ele>173.0</ele><time>2026-05-01T11:00:12Z</time></trkpt><trkpt lat="40.011798056896225" lon="9.537193674414523"><ele>173.0</ele><time>2026-05-01T11:00:13Z</time></trkpt><trkpt lat="40.01170271210081" lon="9.53710246977536"><ele>173.0</ele><time>2026-05-01T11:00:14Z</time></trkpt><trkpt lat="40.01163872448112" lon="9.536988949323549"><ele>170.75</ele><time>2026-05-01T11:00:15Z</time></trkpt><trkpt lat="40.01163035238056" lon="9.536842297768082"><ele>168.5</ele><time>2026-05-01T11:00:16Z</time></trkpt><trkpt lat="40.01164045741206" lon="9.536654848417063"><ele>166.25</ele><time>2026-05-01T11:00:17Z</time></trkpt><trkpt lat="40.011668642819025" lon="9.536472283716002"><ele>164.0</ele><time>2026-05-01T11:00:18Z</time></trkpt><trkpt lat="40.0117453149365" lon="9.536343190358586"><ele>162.75</ele><time>2026-05-01T11:00:19Z</time></trkpt><trkpt lat="40.011860897221396" lon="9.536293626243213"><ele>161.5</ele><time>2026-05-01T11:00:20Z</time></trkpt><trkpt lat="40.01199576230685" lon="9.536251708047518"><ele>160.25</ele><time>2026-05-01T11:00:21Z</time></trkpt><trkpt lat="40.01216268559336" lon="9.536182282475057"><ele>159.0</ele><time>2026-05-01T11:00:22Z</time></trkpt><trkpt lat="40.012319147673985" lon="9.536139957819609"><ele>159.25</ele><time>2026-05-01T11:00:23Z</time></trkpt><trkpt lat="40.012448092815376" lon="9.536128728954848"><ele>159.5</ele><time>2026-05-01T11:00:24Z</time></trkpt><trkpt lat="40.01254999939799" lon="9.53621613621277"><ele>159.75</ele><time>2026-05-01T11:00:25Z</time></trkpt><trkpt lat="40.012652363491355" lon="9.536344206817608"><ele>160.0</ele><time>2026-05-01T11:00:26Z</time></trkpt><trkpt lat="40.01279285344262" lon="9.53643558592204"><ele>160.0</ele><time>2026-05-01T11:00:27Z</time></trkpt><trkpt lat="40.012946731139266" lon="9.536490273419156"><ele>160.0</ele><time>2026-05-01T11:00:28Z</time></trkpt><trkpt lat="40.01308939218476" lon="9.536451032850499"><ele>160.0</ele><time>2026-05-01T11:00:29Z</time></trkpt><trkpt lat="40.01319934891869" lon="9.536350147011163"><ele>160.0</ele><time>2026-05-01T11:00:30Z</time></trkpt><trkpt lat="40.01329229989714" lon="9.536172217336842"><ele>165.33333333333334</ele><time>2026-05-01T11:00:31Z</time></trkpt><trkpt lat="40.01339867980712" lon="9.535969247894363"><ele>170.66666666666666</ele><time>2026-05-01T11:00:32Z</time></trkpt><trkpt lat="40.01356193676237" lon="9.535813817276468"><ele>176.0</ele><time>2026-05-01T11:00:33Z</time></trkpt><trkpt lat="40.01371758583322" lon="9.53567138906022"><ele>176.0</ele><time>2026-05-01T11:00:34Z</time></trkpt><trkpt lat="40.01386098734251" lon="9.53556438456281"><ele>176.0</ele><time>2026-05-01T11:00:35Z</time></trkpt><trkpt lat="40.01398380696897" lon="9.535464360833746"><ele>176.0</ele><time>2026-05-01T11:00:36Z</time></trkpt><trkpt lat="40.01409093174855" lon="9.535409460791247"><ele>176.0</ele><time>2026-05-01T11:00:37Z</time></trkpt><trkpt lat="40.014181998694795" lon="9.53539332409836"><ele>176.0</ele><time>2026-05-01T11:00:38Z</time></trkpt><trkpt lat="40.014257977763506" lon="9.535464808049234"><ele>176.0</ele><time>2026-05-01T11:00:39Z</time></trkpt><trkpt lat="40.014293770912985" lon="9.535576775746847"><ele>176.0</ele><time>2026-05-01T11:00:40Z</time></trkpt><trkpt lat="40.01427393718439" lon="9.535719568697845"><ele>176.0</ele><time>2026-05-01T11:00:41Z</time></trkpt><trkpt lat="40.014179667079055" lon="9.535834007351177"><ele>176.0</ele><time>2026-05-01T11:00:42Z</time></trkpt><trkpt lat="40.014126520751454" lon="9.535998445271456"><ele>176.0</ele><time>2026-05-01T11:00:43Z</time></trkpt><trkpt lat="40.01408243451966" lon="9.536151681325148"><ele>176.0</ele><time>2026-05-01T11:00:44Z</time></trkpt><trkpt lat="40.01411437992656" lon="9.536303286193093"><ele>176.0</ele><time>2026-05-01T11:00:45Z</time></trkpt><trkpt lat="40.01418998599259" lon="9.536419924147683"><ele>176.0</ele><time>2026-05-01T11:00:46Z</time></trkpt><trkpt lat="40.014347642940734" lon="9.536486935765176"><ele>173.66666666666666</ele><time>2026-05-01T11:00:47Z</time></trkpt><trkpt lat="40.01450493172975" lon="9.536491939485575"><ele>171.33333333333334</ele><time>2026-05-01T11:00:48Z</time></trkpt><trkpt lat="40.01466710297372" lon="9.536451425333999"><ele>169.0</ele><time>2026-05-01T11:00:49Z</time></trkpt><trkpt lat="40.01482897255266" lon="9.53638160321994"><ele>169.0</ele><time>2026-05-01T11:00:50Z</time></trkpt><trkpt lat="40.014976028754454" lon="9.536338133201838"><ele>169.0</ele><time>2026-05-01T11:00:51Z</time></trkpt><trkpt lat="40.0150999946597" lon="9.536385519415248"><ele>169.0</ele><time>2026-05-01T11:00:52Z</time></trkpt><trkpt lat="40.015236654395025" lon="9.536452010170212"><ele>169.0</ele><time>2026-05-01T11:00:53Z</time></trkpt><trkpt lat="40.01538702864327" lon="9.53654288749212"><ele>171.33333333333334</ele><time>2026-05-01T11:00:54Z</time></trkpt><trkpt lat="40.015546208922586" lon="9.536661688251334"><ele>173.66666666666666</ele><time>2026-05-01T11:00:55Z</time></trkpt><trkpt lat="40.01569198496704" lon="9.536798559762714"><ele>176.0</ele><time>2026-05-01T11:00:56Z</time></trkpt><trkpt lat="40.01580939067835" lon="9.536925328648977"><ele>174.66666666666666</ele><time>2026-05-01T11:00:57Z</time></trkpt><trkpt lat="40.01594558161273" lon="9.537038188981745"><ele>173.33333333333334</ele><time>2026-05-01T11:00:58Z</time></trkpt><trkpt lat="40.01610012605769" lon="9.53713056202294"><ele>172.0</ele><time>2026-05-01T11:00:59Z</time></trkpt><trkpt lat="40.0162645717989" lon="9.537183165769827"><ele>172.0</ele><time>2026-05-01T11:01:00Z</time></trkpt><trkpt lat="40.01641335976424" lon="9.537182517554823"><ele>172.0</ele><time>2026-05-01T11:01:01Z</time></trkpt><trkpt lat="40.01655207542079" lon="9.53711802835643"><ele>172.0</ele><time>2026-05-01T11:01:02Z</time></trkpt><trkpt lat="40.01667175247902" lon="9.53700559533208"><ele>172.0</ele><time>2026-05-01T11:01:03Z</time></trkpt><trkpt lat="40.016781693922404" lon="9.53684298036264"><ele>178.0</ele><time>2026-05-01T11:01:04Z</time></trkpt><trkpt lat="40.01688577642471" lon="9.536658798775845"><ele>184.0</ele><time>2026-05-01T11:01:05Z</time></trkpt><trkpt lat="40.01702103576924" lon="9.536493272444863"><ele>190.0</ele><time>2026-05-01T11:01:06Z</time></trkpt><trkpt lat="40.017177659203966" lon="9.536358606950907"><ele>190.0</ele><time>2026-05-01T11:01:07Z</time></trkpt><trkpt lat="40.01732066999093" lon="9.536261415075986"><ele>190.0</ele><time>2026-05-01T11:01:08Z</time></trkpt><trkpt lat="40.01746060248343" lon="9.536162523577293"><ele>190.0</ele><time>2026-05-01T11:01:09Z</time></trkpt><trkpt lat="40.01760090190345" lon="9.53607082959118"><ele>189.25</ele><time>2026-05-01T11:01:10Z</time></trkpt><trkpt lat="40.017748154820985" lon="9.536001698659199"><ele>188.5</ele><time>2026-05-01T11:01:11Z</time></trkpt><trkpt lat="40.017896628344445" lon="9.535984281186972"><ele>187.75</ele><time>2026-05-01T11:01:12Z</time></trkpt><trkpt lat="40.01803305191048" lon="9.535963213035542"><ele>187.0</ele><time>2026-05-01T11:01:13Z</time></trkpt><trkpt lat="40.018159647540905" lon="9.535925533168491"><ele>187.0</ele><time>2026-05-01T11:01:14Z</time></trkpt><trkpt lat="40.01827066008855" lon="9.53585217247793"><ele>187.0</ele><time>2026-05-01T11:01:15Z</time></trkpt><trkpt lat="40.01835254573234" lon="9.535712083799796"><ele>187.0</ele><time>2026-05-01T11:01:16Z</time></trkpt><trkpt lat="40.01838966030625" lon="9.535548181145597"><ele>187.0</ele><time>2026-05-01T11:01:17Z</time></trkpt><trkpt lat="40.018438201107216" lon="9.535415563804948"><ele>187.0</ele><time>2026-05-01T11:01:18Z</time></trkpt><trkpt lat="40.01852679493599" lon="9.535338571011819"><ele>187.0</ele><time>2026-05-01T11:01:19Z</time></trkpt><trkpt lat="40.01863458615358" lon="9.535336610192775"><ele>187.0</ele><time>2026-05-01T11:01:20Z</time></trkpt><trkpt lat="40.01874988404075" lon="9.535388015483667"><ele>187.0</ele><time>2026-05-01T11:01:21Z</time></trkpt><trkpt lat="40.018873425040766" lon="9.535423627471726"><ele>187.0</ele><time>2026-05-01T11:01:22Z</time></trkpt><trkpt lat="40.01899628593909" lon="9.535408330485486"><ele>187.0</ele><time>2026-05-01T11:01:23Z</time></trkpt><trkpt lat="40.01911661615711" lon="9.535322084507019"><ele>187.0</ele><time>2026-05-01T11:01:24Z</time></trkpt><trkpt lat="40.019218310061866" lon="9.535182107949307"><ele>187.0</ele><time>2026-05-01T11:01:25Z</time></trkpt><trkpt lat="40.019319762133954" lon="9.535004228066574"><ele>187.33333333333334</ele><time>2026-05-01T11:01:26Z</time></trkpt><trkpt lat="40.01943713495576" lon="9.53481049662296"><ele>187.66666666666666</ele><time>2026-05-01T11:01:27Z</time></trkpt><trkpt lat="40.01956208774385" lon="9.534621348676088"><ele>188.0</ele><time>2026-05-01T11:01:28Z</time></trkpt><trkpt lat="40.01968358484779" lon="9.53443902515209"><ele>188.0</ele><time>2026-05-01T11:01:29Z</time></trkpt><trkpt lat="40.019789240658255" lon="9.534243613222669"><ele>188.0</ele><time>2026-05-01T11:01:30Z</time></trkpt><trkpt lat="40.01986891061755" lon="9.534031967832986"><ele>188.0</ele><time>2026-05-01T11:01:31Z</time></trkpt><trkpt lat="40.019930961253486" lon="9.533828277071486"><ele>178.33333333333331</ele><time>2026-05-01T11:01:32Z</time></trkpt><trkpt lat="40.02000851892024" lon="9.533628169023432"><ele>168.66666666666666</ele><time>2026-05-01T11:01:33Z</time></trkpt><trkpt lat="40.02003775212702" lon="9.533390478695281"><ele>159.0</ele><time>2026-05-01T11:01:34Z</time></trkpt><trkpt lat="40.020058071920495" lon="9.533138030085057"><ele>159.0</ele><time>2026-05-01T11:01:35Z</time></trkpt><trkpt lat="40.02006786119709" lon="9.532883778340095"><ele>159.0</ele><time>2026-05-01T11:01:36Z</time></trkpt><trkpt lat="40.02008271282655" lon="9.532634985936882"><ele>159.0</ele><time>2026-05-01T11:01:37Z</time></trkpt><trkpt lat="40.020097523745406" lon="9.532385813956028"><ele>159.0</ele><time>2026-05-01T11:01:38Z</time></trkpt><trkpt lat="40.02011387058687" lon="9.532124820946777"><ele>159.0</ele><time>2026-05-01T11:01:39Z</time></trkpt><trkpt lat="40.02012614989184" lon="9.531858606796051"><ele>159.0</ele><time>2026-05-01T11:01:40Z</time></trkpt><trkpt lat="40.020134538069605" lon="9.531606673935375"><ele>160.33333333333334</ele><time>2026-05-01T11:01:41Z</time></trkpt><trkpt lat="40.02013575203871" lon="9.531372592190037"><ele>161.66666666666669</ele><time>2026-05-01T11:01:42Z</time></trkpt><trkpt lat="40.020155279416436" lon="9.531152973606398"><ele>163.0</ele><time>2026-05-01T11:01:43Z</time></trkpt><trkpt lat="40.0201585938037" lon="9.530951846940694"><ele>163.4</ele><time>2026-05-01T11:01:44Z</time></trkpt><trkpt lat="40.02015233495367" lon="9.530799725510628"><ele>163.8</ele><time>2026-05-01T11:01:45Z</time></trkpt><trkpt lat="40.02019012289085" lon="9.530671977131583"><ele>164.2</ele><time>2026-05-01T11:01:46Z</time></trkpt><trkpt lat="40.02026227325585" lon="9.530591495509428"><ele>164.6</ele><time>2026-05-01T11:01:47Z</time></trkpt><trkpt lat="40.02036169789773" lon="9.530563581908895"><ele>165.0</ele><time>2026-05-01T11:01:48Z</time></trkpt><trkpt lat="40.02048112011586" lon="9.530584733405513"><ele>165.0</ele><time>2026-05-01T11:01:49Z</time></trkpt><trkpt lat="40.02059334095099" lon="9.530571517647832"><ele>165.0</ele><time>2026-05-01T11:01:50Z</time></trkpt><trkpt lat="40.02069095365662" lon="9.53061568776295"><ele>165.0</ele><time>2026-05-01T11:01:51Z</time></trkpt><trkpt lat="40.02075741687538" lon="9.530713505331924"><ele>165.0</ele><time>2026-05-01T11:01:52Z</time></trkpt><trkpt lat="40.02076872322305" lon="9.5308802655556"><ele>165.0</ele><time>2026-05-01T11:01:53Z</time></trkpt><trkpt lat="40.02081018101931" lon="9.53107808603612"><ele>161.0</ele><time>2026-05-01T11:01:54Z</time></trkpt><trkpt lat="40.02086619403034" lon="9.531292605116327"><ele>157.0</ele><time>2026-05-01T11:01:55Z</time></trkpt><trkpt lat="40.02092251905923" lon="9.531538519634344"><ele>153.0</ele><time>2026-05-01T11:01:56Z</time></trkpt><trkpt lat="40.0210044544244" lon="9.531789376577498"><ele>153.0</ele><time>2026-05-01T11:01:57Z</time></trkpt><trkpt lat="40.021088426073526" lon="9.532055966847174"><ele>153.0</ele><time>2026-05-01T11:01:58Z</time></trkpt><trkpt lat="40.02118478127033" lon="9.53230066629674"><ele>153.0</ele><time>2026-05-01T11:01:59Z</time></trkpt><trkpt lat="40.02126423150838" lon="9.53252973997237"><ele>151.66666666666666</ele><time>2026-05-01T11:02:00Z</time></trkpt><trkpt lat="40.02134203745132" lon="9.532751968832084"><ele>150.33333333333331</ele><time>2026-05-01T11:02:01Z</time></trkpt><trkpt lat="40.021397260952995" lon="9.53291762811652"><ele>149.0</ele><time>2026-05-01T11:02:02Z</time></trkpt><trkpt lat="40.02145814948446" lon="9.533083312006946"><ele>148.66666666666666</ele><time>2026-05-01T11:02:03Z</time></trkpt><trkpt lat="40.021501848835186" lon="9.533193335925063"><ele>148.33333333333331</ele><time>2026-05-01T11:02:04Z</time></trkpt><trkpt lat="40.02156272653868" lon="9.53325511058857"><ele>148.0</ele><time>2026-05-01T11:02:05Z</time></trkpt><trkpt lat="40.02164687156645" lon="9.533263075838748"><ele>147.66666666666666</ele><time>2026-05-01T11:02:06Z</time></trkpt><trkpt lat="40.02172662027592" lon="9.533208579549157"><ele>147.33333333333334</ele><time>2026-05-01T11:02:07Z</time></trkpt><trkpt lat="40.021770366795735" lon="9.533104736298716"><ele>147.0</ele><time>2026-05-01T11:02:08Z</time></trkpt><trkpt lat="40.02177686114506" lon="9.532977732676624"><ele>147.5</ele><time>2026-05-01T11:02:09Z</time></trkpt><trkpt lat="40.02173028298759" lon="9.532844405840539"><ele>148.0</ele><time>2026-05-01T11:02:10Z</time></trkpt><trkpt lat="40.021637766934276" lon="9.532734301248436"><ele>148.5</ele><time>2026-05-01T11:02:11Z</time></trkpt><trkpt lat="40.021525920367836" lon="9.532641984629093"><ele>149.0</ele><time>2026-05-01T11:02:12Z</time></trkpt><trkpt lat="40.02142756243168" lon="9.532508714102867"><ele>149.0</ele><time>2026-05-01T11:02:13Z</time></trkpt><trkpt lat="40.02140524449359" lon="9.532310484316538"><ele>149.0</ele><time>2026-05-01T11:02:14Z</time></trkpt><trkpt lat="40.02138053371838" lon="9.532117757955058"><ele>149.0</ele><time>2026-05-01T11:02:15Z</time></trkpt><trkpt lat="40.02137379505273" lon="9.531934598063398"><ele>149.0</ele><time>2026-05-01T11:02:16Z</time></trkpt><trkpt lat="40.02141368906557" lon="9.531791212098986"><ele>150.0</ele><time>2026-05-01T11:02:17Z</time></trkpt><trkpt lat="40.0214884010356" lon="9.531686916301483"><ele>151.0</ele><time>2026-05-01T11:02:18Z</time></trkpt><trkpt lat="40.02157608172211" lon="9.531652651199547"><ele>152.0</ele><time>2026-05-01T11:02:19Z</time></trkpt><trkpt lat="40.02170457303691" lon="9.53159352369483"><ele>153.0</ele><time>2026-05-01T11:02:20Z</time></trkpt><trkpt lat="40.02183611061334" lon="9.531470180438744"><ele>157.33333333333334</ele><time>2026-05-01T11:02:21Z</time></trkpt><trkpt lat="40.0219650529839" lon="9.531331393597121"><ele>161.66666666666669</ele><time>2026-05-01T11:02:22Z</time></trkpt><trkpt lat="40.02208721137744" lon="9.53119068704804"><ele>166.0</ele><time>2026-05-01T11:02:23Z</time></trkpt><trkpt lat="40.02218315219077" lon="9.531071059030701"><ele>167.66666666666669</ele><time>2026-05-01T11:02:24Z</time></trkpt><trkpt lat="40.022240047326314" lon="9.530910484803476"><ele>169.33333333333334</ele><time>2026-05-01T11:02:25Z</time></trkpt><trkpt lat="40.02220989369668" lon="9.530697643857756"><ele>171.0</ele><time>2026-05-01T11:02:26Z</time></trkpt><trkpt lat="40.02218454966402" lon="9.530468386413236"><ele>172.25</ele><time>2026-05-01T11:02:27Z</time></trkpt><trkpt lat="40.02221799988219" lon="9.530284055308565"><ele>173.5</ele><time>2026-05-01T11:02:28Z</time></trkpt><trkpt lat="40.02230384061164" lon="9.530136092895221"><ele>174.75</ele><time>2026-05-01T11:02:29Z</time></trkpt><trkpt lat="40.02238275651994" lon="9.52997445585235"><ele>176.0</ele><time>2026-05-01T11:02:30Z</time></trkpt><trkpt lat="40.02243641410623" lon="9.529875435044561"><ele>177.60000000000002</ele><time>2026-05-01T11:02:31Z</time></trkpt><trkpt lat="40.02251418737873" lon="9.529860365460447"><ele>179.2</ele><time>2026-05-01T11:02:32Z</time></trkpt><trkpt lat="40.022601679456876" lon="9.529927483343824"><ele>180.8</ele><time>2026-05-01T11:02:33Z</time></trkpt><trkpt lat="40.022646241986315" lon="9.530042404866895"><ele>182.39999999999998</ele><time>2026-05-01T11:02:34Z</time></trkpt><trkpt lat="40.02260202017487" lon="9.53018775056435"><ele>184.0</ele><time>2026-05-01T11:02:35Z</time></trkpt><trkpt lat="40.02260701849509" lon="9.53034480716551"><ele>181.75</ele><time>2026-05-01T11:02:36Z</time></trkpt><trkpt lat="40.022641678545014" lon="9.530507781204387"><ele>179.5</ele><time>2026-05-01T11:02:37Z</time></trkpt><trkpt lat="40.0227457136252" lon="9.530635525356812"><ele>177.25</ele><time>2026-05-01T11:02:38Z</time></trkpt><trkpt lat="40.02289224096899" lon="9.530755498667258"><ele>175.0</ele><time>2026-05-01T11:02:39Z</time></trkpt><trkpt lat="40.02299603242578" lon="9.530842553817537"><ele>175.0</ele><time>2026-05-01T11:02:40Z</time></trkpt><trkpt lat="40.02308373248227" lon="9.530881336941585"><ele>175.0</ele><time>2026-05-01T11:02:41Z</time></trkpt><trkpt lat="40.02317993586528" lon="9.530837582494875"><ele>175.0</ele><time>2026-05-01T11:02:42Z</time></trkpt><trkpt lat="40.02326727712065" lon="9.530693296227032"><ele>175.0</ele><time>2026-05-01T11:02:43Z</time></trkpt><trkpt lat="40.02334523868652" lon="9.530504003026943"><ele>182.33333333333334</ele><time>2026-05-01T11:02:44Z</time></trkpt><trkpt lat="40.02343540869853" lon="9.530299250611801"><ele>189.66666666666669</ele><time>2026-05-01T11:02:45Z</time></trkpt><trkpt lat="40.02352499596423" lon="9.530107031521261"><ele>197.0</ele><time>2026-05-01T11:02:46Z</time></trkpt><trkpt lat="40.02361512138958" lon="9.529945057503593"><ele>197.0</ele><time>2026-05-01T11:02:47Z</time></trkpt><trkpt lat="40.02372442418751" lon="9.529864845391147"><ele>197.0</ele><time>2026-05-01T11:02:48Z</time></trkpt><trkpt lat="40.023838016970366" lon="9.529879189988657"><ele>197.0</ele><time>2026-05-01T11:02:49Z</time></trkpt><trkpt lat="40.02397444464514" lon="9.529926329980897"><ele>197.0</ele><time>2026-05-01T11:02:50Z</time></trkpt><trkpt lat="40.02414238013687" lon="9.529923154628658"><ele>197.66666666666669</ele><time>2026-05-01T11:02:51Z</time></trkpt><trkpt lat="40.02433012617915" lon="9.529885707255826"><ele>198.33333333333331</ele><time>2026-05-01T11:02:52Z</time></trkpt><trkpt lat="40.024514746177026" lon="9.529812581759899"><ele>199.0</ele><time>2026-05-01T11:02:53Z</time></trkpt><trkpt lat="40.02467037313696" lon="9.529749632873195"><ele>199.0</ele><time>2026-05-01T11:02:54Z</time></trkpt><trkpt lat="40.02479559637589" lon="9.529702537470449"><ele>199.0</ele><time>2026-05-01T11:02:55Z</time></trkpt><trkpt lat="40.024898637152134" lon="9.529634560632505"><ele>199.0</ele><time>2026-05-01T11:02:56Z</time></trkpt><trkpt lat="40.0249435363897" lon="9.529517855742661"><ele>199.0</ele><time>2026-05-01T11:02:57Z</time></trkpt><trkpt lat="40.02492384174653" lon="9.529393870848967"><ele>199.0</ele><time>2026-05-01T11:02:58Z</time></trkpt><trkpt lat="40.02484523007351" lon="9.529291398822346"><ele>206.0</ele><time>2026-05-01T11:02:59Z</time></trkpt><trkpt lat="40.02473708019497" lon="9.529255408193887"><ele>213.0</ele><time>2026-05-01T11:03:00Z</time></trkpt><trkpt lat="40.02461069986639" lon="9.52931545471593"><ele>220.0</ele><time>2026-05-01T11:03:01Z</time></trkpt><trkpt lat="40.02448090936226" lon="9.529429677037188"><ele>227.0</ele><time>2026-05-01T11:03:02Z</time></trkpt><trkpt lat="40.024352888138495" lon="9.529521441364695"><ele>227.0</ele><time>2026-05-01T11:03:03Z</time></trkpt><trkpt lat="40.024217651714395" lon="9.529527175043677"><ele>227.0</ele><time>2026-05-01T11:03:04Z</time></trkpt><trkpt lat="40.02408109280564" lon="9.52947300402925"><ele>227.0</ele><time>2026-05-01T11:03:05Z</time></trkpt><trkpt lat="40.023956594251544" lon="9.529355665991389"><ele>227.0</ele><time>2026-05-01T11:03:06Z</time></trkpt><trkpt lat="40.02381422635599" lon="9.529258357340176"><ele>224.5</ele><time>2026-05-01T11:03:07Z</time></trkpt><trkpt lat="40.02366890105384" lon="9.529210910914951"><ele>222.0</ele><time>2026-05-01T11:03:08Z</time></trkpt><trkpt lat="40.02351391197429" lon="9.529216789609471"><ele>219.5</ele><time>2026-05-01T11:03:09Z</time></trkpt><trkpt lat="40.02338389873861" lon="9.529166934511679"><ele>217.0</ele><time>2026-05-01T11:03:10Z</time></trkpt><trkpt lat="40.023312728839855" lon="9.529049080310712"><ele>217.0</ele><time>2026-05-01T11:03:11Z</time></trkpt><trkpt lat="40.023327503648" lon="9.528898636837324"><ele>217.0</ele><time>2026-05-01T11:03:12Z</time></trkpt><trkpt lat="40.02339818181545" lon="9.528770469021037"><ele>217.0</ele><time>2026-05-01T11:03:13Z</time></trkpt><trkpt lat="40.023468604417836" lon="9.528575981801362"><ele>217.0</ele><time>2026-05-01T11:03:14Z</time></trkpt><trkpt lat="40.02355822531915" lon="9.528431716574921"><ele>219.75</ele><time>2026-05-01T11:03:15Z</time></trkpt><trkpt lat="40.02358432530968" lon="9.528311988825825"><ele>222.5</ele><time>2026-05-01T11:03:16Z</time></trkpt><trkpt lat="40.023545091139155" lon="9.528182725113407"><ele>225.25</ele><time>2026-05-01T11:03:17Z</time></trkpt><trkpt lat="40.023445172271614" lon="9.52807947358381"><ele>228.0</ele><time>2026-05-01T11:03:18Z</time></trkpt><trkpt lat="40.02329517407516" lon="9.528060634372295"><ele>228.0</ele><time>2026-05-01T11:03:19Z</time></trkpt><trkpt lat="40.023136527254735" lon="9.52801733170209"><ele>228.0</ele><time>2026-05-01T11:03:20Z</time></trkpt><trkpt lat="40.02297738563444" lon="9.527995924687152"><ele>228.0</ele><time>2026-05-01T11:03:21Z</time></trkpt><trkpt lat="40.02281318436709" lon="9.527995965929792"><ele>228.0</ele><time>2026-05-01T11:03:22Z</time></trkpt><trkpt lat="40.02264858413948" lon="9.528035300717672"><ele>228.0</ele><time>2026-05-01T11:03:23Z</time></trkpt><trkpt lat="40.02251496224143" lon="9.528078197457031"><ele>228.0</ele><time>2026-05-01T11:03:24Z</time></trkpt><trkpt lat="40.02240294841271" lon="9.528075794170057"><ele>228.0</ele><time>2026-05-01T11:03:25Z</time></trkpt><trkpt lat="40.02231598923701" lon="9.528008404768519"><ele>230.75</ele><time>2026-05-01T11:03:26Z</time></trkpt><trkpt lat="40.022271740223104" lon="9.527875233462701"><ele>233.5</ele><time>2026-05-01T11:03:27Z</time></trkpt><trkpt lat="40.02229910938874" lon="9.527729066184913"><ele>236.25</ele><time>2026-05-01T11:03:28Z</time></trkpt><trkpt lat="40.02241005977915" lon="9.527635436037265"><ele>239.0</ele><time>2026-05-01T11:03:29Z</time></trkpt><trkpt lat="40.02250232373693" lon="9.527483647775265"><ele>239.0</ele><time>2026-05-01T11:03:30Z</time></trkpt><trkpt lat="40.02261273897429" lon="9.527323103964159"><ele>239.0</ele><time>2026-05-01T11:03:31Z</time></trkpt><trkpt lat="40.022742337765116" lon="9.527149283698362"><ele>239.0</ele><time>2026-05-01T11:03:32Z</time></trkpt><trkpt lat="40.02286732658041" lon="9.52699865711954"><ele>237.25</ele><time>2026-05-01T11:03:33Z</time></trkpt><trkpt lat="40.02299323189223" lon="9.526861154244706"><ele>235.5</ele><time>2026-05-01T11:03:34Z</time></trkpt><trkpt lat="40.02310916141635" lon="9.526761551806517"><ele>233.75</ele><time>2026-05-01T11:03:35Z</time></trkpt><trkpt lat="40.02321235873516" lon="9.52667178447568"><ele>232.0</ele><time>2026-05-01T11:03:36Z</time></trkpt><trkpt lat="40.023295464238196" lon="9.526537045057685"><ele>232.0</ele><time>2026-05-01T11:03:37Z</time></trkpt><trkpt lat="40.023293834856425" lon="9.526353958326062"><ele>232.0</ele><time>2026-05-01T11:03:38Z</time></trkpt><trkpt lat="40.023286484579565" lon="9.52612978844059"><ele>232.0</ele><time>2026-05-01T11:03:39Z</time></trkpt><trkpt lat="40.02326757597131" lon="9.525895674314476"><ele>234.0</ele><time>2026-05-01T11:03:40Z</time></trkpt><trkpt lat="40.02325598641662" lon="9.5256652686189"><ele>236.0</ele><time>2026-05-01T11:03:41Z</time></trkpt><trkpt lat="40.023221679943404" lon="9.525456569984023"><ele>238.0</ele><time>2026-05-01T11:03:42Z</time></trkpt><trkpt lat="40.02324338137813" lon="9.525275876382075"><ele>241.25</ele><time>2026-05-01T11:03:43Z</time></trkpt><trkpt lat="40.02325312881167" lon="9.525096378794796"><ele>244.5</ele><time>2026-05-01T11:03:44Z</time></trkpt><trkpt lat="40.02325480761975" lon="9.524949200371642"><ele>247.75</ele><time>2026-05-01T11:03:45Z</time></trkpt><trkpt lat="40.023169347136204" lon="9.524818103740694"><ele>251.0</ele><time>2026-05-01T11:03:46Z</time></trkpt><trkpt lat="40.02308922615049" lon="9.524694905837997"><ele>251.0</ele><time>2026-05-01T11:03:47Z</time></trkpt><trkpt lat="40.0230872055649" lon="9.524570992357999"><ele>251.0</ele><time>2026-05-01T11:03:48Z</time></trkpt><trkpt lat="40.02317172334969" lon="9.524467130546753"><ele>251.0</ele><time>2026-05-01T11:03:49Z</time></trkpt><trkpt lat="40.02329196794183" lon="9.524370236399927"><ele>251.0</ele><time>2026-05-01T11:03:50Z</time></trkpt><trkpt lat="40.02343007759436" lon="9.524265824604488"><ele>256.6666666666667</ele><time>2026-05-01T11:03:51Z</time></trkpt><trkpt lat="40.02359210923281" lon="9.524198346309076"><ele>262.3333333333333</ele><time>2026-05-01T11:03:52Z</time></trkpt><trkpt lat="40.02374373553511" lon="9.524121456339309"><ele>268.0</ele><time>2026-05-01T11:03:53Z</time></trkpt><trkpt lat="40.02389005536782" lon="9.524037501301645"><ele>268.0</ele><time>2026-05-01T11:03:54Z</time></trkpt><trkpt lat="40.024022491096765" lon="9.523893706774611"><ele>268.0</ele><time>2026-05-01T11:03:55Z</time></trkpt><trkpt lat="40.02413197660838" lon="9.523704973553066"><ele>268.0</ele><time>2026-05-01T11:03:56Z</time></trkpt><trkpt lat="40.024229454252776" lon="9.523520695568903"><ele>274.75</ele><time>2026-05-01T11:03:57Z</time></trkpt><trkpt lat="40.02429467305802" lon="9.52333615963638"><ele>281.5</ele><time>2026-05-01T11:03:58Z</time></trkpt><trkpt lat="40.02432372026446" lon="9.523174536506678"><ele>288.25</ele><time>2026-05-01T11:03:59Z</time></trkpt><trkpt lat="40.02432938285027" lon="9.52303242931915"><ele>295.0</ele><time>2026-05-01T11:04:00Z</time></trkpt><trkpt lat="40.024287646779555" lon="9.522897941498085"><ele>296.75</ele><time>2026-05-01T11:04:01Z</time></trkpt><trkpt lat="40.024179864397304" lon="9.522799520044714"><ele>298.5</ele><time>2026-05-01T11:04:02Z</time></trkpt><trkpt lat="40.02403925586546" lon="9.522781506068666"><ele>300.25</ele><time>2026-05-01T11:04:03Z</time></trkpt><trkpt lat="40.023922155559205" lon="9.522752105971279"><ele>302.0</ele><time>2026-05-01T11:04:04Z</time></trkpt><trkpt lat="40.02384634732364" lon="9.522669910529226"><ele>291.5</ele><time>2026-05-01T11:04:05Z</time></trkpt><trkpt lat="40.023841035936165" lon="9.522531845883323"><ele>281.0</ele><time>2026-05-01T11:04:06Z</time></trkpt><trkpt lat="40.02389089791249" lon="9.52239576977755"><ele>270.5</ele><time>2026-05-01T11:04:07Z</time></trkpt><trkpt lat="40.024013963166674" lon="9.522289670008352"><ele>260.0</ele><time>2026-05-01T11:04:08Z</time></trkpt><trkpt lat="40.02412245691216" lon="9.522123794788586"><ele>270.0</ele><time>2026-05-01T11:04:09Z</time></trkpt><trkpt lat="40.024234454709145" lon="9.521956198832354"><ele>280.0</ele><time>2026-05-01T11:04:10Z</time></trkpt><trkpt lat="40.02434377747095" lon="9.521802473227847"><ele>290.0</ele><time>2026-05-01T11:04:11Z</time></trkpt><trkpt lat="40.02445824718485" lon="9.521703917409171"><ele>290.0</ele><time>2026-05-01T11:04:12Z</time></trkpt><trkpt lat="40.02457796180951" lon="9.521604422250432"><ele>290.0</ele><time>2026-05-01T11:04:13Z</time></trkpt><trkpt lat="40.02466725740211" lon="9.521461759310858"><ele>290.0</ele><time>2026-05-01T11:04:14Z</time></trkpt><trkpt lat="40.02469548717488" lon="9.521293871199555"><ele>290.0</ele><time>2026-05-01T11:04:15Z</time></trkpt><trkpt lat="40.02469325035281" lon="9.521136695750904"><ele>294.25</ele><time>2026-05-01T11:04:16Z</time></trkpt><trkpt lat="40.02471075309867" lon="9.521019547899076"><ele>298.5</ele><time>2026-05-01T11:04:17Z</time></trkpt><trkpt lat="40.02481063247416" lon="9.520954408738373"><ele>302.75</ele><time>2026-05-01T11:04:18Z</time></trkpt><trkpt lat="40.02494805679203" lon="9.52097105215483"><ele>307.0</ele><time>2026-05-01T11:04:19Z</time></trkpt><trkpt lat="40.02507869024466" lon="9.521029621127347"><ele>307.0</ele><time>2026-05-01T11:04:20Z</time></trkpt><trkpt lat="40.02522821411754" lon="9.52110223591537"><ele>307.0</ele><time>2026-05-01T11:04:21Z</time></trkpt><trkpt lat="40.025353372775406" lon="9.521188856020794"><ele>307.0</ele><time>2026-05-01T11:04:22Z</time></trkpt><trkpt lat="40.02548516951062" lon="9.521226354743666"><ele>307.0</ele><time>2026-05-01T11:04:23Z</time></trkpt><trkpt lat="40.02562510823148" lon="9.52116299795386"><ele>307.0</ele><time>2026-05-01T11:04:24Z</time></trkpt><trkpt lat="40.02577051336214" lon="9.521056013287083"><ele>307.0</ele><time>2026-05-01T11:04:25Z</time></trkpt><trkpt lat="40.02592782096712" lon="9.520955990440326"><ele>307.0</ele><time>2026-05-01T11:04:26Z</time></trkpt><trkpt lat="40.02609252885272" lon="9.520864697851795"><ele>314.0</ele><time>2026-05-01T11:04:27Z</time></trkpt><trkpt lat="40.026239962860885" lon="9.520728688463791"><ele>321.0</ele><time>2026-05-01T11:04:28Z</time></trkpt><trkpt lat="40.02636153270374" lon="9.520549366802438"><ele>328.0</ele><time>2026-05-01T11:04:29Z</time></trkpt><trkpt lat="40.02649462313036" lon="9.520381229746771"><ele>330.75</ele><time>2026-05-01T11:04:30Z</time></trkpt><trkpt lat="40.02661568075376" lon="9.520223561165077"><ele>333.5</ele><time>2026-05-01T11:04:31Z</time></trkpt><trkpt lat="40.026709760120596" lon="9.520088145080129"><ele>336.25</ele><time>2026-05-01T11:04:32Z</time></trkpt><trkpt lat="40.02679406899665" lon="9.519978852948134"><ele>339.0</ele><time>2026-05-01T11:04:33Z</time></trkpt><trkpt lat="40.02684438506298" lon="9.519879797910232"><ele>339.0</ele><time>2026-05-01T11:04:34Z</time></trkpt><trkpt lat="40.026857288691524" lon="9.519762827257225"><ele>339.0</ele><time>2026-05-01T11:04:35Z</time></trkpt><trkpt lat="40.0267556093607" lon="9.519651462663525"><ele>339.0</ele><time>2026-05-01T11:04:36Z</time></trkpt><trkpt lat="40.026651431623364" lon="9.519614574716996"><ele>339.0</ele><time>2026-05-01T11:04:37Z</time></trkpt><trkpt lat="40.026544685531924" lon="9.519653374606884"><ele>339.0</ele><time>2026-05-01T11:04:38Z</time></trkpt><trkpt lat="40.02644634530644" lon="9.51979996068297"><ele>340.3333333333333</ele><time>2026-05-01T11:04:39Z</time></trkpt><trkpt lat="40.02632918142256" lon="9.519936069638826"><ele>341.66666666666663</ele><time>2026-05-01T11:04:40Z</time></trkpt><trkpt lat="40.026155675227365" lon="9.52000717694445"><ele>343.0</ele><time>2026-05-01T11:04:41Z</time></trkpt><trkpt lat="40.02600929884511" lon="9.520083525917919"><ele>343.0</ele><time>2026-05-01T11:04:42Z</time></trkpt><trkpt lat="40.02587729704864" lon="9.52017104912334"><ele>343.0</ele><time>2026-05-01T11:04:43Z</time></trkpt><trkpt lat="40.02574493315203" lon="9.520191869958504"><ele>343.0</ele><time>2026-05-01T11:04:44Z</time></trkpt><trkpt lat="40.025637807898846" lon="9.520209124716192"><ele>343.0</ele><time>2026-05-01T11:04:45Z</time></trkpt><trkpt lat="40.02554092940541" lon="9.520201235674701"><ele>334.5</ele><time>2026-05-01T11:04:46Z</time></trkpt><trkpt lat="40.02546072538428" lon="9.52010382497819"><ele>326.0</ele><time>2026-05-01T11:04:47Z</time></trkpt><trkpt lat="40.02541802916694" lon="9.519953033566518"><ele>317.5</ele><time>2026-05-01T11:04:48Z</time></trkpt><trkpt lat="40.02538514842818" lon="9.519787958090783"><ele>309.0</ele><time>2026-05-01T11:04:49Z</time></trkpt><trkpt lat="40.02538312117534" lon="9.519606984109252"><ele>310.0</ele><time>2026-05-01T11:04:50Z</time></trkpt><trkpt lat="40.02545890396697" lon="9.519457483390552"><ele>311.0</ele><time>2026-05-01T11:04:51Z</time></trkpt><trkpt lat="40.02555717871695" lon="9.519295660717829"><ele>312.0</ele><time>2026-05-01T11:04:52Z</time></trkpt><trkpt lat="40.02568615147037" lon="9.519131739281567"><ele>320.0</ele><time>2026-05-01T11:04:53Z</time></trkpt><trkpt lat="40.02584462901106" lon="9.518951311127486"><ele>328.0</ele><time>2026-05-01T11:04:54Z</time></trkpt><trkpt lat="40.026025940433094" lon="9.518780380297626"><ele>336.0</ele><time>2026-05-01T11:04:55Z</time></trkpt><trkpt lat="40.02618910558555" lon="9.518621456152307"><ele>336.0</ele><time>2026-05-01T11:04:56Z</time></trkpt><trkpt lat="40.02635064081468" lon="9.518470360103299"><ele>336.0</ele><time>2026-05-01T11:04:57Z</time></trkpt><trkpt lat="40.02647949550959" lon="9.518253626445421"><ele>336.0</ele><time>2026-05-01T11:04:58Z</time></trkpt><trkpt lat="40.02657171274451" lon="9.518010431322839"><ele>351.5</ele><time>2026-05-01T11:04:59Z</time></trkpt><trkpt lat="40.02665849052621" lon="9.517733984395665"><ele>367.0</ele><time>2026-05-01T11:05:00Z</time></trkpt><trkpt lat="40.02673840574987" lon="9.517452294487267"><ele>367.0</ele><time>2026-05-01T11:05:01Z</time></trkpt><trkpt lat="40.02681181778762" lon="9.517165020794685"><ele>367.0</ele><time>2026-05-01T11:05:02Z</time></trkpt><trkpt lat="40.02688615747148" lon="9.516867891455135"><ele>364.66666666666663</ele><time>2026-05-01T11:05:03Z</time></trkpt><trkpt lat="40.02695166246288" lon="9.516581108648515"><ele>362.3333333333333</ele><time>2026-05-01T11:05:04Z</time></trkpt><trkpt lat="40.02700124395747" lon="9.51633029971573"><ele>360.0</ele><time>2026-05-01T11:05:05Z</time></trkpt><trkpt lat="40.027064043993924" lon="9.516109078658745"><ele>357.3333333333333</ele><time>2026-05-01T11:05:06Z</time></trkpt><trkpt lat="40.027165176140485" lon="9.515898230389961"><ele>354.66666666666663</ele><time>2026-05-01T11:05:07Z</time></trkpt><trkpt lat="40.027285939522955" lon="9.515663285542804"><ele>352.0</ele><time>2026-05-01T11:05:08Z</time></trkpt><trkpt lat="40.02740545489628" lon="9.515419974326877"><ele>363.0</ele><time>2026-05-01T11:05:09Z</time></trkpt><trkpt lat="40.027529247369245" lon="9.51521809096926"><ele>374.0</ele><time>2026-05-01T11:05:10Z</time></trkpt><trkpt lat="40.02766075844979" lon="9.515031313177495"><ele>385.0</ele><time>2026-05-01T11:05:11Z</time></trkpt><trkpt lat="40.02775585535079" lon="9.514860809853625"><ele>385.0</ele><time>2026-05-01T11:05:12Z</time></trkpt><trkpt lat="40.027823955109604" lon="9.514736053285423"><ele>385.0</ele><time>2026-05-01T11:05:13Z</time></trkpt><trkpt lat="40.02783093481713" lon="9.514622694435367"><ele>385.0</ele><time>2026-05-01T11:05:14Z</time></trkpt><trkpt lat="40.027775358605226" lon="9.514515876296135"><ele>385.0</ele><time>2026-05-01T11:05:15Z</time></trkpt><trkpt lat="40.02764734118189" lon="9.514479957913617"><ele>385.0</ele><time>2026-05-01T11:05:16Z</time></trkpt><trkpt lat="40.02750922479918" lon="9.514383933667405"><ele>387.0</ele><time>2026-05-01T11:05:17Z</time></trkpt><trkpt lat="40.027363395723995" lon="9.514282547206241"><ele>389.0</ele><time>2026-05-01T11:05:18Z</time></trkpt><trkpt lat="40.02720979376719" lon="9.514175756703734"><ele>391.0</ele><time>2026-05-01T11:05:19Z</time></trkpt><trkpt lat="40.027065182586284" lon="9.513977827560351"><ele>391.0</ele><time>2026-05-01T11:05:20Z</time></trkpt><trkpt lat="40.02685662166633" lon="9.513905840320442"><ele>391.0</ele><time>2026-05-01T11:05:21Z</time></trkpt><trkpt lat="40.02663707121254" lon="9.513829353333707"><ele>391.0</ele><time>2026-05-01T11:05:22Z</time></trkpt><trkpt lat="40.026434332100635" lon="9.513746506195037"><ele>390.5</ele><time>2026-05-01T11:05:23Z</time></trkpt><trkpt lat="40.02625867199906" lon="9.513677529515698"><ele>390.0</ele><time>2026-05-01T11:05:24Z</time></trkpt><trkpt lat="40.026131977724006" lon="9.513601256138438"><ele>389.5</ele><time>2026-05-01T11:05:25Z</time></trkpt><trkpt lat="40.02605309479254" lon="9.513473540791008"><ele>389.0</ele><time>2026-05-01T11:05:26Z</time></trkpt><trkpt lat="40.026024360518996" lon="9.513307228401143"><ele>389.0</ele><time>2026-05-01T11:05:27Z</time></trkpt><trkpt lat="40.026040160297995" lon="9.513097880937716"><ele>389.0</ele><time>2026-05-01T11:05:28Z</time></trkpt><trkpt lat="40.02609393764445" lon="9.512856166858946"><ele>389.0</ele><time>2026-05-01T11:05:29Z</time></trkpt><trkpt lat="40.02620070659734" lon="9.51258922184709"><ele>387.3333333333333</ele><time>2026-05-01T11:05:30Z</time></trkpt><trkpt lat="40.026321057130616" lon="9.512322884622877"><ele>385.66666666666663</ele><time>2026-05-01T11:05:31Z</time></trkpt><trkpt lat="40.0264201515626" lon="9.512107204809936"><ele>384.0</ele><time>2026-05-01T11:05:32Z</time></trkpt><trkpt lat="40.026532946104986" lon="9.511961056278292"><ele>388.66666666666663</ele><time>2026-05-01T11:05:33Z</time></trkpt><trkpt lat="40.026674277210574" lon="9.511903340621876"><ele>393.3333333333333</ele><time>2026-05-01T11:05:34Z</time></trkpt><trkpt lat="40.02686434810815" lon="9.51189384490332"><ele>398.0</ele><time>2026-05-01T11:05:35Z</time></trkpt><trkpt lat="40.027128523700206" lon="9.511928524665311"><ele>398.0</ele><time>2026-05-01T11:05:36Z</time></trkpt><trkpt lat="40.027369337638746" lon="9.51188025287095"><ele>398.0</ele><time>2026-05-01T11:05:37Z</time></trkpt><trkpt lat="40.02761492730277" lon="9.511815998563243"><ele>409.0</ele><time>2026-05-01T11:05:38Z</time></trkpt><trkpt lat="40.027850519165305" lon="9.511712966148416"><ele>420.0</ele><time>2026-05-01T11:05:39Z</time></trkpt><trkpt lat="40.02805778856112" lon="9.511614186960577"><ele>420.0</ele><time>2026-05-01T11:05:40Z</time></trkpt><trkpt lat="40.02823499063154" lon="9.51154233153792"><ele>420.0</ele><time>2026-05-01T11:05:41Z</time></trkpt><trkpt lat="40.02840795253808" lon="9.511533237025938"><ele>420.0</ele><time>2026-05-01T11:05:42Z</time></trkpt><trkpt lat="40.02857319833024" lon="9.51160830575138"><ele>426.33333333333337</ele><time>2026-05-01T11:05:43Z</time></trkpt><trkpt lat="40.02872592184576" lon="9.51175240915201"><ele>432.6666666666667</ele><time>2026-05-01T11:05:44Z</time></trkpt><trkpt lat="40.02886294911952" lon="9.511931331390652"><ele>439.0</ele><time>2026-05-01T11:05:45Z</time></trkpt><trkpt lat="40.02897997501844" lon="9.512108715290221"><ele>450.33333333333337</ele><time>2026-05-01T11:05:46Z</time></trkpt><trkpt lat="40.0290861319156" lon="9.512230692097145"><ele>461.66666666666663</ele><time>2026-05-01T11:05:47Z</time></trkpt><trkpt lat="40.02922751080481" lon="9.512219058210873"><ele>473.0</ele><time>2026-05-01T11:05:48Z</time></trkpt><trkpt lat="40.029409856596935" lon="9.512208125730703"><ele>473.0</ele><time>2026-05-01T11:05:49Z</time></trkpt><trkpt lat="40.029621178309775" lon="9.512175765568982"><ele>473.0</ele><time>2026-05-01T11:05:50Z</time></trkpt><trkpt lat="40.0298491433345" lon="9.512148335220505"><ele>473.0</ele><time>2026-05-01T11:05:51Z</time></trkpt><trkpt lat="40.03008301860314" lon="9.512090632852551"><ele>457.0</ele><time>2026-05-01T11:05:52Z</time></trkpt><trkpt lat="40.03032046006523" lon="9.511999794784474"><ele>441.0</ele><time>2026-05-01T11:05:53Z</time></trkpt><trkpt lat="40.03056642767775" lon="9.511902255940212"><ele>441.0</ele><time>2026-05-01T11:05:54Z</time></trkpt><trkpt lat="40.030800353672944" lon="9.511820992827102"><ele>441.0</ele><time>2026-05-01T11:05:55Z</time></trkpt><trkpt lat="40.031000394156344" lon="9.511752717147676"><ele>441.0</ele><time>2026-05-01T11:05:56Z</time></trkpt><trkpt lat="40.031170458903645" lon="9.511652260804249"><ele>448.33333333333337</ele><time>2026-05-01T11:05:57Z</time></trkpt><trkpt lat="40.03131879399555" lon="9.511488016810492"><ele>455.6666666666667</ele><time>2026-05-01T11:05:58Z</time></trkpt><trkpt lat="40.03147447720377" lon="9.511276819416135"><ele>463.0</ele><time>2026-05-01T11:05:59Z</time></trkpt><trkpt lat="40.031657094683695" lon="9.511074957490187"><ele>464.0</ele><time>2026-05-01T11:06:00Z</time></trkpt><trkpt lat="40.03182730325431" lon="9.5108586486402"><ele>465.0</ele><time>2026-05-01T11:06:01Z</time></trkpt><trkpt lat="40.03201087421996" lon="9.510679783917015"><ele>465.0</ele><time>2026-05-01T11:06:02Z</time></trkpt><trkpt lat="40.032197830695075" lon="9.510566631543938"><ele>465.0</ele><time>2026-05-01T11:06:03Z</time></trkpt><trkpt lat="40.03234649778757" lon="9.510432555591088"><ele>465.0</ele><time>2026-05-01T11:06:04Z</time></trkpt><trkpt lat="40.03246113087391" lon="9.510288869523555"><ele>464.66666666666663</ele><time>2026-05-01T11:06:05Z</time></trkpt><trkpt lat="40.03254694523313" lon="9.510066030400957"><ele>464.3333333333333</ele><time>2026-05-01T11:06:06Z</time></trkpt><trkpt lat="40.03261818478807" lon="9.509786770098707"><ele>464.0</ele><time>2026-05-01T11:06:07Z</time></trkpt><trkpt lat="40.03266556337026" lon="9.509466594386334"><ele>464.0</ele><time>2026-05-01T11:06:08Z</time></trkpt><trkpt lat="40.03269700501846" lon="9.509150657368775"><ele>464.0</ele><time>2026-05-01T11:06:09Z</time></trkpt><trkpt lat="40.03272092490837" lon="9.508863665064846"><ele>463.3333333333333</ele><time>2026-05-01T11:06:10Z</time></trkpt><trkpt lat="40.032734046299716" lon="9.508599439586389"><ele>462.66666666666663</ele><time>2026-05-01T11:06:11Z</time></trkpt><trkpt lat="40.0327321457399" lon="9.508364804781873"><ele>462.0</ele><time>2026-05-01T11:06:12Z</time></trkpt><trkpt lat="40.03274458321888" lon="9.508185980392994"><ele>462.0</ele><time>2026-05-01T11:06:13Z</time></trkpt><trkpt lat="40.032794378385255" lon="9.508070165686371"><ele>462.0</ele><time>2026-05-01T11:06:14Z</time></trkpt><trkpt lat="40.03289482160405" lon="9.508017429359105"><ele>462.0</ele><time>2026-05-01T11:06:15Z</time></trkpt><trkpt lat="40.03302844848091" lon="9.508025440658127"><ele>462.0</ele><time>2026-05-01T11:06:16Z</time></trkpt><trkpt lat="40.03320424103465" lon="9.508077900416932"><ele>472.66666666666663</ele><time>2026-05-01T11:06:17Z</time></trkpt><trkpt lat="40.033412207986075" lon="9.508130488399285"><ele>483.3333333333333</ele><time>2026-05-01T11:06:18Z</time></trkpt><trkpt lat="40.033612263545436" lon="9.508150038088553"><ele>494.0</ele><time>2026-05-01T11:06:19Z</time></trkpt><trkpt lat="40.03379945042242" lon="9.508088610879488"><ele>494.0</ele><time>2026-05-01T11:06:20Z</time></trkpt><trkpt lat="40.033983660515126" lon="9.507964407428233"><ele>494.0</ele><time>2026-05-01T11:06:21Z</time></trkpt><trkpt lat="40.03413947972989" lon="9.507817882439202"><ele>494.0</ele><time>2026-05-01T11:06:22Z</time></trkpt><trkpt lat="40.03425801310827" lon="9.507687084993957"><ele>493.0</ele><time>2026-05-01T11:06:23Z</time></trkpt><trkpt lat="40.03433653613257" lon="9.507531140154853"><ele>492.0</ele><time>2026-05-01T11:06:24Z</time></trkpt><trkpt lat="40.034381792258" lon="9.507351919654377"><ele>491.0</ele><time>2026-05-01T11:06:25Z</time></trkpt><trkpt lat="40.03439711347994" lon="9.507165525871391"><ele>490.0</ele><time>2026-05-01T11:06:26Z</time></trkpt><trkpt lat="40.03447205521037" lon="9.507062026284158"><ele>484.0</ele><time>2026-05-01T11:06:27Z</time></trkpt><trkpt lat="40.03459863424378" lon="9.506985151906061"><ele>478.0</ele><time>2026-05-01T11:06:28Z</time></trkpt><trkpt lat="40.03476301897504" lon="9.506895576255785"><ele>472.0</ele><time>2026-05-01T11:06:29Z</time></trkpt><trkpt lat="40.034930974000325" lon="9.50691429106851"><ele>479.33333333333337</ele><time>2026-05-01T11:06:30Z</time></trkpt><trkpt lat="40.03510290119653" lon="9.506965237221475"><ele>486.66666666666663</ele><time>2026-05-01T11:06:31Z</time></trkpt><trkpt lat="40.035293839611185" lon="9.506992234838913"><ele>494.0</ele><time>2026-05-01T11:06:32Z</time></trkpt><trkpt lat="40.03548135249914" lon="9.506974180458663"><ele>494.0</ele><time>2026-05-01T11:06:33Z</time></trkpt><trkpt lat="40.0356843230556" lon="9.50689634162591"><ele>494.0</ele><time>2026-05-01T11:06:34Z</time></trkpt><trkpt lat="40.03590112498596" lon="9.506855813237866"><ele>494.0</ele><time>2026-05-01T11:06:35Z</time></trkpt><trkpt lat="40.03612113441455" lon="9.50680406778792"><ele>501.0</ele><time>2026-05-01T11:06:36Z</time></trkpt><trkpt lat="40.03634583635176" lon="9.506744715661382"><ele>508.0</ele><time>2026-05-01T11:06:37Z</time></trkpt><trkpt lat="40.03657118292774" lon="9.506672986709303"><ele>513.0</ele><time>2026-05-01T11:06:38Z</time></trkpt><trkpt lat="40.03678653318247" lon="9.506622193548493"><ele>518.0</ele><time>2026-05-01T11:06:39Z</time></trkpt><trkpt lat="40.03696779944293" lon="9.50656864249624"><ele>523.0</ele><time>2026-05-01T11:06:40Z</time></trkpt><trkpt lat="40.037137691550825" lon="9.506518248478471"><ele>523.0</ele><time>2026-05-01T11:06:41Z</time></trkpt><trkpt lat="40.03731325627872" lon="9.50647162614036"><ele>523.0</ele><time>2026-05-01T11:06:42Z</time></trkpt><trkpt lat="40.03748877419355" lon="9.506425932010204"><ele>523.0</ele><time>2026-05-01T11:06:43Z</time></trkpt><trkpt lat="40.0376586469255" lon="9.506379169416068"><ele>527.0</ele><time>2026-05-01T11:06:44Z</time></trkpt><trkpt lat="40.03781620860033" lon="9.506322994307249"><ele>531.0</ele><time>2026-05-01T11:06:45Z</time></trkpt><trkpt lat="40.03795980972135" lon="9.506246245796298"><ele>535.0</ele><time>2026-05-01T11:06:46Z</time></trkpt><trkpt lat="40.0380897198072" lon="9.50618280931436"><ele>531.3333333333334</ele><time>2026-05-01T11:06:47Z</time></trkpt><trkpt lat="40.038238309774464" lon="9.506221238593342"><ele>527.6666666666666</ele><time>2026-05-01T11:06:48Z</time></trkpt><trkpt lat="40.03842001753409" lon="9.506252679307025"><ele>524.0</ele><time>2026-05-01T11:06:49Z</time></trkpt><trkpt lat="40.03859674585166" lon="9.506243564098602"><ele>524.0</ele><time>2026-05-01T11:06:50Z</time></trkpt><trkpt lat="40.03877733407901" lon="9.50618431490379"><ele>524.0</ele><time>2026-05-01T11:06:51Z</time></trkpt><trkpt lat="40.03897181141196" lon="9.506106857173094"><ele>524.0</ele><time>2026-05-01T11:06:52Z</time></trkpt><trkpt lat="40.039141705598645" lon="9.506109870135317"><ele>528.25</ele><time>2026-05-01T11:06:53Z</time></trkpt><trkpt lat="40.03928491101596" lon="9.506071639530512"><ele>532.5</ele><time>2026-05-01T11:06:54Z</time></trkpt><trkpt lat="40.03942138113344" lon="9.506012731141455"><ele>536.75</ele><time>2026-05-01T11:06:55Z</time></trkpt><trkpt lat="40.039539927108464" lon="9.505882973731536"><ele>541.0</ele><time>2026-05-01T11:06:56Z</time></trkpt><trkpt lat="40.03966033144569" lon="9.505721241872163"><ele>541.0</ele><time>2026-05-01T11:06:57Z</time></trkpt><trkpt lat="40.039796689372075" lon="9.505617682435197"><ele>541.0</ele><time>2026-05-01T11:06:58Z</time></trkpt><trkpt lat="40.039956627687" lon="9.50561476636913"><ele>541.0</ele><time>2026-05-01T11:06:59Z</time></trkpt><trkpt lat="40.04010513554543" lon="9.505560290385622"><ele>541.6666666666667</ele><time>2026-05-01T11:07:00Z</time></trkpt><trkpt lat="40.04022737158447" lon="9.505453630499066"><ele>542.3333333333334</ele><time>2026-05-01T11:07:01Z</time></trkpt><trkpt lat="40.04031525075199" lon="9.505269769829106"><ele>543.0</ele><time>2026-05-01T11:07:02Z</time></trkpt><trkpt lat="40.04041104551299" lon="9.505074898594255"><ele>543.0</ele><time>2026-05-01T11:07:03Z</time></trkpt><trkpt lat="40.04054745449132" lon="9.504917315504178"><ele>543.0</ele><time>2026-05-01T11:07:04Z</time></trkpt><trkpt lat="40.040618899113625" lon="9.504694265847206"><ele>543.0</ele><time>2026-05-01T11:07:05Z</time></trkpt><trkpt lat="40.04069116155661" lon="9.504453230823735"><ele>552.0</ele><time>2026-05-01T11:07:06Z</time></trkpt><trkpt lat="40.04080562947006" lon="9.5042290091213"><ele>561.0</ele><time>2026-05-01T11:07:07Z</time></trkpt><trkpt lat="40.04085279890072" lon="9.504000332624003"><ele>570.0</ele><time>2026-05-01T11:07:08Z</time></trkpt><trkpt lat="40.04091566707431" lon="9.503799588487116"><ele>563.3333333333334</ele><time>2026-05-01T11:07:09Z</time></trkpt><trkpt lat="40.04101367302162" lon="9.50362096061263"><ele>556.6666666666667</ele><time>2026-05-01T11:07:10Z</time></trkpt><trkpt lat="40.04110391640947" lon="9.503465700136655"><ele>550.0</ele><time>2026-05-01T11:07:11Z</time></trkpt><trkpt lat="40.041214916122854" lon="9.503357039823051"><ele>550.0</ele><time>2026-05-01T11:07:12Z</time></trkpt><trkpt lat="40.041349382324285" lon="9.503325265005905"><ele>550.0</ele><time>2026-05-01T11:07:13Z</time></trkpt><trkpt lat="40.04151891645605" lon="9.503297618214738"><ele>550.0</ele><time>2026-05-01T11:07:14Z</time></trkpt><trkpt lat="40.04170229346139" lon="9.50324385448687"><ele>552.3333333333334</ele><time>2026-05-01T11:07:15Z</time></trkpt><trkpt lat="40.04187511166367" lon="9.503150629511921"><ele>554.6666666666666</ele><time>2026-05-01T11:07:16Z</time></trkpt><trkpt lat="40.04203774284871" lon="9.503001223380563"><ele>557.0</ele><time>2026-05-01T11:07:17Z</time></trkpt><trkpt lat="40.04217103879776" lon="9.50283041156237"><ele>557.0</ele><time>2026-05-01T11:07:18Z</time></trkpt><trkpt lat="40.0423059273084" lon="9.502719656928095"><ele>557.0</ele><time>2026-05-01T11:07:19Z</time></trkpt><trkpt lat="40.04245538093132" lon="9.502657730537209"><ele>557.0</ele><time>2026-05-01T11:07:20Z</time></trkpt><trkpt lat="40.04262890439332" lon="9.502623464452292"><ele>566.3333333333333</ele><time>2026-05-01T11:07:21Z</time></trkpt><trkpt lat="40.04279829084686" lon="9.502583441713474"><ele>575.6666666666666</ele><time>2026-05-01T11:07:22Z</time></trkpt><trkpt lat="40.0429480845122" lon="9.502514223387934"><ele>585.0</ele><time>2026-05-01T11:07:23Z</time></trkpt><trkpt lat="40.04308487736929" lon="9.50235346957187"><ele>585.0</ele><time>2026-05-01T11:07:24Z</time></trkpt><trkpt lat="40.043223773364076" lon="9.502148600104245"><ele>585.0</ele><time>2026-05-01T11:07:25Z</time></trkpt><trkpt lat="40.043394083660516" lon="9.501972861284289"><ele>585.0</ele><time>2026-05-01T11:07:26Z</time></trkpt><trkpt lat="40.043519544298476" lon="9.501786891878151"><ele>584.0</ele><time>2026-05-01T11:07:27Z</time></trkpt><trkpt lat="40.043642111334286" lon="9.501604782334676"><ele>583.0</ele><time>2026-05-01T11:07:28Z</time></trkpt><trkpt lat="40.043740593258676" lon="9.501369410343985"><ele>582.0</ele><time>2026-05-01T11:07:29Z</time></trkpt><trkpt lat="40.04386166090555" lon="9.501141526830535"><ele>582.0</ele><time>2026-05-01T11:07:30Z</time></trkpt><trkpt lat="40.04399621013862" lon="9.50092533878325"><ele>582.0</ele><time>2026-05-01T11:07:31Z</time></trkpt><trkpt lat="40.04409165719579" lon="9.500726385269212"><ele>582.0</ele><time>2026-05-01T11:07:32Z</time></trkpt><trkpt lat="40.044175624917415" lon="9.500565704619618"><ele>586.0</ele><time>2026-05-01T11:07:33Z</time></trkpt><trkpt lat="40.04422162517694" lon="9.500430092287944"><ele>590.0</ele><time>2026-05-01T11:07:34Z</time></trkpt><trkpt lat="40.04421055476728" lon="9.500298097238565"><ele>594.0</ele><time>2026-05-01T11:07:35Z</time></trkpt><trkpt lat="40.044150347395" lon="9.500174495536182"><ele>598.0</ele><time>2026-05-01T11:07:36Z</time></trkpt><trkpt lat="40.04406942809647" lon="9.500053469019733"><ele>598.0</ele><time>2026-05-01T11:07:37Z</time></trkpt><trkpt lat="40.04402585458126" lon="9.499920110930843"><ele>598.0</ele><time>2026-05-01T11:07:38Z</time></trkpt><trkpt lat="40.044058944907825" lon="9.499773226566473"><ele>598.0</ele><time>2026-05-01T11:07:39Z</time></trkpt><trkpt lat="40.044142377634586" lon="9.499643442587068"><ele>598.0</ele><time>2026-05-01T11:07:40Z</time></trkpt><trkpt lat="40.04425011425753" lon="9.499476659739125"><ele>605.3333333333334</ele><time>2026-05-01T11:07:41Z</time></trkpt><trkpt lat="40.04435337231515" lon="9.499272821388788"><ele>612.6666666666666</ele><time>2026-05-01T11:07:42Z</time></trkpt><trkpt lat="40.04446447591752" lon="9.499077144910157"><ele>620.0</ele><time>2026-05-01T11:07:43Z</time></trkpt><trkpt lat="40.04457102653223" lon="9.498876997933095"><ele>623.5</ele><time>2026-05-01T11:07:44Z</time></trkpt><trkpt lat="40.044665475372845" lon="9.498711883735073"><ele>627.0</ele><time>2026-05-01T11:07:45Z</time></trkpt><trkpt lat="40.04477171393263" lon="9.498587280103195"><ele>630.5</ele><time>2026-05-01T11:07:46Z</time></trkpt><trkpt lat="40.04488344596047" lon="9.498487406640894"><ele>634.0</ele><time>2026-05-01T11:07:47Z</time></trkpt><trkpt lat="40.04497731593803" lon="9.49838971131819"><ele>636.0</ele><time>2026-05-01T11:07:48Z</time></trkpt><trkpt lat="40.0450523122163" lon="9.498281603946223"><ele>638.0</ele><time>2026-05-01T11:07:49Z</time></trkpt><trkpt lat="40.045116960349" lon="9.498166226034751"><ele>640.0</ele><time>2026-05-01T11:07:50Z</time></trkpt><trkpt lat="40.045169202203624" lon="9.49804170755711"><ele>642.0</ele><time>2026-05-01T11:07:51Z</time></trkpt><trkpt lat="40.04519830503062" lon="9.497911321852945"><ele>644.0</ele><time>2026-05-01T11:07:52Z</time></trkpt><trkpt lat="40.04517467087582" lon="9.497788910270396"><ele>644.2</ele><time>2026-05-01T11:07:53Z</time></trkpt><trkpt lat="40.04510092820912" lon="9.497701264315355"><ele>644.4000000000001</ele><time>2026-05-01T11:07:54Z</time></trkpt><trkpt lat="40.04500619876307" lon="9.497675369262504"><ele>644.6</ele><time>2026-05-01T11:07:55Z</time></trkpt><trkpt lat="40.044907454238135" lon="9.497704345085763"><ele>644.8</ele><time>2026-05-01T11:07:56Z</time></trkpt><trkpt lat="40.04481453044912" lon="9.497779255311553"><ele>645.0</ele><time>2026-05-01T11:07:57Z</time></trkpt><trkpt lat="40.044714874664805" lon="9.49783484593479"><ele>642.25</ele><time>2026-05-01T11:07:58Z</time></trkpt><trkpt lat="40.044598070640724" lon="9.497864447453818"><ele>639.5</ele><time>2026-05-01T11:07:59Z</time></trkpt><trkpt lat="40.044483160089555" lon="9.497894673438212"><ele>636.75</ele><time>2026-05-01T11:08:00Z</time></trkpt><trkpt lat="40.04437303008903" lon="9.497947643052525"><ele>634.0</ele><time>2026-05-01T11:08:01Z</time></trkpt><trkpt lat="40.04426992511165" lon="9.498019406562165"><ele>634.0</ele><time>2026-05-01T11:08:02Z</time></trkpt><trkpt lat="40.04417139364922" lon="9.49809679879605"><ele>634.0</ele><time>2026-05-01T11:08:03Z</time></trkpt><trkpt lat="40.04407378606986" lon="9.498167557234526"><ele>634.0</ele><time>2026-05-01T11:08:04Z</time></trkpt><trkpt lat="40.04397421149669" lon="9.498227603053408"><ele>634.0</ele><time>2026-05-01T11:08:05Z</time></trkpt><trkpt lat="40.043872951960196" lon="9.49827417782211"><ele>634.0</ele><time>2026-05-01T11:08:06Z</time></trkpt><trkpt lat="40.0437664582583" lon="9.498311418541498"><ele>636.8</ele><time>2026-05-01T11:08:07Z</time></trkpt><trkpt lat="40.043663605448295" lon="9.498331486591082"><ele>639.5999999999999</ele><time>2026-05-01T11:08:08Z</time></trkpt><trkpt lat="40.04355549988995" lon="9.498331313226258"><ele>642.4</ele><time>2026-05-01T11:08:09Z</time></trkpt><trkpt lat="40.04345787643773" lon="9.498333776801323"><ele>645.1999999999999</ele><time>2026-05-01T11:08:10Z</time></trkpt><trkpt lat="40.04336064970394" lon="9.498327115841063"><ele>648.0</ele><time>2026-05-01T11:08:11Z</time></trkpt><trkpt lat="40.04326470217273" lon="9.498309896576037"><ele>648.0</ele><time>2026-05-01T11:08:12Z</time></trkpt><trkpt lat="40.0431678626535" lon="9.498294592119382"><ele>648.0</ele><time>2026-05-01T11:08:13Z</time></trkpt><trkpt lat="40.043069841802634" lon="9.498263447852372"><ele>648.0</ele><time>2026-05-01T11:08:14Z</time></trkpt><trkpt lat="40.04295972965665" lon="9.498250202919593"><ele>648.0</ele><time>2026-05-01T11:08:15Z</time></trkpt><trkpt lat="40.04285630720513" lon="9.498195156925835"><ele>648.0</ele><time>2026-05-01T11:08:16Z</time></trkpt><trkpt lat="40.04275302495064" lon="9.498118442056239"><ele>648.0</ele><time>2026-05-01T11:08:17Z</time></trkpt><trkpt lat="40.04264730100694" lon="9.498047403483271"><ele>648.0</ele><time>2026-05-01T11:08:18Z</time></trkpt><trkpt lat="40.04254567877804" lon="9.49797141766108"><ele>648.0</ele><time>2026-05-01T11:08:19Z</time></trkpt><trkpt lat="40.04245299407736" lon="9.497884796407297"><ele>648.0</ele><time>2026-05-01T11:08:20Z</time></trkpt><trkpt lat="40.042374459628675" lon="9.497792537367882"><ele>654.4</ele><time>2026-05-01T11:08:21Z</time></trkpt><trkpt lat="40.04228080866205" lon="9.497716452676288"><ele>660.8</ele><time>2026-05-01T11:08:22Z</time></trkpt><trkpt lat="40.0421734269977" lon="9.49769652839611"><ele>667.2</ele><time>2026-05-01T11:08:23Z</time></trkpt><trkpt lat="40.04206925207842" lon="9.497679734454259"><ele>673.6</ele><time>2026-05-01T11:08:24Z</time></trkpt><trkpt lat="40.04196776806136" lon="9.497668175815289"><ele>680.0</ele><time>2026-05-01T11:08:25Z</time></trkpt><trkpt lat="40.041870273748046" lon="9.497679525529076"><ele>680.0</ele><time>2026-05-01T11:08:26Z</time></trkpt><trkpt lat="40.04177884123687" lon="9.497685660800396"><ele>680.0</ele><time>2026-05-01T11:08:27Z</time></trkpt><trkpt lat="40.041697155002815" lon="9.497730301475153"><ele>680.0</ele><time>2026-05-01T11:08:28Z</time></trkpt><trkpt lat="40.04163346384364" lon="9.497817996602919"><ele>680.0</ele><time>2026-05-01T11:08:29Z</time></trkpt><trkpt lat="40.04159349886827" lon="9.497923529553468"><ele>680.0</ele><time>2026-05-01T11:08:30Z</time></trkpt><trkpt lat="40.041540556378344" lon="9.498017263132297"><ele>675.3333333333333</ele><time>2026-05-01T11:08:31Z</time></trkpt><trkpt lat="40.04150693119378" lon="9.498101589237601"><ele>670.6666666666666</ele><time>2026-05-01T11:08:32Z</time></trkpt><trkpt lat="40.04148065316189" lon="9.498193267012525"><ele>666.0</ele><time>2026-05-01T11:08:33Z</time></trkpt><trkpt lat="40.04141272848727" lon="9.498242722881647"><ele>661.3333333333334</ele><time>2026-05-01T11:08:34Z</time></trkpt><trkpt lat="40.04130572826561" lon="9.49818305004947"><ele>656.6666666666667</ele><time>2026-05-01T11:08:36Z</time></trkpt><trkpt lat="40.04129654291122" lon="9.498080157045175"><ele>652.0</ele><time>2026-05-01T11:08:37Z</time></trkpt><trkpt lat="40.04127818484824" lon="9.497975159034203"><ele>654.1666666666667</ele><time>2026-05-01T11:08:38Z</time></trkpt><trkpt lat="40.04126030701126" lon="9.497874561340161"><ele>656.3333333333334</ele><time>2026-05-01T11:08:39Z</time></trkpt><trkpt lat="40.04124535563072" lon="9.497784853827278"><ele>658.5</ele><time>2026-05-01T11:08:40Z</time></trkpt><trkpt lat="40.041284462013614" lon="9.497638323818082"><ele>660.6666666666666</ele><time>2026-05-01T11:08:42Z</time></trkpt><trkpt lat="40.04132599720203" lon="9.49754685702856"><ele>662.8333333333333</ele><time>2026-05-01T11:08:43Z</time></trkpt><trkpt lat="40.04137311480154" lon="9.497440607395163"><ele>665.0</ele><time>2026-05-01T11:08:44Z</time></trkpt><trkpt lat="40.04141859066747" lon="9.497330772949132"><ele>665.0</ele><time>2026-05-01T11:08:45Z</time></trkpt><trkpt lat="40.041444173660736" lon="9.497230570937806"><ele>665.0</ele><time>2026-05-01T11:08:46Z</time></trkpt><trkpt lat="40.04143845956296" lon="9.49709158322364"><ele>665.0</ele><time>2026-05-01T11:08:48Z</time></trkpt><trkpt lat="40.041370716127076" lon="9.497030873232486"><ele>665.0</ele><time>2026-05-01T11:08:50Z</time></trkpt><trkpt lat="40.04132697311903" lon="9.496966169230774"><ele>665.0</ele><time>2026-05-01T11:08:52Z</time></trkpt><trkpt lat="40.04129929480417" lon="9.496876185306096"><ele>665.0</ele><time>2026-05-01T11:08:54Z</time></trkpt><trkpt lat="40.04131819088684" lon="9.496749581173024"><ele>665.1666666666666</ele><time>2026-05-01T11:08:56Z</time></trkpt><trkpt lat="40.04133799872712" lon="9.496666736278817"><ele>665.3333333333333</ele><time>2026-05-01T11:08:57Z</time></trkpt><trkpt lat="40.04134438059253" lon="9.496571098838004"><ele>665.5</ele><time>2026-05-01T11:08:58Z</time></trkpt><trkpt lat="40.04137023182795" lon="9.496437274118012"><ele>665.6666666666666</ele><time>2026-05-01T11:09:00Z</time></trkpt><trkpt lat="40.04138238181592" lon="9.496323776741926"><ele>665.8333333333334</ele><time>2026-05-01T11:09:02Z</time></trkpt><trkpt lat="40.041396520558536" lon="9.496201087449185"><ele>666.0</ele><time>2026-05-01T11:09:04Z</time></trkpt><trkpt lat="40.04139478311051" lon="9.496118535046044"><ele>666.0</ele><time>2026-05-01T11:09:06Z</time></trkpt><trkpt lat="40.04139622619413" lon="9.496029922756357"><ele>666.0</ele><time>2026-05-01T11:09:20Z</time></trkpt><trkpt lat="40.0413232027609" lon="9.495976801068798"><ele>666.0</ele><time>2026-05-01T11:15:31Z</time></trkpt><trkpt lat="40.041313149353435" lon="9.495889701479243"><ele>666.0</ele><time>2026-05-01T11:15:34Z</time></trkpt><trkpt lat="40.04130739634097" lon="9.49579980290223"><ele>666.0</ele><time>2026-05-01T11:15:35Z</time></trkpt><trkpt lat="40.041295859625706" lon="9.495692250607279"><ele>666.0</ele><time>2026-05-01T11:15:36Z</time></trkpt><trkpt lat="40.041280439480595" lon="9.495594634534596"><ele>666.0</ele><time>2026-05-01T11:15:37Z</time></trkpt><trkpt lat="40.04129427226885" lon="9.49549058096792"><ele>667.8333333333334</ele><time>2026-05-01T11:15:38Z</time></trkpt><trkpt lat="40.04126842884916" lon="9.495396255800852"><ele>669.6666666666666</ele><time>2026-05-01T11:15:39Z</time></trkpt><trkpt lat="40.041241042868094" lon="9.49531857338389"><ele>671.5</ele><time>2026-05-01T11:15:40Z</time></trkpt><trkpt lat="40.04119874026758" lon="9.495252820188"><ele>673.3333333333333</ele><time>2026-05-01T11:15:41Z</time></trkpt><trkpt lat="40.041148490835035" lon="9.495108163268121"><ele>675.1666666666666</ele><time>2026-05-01T11:15:43Z</time></trkpt><trkpt lat="40.04113039285127" lon="9.49502491520729"><ele>677.0</ele><time>2026-05-01T11:15:44Z</time></trkpt><trkpt lat="40.04111576965534" lon="9.494941213294332"><ele>676.9999999999999</ele><time>2026-05-01T11:15:45Z</time></trkpt><trkpt lat="40.04112592400906" lon="9.494853101646337"><ele>677.0</ele><time>2026-05-01T11:15:46Z</time></trkpt><trkpt lat="40.04104512009078" lon="9.494797323130285"><ele>677.0</ele><time>2026-05-01T11:15:47Z</time></trkpt><trkpt lat="40.041015574918525" lon="9.494721041533303"><ele>677.0</ele><time>2026-05-01T11:15:48Z</time></trkpt><trkpt lat="40.04100225353449" lon="9.494634520441204"><ele>677.0</ele><time>2026-05-01T11:15:49Z</time></trkpt><trkpt lat="40.040992598052895" lon="9.494544056685532"><ele>676.9999999999999</ele><time>2026-05-01T11:15:50Z</time></trkpt><trkpt lat="40.04102283115867" lon="9.494443374736202"><ele>677.0</ele><time>2026-05-01T11:15:51Z</time></trkpt><trkpt lat="40.041011649034346" lon="9.49435158807651"><ele>678.1666666666666</ele><time>2026-05-01T11:15:52Z</time></trkpt><trkpt lat="40.041005540412094" lon="9.494256070031446"><ele>679.3333333333333</ele><time>2026-05-01T11:15:53Z</time></trkpt><trkpt lat="40.041006130896946" lon="9.494171731154227"><ele>680.5</ele><time>2026-05-01T11:15:54Z</time></trkpt><trkpt lat="40.04101145749179" lon="9.494019071644031"><ele>681.6666666666666</ele><time>2026-05-01T11:15:56Z</time></trkpt><trkpt lat="40.04101570677014" lon="9.49392370862501"><ele>682.8333333333334</ele><time>2026-05-01T11:15:57Z</time></trkpt><trkpt lat="40.04100406960729" lon="9.493822196851756"><ele>684.0</ele><time>2026-05-01T11:15:58Z</time></trkpt><trkpt lat="40.04106618053785" lon="9.493730633398537"><ele>686.0</ele><time>2026-05-01T11:15:59Z</time></trkpt><trkpt lat="40.041076035732395" lon="9.493616080114188"><ele>688.0</ele><time>2026-05-01T11:16:00Z</time></trkpt><trkpt lat="40.041054192344205" lon="9.493492612989705"><ele>690.0</ele><time>2026-05-01T11:16:01Z</time></trkpt><trkpt lat="40.04098722655037" lon="9.493402009570014"><ele>692.0</ele><time>2026-05-01T11:16:02Z</time></trkpt><trkpt lat="40.04094652495178" lon="9.493294710731963"><ele>694.0</ele><time>2026-05-01T11:16:03Z</time></trkpt><trkpt lat="40.04089129758376" lon="9.493205015083545"><ele>694.0</ele><time>2026-05-01T11:16:04Z</time></trkpt><trkpt lat="40.04083657592742" lon="9.493112306911758"><ele>694.0</ele><time>2026-05-01T11:16:05Z</time></trkpt><trkpt lat="40.04076951067191" lon="9.4930350860197"><ele>694.0</ele><time>2026-05-01T11:16:06Z</time></trkpt><trkpt lat="40.04067729884238" lon="9.493002841310552"><ele>694.0</ele><time>2026-05-01T11:16:07Z</time></trkpt><trkpt lat="40.040583474652095" lon="9.492976449801686"><ele>694.0</ele><time>2026-05-01T11:16:08Z</time></trkpt><trkpt lat="40.04048745865478" lon="9.49294820612568"><ele>694.0</ele><time>2026-05-01T11:16:09Z</time></trkpt><trkpt lat="40.040392785351564" lon="9.492919529511553"><ele>694.0</ele><time>2026-05-01T11:16:10Z</time></trkpt><trkpt lat="40.04030143359377" lon="9.49289122882635"><ele>694.0</ele><time>2026-05-01T11:16:11Z</time></trkpt><trkpt lat="40.04021637567395" lon="9.492862779400754"><ele>694.0</ele><time>2026-05-01T11:16:12Z</time></trkpt><trkpt lat="40.04014374975257" lon="9.492813865026694"><ele>694.0</ele><time>2026-05-01T11:16:13Z</time></trkpt><trkpt lat="40.04007462322602" lon="9.49274661282135"><ele>694.0</ele><time>2026-05-01T11:16:14Z</time></trkpt><trkpt lat="40.04000371803296" lon="9.492666129286592"><ele>690.4000000000001</ele><time>2026-05-01T11:16:15Z</time></trkpt><trkpt lat="40.03993535812604" lon="9.492577219407561"><ele>686.8</ele><time>2026-05-01T11:16:16Z</time></trkpt><trkpt lat="40.039861671544216" lon="9.492479517464874"><ele>683.2</ele><time>2026-05-01T11:16:17Z</time></trkpt><trkpt lat="40.03979164365593" lon="9.492378204749993"><ele>679.5999999999999</ele><time>2026-05-01T11:16:18Z</time></trkpt><trkpt lat="40.03973406022944" lon="9.492264571488354"><ele>676.0</ele><time>2026-05-01T11:16:19Z</time></trkpt><trkpt lat="40.03967946813341" lon="9.492137098063193"><ele>680.5</ele><time>2026-05-01T11:16:20Z</time></trkpt><trkpt lat="40.039623596598986" lon="9.492008655854235"><ele>685.0</ele><time>2026-05-01T11:16:21Z</time></trkpt><trkpt lat="40.03956778000629" lon="9.491876884257003"><ele>689.5</ele><time>2026-05-01T11:16:22Z</time></trkpt><trkpt lat="40.039499343113754" lon="9.491751612978595"><ele>694.0</ele><time>2026-05-01T11:16:23Z</time></trkpt><trkpt lat="40.03945319059464" lon="9.491619304937032"><ele>694.0</ele><time>2026-05-01T11:16:24Z</time></trkpt><trkpt lat="40.0394022230403" lon="9.491514024198397"><ele>694.0</ele><time>2026-05-01T11:16:25Z</time></trkpt><trkpt lat="40.03933545940971" lon="9.49143127756017"><ele>694.0</ele><time>2026-05-01T11:16:26Z</time></trkpt><trkpt lat="40.03924597575675" lon="9.491397655401748"><ele>694.0</ele><time>2026-05-01T11:16:27Z</time></trkpt><trkpt lat="40.03915906042262" lon="9.491400505783409"><ele>694.0</ele><time>2026-05-01T11:16:28Z</time></trkpt><trkpt lat="40.03906781475395" lon="9.491471856923003"><ele>692.4000000000001</ele><time>2026-05-01T11:16:29Z</time></trkpt><trkpt lat="40.03898257293517" lon="9.491577214841259"><ele>690.8</ele><time>2026-05-01T11:16:30Z</time></trkpt><trkpt lat="40.03889748621666" lon="9.491689778924002"><ele>689.2</ele><time>2026-05-01T11:16:31Z</time></trkpt><trkpt lat="40.03880545800103" lon="9.491760691650482"><ele>687.5999999999999</ele><time>2026-05-01T11:16:32Z</time></trkpt><trkpt lat="40.038720376466244" lon="9.491818388731392"><ele>686.0</ele><time>2026-05-01T11:16:33Z</time></trkpt><trkpt lat="40.03863319751876" lon="9.491823841986127"><ele>686.0</ele><time>2026-05-01T11:16:34Z</time></trkpt><trkpt lat="40.0385420556468" lon="9.491789050009604"><ele>686.0</ele><time>2026-05-01T11:16:35Z</time></trkpt><trkpt lat="40.038451353469924" lon="9.491693376635155"><ele>686.0</ele><time>2026-05-01T11:16:36Z</time></trkpt><trkpt lat="40.03833400237927" lon="9.491592549366528"><ele>686.0</ele><time>2026-05-01T11:16:37Z</time></trkpt><trkpt lat="40.038218516134854" lon="9.491497346796132"><ele>685.5</ele><time>2026-05-01T11:16:38Z</time></trkpt><trkpt lat="40.038098825762894" lon="9.491406915893931"><ele>685.0</ele><time>2026-05-01T11:16:39Z</time></trkpt><trkpt lat="40.03798762063619" lon="9.491313905211888"><ele>684.5</ele><time>2026-05-01T11:16:40Z</time></trkpt><trkpt lat="40.037884573716575" lon="9.491219889005233"><ele>684.0</ele><time>2026-05-01T11:16:41Z</time></trkpt><trkpt lat="40.03778953047387" lon="9.491139424272163"><ele>686.8000000000001</ele><time>2026-05-01T11:16:42Z</time></trkpt><trkpt lat="40.03769646086107" lon="9.49109006407294"><ele>689.6</ele><time>2026-05-01T11:16:43Z</time></trkpt><trkpt lat="40.03760069285246" lon="9.491083176205471"><ele>692.4</ele><time>2026-05-01T11:16:44Z</time></trkpt><trkpt lat="40.037489378905036" lon="9.491128151666459"><ele>695.2</ele><time>2026-05-01T11:16:45Z</time></trkpt><trkpt lat="40.03739177799892" lon="9.491250442517465"><ele>698.0</ele><time>2026-05-01T11:16:46Z</time></trkpt><trkpt lat="40.03732195178949" lon="9.491392922090146"><ele>700.0</ele><time>2026-05-01T11:16:47Z</time></trkpt><trkpt lat="40.03727763997151" lon="9.491548003235394"><ele>702.0</ele><time>2026-05-01T11:16:48Z</time></trkpt><trkpt lat="40.03721493600536" lon="9.491674618146018"><ele>704.0</ele><time>2026-05-01T11:16:49Z</time></trkpt><trkpt lat="40.037122310258034" lon="9.49175274513349"><ele>706.0</ele><time>2026-05-01T11:16:50Z</time></trkpt><trkpt lat="40.0369891694961" lon="9.491757271670412"><ele>706.0</ele><time>2026-05-01T11:16:51Z</time></trkpt><trkpt lat="40.03684527870427" lon="9.491791385961346"><ele>706.0</ele><time>2026-05-01T11:16:52Z</time></trkpt><trkpt lat="40.03668834517787" lon="9.49184211650819"><ele>706.0</ele><time>2026-05-01T11:16:53Z</time></trkpt><trkpt lat="40.03651590533186" lon="9.491884602593505"><ele>709.75</ele><time>2026-05-01T11:16:54Z</time></trkpt><trkpt lat="40.036361600399665" lon="9.491924103501042"><ele>713.5</ele><time>2026-05-01T11:16:55Z</time></trkpt><trkpt lat="40.036223625987994" lon="9.491977329315072"><ele>717.25</ele><time>2026-05-01T11:16:56Z</time></trkpt><trkpt lat="40.0361004036796" lon="9.492057097526782"><ele>721.0</ele><time>2026-05-01T11:16:57Z</time></trkpt><trkpt lat="40.036003843276056" lon="9.492182789455832"><ele>721.0</ele><time>2026-05-01T11:16:58Z</time></trkpt><trkpt lat="40.0359422232567" lon="9.492328586562795"><ele>721.0</ele><time>2026-05-01T11:16:59Z</time></trkpt><trkpt lat="40.03591028331249" lon="9.492484193201125"><ele>721.0</ele><time>2026-05-01T11:17:00Z</time></trkpt><trkpt lat="40.03590569333063" lon="9.49265027064959"><ele>721.0</ele><time>2026-05-01T11:17:01Z</time></trkpt><trkpt lat="40.03594400992304" lon="9.492810231263256"><ele>719.25</ele><time>2026-05-01T11:17:02Z</time></trkpt><trkpt lat="40.035977416020756" lon="9.492967200475864"><ele>717.5</ele><time>2026-05-01T11:17:03Z</time></trkpt><trkpt lat="40.03594616675436" lon="9.493104980862034"><ele>715.75</ele><time>2026-05-01T11:17:04Z</time></trkpt><trkpt lat="40.035876394091474" lon="9.493218368208455"><ele>714.0</ele><time>2026-05-01T11:17:05Z</time></trkpt><trkpt lat="40.0358051834976" lon="9.493370032387494"><ele>725.0</ele><time>2026-05-01T11:17:06Z</time></trkpt><trkpt lat="40.03571438468064" lon="9.493511242162361"><ele>736.0</ele><time>2026-05-01T11:17:07Z</time></trkpt><trkpt lat="40.035661380921375" lon="9.493654927630326"><ele>747.0</ele><time>2026-05-01T11:17:08Z</time></trkpt><trkpt lat="40.03565027232073" lon="9.493804237310231"><ele>758.0</ele><time>2026-05-01T11:17:09Z</time></trkpt><trkpt lat="40.03569247451126" lon="9.49395493897119"><ele>758.0</ele><time>2026-05-01T11:17:10Z</time></trkpt><trkpt lat="40.03573686219592" lon="9.494157237288512"><ele>758.0</ele><time>2026-05-01T11:17:11Z</time></trkpt><trkpt lat="40.03581336194029" lon="9.494353225920884"><ele>758.0</ele><time>2026-05-01T11:17:12Z</time></trkpt><trkpt lat="40.035872388212276" lon="9.494566907628716"><ele>747.0</ele><time>2026-05-01T11:17:13Z</time></trkpt><trkpt lat="40.03593445024218" lon="9.494796860529553"><ele>736.0</ele><time>2026-05-01T11:17:14Z</time></trkpt><trkpt lat="40.036003098502505" lon="9.495022164063066"><ele>725.0</ele><time>2026-05-01T11:17:15Z</time></trkpt><trkpt lat="40.03606027750261" lon="9.495216312510001"><ele>725.0</ele><time>2026-05-01T11:17:16Z</time></trkpt><trkpt lat="40.03608464178867" lon="9.49538440029867"><ele>725.0</ele><time>2026-05-01T11:17:17Z</time></trkpt><trkpt lat="40.036061962978856" lon="9.495535219031705"><ele>725.0</ele><time>2026-05-01T11:17:18Z</time></trkpt><trkpt lat="40.035993728960754" lon="9.495678874437951"><ele>725.0</ele><time>2026-05-01T11:17:19Z</time></trkpt><trkpt lat="40.035892816156796" lon="9.495742200167427"><ele>723.75</ele><time>2026-05-01T11:17:20Z</time></trkpt><trkpt lat="40.035804620355265" lon="9.495747820994675"><ele>722.5</ele><time>2026-05-01T11:17:21Z</time></trkpt><trkpt lat="40.03570232483004" lon="9.495730925682569"><ele>721.25</ele><time>2026-05-01T11:17:22Z</time></trkpt><trkpt lat="40.035571612913444" lon="9.495729326157258"><ele>720.0</ele><time>2026-05-01T11:17:23Z</time></trkpt><trkpt lat="40.03542919556327" lon="9.4956937976414"><ele>720.0</ele><time>2026-05-01T11:17:24Z</time></trkpt><trkpt lat="40.03527416355195" lon="9.495648969633354"><ele>720.0</ele><time>2026-05-01T11:17:25Z</time></trkpt><trkpt lat="40.03510930062155" lon="9.49562860268754"><ele>720.0</ele><time>2026-05-01T11:17:26Z</time></trkpt><trkpt lat="40.03494825919005" lon="9.495584726656434"><ele>722.5</ele><time>2026-05-01T11:17:27Z</time></trkpt><trkpt lat="40.0348016545743" lon="9.495571042431624"><ele>725.0</ele><time>2026-05-01T11:17:28Z</time></trkpt><trkpt lat="40.034700013582004" lon="9.49549163001752"><ele>727.5</ele><time>2026-05-01T11:17:29Z</time></trkpt><trkpt lat="40.03462220595601" lon="9.495401474030512"><ele>730.0</ele><time>2026-05-01T11:17:30Z</time></trkpt><trkpt lat="40.03454230154193" lon="9.49528757558224"><ele>730.0</ele><time>2026-05-01T11:17:31Z</time></trkpt><trkpt lat="40.03445876512032" lon="9.495165897558662"><ele>730.0</ele><time>2026-05-01T11:17:32Z</time></trkpt><trkpt lat="40.034374002435" lon="9.495038859343756"><ele>730.0</ele><time>2026-05-01T11:17:33Z</time></trkpt><trkpt lat="40.03428560784754" lon="9.494909133353023"><ele>730.0</ele><time>2026-05-01T11:17:34Z</time></trkpt><trkpt lat="40.03419442942089" lon="9.494775811443729"><ele>730.3333333333334</ele><time>2026-05-01T11:17:35Z</time></trkpt><trkpt lat="40.034097920186866" lon="9.49463469472353"><ele>730.6666666666666</ele><time>2026-05-01T11:17:36Z</time></trkpt><trkpt lat="40.03399657704453" lon="9.494486509858453"><ele>731.0</ele><time>2026-05-01T11:17:37Z</time></trkpt><trkpt lat="40.033893295394066" lon="9.494334260708046"><ele>731.0</ele><time>2026-05-01T11:17:38Z</time></trkpt><trkpt lat="40.033779949805535" lon="9.494185758967884"><ele>731.0</ele><time>2026-05-01T11:17:39Z</time></trkpt><trkpt lat="40.03366642170611" lon="9.49403296100589"><ele>731.0</ele><time>2026-05-01T11:17:40Z</time></trkpt><trkpt lat="40.033558846984086" lon="9.493867540680935"><ele>738.6666666666666</ele><time>2026-05-01T11:17:41Z</time></trkpt><trkpt lat="40.03344704778175" lon="9.493707145140114"><ele>746.3333333333334</ele><time>2026-05-01T11:17:42Z</time></trkpt><trkpt lat="40.033345834791355" lon="9.49355652812101"><ele>754.0</ele><time>2026-05-01T11:17:43Z</time></trkpt><trkpt lat="40.03326530800664" lon="9.493416172272715"><ele>754.0</ele><time>2026-05-01T11:17:44Z</time></trkpt><trkpt lat="40.03316715821877" lon="9.493316042842853"><ele>754.0</ele><time>2026-05-01T11:17:45Z</time></trkpt><trkpt lat="40.03303204948532" lon="9.493305180694078"><ele>754.0</ele><time>2026-05-01T11:17:46Z</time></trkpt><trkpt lat="40.03289934471358" lon="9.49333312313206"><ele>754.0</ele><time>2026-05-01T11:17:47Z</time></trkpt><trkpt lat="40.032762485002685" lon="9.493384325074736"><ele>754.0</ele><time>2026-05-01T11:17:48Z</time></trkpt><trkpt lat="40.03263230574383" lon="9.493393467058178"><ele>754.0</ele><time>2026-05-01T11:17:49Z</time></trkpt><trkpt lat="40.03251629302981" lon="9.493391134892724"><ele>754.0</ele><time>2026-05-01T11:17:50Z</time></trkpt><trkpt lat="40.03241004895346" lon="9.49335279022202"><ele>754.0</ele><time>2026-05-01T11:17:51Z</time></trkpt><trkpt lat="40.03230891067895" lon="9.493301363864882"><ele>751.6</ele><time>2026-05-01T11:17:52Z</time></trkpt><trkpt lat="40.03221479528274" lon="9.493239722114483"><ele>749.2</ele><time>2026-05-01T11:17:53Z</time></trkpt><trkpt lat="40.03212447016358" lon="9.4931640623881"><ele>746.8000000000001</ele><time>2026-05-01T11:17:54Z</time></trkpt><trkpt lat="40.03203854106999" lon="9.493082982833437"><ele>744.4000000000001</ele><time>2026-05-01T11:17:55Z</time></trkpt><trkpt lat="40.03195577102778" lon="9.492997725870959"><ele>742.0</ele><time>2026-05-01T11:17:56Z</time></trkpt><trkpt lat="40.03188350253446" lon="9.492899220094612"><ele>745.8</ele><time>2026-05-01T11:17:57Z</time></trkpt><trkpt lat="40.03179851099619" lon="9.492801339912802"><ele>749.6</ele><time>2026-05-01T11:17:58Z</time></trkpt><trkpt lat="40.03172865897868" lon="9.492695620755297"><ele>753.4</ele><time>2026-05-01T11:17:59Z</time></trkpt><trkpt lat="40.03164549869208" lon="9.492611106811797"><ele>757.1999999999999</ele><time>2026-05-01T11:18:00Z</time></trkpt><trkpt lat="40.03153940337998" lon="9.492575102188324"><ele>761.0</ele><time>2026-05-01T11:18:01Z</time></trkpt><trkpt lat="40.03143265756479" lon="9.492588837410404"><ele>761.0</ele><time>2026-05-01T11:18:02Z</time></trkpt><trkpt lat="40.03131341966627" lon="9.492615892726253"><ele>761.0</ele><time>2026-05-01T11:18:03Z</time></trkpt><trkpt lat="40.03120998749068" lon="9.492628982660305"><ele>761.0</ele><time>2026-05-01T11:18:04Z</time></trkpt><trkpt lat="40.03111498031301" lon="9.492639197675523"><ele>761.0</ele><time>2026-05-01T11:18:05Z</time></trkpt><trkpt lat="40.03102364246287" lon="9.492642664952324"><ele>761.0</ele><time>2026-05-01T11:18:06Z</time></trkpt><trkpt lat="40.030930843802466" lon="9.492623195087711"><ele>761.0</ele><time>2026-05-01T11:18:07Z</time></trkpt><trkpt lat="40.03086479191952" lon="9.492579683360107"><ele>761.0</ele><time>2026-05-01T11:18:08Z</time></trkpt><trkpt lat="40.03081063489587" lon="9.492486437733735"><ele>761.0</ele><time>2026-05-01T11:18:09Z</time></trkpt><trkpt lat="40.03079274882251" lon="9.492380867144892"><ele>761.0</ele><time>2026-05-01T11:18:10Z</time></trkpt><trkpt lat="40.030798587970615" lon="9.492264017348184"><ele>761.0</ele><time>2026-05-01T11:18:11Z</time></trkpt><trkpt lat="40.03085099744639" lon="9.492177329274295"><ele>761.0</ele><time>2026-05-01T11:18:12Z</time></trkpt><trkpt lat="40.030911930357526" lon="9.492130948351392"><ele>761.0</ele><time>2026-05-01T11:18:13Z</time></trkpt><trkpt lat="40.03097745281828" lon="9.49208887978438"><ele>761.0</ele><time>2026-05-01T11:18:14Z</time></trkpt><trkpt lat="40.03106566000911" lon="9.492096431737748"><ele>761.0</ele><time>2026-05-01T11:18:15Z</time></trkpt><trkpt lat="40.03114651006103" lon="9.492184872142516"><ele>761.0</ele><time>2026-05-01T11:18:16Z</time></trkpt><trkpt lat="40.03123779762457" lon="9.492238171128257"><ele>761.0</ele><time>2026-05-01T11:18:17Z</time></trkpt><trkpt lat="40.031330376237385" lon="9.49225550247034"><ele>761.0</ele><time>2026-05-01T11:18:18Z</time></trkpt><trkpt lat="40.03142028685703" lon="9.492196724218028"><ele>761.0</ele><time>2026-05-01T11:18:19Z</time></trkpt><trkpt lat="40.03150372076833" lon="9.4921045046145"><ele>761.0</ele><time>2026-05-01T11:18:20Z</time></trkpt><trkpt lat="40.03156187039036" lon="9.491984293155141"><ele>761.0</ele><time>2026-05-01T11:18:21Z</time></trkpt><trkpt lat="40.03163411664953" lon="9.491911179594998"><ele>761.0</ele><time>2026-05-01T11:18:22Z</time></trkpt><trkpt lat="40.03171068396031" lon="9.491830979347158"><ele>767.0</ele><time>2026-05-01T11:18:23Z</time></trkpt><trkpt lat="40.03182014458502" lon="9.491836920702289"><ele>773.0</ele><time>2026-05-01T11:18:24Z</time></trkpt><trkpt lat="40.03190088339529" lon="9.4918689225322"><ele>779.0</ele><time>2026-05-01T11:18:25Z</time></trkpt><trkpt lat="40.03198656414923" lon="9.491927627195468"><ele>785.0</ele><time>2026-05-01T11:18:26Z</time></trkpt><trkpt lat="40.03208800969455" lon="9.492002359458548"><ele>791.0</ele><time>2026-05-01T11:18:27Z</time></trkpt><trkpt lat="40.03218521176715" lon="9.492073499490813"><ele>788.8</ele><time>2026-05-01T11:18:28Z</time></trkpt><trkpt lat="40.0322877536479" lon="9.49214163460512"><ele>786.5999999999999</ele><time>2026-05-01T11:18:29Z</time></trkpt><trkpt lat="40.03239348039583" lon="9.492191348780516"><ele>784.4</ele><time>2026-05-01T11:18:30Z</time></trkpt><trkpt lat="40.032493339871465" lon="9.492199037737205"><ele>782.2</ele><time>2026-05-01T11:18:31Z</time></trkpt><trkpt lat="40.0325894417535" lon="9.492194666720943"><ele>780.0</ele><time>2026-05-01T11:18:32Z</time></trkpt><trkpt lat="40.03268144343775" lon="9.49216816185423"><ele>780.0</ele><time>2026-05-01T11:18:33Z</time></trkpt><trkpt lat="40.03276447476777" lon="9.49210707301594"><ele>780.0</ele><time>2026-05-01T11:18:34Z</time></trkpt><trkpt lat="40.0328375187467" lon="9.49202275584077"><ele>780.0</ele><time>2026-05-01T11:18:35Z</time></trkpt><trkpt lat="40.0329074867809" lon="9.491908062826628"><ele>780.0</ele><time>2026-05-01T11:18:36Z</time></trkpt><trkpt lat="40.03295841894293" lon="9.491771899814081"><ele>780.0</ele><time>2026-05-01T11:18:37Z</time></trkpt><trkpt lat="40.03299232105338" lon="9.491626906761283"><ele>785.75</ele><time>2026-05-01T11:18:38Z</time></trkpt><trkpt lat="40.03303499159568" lon="9.491475747052835"><ele>791.5</ele><time>2026-05-01T11:18:39Z</time></trkpt><trkpt lat="40.03306750172399" lon="9.491318744363806"><ele>797.25</ele><time>2026-05-01T11:18:40Z</time></trkpt><trkpt lat="40.03309997853865" lon="9.49117677604632"><ele>803.0</ele><time>2026-05-01T11:18:41Z</time></trkpt><trkpt lat="40.03313609110781" lon="9.491069761251307"><ele>805.5000000000001</ele><time>2026-05-01T11:18:42Z</time></trkpt><trkpt lat="40.03318770181448" lon="9.490994914117875"><ele>808.0</ele><time>2026-05-01T11:18:43Z</time></trkpt><trkpt lat="40.03326450952791" lon="9.490945794242018"><ele>810.5</ele><time>2026-05-01T11:18:44Z</time></trkpt><trkpt lat="40.03335253807449" lon="9.49092027392552"><ele>813.0</ele><time>2026-05-01T11:18:45Z</time></trkpt><trkpt lat="40.033441849604955" lon="9.490939503667887"><ele>815.5000000000001</ele><time>2026-05-01T11:18:46Z</time></trkpt><trkpt lat="40.0335278778234" lon="9.49099013325372"><ele>818.0</ele><time>2026-05-01T11:18:47Z</time></trkpt><trkpt lat="40.03362726054693" lon="9.491074413797227"><ele>818.0</ele><time>2026-05-01T11:18:48Z</time></trkpt><trkpt lat="40.03373661227017" lon="9.49115967930069"><ele>818.0</ele><time>2026-05-01T11:18:49Z</time></trkpt><trkpt lat="40.033852014967415" lon="9.491249662921616"><ele>818.0</ele><time>2026-05-01T11:18:50Z</time></trkpt><trkpt lat="40.03395207372691" lon="9.491344794526771"><ele>818.0</ele><time>2026-05-01T11:18:51Z</time></trkpt><trkpt lat="40.03402975924714" lon="9.491478085416109"><ele>816.8</ele><time>2026-05-01T11:18:52Z</time></trkpt><trkpt lat="40.03411731096984" lon="9.491582116013955"><ele>815.5999999999999</ele><time>2026-05-01T11:18:53Z</time></trkpt><trkpt lat="40.03420828016792" lon="9.491647503929677"><ele>814.4000000000001</ele><time>2026-05-01T11:18:54Z</time></trkpt><trkpt lat="40.03430440527724" lon="9.491657695852453"><ele>813.2</ele><time>2026-05-01T11:18:55Z</time></trkpt><trkpt lat="40.03438414823226" lon="9.491624701908266"><ele>812.0</ele><time>2026-05-01T11:18:56Z</time></trkpt><trkpt lat="40.03444200535679" lon="9.49153039416815"><ele>812.0</ele><time>2026-05-01T11:18:57Z</time></trkpt><trkpt lat="40.03448122399832" lon="9.491402015691776"><ele>812.0</ele><time>2026-05-01T11:18:58Z</time></trkpt><trkpt lat="40.034464805074215" lon="9.491267434008305"><ele>812.0</ele><time>2026-05-01T11:18:59Z</time></trkpt><trkpt lat="40.034409898921865" lon="9.491142295163396"><ele>812.0</ele><time>2026-05-01T11:19:00Z</time></trkpt><trkpt lat="40.03432210813016" lon="9.491045779680695"><ele>812.0</ele><time>2026-05-01T11:19:01Z</time></trkpt><trkpt lat="40.0342067633159" lon="9.490964026934915"><ele>813.5</ele><time>2026-05-01T11:19:02Z</time></trkpt><trkpt lat="40.034103492138364" lon="9.49083802800721"><ele>815.0</ele><time>2026-05-01T11:19:03Z</time></trkpt><trkpt lat="40.03400308774147" lon="9.490693452145118"><ele>816.5</ele><time>2026-05-01T11:19:04Z</time></trkpt><trkpt lat="40.033902573759896" lon="9.490538396359735"><ele>818.0</ele><time>2026-05-01T11:19:05Z</time></trkpt><trkpt lat="40.03379898080413" lon="9.490381326913221"><ele>825.0</ele><time>2026-05-01T11:19:06Z</time></trkpt><trkpt lat="40.033689184087386" lon="9.490232441650663"><ele>832.0</ele><time>2026-05-01T11:19:07Z</time></trkpt><trkpt lat="40.03358266461307" lon="9.490094328581613"><ele>839.0</ele><time>2026-05-01T11:19:08Z</time></trkpt><trkpt lat="40.03346580388345" lon="9.48998458207968"><ele>839.0</ele><time>2026-05-01T11:19:09Z</time></trkpt><trkpt lat="40.03335296762649" lon="9.48989324732213"><ele>839.0</ele><time>2026-05-01T11:19:10Z</time></trkpt><trkpt lat="40.03322054684966" lon="9.489842799741766"><ele>839.0</ele><time>2026-05-01T11:19:11Z</time></trkpt><trkpt lat="40.03308019243908" lon="9.489843383391449"><ele>839.0</ele><time>2026-05-01T11:19:12Z</time></trkpt><trkpt lat="40.03294391065177" lon="9.489886975469082"><ele>839.75</ele><time>2026-05-01T11:19:13Z</time></trkpt><trkpt lat="40.03280561965285" lon="9.489933944603727"><ele>840.5</ele><time>2026-05-01T11:19:14Z</time></trkpt><trkpt lat="40.032657468083734" lon="9.489981925303134"><ele>841.25</ele><time>2026-05-01T11:19:15Z</time></trkpt><trkpt lat="40.03251240119063" lon="9.490005028666113"><ele>842.0</ele><time>2026-05-01T11:19:16Z</time></trkpt><trkpt lat="40.03237157546674" lon="9.489983637391683"><ele>842.0</ele><time>2026-05-01T11:19:17Z</time></trkpt><trkpt lat="40.03223989025289" lon="9.489924298063666"><ele>842.0</ele><time>2026-05-01T11:19:18Z</time></trkpt><trkpt lat="40.03209856617463" lon="9.4898300135883"><ele>842.0</ele><time>2026-05-01T11:19:19Z</time></trkpt><trkpt lat="40.03195839901071" lon="9.489731699842404"><ele>842.0</ele><time>2026-05-01T11:19:20Z</time></trkpt><trkpt lat="40.03180881300797" lon="9.489644380031718"><ele>842.0</ele><time>2026-05-01T11:19:21Z</time></trkpt><trkpt lat="40.03165141240189" lon="9.489616325999854"><ele>842.0</ele><time>2026-05-01T11:19:22Z</time></trkpt><trkpt lat="40.031518900947304" lon="9.489643552847332"><ele>839.25</ele><time>2026-05-01T11:19:23Z</time></trkpt><trkpt lat="40.03141265826403" lon="9.4896808781533"><ele>836.5</ele><time>2026-05-01T11:19:24Z</time></trkpt><trkpt lat="40.031293513489366" lon="9.489688256919017"><ele>833.75</ele><time>2026-05-01T11:19:25Z</time></trkpt><trkpt lat="40.03119737054196" lon="9.489655924141866"><ele>831.0</ele><time>2026-05-01T11:19:26Z</time></trkpt><trkpt lat="40.031088446723246" lon="9.489581006902696"><ele>838.5</ele><time>2026-05-01T11:19:27Z</time></trkpt><trkpt lat="40.030965571080664" lon="9.489499941273316"><ele>846.0</ele><time>2026-05-01T11:19:28Z</time></trkpt><trkpt lat="40.03083928162443" lon="9.48941267941691"><ele>853.5</ele><time>2026-05-01T11:19:29Z</time></trkpt><trkpt lat="40.03072252971296" lon="9.48931830708677"><ele>861.0</ele><time>2026-05-01T11:19:30Z</time></trkpt><trkpt lat="40.030630002567584" lon="9.489206383949599"><ele>861.25</ele><time>2026-05-01T11:19:31Z</time></trkpt><trkpt lat="40.03054790352627" lon="9.489076814717832"><ele>861.5</ele><time>2026-05-01T11:19:32Z</time></trkpt><trkpt lat="40.030471086994794" lon="9.48894333955099"><ele>861.75</ele><time>2026-05-01T11:19:33Z</time></trkpt><trkpt lat="40.03039512705406" lon="9.488836062989138"><ele>862.0</ele><time>2026-05-01T11:19:34Z</time></trkpt><trkpt lat="40.030282219268734" lon="9.488791316459874"><ele>862.0</ele><time>2026-05-01T11:19:35Z</time></trkpt><trkpt lat="40.03018627628013" lon="9.488818420432917"><ele>862.0</ele><time>2026-05-01T11:19:36Z</time></trkpt><trkpt lat="40.03009240386008" lon="9.48887176164712"><ele>862.0</ele><time>2026-05-01T11:19:37Z</time></trkpt><trkpt lat="40.03000276699065" lon="9.48897141225874"><ele>862.0</ele><time>2026-05-01T11:19:38Z</time></trkpt><trkpt lat="40.02991443018755" lon="9.489115890543614"><ele>866.75</ele><time>2026-05-01T11:19:39Z</time></trkpt><trkpt lat="40.02979831543808" lon="9.489243118647481"><ele>871.5</ele><time>2026-05-01T11:19:40Z</time></trkpt><trkpt lat="40.02970514323511" lon="9.489356713144607"><ele>876.25</ele><time>2026-05-01T11:19:41Z</time></trkpt><trkpt lat="40.02960455558183" lon="9.489451449190282"><ele>881.0</ele><time>2026-05-01T11:19:42Z</time></trkpt><trkpt lat="40.02949641052789" lon="9.489505888187665"><ele>881.0</ele><time>2026-05-01T11:19:43Z</time></trkpt><trkpt lat="40.02938285882052" lon="9.48953891226061"><ele>881.0</ele><time>2026-05-01T11:19:44Z</time></trkpt><trkpt lat="40.02926493322238" lon="9.489541467252593"><ele>881.0</ele><time>2026-05-01T11:19:45Z</time></trkpt><trkpt lat="40.02914435150495" lon="9.48951460393699"><ele>881.0</ele><time>2026-05-01T11:19:46Z</time></trkpt><trkpt lat="40.02902752420308" lon="9.489463450677057"><ele>882.25</ele><time>2026-05-01T11:19:47Z</time></trkpt><trkpt lat="40.02890742670786" lon="9.48942286282339"><ele>883.5</ele><time>2026-05-01T11:19:48Z</time></trkpt><trkpt lat="40.02878116150426" lon="9.489429044176457"><ele>884.75</ele><time>2026-05-01T11:19:49Z</time></trkpt><trkpt lat="40.02867180942698" lon="9.489500183958743"><ele>886.0</ele><time>2026-05-01T11:19:50Z</time></trkpt><trkpt lat="40.02857647093399" lon="9.489548815888638"><ele>886.0</ele><time>2026-05-01T11:19:51Z</time></trkpt><trkpt lat="40.02847775480886" lon="9.48956409121972"><ele>885.9999999999999</ele><time>2026-05-01T11:19:52Z</time></trkpt><trkpt lat="40.02837422029862" lon="9.489544931780417"><ele>885.9999999999999</ele><time>2026-05-01T11:19:53Z</time></trkpt><trkpt lat="40.02826585101509" lon="9.48950772066122"><ele>886.0</ele><time>2026-05-01T11:19:54Z</time></trkpt><trkpt lat="40.02815916515403" lon="9.489470245202883"><ele>886.0</ele><time>2026-05-01T11:19:55Z</time></trkpt><trkpt lat="40.02805541163317" lon="9.489441730312713"><ele>885.1666666666666</ele><time>2026-05-01T11:19:56Z</time></trkpt><trkpt lat="40.027966356036735" lon="9.489440017949388"><ele>884.3333333333333</ele><time>2026-05-01T11:19:57Z</time></trkpt><trkpt lat="40.027891317166116" lon="9.489449126882683"><ele>883.5</ele><time>2026-05-01T11:19:58Z</time></trkpt><trkpt lat="40.02782693431046" lon="9.489468279910934"><ele>882.6666666666667</ele><time>2026-05-01T11:19:59Z</time></trkpt><trkpt lat="40.02772591926105" lon="9.489506385066303"><ele>881.8333333333334</ele><time>2026-05-01T11:20:01Z</time></trkpt><trkpt lat="40.02762561398349" lon="9.4894945055394"><ele>881.0</ele><time>2026-05-01T11:20:03Z</time></trkpt><trkpt lat="40.02756226561485" lon="9.489425077628649"><ele>881.0</ele><time>2026-05-01T11:20:05Z</time></trkpt><trkpt lat="40.02754329091943" lon="9.489260371527811"><ele>880.9999999999999</ele><time>2026-05-01T11:20:07Z</time></trkpt><trkpt lat="40.02757871521588" lon="9.489166692639486"><ele>880.9999999999999</ele><time>2026-05-01T11:20:08Z</time></trkpt><trkpt lat="40.02764647780949" lon="9.489107729820798"><ele>881.0</ele><time>2026-05-01T11:20:09Z</time></trkpt><trkpt lat="40.027741802827336" lon="9.48911323172238"><ele>881.0</ele><time>2026-05-01T11:20:10Z</time></trkpt><trkpt lat="40.027833215689434" lon="9.489142787319269"><ele>881.0</ele><time>2026-05-01T11:20:11Z</time></trkpt><trkpt lat="40.02794951628806" lon="9.489143423062767"><ele>881.0</ele><time>2026-05-01T11:20:12Z</time></trkpt><trkpt lat="40.02806964317567" lon="9.489126325885954"><ele>881.0</ele><time>2026-05-01T11:20:13Z</time></trkpt><trkpt lat="40.02819352089771" lon="9.489101588168483"><ele>881.0</ele><time>2026-05-01T11:20:14Z</time></trkpt><trkpt lat="40.02831877228125" lon="9.489076036380025"><ele>882.25</ele><time>2026-05-01T11:20:15Z</time></trkpt><trkpt lat="40.028445384184785" lon="9.489040099965218"><ele>883.5</ele><time>2026-05-01T11:20:16Z</time></trkpt><trkpt lat="40.02856106189793" lon="9.488960331732642"><ele>884.75</ele><time>2026-05-01T11:20:17Z</time></trkpt><trkpt lat="40.02867683459913" lon="9.488872873885592"><ele>886.0</ele><time>2026-05-01T11:20:18Z</time></trkpt><trkpt lat="40.02879165209606" lon="9.488775223400364"><ele>892.25</ele><time>2026-05-01T11:20:19Z</time></trkpt><trkpt lat="40.028900798001196" lon="9.48867468895639"><ele>898.5</ele><time>2026-05-01T11:20:20Z</time></trkpt><trkpt lat="40.02903808827363" lon="9.488648210724921"><ele>904.75</ele><time>2026-05-01T11:20:21Z</time></trkpt><trkpt lat="40.02916320800417" lon="9.488602232356603"><ele>911.0</ele><time>2026-05-01T11:20:22Z</time></trkpt><trkpt lat="40.02928598475981" lon="9.4885502758372"><ele>911.0</ele><time>2026-05-01T11:20:23Z</time></trkpt><trkpt lat="40.029392812175466" lon="9.488480835192258"><ele>911.0</ele><time>2026-05-01T11:20:24Z</time></trkpt><trkpt lat="40.029470512347075" lon="9.48834382454473"><ele>911.0</ele><time>2026-05-01T11:20:25Z</time></trkpt><trkpt lat="40.029566120751824" lon="9.488212186630824"><ele>911.0</ele><time>2026-05-01T11:20:26Z</time></trkpt><trkpt lat="40.02965209353054" lon="9.488060583029727"><ele>912.25</ele><time>2026-05-01T11:20:27Z</time></trkpt><trkpt lat="40.02974644090596" lon="9.487904594998664"><ele>913.5</ele><time>2026-05-01T11:20:28Z</time></trkpt><trkpt lat="40.02984727295462" lon="9.487756383127234"><ele>914.75</ele><time>2026-05-01T11:20:29Z</time></trkpt><trkpt lat="40.02993926525706" lon="9.487645803434205"><ele>916.0</ele><time>2026-05-01T11:20:30Z</time></trkpt><trkpt lat="40.03003999116955" lon="9.487550143378467"><ele>916.0</ele><time>2026-05-01T11:20:31Z</time></trkpt><trkpt lat="40.03014553321721" lon="9.487488239535553"><ele>916.0</ele><time>2026-05-01T11:20:32Z</time></trkpt><trkpt lat="40.0302521425316" lon="9.487422318676382"><ele>916.0</ele><time>2026-05-01T11:20:33Z</time></trkpt><trkpt lat="40.03036154555624" lon="9.487438062106687"><ele>916.0</ele><time>2026-05-01T11:20:34Z</time></trkpt><trkpt lat="40.03046605239468" lon="9.487494565611845"><ele>916.0</ele><time>2026-05-01T11:20:35Z</time></trkpt><trkpt lat="40.03054346429919" lon="9.48760754880813"><ele>916.0</ele><time>2026-05-01T11:20:36Z</time></trkpt><trkpt lat="40.03063216060051" lon="9.48771250177789"><ele>916.0</ele><time>2026-05-01T11:20:37Z</time></trkpt><trkpt lat="40.03075221610132" lon="9.48774717111816"><ele>916.0</ele><time>2026-05-01T11:20:38Z</time></trkpt><trkpt lat="40.03088191047643" lon="9.487773137234218"><ele>918.0</ele><time>2026-05-01T11:20:39Z</time></trkpt><trkpt lat="40.03101431530958" lon="9.487808264639458"><ele>920.0</ele><time>2026-05-01T11:20:40Z</time></trkpt><trkpt lat="40.03116644053517" lon="9.487858584222403"><ele>922.0</ele><time>2026-05-01T11:20:41Z</time></trkpt><trkpt lat="40.03132989656602" lon="9.487914152178751"><ele>917.3333333333333</ele><time>2026-05-01T11:20:42Z</time></trkpt><trkpt lat="40.03150753190748" lon="9.487975488167375"><ele>912.6666666666667</ele><time>2026-05-01T11:20:43Z</time></trkpt><trkpt lat="40.03166669450352" lon="9.488039807915543"><ele>908.0</ele><time>2026-05-01T11:20:44Z</time></trkpt><trkpt lat="40.03179491244452" lon="9.488109119496904"><ele>908.0</ele><time>2026-05-01T11:20:45Z</time></trkpt><trkpt lat="40.031911548112625" lon="9.488163109995279"><ele>908.0</ele><time>2026-05-01T11:20:46Z</time></trkpt><trkpt lat="40.032013769222125" lon="9.48819529340089"><ele>908.0</ele><time>2026-05-01T11:20:47Z</time></trkpt><trkpt lat="40.032100502797896" lon="9.488180915444147"><ele>908.0</ele><time>2026-05-01T11:20:48Z</time></trkpt><trkpt lat="40.032173654253576" lon="9.48810962625565"><ele>908.0</ele><time>2026-05-01T11:20:49Z</time></trkpt><trkpt lat="40.03221760329563" lon="9.488020674094724"><ele>914.0</ele><time>2026-05-01T11:20:50Z</time></trkpt><trkpt lat="40.03224229844857" lon="9.487911004974134"><ele>920.0</ele><time>2026-05-01T11:20:51Z</time></trkpt><trkpt lat="40.03221254040136" lon="9.48778548015177"><ele>926.0</ele><time>2026-05-01T11:20:52Z</time></trkpt><trkpt lat="40.03213426863532" lon="9.487692705471883"><ele>932.0</ele><time>2026-05-01T11:20:53Z</time></trkpt><trkpt lat="40.03201511009138" lon="9.48766131450163"><ele>938.0</ele><time>2026-05-01T11:20:54Z</time></trkpt><trkpt lat="40.03190697331361" lon="9.487647533638775"><ele>938.0</ele><time>2026-05-01T11:20:55Z</time></trkpt><trkpt lat="40.03178846832435" lon="9.487642523538607"><ele>938.0</ele><time>2026-05-01T11:20:56Z</time></trkpt><trkpt lat="40.03165770190475" lon="9.487572179484843"><ele>938.0</ele><time>2026-05-01T11:20:57Z</time></trkpt><trkpt lat="40.03152431513259" lon="9.487519960168997"><ele>938.0</ele><time>2026-05-01T11:20:58Z</time></trkpt><trkpt lat="40.03139635917029" lon="9.487458025986003"><ele>940.75</ele><time>2026-05-01T11:20:59Z</time></trkpt><trkpt lat="40.031274859295664" lon="9.487375292160088"><ele>943.5</ele><time>2026-05-01T11:21:00Z</time></trkpt><trkpt lat="40.031168303638395" lon="9.487254543837263"><ele>946.25</ele><time>2026-05-01T11:21:01Z</time></trkpt><trkpt lat="40.03106403312763" lon="9.487112403900296"><ele>949.0</ele><time>2026-05-01T11:21:02Z</time></trkpt><trkpt lat="40.030955995019404" lon="9.486961483300778"><ele>949.0</ele><time>2026-05-01T11:21:03Z</time></trkpt><trkpt lat="40.030825907508586" lon="9.486834206221594"><ele>949.0</ele><time>2026-05-01T11:21:04Z</time></trkpt><trkpt lat="40.030708570200716" lon="9.486735938184957"><ele>949.0</ele><time>2026-05-01T11:21:05Z</time></trkpt><trkpt lat="40.03058781182304" lon="9.486684408870325"><ele>949.0</ele><time>2026-05-01T11:21:06Z</time></trkpt><trkpt lat="40.03045664190055" lon="9.486686467299803"><ele>949.6666666666666</ele><time>2026-05-01T11:21:07Z</time></trkpt><trkpt lat="40.030325199186954" lon="9.486719681457526"><ele>950.3333333333333</ele><time>2026-05-01T11:21:08Z</time></trkpt><trkpt lat="40.030168271121234" lon="9.486756927382524"><ele>951.0</ele><time>2026-05-01T11:21:09Z</time></trkpt><trkpt lat="40.030003804896104" lon="9.486810565608238"><ele>954.3333333333333</ele><time>2026-05-01T11:21:10Z</time></trkpt><trkpt lat="40.02984254866555" lon="9.48687488610658"><ele>957.6666666666666</ele><time>2026-05-01T11:21:11Z</time></trkpt><trkpt lat="40.02968546294187" lon="9.486951039485724"><ele>961.0</ele><time>2026-05-01T11:21:12Z</time></trkpt><trkpt lat="40.02952474003589" lon="9.487014552838573"><ele>955.5</ele><time>2026-05-01T11:21:13Z</time></trkpt><trkpt lat="40.02937813991877" lon="9.487107682043549"><ele>950.0</ele><time>2026-05-01T11:21:14Z</time></trkpt><trkpt lat="40.02924727068915" lon="9.48719242844584"><ele>944.5</ele><time>2026-05-01T11:21:15Z</time></trkpt><trkpt lat="40.029129673685894" lon="9.487272627444831"><ele>939.0</ele><time>2026-05-01T11:21:16Z</time></trkpt><trkpt lat="40.02902728218142" lon="9.487348014676716"><ele>938.0</ele><time>2026-05-01T11:21:17Z</time></trkpt><trkpt lat="40.02894008633978" lon="9.487400241870517"><ele>937.0</ele><time>2026-05-01T11:21:18Z</time></trkpt><trkpt lat="40.02886786348556" lon="9.487416185446577"><ele>936.0</ele><time>2026-05-01T11:21:19Z</time></trkpt><trkpt lat="40.02880521398862" lon="9.487379428699727"><ele>935.0</ele><time>2026-05-01T11:21:20Z</time></trkpt><trkpt lat="40.02874714271166" lon="9.48731763703534"><ele>934.0</ele><time>2026-05-01T11:21:21Z</time></trkpt><trkpt lat="40.02869336855277" lon="9.487234795802403"><ele>933.0</ele><time>2026-05-01T11:21:22Z</time></trkpt><trkpt lat="40.02867998950418" lon="9.487126871098345"><ele>934.5</ele><time>2026-05-01T11:21:23Z</time></trkpt><trkpt lat="40.0287033695537" lon="9.487024670087594"><ele>936.0</ele><time>2026-05-01T11:21:24Z</time></trkpt><trkpt lat="40.02875410844815" lon="9.486930773975791"><ele>937.5</ele><time>2026-05-01T11:21:25Z</time></trkpt><trkpt lat="40.028842074868855" lon="9.486898674571814"><ele>939.0</ele><time>2026-05-01T11:21:26Z</time></trkpt><trkpt lat="40.028928200285826" lon="9.486880343921488"><ele>940.5</ele><time>2026-05-01T11:21:27Z</time></trkpt><trkpt lat="40.029019431751344" lon="9.486932862953228"><ele>942.0</ele><time>2026-05-01T11:21:28Z</time></trkpt><trkpt lat="40.029132363036" lon="9.486941970944734"><ele>945.8</ele><time>2026-05-01T11:21:29Z</time></trkpt><trkpt lat="40.02924510032849" lon="9.486895248089334"><ele>949.6</ele><time>2026-05-01T11:21:30Z</time></trkpt><trkpt lat="40.029340066682465" lon="9.486822849806295"><ele>953.3999999999999</ele><time>2026-05-01T11:21:31Z</time></trkpt><trkpt lat="40.029422810519605" lon="9.486752703902132"><ele>957.1999999999999</ele><time>2026-05-01T11:21:32Z</time></trkpt><trkpt lat="40.02951587985358" lon="9.486663687543226"><ele>961.0</ele><time>2026-05-01T11:21:33Z</time></trkpt><trkpt lat="40.0296105733657" lon="9.486577900904722"><ele>961.0</ele><time>2026-05-01T11:21:34Z</time></trkpt><trkpt lat="40.02971189522407" lon="9.486492849859465"><ele>960.9999999999999</ele><time>2026-05-01T11:21:35Z</time></trkpt><trkpt lat="40.02980711971082" lon="9.486414090600421"><ele>960.9999999999999</ele><time>2026-05-01T11:21:36Z</time></trkpt><trkpt lat="40.02989908276372" lon="9.486341996190577"><ele>961.0</ele><time>2026-05-01T11:21:37Z</time></trkpt><trkpt lat="40.029988891929364" lon="9.486274003212547"><ele>961.0</ele><time>2026-05-01T11:21:38Z</time></trkpt><trkpt lat="40.03007688642946" lon="9.486208305484197"><ele>964.8</ele><time>2026-05-01T11:21:39Z</time></trkpt><trkpt lat="40.03016349356046" lon="9.486141752605967"><ele>968.5999999999999</ele><time>2026-05-01T11:21:40Z</time></trkpt><trkpt lat="40.03025465907049" lon="9.486076124684162"><ele>972.4</ele><time>2026-05-01T11:21:41Z</time></trkpt><trkpt lat="40.030355095775505" lon="9.486006070801341"><ele>976.2</ele><time>2026-05-01T11:21:42Z</time></trkpt><trkpt lat="40.030462244346964" lon="9.485935853216226"><ele>980.0</ele><time>2026-05-01T11:21:43Z</time></trkpt><trkpt lat="40.03056381776558" lon="9.485873977964397"><ele>980.0</ele><time>2026-05-01T11:21:44Z</time></trkpt><trkpt lat="40.03065408172819" lon="9.485838930592275"><ele>980.0</ele><time>2026-05-01T11:21:45Z</time></trkpt><trkpt lat="40.03073046695985" lon="9.485860710690845"><ele>980.0</ele><time>2026-05-01T11:21:46Z</time></trkpt><trkpt lat="40.03080246986855" lon="9.485924171155455"><ele>980.0</ele><time>2026-05-01T11:21:47Z</time></trkpt><trkpt lat="40.03088632556848" lon="9.486009981681306"><ele>980.0</ele><time>2026-05-01T11:21:48Z</time></trkpt><trkpt lat="40.03099324384678" lon="9.486090767062935"><ele>979.0</ele><time>2026-05-01T11:21:49Z</time></trkpt><trkpt lat="40.03112473912212" lon="9.486124310061436"><ele>978.0</ele><time>2026-05-01T11:21:50Z</time></trkpt><trkpt lat="40.031254534993664" lon="9.48618252519602"><ele>977.0</ele><time>2026-05-01T11:21:51Z</time></trkpt><trkpt lat="40.031382090930634" lon="9.486247675376893"><ele>976.0</ele><time>2026-05-01T11:21:52Z</time></trkpt><trkpt lat="40.031497047754584" lon="9.486280498527169"><ele>977.5999999999999</ele><time>2026-05-01T11:21:53Z</time></trkpt><trkpt lat="40.03160357920326" lon="9.486278882129435"><ele>979.1999999999999</ele><time>2026-05-01T11:21:54Z</time></trkpt><trkpt lat="40.03169923546203" lon="9.486236740654826"><ele>980.8000000000001</ele><time>2026-05-01T11:21:55Z</time></trkpt><trkpt lat="40.03175012094795" lon="9.486130500589157"><ele>982.4000000000001</ele><time>2026-05-01T11:21:56Z</time></trkpt><trkpt lat="40.03177913409271" lon="9.486012114622868"><ele>984.0</ele><time>2026-05-01T11:21:57Z</time></trkpt><trkpt lat="40.03179904863124" lon="9.48585722909705"><ele>984.0</ele><time>2026-05-01T11:21:58Z</time></trkpt><trkpt lat="40.03178939305152" lon="9.485682397068745"><ele>984.0</ele><time>2026-05-01T11:21:59Z</time></trkpt><trkpt lat="40.03178457522245" lon="9.485523880236839"><ele>984.0</ele><time>2026-05-01T11:22:00Z</time></trkpt><trkpt lat="40.03174817715775" lon="9.485380999741551"><ele>984.0</ele><time>2026-05-01T11:22:01Z</time></trkpt><trkpt lat="40.03166650260236" lon="9.485266272998974"><ele>987.0</ele><time>2026-05-01T11:22:02Z</time></trkpt><trkpt lat="40.03157640017138" lon="9.48516052303247"><ele>990.0</ele><time>2026-05-01T11:22:03Z</time></trkpt><trkpt lat="40.03146519977502" lon="9.485053853936"><ele>993.0</ele><time>2026-05-01T11:22:04Z</time></trkpt><trkpt lat="40.03137416395046" lon="9.48492827532716"><ele>996.0</ele><time>2026-05-01T11:22:05Z</time></trkpt><trkpt lat="40.03131115701799" lon="9.484787599219787"><ele>996.0</ele><time>2026-05-01T11:22:06Z</time></trkpt><trkpt lat="40.031308302649556" lon="9.484635028496964"><ele>996.0</ele><time>2026-05-01T11:22:07Z</time></trkpt><trkpt lat="40.03133941728628" lon="9.484464112866267"><ele>996.0</ele><time>2026-05-01T11:22:08Z</time></trkpt><trkpt lat="40.03140600850399" lon="9.484287699651878"><ele>996.0</ele><time>2026-05-01T11:22:09Z</time></trkpt><trkpt lat="40.03148320268732" lon="9.484108593366887"><ele>997.6666666666667</ele><time>2026-05-01T11:22:10Z</time></trkpt><trkpt lat="40.031523510799346" lon="9.483892461089484"><ele>999.3333333333334</ele><time>2026-05-01T11:22:11Z</time></trkpt><trkpt lat="40.03160615718928" lon="9.483695643343355"><ele>1001.0</ele><time>2026-05-01T11:22:12Z</time></trkpt><trkpt lat="40.03171432519603" lon="9.483526577955796"><ele>1007.0</ele><time>2026-05-01T11:22:13Z</time></trkpt><trkpt lat="40.031842517066" lon="9.483381634374906"><ele>1013.0</ele><time>2026-05-01T11:22:14Z</time></trkpt><trkpt lat="40.03195621682484" lon="9.483205472091182"><ele>1019.0</ele><time>2026-05-01T11:22:15Z</time></trkpt><trkpt lat="40.032052392442644" lon="9.483001206575867"><ele>1027.0</ele><time>2026-05-01T11:22:16Z</time></trkpt><trkpt lat="40.03211211840172" lon="9.482784444044034"><ele>1035.0</ele><time>2026-05-01T11:22:17Z</time></trkpt><trkpt lat="40.03218484736618" lon="9.482608475384248"><ele>1043.0</ele><time>2026-05-01T11:22:18Z</time></trkpt><trkpt lat="40.032276870178634" lon="9.482475951987512"><ele>1043.0</ele><time>2026-05-01T11:22:19Z</time></trkpt><trkpt lat="40.03238970123315" lon="9.482413965818628"><ele>1043.0</ele><time>2026-05-01T11:22:20Z</time></trkpt><trkpt lat="40.03253073190717" lon="9.482420259758683"><ele>1043.0</ele><time>2026-05-01T11:22:21Z</time></trkpt><trkpt lat="40.0326807196043" lon="9.482369820848465"><ele>1043.0</ele><time>2026-05-01T11:22:22Z</time></trkpt><trkpt lat="40.03282256366564" lon="9.482313585725201"><ele>1037.6666666666667</ele><time>2026-05-01T11:22:23Z</time></trkpt><trkpt lat="40.032964223131245" lon="9.482211665829784"><ele>1032.3333333333333</ele><time>2026-05-01T11:22:24Z</time></trkpt><trkpt lat="40.033108924472565" lon="9.482080970885923"><ele>1027.0</ele><time>2026-05-01T11:22:25Z</time></trkpt><trkpt lat="40.03324997040888" lon="9.481931539625233"><ele>1032.3333333333333</ele><time>2026-05-01T11:22:26Z</time></trkpt><trkpt lat="40.03337018197932" lon="9.481785795742642"><ele>1037.6666666666667</ele><time>2026-05-01T11:22:27Z</time></trkpt><trkpt lat="40.03347195638425" lon="9.481631187452585"><ele>1043.0</ele><time>2026-05-01T11:22:28Z</time></trkpt><trkpt lat="40.03354049303486" lon="9.481449476583652"><ele>1049.6666666666667</ele><time>2026-05-01T11:22:29Z</time></trkpt><trkpt lat="40.033588639510995" lon="9.481248590633367"><ele>1056.3333333333333</ele><time>2026-05-01T11:22:30Z</time></trkpt><trkpt lat="40.033611088269524" lon="9.481030516901248"><ele>1063.0</ele><time>2026-05-01T11:22:31Z</time></trkpt><trkpt lat="40.03361505974102" lon="9.480810429114548"><ele>1063.0</ele><time>2026-05-01T11:22:32Z</time></trkpt><trkpt lat="40.03363815777414" lon="9.480593841684701"><ele>1063.0</ele><time>2026-05-01T11:22:33Z</time></trkpt><trkpt lat="40.03365512521724" lon="9.480404097635112"><ele>1063.0</ele><time>2026-05-01T11:22:34Z</time></trkpt><trkpt lat="40.03370241304251" lon="9.480251052751989"><ele>1063.0</ele><time>2026-05-01T11:22:35Z</time></trkpt><trkpt lat="40.03378227373488" lon="9.48013843658609"><ele>1062.0</ele><time>2026-05-01T11:22:36Z</time></trkpt><trkpt lat="40.03387722018939" lon="9.480065437117528"><ele>1061.0</ele><time>2026-05-01T11:22:37Z</time></trkpt><trkpt lat="40.03398073399144" lon="9.480007658019018"><ele>1060.0</ele><time>2026-05-01T11:22:38Z</time></trkpt><trkpt lat="40.03412018364122" lon="9.479942342430606"><ele>1059.0</ele><time>2026-05-01T11:22:39Z</time></trkpt><trkpt lat="40.0342547781846" lon="9.47985819232983"><ele>1059.0</ele><time>2026-05-01T11:22:40Z</time></trkpt><trkpt lat="40.03437674288485" lon="9.479775724074688"><ele>1059.0</ele><time>2026-05-01T11:22:41Z</time></trkpt><trkpt lat="40.03448373638647" lon="9.479656533794692"><ele>1059.0</ele><time>2026-05-01T11:22:42Z</time></trkpt><trkpt lat="40.03458347854318" lon="9.47950358826823"><ele>1059.0</ele><time>2026-05-01T11:22:43Z</time></trkpt><trkpt lat="40.0346997566347" lon="9.47933109188649"><ele>1060.6666666666667</ele><time>2026-05-01T11:22:44Z</time></trkpt><trkpt lat="40.03483447216732" lon="9.47918769832391"><ele>1062.3333333333335</ele><time>2026-05-01T11:22:45Z</time></trkpt><trkpt lat="40.034938214151715" lon="9.479018682532894"><ele>1064.0</ele><time>2026-05-01T11:22:46Z</time></trkpt><trkpt lat="40.035035608196445" lon="9.478834849359986"><ele>1070.0</ele><time>2026-05-01T11:22:47Z</time></trkpt><trkpt lat="40.03513114732136" lon="9.478651414497346"><ele>1076.0</ele><time>2026-05-01T11:22:48Z</time></trkpt><trkpt lat="40.03520701448004" lon="9.478457860942074"><ele>1082.0</ele><time>2026-05-01T11:22:49Z</time></trkpt><trkpt lat="40.03531438196718" lon="9.478335351953918"><ele>1082.0</ele><time>2026-05-01T11:22:50Z</time></trkpt><trkpt lat="40.035418114815144" lon="9.478233718173124"><ele>1082.0</ele><time>2026-05-01T11:22:51Z</time></trkpt><trkpt lat="40.03551585568633" lon="9.478158888400785"><ele>1082.0</ele><time>2026-05-01T11:22:52Z</time></trkpt><trkpt lat="40.03559894191096" lon="9.47807942476478"><ele>1082.0</ele><time>2026-05-01T11:22:53Z</time></trkpt><trkpt lat="40.03567477627106" lon="9.477974193854786"><ele>1083.5</ele><time>2026-05-01T11:22:54Z</time></trkpt><trkpt lat="40.035746077986246" lon="9.477858627300716"><ele>1085.0</ele><time>2026-05-01T11:22:55Z</time></trkpt><trkpt lat="40.035813128743484" lon="9.47773221814671"><ele>1086.5</ele><time>2026-05-01T11:22:56Z</time></trkpt><trkpt lat="40.035881543619574" lon="9.47760741918978"><ele>1088.0</ele><time>2026-05-01T11:22:57Z</time></trkpt><trkpt lat="40.0359522528324" lon="9.477484716319223"><ele>1088.0</ele><time>2026-05-01T11:22:58Z</time></trkpt><trkpt lat="40.0360242278325" lon="9.477363046958684"><ele>1088.0</ele><time>2026-05-01T11:22:59Z</time></trkpt><trkpt lat="40.03609292003873" lon="9.477242272455006"><ele>1088.0</ele><time>2026-05-01T11:23:00Z</time></trkpt><trkpt lat="40.03616724812706" lon="9.477127211577104"><ele>1088.0</ele><time>2026-05-01T11:23:01Z</time></trkpt><trkpt lat="40.036223863187324" lon="9.476990869005501"><ele>1088.75</ele><time>2026-05-01T11:23:02Z</time></trkpt><trkpt lat="40.03627727311296" lon="9.476854544544283"><ele>1089.5</ele><time>2026-05-01T11:23:03Z</time></trkpt><trkpt lat="40.03631245904666" lon="9.476705422857219"><ele>1090.25</ele><time>2026-05-01T11:23:04Z</time></trkpt><trkpt lat="40.03634679517721" lon="9.476557090765825"><ele>1091.0</ele><time>2026-05-01T11:23:05Z</time></trkpt><trkpt lat="40.036383956609164" lon="9.476405776921817"><ele>1091.6</ele><time>2026-05-01T11:23:06Z</time></trkpt><trkpt lat="40.03642367924793" lon="9.476255622905226"><ele>1092.1999999999998</ele><time>2026-05-01T11:23:07Z</time></trkpt><trkpt lat="40.036458446150334" lon="9.476116524295785"><ele>1092.8000000000002</ele><time>2026-05-01T11:23:08Z</time></trkpt><trkpt lat="40.036480641698816" lon="9.476024418744426"><ele>1093.4</ele><time>2026-05-01T11:23:09Z</time></trkpt><trkpt lat="40.03650646084592" lon="9.475921323532802"><ele>1094.0</ele><time>2026-05-01T11:23:11Z</time></trkpt><trkpt lat="40.03653260253763" lon="9.475813038296131"><ele>1094.0</ele><time>2026-05-01T11:23:14Z</time></trkpt><trkpt lat="40.03655004264707" lon="9.475717455583206"><ele>1094.0</ele><time>2026-05-01T11:23:17Z</time></trkpt><trkpt lat="40.03657946432041" lon="9.475590560090549"><ele>1094.0</ele><time>2026-05-01T11:23:19Z</time></trkpt><trkpt lat="40.03659442024395" lon="9.4754097532683"><ele>1094.0</ele><time>2026-05-01T11:23:21Z</time></trkpt><trkpt lat="40.036589479708255" lon="9.475296317598369"><ele>1094.0</ele><time>2026-05-01T11:23:22Z</time></trkpt><trkpt lat="40.03654972263669" lon="9.475176075449141"><ele>1093.8</ele><time>2026-05-01T11:23:23Z</time></trkpt><trkpt lat="40.03650897320886" lon="9.475048557241296"><ele>1093.6000000000001</ele><time>2026-05-01T11:23:24Z</time></trkpt><trkpt lat="40.03647680875919" lon="9.474931942995628"><ele>1093.4</ele><time>2026-05-01T11:23:25Z</time></trkpt><trkpt lat="40.03643963254713" lon="9.474828264888018"><ele>1093.2</ele><time>2026-05-01T11:23:26Z</time></trkpt><trkpt lat="40.0364057512176" lon="9.474716474030823"><ele>1093.0</ele><time>2026-05-01T11:23:27Z</time></trkpt><trkpt lat="40.03636494589639" lon="9.474602868065013"><ele>1092.6</ele><time>2026-05-01T11:23:28Z</time></trkpt><trkpt lat="40.03632273807039" lon="9.474482567043879"><ele>1092.1999999999998</ele><time>2026-05-01T11:23:29Z</time></trkpt><trkpt lat="40.03628344024084" lon="9.474358654860415"><ele>1091.8</ele><time>2026-05-01T11:23:30Z</time></trkpt><trkpt lat="40.03624509584923" lon="9.47422947700581"><ele>1091.3999999999999</ele><time>2026-05-01T11:23:31Z</time></trkpt><trkpt lat="40.036208804965526" lon="9.474095469314603"><ele>1091.0</ele><time>2026-05-01T11:23:32Z</time></trkpt><trkpt lat="40.036174476901266" lon="9.47395721806349"><ele>1091.0</ele><time>2026-05-01T11:23:33Z</time></trkpt><trkpt lat="40.036153724692724" lon="9.473809719159055"><ele>1091.0</ele><time>2026-05-01T11:23:34Z</time></trkpt><trkpt lat="40.03611437801808" lon="9.473665473883585"><ele>1091.0</ele><time>2026-05-01T11:23:35Z</time></trkpt><trkpt lat="40.036078215806285" lon="9.473516879167079"><ele>1091.0</ele><time>2026-05-01T11:23:36Z</time></trkpt><trkpt lat="40.03603719791544" lon="9.473364482771434"><ele>1090.5</ele><time>2026-05-01T11:23:37Z</time></trkpt><trkpt lat="40.03599417202467" lon="9.473209610905363"><ele>1090.0</ele><time>2026-05-01T11:23:38Z</time></trkpt><trkpt lat="40.03594894238248" lon="9.473051041504847"><ele>1089.5</ele><time>2026-05-01T11:23:39Z</time></trkpt><trkpt lat="40.03590171411308" lon="9.472887550005684"><ele>1089.0</ele><time>2026-05-01T11:23:40Z</time></trkpt><trkpt lat="40.035858017167776" lon="9.472717948808445"><ele>1088.5</ele><time>2026-05-01T11:23:41Z</time></trkpt><trkpt lat="40.035820494336576" lon="9.4725475672573"><ele>1088.0</ele><time>2026-05-01T11:23:42Z</time></trkpt><trkpt lat="40.03578367335354" lon="9.47237783006968"><ele>1087.5</ele><time>2026-05-01T11:23:43Z</time></trkpt><trkpt lat="40.035747385430206" lon="9.472212458990375"><ele>1087.0</ele><time>2026-05-01T11:23:44Z</time></trkpt><trkpt lat="40.0357126170296" lon="9.472043187953835"><ele>1086.5</ele><time>2026-05-01T11:23:45Z</time></trkpt><trkpt lat="40.03567592338181" lon="9.471876480164003"><ele>1086.0</ele><time>2026-05-01T11:23:46Z</time></trkpt><trkpt lat="40.03564018246463" lon="9.471712076841898"><ele>1085.5</ele><time>2026-05-01T11:23:47Z</time></trkpt><trkpt lat="40.03560959321655" lon="9.47155001068249"><ele>1085.0</ele><time>2026-05-01T11:23:48Z</time></trkpt><trkpt lat="40.03557860887666" lon="9.471388338152401"><ele>1084.75</ele><time>2026-05-01T11:23:49Z</time></trkpt><trkpt lat="40.03554588407019" lon="9.471226004376808"><ele>1084.5</ele><time>2026-05-01T11:23:50Z</time></trkpt><trkpt lat="40.03551201903042" lon="9.471061656212417"><ele>1084.25</ele><time>2026-05-01T11:23:51Z</time></trkpt><trkpt lat="40.0354765289581" lon="9.470889003998042"><ele>1084.0</ele><time>2026-05-01T11:23:52Z</time></trkpt><trkpt lat="40.03544136643351" lon="9.470714221744894"><ele>1084.0</ele><time>2026-05-01T11:23:53Z</time></trkpt><trkpt lat="40.03540193496194" lon="9.470533227230824"><ele>1084.0</ele><time>2026-05-01T11:23:54Z</time></trkpt><trkpt lat="40.03536439243065" lon="9.470346570065187"><ele>1084.0</ele><time>2026-05-01T11:23:55Z</time></trkpt><trkpt lat="40.03532385891635" lon="9.470157523060372"><ele>1084.0</ele><time>2026-05-01T11:23:56Z</time></trkpt><trkpt lat="40.035283950732925" lon="9.469962260624307"><ele>1084.6666666666665</ele><time>2026-05-01T11:23:57Z</time></trkpt><trkpt lat="40.035247322451625" lon="9.469758577551566"><ele>1085.3333333333333</ele><time>2026-05-01T11:23:58Z</time></trkpt><trkpt lat="40.0352217070725" lon="9.469539963783882"><ele>1086.0</ele><time>2026-05-01T11:23:59Z</time></trkpt><trkpt lat="40.03521181797589" lon="9.469321813399128"><ele>1086.6666666666667</ele><time>2026-05-01T11:24:00Z</time></trkpt><trkpt lat="40.03524200138433" lon="9.469079963334783"><ele>1087.3333333333335</ele><time>2026-05-01T11:24:01Z</time></trkpt><trkpt lat="40.035276688394035" lon="9.46883680523104"><ele>1088.0</ele><time>2026-05-01T11:24:02Z</time></trkpt><trkpt lat="40.035326429949755" lon="9.468586006823818"><ele>1088.3333333333335</ele><time>2026-05-01T11:24:03Z</time></trkpt><trkpt lat="40.03539094769903" lon="9.468332961357763"><ele>1088.6666666666667</ele><time>2026-05-01T11:24:04Z</time></trkpt><trkpt lat="40.03546110327276" lon="9.468088058792514"><ele>1089.0</ele><time>2026-05-01T11:24:05Z</time></trkpt><trkpt lat="40.03553780124498" lon="9.467836428138769"><ele>1090.6666666666667</ele><time>2026-05-01T11:24:06Z</time></trkpt><trkpt lat="40.03561659422863" lon="9.467606854955443"><ele>1092.3333333333335</ele><time>2026-05-01T11:24:07Z</time></trkpt><trkpt lat="40.035678366452316" lon="9.467388390628285"><ele>1094.0</ele><time>2026-05-01T11:24:08Z</time></trkpt><trkpt lat="40.03573255862854" lon="9.467183970325436"><ele>1093.6666666666667</ele><time>2026-05-01T11:24:09Z</time></trkpt><trkpt lat="40.035793175659464" lon="9.466976577211037"><ele>1093.3333333333333</ele><time>2026-05-01T11:24:10Z</time></trkpt><trkpt lat="40.035855332918786" lon="9.46677769652788"><ele>1093.0</ele><time>2026-05-01T11:24:11Z</time></trkpt><trkpt lat="40.03591089396896" lon="9.46657840692787"><ele>1095.0</ele><time>2026-05-01T11:24:12Z</time></trkpt><trkpt lat="40.03596264192167" lon="9.46638003147062"><ele>1097.0</ele><time>2026-05-01T11:24:13Z</time></trkpt><trkpt lat="40.03602152702441" lon="9.46617366759841"><ele>1099.0</ele><time>2026-05-01T11:24:14Z</time></trkpt><trkpt lat="40.03607994853214" lon="9.465971569312085"><ele>1099.0</ele><time>2026-05-01T11:24:15Z</time></trkpt><trkpt lat="40.036139366274426" lon="9.465767160298412"><ele>1099.0</ele><time>2026-05-01T11:24:16Z</time></trkpt><trkpt lat="40.03619874525276" lon="9.465561017857148"><ele>1099.0</ele><time>2026-05-01T11:24:17Z</time></trkpt><trkpt lat="40.03625623783367" lon="9.465354008959675"><ele>1098.3333333333333</ele><time>2026-05-01T11:24:18Z</time></trkpt><trkpt lat="40.03631717269064" lon="9.465149522643333"><ele>1097.6666666666667</ele><time>2026-05-01T11:24:19Z</time></trkpt><trkpt lat="40.03638417463908" lon="9.46494374741684"><ele>1097.0</ele><time>2026-05-01T11:24:20Z</time></trkpt><trkpt lat="40.03646475285173" lon="9.464745481762776"><ele>1097.3333333333335</ele><time>2026-05-01T11:24:21Z</time></trkpt><trkpt lat="40.03655906194752" lon="9.464558409022608"><ele>1097.6666666666667</ele><time>2026-05-01T11:24:22Z</time></trkpt><trkpt lat="40.03666562625813" lon="9.464378541066056"><ele>1098.0</ele><time>2026-05-01T11:24:23Z</time></trkpt><trkpt lat="40.03678094683774" lon="9.464203715426482"><ele>1098.0</ele><time>2026-05-01T11:24:24Z</time></trkpt><trkpt lat="40.03690544516951" lon="9.46403291698461"><ele>1098.0</ele><time>2026-05-01T11:24:25Z</time></trkpt><trkpt lat="40.03703791286925" lon="9.463862926345206"><ele>1098.0</ele><time>2026-05-01T11:24:26Z</time></trkpt><trkpt lat="40.03717258242387" lon="9.46368907771412"><ele>1098.0</ele><time>2026-05-01T11:24:27Z</time></trkpt><trkpt lat="40.03730610686748" lon="9.463513048094951"><ele>1098.0</ele><time>2026-05-01T11:24:28Z</time></trkpt><trkpt lat="40.03744082619698" lon="9.463334950297506"><ele>1098.0</ele><time>2026-05-01T11:24:29Z</time></trkpt><trkpt lat="40.03757598441614" lon="9.463152931526032"><ele>1098.0</ele><time>2026-05-01T11:24:30Z</time></trkpt><trkpt lat="40.037711248122264" lon="9.462969049955978"><ele>1098.0</ele><time>2026-05-01T11:24:31Z</time></trkpt><trkpt lat="40.03784364709334" lon="9.46279213366609"><ele>1098.0</ele><time>2026-05-01T11:24:32Z</time></trkpt><trkpt lat="40.03796563777072" lon="9.462627978438617"><ele>1098.0</ele><time>2026-05-01T11:24:33Z</time></trkpt><trkpt lat="40.038080471611494" lon="9.462471849956058"><ele>1098.0</ele><time>2026-05-01T11:24:34Z</time></trkpt><trkpt lat="40.03819583788367" lon="9.462314570531255"><ele>1098.0</ele><time>2026-05-01T11:24:35Z</time></trkpt><trkpt lat="40.03831775342084" lon="9.46215928564263"><ele>1095.3333333333333</ele><time>2026-05-01T11:24:36Z</time></trkpt><trkpt lat="40.03844827812591" lon="9.462015176308554"><ele>1092.6666666666665</ele><time>2026-05-01T11:24:37Z</time></trkpt><trkpt lat="40.03859947282334" lon="9.461889899960843"><ele>1090.0</ele><time>2026-05-01T11:24:38Z</time></trkpt><trkpt lat="40.03876838700092" lon="9.461803112411165"><ele>1090.0</ele><time>2026-05-01T11:24:39Z</time></trkpt><trkpt lat="40.03894281172686" lon="9.461733307417125"><ele>1090.0</ele><time>2026-05-01T11:24:40Z</time></trkpt><trkpt lat="40.03911493489244" lon="9.461646620209388"><ele>1090.0</ele><time>2026-05-01T11:24:41Z</time></trkpt><trkpt lat="40.03928191381674" lon="9.4615417178773"><ele>1090.6666666666665</ele><time>2026-05-01T11:24:42Z</time></trkpt><trkpt lat="40.03944795515035" lon="9.461428757606724"><ele>1091.3333333333333</ele><time>2026-05-01T11:24:43Z</time></trkpt><trkpt lat="40.03961702377897" lon="9.461313594371717"><ele>1092.0</ele><time>2026-05-01T11:24:44Z</time></trkpt><trkpt lat="40.039785755972844" lon="9.461197361832374"><ele>1091.3333333333333</ele><time>2026-05-01T11:24:45Z</time></trkpt><trkpt lat="40.039954812980795" lon="9.461081173429209"><ele>1090.6666666666665</ele><time>2026-05-01T11:24:46Z</time></trkpt><trkpt lat="40.0401247167419" lon="9.460964842271334"><ele>1090.0</ele><time>2026-05-01T11:24:47Z</time></trkpt><trkpt lat="40.04029350682297" lon="9.460848925487342"><ele>1090.0</ele><time>2026-05-01T11:24:48Z</time></trkpt><trkpt lat="40.04046213630911" lon="9.46073461074726"><ele>1090.0</ele><time>2026-05-01T11:24:49Z</time></trkpt><trkpt lat="40.04062921976981" lon="9.460620701892584"><ele>1090.0</ele><time>2026-05-01T11:24:50Z</time></trkpt><trkpt lat="40.040787088798375" lon="9.460503558356626"><ele>1087.6666666666665</ele><time>2026-05-01T11:24:51Z</time></trkpt><trkpt lat="40.04092685203611" lon="9.460370723983505"><ele>1085.3333333333333</ele><time>2026-05-01T11:24:52Z</time></trkpt><trkpt lat="40.04104849456812" lon="9.460213568284523"><ele>1083.0</ele><time>2026-05-01T11:24:53Z</time></trkpt><trkpt lat="40.04114208044547" lon="9.460041854843768"><ele>1083.0</ele><time>2026-05-01T11:24:54Z</time></trkpt><trkpt lat="40.04121787045358" lon="9.459838595717912"><ele>1083.0</ele><time>2026-05-01T11:24:55Z</time></trkpt><trkpt lat="40.04129235145933" lon="9.459617625166025"><ele>1083.0</ele><time>2026-05-01T11:24:56Z</time></trkpt><trkpt lat="40.04137157913486" lon="9.459387877778104"><ele>1080.6666666666667</ele><time>2026-05-01T11:24:57Z</time></trkpt><trkpt lat="40.04145613534826" lon="9.4591448206335"><ele>1078.3333333333335</ele><time>2026-05-01T11:24:58Z</time></trkpt><trkpt lat="40.041545757060895" lon="9.458891813330967"><ele>1076.0</ele><time>2026-05-01T11:24:59Z</time></trkpt><trkpt lat="40.04163640765489" lon="9.458631875054948"><ele>1076.0</ele><time>2026-05-01T11:25:00Z</time></trkpt><trkpt lat="40.0417284917946" lon="9.458365703422226"><ele>1076.0</ele><time>2026-05-01T11:25:01Z</time></trkpt><trkpt lat="40.04182332953303" lon="9.45809385659875"><ele>1072.0</ele><time>2026-05-01T11:25:02Z</time></trkpt><trkpt lat="40.041918148442726" lon="9.45781987363862"><ele>1068.0</ele><time>2026-05-01T11:25:03Z</time></trkpt><trkpt lat="40.04201128102691" lon="9.457551165490806"><ele>1068.0</ele><time>2026-05-01T11:25:04Z</time></trkpt><trkpt lat="40.04209954245026" lon="9.457291045366857"><ele>1068.0</ele><time>2026-05-01T11:25:05Z</time></trkpt><trkpt lat="40.04219113391185" lon="9.457036001743427"><ele>1068.0</ele><time>2026-05-01T11:25:06Z</time></trkpt><trkpt lat="40.04227993110351" lon="9.456790270692055"><ele>1067.6666666666667</ele><time>2026-05-01T11:25:07Z</time></trkpt><trkpt lat="40.04236670613829" lon="9.456549870137673"><ele>1067.3333333333335</ele><time>2026-05-01T11:25:08Z</time></trkpt><trkpt lat="40.04245178582931" lon="9.456313190958266"><ele>1067.0</ele><time>2026-05-01T11:25:09Z</time></trkpt><trkpt lat="40.04253705710707" lon="9.456078781382832"><ele>1066.3333333333335</ele><time>2026-05-01T11:25:10Z</time></trkpt><trkpt lat="40.0426254022776" lon="9.45584540558503"><ele>1065.6666666666667</ele><time>2026-05-01T11:25:11Z</time></trkpt><trkpt lat="40.04271361159246" lon="9.455614447646916"><ele>1065.0</ele><time>2026-05-01T11:25:12Z</time></trkpt><trkpt lat="40.0427977499607" lon="9.455398145201942"><ele>1065.0</ele><time>2026-05-01T11:25:13Z</time></trkpt><trkpt lat="40.04287524893046" lon="9.455198610688367"><ele>1065.0</ele><time>2026-05-01T11:25:14Z</time></trkpt><trkpt lat="40.042940933404275" lon="9.455026207724153"><ele>1065.0</ele><time>2026-05-01T11:25:15Z</time></trkpt><trkpt lat="40.04299777871259" lon="9.454869814515293"><ele>1065.0</ele><time>2026-05-01T11:25:16Z</time></trkpt><trkpt lat="40.04305244358869" lon="9.454725970166873"><ele>1065.0</ele><time>2026-05-01T11:25:17Z</time></trkpt><trkpt lat="40.0430971214033" lon="9.454599564111028"><ele>1065.0</ele><time>2026-05-01T11:25:18Z</time></trkpt><trkpt lat="40.043117260889396" lon="9.454480433727417"><ele>1065.0</ele><time>2026-05-01T11:25:19Z</time></trkpt><trkpt lat="40.04311654987477" lon="9.454381629281153"><ele>1065.0</ele><time>2026-05-01T11:25:20Z</time></trkpt><trkpt lat="40.043088270366" lon="9.454300123301508"><ele>1066.3333333333333</ele><time>2026-05-01T11:25:21Z</time></trkpt><trkpt lat="40.043042080736434" lon="9.454233201804753"><ele>1067.6666666666667</ele><time>2026-05-01T11:25:22Z</time></trkpt><trkpt lat="40.042982068489565" lon="9.45417082229132"><ele>1069.0</ele><time>2026-05-01T11:25:23Z</time></trkpt><trkpt lat="40.042921555669324" lon="9.454100100117726"><ele>1070.3333333333335</ele><time>2026-05-01T11:25:24Z</time></trkpt><trkpt lat="40.042851991063024" lon="9.454020583749998"><ele>1071.6666666666667</ele><time>2026-05-01T11:25:25Z</time></trkpt><trkpt lat="40.042766715148744" lon="9.453942364720533"><ele>1073.0</ele><time>2026-05-01T11:25:26Z</time></trkpt><trkpt lat="40.0426602326263" lon="9.453884182971038"><ele>1073.0</ele><time>2026-05-01T11:25:27Z</time></trkpt><trkpt lat="40.04254192143689" lon="9.453835971179208"><ele>1073.0</ele><time>2026-05-01T11:25:28Z</time></trkpt><trkpt lat="40.04241497222626" lon="9.453785737258318"><ele>1073.0</ele><time>2026-05-01T11:25:29Z</time></trkpt><trkpt lat="40.04227892995597" lon="9.453730364432051"><ele>1073.0</ele><time>2026-05-01T11:25:30Z</time></trkpt><trkpt lat="40.04213562142066" lon="9.453675588535111"><ele>1078.6666666666667</ele><time>2026-05-01T11:25:31Z</time></trkpt><trkpt lat="40.041986219664004" lon="9.453625444532518"><ele>1084.3333333333333</ele><time>2026-05-01T11:25:32Z</time></trkpt><trkpt lat="40.041839648759456" lon="9.45357212386871"><ele>1090.0</ele><time>2026-05-01T11:25:33Z</time></trkpt><trkpt lat="40.04169515243218" lon="9.45351576861331"><ele>1087.25</ele><time>2026-05-01T11:25:34Z</time></trkpt><trkpt lat="40.04155274493302" lon="9.453464371282573"><ele>1084.5</ele><time>2026-05-01T11:25:35Z</time></trkpt><trkpt lat="40.041412757647414" lon="9.453414846553871"><ele>1081.75</ele><time>2026-05-01T11:25:36Z</time></trkpt><trkpt lat="40.041275989654984" lon="9.453363649777618"><ele>1079.0</ele><time>2026-05-01T11:25:37Z</time></trkpt><trkpt lat="40.04114195065248" lon="9.453313808481528"><ele>1079.0</ele><time>2026-05-01T11:25:38Z</time></trkpt><trkpt lat="40.041011367960905" lon="9.453264400043116"><ele>1079.0</ele><time>2026-05-01T11:25:39Z</time></trkpt><trkpt lat="40.0408826460091" lon="9.453217448980952"><ele>1079.0</ele><time>2026-05-01T11:25:40Z</time></trkpt><trkpt lat="40.04075436765764" lon="9.453177569597512"><ele>1079.0</ele><time>2026-05-01T11:25:41Z</time></trkpt><trkpt lat="40.04062185039439" lon="9.453138844139955"><ele>1076.5</ele><time>2026-05-01T11:25:42Z</time></trkpt><trkpt lat="40.04048595587291" lon="9.45310226235226"><ele>1074.0</ele><time>2026-05-01T11:25:43Z</time></trkpt><trkpt lat="40.040345942024764" lon="9.453057826223251"><ele>1071.5</ele><time>2026-05-01T11:25:44Z</time></trkpt><trkpt lat="40.04020316944871" lon="9.453005023112626"><ele>1069.0</ele><time>2026-05-01T11:25:45Z</time></trkpt><trkpt lat="40.040058141074404" lon="9.452940033934912"><ele>1072.6666666666665</ele><time>2026-05-01T11:25:46Z</time></trkpt><trkpt lat="40.03991324676355" lon="9.452862344640545"><ele>1076.3333333333333</ele><time>2026-05-01T11:25:47Z</time></trkpt><trkpt lat="40.03976688479222" lon="9.452778302321128"><ele>1080.0</ele><time>2026-05-01T11:25:48Z</time></trkpt><trkpt lat="40.03961957385366" lon="9.452685986207426"><ele>1080.0</ele><time>2026-05-01T11:25:49Z</time></trkpt><trkpt lat="40.03947468286956" lon="9.452584652747536"><ele>1080.0</ele><time>2026-05-01T11:25:50Z</time></trkpt><trkpt lat="40.03933619436465" lon="9.45247490638978"><ele>1080.0</ele><time>2026-05-01T11:25:51Z</time></trkpt><trkpt lat="40.03920127669156" lon="9.452362336836634"><ele>1083.3333333333333</ele><time>2026-05-01T11:25:52Z</time></trkpt><trkpt lat="40.039067727304186" lon="9.45225701431483"><ele>1086.6666666666665</ele><time>2026-05-01T11:25:53Z</time></trkpt><trkpt lat="40.0389343703281" lon="9.452154548217967"><ele>1090.0</ele><time>2026-05-01T11:25:54Z</time></trkpt><trkpt lat="40.03880112440886" lon="9.452053792761767"><ele>1090.0</ele><time>2026-05-01T11:25:55Z</time></trkpt><trkpt lat="40.03866963511208" lon="9.451958265130536"><ele>1090.0</ele><time>2026-05-01T11:25:56Z</time></trkpt><trkpt lat="40.038533988210744" lon="9.451874394179498"><ele>1090.0</ele><time>2026-05-01T11:25:57Z</time></trkpt><trkpt lat="40.038395395575044" lon="9.451810503463516"><ele>1090.0</ele><time>2026-05-01T11:25:58Z</time></trkpt><trkpt lat="40.03826014689554" lon="9.451753319865233"><ele>1088.25</ele><time>2026-05-01T11:25:59Z</time></trkpt><trkpt lat="40.038130017402686" lon="9.451694317411857"><ele>1086.5</ele><time>2026-05-01T11:26:00Z</time></trkpt><trkpt lat="40.03801062639742" lon="9.451616627438082"><ele>1084.75</ele><time>2026-05-01T11:26:01Z</time></trkpt><trkpt lat="40.03791320847893" lon="9.451502610710937"><ele>1083.0</ele><time>2026-05-01T11:26:02Z</time></trkpt><trkpt lat="40.037842754038785" lon="9.451368459210745"><ele>1085.5</ele><time>2026-05-01T11:26:03Z</time></trkpt><trkpt lat="40.037821187438624" lon="9.451177720078176"><ele>1088.0</ele><time>2026-05-01T11:26:04Z</time></trkpt><trkpt lat="40.03780229419608" lon="9.450999396184981"><ele>1090.5</ele><time>2026-05-01T11:26:05Z</time></trkpt><trkpt lat="40.03779383329618" lon="9.450820543721465"><ele>1093.0</ele><time>2026-05-01T11:26:06Z</time></trkpt><trkpt lat="40.03778873748835" lon="9.450644823721241"><ele>1093.0</ele><time>2026-05-01T11:26:07Z</time></trkpt><trkpt lat="40.03778643244503" lon="9.450472058758173"><ele>1093.0</ele><time>2026-05-01T11:26:08Z</time></trkpt><trkpt lat="40.03778316913989" lon="9.450294713582542"><ele>1093.0</ele><time>2026-05-01T11:26:09Z</time></trkpt><trkpt lat="40.03778150682901" lon="9.450115490903015"><ele>1093.0</ele><time>2026-05-01T11:26:10Z</time></trkpt><trkpt lat="40.03777496648833" lon="9.449928093320676"><ele>1093.3333333333333</ele><time>2026-05-01T11:26:11Z</time></trkpt><trkpt lat="40.03776534678394" lon="9.449730806965272"><ele>1093.6666666666667</ele><time>2026-05-01T11:26:12Z</time></trkpt><trkpt lat="40.03775518294128" lon="9.449529864410426"><ele>1094.0</ele><time>2026-05-01T11:26:13Z</time></trkpt><trkpt lat="40.03774604237052" lon="9.449321711146665"><ele>1094.0</ele><time>2026-05-01T11:26:14Z</time></trkpt><trkpt lat="40.03773509618168" lon="9.449105482062413"><ele>1094.0</ele><time>2026-05-01T11:26:15Z</time></trkpt><trkpt lat="40.03772653035282" lon="9.448884717729113"><ele>1094.0</ele><time>2026-05-01T11:26:16Z</time></trkpt><trkpt lat="40.037717715810125" lon="9.448659715908388"><ele>1093.0</ele><time>2026-05-01T11:26:17Z</time></trkpt><trkpt lat="40.037710746349724" lon="9.448431291469628"><ele>1092.0</ele><time>2026-05-01T11:26:18Z</time></trkpt><trkpt lat="40.03770085450774" lon="9.448200241021448"><ele>1091.0</ele><time>2026-05-01T11:26:19Z</time></trkpt><trkpt lat="40.03768653750979" lon="9.447965658140607"><ele>1089.6666666666667</ele><time>2026-05-01T11:26:20Z</time></trkpt><trkpt lat="40.037659074450026" lon="9.447729367248785"><ele>1088.3333333333333</ele><time>2026-05-01T11:26:21Z</time></trkpt><trkpt lat="40.03762386102144" lon="9.447493466527643"><ele>1087.0</ele><time>2026-05-01T11:26:22Z</time></trkpt><trkpt lat="40.03757808164299" lon="9.447255349757517"><ele>1084.6666666666665</ele><time>2026-05-01T11:26:23Z</time></trkpt><trkpt lat="40.03752202008564" lon="9.447015484883117"><ele>1082.3333333333333</ele><time>2026-05-01T11:26:24Z</time></trkpt><trkpt lat="40.03745784918617" lon="9.446774008456615"><ele>1080.0</ele><time>2026-05-01T11:26:25Z</time></trkpt><trkpt lat="40.037386856575054" lon="9.446527168945234"><ele>1081.6666666666667</ele><time>2026-05-01T11:26:26Z</time></trkpt><trkpt lat="40.03731810505829" lon="9.44627422164642"><ele>1083.3333333333335</ele><time>2026-05-01T11:26:27Z</time></trkpt><trkpt lat="40.03725224512974" lon="9.446034530651394"><ele>1085.0</ele><time>2026-05-01T11:26:28Z</time></trkpt><trkpt lat="40.03718076690871" lon="9.445806878569329"><ele>1085.0</ele><time>2026-05-01T11:26:29Z</time></trkpt><trkpt lat="40.03709666304068" lon="9.445591273456095"><ele>1085.0</ele><time>2026-05-01T11:26:30Z</time></trkpt><trkpt lat="40.036991585508915" lon="9.44538286785954"><ele>1085.0</ele><time>2026-05-01T11:26:31Z</time></trkpt><trkpt lat="40.0368677700873" lon="9.445172530995249"><ele>1086.6666666666667</ele><time>2026-05-01T11:26:32Z</time></trkpt><trkpt lat="40.0367427452929" lon="9.444960957932574"><ele>1088.3333333333333</ele><time>2026-05-01T11:26:33Z</time></trkpt><trkpt lat="40.03661002164664" lon="9.444752499657525"><ele>1090.0</ele><time>2026-05-01T11:26:34Z</time></trkpt><trkpt lat="40.03647175733838" lon="9.444545190965194"><ele>1083.6666666666665</ele><time>2026-05-01T11:26:35Z</time></trkpt><trkpt lat="40.03632898614827" lon="9.444344534394604"><ele>1077.3333333333333</ele><time>2026-05-01T11:26:36Z</time></trkpt><trkpt lat="40.03617393708179" lon="9.444150406139856"><ele>1071.0</ele><time>2026-05-01T11:26:37Z</time></trkpt><trkpt lat="40.03601069439177" lon="9.44395798181018"><ele>1067.0</ele><time>2026-05-01T11:26:38Z</time></trkpt><trkpt lat="40.03584292727068" lon="9.443763818175155"><ele>1063.0</ele><time>2026-05-01T11:26:39Z</time></trkpt><trkpt lat="40.03567020645801" lon="9.443573226211063"><ele>1063.0</ele><time>2026-05-01T11:26:40Z</time></trkpt><trkpt lat="40.03549413843256" lon="9.443381153199812"><ele>1063.0</ele><time>2026-05-01T11:26:41Z</time></trkpt><trkpt lat="40.03531996382929" lon="9.443187163013638"><ele>1063.0</ele><time>2026-05-01T11:26:42Z</time></trkpt><trkpt lat="40.035146516884375" lon="9.442992379837134"><ele>1063.0</ele><time>2026-05-01T11:26:43Z</time></trkpt><trkpt lat="40.03497283770113" lon="9.442795739899998"><ele>1060.5</ele><time>2026-05-01T11:26:44Z</time></trkpt><trkpt lat="40.03479852082371" lon="9.442598907063342"><ele>1058.0</ele><time>2026-05-01T11:26:45Z</time></trkpt><trkpt lat="40.034624139181574" lon="9.442402181118752"><ele>1058.0</ele><time>2026-05-01T11:26:46Z</time></trkpt><trkpt lat="40.034450874190014" lon="9.44220288389228"><ele>1058.0</ele><time>2026-05-01T11:26:47Z</time></trkpt><trkpt lat="40.034275358954226" lon="9.442010206756493"><ele>1058.3333333333335</ele><time>2026-05-01T11:26:48Z</time></trkpt><trkpt lat="40.03410141152338" lon="9.441817214476176"><ele>1058.6666666666667</ele><time>2026-05-01T11:26:49Z</time></trkpt><trkpt lat="40.03394492103674" lon="9.441622946092217"><ele>1059.0</ele><time>2026-05-01T11:26:50Z</time></trkpt><trkpt lat="40.03379205494306" lon="9.441413039919704"><ele>1052.5</ele><time>2026-05-01T11:26:51Z</time></trkpt><trkpt lat="40.03365798834869" lon="9.44118149652022"><ele>1046.0</ele><time>2026-05-01T11:26:52Z</time></trkpt><trkpt lat="40.033545474493344" lon="9.44091426008406"><ele>1046.0</ele><time>2026-05-01T11:26:53Z</time></trkpt><trkpt lat="40.0334401327707" lon="9.44062739985525"><ele>1046.0</ele><time>2026-05-01T11:26:54Z</time></trkpt><trkpt lat="40.03333722451609" lon="9.440321846411825"><ele>1048.0</ele><time>2026-05-01T11:26:55Z</time></trkpt><trkpt lat="40.03323123776854" lon="9.440006091862848"><ele>1050.0</ele><time>2026-05-01T11:26:56Z</time></trkpt><trkpt lat="40.033121598504025" lon="9.439688704258371"><ele>1045.0</ele><time>2026-05-01T11:26:57Z</time></trkpt><trkpt lat="40.033009972823436" lon="9.43937096247563"><ele>1040.0</ele><time>2026-05-01T11:26:58Z</time></trkpt><trkpt lat="40.03290360596028" lon="9.439055005042615"><ele>1035.5</ele><time>2026-05-01T11:26:59Z</time></trkpt><trkpt lat="40.03279405234935" lon="9.438739172601263"><ele>1031.0</ele><time>2026-05-01T11:27:00Z</time></trkpt><trkpt lat="40.032681247206604" lon="9.438426761082491"><ele>1031.0</ele><time>2026-05-01T11:27:01Z</time></trkpt><trkpt lat="40.032571101482205" lon="9.438129215404414"><ele>1031.0</ele><time>2026-05-01T11:27:02Z</time></trkpt><trkpt lat="40.03246504502288" lon="9.437835245412186"><ele>1031.0</ele><time>2026-05-01T11:27:03Z</time></trkpt><trkpt lat="40.03235928094256" lon="9.437541514426895"><ele>1031.0</ele><time>2026-05-01T11:27:04Z</time></trkpt><trkpt lat="40.032254525966415" lon="9.437248033664202"><ele>1030.0</ele><time>2026-05-01T11:27:05Z</time></trkpt><trkpt lat="40.0321516504224" lon="9.436958008541426"><ele>1029.0</ele><time>2026-05-01T11:27:06Z</time></trkpt><trkpt lat="40.0320480858997" lon="9.436677097814982"><ele>1029.0</ele><time>2026-05-01T11:27:07Z</time></trkpt><trkpt lat="40.03194886053575" lon="9.436404540582961"><ele>1029.0</ele><time>2026-05-01T11:27:08Z</time></trkpt><trkpt lat="40.03185469335214" lon="9.436140297428643"><ele>1028.0</ele><time>2026-05-01T11:27:09Z</time></trkpt><trkpt lat="40.03176139411642" lon="9.435886638613482"><ele>1027.0</ele><time>2026-05-01T11:27:10Z</time></trkpt><trkpt lat="40.031671302295436" lon="9.435642418427273"><ele>1026.0</ele><time>2026-05-01T11:27:11Z</time></trkpt><trkpt lat="40.03158338809102" lon="9.435401863747538"><ele>1029.0</ele><time>2026-05-01T11:27:12Z</time></trkpt><trkpt lat="40.031500679136926" lon="9.43516101973707"><ele>1032.0</ele><time>2026-05-01T11:27:13Z</time></trkpt><trkpt lat="40.03141584674051" lon="9.434922553468239"><ele>1035.0</ele><time>2026-05-01T11:27:14Z</time></trkpt><trkpt lat="40.03133084991446" lon="9.434698418897872"><ele>1033.0</ele><time>2026-05-01T11:27:15Z</time></trkpt><trkpt lat="40.03123745995575" lon="9.434500761002615"><ele>1031.0</ele><time>2026-05-01T11:27:16Z</time></trkpt><trkpt lat="40.03112280614861" lon="9.434336994493053"><ele>1029.0</ele><time>2026-05-01T11:27:17Z</time></trkpt><trkpt lat="40.03098000437295" lon="9.434201604264628"><ele>1029.0</ele><time>2026-05-01T11:27:18Z</time></trkpt><trkpt lat="40.03082000699823" lon="9.43407019275061"><ele>1029.0</ele><time>2026-05-01T11:27:19Z</time></trkpt><trkpt lat="40.03066035893077" lon="9.433928922160234"><ele>1029.0</ele><time>2026-05-01T11:27:20Z</time></trkpt><trkpt lat="40.03049719114757" lon="9.43378436501232"><ele>1027.3333333333333</ele><time>2026-05-01T11:27:21Z</time></trkpt><trkpt lat="40.03033505052146" lon="9.433635127477435"><ele>1025.6666666666665</ele><time>2026-05-01T11:27:22Z</time></trkpt><trkpt lat="40.030174175678106" lon="9.433482722486923"><ele>1024.0</ele><time>2026-05-01T11:27:23Z</time></trkpt><trkpt lat="40.03001849329387" lon="9.433349185264786"><ele>1023.6666666666666</ele><time>2026-05-01T11:27:24Z</time></trkpt><trkpt lat="40.029860523793815" lon="9.433263556776623"><ele>1023.3333333333333</ele><time>2026-05-01T11:27:25Z</time></trkpt><trkpt lat="40.02969258515624" lon="9.433237513151756"><ele>1023.0</ele><time>2026-05-01T11:27:26Z</time></trkpt><trkpt lat="40.02951800889872" lon="9.433243909382336"><ele>1023.0</ele><time>2026-05-01T11:27:27Z</time></trkpt><trkpt lat="40.02932880644517" lon="9.433264653704512"><ele>1023.0</ele><time>2026-05-01T11:27:28Z</time></trkpt><trkpt lat="40.029129308474076" lon="9.433280520192545"><ele>1023.0</ele><time>2026-05-01T11:27:29Z</time></trkpt><trkpt lat="40.0289163304737" lon="9.433294235412129"><ele>1022.6666666666667</ele><time>2026-05-01T11:27:30Z</time></trkpt><trkpt lat="40.028696063927505" lon="9.433307335757384"><ele>1022.3333333333334</ele><time>2026-05-01T11:27:31Z</time></trkpt><trkpt lat="40.028468485151656" lon="9.433322852998428"><ele>1022.0</ele><time>2026-05-01T11:27:32Z</time></trkpt><trkpt lat="40.028234080257775" lon="9.433336477919473"><ele>1022.0</ele><time>2026-05-01T11:27:33Z</time></trkpt><trkpt lat="40.02799354219656" lon="9.433352344960525"><ele>1022.0</ele><time>2026-05-01T11:27:34Z</time></trkpt><trkpt lat="40.02775051244065" lon="9.433371735745178"><ele>1022.0</ele><time>2026-05-01T11:27:35Z</time></trkpt><trkpt lat="40.02750349463748" lon="9.433390062476633"><ele>1022.0</ele><time>2026-05-01T11:27:36Z</time></trkpt><trkpt lat="40.02725157385687" lon="9.433407049561076"><ele>1022.5</ele><time>2026-05-01T11:27:37Z</time></trkpt><trkpt lat="40.027005285695104" lon="9.433424432572806"><ele>1023.0</ele><time>2026-05-01T11:27:38Z</time></trkpt><trkpt lat="40.02675905474896" lon="9.43344363315133"><ele>1024.5</ele><time>2026-05-01T11:27:39Z</time></trkpt><trkpt lat="40.02651321768432" lon="9.43347737706599"><ele>1026.0</ele><time>2026-05-01T11:27:40Z</time></trkpt><trkpt lat="40.0262699611527" lon="9.433524312083568"><ele>1026.0</ele><time>2026-05-01T11:27:41Z</time></trkpt><trkpt lat="40.026030477178324" lon="9.433575852227738"><ele>1026.0</ele><time>2026-05-01T11:27:42Z</time></trkpt><trkpt lat="40.02579739029569" lon="9.433626943859831"><ele>1030.0</ele><time>2026-05-01T11:27:43Z</time></trkpt><trkpt lat="40.02558393764345" lon="9.43367391654752"><ele>1034.0</ele><time>2026-05-01T11:27:44Z</time></trkpt><trkpt lat="40.025385976744694" lon="9.43371991749793"><ele>1038.0</ele><time>2026-05-01T11:27:45Z</time></trkpt><trkpt lat="40.0251969817906" lon="9.433760623242517"><ele>1038.0</ele><time>2026-05-01T11:27:46Z</time></trkpt><trkpt lat="40.02500890658245" lon="9.433799159771832"><ele>1038.0</ele><time>2026-05-01T11:27:47Z</time></trkpt><trkpt lat="40.02482502704675" lon="9.433838919620186"><ele>1038.0</ele><time>2026-05-01T11:27:48Z</time></trkpt><trkpt lat="40.02464618076456" lon="9.433874591608953"><ele>1038.3333333333333</ele><time>2026-05-01T11:27:49Z</time></trkpt><trkpt lat="40.02448984780708" lon="9.43391156178248"><ele>1038.6666666666665</ele><time>2026-05-01T11:27:50Z</time></trkpt><trkpt lat="40.02434540658689" lon="9.433975330108172"><ele>1039.0</ele><time>2026-05-01T11:27:51Z</time></trkpt><trkpt lat="40.02422419849326" lon="9.434086727361708"><ele>1040.3333333333333</ele><time>2026-05-01T11:27:52Z</time></trkpt><trkpt lat="40.02413270893027" lon="9.434239907481382"><ele>1041.6666666666667</ele><time>2026-05-01T11:27:53Z</time></trkpt><trkpt lat="40.02404614168581" lon="9.434405730049674"><ele>1043.0</ele><time>2026-05-01T11:27:54Z</time></trkpt><trkpt lat="40.0239582777821" lon="9.434583995528445"><ele>1042.3333333333335</ele><time>2026-05-01T11:27:55Z</time></trkpt><trkpt lat="40.02385877839383" lon="9.434769716845937"><ele>1041.6666666666667</ele><time>2026-05-01T11:27:56Z</time></trkpt><trkpt lat="40.02375311467217" lon="9.434951889370469"><ele>1041.0</ele><time>2026-05-01T11:27:57Z</time></trkpt><trkpt lat="40.02365059315452" lon="9.435144058944246"><ele>1041.0</ele><time>2026-05-01T11:27:58Z</time></trkpt><trkpt lat="40.023563526928385" lon="9.435346972115846"><ele>1041.0</ele><time>2026-05-01T11:27:59Z</time></trkpt><trkpt lat="40.02350449961468" lon="9.435564841845904"><ele>1041.0</ele><time>2026-05-01T11:28:00Z</time></trkpt><trkpt lat="40.02346533623171" lon="9.43579312881964"><ele>1041.0</ele><time>2026-05-01T11:28:01Z</time></trkpt><trkpt lat="40.02343223002343" lon="9.43602540828612"><ele>1041.0</ele><time>2026-05-01T11:28:02Z</time></trkpt><trkpt lat="40.02339996461453" lon="9.436262246880949"><ele>1041.0</ele><time>2026-05-01T11:28:03Z</time></trkpt><trkpt lat="40.02336752140443" lon="9.436497894361665"><ele>1041.0</ele><time>2026-05-01T11:28:04Z</time></trkpt><trkpt lat="40.0233345013702" lon="9.436726581637604"><ele>1041.0</ele><time>2026-05-01T11:28:05Z</time></trkpt><trkpt lat="40.023306458225235" lon="9.436943112204917"><ele>1041.0</ele><time>2026-05-01T11:28:06Z</time></trkpt><trkpt lat="40.023275863602144" lon="9.437150005095305"><ele>1037.3333333333333</ele><time>2026-05-01T11:28:07Z</time></trkpt><trkpt lat="40.023229972056605" lon="9.437346470937701"><ele>1033.6666666666665</ele><time>2026-05-01T11:28:08Z</time></trkpt><trkpt lat="40.02313988170587" lon="9.437524037419045"><ele>1030.0</ele><time>2026-05-01T11:28:09Z</time></trkpt><trkpt lat="40.02300481226229" lon="9.437667483885601"><ele>1030.0</ele><time>2026-05-01T11:28:10Z</time></trkpt><trkpt lat="40.02284525071674" lon="9.437799595611578"><ele>1030.0</ele><time>2026-05-01T11:28:11Z</time></trkpt><trkpt lat="40.022669159018804" lon="9.437932611117555"><ele>1030.0</ele><time>2026-05-01T11:28:12Z</time></trkpt><trkpt lat="40.02250182970976" lon="9.438061711335253"><ele>1029.6666666666665</ele><time>2026-05-01T11:28:13Z</time></trkpt><trkpt lat="40.022330158850025" lon="9.438178541009833"><ele>1029.3333333333333</ele><time>2026-05-01T11:28:14Z</time></trkpt><trkpt lat="40.0221411058418" lon="9.438264883793282"><ele>1029.0</ele><time>2026-05-01T11:28:15Z</time></trkpt><trkpt lat="40.021947081875034" lon="9.438297976497978"><ele>1029.0</ele><time>2026-05-01T11:28:16Z</time></trkpt><trkpt lat="40.02173800566621" lon="9.438296463967806"><ele>1029.0</ele><time>2026-05-01T11:28:17Z</time></trkpt><trkpt lat="40.02152385364488" lon="9.438298845751175"><ele>1029.0</ele><time>2026-05-01T11:28:18Z</time></trkpt><trkpt lat="40.021306775510965" lon="9.438304996779731"><ele>1027.6666666666667</ele><time>2026-05-01T11:28:19Z</time></trkpt><trkpt lat="40.02109251507299" lon="9.438307668073438"><ele>1026.3333333333335</ele><time>2026-05-01T11:28:20Z</time></trkpt><trkpt lat="40.020890259330706" lon="9.438309340977042"><ele>1025.0</ele><time>2026-05-01T11:28:21Z</time></trkpt><trkpt lat="40.02069871908216" lon="9.438316033591676"><ele>1024.0</ele><time>2026-05-01T11:28:22Z</time></trkpt><trkpt lat="40.020515846051126" lon="9.438318401454792"><ele>1023.0</ele><time>2026-05-01T11:28:23Z</time></trkpt><trkpt lat="40.020342979990076" lon="9.438323769415797"><ele>1022.0</ele><time>2026-05-01T11:28:24Z</time></trkpt><trkpt lat="40.020182054411265" lon="9.438364947469518"><ele>1022.0</ele><time>2026-05-01T11:28:25Z</time></trkpt><trkpt lat="40.02004074071602" lon="9.43847385798827"><ele>1022.0</ele><time>2026-05-01T11:28:26Z</time></trkpt><trkpt lat="40.019913414454265" lon="9.438618766584502"><ele>1022.0</ele><time>2026-05-01T11:28:27Z</time></trkpt><trkpt lat="40.01978281107537" lon="9.438772097842575"><ele>1022.6666666666667</ele><time>2026-05-01T11:28:28Z</time></trkpt><trkpt lat="40.01964669694558" lon="9.438930005781922"><ele>1023.3333333333333</ele><time>2026-05-01T11:28:29Z</time></trkpt><trkpt lat="40.019507302308405" lon="9.439088701950267"><ele>1024.0</ele><time>2026-05-01T11:28:30Z</time></trkpt><trkpt lat="40.01936526679303" lon="9.43924841489626"><ele>1024.0</ele><time>2026-05-01T11:28:31Z</time></trkpt><trkpt lat="40.019222515639086" lon="9.439406985003052"><ele>1024.0</ele><time>2026-05-01T11:28:32Z</time></trkpt><trkpt lat="40.01907509721956" lon="9.439555057287574"><ele>1024.0</ele><time>2026-05-01T11:28:33Z</time></trkpt><trkpt lat="40.018920675186465" lon="9.439678519111904"><ele>1025.0</ele><time>2026-05-01T11:28:34Z</time></trkpt><trkpt lat="40.01876784452739" lon="9.439794304060767"><ele>1026.0</ele><time>2026-05-01T11:28:35Z</time></trkpt><trkpt lat="40.01861600530894" lon="9.439910800491903"><ele>1027.0</ele><time>2026-05-01T11:28:36Z</time></trkpt><trkpt lat="40.01845803440686" lon="9.44002526132386"><ele>1026.0</ele><time>2026-05-01T11:28:37Z</time></trkpt><trkpt lat="40.0182895804974" lon="9.440123247039898"><ele>1025.0</ele><time>2026-05-01T11:28:38Z</time></trkpt><trkpt lat="40.01811026776112" lon="9.440197444939413"><ele>1024.0</ele><time>2026-05-01T11:28:39Z</time></trkpt><trkpt lat="40.0179283938733" lon="9.440256366135184"><ele>1024.0</ele><time>2026-05-01T11:28:40Z</time></trkpt><trkpt lat="40.017743488452204" lon="9.440318345683204"><ele>1024.0</ele><time>2026-05-01T11:28:41Z</time></trkpt><trkpt lat="40.017557832144504" lon="9.440383217892366"><ele>1024.0</ele><time>2026-05-01T11:28:42Z</time></trkpt><trkpt lat="40.017368327446675" lon="9.4404481573086"><ele>1025.0</ele><time>2026-05-01T11:28:43Z</time></trkpt><trkpt lat="40.0171747933546" lon="9.44051062879094"><ele>1026.0</ele><time>2026-05-01T11:28:44Z</time></trkpt><trkpt lat="40.016975575940855" lon="9.44057318102633"><ele>1027.0</ele><time>2026-05-01T11:28:45Z</time></trkpt><trkpt lat="40.01677703994622" lon="9.440627443161882"><ele>1027.3333333333333</ele><time>2026-05-01T11:28:46Z</time></trkpt><trkpt lat="40.0165745581673" lon="9.440680614465704"><ele>1027.6666666666667</ele><time>2026-05-01T11:28:47Z</time></trkpt><trkpt lat="40.01637240596569" lon="9.440736074449546"><ele>1028.0</ele><time>2026-05-01T11:28:48Z</time></trkpt><trkpt lat="40.01617466964314" lon="9.440793230037063"><ele>1028.0</ele><time>2026-05-01T11:28:49Z</time></trkpt><trkpt lat="40.01597864699602" lon="9.440831923457761"><ele>1028.0</ele><time>2026-05-01T11:28:50Z</time></trkpt><trkpt lat="40.01577996856519" lon="9.440823942221249"><ele>1028.0</ele><time>2026-05-01T11:28:51Z</time></trkpt><trkpt lat="40.01558872725287" lon="9.440767345221015"><ele>1029.6666666666667</ele><time>2026-05-01T11:28:52Z</time></trkpt><trkpt lat="40.0154187017395" lon="9.440687671474713"><ele>1031.3333333333333</ele><time>2026-05-01T11:28:53Z</time></trkpt><trkpt lat="40.01524250598573" lon="9.440616101858623"><ele>1033.0</ele><time>2026-05-01T11:28:54Z</time></trkpt><trkpt lat="40.015065893440244" lon="9.440548553981413"><ele>1033.6666666666665</ele><time>2026-05-01T11:28:55Z</time></trkpt><trkpt lat="40.01489068677152" lon="9.440487235062326"><ele>1034.3333333333333</ele><time>2026-05-01T11:28:56Z</time></trkpt><trkpt lat="40.01471406764861" lon="9.440433984020208"><ele>1035.0</ele><time>2026-05-01T11:28:57Z</time></trkpt><trkpt lat="40.01454597196928" lon="9.440373572727868"><ele>1033.0</ele><time>2026-05-01T11:28:58Z</time></trkpt><trkpt lat="40.014389192035985" lon="9.440316501234467"><ele>1031.0</ele><time>2026-05-01T11:28:59Z</time></trkpt><trkpt lat="40.014242678298565" lon="9.440267331308425"><ele>1029.0</ele><time>2026-05-01T11:29:00Z</time></trkpt><trkpt lat="40.01409757110667" lon="9.440215290346119"><ele>1028.3333333333333</ele><time>2026-05-01T11:29:01Z</time></trkpt><trkpt lat="40.01394985193515" lon="9.440155885492137"><ele>1027.6666666666665</ele><time>2026-05-01T11:29:02Z</time></trkpt><trkpt lat="40.0137996147608" lon="9.4401025084602"><ele>1027.0</ele><time>2026-05-01T11:29:03Z</time></trkpt><trkpt lat="40.01363944956641" lon="9.440071199993497"><ele>1027.0</ele><time>2026-05-01T11:29:04Z</time></trkpt><trkpt lat="40.01347847056855" lon="9.440060689908485"><ele>1027.0</ele><time>2026-05-01T11:29:05Z</time></trkpt><trkpt lat="40.01331400602717" lon="9.44005198797494"><ele>1027.0</ele><time>2026-05-01T11:29:06Z</time></trkpt><trkpt lat="40.013154367287505" lon="9.440048819886925"><ele>1024.0</ele><time>2026-05-01T11:29:07Z</time></trkpt><trkpt lat="40.012999755604035" lon="9.440052646347068"><ele>1021.0</ele><time>2026-05-01T11:29:08Z</time></trkpt><trkpt lat="40.012852569584254" lon="9.440060940477746"><ele>1018.0</ele><time>2026-05-01T11:29:09Z</time></trkpt><trkpt lat="40.01270550760748" lon="9.440075079205695"><ele>1015.0</ele><time>2026-05-01T11:29:10Z</time></trkpt><trkpt lat="40.012562647850466" lon="9.440096024190943"><ele>1011.5</ele><time>2026-05-01T11:29:11Z</time></trkpt><trkpt lat="40.01242022921099" lon="9.440121804112112"><ele>1008.0</ele><time>2026-05-01T11:29:12Z</time></trkpt><trkpt lat="40.01227880747239" lon="9.440153964022196"><ele>1004.5</ele><time>2026-05-01T11:29:13Z</time></trkpt><trkpt lat="40.01213632528252" lon="9.44020999566958"><ele>1001.0</ele><time>2026-05-01T11:29:14Z</time></trkpt><trkpt lat="40.01200375494473" lon="9.440301923918785"><ele>1001.0</ele><time>2026-05-01T11:29:15Z</time></trkpt><trkpt lat="40.011887795301334" lon="9.440431030801854"><ele>1001.0</ele><time>2026-05-01T11:29:16Z</time></trkpt><trkpt lat="40.0117766725359" lon="9.440579311855984"><ele>1001.0</ele><time>2026-05-01T11:29:17Z</time></trkpt><trkpt lat="40.01167396772304" lon="9.440725102056765"><ele>1001.25</ele><time>2026-05-01T11:29:18Z</time></trkpt><trkpt lat="40.011570853511834" lon="9.440864301740607"><ele>1001.5</ele><time>2026-05-01T11:29:19Z</time></trkpt><trkpt lat="40.01145000076829" lon="9.440965471778183"><ele>1001.75</ele><time>2026-05-01T11:29:20Z</time></trkpt><trkpt lat="40.0113135997313" lon="9.441020137721527"><ele>1002.0</ele><time>2026-05-01T11:29:21Z</time></trkpt><trkpt lat="40.01116736286853" lon="9.441011785893817"><ele>1002.0</ele><time>2026-05-01T11:29:22Z</time></trkpt><trkpt lat="40.011019932693706" lon="9.440960532675046"><ele>1002.0</ele><time>2026-05-01T11:29:23Z</time></trkpt><trkpt lat="40.0108632677127" lon="9.44089130276639"><ele>1002.0</ele><time>2026-05-01T11:29:24Z</time></trkpt><trkpt lat="40.01069835061271" lon="9.440827443742315"><ele>1001.3333333333333</ele><time>2026-05-01T11:29:25Z</time></trkpt><trkpt lat="40.01052968518555" lon="9.44076454859676"><ele>1000.6666666666666</ele><time>2026-05-01T11:29:26Z</time></trkpt><trkpt lat="40.0103545768353" lon="9.44071780773854"><ele>1000.0</ele><time>2026-05-01T11:29:27Z</time></trkpt><trkpt lat="40.01017506168734" lon="9.440687374346158"><ele>997.6666666666666</ele><time>2026-05-01T11:29:28Z</time></trkpt><trkpt lat="40.00998921948227" lon="9.440665234876192"><ele>995.3333333333333</ele><time>2026-05-01T11:29:29Z</time></trkpt><trkpt lat="40.00979853575823" lon="9.440650504086516"><ele>993.0</ele><time>2026-05-01T11:29:30Z</time></trkpt><trkpt lat="40.00960452265952" lon="9.44062654437222"><ele>993.0</ele><time>2026-05-01T11:29:31Z</time></trkpt><trkpt lat="40.00940801835421" lon="9.440605304658513"><ele>993.0</ele><time>2026-05-01T11:29:32Z</time></trkpt><trkpt lat="40.009216318000405" lon="9.44058566555811"><ele>993.0</ele><time>2026-05-01T11:29:33Z</time></trkpt><trkpt lat="40.00903022236705" lon="9.440568780288821"><ele>991.3333333333333</ele><time>2026-05-01T11:29:34Z</time></trkpt><trkpt lat="40.00884602372736" lon="9.440551574015107"><ele>989.6666666666666</ele><time>2026-05-01T11:29:35Z</time></trkpt><trkpt lat="40.00866497004867" lon="9.44053076965284"><ele>988.0</ele><time>2026-05-01T11:29:36Z</time></trkpt><trkpt lat="40.00848982766393" lon="9.440495088999397"><ele>984.0</ele><time>2026-05-01T11:29:37Z</time></trkpt><trkpt lat="40.00832723388945" lon="9.44041906256371"><ele>980.0</ele><time>2026-05-01T11:29:38Z</time></trkpt><trkpt lat="40.00818453004666" lon="9.440303189526757"><ele>976.0</ele><time>2026-05-01T11:29:39Z</time></trkpt><trkpt lat="40.00803653999541" lon="9.440158833850361"><ele>975.6666666666666</ele><time>2026-05-01T11:29:40Z</time></trkpt><trkpt lat="40.007887943097984" lon="9.440003812120537"><ele>975.3333333333333</ele><time>2026-05-01T11:29:41Z</time></trkpt><trkpt lat="40.00773300770916" lon="9.439839795368565"><ele>975.0</ele><time>2026-05-01T11:29:42Z</time></trkpt><trkpt lat="40.00758256968696" lon="9.439680938497556"><ele>973.6666666666667</ele><time>2026-05-01T11:29:43Z</time></trkpt><trkpt lat="40.00743433514238" lon="9.439529065819801"><ele>972.3333333333334</ele><time>2026-05-01T11:29:44Z</time></trkpt><trkpt lat="40.00729412547679" lon="9.439381260544582"><ele>971.0</ele><time>2026-05-01T11:29:45Z</time></trkpt><trkpt lat="40.007163558858316" lon="9.439229737297719"><ele>971.0</ele><time>2026-05-01T11:29:46Z</time></trkpt><trkpt lat="40.00705517446379" lon="9.439060097727383"><ele>971.0</ele><time>2026-05-01T11:29:47Z</time></trkpt><trkpt lat="40.00699323300918" lon="9.438859430493498"><ele>971.0</ele><time>2026-05-01T11:29:48Z</time></trkpt><trkpt lat="40.006971141070885" lon="9.43864519608239"><ele>967.0</ele><time>2026-05-01T11:29:49Z</time></trkpt><trkpt lat="40.00697324491804" lon="9.438409897668214"><ele>963.0</ele><time>2026-05-01T11:29:50Z</time></trkpt><trkpt lat="40.00697990839687" lon="9.438158587520693"><ele>959.0</ele><time>2026-05-01T11:29:51Z</time></trkpt><trkpt lat="40.00698138841211" lon="9.437900662202832"><ele>957.3333333333334</ele><time>2026-05-01T11:29:52Z</time></trkpt><trkpt lat="40.00698419069281" lon="9.437655811721484"><ele>955.6666666666667</ele><time>2026-05-01T11:29:53Z</time></trkpt><trkpt lat="40.0069830777235" lon="9.437421479701317"><ele>954.0</ele><time>2026-05-01T11:29:54Z</time></trkpt><trkpt lat="40.0069616227957" lon="9.437195764734119"><ele>953.3333333333333</ele><time>2026-05-01T11:29:55Z</time></trkpt><trkpt lat="40.00688894615399" lon="9.43697982735765"><ele>952.6666666666666</ele><time>2026-05-01T11:29:56Z</time></trkpt><trkpt lat="40.00678416594763" lon="9.4367681846735"><ele>952.0</ele><time>2026-05-01T11:29:57Z</time></trkpt><trkpt lat="40.006671681620396" lon="9.436552197735567"><ele>952.0</ele><time>2026-05-01T11:29:58Z</time></trkpt><trkpt lat="40.006555114372404" lon="9.436339661020629"><ele>952.0</ele><time>2026-05-01T11:29:59Z</time></trkpt><trkpt lat="40.006432176083734" lon="9.436147061063918"><ele>952.0</ele><time>2026-05-01T11:30:00Z</time></trkpt><trkpt lat="40.006299180330174" lon="9.4359695890708"><ele>949.6666666666666</ele><time>2026-05-01T11:30:01Z</time></trkpt><trkpt lat="40.00617175905382" lon="9.435789335027247"><ele>947.3333333333333</ele><time>2026-05-01T11:30:02Z</time></trkpt><trkpt lat="40.00606180363683" lon="9.435585413572488"><ele>945.0</ele><time>2026-05-01T11:30:03Z</time></trkpt><trkpt lat="40.00598512397725" lon="9.435356468270559"><ele>943.3333333333333</ele><time>2026-05-01T11:30:04Z</time></trkpt><trkpt lat="40.00591869754822" lon="9.435114996668393"><ele>941.6666666666666</ele><time>2026-05-01T11:30:05Z</time></trkpt><trkpt lat="40.00585678459853" lon="9.434890659013046"><ele>940.0</ele><time>2026-05-01T11:30:06Z</time></trkpt><trkpt lat="40.00579655903439" lon="9.434675317798094"><ele>941.0</ele><time>2026-05-01T11:30:07Z</time></trkpt><trkpt lat="40.00573841579627" lon="9.434467319598701"><ele>942.0</ele><time>2026-05-01T11:30:08Z</time></trkpt><trkpt lat="40.00568263873782" lon="9.434278398342599"><ele>943.0</ele><time>2026-05-01T11:30:09Z</time></trkpt><trkpt lat="40.005631354849925" lon="9.434120190778803"><ele>943.0</ele><time>2026-05-01T11:30:10Z</time></trkpt><trkpt lat="40.005586951927974" lon="9.433971574520422"><ele>943.0</ele><time>2026-05-01T11:30:11Z</time></trkpt><trkpt lat="40.00555124855717" lon="9.433826505333125"><ele>943.0</ele><time>2026-05-01T11:30:12Z</time></trkpt><trkpt lat="40.005512504867966" lon="9.433688116977095"><ele>943.0</ele><time>2026-05-01T11:30:13Z</time></trkpt><trkpt lat="40.00547417687079" lon="9.433556880183579"><ele>941.8</ele><time>2026-05-01T11:30:14Z</time></trkpt><trkpt lat="40.00543846536506" lon="9.433434129577083"><ele>940.5999999999999</ele><time>2026-05-01T11:30:15Z</time></trkpt><trkpt lat="40.005402664408344" lon="9.433317007462769"><ele>939.4000000000001</ele><time>2026-05-01T11:30:16Z</time></trkpt><trkpt lat="40.00536910054801" lon="9.433198220967972"><ele>938.2</ele><time>2026-05-01T11:30:17Z</time></trkpt><trkpt lat="40.00533361230231" lon="9.43307751168799"><ele>937.0</ele><time>2026-05-01T11:30:18Z</time></trkpt><trkpt lat="40.00529867579758" lon="9.432958961165467"><ele>936.2</ele><time>2026-05-01T11:30:19Z</time></trkpt><trkpt lat="40.005263421340665" lon="9.432838251395184"><ele>935.4000000000001</ele><time>2026-05-01T11:30:20Z</time></trkpt><trkpt lat="40.00522623881778" lon="9.43271586741144"><ele>934.5999999999999</ele><time>2026-05-01T11:30:21Z</time></trkpt><trkpt lat="40.00518877017462" lon="9.432594987256143"><ele>933.8</ele><time>2026-05-01T11:30:22Z</time></trkpt><trkpt lat="40.0051513367682" lon="9.432472785145343"><ele>933.0</ele><time>2026-05-01T11:30:23Z</time></trkpt><trkpt lat="40.005110409769614" lon="9.432334903797244"><ele>933.0</ele><time>2026-05-01T11:30:24Z</time></trkpt><trkpt lat="40.005067308084165" lon="9.432184302207062"><ele>933.0</ele><time>2026-05-01T11:30:25Z</time></trkpt><trkpt lat="40.00502011509917" lon="9.43202312756166"><ele>933.0</ele><time>2026-05-01T11:30:26Z</time></trkpt><trkpt lat="40.004970853725126" lon="9.431852532571876"><ele>933.0</ele><time>2026-05-01T11:30:27Z</time></trkpt><trkpt lat="40.004918321823645" lon="9.431669440544326"><ele>933.0</ele><time>2026-05-01T11:30:28Z</time></trkpt><trkpt lat="40.00486211305213" lon="9.43147986329824"><ele>933.0</ele><time>2026-05-01T11:30:29Z</time></trkpt><trkpt lat="40.00480071050043" lon="9.43128031148826"><ele>933.0</ele><time>2026-05-01T11:30:30Z</time></trkpt><trkpt lat="40.00473830913612" lon="9.431074027709398"><ele>933.0</ele><time>2026-05-01T11:30:31Z</time></trkpt><trkpt lat="40.00467518881085" lon="9.430858740566123"><ele>933.0</ele><time>2026-05-01T11:30:32Z</time></trkpt><trkpt lat="40.00461431584089" lon="9.430639925867723"><ele>933.0</ele><time>2026-05-01T11:30:33Z</time></trkpt><trkpt lat="40.00454863543066" lon="9.4304204880817"><ele>933.0</ele><time>2026-05-01T11:30:34Z</time></trkpt><trkpt lat="40.00448361900187" lon="9.430193862263062"><ele>933.0</ele><time>2026-05-01T11:30:35Z</time></trkpt><trkpt lat="40.00441568314685" lon="9.429967562000911"><ele>933.0</ele><time>2026-05-01T11:30:36Z</time></trkpt><trkpt lat="40.0043474733073" lon="9.42974027672491"><ele>934.3333333333333</ele><time>2026-05-01T11:30:37Z</time></trkpt><trkpt lat="40.004279793048106" lon="9.429509466542289"><ele>935.6666666666666</ele><time>2026-05-01T11:30:38Z</time></trkpt><trkpt lat="40.00420890119454" lon="9.429279865849637"><ele>937.0</ele><time>2026-05-01T11:30:39Z</time></trkpt><trkpt lat="40.00414302636253" lon="9.429048743533171"><ele>939.3333333333333</ele><time>2026-05-01T11:30:40Z</time></trkpt><trkpt lat="40.00407752085766" lon="9.428818636745577"><ele>941.6666666666667</ele><time>2026-05-01T11:30:41Z</time></trkpt><trkpt lat="40.00401189468936" lon="9.42858963996817"><ele>944.0</ele><time>2026-05-01T11:30:42Z</time></trkpt><trkpt lat="40.00394510372963" lon="9.428362464019159"><ele>944.0</ele><time>2026-05-01T11:30:43Z</time></trkpt><trkpt lat="40.003877021842776" lon="9.42813968603094"><ele>944.0</ele><time>2026-05-01T11:30:44Z</time></trkpt><trkpt lat="40.00381355326541" lon="9.427917347288917"><ele>944.0</ele><time>2026-05-01T11:30:45Z</time></trkpt><trkpt lat="40.003758937443244" lon="9.4276943572263"><ele>942.3333333333334</ele><time>2026-05-01T11:30:46Z</time></trkpt><trkpt lat="40.00371027636091" lon="9.427468612390982"><ele>940.6666666666667</ele><time>2026-05-01T11:30:47Z</time></trkpt><trkpt lat="40.00366823655888" lon="9.427238431230101"><ele>939.0</ele><time>2026-05-01T11:30:48Z</time></trkpt><trkpt lat="40.00363004640727" lon="9.427006602298643"><ele>937.0</ele><time>2026-05-01T11:30:49Z</time></trkpt><trkpt lat="40.00359117600134" lon="9.426775571896826"><ele>935.0</ele><time>2026-05-01T11:30:50Z</time></trkpt><trkpt lat="40.00354754549188" lon="9.426542529050748"><ele>933.0</ele><time>2026-05-01T11:30:51Z</time></trkpt><trkpt lat="40.00350021195028" lon="9.426306892401584"><ele>930.6666666666667</ele><time>2026-05-01T11:30:52Z</time></trkpt><trkpt lat="40.00345210063897" lon="9.426068300987513"><ele>928.3333333333334</ele><time>2026-05-01T11:30:53Z</time></trkpt><trkpt lat="40.00340406319202" lon="9.4258271395425"><ele>926.0</ele><time>2026-05-01T11:30:54Z</time></trkpt><trkpt lat="40.00335481556653" lon="9.425585990100123"><ele>924.3333333333334</ele><time>2026-05-01T11:30:55Z</time></trkpt><trkpt lat="40.00330371173058" lon="9.425339534302601"><ele>922.6666666666667</ele><time>2026-05-01T11:30:56Z</time></trkpt><trkpt lat="40.003251296088415" lon="9.425095130618029"><ele>921.0</ele><time>2026-05-01T11:30:57Z</time></trkpt><trkpt lat="40.00320183192014" lon="9.424852695467898"><ele>918.3333333333333</ele><time>2026-05-01T11:30:58Z</time></trkpt><trkpt lat="40.00315221820239" lon="9.424621798504514"><ele>915.6666666666666</ele><time>2026-05-01T11:30:59Z</time></trkpt><trkpt lat="40.00310482567007" lon="9.424395646318777"><ele>913.0</ele><time>2026-05-01T11:31:00Z</time></trkpt><trkpt lat="40.00307284561598" lon="9.424189892799808"><ele>913.0</ele><time>2026-05-01T11:31:01Z</time></trkpt><trkpt lat="40.0030734992711" lon="9.423984340847237"><ele>913.0</ele><time>2026-05-01T11:31:02Z</time></trkpt><trkpt lat="40.00312500632825" lon="9.423788968467019"><ele>913.0</ele><time>2026-05-01T11:31:03Z</time></trkpt><trkpt lat="40.003211586293695" lon="9.423607424034563"><ele>911.75</ele><time>2026-05-01T11:31:04Z</time></trkpt><trkpt lat="40.00331386307462" lon="9.423486624829883"><ele>910.5</ele><time>2026-05-01T11:31:05Z</time></trkpt><trkpt lat="40.00342968615585" lon="9.423422141009272"><ele>909.25</ele><time>2026-05-01T11:31:06Z</time></trkpt><trkpt lat="40.003563109619186" lon="9.423420766295173"><ele>908.0</ele><time>2026-05-01T11:31:07Z</time></trkpt><trkpt lat="40.003709334228155" lon="9.423475157925347"><ele>908.0</ele><time>2026-05-01T11:31:08Z</time></trkpt><trkpt lat="40.003859373025655" lon="9.423530379980745"><ele>908.0</ele><time>2026-05-01T11:31:09Z</time></trkpt><trkpt lat="40.004000433560485" lon="9.423581438679502"><ele>908.0</ele><time>2026-05-01T11:31:10Z</time></trkpt><trkpt lat="40.0041321557489" lon="9.423625141508413"><ele>908.0</ele><time>2026-05-01T11:31:11Z</time></trkpt><trkpt lat="40.00425098652482" lon="9.423620720472366"><ele>906.75</ele><time>2026-05-01T11:31:12Z</time></trkpt><trkpt lat="40.0043344723302" lon="9.423558450103586"><ele>905.5</ele><time>2026-05-01T11:31:13Z</time></trkpt><trkpt lat="40.0044017317753" lon="9.423432925025839"><ele>904.25</ele><time>2026-05-01T11:31:14Z</time></trkpt><trkpt lat="40.00442237375613" lon="9.423252352305013"><ele>903.0</ele><time>2026-05-01T11:31:15Z</time></trkpt><trkpt lat="40.00441584043121" lon="9.4230235955668"><ele>899.0</ele><time>2026-05-01T11:31:16Z</time></trkpt><trkpt lat="40.004390199555" lon="9.42277381034132"><ele>895.0</ele><time>2026-05-01T11:31:17Z</time></trkpt><trkpt lat="40.004368340585806" lon="9.422510927647764"><ele>891.0</ele><time>2026-05-01T11:31:18Z</time></trkpt><trkpt lat="40.00435242726629" lon="9.42226806357631"><ele>889.3333333333333</ele><time>2026-05-01T11:31:19Z</time></trkpt><trkpt lat="40.00433243547757" lon="9.42202316914777"><ele>887.6666666666666</ele><time>2026-05-01T11:31:20Z</time></trkpt><trkpt lat="40.00431166820364" lon="9.421784410007033"><ele>886.0</ele><time>2026-05-01T11:31:21Z</time></trkpt><trkpt lat="40.00430075867437" lon="9.421550293140259"><ele>886.0</ele><time>2026-05-01T11:31:22Z</time></trkpt><trkpt lat="40.00423668267692" lon="9.421315601995701"><ele>886.0</ele><time>2026-05-01T11:31:23Z</time></trkpt><trkpt lat="40.00414486368286" lon="9.421095401999368"><ele>886.0</ele><time>2026-05-01T11:31:24Z</time></trkpt><trkpt lat="40.004033282498455" lon="9.420889728007092"><ele>887.3333333333333</ele><time>2026-05-01T11:31:25Z</time></trkpt><trkpt lat="40.003904530802835" lon="9.420697911187318"><ele>888.6666666666667</ele><time>2026-05-01T11:31:26Z</time></trkpt><trkpt lat="40.003793703628595" lon="9.42048382922552"><ele>890.0</ele><time>2026-05-01T11:31:27Z</time></trkpt><trkpt lat="40.00372176415376" lon="9.420247338236345"><ele>891.0</ele><time>2026-05-01T11:31:28Z</time></trkpt><trkpt lat="40.00368253820341" lon="9.420003388648215"><ele>892.0</ele><time>2026-05-01T11:31:29Z</time></trkpt><trkpt lat="40.00364117211035" lon="9.419786907268076"><ele>893.0</ele><time>2026-05-01T11:31:30Z</time></trkpt><trkpt lat="40.00359980048228" lon="9.419585157025397"><ele>893.5</ele><time>2026-05-01T11:31:31Z</time></trkpt><trkpt lat="40.00356665218882" lon="9.419402910869715"><ele>894.0</ele><time>2026-05-01T11:31:32Z</time></trkpt><trkpt lat="40.00353629874805" lon="9.419228515714133"><ele>894.5</ele><time>2026-05-01T11:31:33Z</time></trkpt><trkpt lat="40.00351322919253" lon="9.419085542877673"><ele>895.0</ele><time>2026-05-01T11:31:34Z</time></trkpt><trkpt lat="40.00349418985398" lon="9.418960371467882"><ele>895.0</ele><time>2026-05-01T11:31:35Z</time></trkpt><trkpt lat="40.00349300621853" lon="9.4188430568604"><ele>895.0</ele><time>2026-05-01T11:31:36Z</time></trkpt><trkpt lat="40.003512834740334" lon="9.418736334461396"><ele>895.0</ele><time>2026-05-01T11:31:37Z</time></trkpt><trkpt lat="40.0035677045018" lon="9.418641908691036"><ele>895.0</ele><time>2026-05-01T11:31:38Z</time></trkpt><trkpt lat="40.00364064075028" lon="9.418548705468382"><ele>895.0</ele><time>2026-05-01T11:31:39Z</time></trkpt><trkpt lat="40.00373641377187" lon="9.418463344379559"><ele>895.0</ele><time>2026-05-01T11:31:40Z</time></trkpt><trkpt lat="40.00383818762924" lon="9.418378498860575"><ele>895.0</ele><time>2026-05-01T11:31:41Z</time></trkpt><trkpt lat="40.00393582008937" lon="9.418296301699245"><ele>895.0</ele><time>2026-05-01T11:31:42Z</time></trkpt><trkpt lat="40.004023359764474" lon="9.418204373687951"><ele>895.0</ele><time>2026-05-01T11:31:43Z</time></trkpt><trkpt lat="40.00408613110911" lon="9.418064352994374"><ele>896.0</ele><time>2026-05-01T11:31:44Z</time></trkpt><trkpt lat="40.004121229277786" lon="9.417905899156821"><ele>897.0</ele><time>2026-05-01T11:31:45Z</time></trkpt><trkpt lat="40.00410816382136" lon="9.417731398600774"><ele>898.0</ele><time>2026-05-01T11:31:46Z</time></trkpt><trkpt lat="40.004054715556684" lon="9.417568359512734"><ele>899.0</ele><time>2026-05-01T11:31:47Z</time></trkpt><trkpt lat="40.00396564259513" lon="9.417417887410329"><ele>899.0</ele><time>2026-05-01T11:31:48Z</time></trkpt><trkpt lat="40.003871687674035" lon="9.417261123622227"><ele>899.0</ele><time>2026-05-01T11:31:49Z</time></trkpt><trkpt lat="40.00377225010992" lon="9.41710260504932"><ele>899.0</ele><time>2026-05-01T11:31:50Z</time></trkpt><trkpt lat="40.00367064052788" lon="9.416945602933865"><ele>900.3333333333334</ele><time>2026-05-01T11:31:51Z</time></trkpt><trkpt lat="40.00356111231005" lon="9.416781254505896"><ele>901.6666666666667</ele><time>2026-05-01T11:31:52Z</time></trkpt><trkpt lat="40.00344951578192" lon="9.416614705703049"><ele>903.0</ele><time>2026-05-01T11:31:53Z</time></trkpt><trkpt lat="40.00334362230675" lon="9.416457015445195"><ele>901.75</ele><time>2026-05-01T11:31:54Z</time></trkpt><trkpt lat="40.003256163871505" lon="9.416316899246729"><ele>900.5</ele><time>2026-05-01T11:31:55Z</time></trkpt><trkpt lat="40.00320782544597" lon="9.416166841423168"><ele>899.25</ele><time>2026-05-01T11:31:56Z</time></trkpt><trkpt lat="40.003208362520674" lon="9.416003291281273"><ele>898.0</ele><time>2026-05-01T11:31:57Z</time></trkpt><trkpt lat="40.00325287160359" lon="9.41584613212412"><ele>900.0</ele><time>2026-05-01T11:31:58Z</time></trkpt><trkpt lat="40.00334223500785" lon="9.415714046901362"><ele>902.0</ele><time>2026-05-01T11:31:59Z</time></trkpt><trkpt lat="40.003464723982994" lon="9.415609569597798"><ele>904.0</ele><time>2026-05-01T11:32:00Z</time></trkpt><trkpt lat="40.003598021112495" lon="9.415518707338295"><ele>906.0</ele><time>2026-05-01T11:32:01Z</time></trkpt><trkpt lat="40.003722155542256" lon="9.415435590672498"><ele>906.0</ele><time>2026-05-01T11:32:02Z</time></trkpt><trkpt lat="40.00380992396338" lon="9.415308893296713"><ele>906.0</ele><time>2026-05-01T11:32:03Z</time></trkpt><trkpt lat="40.00383611307475" lon="9.415145984580336"><ele>906.0</ele><time>2026-05-01T11:32:04Z</time></trkpt><trkpt lat="40.003827249596405" lon="9.414972672419246"><ele>906.0</ele><time>2026-05-01T11:32:05Z</time></trkpt><trkpt lat="40.003790927703335" lon="9.414794895249354"><ele>907.6666666666667</ele><time>2026-05-01T11:32:06Z</time></trkpt><trkpt lat="40.00372403990943" lon="9.414591559421114"><ele>909.3333333333334</ele><time>2026-05-01T11:32:07Z</time></trkpt><trkpt lat="40.00366320085673" lon="9.414387213644053"><ele>911.0</ele><time>2026-05-01T11:32:08Z</time></trkpt><trkpt lat="40.0036193419063" lon="9.414205346169556"><ele>911.0</ele><time>2026-05-01T11:32:09Z</time></trkpt><trkpt lat="40.003567741242406" lon="9.414046228694689"><ele>911.0</ele><time>2026-05-01T11:32:10Z</time></trkpt><trkpt lat="40.003470330426865" lon="9.413912455486358"><ele>911.0</ele><time>2026-05-01T11:32:11Z</time></trkpt><trkpt lat="40.003341865593015" lon="9.41382070031064"><ele>911.0</ele><time>2026-05-01T11:32:12Z</time></trkpt><trkpt lat="40.00318826845001" lon="9.413793207331905"><ele>913.3333333333334</ele><time>2026-05-01T11:32:13Z</time></trkpt><trkpt lat="40.003032229529516" lon="9.413800531292152"><ele>915.6666666666667</ele><time>2026-05-01T11:32:14Z</time></trkpt><trkpt lat="40.00287078114302" lon="9.413790198707282"><ele>918.0</ele><time>2026-05-01T11:32:15Z</time></trkpt><trkpt lat="40.00271032072809" lon="9.41373212358256"><ele>918.0</ele><time>2026-05-01T11:32:16Z</time></trkpt><trkpt lat="40.00258283548305" lon="9.413628780509221"><ele>918.0</ele><time>2026-05-01T11:32:17Z</time></trkpt><trkpt lat="40.00248781088209" lon="9.413530353220988"><ele>918.0</ele><time>2026-05-01T11:32:18Z</time></trkpt><trkpt lat="40.002443086849404" lon="9.413409821320608"><ele>918.0</ele><time>2026-05-01T11:32:19Z</time></trkpt><trkpt lat="40.00244525668706" lon="9.413267147489035"><ele>919.0</ele><time>2026-05-01T11:32:20Z</time></trkpt><trkpt lat="40.002486395879785" lon="9.413117818352132"><ele>920.0</ele><time>2026-05-01T11:32:21Z</time></trkpt><trkpt lat="40.002535047600006" lon="9.412966229169502"><ele>921.0</ele><time>2026-05-01T11:32:22Z</time></trkpt><trkpt lat="40.00254121822005" lon="9.412807848674172"><ele>922.0</ele><time>2026-05-01T11:32:23Z</time></trkpt><trkpt lat="40.00249020084692" lon="9.412658783360946"><ele>922.0</ele><time>2026-05-01T11:32:24Z</time></trkpt><trkpt lat="40.00239392287083" lon="9.412532430835306"><ele>922.0</ele><time>2026-05-01T11:32:25Z</time></trkpt><trkpt lat="40.00227839265718" lon="9.412428844742571"><ele>922.0</ele><time>2026-05-01T11:32:26Z</time></trkpt><trkpt lat="40.00214173155064" lon="9.412333673902937"><ele>922.0</ele><time>2026-05-01T11:32:27Z</time></trkpt><trkpt lat="40.00200214856125" lon="9.412243304229222"><ele>922.0</ele><time>2026-05-01T11:32:28Z</time></trkpt><trkpt lat="40.00187708178906" lon="9.412183363079548"><ele>922.0</ele><time>2026-05-01T11:32:29Z</time></trkpt><trkpt lat="40.0017655791751" lon="9.412145013273818"><ele>922.0</ele><time>2026-05-01T11:32:30Z</time></trkpt><trkpt lat="40.001671033055494" lon="9.412112886088591"><ele>922.0</ele><time>2026-05-01T11:32:31Z</time></trkpt><trkpt lat="40.00160843436769" lon="9.41209272396393"><ele>922.0</ele><time>2026-05-01T11:32:32Z</time></trkpt><trkpt lat="40.001545662758694" lon="9.412052962190447"><ele>922.0</ele><time>2026-05-01T11:32:34Z</time></trkpt><trkpt lat="40.00149013012565" lon="9.411979898268038"><ele>922.0000000000001</ele><time>2026-05-01T11:32:37Z</time></trkpt><trkpt lat="40.001470115640124" lon="9.411898243552628"><ele>922.0</ele><time>2026-05-01T11:32:40Z</time></trkpt><trkpt lat="40.00144931046224" lon="9.411819420490515"><ele>922.0</ele><time>2026-05-01T11:32:45Z</time></trkpt><trkpt lat="40.001393046653625" lon="9.411862666831217"><ele>922.0000000000001</ele><time>2026-05-01T11:36:39Z</time></trkpt><trkpt lat="40.00146041010911" lon="9.41193059982727"><ele>922.0</ele><time>2026-05-01T11:41:58Z</time></trkpt><trkpt lat="40.001522760688566" lon="9.412015807090919"><ele>922.0</ele><time>2026-05-01T11:42:00Z</time></trkpt><trkpt lat="40.00158642498424" lon="9.412087712471276"><ele>921.9999999999999</ele><time>2026-05-01T11:42:02Z</time></trkpt><trkpt lat="40.00164624334931" lon="9.412125220590099"><ele>922.0</ele><time>2026-05-01T11:42:04Z</time></trkpt><trkpt lat="40.00176313508536" lon="9.412172206045245"><ele>922.0</ele><time>2026-05-01T11:42:06Z</time></trkpt><trkpt lat="40.00183201654261" lon="9.412197687840381"><ele>922.0</ele><time>2026-05-01T11:42:07Z</time></trkpt><trkpt lat="40.00190573827874" lon="9.412215846616911"><ele>921.9999999999999</ele><time>2026-05-01T11:42:08Z</time></trkpt><trkpt lat="40.00197550161358" lon="9.412249931583831"><ele>922.0</ele><time>2026-05-01T11:42:09Z</time></trkpt><trkpt lat="40.00203701199981" lon="9.412288580619277"><ele>922.0</ele><time>2026-05-01T11:42:10Z</time></trkpt><trkpt lat="40.00209255211141" lon="9.412328471946186"><ele>922.0000000000001</ele><time>2026-05-01T11:42:11Z</time></trkpt><trkpt lat="40.00215004034669" lon="9.412368669493269"><ele>922.0</ele><time>2026-05-01T11:42:12Z</time></trkpt><trkpt lat="40.00221081574439" lon="9.41241843104552"><ele>922.0</ele><time>2026-05-01T11:42:13Z</time></trkpt><trkpt lat="40.00227457006448" lon="9.412473028934505"><ele>922.0000000000001</ele><time>2026-05-01T11:42:14Z</time></trkpt><trkpt lat="40.00233602994726" lon="9.41252495408093"><ele>922.0</ele><time>2026-05-01T11:42:15Z</time></trkpt><trkpt lat="40.00239364982204" lon="9.412574092925997"><ele>922.0</ele><time>2026-05-01T11:42:16Z</time></trkpt><trkpt lat="40.002451404796666" lon="9.412635633640766"><ele>921.9999999999999</ele><time>2026-05-01T11:42:17Z</time></trkpt><trkpt lat="40.002492700993706" lon="9.412722135617942"><ele>922.0</ele><time>2026-05-01T11:42:18Z</time></trkpt><trkpt lat="40.002516158708566" lon="9.412824774254396"><ele>922.0</ele><time>2026-05-01T11:42:19Z</time></trkpt><trkpt lat="40.002517063599676" lon="9.412935185615916"><ele>922.0</ele><time>2026-05-01T11:42:20Z</time></trkpt><trkpt lat="40.002484759531065" lon="9.413035325582635"><ele>921.9999999999999</ele><time>2026-05-01T11:42:21Z</time></trkpt><trkpt lat="40.00245303812255" lon="9.413129187168778"><ele>922.0</ele><time>2026-05-01T11:42:22Z</time></trkpt><trkpt lat="40.00243602288392" lon="9.413230614864744"><ele>921.3333333333333</ele><time>2026-05-01T11:42:23Z</time></trkpt><trkpt lat="40.00241825743467" lon="9.413326486203083"><ele>920.6666666666666</ele><time>2026-05-01T11:42:24Z</time></trkpt><trkpt lat="40.00241975184975" lon="9.413423636475486"><ele>920.0</ele><time>2026-05-01T11:42:25Z</time></trkpt><trkpt lat="40.00245681533108" lon="9.41350652024819"><ele>919.3333333333333</ele><time>2026-05-01T11:42:26Z</time></trkpt><trkpt lat="40.0025127613502" lon="9.413575217587615"><ele>918.6666666666666</ele><time>2026-05-01T11:42:27Z</time></trkpt><trkpt lat="40.002579831928685" lon="9.413638774619619"><ele>918.0</ele><time>2026-05-01T11:42:28Z</time></trkpt><trkpt lat="40.00265709231746" lon="9.41369860691592"><ele>918.0</ele><time>2026-05-01T11:42:29Z</time></trkpt><trkpt lat="40.00274147320177" lon="9.413747835932144"><ele>918.0</ele><time>2026-05-01T11:42:30Z</time></trkpt><trkpt lat="40.002830527550664" lon="9.413779930199729"><ele>918.0</ele><time>2026-05-01T11:42:31Z</time></trkpt><trkpt lat="40.00292335639922" lon="9.413800001459984"><ele>918.0</ele><time>2026-05-01T11:42:32Z</time></trkpt><trkpt lat="40.0030057867325" lon="9.413812899103558"><ele>918.0</ele><time>2026-05-01T11:42:33Z</time></trkpt><trkpt lat="40.00307715201702" lon="9.413817000623649"><ele>918.0</ele><time>2026-05-01T11:42:34Z</time></trkpt><trkpt lat="40.00315564298542" lon="9.413813748869295"><ele>918.0</ele><time>2026-05-01T11:42:35Z</time></trkpt><trkpt lat="40.00324553942527" lon="9.413819778779104"><ele>918.0</ele><time>2026-05-01T11:42:36Z</time></trkpt><trkpt lat="40.00333619677959" lon="9.413838005127447"><ele>918.0</ele><time>2026-05-01T11:42:37Z</time></trkpt><trkpt lat="40.003424250550495" lon="9.413887212007515"><ele>918.0</ele><time>2026-05-01T11:42:38Z</time></trkpt><trkpt lat="40.00349999717775" lon="9.413970979313712"><ele>918.0</ele><time>2026-05-01T11:42:39Z</time></trkpt><trkpt lat="40.00355327512514" lon="9.414088093774566"><ele>916.5999999999999</ele><time>2026-05-01T11:42:40Z</time></trkpt><trkpt lat="40.00359661720351" lon="9.414210375779412"><ele>915.1999999999999</ele><time>2026-05-01T11:42:41Z</time></trkpt><trkpt lat="40.00362728810354" lon="9.414330648401268"><ele>913.8</ele><time>2026-05-01T11:42:42Z</time></trkpt><trkpt lat="40.00365460180532" lon="9.414437462484797"><ele>912.4</ele><time>2026-05-01T11:42:43Z</time></trkpt><trkpt lat="40.003685803030656" lon="9.414548901795424"><ele>911.0</ele><time>2026-05-01T11:42:44Z</time></trkpt><trkpt lat="40.0037162280997" lon="9.414674361391416"><ele>910.0</ele><time>2026-05-01T11:42:45Z</time></trkpt><trkpt lat="40.00374425101672" lon="9.414788688702377"><ele>908.9999999999999</ele><time>2026-05-01T11:42:46Z</time></trkpt><trkpt lat="40.00377734851177" lon="9.41490834612992"><ele>907.9999999999999</ele><time>2026-05-01T11:42:47Z</time></trkpt><trkpt lat="40.0038078676116" lon="9.415031301106657"><ele>907.0</ele><time>2026-05-01T11:42:48Z</time></trkpt><trkpt lat="40.003814067230685" lon="9.41516611454815"><ele>906.0</ele><time>2026-05-01T11:42:49Z</time></trkpt><trkpt lat="40.00379229355055" lon="9.415303101804762"><ele>906.0</ele><time>2026-05-01T11:42:50Z</time></trkpt><trkpt lat="40.00371770696782" lon="9.41539936616909"><ele>905.9999999999999</ele><time>2026-05-01T11:42:51Z</time></trkpt><trkpt lat="40.00363875466096" lon="9.415475456258141"><ele>905.9999999999999</ele><time>2026-05-01T11:42:52Z</time></trkpt><trkpt lat="40.00354239716373" lon="9.41553483159944"><ele>906.0</ele><time>2026-05-01T11:42:53Z</time></trkpt><trkpt lat="40.00345408944553" lon="9.41560154618455"><ele>906.0</ele><time>2026-05-01T11:42:54Z</time></trkpt><trkpt lat="40.00336596813031" lon="9.415668553723048"><ele>904.4</ele><time>2026-05-01T11:42:55Z</time></trkpt><trkpt lat="40.00329802815936" lon="9.415753593744476"><ele>902.8</ele><time>2026-05-01T11:42:56Z</time></trkpt><trkpt lat="40.00323108488611" lon="9.415837541698268"><ele>901.1999999999999</ele><time>2026-05-01T11:42:57Z</time></trkpt><trkpt lat="40.00319079744299" lon="9.415949205022947"><ele>899.5999999999999</ele><time>2026-05-01T11:42:58Z</time></trkpt><trkpt lat="40.00317897385118" lon="9.416075739985072"><ele>898.0</ele><time>2026-05-01T11:42:59Z</time></trkpt><trkpt lat="40.00319278554712" lon="9.416208590844322"><ele>898.0</ele><time>2026-05-01T11:43:00Z</time></trkpt><trkpt lat="40.0032352970285" lon="9.41633449543473"><ele>898.0</ele><time>2026-05-01T11:43:01Z</time></trkpt><trkpt lat="40.003297969328024" lon="9.416443070636912"><ele>898.0</ele><time>2026-05-01T11:43:02Z</time></trkpt><trkpt lat="40.00336576780845" lon="9.416539228797465"><ele>898.0</ele><time>2026-05-01T11:43:03Z</time></trkpt><trkpt lat="40.00344127710145" lon="9.416643922438327"><ele>898.0</ele><time>2026-05-01T11:43:04Z</time></trkpt><trkpt lat="40.003517865000035" lon="9.4167583434312"><ele>898.25</ele><time>2026-05-01T11:43:05Z</time></trkpt><trkpt lat="40.00359757631683" lon="9.416879134762217"><ele>898.5</ele><time>2026-05-01T11:43:06Z</time></trkpt><trkpt lat="40.003681616684304" lon="9.417005230217177"><ele>898.75</ele><time>2026-05-01T11:43:07Z</time></trkpt><trkpt lat="40.00376917611201" lon="9.417141051330995"><ele>899.0</ele><time>2026-05-01T11:43:08Z</time></trkpt><trkpt lat="40.00385580499842" lon="9.417282172349605"><ele>899.0</ele><time>2026-05-01T11:43:09Z</time></trkpt><trkpt lat="40.0039396675805" lon="9.4174263838297"><ele>899.0</ele><time>2026-05-01T11:43:10Z</time></trkpt><trkpt lat="40.00402054932239" lon="9.417572449871026"><ele>899.0</ele><time>2026-05-01T11:43:11Z</time></trkpt><trkpt lat="40.004082167433886" lon="9.417720861468336"><ele>899.0</ele><time>2026-05-01T11:43:12Z</time></trkpt><trkpt lat="40.00409728046764" lon="9.417893018693698"><ele>898.0</ele><time>2026-05-01T11:43:13Z</time></trkpt><trkpt lat="40.004064757546445" lon="9.41805277890013"><ele>897.0</ele><time>2026-05-01T11:43:14Z</time></trkpt><trkpt lat="40.00399848048445" lon="9.418187336565667"><ele>896.0</ele><time>2026-05-01T11:43:15Z</time></trkpt><trkpt lat="40.00389702173487" lon="9.418280454338609"><ele>895.0</ele><time>2026-05-01T11:43:16Z</time></trkpt><trkpt lat="40.003789625804316" lon="9.41836572480543"><ele>895.0</ele><time>2026-05-01T11:43:17Z</time></trkpt><trkpt lat="40.003679868649265" lon="9.418470447942322"><ele>895.0</ele><time>2026-05-01T11:43:18Z</time></trkpt><trkpt lat="40.003553971487975" lon="9.418563765616934"><ele>895.0</ele><time>2026-05-01T11:43:19Z</time></trkpt><trkpt lat="40.00343109625234" lon="9.418679448814851"><ele>895.0</ele><time>2026-05-01T11:43:20Z</time></trkpt><trkpt lat="40.003290806516254" lon="9.418793085027879"><ele>893.3333333333333</ele><time>2026-05-01T11:43:21Z</time></trkpt><trkpt lat="40.00316334656161" lon="9.418904150587993"><ele>891.6666666666667</ele><time>2026-05-01T11:43:22Z</time></trkpt><trkpt lat="40.00304259681192" lon="9.41902080834503"><ele>890.0</ele><time>2026-05-01T11:43:23Z</time></trkpt><trkpt lat="40.00292902273903" lon="9.41915469231439"><ele>890.0</ele><time>2026-05-01T11:43:24Z</time></trkpt><trkpt lat="40.00283241486812" lon="9.419305409632658"><ele>890.0</ele><time>2026-05-01T11:43:25Z</time></trkpt><trkpt lat="40.00275127730735" lon="9.419481075237394"><ele>890.0</ele><time>2026-05-01T11:43:26Z</time></trkpt><trkpt lat="40.00267545059388" lon="9.419650235192968"><ele>890.0</ele><time>2026-05-01T11:43:27Z</time></trkpt><trkpt lat="40.00261033458512" lon="9.419813250029684"><ele>890.0</ele><time>2026-05-01T11:43:28Z</time></trkpt><trkpt lat="40.00253519251807" lon="9.419960683536589"><ele>890.0</ele><time>2026-05-01T11:43:29Z</time></trkpt><trkpt lat="40.00242574981651" lon="9.420051293000876"><ele>890.0</ele><time>2026-05-01T11:43:30Z</time></trkpt><trkpt lat="40.00231953000477" lon="9.420140151427512"><ele>889.25</ele><time>2026-05-01T11:43:31Z</time></trkpt><trkpt lat="40.002183227792024" lon="9.420173394123097"><ele>888.5</ele><time>2026-05-01T11:43:32Z</time></trkpt><trkpt lat="40.002056213371255" lon="9.420246485052559"><ele>887.75</ele><time>2026-05-01T11:43:33Z</time></trkpt><trkpt lat="40.0019098999397" lon="9.420293455652432"><ele>887.0</ele><time>2026-05-01T11:43:34Z</time></trkpt><trkpt lat="40.00176473538144" lon="9.420353057073552"><ele>884.0</ele><time>2026-05-01T11:43:35Z</time></trkpt><trkpt lat="40.00162542094605" lon="9.420437510009618"><ele>881.0</ele><time>2026-05-01T11:43:36Z</time></trkpt><trkpt lat="40.00150937977133" lon="9.420575635964491"><ele>878.0</ele><time>2026-05-01T11:43:37Z</time></trkpt><trkpt lat="40.001416851951284" lon="9.420744184299007"><ele>878.0</ele><time>2026-05-01T11:43:38Z</time></trkpt><trkpt lat="40.001257250391404" lon="9.421042500732154"><ele>878.0</ele><time>2026-05-01T11:43:40Z</time></trkpt><trkpt lat="40.00117777268045" lon="9.42114164663535"><ele>878.0</ele><time>2026-05-01T11:43:41Z</time></trkpt><trkpt lat="40.00108356206467" lon="9.42115408115581"><ele>878.0</ele><time>2026-05-01T11:43:42Z</time></trkpt><trkpt lat="40.00100738832164" lon="9.421126882389622"><ele>878.0</ele><time>2026-05-01T11:43:43Z</time></trkpt><trkpt lat="40.000914327377025" lon="9.421079212262146"><ele>878.0</ele><time>2026-05-01T11:43:44Z</time></trkpt><trkpt lat="40.0007994184789" lon="9.421026500027526"><ele>878.0</ele><time>2026-05-01T11:43:45Z</time></trkpt><trkpt lat="40.00067898492062" lon="9.420971253459921"><ele>878.0</ele><time>2026-05-01T11:43:46Z</time></trkpt><trkpt lat="40.00055717235457" lon="9.420930848040808"><ele>880.25</ele><time>2026-05-01T11:43:47Z</time></trkpt><trkpt lat="40.00045431570195" lon="9.420861497578475"><ele>882.5</ele><time>2026-05-01T11:43:48Z</time></trkpt><trkpt lat="40.000390192396175" lon="9.420756955485887"><ele>884.75</ele><time>2026-05-01T11:43:49Z</time></trkpt><trkpt lat="40.0003334672322" lon="9.420642948860058"><ele>887.0</ele><time>2026-05-01T11:43:50Z</time></trkpt><trkpt lat="40.000289147005155" lon="9.420482169810485"><ele>887.0</ele><time>2026-05-01T11:43:51Z</time></trkpt><trkpt lat="40.000235008434885" lon="9.420315070164847"><ele>887.0</ele><time>2026-05-01T11:43:52Z</time></trkpt><trkpt lat="40.00015692393076" lon="9.420145078691519"><ele>887.0</ele><time>2026-05-01T11:43:53Z</time></trkpt><trkpt lat="40.00006146812883" lon="9.41998564311517"><ele>887.0</ele><time>2026-05-01T11:43:54Z</time></trkpt><trkpt lat="39.99996215121116" lon="9.419849522409733"><ele>887.0</ele><time>2026-05-01T11:43:55Z</time></trkpt><trkpt lat="39.99984068689469" lon="9.41972142011627"><ele>887.0</ele><time>2026-05-01T11:43:56Z</time></trkpt><trkpt lat="39.99972035220106" lon="9.419629384133533"><ele>887.0</ele><time>2026-05-01T11:43:57Z</time></trkpt><trkpt lat="39.99959365311036" lon="9.419561310190337"><ele>887.0</ele><time>2026-05-01T11:43:58Z</time></trkpt><trkpt lat="39.999452601385016" lon="9.419516500379281"><ele>884.5</ele><time>2026-05-01T11:43:59Z</time></trkpt><trkpt lat="39.99930771452739" lon="9.419496243682689"><ele>882.0</ele><time>2026-05-01T11:44:00Z</time></trkpt><trkpt lat="39.99917877181859" lon="9.419486522674925"><ele>879.5</ele><time>2026-05-01T11:44:01Z</time></trkpt><trkpt lat="39.999065794111274" lon="9.419504349039148"><ele>877.0</ele><time>2026-05-01T11:44:02Z</time></trkpt><trkpt lat="39.99896411057214" lon="9.41954305313749"><ele>877.0</ele><time>2026-05-01T11:44:03Z</time></trkpt><trkpt lat="39.998866884409104" lon="9.419596923797995"><ele>877.0</ele><time>2026-05-01T11:44:04Z</time></trkpt><trkpt lat="39.9987729051489" lon="9.41964865921739"><ele>877.0</ele><time>2026-05-01T11:44:05Z</time></trkpt><trkpt lat="39.99869032334546" lon="9.419704792797107"><ele>877.0</ele><time>2026-05-01T11:44:06Z</time></trkpt><trkpt lat="39.99860942571017" lon="9.41976561016223"><ele>877.0</ele><time>2026-05-01T11:44:07Z</time></trkpt><trkpt lat="39.99854654695201" lon="9.419831589956361"><ele>879.3333333333333</ele><time>2026-05-01T11:44:08Z</time></trkpt><trkpt lat="39.99848763379262" lon="9.419909320707347"><ele>881.6666666666666</ele><time>2026-05-01T11:44:09Z</time></trkpt><trkpt lat="39.99842713233501" lon="9.419991134177451"><ele>884.0</ele><time>2026-05-01T11:44:10Z</time></trkpt><trkpt lat="39.998349134082495" lon="9.42005024848124"><ele>886.3333333333333</ele><time>2026-05-01T11:44:11Z</time></trkpt><trkpt lat="39.998288715713805" lon="9.420133374703207"><ele>888.6666666666666</ele><time>2026-05-01T11:44:12Z</time></trkpt><trkpt lat="39.99821387393668" lon="9.420194603345426"><ele>891.0</ele><time>2026-05-01T11:44:13Z</time></trkpt><trkpt lat="39.998143874661224" lon="9.420251447314858"><ele>891.0</ele><time>2026-05-01T11:44:14Z</time></trkpt><trkpt lat="39.99807582381683" lon="9.42030800145617"><ele>891.0</ele><time>2026-05-01T11:44:15Z</time></trkpt><trkpt lat="39.99801006546245" lon="9.420358981629871"><ele>891.0</ele><time>2026-05-01T11:44:16Z</time></trkpt><trkpt lat="39.99794832108858" lon="9.420408533214527"><ele>891.0</ele><time>2026-05-01T11:44:17Z</time></trkpt><trkpt lat="39.99788929784835" lon="9.420455850531761"><ele>891.0</ele><time>2026-05-01T11:44:18Z</time></trkpt><trkpt lat="39.99779359262195" lon="9.420523242016746"><ele>891.0</ele><time>2026-05-01T11:44:20Z</time></trkpt><trkpt lat="39.99771755658612" lon="9.420554606139751"><ele>893.1666666666666</ele><time>2026-05-01T11:44:22Z</time></trkpt><trkpt lat="39.99765607979776" lon="9.420582044530963"><ele>895.3333333333333</ele><time>2026-05-01T11:44:24Z</time></trkpt><trkpt lat="39.99758708060315" lon="9.420629609928126"><ele>897.5</ele><time>2026-05-01T11:44:27Z</time></trkpt><trkpt lat="39.99748498340479" lon="9.420668673604643"><ele>899.6666666666666</ele><time>2026-05-01T11:44:30Z</time></trkpt><trkpt lat="39.99742427069818" lon="9.420702432353831"><ele>901.8333333333333</ele><time>2026-05-01T11:44:31Z</time></trkpt><trkpt lat="39.99734754047957" lon="9.420737452615684"><ele>904.0</ele><time>2026-05-01T11:44:32Z</time></trkpt><trkpt lat="39.99724891289468" lon="9.420779328387662"><ele>904.0</ele><time>2026-05-01T11:44:33Z</time></trkpt><trkpt lat="39.99715218340036" lon="9.420823760826217"><ele>904.0</ele><time>2026-05-01T11:44:34Z</time></trkpt><trkpt lat="39.99704347315419" lon="9.42087969368747"><ele>904.0</ele><time>2026-05-01T11:44:35Z</time></trkpt><trkpt lat="39.99693061330976" lon="9.420932442406809"><ele>904.0</ele><time>2026-05-01T11:44:36Z</time></trkpt><trkpt lat="39.99680771263604" lon="9.420985989903892"><ele>904.0</ele><time>2026-05-01T11:44:37Z</time></trkpt><trkpt lat="39.996672604857864" lon="9.42103756370429"><ele>904.0</ele><time>2026-05-01T11:44:38Z</time></trkpt><trkpt lat="39.99654039349064" lon="9.421133294831762"><ele>904.0</ele><time>2026-05-01T11:44:39Z</time></trkpt><trkpt lat="39.99641456162076" lon="9.421253199356048"><ele>904.0</ele><time>2026-05-01T11:44:40Z</time></trkpt><trkpt lat="39.996289673066265" lon="9.42137895600144"><ele>907.3333333333333</ele><time>2026-05-01T11:44:41Z</time></trkpt><trkpt lat="39.99616589385657" lon="9.421495946588076"><ele>910.6666666666667</ele><time>2026-05-01T11:44:42Z</time></trkpt><trkpt lat="39.99601935246225" lon="9.421599741092258"><ele>914.0</ele><time>2026-05-01T11:44:43Z</time></trkpt><trkpt lat="39.995870878754296" lon="9.421668866676782"><ele>911.0</ele><time>2026-05-01T11:44:44Z</time></trkpt><trkpt lat="39.99571648020486" lon="9.421691905059555"><ele>908.0</ele><time>2026-05-01T11:44:45Z</time></trkpt><trkpt lat="39.99556075666737" lon="9.421654142049722"><ele>905.0</ele><time>2026-05-01T11:44:46Z</time></trkpt><trkpt lat="39.99539786612734" lon="9.421632130526497"><ele>905.0</ele><time>2026-05-01T11:44:47Z</time></trkpt><trkpt lat="39.995229403106215" lon="9.421568911723746"><ele>905.0</ele><time>2026-05-01T11:44:48Z</time></trkpt><trkpt lat="39.995067712341374" lon="9.421499115936408"><ele>905.0</ele><time>2026-05-01T11:44:49Z</time></trkpt><trkpt lat="39.994928171732354" lon="9.421420241850297"><ele>905.6666666666667</ele><time>2026-05-01T11:44:50Z</time></trkpt><trkpt lat="39.994776325086086" lon="9.421380249036615"><ele>906.3333333333333</ele><time>2026-05-01T11:44:51Z</time></trkpt><trkpt lat="39.99462121912407" lon="9.421400813536811"><ele>907.0</ele><time>2026-05-01T11:44:52Z</time></trkpt><trkpt lat="39.99448001964001" lon="9.421407645495757"><ele>907.0</ele><time>2026-05-01T11:44:53Z</time></trkpt><trkpt lat="39.99434817007833" lon="9.421421809580396"><ele>907.0</ele><time>2026-05-01T11:44:54Z</time></trkpt><trkpt lat="39.99423419165194" lon="9.421523224184797"><ele>907.0</ele><time>2026-05-01T11:44:55Z</time></trkpt><trkpt lat="39.99411918488496" lon="9.421639102532188"><ele>907.0</ele><time>2026-05-01T11:44:56Z</time></trkpt><trkpt lat="39.99402796938965" lon="9.421810118633307"><ele>906.3333333333333</ele><time>2026-05-01T11:44:57Z</time></trkpt><trkpt lat="39.99397077211699" lon="9.422007601338189"><ele>905.6666666666667</ele><time>2026-05-01T11:44:58Z</time></trkpt><trkpt lat="39.99392267350564" lon="9.422206901108142"><ele>905.0</ele><time>2026-05-01T11:44:59Z</time></trkpt><trkpt lat="39.99387651175145" lon="9.422408112548355"><ele>908.6666666666667</ele><time>2026-05-01T11:45:00Z</time></trkpt><trkpt lat="39.993812249425275" lon="9.422592106165533"><ele>912.3333333333333</ele><time>2026-05-01T11:45:01Z</time></trkpt><trkpt lat="39.99369525753204" lon="9.422746250204854"><ele>916.0</ele><time>2026-05-01T11:45:02Z</time></trkpt><trkpt lat="39.99359074853286" lon="9.422878979892797"><ele>917.0</ele><time>2026-05-01T11:45:03Z</time></trkpt><trkpt lat="39.99348456651479" lon="9.423001006403991"><ele>918.0</ele><time>2026-05-01T11:45:04Z</time></trkpt><trkpt lat="39.9933662259496" lon="9.423108128238555"><ele>919.0</ele><time>2026-05-01T11:45:05Z</time></trkpt><trkpt lat="39.993249991917295" lon="9.423185210669423"><ele>920.0</ele><time>2026-05-01T11:45:06Z</time></trkpt><trkpt lat="39.99312909683642" lon="9.42324952245988"><ele>920.0</ele><time>2026-05-01T11:45:07Z</time></trkpt><trkpt lat="39.99300301213402" lon="9.423293283787432"><ele>920.0</ele><time>2026-05-01T11:45:08Z</time></trkpt><trkpt lat="39.99286717157941" lon="9.423315129738272"><ele>920.0</ele><time>2026-05-01T11:45:09Z</time></trkpt><trkpt lat="39.99273191176409" lon="9.42332061992954"><ele>920.0</ele><time>2026-05-01T11:45:10Z</time></trkpt><trkpt lat="39.992604981631494" lon="9.423336254086125"><ele>919.25</ele><time>2026-05-01T11:45:11Z</time></trkpt><trkpt lat="39.99248254507194" lon="9.423381668731876"><ele>918.5</ele><time>2026-05-01T11:45:12Z</time></trkpt><trkpt lat="39.99240324727067" lon="9.42345996964285"><ele>917.75</ele><time>2026-05-01T11:45:13Z</time></trkpt><trkpt lat="39.99230580477214" lon="9.423600518909954"><ele>917.0</ele><time>2026-05-01T11:45:14Z</time></trkpt><trkpt lat="39.99221958736904" lon="9.423765481801802"><ele>918.0</ele><time>2026-05-01T11:45:15Z</time></trkpt><trkpt lat="39.992133765668065" lon="9.4239227380636"><ele>919.0</ele><time>2026-05-01T11:45:16Z</time></trkpt><trkpt lat="39.99205447010776" lon="9.424065259906694"><ele>920.0</ele><time>2026-05-01T11:45:17Z</time></trkpt><trkpt lat="39.99199925992302" lon="9.424226251179036"><ele>921.0</ele><time>2026-05-01T11:45:18Z</time></trkpt><trkpt lat="39.99195957606075" lon="9.42439975311376"><ele>921.0</ele><time>2026-05-01T11:45:19Z</time></trkpt><trkpt lat="39.99190504403044" lon="9.424569338087117"><ele>921.0</ele><time>2026-05-01T11:45:20Z</time></trkpt><trkpt lat="39.991820638448054" lon="9.424728646765779"><ele>921.0</ele><time>2026-05-01T11:45:21Z</time></trkpt><trkpt lat="39.99171214437198" lon="9.424872820658539"><ele>921.0</ele><time>2026-05-01T11:45:22Z</time></trkpt><trkpt lat="39.9916019919459" lon="9.42502279102665"><ele>920.75</ele><time>2026-05-01T11:45:23Z</time></trkpt><trkpt lat="39.9915016587683" lon="9.425158946435989"><ele>920.5</ele><time>2026-05-01T11:45:24Z</time></trkpt><trkpt lat="39.99140299293789" lon="9.425282654716645"><ele>920.25</ele><time>2026-05-01T11:45:25Z</time></trkpt><trkpt lat="39.991309010896934" lon="9.425398134317465"><ele>920.0</ele><time>2026-05-01T11:45:26Z</time></trkpt><trkpt lat="39.99121978693545" lon="9.425509724264517"><ele>921.25</ele><time>2026-05-01T11:45:27Z</time></trkpt><trkpt lat="39.99113441304278" lon="9.425617282520708"><ele>922.5</ele><time>2026-05-01T11:45:28Z</time></trkpt><trkpt lat="39.99105570375995" lon="9.425733160582952"><ele>923.75</ele><time>2026-05-01T11:45:29Z</time></trkpt><trkpt lat="39.990987416162" lon="9.425860551117932"><ele>925.0</ele><time>2026-05-01T11:45:30Z</time></trkpt><trkpt lat="39.990930817996954" lon="9.426007000937238"><ele>925.0</ele><time>2026-05-01T11:45:31Z</time></trkpt><trkpt lat="39.990890955650976" lon="9.42616901658738"><ele>925.0</ele><time>2026-05-01T11:45:32Z</time></trkpt><trkpt lat="39.99086911960482" lon="9.426349472284722"><ele>925.0</ele><time>2026-05-01T11:45:33Z</time></trkpt><trkpt lat="39.99085945186175" lon="9.426540922958798"><ele>925.0</ele><time>2026-05-01T11:45:34Z</time></trkpt><trkpt lat="39.99085349141431" lon="9.426725858957713"><ele>925.5</ele><time>2026-05-01T11:45:35Z</time></trkpt><trkpt lat="39.99084129826993" lon="9.426912098934524"><ele>926.0</ele><time>2026-05-01T11:45:36Z</time></trkpt><trkpt lat="39.99081994661929" lon="9.427094156706392"><ele>926.5</ele><time>2026-05-01T11:45:37Z</time></trkpt><trkpt lat="39.99077813925942" lon="9.427277427101854"><ele>927.0</ele><time>2026-05-01T11:45:38Z</time></trkpt><trkpt lat="39.99071144900227" lon="9.42745619223981"><ele>925.6666666666667</ele><time>2026-05-01T11:45:39Z</time></trkpt><trkpt lat="39.99063333210554" lon="9.427621003387019"><ele>924.3333333333334</ele><time>2026-05-01T11:45:40Z</time></trkpt><trkpt lat="39.99054962139011" lon="9.427786156155348"><ele>923.0</ele><time>2026-05-01T11:45:41Z</time></trkpt><trkpt lat="39.99045967823378" lon="9.427942334656942"><ele>923.5</ele><time>2026-05-01T11:45:42Z</time></trkpt><trkpt lat="39.99037742729784" lon="9.42808987819049"><ele>924.0</ele><time>2026-05-01T11:45:43Z</time></trkpt><trkpt lat="39.990294267568785" lon="9.428237570554149"><ele>924.5</ele><time>2026-05-01T11:45:44Z</time></trkpt><trkpt lat="39.99021317151005" lon="9.428384856268924"><ele>925.0</ele><time>2026-05-01T11:45:45Z</time></trkpt><trkpt lat="39.99013331704041" lon="9.428532035684153"><ele>925.0</ele><time>2026-05-01T11:45:46Z</time></trkpt><trkpt lat="39.990057019135826" lon="9.428680237325908"><ele>925.0</ele><time>2026-05-01T11:45:47Z</time></trkpt><trkpt lat="39.98998392034136" lon="9.428826363068364"><ele>925.0</ele><time>2026-05-01T11:45:48Z</time></trkpt><trkpt lat="39.989903277720316" lon="9.42895675682624"><ele>925.0</ele><time>2026-05-01T11:45:49Z</time></trkpt><trkpt lat="39.98980602858243" lon="9.429040122844166"><ele>923.75</ele><time>2026-05-01T11:45:50Z</time></trkpt><trkpt lat="39.989663835429226" lon="9.429065967399827"><ele>922.5</ele><time>2026-05-01T11:45:51Z</time></trkpt><trkpt lat="39.98952478245944" lon="9.42905100674027"><ele>921.25</ele><time>2026-05-01T11:45:52Z</time></trkpt><trkpt lat="39.98939707863805" lon="9.429051413466834"><ele>920.0</ele><time>2026-05-01T11:45:53Z</time></trkpt><trkpt lat="39.989272306044846" lon="9.429087305958495"><ele>918.25</ele><time>2026-05-01T11:45:54Z</time></trkpt><trkpt lat="39.98916617624369" lon="9.429148950068203"><ele>916.5</ele><time>2026-05-01T11:45:55Z</time></trkpt><trkpt lat="39.98908138305219" lon="9.429268406399087"><ele>914.75</ele><time>2026-05-01T11:45:56Z</time></trkpt><trkpt lat="39.98900813304029" lon="9.42941774301085"><ele>913.0</ele><time>2026-05-01T11:45:57Z</time></trkpt><trkpt lat="39.988941507218954" lon="9.429584274934006"><ele>914.25</ele><time>2026-05-01T11:45:58Z</time></trkpt><trkpt lat="39.98888350698597" lon="9.429762480279871"><ele>915.5</ele><time>2026-05-01T11:45:59Z</time></trkpt><trkpt lat="39.98882011895947" lon="9.429944735545702"><ele>916.75</ele><time>2026-05-01T11:46:00Z</time></trkpt><trkpt lat="39.98875876695711" lon="9.430111662533943"><ele>918.0</ele><time>2026-05-01T11:46:01Z</time></trkpt><trkpt lat="39.98870268483793" lon="9.430275151577732"><ele>918.0</ele><time>2026-05-01T11:46:02Z</time></trkpt><trkpt lat="39.988616167601826" lon="9.430411322573413"><ele>918.0</ele><time>2026-05-01T11:46:03Z</time></trkpt><trkpt lat="39.988488772154156" lon="9.4305026225703"><ele>918.0</ele><time>2026-05-01T11:46:04Z</time></trkpt><trkpt lat="39.98834527802996" lon="9.430582469733215"><ele>918.0</ele><time>2026-05-01T11:46:05Z</time></trkpt><trkpt lat="39.988196298004205" lon="9.430660075018542"><ele>916.3333333333333</ele><time>2026-05-01T11:46:06Z</time></trkpt><trkpt lat="39.98804118503026" lon="9.430741366590912"><ele>914.6666666666666</ele><time>2026-05-01T11:46:07Z</time></trkpt><trkpt lat="39.98787882922957" lon="9.430816354600314"><ele>913.0</ele><time>2026-05-01T11:46:08Z</time></trkpt><trkpt lat="39.987719422031546" lon="9.43087992943676"><ele>913.0</ele><time>2026-05-01T11:46:09Z</time></trkpt><trkpt lat="39.987566853924385" lon="9.430939686704141"><ele>913.0</ele><time>2026-05-01T11:46:10Z</time></trkpt><trkpt lat="39.987415822316514" lon="9.431024577002601"><ele>913.0</ele><time>2026-05-01T11:46:11Z</time></trkpt><trkpt lat="39.98727483140123" lon="9.431127746306387"><ele>911.5</ele><time>2026-05-01T11:46:12Z</time></trkpt><trkpt lat="39.987154007322644" lon="9.431241316388956"><ele>910.0</ele><time>2026-05-01T11:46:13Z</time></trkpt><trkpt lat="39.98706693124115" lon="9.43137406982798"><ele>908.5</ele><time>2026-05-01T11:46:14Z</time></trkpt><trkpt lat="39.987017844038505" lon="9.431535176908582"><ele>907.0</ele><time>2026-05-01T11:46:15Z</time></trkpt><trkpt lat="39.987007688437316" lon="9.431718097368352"><ele>907.0</ele><time>2026-05-01T11:46:16Z</time></trkpt><trkpt lat="39.987007519710644" lon="9.43191637081913"><ele>907.0</ele><time>2026-05-01T11:46:17Z</time></trkpt><trkpt lat="39.98696370468649" lon="9.432101166769122"><ele>907.0</ele><time>2026-05-01T11:46:18Z</time></trkpt><trkpt lat="39.98688813841082" lon="9.432241467382923"><ele>907.0</ele><time>2026-05-01T11:46:19Z</time></trkpt><trkpt lat="39.986833774032064" lon="9.432392836193197"><ele>907.25</ele><time>2026-05-01T11:46:20Z</time></trkpt><trkpt lat="39.9868209223083" lon="9.432566219460755"><ele>907.5</ele><time>2026-05-01T11:46:21Z</time></trkpt><trkpt lat="39.98682556522937" lon="9.432731646096016"><ele>907.75</ele><time>2026-05-01T11:46:22Z</time></trkpt><trkpt lat="39.98677966953714" lon="9.432885706326704"><ele>908.0</ele><time>2026-05-01T11:46:23Z</time></trkpt><trkpt lat="39.986705472139406" lon="9.433007648756815"><ele>906.0</ele><time>2026-05-01T11:46:24Z</time></trkpt><trkpt lat="39.98659917825246" lon="9.433085054444692"><ele>904.0</ele><time>2026-05-01T11:46:25Z</time></trkpt><trkpt lat="39.986457553008734" lon="9.433132135715748"><ele>902.0</ele><time>2026-05-01T11:46:26Z</time></trkpt><trkpt lat="39.98630397705722" lon="9.433177366692972"><ele>900.0</ele><time>2026-05-01T11:46:27Z</time></trkpt><trkpt lat="39.98615093153992" lon="9.433232858210514"><ele>900.0</ele><time>2026-05-01T11:46:28Z</time></trkpt><trkpt lat="39.98598146737594" lon="9.433292085249784"><ele>900.0</ele><time>2026-05-01T11:46:29Z</time></trkpt><trkpt lat="39.98581649163265" lon="9.433357349326641"><ele>900.0</ele><time>2026-05-01T11:46:30Z</time></trkpt><trkpt lat="39.985650388132456" lon="9.433417008006714"><ele>897.6666666666667</ele><time>2026-05-01T11:46:31Z</time></trkpt><trkpt lat="39.98547505323777" lon="9.433466246166923"><ele>895.3333333333334</ele><time>2026-05-01T11:46:32Z</time></trkpt><trkpt lat="39.98529802691176" lon="9.433488962551396"><ele>893.0</ele><time>2026-05-01T11:46:33Z</time></trkpt><trkpt lat="39.985136609985815" lon="9.43349433024751"><ele>891.75</ele><time>2026-05-01T11:46:34Z</time></trkpt><trkpt lat="39.984980868659804" lon="9.43350144030633"><ele>890.5</ele><time>2026-05-01T11:46:35Z</time></trkpt><trkpt lat="39.98483360746672" lon="9.433518292393977"><ele>889.25</ele><time>2026-05-01T11:46:36Z</time></trkpt><trkpt lat="39.98469943508795" lon="9.433560645862725"><ele>888.0</ele><time>2026-05-01T11:46:37Z</time></trkpt><trkpt lat="39.984580188673505" lon="9.433661094997493"><ele>888.0</ele><time>2026-05-01T11:46:38Z</time></trkpt><trkpt lat="39.984485448893146" lon="9.433790380513273"><ele>888.0</ele><time>2026-05-01T11:46:39Z</time></trkpt><trkpt lat="39.98441624030972" lon="9.433916673342262"><ele>888.0</ele><time>2026-05-01T11:46:40Z</time></trkpt><trkpt lat="39.984386022124795" lon="9.434044223548502"><ele>888.0</ele><time>2026-05-01T11:46:41Z</time></trkpt><trkpt lat="39.98441350197183" lon="9.434184811668944"><ele>888.0</ele><time>2026-05-01T11:46:42Z</time></trkpt><trkpt lat="39.984471511533094" lon="9.43431947793791"><ele>888.0</ele><time>2026-05-01T11:46:43Z</time></trkpt><trkpt lat="39.98451155983616" lon="9.43450450804923"><ele>888.0</ele><time>2026-05-01T11:46:44Z</time></trkpt><trkpt lat="39.98451524256695" lon="9.434708285267396"><ele>888.0</ele><time>2026-05-01T11:46:45Z</time></trkpt><trkpt lat="39.98450647695574" lon="9.434921533774665"><ele>888.0</ele><time>2026-05-01T11:46:46Z</time></trkpt><trkpt lat="39.984526105083134" lon="9.435149199457632"><ele>888.0</ele><time>2026-05-01T11:46:47Z</time></trkpt><trkpt lat="39.98456650990393" lon="9.435385757387445"><ele>888.0</ele><time>2026-05-01T11:46:48Z</time></trkpt><trkpt lat="39.98460321788146" lon="9.435617954798024"><ele>887.0</ele><time>2026-05-01T11:46:49Z</time></trkpt><trkpt lat="39.98463577238782" lon="9.435827331254098"><ele>886.0</ele><time>2026-05-01T11:46:50Z</time></trkpt><trkpt lat="39.98464390367274" lon="9.436019620896541"><ele>885.0</ele><time>2026-05-01T11:46:51Z</time></trkpt><trkpt lat="39.984603043524665" lon="9.436183733902242"><ele>884.0</ele><time>2026-05-01T11:46:52Z</time></trkpt><trkpt lat="39.984530157863816" lon="9.436300291512056"><ele>883.5</ele><time>2026-05-01T11:46:53Z</time></trkpt><trkpt lat="39.9844261730483" lon="9.436365898020668"><ele>883.0</ele><time>2026-05-01T11:46:54Z</time></trkpt><trkpt lat="39.984299067040794" lon="9.436393676438426"><ele>882.5</ele><time>2026-05-01T11:46:55Z</time></trkpt><trkpt lat="39.984158217804335" lon="9.436417325955286"><ele>882.0</ele><time>2026-05-01T11:46:56Z</time></trkpt><trkpt lat="39.98399637040724" lon="9.436440626681094"><ele>880.6666666666667</ele><time>2026-05-01T11:46:57Z</time></trkpt><trkpt lat="39.98382301118425" lon="9.436490241018836"><ele>879.3333333333334</ele><time>2026-05-01T11:46:58Z</time></trkpt><trkpt lat="39.983640353177734" lon="9.436530433208572"><ele>878.0</ele><time>2026-05-01T11:46:59Z</time></trkpt><trkpt lat="39.98347115029447" lon="9.436563611087646"><ele>876.0</ele><time>2026-05-01T11:47:00Z</time></trkpt><trkpt lat="39.98330935930597" lon="9.436603200137045"><ele>874.0</ele><time>2026-05-01T11:47:01Z</time></trkpt><trkpt lat="39.98314386754696" lon="9.436662963981556"><ele>872.0</ele><time>2026-05-01T11:47:02Z</time></trkpt><trkpt lat="39.98300028254715" lon="9.436813520870361"><ele>872.0</ele><time>2026-05-01T11:47:03Z</time></trkpt><trkpt lat="39.9828463472143" lon="9.436932733284053"><ele>872.0</ele><time>2026-05-01T11:47:04Z</time></trkpt><trkpt lat="39.9826703851507" lon="9.437012695816014"><ele>872.0</ele><time>2026-05-01T11:47:05Z</time></trkpt><trkpt lat="39.98248402844622" lon="9.43705854692139"><ele>872.6666666666667</ele><time>2026-05-01T11:47:06Z</time></trkpt><trkpt lat="39.98229947186454" lon="9.437106252867691"><ele>873.3333333333333</ele><time>2026-05-01T11:47:07Z</time></trkpt><trkpt lat="39.98212444988126" lon="9.437150971371604"><ele>874.0</ele><time>2026-05-01T11:47:08Z</time></trkpt><trkpt lat="39.981974053812756" lon="9.43718796475664"><ele>874.0</ele><time>2026-05-01T11:47:09Z</time></trkpt><trkpt lat="39.98185117987259" lon="9.437226648966623"><ele>874.0</ele><time>2026-05-01T11:47:10Z</time></trkpt><trkpt lat="39.98174225209253" lon="9.437324876813145"><ele>874.0</ele><time>2026-05-01T11:47:11Z</time></trkpt><trkpt lat="39.981645952697384" lon="9.43748257717473"><ele>874.0</ele><time>2026-05-01T11:47:12Z</time></trkpt><trkpt lat="39.98155548556957" lon="9.43765636053345"><ele>873.3333333333333</ele><time>2026-05-01T11:47:13Z</time></trkpt><trkpt lat="39.9814571707743" lon="9.43785539561745"><ele>872.6666666666667</ele><time>2026-05-01T11:47:14Z</time></trkpt><trkpt lat="39.98135645119666" lon="9.438039152407905"><ele>872.0</ele><time>2026-05-01T11:47:15Z</time></trkpt><trkpt lat="39.98125714374031" lon="9.438209854349335"><ele>872.0</ele><time>2026-05-01T11:47:16Z</time></trkpt><trkpt lat="39.981149620705345" lon="9.438355629202427"><ele>872.0</ele><time>2026-05-01T11:47:17Z</time></trkpt><trkpt lat="39.9810591803768" lon="9.438481074626958"><ele>872.0</ele><time>2026-05-01T11:47:18Z</time></trkpt><trkpt lat="39.98101046286897" lon="9.438623685097527"><ele>872.0</ele><time>2026-05-01T11:47:19Z</time></trkpt><trkpt lat="39.98102418146181" lon="9.438769519324836"><ele>871.5</ele><time>2026-05-01T11:47:20Z</time></trkpt><trkpt lat="39.98106529610522" lon="9.438903348617766"><ele>871.0</ele><time>2026-05-01T11:47:21Z</time></trkpt><trkpt lat="39.98111845984117" lon="9.439065512920124"><ele>870.5</ele><time>2026-05-01T11:47:22Z</time></trkpt><trkpt lat="39.981220409476514" lon="9.439247084626714"><ele>870.0</ele><time>2026-05-01T11:47:23Z</time></trkpt><trkpt lat="39.98128606641522" lon="9.439432986484661"><ele>870.0</ele><time>2026-05-01T11:47:24Z</time></trkpt><trkpt lat="39.98133941403676" lon="9.43963323217784"><ele>870.0</ele><time>2026-05-01T11:47:25Z</time></trkpt><trkpt lat="39.98137289100862" lon="9.439827626465627"><ele>870.0</ele><time>2026-05-01T11:47:26Z</time></trkpt><trkpt lat="39.98139674298231" lon="9.440000488108714"><ele>869.6</ele><time>2026-05-01T11:47:27Z</time></trkpt><trkpt lat="39.981407146463255" lon="9.440156144257907"><ele>869.2</ele><time>2026-05-01T11:47:28Z</time></trkpt><trkpt lat="39.98138525134965" lon="9.440295921910954"><ele>868.8</ele><time>2026-05-01T11:47:29Z</time></trkpt><trkpt lat="39.98132395057239" lon="9.44041052016619"><ele>868.4</ele><time>2026-05-01T11:47:30Z</time></trkpt><trkpt lat="39.98123437443597" lon="9.440490685329415"><ele>868.0</ele><time>2026-05-01T11:47:31Z</time></trkpt><trkpt lat="39.98113077899074" lon="9.440521435274086"><ele>868.0</ele><time>2026-05-01T11:47:32Z</time></trkpt><trkpt lat="39.981037073325325" lon="9.44048229487574"><ele>868.0</ele><time>2026-05-01T11:47:33Z</time></trkpt><trkpt lat="39.98096018700714" lon="9.440407804782259"><ele>868.0</ele><time>2026-05-01T11:47:34Z</time></trkpt><trkpt lat="39.980853686442316" lon="9.440348286645216"><ele>868.0</ele><time>2026-05-01T11:47:35Z</time></trkpt><trkpt lat="39.98075193238184" lon="9.440248300499869"><ele>868.0</ele><time>2026-05-01T11:47:36Z</time></trkpt><trkpt lat="39.98065276719461" lon="9.440172604730526"><ele>865.3333333333333</ele><time>2026-05-01T11:47:37Z</time></trkpt><trkpt lat="39.98056131142229" lon="9.440126239286233"><ele>862.6666666666666</ele><time>2026-05-01T11:47:38Z</time></trkpt><trkpt lat="39.98049362655327" lon="9.440053284053059"><ele>860.0</ele><time>2026-05-01T11:47:39Z</time></trkpt><trkpt lat="39.98040558911516" lon="9.440034130121969"><ele>857.3333333333333</ele><time>2026-05-01T11:47:40Z</time></trkpt><trkpt lat="39.98032859556297" lon="9.440017926733484"><ele>854.6666666666666</ele><time>2026-05-01T11:47:41Z</time></trkpt><trkpt lat="39.98025861435303" lon="9.440015227000126"><ele>852.0</ele><time>2026-05-01T11:47:42Z</time></trkpt><trkpt lat="39.980145538283885" lon="9.440014068688807"><ele>852.0</ele><time>2026-05-01T11:47:44Z</time></trkpt><trkpt lat="39.98006282380159" lon="9.44004337242027"><ele>852.0</ele><time>2026-05-01T11:47:46Z</time></trkpt><trkpt lat="39.97999241924208" lon="9.44006002803002"><ele>852.0</ele><time>2026-05-01T11:47:48Z</time></trkpt><trkpt lat="39.97992247367464" lon="9.440090311689364"><ele>852.0</ele><time>2026-05-01T11:47:50Z</time></trkpt><trkpt lat="39.979837884578295" lon="9.440157582585373"><ele>852.0</ele><time>2026-05-01T11:47:54Z</time></trkpt><trkpt lat="39.97975813576619" lon="9.440198730105221"><ele>852.0</ele><time>2026-05-01T11:47:57Z</time></trkpt><trkpt lat="39.97969503883978" lon="9.440243336586342"><ele>852.0</ele><time>2026-05-01T11:47:59Z</time></trkpt><trkpt lat="39.979617333028365" lon="9.440309099121214"><ele>852.0</ele><time>2026-05-01T11:48:01Z</time></trkpt><trkpt lat="39.97954989601024" lon="9.440357636329164"><ele>852.0</ele><time>2026-05-01T11:48:02Z</time></trkpt><trkpt lat="39.97949728872836" lon="9.44040390372597"><ele>852.0</ele><time>2026-05-01T11:48:03Z</time></trkpt><trkpt lat="39.979439872751705" lon="9.440451716504755"><ele>852.0</ele><time>2026-05-01T11:48:04Z</time></trkpt><trkpt lat="39.97937529474695" lon="9.440502177180958"><ele>852.0</ele><time>2026-05-01T11:48:05Z</time></trkpt><trkpt lat="39.97930197746556" lon="9.44056568471768"><ele>852.0</ele><time>2026-05-01T11:48:06Z</time></trkpt><trkpt lat="39.97924789263851" lon="9.440673863474231"><ele>852.0</ele><time>2026-05-01T11:48:07Z</time></trkpt><trkpt lat="39.979213036102045" lon="9.44080838982752"><ele>852.0</ele><time>2026-05-01T11:48:08Z</time></trkpt><trkpt lat="39.979206753375756" lon="9.440962645693887"><ele>852.0</ele><time>2026-05-01T11:48:09Z</time></trkpt><trkpt lat="39.979191663082204" lon="9.441120006460972"><ele>852.0</ele><time>2026-05-01T11:48:10Z</time></trkpt><trkpt lat="39.979190269628" lon="9.441299279344996"><ele>853.25</ele><time>2026-05-01T11:48:11Z</time></trkpt><trkpt lat="39.979178044297534" lon="9.441473144114541"><ele>854.5</ele><time>2026-05-01T11:48:12Z</time></trkpt><trkpt lat="39.97911997162965" lon="9.441653535355872"><ele>855.75</ele><time>2026-05-01T11:48:13Z</time></trkpt><trkpt lat="39.97902503268236" lon="9.44181468790106"><ele>857.0</ele><time>2026-05-01T11:48:14Z</time></trkpt><trkpt lat="39.97891669112432" lon="9.44196876152315"><ele>857.0</ele><time>2026-05-01T11:48:15Z</time></trkpt><trkpt lat="39.978790078306226" lon="9.442080469931808"><ele>857.0</ele><time>2026-05-01T11:48:16Z</time></trkpt><trkpt lat="39.978655587656995" lon="9.44219126607717"><ele>857.0</ele><time>2026-05-01T11:48:17Z</time></trkpt><trkpt lat="39.97848798916517" lon="9.442266373237851"><ele>856.6666666666667</ele><time>2026-05-01T11:48:18Z</time></trkpt><trkpt lat="39.97830756777476" lon="9.442324468560264"><ele>856.3333333333333</ele><time>2026-05-01T11:48:19Z</time></trkpt><trkpt lat="39.97812004945485" lon="9.442401877168047"><ele>856.0</ele><time>2026-05-01T11:48:20Z</time></trkpt><trkpt lat="39.977926409249214" lon="9.442480130738465"><ele>856.0</ele><time>2026-05-01T11:48:21Z</time></trkpt><trkpt lat="39.977734976689284" lon="9.442575423330494"><ele>856.0</ele><time>2026-05-01T11:48:22Z</time></trkpt><trkpt lat="39.97754735044176" lon="9.442646739364404"><ele>856.0</ele><time>2026-05-01T11:48:23Z</time></trkpt><trkpt lat="39.9773850330424" lon="9.442702325969977"><ele>856.75</ele><time>2026-05-01T11:48:24Z</time></trkpt><trkpt lat="39.97724256861723" lon="9.442757098185416"><ele>857.5</ele><time>2026-05-01T11:48:25Z</time></trkpt><trkpt lat="39.977107878600094" lon="9.442724843088097"><ele>858.25</ele><time>2026-05-01T11:48:26Z</time></trkpt><trkpt lat="39.976970234688515" lon="9.442622379244307"><ele>859.0</ele><time>2026-05-01T11:48:27Z</time></trkpt><trkpt lat="39.976821496578985" lon="9.442512630882044"><ele>860.0</ele><time>2026-05-01T11:48:28Z</time></trkpt><trkpt lat="39.97665967482388" lon="9.442418824348287"><ele>861.0</ele><time>2026-05-01T11:48:29Z</time></trkpt><trkpt lat="39.9764951903002" lon="9.44237919937239"><ele>862.0</ele><time>2026-05-01T11:48:30Z</time></trkpt><trkpt lat="39.97637431802927" lon="9.44236451961308"><ele>862.0</ele><time>2026-05-01T11:48:31Z</time></trkpt><trkpt lat="39.97628395581592" lon="9.442353339798494"><ele>862.0</ele><time>2026-05-01T11:48:32Z</time></trkpt><trkpt lat="39.97618276907092" lon="9.442335008765674"><ele>862.0</ele><time>2026-05-01T11:48:34Z</time></trkpt><trkpt lat="39.97618658765957" lon="9.442184769402061"><ele>862.0</ele><time>2026-05-01T11:48:37Z</time></trkpt><trkpt lat="39.97618956166171" lon="9.442092443191314"><ele>862.0</ele><time>2026-05-01T11:48:38Z</time></trkpt><trkpt lat="39.97618090952959" lon="9.441981425893864"><ele>862.2</ele><time>2026-05-01T11:48:39Z</time></trkpt><trkpt lat="39.9761812188288" lon="9.441843224380776"><ele>862.4000000000001</ele><time>2026-05-01T11:48:40Z</time></trkpt><trkpt lat="39.97617234982091" lon="9.441700415465103"><ele>862.5999999999999</ele><time>2026-05-01T11:48:41Z</time></trkpt><trkpt lat="39.97614853643809" lon="9.441562718235177"><ele>862.8</ele><time>2026-05-01T11:48:42Z</time></trkpt><trkpt lat="39.97610297620574" lon="9.441450691477632"><ele>863.0</ele><time>2026-05-01T11:48:43Z</time></trkpt><trkpt lat="39.97602853491668" lon="9.441348392431184"><ele>863.5999999999999</ele><time>2026-05-01T11:48:44Z</time></trkpt><trkpt lat="39.975957087192185" lon="9.44122674020227"><ele>864.1999999999999</ele><time>2026-05-01T11:48:45Z</time></trkpt><trkpt lat="39.97586457136404" lon="9.441131716159802"><ele>864.8</ele><time>2026-05-01T11:48:46Z</time></trkpt><trkpt lat="39.97578030874268" lon="9.441045291926828"><ele>865.4</ele><time>2026-05-01T11:48:47Z</time></trkpt><trkpt lat="39.97569280011718" lon="9.440982654721829"><ele>866.0</ele><time>2026-05-01T11:48:48Z</time></trkpt><trkpt lat="39.97562596958585" lon="9.440902914599889"><ele>866.6666666666667</ele><time>2026-05-01T11:48:49Z</time></trkpt><trkpt lat="39.97556163383862" lon="9.44083851293615"><ele>867.3333333333334</ele><time>2026-05-01T11:48:50Z</time></trkpt><trkpt lat="39.97550046843445" lon="9.440774030477916"><ele>868.0</ele><time>2026-05-01T11:48:51Z</time></trkpt><trkpt lat="39.975440916728935" lon="9.440722915144782"><ele>868.6666666666667</ele><time>2026-05-01T11:48:52Z</time></trkpt><trkpt lat="39.97535765505036" lon="9.440626115093684"><ele>869.3333333333334</ele><time>2026-05-01T11:48:54Z</time></trkpt><trkpt lat="39.97529466937823" lon="9.44055866521125"><ele>870.0</ele><time>2026-05-01T11:48:56Z</time></trkpt><trkpt lat="39.97519452861161" lon="9.440471025425746"><ele>869.8333333333334</ele><time>2026-05-01T11:49:11Z</time></trkpt><trkpt lat="39.975138192995146" lon="9.44039908632945"><ele>869.6666666666667</ele><time>2026-05-01T11:49:12Z</time></trkpt><trkpt lat="39.97507266337544" lon="9.44032859855664"><ele>869.5</ele><time>2026-05-01T11:49:13Z</time></trkpt><trkpt lat="39.97501684554957" lon="9.440237781329806"><ele>869.3333333333334</ele><time>2026-05-01T11:49:14Z</time></trkpt><trkpt lat="39.97495265364675" lon="9.440195687612041"><ele>869.1666666666667</ele><time>2026-05-01T11:49:15Z</time></trkpt><trkpt lat="39.974861075541966" lon="9.440095845318503"><ele>869.0</ele><time>2026-05-01T11:49:17Z</time></trkpt><trkpt lat="39.97481861795593" lon="9.440033802373334"><ele>869.8000000000001</ele><time>2026-05-01T11:49:19Z</time></trkpt><trkpt lat="39.97470122227991" lon="9.44006963567156"><ele>870.6000000000001</ele><time>2026-05-01T11:49:24Z</time></trkpt><trkpt lat="39.97464357816353" lon="9.440172210027017"><ele>871.4</ele><time>2026-05-01T11:49:26Z</time></trkpt><trkpt lat="39.97458166149206" lon="9.440285146710876"><ele>872.2</ele><time>2026-05-01T11:49:28Z</time></trkpt><trkpt lat="39.9745150683951" lon="9.440406613259162"><ele>873.0</ele><time>2026-05-01T11:49:30Z</time></trkpt><trkpt lat="39.974445244619766" lon="9.440533972581513"><ele>873.0</ele><time>2026-05-01T11:49:32Z</time></trkpt><trkpt lat="39.97437336329993" lon="9.440660861610855"><ele>873.0</ele><time>2026-05-01T11:49:34Z</time></trkpt><trkpt lat="39.97430316778043" lon="9.440781261304263"><ele>873.0</ele><time>2026-05-01T11:49:36Z</time></trkpt><trkpt lat="39.97422487386503" lon="9.440902485327065"><ele>873.0</ele><time>2026-05-01T11:49:38Z</time></trkpt><trkpt lat="39.97417233274947" lon="9.440974417425835"><ele>873.0</ele><time>2026-05-01T11:49:39Z</time></trkpt><trkpt lat="39.974114430237755" lon="9.44104467007699"><ele>872.9999999999999</ele><time>2026-05-01T11:49:40Z</time></trkpt><trkpt lat="39.97406228185394" lon="9.441108183421948"><ele>873.0</ele><time>2026-05-01T11:49:41Z</time></trkpt><trkpt lat="39.97400792263058" lon="9.441171908754836"><ele>873.0</ele><time>2026-05-01T11:49:42Z</time></trkpt><trkpt lat="39.973958133914735" lon="9.441230276026037"><ele>873.0</ele><time>2026-05-01T11:49:43Z</time></trkpt><trkpt lat="39.9739097763909" lon="9.441282882130965"><ele>873.0</ele><time>2026-05-01T11:49:44Z</time></trkpt><trkpt lat="39.973847255789316" lon="9.441350086554511"><ele>872.9999999999999</ele><time>2026-05-01T11:49:45Z</time></trkpt><trkpt lat="39.97378681403517" lon="9.44141505637097"><ele>873.0</ele><time>2026-05-01T11:49:46Z</time></trkpt><trkpt lat="39.973727595412626" lon="9.441478711406939"><ele>873.0</ele><time>2026-05-01T11:49:47Z</time></trkpt><trkpt lat="39.973665470717854" lon="9.441545263667466"><ele>873.0</ele><time>2026-05-01T11:49:48Z</time></trkpt><trkpt lat="39.97360200011757" lon="9.44161270114867"><ele>873.0</ele><time>2026-05-01T11:49:49Z</time></trkpt><trkpt lat="39.97353845188936" lon="9.441680221174908"><ele>873.0</ele><time>2026-05-01T11:49:50Z</time></trkpt><trkpt lat="39.97348043077928" lon="9.441740864724316"><ele>873.0</ele><time>2026-05-01T11:49:51Z</time></trkpt><trkpt lat="39.97341828351273" lon="9.441802746823575"><ele>873.0</ele><time>2026-05-01T11:49:52Z</time></trkpt><trkpt lat="39.97335246106532" lon="9.441867011104094"><ele>873.0</ele><time>2026-05-01T11:49:53Z</time></trkpt><trkpt lat="39.97329265163133" lon="9.441924072164198"><ele>873.0</ele><time>2026-05-01T11:49:54Z</time></trkpt><trkpt lat="39.97323946578014" lon="9.441972041034637"><ele>873.0</ele><time>2026-05-01T11:49:55Z</time></trkpt><trkpt lat="39.973136751828385" lon="9.44206160506628"><ele>873.0</ele><time>2026-05-01T11:49:57Z</time></trkpt><trkpt lat="39.973080065072736" lon="9.442111653031139"><ele>873.0</ele><time>2026-05-01T11:49:58Z</time></trkpt><trkpt lat="39.97301368166413" lon="9.44217373261992"><ele>873.0</ele><time>2026-05-01T11:49:59Z</time></trkpt><trkpt lat="39.97294645721602" lon="9.442237718933766"><ele>873.0</ele><time>2026-05-01T11:50:00Z</time></trkpt><trkpt lat="39.97287622305754" lon="9.44230513911685"><ele>873.0</ele><time>2026-05-01T11:50:01Z</time></trkpt><trkpt lat="39.97280977652703" lon="9.4423689234198"><ele>873.0</ele><time>2026-05-01T11:50:02Z</time></trkpt><trkpt lat="39.972749266834654" lon="9.442427008774018"><ele>873.0</ele><time>2026-05-01T11:50:03Z</time></trkpt><trkpt lat="39.97268930931361" lon="9.442485380666337"><ele>873.0</ele><time>2026-05-01T11:50:04Z</time></trkpt><trkpt lat="39.97263434515936" lon="9.442538921214176"><ele>873.0</ele><time>2026-05-01T11:50:05Z</time></trkpt><trkpt lat="39.9725808247828" lon="9.44259098010158"><ele>873.0</ele><time>2026-05-01T11:50:06Z</time></trkpt><trkpt lat="39.9725299493429" lon="9.4426400477812"><ele>873.0</ele><time>2026-05-01T11:50:07Z</time></trkpt><trkpt lat="39.97243341533939" lon="9.442729958267165"><ele>873.0</ele><time>2026-05-01T11:50:09Z</time></trkpt><trkpt lat="39.972328004465844" lon="9.442825881106476"><ele>873.0</ele><time>2026-05-01T11:50:11Z</time></trkpt><trkpt lat="39.972261323711336" lon="9.442864671764958"><ele>873.0</ele><time>2026-05-01T11:50:12Z</time></trkpt><trkpt lat="39.972196374614754" lon="9.442897004194435"><ele>874.1666666666666</ele><time>2026-05-01T11:50:13Z</time></trkpt><trkpt lat="39.97213047209896" lon="9.442907003765413"><ele>875.3333333333333</ele><time>2026-05-01T11:50:14Z</time></trkpt><trkpt lat="39.97203271937709" lon="9.442941842025856"><ele>876.5</ele><time>2026-05-01T11:50:16Z</time></trkpt><trkpt lat="39.971946060560285" lon="9.442955359148204"><ele>877.6666666666666</ele><time>2026-05-01T11:50:18Z</time></trkpt><trkpt lat="39.971881610383406" lon="9.442947161143563"><ele>878.8333333333333</ele><time>2026-05-01T11:50:21Z</time></trkpt><trkpt lat="39.971816175429026" lon="9.442914395762386"><ele>880.0</ele><time>2026-05-01T11:50:29Z</time></trkpt><trkpt lat="39.971760853528245" lon="9.44286452707907"><ele>880.0</ele><time>2026-05-01T11:50:32Z</time></trkpt><trkpt lat="39.97170939055114" lon="9.442816867568414"><ele>880.0</ele><time>2026-05-01T11:51:18Z</time></trkpt><trkpt lat="39.97149314828017" lon="9.443206583699748"><ele>880.0</ele><time>2026-05-01T11:51:21Z</time></trkpt><trkpt lat="39.97151669713643" lon="9.443129484542382"><ele>879.9999999999999</ele><time>2026-05-01T11:53:46Z</time></trkpt><trkpt lat="39.97144601451465" lon="9.443111176249847"><ele>880.0</ele><time>2026-05-01T11:53:58Z</time></trkpt><trkpt lat="39.97138074417845" lon="9.443132458868057"><ele>880.0</ele><time>2026-05-01T11:54:35Z</time></trkpt><trkpt lat="39.971338898833125" lon="9.443065560279"><ele>880.0</ele><time>2026-05-01T11:54:48Z</time></trkpt><trkpt lat="39.97140024179867" lon="9.443100183277453"><ele>880.0</ele><time>2026-05-01T12:44:53Z</time></trkpt><trkpt lat="39.971487221373835" lon="9.443095929880549"><ele>879.9999999999999</ele><time>2026-05-01T12:45:04Z</time></trkpt><trkpt lat="39.97148778042606" lon="9.443196125248154"><ele>880.0</ele><time>2026-05-01T12:45:21Z</time></trkpt><trkpt lat="39.97155957011456" lon="9.443237298735397"><ele>879.9999999999999</ele><time>2026-05-01T12:50:02Z</time></trkpt><trkpt lat="39.971604769332416" lon="9.443325309024635"><ele>880.0</ele><time>2026-05-01T12:50:06Z</time></trkpt><trkpt lat="39.97166606226967" lon="9.44327770534427"><ele>880.0</ele><time>2026-05-01T12:50:10Z</time></trkpt><trkpt lat="39.97162250890216" lon="9.443182398280937"><ele>880.0</ele><time>2026-05-01T12:50:13Z</time></trkpt><trkpt lat="39.9716272786911" lon="9.443096867682067"><ele>880.0</ele><time>2026-05-01T12:50:17Z</time></trkpt><trkpt lat="39.971641210415505" lon="9.443010543365618"><ele>879.9999999999999</ele><time>2026-05-01T12:50:23Z</time></trkpt><trkpt lat="39.97170431940048" lon="9.442950028778148"><ele>880.0</ele><time>2026-05-01T12:50:37Z</time></trkpt><trkpt lat="39.97179049911647" lon="9.442924751028512"><ele>880.0</ele><time>2026-05-01T12:50:40Z</time></trkpt><trkpt lat="39.97185585716147" lon="9.44294531103235"><ele>880.0</ele><time>2026-05-01T12:50:42Z</time></trkpt><trkpt lat="39.971938065712564" lon="9.442965967661882"><ele>880.0</ele><time>2026-05-01T12:50:44Z</time></trkpt><trkpt lat="39.97201044949128" lon="9.44296943701582"><ele>880.0</ele><time>2026-05-01T12:50:45Z</time></trkpt><trkpt lat="39.97211831701742" lon="9.44292672842663"><ele>880.0</ele><time>2026-05-01T12:50:47Z</time></trkpt><trkpt lat="39.97223259627136" lon="9.442879501980315"><ele>879.9999999999999</ele><time>2026-05-01T12:50:49Z</time></trkpt><trkpt lat="39.972304138872055" lon="9.442854034056227"><ele>880.0</ele><time>2026-05-01T12:50:50Z</time></trkpt><trkpt lat="39.97236652699145" lon="9.442825555730206"><ele>880.0</ele><time>2026-05-01T12:50:51Z</time></trkpt><trkpt lat="39.9724268227252" lon="9.442792827628093"><ele>880.0</ele><time>2026-05-01T12:50:52Z</time></trkpt><trkpt lat="39.97252357352105" lon="9.442708553752858"><ele>879.9999999999999</ele><time>2026-05-01T12:50:54Z</time></trkpt><trkpt lat="39.97261709950639" lon="9.442605616424242"><ele>880.0</ele><time>2026-05-01T12:50:56Z</time></trkpt><trkpt lat="39.97270584412236" lon="9.442519810230351"><ele>879.4999999999999</ele><time>2026-05-01T12:50:58Z</time></trkpt><trkpt lat="39.972781991537" lon="9.442434340971525"><ele>879.0</ele><time>2026-05-01T12:51:00Z</time></trkpt><trkpt lat="39.972872058764985" lon="9.442342886452218"><ele>878.5</ele><time>2026-05-01T12:51:02Z</time></trkpt><trkpt lat="39.97292829308567" lon="9.442294190025418"><ele>878.0</ele><time>2026-05-01T12:51:03Z</time></trkpt><trkpt lat="39.97298201360163" lon="9.442244421558724"><ele>877.4999999999999</ele><time>2026-05-01T12:51:04Z</time></trkpt><trkpt lat="39.97303383583377" lon="9.442196614221467"><ele>877.0</ele><time>2026-05-01T12:51:05Z</time></trkpt><trkpt lat="39.973116436164126" lon="9.442106754777054"><ele>877.0</ele><time>2026-05-01T12:51:07Z</time></trkpt><trkpt lat="39.97320828527856" lon="9.442024711010829"><ele>877.0</ele><time>2026-05-01T12:51:09Z</time></trkpt><trkpt lat="39.973302766764704" lon="9.441950222662745"><ele>877.0</ele><time>2026-05-01T12:51:11Z</time></trkpt><trkpt lat="39.97335241945997" lon="9.441898997154848"><ele>877.0</ele><time>2026-05-01T12:51:12Z</time></trkpt><trkpt lat="39.97345353496155" lon="9.441805310804616"><ele>877.0</ele><time>2026-05-01T12:51:14Z</time></trkpt><trkpt lat="39.97353575349482" lon="9.441713738290328"><ele>876.8</ele><time>2026-05-01T12:51:16Z</time></trkpt><trkpt lat="39.97358558293482" lon="9.441655545320893"><ele>876.6</ele><time>2026-05-01T12:51:17Z</time></trkpt><trkpt lat="39.973686261355056" lon="9.441556210811372"><ele>876.3999999999999</ele><time>2026-05-01T12:51:19Z</time></trkpt><trkpt lat="39.97377679611024" lon="9.441458630099477"><ele>876.1999999999999</ele><time>2026-05-01T12:51:21Z</time></trkpt><trkpt lat="39.97385651680375" lon="9.44136428313925"><ele>876.0</ele><time>2026-05-01T12:51:23Z</time></trkpt><trkpt lat="39.97394022598425" lon="9.441272363097855"><ele>876.0</ele><time>2026-05-01T12:51:25Z</time></trkpt><trkpt lat="39.97404151236535" lon="9.441163216152646"><ele>875.9999999999999</ele><time>2026-05-01T12:51:27Z</time></trkpt><trkpt lat="39.97409273550887" lon="9.441106688686773"><ele>875.9999999999999</ele><time>2026-05-01T12:51:28Z</time></trkpt><trkpt lat="39.97417446826572" lon="9.440991217016881"><ele>876.0</ele><time>2026-05-01T12:51:30Z</time></trkpt><trkpt lat="39.97424969624912" lon="9.440892190235294"><ele>876.0</ele><time>2026-05-01T12:51:32Z</time></trkpt><trkpt lat="39.97431142804046" lon="9.440795503306122"><ele>875.25</ele><time>2026-05-01T12:51:34Z</time></trkpt><trkpt lat="39.974381185066434" lon="9.440680059208628"><ele>874.5</ele><time>2026-05-01T12:51:36Z</time></trkpt><trkpt lat="39.97444742843272" lon="9.44055982454373"><ele>873.75</ele><time>2026-05-01T12:51:38Z</time></trkpt><trkpt lat="39.974519793143045" lon="9.44043841569201"><ele>873.0</ele><time>2026-05-01T12:51:40Z</time></trkpt><trkpt lat="39.97458592743364" lon="9.440327242055233"><ele>873.0</ele><time>2026-05-01T12:51:42Z</time></trkpt><trkpt lat="39.97463841519283" lon="9.44021488716768"><ele>873.0</ele><time>2026-05-01T12:51:44Z</time></trkpt><trkpt lat="39.97469321728593" lon="9.440111621004881"><ele>873.0</ele><time>2026-05-01T12:51:46Z</time></trkpt><trkpt lat="39.974758984218816" lon="9.440037106396787"><ele>873.0</ele><time>2026-05-01T12:51:48Z</time></trkpt><trkpt lat="39.97482888763456" lon="9.440035418998287"><ele>873.0</ele><time>2026-05-01T12:51:50Z</time></trkpt><trkpt lat="39.974892891496594" lon="9.440106264007929"><ele>873.0</ele><time>2026-05-01T12:51:53Z</time></trkpt><trkpt lat="39.97494986226623" lon="9.44016952961099"><ele>873.0</ele><time>2026-05-01T12:51:55Z</time></trkpt><trkpt lat="39.975010137034786" lon="9.440234767772395"><ele>873.0</ele><time>2026-05-01T12:51:57Z</time></trkpt><trkpt lat="39.97505972578664" lon="9.440286061460931"><ele>873.0</ele><time>2026-05-01T12:51:59Z</time></trkpt><trkpt lat="39.97512130757304" lon="9.440362141438236"><ele>873.0</ele><time>2026-05-01T12:52:02Z</time></trkpt><trkpt lat="39.975173369423146" lon="9.440445050641866"><ele>873.0</ele><time>2026-05-01T12:52:05Z</time></trkpt><trkpt lat="39.97521190173855" lon="9.440536231018198"><ele>873.0</ele><time>2026-05-01T12:52:08Z</time></trkpt><trkpt lat="39.975248427346386" lon="9.440603588712845"><ele>872.5</ele><time>2026-05-01T12:53:51Z</time></trkpt><trkpt lat="39.975320048817586" lon="9.440634202816298"><ele>872.0</ele><time>2026-05-01T12:53:54Z</time></trkpt><trkpt lat="39.975406228834466" lon="9.440689479969231"><ele>871.5</ele><time>2026-05-01T12:53:56Z</time></trkpt><trkpt lat="39.97546888163495" lon="9.440738168386451"><ele>871.0</ele><time>2026-05-01T12:53:57Z</time></trkpt><trkpt lat="39.97553939681187" lon="9.440806208637207"><ele>870.5</ele><time>2026-05-01T12:53:58Z</time></trkpt><trkpt lat="39.97559813986783" lon="9.440913617091725"><ele>870.0</ele><time>2026-05-01T12:53:59Z</time></trkpt><trkpt lat="39.97567590337846" lon="9.440993375496168"><ele>870.0</ele><time>2026-05-01T12:54:00Z</time></trkpt><trkpt lat="39.97576616359755" lon="9.441061068950287"><ele>870.0</ele><time>2026-05-01T12:54:01Z</time></trkpt><trkpt lat="39.975845280647185" lon="9.441146201005852"><ele>870.0</ele><time>2026-05-01T12:54:02Z</time></trkpt><trkpt lat="39.97592281878132" lon="9.441227517053472"><ele>870.0</ele><time>2026-05-01T12:54:03Z</time></trkpt><trkpt lat="39.9759997238759" lon="9.441305165408773"><ele>870.0</ele><time>2026-05-01T12:54:04Z</time></trkpt><trkpt lat="39.97604458551274" lon="9.441410579522513"><ele>868.8333333333334</ele><time>2026-05-01T12:54:05Z</time></trkpt><trkpt lat="39.97609602585415" lon="9.44149874169478"><ele>867.6666666666667</ele><time>2026-05-01T12:54:06Z</time></trkpt><trkpt lat="39.97612832446251" lon="9.441587216075991"><ele>866.5</ele><time>2026-05-01T12:54:07Z</time></trkpt><trkpt lat="39.976137763532684" lon="9.441677564632101"><ele>865.3333333333334</ele><time>2026-05-01T12:54:08Z</time></trkpt><trkpt lat="39.976152126313394" lon="9.441783954129123"><ele>864.1666666666667</ele><time>2026-05-01T12:54:09Z</time></trkpt><trkpt lat="39.97615949766188" lon="9.441909773192465"><ele>863.0</ele><time>2026-05-01T12:54:10Z</time></trkpt><trkpt lat="39.97617494406538" lon="9.44201868734051"><ele>863.0</ele><time>2026-05-01T12:54:11Z</time></trkpt><trkpt lat="39.97615526414972" lon="9.442123778480589"><ele>863.0</ele><time>2026-05-01T12:54:12Z</time></trkpt><trkpt lat="39.9761512568279" lon="9.442225197171995"><ele>863.0</ele><time>2026-05-01T12:54:13Z</time></trkpt><trkpt lat="39.97614503286963" lon="9.44235442795614"><ele>863.0</ele><time>2026-05-01T12:54:15Z</time></trkpt><trkpt lat="39.976271104210106" lon="9.442410843796745"><ele>863.0</ele><time>2026-05-01T12:54:17Z</time></trkpt><trkpt lat="39.976395093673894" lon="9.44239926677779"><ele>862.8333333333334</ele><time>2026-05-01T12:54:19Z</time></trkpt><trkpt lat="39.976464403773825" lon="9.442403427092408"><ele>862.6666666666667</ele><time>2026-05-01T12:54:20Z</time></trkpt><trkpt lat="39.97654558509828" lon="9.442417139760758"><ele>862.5</ele><time>2026-05-01T12:54:21Z</time></trkpt><trkpt lat="39.9766382959249" lon="9.442438178283957"><ele>862.3333333333333</ele><time>2026-05-01T12:54:22Z</time></trkpt><trkpt lat="39.976714692220106" lon="9.442459934343518"><ele>862.1666666666666</ele><time>2026-05-01T12:54:23Z</time></trkpt><trkpt lat="39.97677902030106" lon="9.442500602943436"><ele>862.0</ele><time>2026-05-01T12:54:24Z</time></trkpt><trkpt lat="39.97684300491012" lon="9.442548970141749"><ele>861.4999999999999</ele><time>2026-05-01T12:54:25Z</time></trkpt><trkpt lat="39.976898892734994" lon="9.442596694767836"><ele>861.0</ele><time>2026-05-01T12:54:26Z</time></trkpt><trkpt lat="39.976998177349856" lon="9.442676400197204"><ele>860.5</ele><time>2026-05-01T12:54:28Z</time></trkpt><trkpt lat="39.97706257160906" lon="9.442717435612678"><ele>860.0</ele><time>2026-05-01T12:54:29Z</time></trkpt><trkpt lat="39.97713380485225" lon="9.442755588240503"><ele>859.4999999999999</ele><time>2026-05-01T12:54:30Z</time></trkpt><trkpt lat="39.977205077109566" lon="9.442779790673189"><ele>859.0</ele><time>2026-05-01T12:54:31Z</time></trkpt><trkpt lat="39.97728488813758" lon="9.442782521316722"><ele>859.0</ele><time>2026-05-01T12:54:32Z</time></trkpt><trkpt lat="39.977369303120284" lon="9.442754517810904"><ele>859.0000000000001</ele><time>2026-05-01T12:54:33Z</time></trkpt><trkpt lat="39.97746027362186" lon="9.442710486618587"><ele>859.0000000000001</ele><time>2026-05-01T12:54:34Z</time></trkpt><trkpt lat="39.97756403013509" lon="9.442657467743757"><ele>859.0</ele><time>2026-05-01T12:54:35Z</time></trkpt><trkpt lat="39.97767786856857" lon="9.442607804556344"><ele>859.0</ele><time>2026-05-01T12:54:36Z</time></trkpt><trkpt lat="39.977795063148704" lon="9.442563344659028"><ele>858.25</ele><time>2026-05-01T12:54:37Z</time></trkpt><trkpt lat="39.97791066655132" lon="9.442517236262406"><ele>857.5</ele><time>2026-05-01T12:54:38Z</time></trkpt><trkpt lat="39.97802716566776" lon="9.442470768215575"><ele>856.75</ele><time>2026-05-01T12:54:39Z</time></trkpt><trkpt lat="39.978143216051926" lon="9.442421277831198"><ele>856.0</ele><time>2026-05-01T12:54:40Z</time></trkpt><trkpt lat="39.97825183205477" lon="9.442371386679936"><ele>855.5</ele><time>2026-05-01T12:54:41Z</time></trkpt><trkpt lat="39.978375192859126" lon="9.442329409499848"><ele>855.0</ele><time>2026-05-01T12:54:42Z</time></trkpt><trkpt lat="39.978487621698655" lon="9.442281801154264"><ele>854.5</ele><time>2026-05-01T12:54:43Z</time></trkpt><trkpt lat="39.978606287812255" lon="9.442237789941137"><ele>854.0</ele><time>2026-05-01T12:54:44Z</time></trkpt><trkpt lat="39.9787127721213" lon="9.442176089592115"><ele>854.75</ele><time>2026-05-01T12:54:45Z</time></trkpt><trkpt lat="39.978814224854936" lon="9.442098101918445"><ele>855.5</ele><time>2026-05-01T12:54:46Z</time></trkpt><trkpt lat="39.97890281263963" lon="9.441993070457572"><ele>856.25</ele><time>2026-05-01T12:54:47Z</time></trkpt><trkpt lat="39.978992708828734" lon="9.441889018383824"><ele>857.0</ele><time>2026-05-01T12:54:48Z</time></trkpt><trkpt lat="39.9790702604481" lon="9.44176055899069"><ele>857.0</ele><time>2026-05-01T12:54:49Z</time></trkpt><trkpt lat="39.979140637142606" lon="9.441624095695571"><ele>857.0</ele><time>2026-05-01T12:54:50Z</time></trkpt><trkpt lat="39.979201549179244" lon="9.441474163747587"><ele>857.0</ele><time>2026-05-01T12:54:51Z</time></trkpt><trkpt lat="39.9792222304167" lon="9.441296747540743"><ele>857.0</ele><time>2026-05-01T12:54:52Z</time></trkpt><trkpt lat="39.97921615458163" lon="9.441115289845678"><ele>855.75</ele><time>2026-05-01T12:54:53Z</time></trkpt><trkpt lat="39.979229332637175" lon="9.440941722223654"><ele>854.5</ele><time>2026-05-01T12:54:54Z</time></trkpt><trkpt lat="39.979253238876204" lon="9.440772580540926"><ele>853.25</ele><time>2026-05-01T12:54:55Z</time></trkpt><trkpt lat="39.979296971483144" lon="9.44060890172818"><ele>852.0</ele><time>2026-05-01T12:54:56Z</time></trkpt><trkpt lat="39.97941010279873" lon="9.440500928398286"><ele>853.0</ele><time>2026-05-01T12:54:57Z</time></trkpt><trkpt lat="39.97953271229386" lon="9.440409466173296"><ele>854.0</ele><time>2026-05-01T12:54:58Z</time></trkpt><trkpt lat="39.97964691491657" lon="9.440314659084377"><ele>855.0</ele><time>2026-05-01T12:54:59Z</time></trkpt><trkpt lat="39.979768761999516" lon="9.440251395917002"><ele>856.0</ele><time>2026-05-01T12:55:00Z</time></trkpt><trkpt lat="39.979872597230035" lon="9.440179345127616"><ele>856.0</ele><time>2026-05-01T12:55:01Z</time></trkpt><trkpt lat="39.979972669629035" lon="9.440118041578407"><ele>855.9999999999999</ele><time>2026-05-01T12:55:02Z</time></trkpt><trkpt lat="39.980075204596744" lon="9.440082020763136"><ele>855.9999999999999</ele><time>2026-05-01T12:55:03Z</time></trkpt><trkpt lat="39.9801698190431" lon="9.440062679481432"><ele>856.0</ele><time>2026-05-01T12:55:04Z</time></trkpt><trkpt lat="39.980262039812004" lon="9.440050633481716"><ele>856.0</ele><time>2026-05-01T12:55:05Z</time></trkpt><trkpt lat="39.980358668864646" lon="9.44005360680355"><ele>855.3333333333333</ele><time>2026-05-01T12:55:06Z</time></trkpt><trkpt lat="39.98045876674564" lon="9.44007145539819"><ele>854.6666666666666</ele><time>2026-05-01T12:55:07Z</time></trkpt><trkpt lat="39.98054198621203" lon="9.44014172831338"><ele>854.0</ele><time>2026-05-01T12:55:08Z</time></trkpt><trkpt lat="39.980617389544456" lon="9.44019632689727"><ele>853.3333333333333</ele><time>2026-05-01T12:55:09Z</time></trkpt><trkpt lat="39.98068860941499" lon="9.440234773514375"><ele>852.6666666666666</ele><time>2026-05-01T12:55:10Z</time></trkpt><trkpt lat="39.98075494783131" lon="9.440285885841625"><ele>852.0</ele><time>2026-05-01T12:55:11Z</time></trkpt><trkpt lat="39.98082482067272" lon="9.440343294882767"><ele>854.1666666666666</ele><time>2026-05-01T12:55:12Z</time></trkpt><trkpt lat="39.98089610945339" lon="9.44039975524584"><ele>856.3333333333333</ele><time>2026-05-01T12:55:13Z</time></trkpt><trkpt lat="39.98096784578481" lon="9.440453218724038"><ele>858.5</ele><time>2026-05-01T12:55:14Z</time></trkpt><trkpt lat="39.981037213627516" lon="9.440498339061106"><ele>860.6666666666666</ele><time>2026-05-01T12:55:15Z</time></trkpt><trkpt lat="39.98111389689373" lon="9.440540531337543"><ele>862.8333333333333</ele><time>2026-05-01T12:55:16Z</time></trkpt><trkpt lat="39.9811968700018" lon="9.440558700420501"><ele>865.0</ele><time>2026-05-01T12:55:17Z</time></trkpt><trkpt lat="39.981279603300564" lon="9.440525920771519"><ele>865.0</ele><time>2026-05-01T12:55:18Z</time></trkpt><trkpt lat="39.98135428782567" lon="9.440463442938796"><ele>865.0</ele><time>2026-05-01T12:55:19Z</time></trkpt><trkpt lat="39.98141951735758" lon="9.440374660437703"><ele>865.0</ele><time>2026-05-01T12:55:20Z</time></trkpt><trkpt lat="39.981461297851446" lon="9.440254365698138"><ele>865.0</ele><time>2026-05-01T12:55:21Z</time></trkpt><trkpt lat="39.98148291173481" lon="9.44012277950018"><ele>865.0</ele><time>2026-05-01T12:55:22Z</time></trkpt><trkpt lat="39.981454113001156" lon="9.439978860599796"><ele>865.0</ele><time>2026-05-01T12:55:23Z</time></trkpt><trkpt lat="39.981422835803286" lon="9.439839854271865"><ele>865.0</ele><time>2026-05-01T12:55:24Z</time></trkpt><trkpt lat="39.981396628888234" lon="9.439696452530436"><ele>865.0</ele><time>2026-05-01T12:55:25Z</time></trkpt><trkpt lat="39.981375029538114" lon="9.439550298815675"><ele>865.0</ele><time>2026-05-01T12:55:26Z</time></trkpt><trkpt lat="39.98134451097734" lon="9.439399844041741"><ele>866.25</ele><time>2026-05-01T12:55:27Z</time></trkpt><trkpt lat="39.98129058332998" lon="9.439253748240029"><ele>867.5</ele><time>2026-05-01T12:55:28Z</time></trkpt><trkpt lat="39.98121437366114" lon="9.439118323383886"><ele>868.75</ele><time>2026-05-01T12:55:29Z</time></trkpt><trkpt lat="39.98113759886462" lon="9.438977857058145"><ele>870.0</ele><time>2026-05-01T12:55:30Z</time></trkpt><trkpt lat="39.9810872459413" lon="9.438848945951905"><ele>870.4</ele><time>2026-05-01T12:55:31Z</time></trkpt><trkpt lat="39.981061824281355" lon="9.438728122904294"><ele>870.8</ele><time>2026-05-01T12:55:32Z</time></trkpt><trkpt lat="39.98107063254448" lon="9.438603162189223"><ele>871.2</ele><time>2026-05-01T12:55:33Z</time></trkpt><trkpt lat="39.98111532217794" lon="9.438488583630262"><ele>871.6</ele><time>2026-05-01T12:55:34Z</time></trkpt><trkpt lat="39.98118653507643" lon="9.438378888383186"><ele>872.0</ele><time>2026-05-01T12:55:35Z</time></trkpt><trkpt lat="39.98126731628401" lon="9.438258167325086"><ele>872.0</ele><time>2026-05-01T12:55:36Z</time></trkpt><trkpt lat="39.98135046775006" lon="9.438119782081005"><ele>872.0</ele><time>2026-05-01T12:55:37Z</time></trkpt><trkpt lat="39.98142956865572" lon="9.437963845523113"><ele>872.0</ele><time>2026-05-01T12:55:38Z</time></trkpt><trkpt lat="39.98151324591346" lon="9.437806433050726"><ele>872.0</ele><time>2026-05-01T12:55:39Z</time></trkpt><trkpt lat="39.98159717079192" lon="9.437650955063313"><ele>872.5</ele><time>2026-05-01T12:55:40Z</time></trkpt><trkpt lat="39.98168017883239" lon="9.437501945593345"><ele>873.0</ele><time>2026-05-01T12:55:41Z</time></trkpt><trkpt lat="39.98176544459233" lon="9.437362084327548"><ele>873.5</ele><time>2026-05-01T12:55:42Z</time></trkpt><trkpt lat="39.981866726188315" lon="9.437246196553346"><ele>874.0</ele><time>2026-05-01T12:55:43Z</time></trkpt><trkpt lat="39.98200019100228" lon="9.437216309702196"><ele>874.0</ele><time>2026-05-01T12:55:44Z</time></trkpt><trkpt lat="39.98212927236383" lon="9.437165161739495"><ele>874.0</ele><time>2026-05-01T12:55:45Z</time></trkpt><trkpt lat="39.982258083576276" lon="9.437141939316907"><ele>874.0</ele><time>2026-05-01T12:55:46Z</time></trkpt><trkpt lat="39.98239601938346" lon="9.437113571947647"><ele>874.0</ele><time>2026-05-01T12:55:47Z</time></trkpt><trkpt lat="39.98253956767426" lon="9.437085005603189"><ele>873.5</ele><time>2026-05-01T12:55:48Z</time></trkpt><trkpt lat="39.9826778383402" lon="9.43703890098481"><ele>873.0</ele><time>2026-05-01T12:55:49Z</time></trkpt><trkpt lat="39.98281240327028" lon="9.436986608309834"><ele>872.5</ele><time>2026-05-01T12:55:50Z</time></trkpt><trkpt lat="39.98294121600173" lon="9.436916317388961"><ele>872.0</ele><time>2026-05-01T12:55:51Z</time></trkpt><trkpt lat="39.983049388010556" lon="9.436807351553464"><ele>872.0</ele><time>2026-05-01T12:55:52Z</time></trkpt><trkpt lat="39.98315827509377" lon="9.436703977619953"><ele>872.0</ele><time>2026-05-01T12:55:53Z</time></trkpt><trkpt lat="39.983272818432894" lon="9.436625338225276"><ele>872.0</ele><time>2026-05-01T12:55:54Z</time></trkpt><trkpt lat="39.98340120770388" lon="9.43661855098679"><ele>872.0</ele><time>2026-05-01T12:55:55Z</time></trkpt><trkpt lat="39.983546520219534" lon="9.436571829367901"><ele>873.5</ele><time>2026-05-01T12:55:56Z</time></trkpt><trkpt lat="39.983685749434756" lon="9.43654861565714"><ele>875.0</ele><time>2026-05-01T12:55:57Z</time></trkpt><trkpt lat="39.983821950831306" lon="9.436519824619682"><ele>876.5</ele><time>2026-05-01T12:55:58Z</time></trkpt><trkpt lat="39.98395653571665" lon="9.436491901614374"><ele>878.0</ele><time>2026-05-01T12:55:59Z</time></trkpt><trkpt lat="39.98408561049354" lon="9.43646354129672"><ele>879.0</ele><time>2026-05-01T12:56:00Z</time></trkpt><trkpt lat="39.98420815985601" lon="9.436434180687865"><ele>880.0</ele><time>2026-05-01T12:56:01Z</time></trkpt><trkpt lat="39.98432295519379" lon="9.436404460928552"><ele>881.0</ele><time>2026-05-01T12:56:02Z</time></trkpt><trkpt lat="39.984430872978315" lon="9.43637361070236"><ele>882.0</ele><time>2026-05-01T12:56:03Z</time></trkpt><trkpt lat="39.98453758319284" lon="9.436346567684458"><ele>882.5</ele><time>2026-05-01T12:56:04Z</time></trkpt><trkpt lat="39.98462891029318" lon="9.436264896632329"><ele>883.0</ele><time>2026-05-01T12:56:05Z</time></trkpt><trkpt lat="39.98467551091626" lon="9.436123974278445"><ele>883.5</ele><time>2026-05-01T12:56:06Z</time></trkpt><trkpt lat="39.98468262386937" lon="9.435975452630672"><ele>884.0</ele><time>2026-05-01T12:56:07Z</time></trkpt><trkpt lat="39.98465358688871" lon="9.435813794277603"><ele>884.0</ele><time>2026-05-01T12:56:08Z</time></trkpt><trkpt lat="39.984622223201164" lon="9.435651915258221"><ele>884.0</ele><time>2026-05-01T12:56:09Z</time></trkpt><trkpt lat="39.984588873642466" lon="9.435478979827893"><ele>884.0</ele><time>2026-05-01T12:56:10Z</time></trkpt><trkpt lat="39.98456075481886" lon="9.435302666881714"><ele>884.0</ele><time>2026-05-01T12:56:11Z</time></trkpt><trkpt lat="39.98453694984897" lon="9.435119024373536"><ele>885.0</ele><time>2026-05-01T12:56:12Z</time></trkpt><trkpt lat="39.984525517811925" lon="9.434930133176984"><ele>886.0</ele><time>2026-05-01T12:56:13Z</time></trkpt><trkpt lat="39.98455558820402" lon="9.434742416692579"><ele>887.0</ele><time>2026-05-01T12:56:14Z</time></trkpt><trkpt lat="39.98455335920407" lon="9.434553080807516"><ele>888.0</ele><time>2026-05-01T12:56:15Z</time></trkpt><trkpt lat="39.98453993395979" lon="9.43436726130965"><ele>888.0</ele><time>2026-05-01T12:56:16Z</time></trkpt><trkpt lat="39.9844824876083" lon="9.434192589965885"><ele>888.0</ele><time>2026-05-01T12:56:17Z</time></trkpt><trkpt lat="39.984432204901886" lon="9.43404148783692"><ele>888.0</ele><time>2026-05-01T12:56:18Z</time></trkpt><trkpt lat="39.98443969536874" lon="9.433904661141277"><ele>888.0</ele><time>2026-05-01T12:56:19Z</time></trkpt><trkpt lat="39.98451984915656" lon="9.433797765586874"><ele>888.0</ele><time>2026-05-01T12:56:20Z</time></trkpt><trkpt lat="39.98460166723682" lon="9.433676251203794"><ele>888.0</ele><time>2026-05-01T12:56:21Z</time></trkpt><trkpt lat="39.984700080037896" lon="9.433587616152142"><ele>888.0</ele><time>2026-05-01T12:56:22Z</time></trkpt><trkpt lat="39.984818442019964" lon="9.433539309725216"><ele>888.0</ele><time>2026-05-01T12:56:23Z</time></trkpt><trkpt lat="39.98495103343376" lon="9.43354094523963"><ele>889.6666666666667</ele><time>2026-05-01T12:56:24Z</time></trkpt><trkpt lat="39.985094525757034" lon="9.433513753849043"><ele>891.3333333333334</ele><time>2026-05-01T12:56:25Z</time></trkpt><trkpt lat="39.985244978034174" lon="9.433511542356987"><ele>893.0</ele><time>2026-05-01T12:56:26Z</time></trkpt><trkpt lat="39.98540034296657" lon="9.433497404660978"><ele>893.0</ele><time>2026-05-01T12:56:27Z</time></trkpt><trkpt lat="39.98555611382475" lon="9.433468066563831"><ele>893.0</ele><time>2026-05-01T12:56:28Z</time></trkpt><trkpt lat="39.98570761720284" lon="9.433417461698397"><ele>893.0</ele><time>2026-05-01T12:56:29Z</time></trkpt><trkpt lat="39.985857638680514" lon="9.433359727948677"><ele>895.3333333333334</ele><time>2026-05-01T12:56:30Z</time></trkpt><trkpt lat="39.98600677749696" lon="9.433304890255284"><ele>897.6666666666667</ele><time>2026-05-01T12:56:31Z</time></trkpt><trkpt lat="39.98615383322729" lon="9.43325016671567"><ele>900.0</ele><time>2026-05-01T12:56:32Z</time></trkpt><trkpt lat="39.9862976499604" lon="9.433195043756012"><ele>900.0</ele><time>2026-05-01T12:56:33Z</time></trkpt><trkpt lat="39.98643104915851" lon="9.433142477685792"><ele>900.0</ele><time>2026-05-01T12:56:34Z</time></trkpt><trkpt lat="39.986545272331625" lon="9.43309705181935"><ele>900.0</ele><time>2026-05-01T12:56:35Z</time></trkpt><trkpt lat="39.98665160345702" lon="9.433049377998485"><ele>900.0</ele><time>2026-05-01T12:56:36Z</time></trkpt><trkpt lat="39.98674907298034" lon="9.432975546498946"><ele>901.6</ele><time>2026-05-01T12:56:37Z</time></trkpt><trkpt lat="39.98681797596788" lon="9.432861198993898"><ele>903.2</ele><time>2026-05-01T12:56:38Z</time></trkpt><trkpt lat="39.9868458554627" lon="9.432725895045301"><ele>904.8</ele><time>2026-05-01T12:56:39Z</time></trkpt><trkpt lat="39.98684480667455" lon="9.432590656464631"><ele>906.4</ele><time>2026-05-01T12:56:40Z</time></trkpt><trkpt lat="39.986842042547075" lon="9.43245831232785"><ele>908.0</ele><time>2026-05-01T12:56:41Z</time></trkpt><trkpt lat="39.98687237154517" lon="9.432321870031176"><ele>908.0</ele><time>2026-05-01T12:56:42Z</time></trkpt><trkpt lat="39.98693983190949" lon="9.432197078854983"><ele>908.0</ele><time>2026-05-01T12:56:43Z</time></trkpt><trkpt lat="39.98701406020799" lon="9.432074106234714"><ele>908.0</ele><time>2026-05-01T12:56:44Z</time></trkpt><trkpt lat="39.987057442660074" lon="9.431929996687742"><ele>908.0</ele><time>2026-05-01T12:56:45Z</time></trkpt><trkpt lat="39.987084634254444" lon="9.431781221987798"><ele>907.75</ele><time>2026-05-01T12:56:46Z</time></trkpt><trkpt lat="39.98707041448757" lon="9.431621959495532"><ele>907.5</ele><time>2026-05-01T12:56:47Z</time></trkpt><trkpt lat="39.987079133987606" lon="9.431467306722583"><ele>907.25</ele><time>2026-05-01T12:56:48Z</time></trkpt><trkpt lat="39.987116013772166" lon="9.43131407669633"><ele>907.0</ele><time>2026-05-01T12:56:49Z</time></trkpt><trkpt lat="39.98721109155043" lon="9.43121558585758"><ele>905.5</ele><time>2026-05-01T12:56:50Z</time></trkpt><trkpt lat="39.98730882365161" lon="9.431135157768233"><ele>904.0</ele><time>2026-05-01T12:56:51Z</time></trkpt><trkpt lat="39.987412258967694" lon="9.431053607751206"><ele>902.5</ele><time>2026-05-01T12:56:52Z</time></trkpt><trkpt lat="39.987521712550354" lon="9.430991428994368"><ele>901.0</ele><time>2026-05-01T12:56:53Z</time></trkpt><trkpt lat="39.98765213558171" lon="9.430938088282304"><ele>904.0</ele><time>2026-05-01T12:56:54Z</time></trkpt><trkpt lat="39.9877865516964" lon="9.430880198217235"><ele>907.0</ele><time>2026-05-01T12:56:55Z</time></trkpt><trkpt lat="39.98792370687519" lon="9.430818569758978"><ele>910.0</ele><time>2026-05-01T12:56:56Z</time></trkpt><trkpt lat="39.98805927526236" lon="9.430742596023931"><ele>913.0</ele><time>2026-05-01T12:56:57Z</time></trkpt><trkpt lat="39.98819420255834" lon="9.43068010746915"><ele>913.0</ele><time>2026-05-01T12:56:58Z</time></trkpt><trkpt lat="39.98832972529799" lon="9.430623797825"><ele>913.0</ele><time>2026-05-01T12:56:59Z</time></trkpt><trkpt lat="39.988457003404264" lon="9.430555045419508"><ele>913.0</ele><time>2026-05-01T12:57:00Z</time></trkpt><trkpt lat="39.98856909839916" lon="9.430502113023243"><ele>913.0</ele><time>2026-05-01T12:57:01Z</time></trkpt><trkpt lat="39.98866824282379" lon="9.430425493345115"><ele>914.25</ele><time>2026-05-01T12:57:02Z</time></trkpt><trkpt lat="39.98874572638367" lon="9.430314846502116"><ele>915.5</ele><time>2026-05-01T12:57:03Z</time></trkpt><trkpt lat="39.98880020457666" lon="9.430173532393734"><ele>916.75</ele><time>2026-05-01T12:57:04Z</time></trkpt><trkpt lat="39.988835180269206" lon="9.43001967198203"><ele>918.0</ele><time>2026-05-01T12:57:05Z</time></trkpt><trkpt lat="39.98887911656266" lon="9.42986988836052"><ele>918.0</ele><time>2026-05-01T12:57:06Z</time></trkpt><trkpt lat="39.98892946663402" lon="9.4297166025961"><ele>918.0</ele><time>2026-05-01T12:57:07Z</time></trkpt><trkpt lat="39.988981220920266" lon="9.429560920825041"><ele>918.0</ele><time>2026-05-01T12:57:08Z</time></trkpt><trkpt lat="39.989039598487565" lon="9.429406510774118"><ele>918.0</ele><time>2026-05-01T12:57:09Z</time></trkpt><trkpt lat="39.9891122051235" lon="9.42926333076755"><ele>918.5</ele><time>2026-05-01T12:57:10Z</time></trkpt><trkpt lat="39.98920367262849" lon="9.42913827970773"><ele>919.0</ele><time>2026-05-01T12:57:11Z</time></trkpt><trkpt lat="39.98932486960127" lon="9.429091216493728"><ele>919.5</ele><time>2026-05-01T12:57:12Z</time></trkpt><trkpt lat="39.989444060643535" lon="9.429087714130295"><ele>920.0</ele><time>2026-05-01T12:57:13Z</time></trkpt><trkpt lat="39.989573446735236" lon="9.429065490299992"><ele>920.0</ele><time>2026-05-01T12:57:14Z</time></trkpt><trkpt lat="39.98970521959994" lon="9.42906869122106"><ele>920.0</ele><time>2026-05-01T12:57:15Z</time></trkpt><trkpt lat="39.98982499290632" lon="9.429052249030889"><ele>920.0</ele><time>2026-05-01T12:57:16Z</time></trkpt><trkpt lat="39.9899308129816" lon="9.428983056661213"><ele>920.0</ele><time>2026-05-01T12:57:17Z</time></trkpt><trkpt lat="39.990016662221294" lon="9.42886391026491"><ele>921.25</ele><time>2026-05-01T12:57:18Z</time></trkpt><trkpt lat="39.990085229048894" lon="9.428726294258496"><ele>922.5</ele><time>2026-05-01T12:57:19Z</time></trkpt><trkpt lat="39.99014631938206" lon="9.428575846769968"><ele>923.75</ele><time>2026-05-01T12:57:20Z</time></trkpt><trkpt lat="39.990212780400455" lon="9.428428087155"><ele>925.0</ele><time>2026-05-01T12:57:21Z</time></trkpt><trkpt lat="39.99029016234183" lon="9.428288346316753"><ele>925.0</ele><time>2026-05-01T12:57:22Z</time></trkpt><trkpt lat="39.99036942531326" lon="9.428147720336764"><ele>925.0</ele><time>2026-05-01T12:57:23Z</time></trkpt><trkpt lat="39.990455713967215" lon="9.427991746431024"><ele>925.0</ele><time>2026-05-01T12:57:24Z</time></trkpt><trkpt lat="39.990542549071144" lon="9.427829056963713"><ele>925.0</ele><time>2026-05-01T12:57:25Z</time></trkpt><trkpt lat="39.99062819028863" lon="9.427660096666587"><ele>924.3333333333333</ele><time>2026-05-01T12:57:26Z</time></trkpt><trkpt lat="39.99071294437807" lon="9.427490494954675"><ele>923.6666666666667</ele><time>2026-05-01T12:57:27Z</time></trkpt><trkpt lat="39.990791473370464" lon="9.427313515272509"><ele>923.0</ele><time>2026-05-01T12:57:28Z</time></trkpt><trkpt lat="39.99085294151033" lon="9.4271229545674"><ele>924.3333333333334</ele><time>2026-05-01T12:57:29Z</time></trkpt><trkpt lat="39.990883016517024" lon="9.426918698084307"><ele>925.6666666666667</ele><time>2026-05-01T12:57:30Z</time></trkpt><trkpt lat="39.99088756150958" lon="9.426710088442801"><ele>927.0</ele><time>2026-05-01T12:57:31Z</time></trkpt><trkpt lat="39.99089316745266" lon="9.426518111272435"><ele>927.0</ele><time>2026-05-01T12:57:32Z</time></trkpt><trkpt lat="39.990902100556504" lon="9.426349645620753"><ele>927.0</ele><time>2026-05-01T12:57:33Z</time></trkpt><trkpt lat="39.99091195601469" lon="9.426199227018481"><ele>927.0</ele><time>2026-05-01T12:57:34Z</time></trkpt><trkpt lat="39.99093204730069" lon="9.426065505273446"><ele>927.0</ele><time>2026-05-01T12:57:35Z</time></trkpt><trkpt lat="39.99096564998003" lon="9.425940504372177"><ele>926.6</ele><time>2026-05-01T12:57:36Z</time></trkpt><trkpt lat="39.99101765864087" lon="9.425817811949267"><ele>926.2</ele><time>2026-05-01T12:57:37Z</time></trkpt><trkpt lat="39.9910837770783" lon="9.425698887089137"><ele>925.8</ele><time>2026-05-01T12:57:38Z</time></trkpt><trkpt lat="39.9911632543955" lon="9.425594085541693"><ele>925.4</ele><time>2026-05-01T12:57:39Z</time></trkpt><trkpt lat="39.9912444147122" lon="9.42549070083747"><ele>925.0</ele><time>2026-05-01T12:57:40Z</time></trkpt><trkpt lat="39.99132072995574" lon="9.425380695708125"><ele>923.75</ele><time>2026-05-01T12:57:41Z</time></trkpt><trkpt lat="39.99140801855052" lon="9.425268782269686"><ele>922.5</ele><time>2026-05-01T12:57:42Z</time></trkpt><trkpt lat="39.99149557585614" lon="9.425156540841789"><ele>921.25</ele><time>2026-05-01T12:57:43Z</time></trkpt><trkpt lat="39.99158249163529" lon="9.425038195641658"><ele>920.0</ele><time>2026-05-01T12:57:44Z</time></trkpt><trkpt lat="39.99167233983155" lon="9.424920184148812"><ele>920.25</ele><time>2026-05-01T12:57:45Z</time></trkpt><trkpt lat="39.99176371825671" lon="9.424795523790651"><ele>920.5</ele><time>2026-05-01T12:57:46Z</time></trkpt><trkpt lat="39.9918545099952" lon="9.424663013229358"><ele>920.75</ele><time>2026-05-01T12:57:47Z</time></trkpt><trkpt lat="39.99193274690564" lon="9.424521240275714"><ele>921.0</ele><time>2026-05-01T12:57:48Z</time></trkpt><trkpt lat="39.99198777550669" lon="9.42434564494203"><ele>921.0</ele><time>2026-05-01T12:57:49Z</time></trkpt><trkpt lat="39.99202878489175" lon="9.424156956619766"><ele>921.0</ele><time>2026-05-01T12:57:50Z</time></trkpt><trkpt lat="39.99208366808593" lon="9.423980754311996"><ele>921.0</ele><time>2026-05-01T12:57:51Z</time></trkpt><trkpt lat="39.99217227593421" lon="9.423832507548676"><ele>921.0</ele><time>2026-05-01T12:57:52Z</time></trkpt><trkpt lat="39.99226260923035" lon="9.42369455309425"><ele>920.75</ele><time>2026-05-01T12:57:53Z</time></trkpt><trkpt lat="39.99234406333295" lon="9.42354696260641"><ele>920.5</ele><time>2026-05-01T12:57:54Z</time></trkpt><trkpt lat="39.992435032999246" lon="9.42342461625779"><ele>920.25</ele><time>2026-05-01T12:57:55Z</time></trkpt><trkpt lat="39.9925505312794" lon="9.423353297849662"><ele>920.0</ele><time>2026-05-01T12:57:56Z</time></trkpt><trkpt lat="39.992665364639315" lon="9.423314283386759"><ele>920.0</ele><time>2026-05-01T12:57:57Z</time></trkpt><trkpt lat="39.99280122135563" lon="9.423294154314876"><ele>920.0</ele><time>2026-05-01T12:57:58Z</time></trkpt><trkpt lat="39.99296372681429" lon="9.423277425725914"><ele>920.0</ele><time>2026-05-01T12:57:59Z</time></trkpt><trkpt lat="39.993109807632" lon="9.42322605892276"><ele>920.0</ele><time>2026-05-01T12:58:00Z</time></trkpt><trkpt lat="39.993251609034" lon="9.423207907329505"><ele>920.0</ele><time>2026-05-01T12:58:01Z</time></trkpt><trkpt lat="39.99339261688297" lon="9.423131876245261"><ele>920.0</ele><time>2026-05-01T12:58:02Z</time></trkpt><trkpt lat="39.993527220251025" lon="9.423021181559612"><ele>919.0</ele><time>2026-05-01T12:58:03Z</time></trkpt><trkpt lat="39.993632003532255" lon="9.422866029436738"><ele>918.0</ele><time>2026-05-01T12:58:04Z</time></trkpt><trkpt lat="39.99373715398087" lon="9.422737374039896"><ele>917.0</ele><time>2026-05-01T12:58:05Z</time></trkpt><trkpt lat="39.99382244541988" lon="9.42258276002947"><ele>916.0</ele><time>2026-05-01T12:58:06Z</time></trkpt><trkpt lat="39.99390064196125" lon="9.4224175146684"><ele>916.0</ele><time>2026-05-01T12:58:07Z</time></trkpt><trkpt lat="39.993962910720484" lon="9.42222763477422"><ele>916.0</ele><time>2026-05-01T12:58:08Z</time></trkpt><trkpt lat="39.99402007450104" lon="9.422026606680557"><ele>916.0</ele><time>2026-05-01T12:58:09Z</time></trkpt><trkpt lat="39.99406294108518" lon="9.42182858046744"><ele>913.75</ele><time>2026-05-01T12:58:10Z</time></trkpt><trkpt lat="39.99414306321787" lon="9.421656377800298"><ele>911.5</ele><time>2026-05-01T12:58:11Z</time></trkpt><trkpt lat="39.99424708300933" lon="9.421528144569855"><ele>909.25</ele><time>2026-05-01T12:58:12Z</time></trkpt><trkpt lat="39.994368001760606" lon="9.42144685897984"><ele>907.0</ele><time>2026-05-01T12:58:13Z</time></trkpt><trkpt lat="39.99449527877274" lon="9.421423129482651"><ele>907.0</ele><time>2026-05-01T12:58:14Z</time></trkpt><trkpt lat="39.99462478891188" lon="9.421425903823131"><ele>907.0</ele><time>2026-05-01T12:58:15Z</time></trkpt><trkpt lat="39.99476086593158" lon="9.42141464868955"><ele>907.0</ele><time>2026-05-01T12:58:16Z</time></trkpt><trkpt lat="39.994899399341875" lon="9.421453698751185"><ele>907.0</ele><time>2026-05-01T12:58:17Z</time></trkpt><trkpt lat="39.995029282996605" lon="9.421496852085165"><ele>906.5</ele><time>2026-05-01T12:58:18Z</time></trkpt><trkpt lat="39.99515283203875" lon="9.421554244496356"><ele>906.0</ele><time>2026-05-01T12:58:19Z</time></trkpt><trkpt lat="39.995275260315765" lon="9.42161255672512"><ele>905.5</ele><time>2026-05-01T12:58:20Z</time></trkpt><trkpt lat="39.9954012332298" lon="9.421657830037313"><ele>905.0</ele><time>2026-05-01T12:58:21Z</time></trkpt><trkpt lat="39.995526919523506" lon="9.421697226132602"><ele>905.0</ele><time>2026-05-01T12:58:22Z</time></trkpt><trkpt lat="39.99565864372083" lon="9.421733525493698"><ele>905.0</ele><time>2026-05-01T12:58:23Z</time></trkpt><trkpt lat="39.99577445710197" lon="9.421757356771685"><ele>905.0</ele><time>2026-05-01T12:58:24Z</time></trkpt><trkpt lat="39.995903911231565" lon="9.421734720350376"><ele>905.0</ele><time>2026-05-01T12:58:25Z</time></trkpt><trkpt lat="39.996025758853776" lon="9.421683897333635"><ele>903.25</ele><time>2026-05-01T12:58:26Z</time></trkpt><trkpt lat="39.9961463909505" lon="9.421596925307416"><ele>901.5</ele><time>2026-05-01T12:58:27Z</time></trkpt><trkpt lat="39.99626510282715" lon="9.421496708258596"><ele>899.75</ele><time>2026-05-01T12:58:28Z</time></trkpt><trkpt lat="39.99638471599337" lon="9.42138154560877"><ele>898.0</ele><time>2026-05-01T12:58:29Z</time></trkpt><trkpt lat="39.996499959241" lon="9.421261166360814"><ele>898.0</ele><time>2026-05-01T12:58:30Z</time></trkpt><trkpt lat="39.99662945765624" lon="9.42113952136595"><ele>898.0</ele><time>2026-05-01T12:58:31Z</time></trkpt><trkpt lat="39.99676930410335" lon="9.421035664003885"><ele>898.0</ele><time>2026-05-01T12:58:32Z</time></trkpt><trkpt lat="39.99692029186028" lon="9.420960103529746"><ele>900.0</ele><time>2026-05-01T12:58:33Z</time></trkpt><trkpt lat="39.99707677088261" lon="9.420898472796203"><ele>902.0</ele><time>2026-05-01T12:58:34Z</time></trkpt><trkpt lat="39.997241155746835" lon="9.420840279088313"><ele>904.0</ele><time>2026-05-01T12:58:35Z</time></trkpt><trkpt lat="39.99739842341433" lon="9.420775774519225"><ele>906.0</ele><time>2026-05-01T12:58:36Z</time></trkpt><trkpt lat="39.99753471661848" lon="9.420700502398747"><ele>908.0</ele><time>2026-05-01T12:58:37Z</time></trkpt><trkpt lat="39.99766908101016" lon="9.420639635232137"><ele>910.0</ele><time>2026-05-01T12:58:38Z</time></trkpt><trkpt lat="39.99780107029176" lon="9.4205638738102"><ele>912.0</ele><time>2026-05-01T12:58:39Z</time></trkpt><trkpt lat="39.99793312279072" lon="9.420476825756484"><ele>905.0</ele><time>2026-05-01T12:58:40Z</time></trkpt><trkpt lat="39.99806545798138" lon="9.420376836618853"><ele>898.0</ele><time>2026-05-01T12:58:41Z</time></trkpt><trkpt lat="39.99820139196296" lon="9.420280788494829"><ele>891.0</ele><time>2026-05-01T12:58:42Z</time></trkpt><trkpt lat="39.998321135880225" lon="9.42015860607076"><ele>893.25</ele><time>2026-05-01T12:58:43Z</time></trkpt><trkpt lat="39.9984309770023" lon="9.420052370194298"><ele>895.5</ele><time>2026-05-01T12:58:44Z</time></trkpt><trkpt lat="39.998529431598215" lon="9.41992694066366"><ele>897.75</ele><time>2026-05-01T12:58:45Z</time></trkpt><trkpt lat="39.998638536398275" lon="9.419805647132844"><ele>900.0</ele><time>2026-05-01T12:58:46Z</time></trkpt><trkpt lat="39.998764414497586" lon="9.41970134915056"><ele>892.3333333333333</ele><time>2026-05-01T12:58:47Z</time></trkpt><trkpt lat="39.99890322967829" lon="9.41961896983815"><ele>884.6666666666666</ele><time>2026-05-01T12:58:48Z</time></trkpt><trkpt lat="39.99904839887474" lon="9.419561094803898"><ele>877.0</ele><time>2026-05-01T12:58:49Z</time></trkpt><trkpt lat="39.99920115133521" lon="9.419534459017912"><ele>876.6666666666666</ele><time>2026-05-01T12:58:50Z</time></trkpt><trkpt lat="39.99936238949919" lon="9.41954143814077"><ele>876.3333333333333</ele><time>2026-05-01T12:58:51Z</time></trkpt><trkpt lat="39.999521990176085" lon="9.419585867319753"><ele>876.0</ele><time>2026-05-01T12:58:52Z</time></trkpt><trkpt lat="39.99966525849102" lon="9.41964339506559"><ele>879.6666666666667</ele><time>2026-05-01T12:58:53Z</time></trkpt><trkpt lat="39.999799478160995" lon="9.419730785519457"><ele>883.3333333333334</ele><time>2026-05-01T12:58:54Z</time></trkpt><trkpt lat="39.9999133615366" lon="9.419888645789978"><ele>887.0</ele><time>2026-05-01T12:58:55Z</time></trkpt><trkpt lat="40.00002452740573" lon="9.420049636913248"><ele>887.0</ele><time>2026-05-01T12:58:56Z</time></trkpt><trkpt lat="40.00013207351367" lon="9.420226276673654"><ele>887.0</ele><time>2026-05-01T12:58:57Z</time></trkpt><trkpt lat="40.00022059887256" lon="9.420417768528406"><ele>887.0</ele><time>2026-05-01T12:58:58Z</time></trkpt><trkpt lat="40.00029141122238" lon="9.420595407717348"><ele>889.0</ele><time>2026-05-01T12:58:59Z</time></trkpt><trkpt lat="40.00037009120279" lon="9.420743621129745"><ele>891.0</ele><time>2026-05-01T12:59:00Z</time></trkpt><trkpt lat="40.00042505336979" lon="9.420870996363469"><ele>893.0</ele><time>2026-05-01T12:59:01Z</time></trkpt><trkpt lat="40.00050172159445" lon="9.420956936632194"><ele>895.0</ele><time>2026-05-01T12:59:02Z</time></trkpt><trkpt lat="40.00059909086933" lon="9.421007525814096"><ele>895.0</ele><time>2026-05-01T12:59:03Z</time></trkpt><trkpt lat="40.00070891169571" lon="9.42103302828086"><ele>895.0</ele><time>2026-05-01T12:59:04Z</time></trkpt><trkpt lat="40.00080347077976" lon="9.421060618901535"><ele>895.0</ele><time>2026-05-01T12:59:05Z</time></trkpt><trkpt lat="40.000904498656205" lon="9.421115598722636"><ele>895.0</ele><time>2026-05-01T12:59:06Z</time></trkpt><trkpt lat="40.00099674650332" lon="9.421155494087584"><ele>895.0</ele><time>2026-05-01T12:59:07Z</time></trkpt><trkpt lat="40.001080619620154" lon="9.421176993523323"><ele>891.6</ele><time>2026-05-01T12:59:08Z</time></trkpt><trkpt lat="40.00118173826434" lon="9.421167460980236"><ele>888.2</ele><time>2026-05-01T12:59:09Z</time></trkpt><trkpt lat="40.001265846245474" lon="9.421117563458479"><ele>884.8</ele><time>2026-05-01T12:59:10Z</time></trkpt><trkpt lat="40.00132701495882" lon="9.421007954190376"><ele>881.4</ele><time>2026-05-01T12:59:11Z</time></trkpt><trkpt lat="40.00137983633265" lon="9.420888687734228"><ele>878.0</ele><time>2026-05-01T12:59:12Z</time></trkpt><trkpt lat="40.001439199651664" lon="9.420759262012457"><ele>878.0</ele><time>2026-05-01T12:59:13Z</time></trkpt><trkpt lat="40.00151445906406" lon="9.420628229232408"><ele>878.0</ele><time>2026-05-01T12:59:14Z</time></trkpt><trkpt lat="40.001592391608426" lon="9.420503106646992"><ele>878.0</ele><time>2026-05-01T12:59:15Z</time></trkpt><trkpt lat="40.00171474196148" lon="9.420420279400066"><ele>878.0</ele><time>2026-05-01T12:59:16Z</time></trkpt><trkpt lat="40.00184855352758" lon="9.420361775194952"><ele>880.25</ele><time>2026-05-01T12:59:17Z</time></trkpt><trkpt lat="40.00198963039364" lon="9.420284466674351"><ele>882.5</ele><time>2026-05-01T12:59:18Z</time></trkpt><trkpt lat="40.00211972974478" lon="9.42023510600139"><ele>884.75</ele><time>2026-05-01T12:59:19Z</time></trkpt><trkpt lat="40.00222589352247" lon="9.420190424632317"><ele>887.0</ele><time>2026-05-01T12:59:20Z</time></trkpt><trkpt lat="40.00232280432682" lon="9.420150439160265"><ele>887.0</ele><time>2026-05-01T12:59:21Z</time></trkpt><trkpt lat="40.00241728607113" lon="9.420095615972038"><ele>887.0</ele><time>2026-05-01T12:59:22Z</time></trkpt><trkpt lat="40.00250940853131" lon="9.420038308604305"><ele>887.0</ele><time>2026-05-01T12:59:23Z</time></trkpt><trkpt lat="40.0025835277639" lon="9.41994841629862"><ele>887.0</ele><time>2026-05-01T12:59:24Z</time></trkpt><trkpt lat="40.00265016758022" lon="9.41984180857666"><ele>887.0</ele><time>2026-05-01T12:59:25Z</time></trkpt><trkpt lat="40.00270781001244" lon="9.419713655065122"><ele>887.75</ele><time>2026-05-01T12:59:26Z</time></trkpt><trkpt lat="40.00276615204398" lon="9.419570623518737"><ele>888.5</ele><time>2026-05-01T12:59:27Z</time></trkpt><trkpt lat="40.002828077803414" lon="9.419420749114364"><ele>889.25</ele><time>2026-05-01T12:59:28Z</time></trkpt><trkpt lat="40.00288319098723" lon="9.419285155012805"><ele>890.0</ele><time>2026-05-01T12:59:29Z</time></trkpt><trkpt lat="40.00293645921043" lon="9.419165482698784"><ele>890.0</ele><time>2026-05-01T12:59:30Z</time></trkpt><trkpt lat="40.003016678026505" lon="9.419079455854394"><ele>890.0</ele><time>2026-05-01T12:59:31Z</time></trkpt><trkpt lat="40.003110716180174" lon="9.41898965038753"><ele>890.0</ele><time>2026-05-01T12:59:32Z</time></trkpt><trkpt lat="40.003210157190985" lon="9.418906549993386"><ele>890.0</ele><time>2026-05-01T12:59:33Z</time></trkpt><trkpt lat="40.00330455229884" lon="9.418810332772727"><ele>891.25</ele><time>2026-05-01T12:59:34Z</time></trkpt><trkpt lat="40.00339813045466" lon="9.418744978523154"><ele>892.5</ele><time>2026-05-01T12:59:35Z</time></trkpt><trkpt lat="40.00356467247013" lon="9.418618948498768"><ele>893.75</ele><time>2026-05-01T12:59:37Z</time></trkpt><trkpt lat="40.00364462256431" lon="9.418544861174757"><ele>895.0</ele><time>2026-05-01T12:59:38Z</time></trkpt><trkpt lat="40.003732740273676" lon="9.418464824185675"><ele>895.0</ele><time>2026-05-01T12:59:39Z</time></trkpt><trkpt lat="40.00382755897074" lon="9.418379475374442"><ele>895.0</ele><time>2026-05-01T12:59:40Z</time></trkpt><trkpt lat="40.00392832448007" lon="9.418296002123748"><ele>895.0</ele><time>2026-05-01T12:59:41Z</time></trkpt><trkpt lat="40.00403215130934" lon="9.41820036130018"><ele>895.0</ele><time>2026-05-01T12:59:42Z</time></trkpt><trkpt lat="40.0041170557039" lon="9.418090948092996"><ele>896.0</ele><time>2026-05-01T12:59:43Z</time></trkpt><trkpt lat="40.00414342987546" lon="9.417931062768437"><ele>897.0</ele><time>2026-05-01T12:59:44Z</time></trkpt><trkpt lat="40.00414147627306" lon="9.417767253997987"><ele>898.0</ele><time>2026-05-01T12:59:45Z</time></trkpt><trkpt lat="40.00410363900564" lon="9.417608624659431"><ele>899.0</ele><time>2026-05-01T12:59:46Z</time></trkpt><trkpt lat="40.00402150681957" lon="9.417461528015105"><ele>899.0</ele><time>2026-05-01T12:59:47Z</time></trkpt><trkpt lat="40.003939178775546" lon="9.417305316616533"><ele>899.0</ele><time>2026-05-01T12:59:48Z</time></trkpt><trkpt lat="40.003838799964214" lon="9.417165245831152"><ele>899.0</ele><time>2026-05-01T12:59:49Z</time></trkpt><trkpt lat="40.0037407176874" lon="9.417021380091063"><ele>899.0</ele><time>2026-05-01T12:59:50Z</time></trkpt><trkpt lat="40.00364219367519" lon="9.416866782610402"><ele>898.75</ele><time>2026-05-01T12:59:51Z</time></trkpt><trkpt lat="40.00353804230897" lon="9.41671695753754"><ele>898.5</ele><time>2026-05-01T12:59:52Z</time></trkpt><trkpt lat="40.003436520589254" lon="9.41657083257198"><ele>898.25</ele><time>2026-05-01T12:59:53Z</time></trkpt><trkpt lat="40.00334944720918" lon="9.41643884598903"><ele>898.0</ele><time>2026-05-01T12:59:54Z</time></trkpt><trkpt lat="40.0032750419914" lon="9.41632234206133"><ele>898.0</ele><time>2026-05-01T12:59:55Z</time></trkpt><trkpt lat="40.003224484163425" lon="9.416189573089719"><ele>898.0</ele><time>2026-05-01T12:59:56Z</time></trkpt><trkpt lat="40.00320010751556" lon="9.416041886460318"><ele>898.0</ele><time>2026-05-01T12:59:57Z</time></trkpt><trkpt lat="40.00323723183864" lon="9.415891358000433"><ele>898.0</ele><time>2026-05-01T12:59:58Z</time></trkpt><trkpt lat="40.00330986152944" lon="9.415756134764761"><ele>900.6666666666666</ele><time>2026-05-01T12:59:59Z</time></trkpt><trkpt lat="40.00342947731827" lon="9.415669707839767"><ele>903.3333333333333</ele><time>2026-05-01T13:00:00Z</time></trkpt><trkpt lat="40.00357018772659" lon="9.415563806577453"><ele>906.0</ele><time>2026-05-01T13:00:01Z</time></trkpt><trkpt lat="40.0037011163237" lon="9.415463278057379"><ele>906.0</ele><time>2026-05-01T13:00:02Z</time></trkpt><trkpt lat="40.00380318704656" lon="9.415326639799916"><ele>906.0</ele><time>2026-05-01T13:00:03Z</time></trkpt><trkpt lat="40.00386340831345" lon="9.415173905106665"><ele>906.0</ele><time>2026-05-01T13:00:04Z</time></trkpt><trkpt lat="40.00386106689282" lon="9.415002016329744"><ele>906.0</ele><time>2026-05-01T13:00:05Z</time></trkpt><trkpt lat="40.003818375885245" lon="9.414834776846646"><ele>906.0</ele><time>2026-05-01T13:00:06Z</time></trkpt><trkpt lat="40.003760309305015" lon="9.414666646373128"><ele>906.0</ele><time>2026-05-01T13:00:07Z</time></trkpt><trkpt lat="40.003703616511174" lon="9.41449952439147"><ele>906.0</ele><time>2026-05-01T13:00:08Z</time></trkpt><trkpt lat="40.003651836182755" lon="9.414326048090127"><ele>906.0</ele><time>2026-05-01T13:00:09Z</time></trkpt><trkpt lat="40.003601933995945" lon="9.414148906896372"><ele>907.25</ele><time>2026-05-01T13:00:10Z</time></trkpt><trkpt lat="40.00354732434113" lon="9.413983330660399"><ele>908.5</ele><time>2026-05-01T13:00:11Z</time></trkpt><trkpt lat="40.00345989566542" lon="9.413844429112844"><ele>909.75</ele><time>2026-05-01T13:00:12Z</time></trkpt><trkpt lat="40.00332873998301" lon="9.413759359258778"><ele>911.0</ele><time>2026-05-01T13:00:13Z</time></trkpt><trkpt lat="40.00317813813525" lon="9.413738440605915"><ele>913.3333333333334</ele><time>2026-05-01T13:00:14Z</time></trkpt><trkpt lat="40.003022825691986" lon="9.413749943098503"><ele>915.6666666666667</ele><time>2026-05-01T13:00:15Z</time></trkpt><trkpt lat="40.00286806370016" lon="9.413759750517913"><ele>918.0</ele><time>2026-05-01T13:00:16Z</time></trkpt><trkpt lat="40.00271598952411" lon="9.413699098729388"><ele>918.0</ele><time>2026-05-01T13:00:17Z</time></trkpt><trkpt lat="40.00257783552218" lon="9.413597514210945"><ele>918.0</ele><time>2026-05-01T13:00:18Z</time></trkpt><trkpt lat="40.00246343484008" lon="9.41348488798441"><ele>918.0</ele><time>2026-05-01T13:00:19Z</time></trkpt><trkpt lat="40.00243047001316" lon="9.413352820196023"><ele>918.0</ele><time>2026-05-01T13:00:20Z</time></trkpt><trkpt lat="40.002421067494254" lon="9.413245159537293"><ele>919.5</ele><time>2026-05-01T13:00:21Z</time></trkpt><trkpt lat="40.00248289718807" lon="9.41314874195054"><ele>921.0</ele><time>2026-05-01T13:00:22Z</time></trkpt><trkpt lat="40.002529010016474" lon="9.412986129303595"><ele>922.5</ele><time>2026-05-01T13:00:23Z</time></trkpt><trkpt lat="40.002552003907745" lon="9.412813274487855"><ele>924.0</ele><time>2026-05-01T13:00:24Z</time></trkpt><trkpt lat="40.002502178938954" lon="9.412645622893049"><ele>923.5</ele><time>2026-05-01T13:00:25Z</time></trkpt><trkpt lat="40.002404405877634" lon="9.412524158272292"><ele>923.0</ele><time>2026-05-01T13:00:26Z</time></trkpt><trkpt lat="40.00227998336633" lon="9.412435111607588"><ele>922.5</ele><time>2026-05-01T13:00:27Z</time></trkpt><trkpt lat="40.00215186605829" lon="9.412347616815621"><ele>922.0</ele><time>2026-05-01T13:00:28Z</time></trkpt><trkpt lat="40.0020226126807" lon="9.412259269680643"><ele>922.0</ele><time>2026-05-01T13:00:29Z</time></trkpt><trkpt lat="40.00188517219129" lon="9.412183179713015"><ele>922.0</ele><time>2026-05-01T13:00:30Z</time></trkpt><trkpt lat="40.00174077092518" lon="9.412136446203561"><ele>922.0</ele><time>2026-05-01T13:00:31Z</time></trkpt><trkpt lat="40.00161174331753" lon="9.412107934476373"><ele>922.0</ele><time>2026-05-01T13:00:32Z</time></trkpt><trkpt lat="40.00152343763859" lon="9.412027631944314"><ele>922.0</ele><time>2026-05-01T13:00:33Z</time></trkpt><trkpt lat="40.00146942666288" lon="9.411931030579098"><ele>922.0</ele><time>2026-05-01T13:00:34Z</time></trkpt><trkpt lat="40.00144019534822" lon="9.411822489978853"><ele>922.0</ele><time>2026-05-01T13:00:35Z</time></trkpt><trkpt lat="40.00143901776967" lon="9.41167483328147"><ele>922.0</ele><time>2026-05-01T13:00:36Z</time></trkpt><trkpt lat="40.00148789789273" lon="9.411522805095839"><ele>922.0</ele><time>2026-05-01T13:00:37Z</time></trkpt><trkpt lat="40.001585145881876" lon="9.411420700825014"><ele>923.3333333333333</ele><time>2026-05-01T13:00:38Z</time></trkpt><trkpt lat="40.00170293341803" lon="9.411330745483895"><ele>924.6666666666667</ele><time>2026-05-01T13:00:39Z</time></trkpt><trkpt lat="40.001844577455984" lon="9.411221794768236"><ele>926.0</ele><time>2026-05-01T13:00:40Z</time></trkpt><trkpt lat="40.001982703055724" lon="9.411115635641496"><ele>922.3333333333334</ele><time>2026-05-01T13:00:41Z</time></trkpt><trkpt lat="40.00212124966924" lon="9.411010980478128"><ele>918.6666666666667</ele><time>2026-05-01T13:00:42Z</time></trkpt><trkpt lat="40.00225962463889" lon="9.41090904631717"><ele>915.0</ele><time>2026-05-01T13:00:43Z</time></trkpt><trkpt lat="40.00239892760644" lon="9.410826055983291"><ele>916.6666666666667</ele><time>2026-05-01T13:00:44Z</time></trkpt><trkpt lat="40.00254496630773" lon="9.41076296827534"><ele>918.3333333333334</ele><time>2026-05-01T13:00:45Z</time></trkpt><trkpt lat="40.002700068854935" lon="9.410719974252812"><ele>920.0</ele><time>2026-05-01T13:00:46Z</time></trkpt><trkpt lat="40.0028578462427" lon="9.410686898224867"><ele>920.0</ele><time>2026-05-01T13:00:47Z</time></trkpt><trkpt lat="40.00301426248767" lon="9.410657525778035"><ele>920.0</ele><time>2026-05-01T13:00:48Z</time></trkpt><trkpt lat="40.00315874301177" lon="9.410627389692873"><ele>920.0</ele><time>2026-05-01T13:00:49Z</time></trkpt><trkpt lat="40.00329798781251" lon="9.410591375879745"><ele>920.0</ele><time>2026-05-01T13:00:50Z</time></trkpt><trkpt lat="40.00344309016088" lon="9.41056242099116"><ele>920.0</ele><time>2026-05-01T13:00:51Z</time></trkpt><trkpt lat="40.00358324494419" lon="9.410528820396763"><ele>920.0</ele><time>2026-05-01T13:00:52Z</time></trkpt><trkpt lat="40.00371815001032" lon="9.410505399573623"><ele>920.0</ele><time>2026-05-01T13:00:53Z</time></trkpt><trkpt lat="40.0038609222232" lon="9.410497756488292"><ele>920.0</ele><time>2026-05-01T13:00:54Z</time></trkpt><trkpt lat="40.0040078563982" lon="9.41048156883993"><ele>911.3333333333334</ele><time>2026-05-01T13:00:55Z</time></trkpt><trkpt lat="40.00415617767955" lon="9.410465583953268"><ele>902.6666666666667</ele><time>2026-05-01T13:00:56Z</time></trkpt><trkpt lat="40.00430502693874" lon="9.410428000923064"><ele>894.0</ele><time>2026-05-01T13:00:57Z</time></trkpt><trkpt lat="40.00445560929679" lon="9.41036814310326"><ele>894.0</ele><time>2026-05-01T13:00:58Z</time></trkpt><trkpt lat="40.004594478749794" lon="9.41030366547573"><ele>894.0</ele><time>2026-05-01T13:00:59Z</time></trkpt><trkpt lat="40.00472411227585" lon="9.410248211130398"><ele>894.0</ele><time>2026-05-01T13:01:00Z</time></trkpt><trkpt lat="40.004852124551306" lon="9.410190003961397"><ele>894.0</ele><time>2026-05-01T13:01:01Z</time></trkpt><trkpt lat="40.00499119931296" lon="9.410142834239059"><ele>896.25</ele><time>2026-05-01T13:01:02Z</time></trkpt><trkpt lat="40.00512969968033" lon="9.41009990602727"><ele>898.5</ele><time>2026-05-01T13:01:03Z</time></trkpt><trkpt lat="40.00528188625869" lon="9.410071994204987"><ele>900.75</ele><time>2026-05-01T13:01:04Z</time></trkpt><trkpt lat="40.00542083646285" lon="9.4100401942641"><ele>903.0</ele><time>2026-05-01T13:01:05Z</time></trkpt><trkpt lat="40.005563233384315" lon="9.410009549704634"><ele>903.0</ele><time>2026-05-01T13:01:06Z</time></trkpt><trkpt lat="40.00570575675487" lon="9.40997636931455"><ele>903.0</ele><time>2026-05-01T13:01:07Z</time></trkpt><trkpt lat="40.005843679059055" lon="9.40994604748694"><ele>903.0</ele><time>2026-05-01T13:01:08Z</time></trkpt><trkpt lat="40.005984526403125" lon="9.409929028752675"><ele>903.0</ele><time>2026-05-01T13:01:09Z</time></trkpt><trkpt lat="40.00612805948209" lon="9.40992861073998"><ele>904.0</ele><time>2026-05-01T13:01:10Z</time></trkpt><trkpt lat="40.0062775749557" lon="9.409949238552054"><ele>905.0</ele><time>2026-05-01T13:01:11Z</time></trkpt><trkpt lat="40.00643339929334" lon="9.409960974634906"><ele>906.0</ele><time>2026-05-01T13:01:12Z</time></trkpt><trkpt lat="40.00659242344917" lon="9.409964134115784"><ele>905.6666666666667</ele><time>2026-05-01T13:01:13Z</time></trkpt><trkpt lat="40.006768220531676" lon="9.409972030306129"><ele>905.3333333333334</ele><time>2026-05-01T13:01:14Z</time></trkpt><trkpt lat="40.00694166078887" lon="9.409956896883665"><ele>905.0</ele><time>2026-05-01T13:01:15Z</time></trkpt><trkpt lat="40.007120386178315" lon="9.40993855519165"><ele>905.0</ele><time>2026-05-01T13:01:16Z</time></trkpt><trkpt lat="40.00730744374307" lon="9.409931414563113"><ele>905.0</ele><time>2026-05-01T13:01:17Z</time></trkpt><trkpt lat="40.00748481779028" lon="9.409912062235858"><ele>905.0</ele><time>2026-05-01T13:01:18Z</time></trkpt><trkpt lat="40.00766267038362" lon="9.409917061685169"><ele>904.0</ele><time>2026-05-01T13:01:19Z</time></trkpt><trkpt lat="40.00785606940732" lon="9.409927482515236"><ele>903.0</ele><time>2026-05-01T13:01:20Z</time></trkpt><trkpt lat="40.00804044373464" lon="9.40997121514753"><ele>902.0</ele><time>2026-05-01T13:01:21Z</time></trkpt><trkpt lat="40.008232427454644" lon="9.40999349349388"><ele>900.6666666666667</ele><time>2026-05-01T13:01:22Z</time></trkpt><trkpt lat="40.008411725398304" lon="9.410009085826633"><ele>899.3333333333333</ele><time>2026-05-01T13:01:23Z</time></trkpt><trkpt lat="40.008590419906135" lon="9.409989149823225"><ele>898.0</ele><time>2026-05-01T13:01:24Z</time></trkpt><trkpt lat="40.00876159357187" lon="9.409925651150509"><ele>898.0</ele><time>2026-05-01T13:01:25Z</time></trkpt><trkpt lat="40.008933566898804" lon="9.40981981552841"><ele>898.0</ele><time>2026-05-01T13:01:26Z</time></trkpt><trkpt lat="40.00911286182815" lon="9.409708428660373"><ele>898.0</ele><time>2026-05-01T13:01:27Z</time></trkpt><trkpt lat="40.009302181469444" lon="9.409609074207204"><ele>893.0</ele><time>2026-05-01T13:01:28Z</time></trkpt><trkpt lat="40.009473081091436" lon="9.409494367217746"><ele>888.0</ele><time>2026-05-01T13:01:29Z</time></trkpt><trkpt lat="40.00965971840633" lon="9.409409598535731"><ele>883.0</ele><time>2026-05-01T13:01:30Z</time></trkpt><trkpt lat="40.00982935807925" lon="9.40930894909745"><ele>883.0</ele><time>2026-05-01T13:01:31Z</time></trkpt><trkpt lat="40.0099792093412" lon="9.409179168999154"><ele>883.0</ele><time>2026-05-01T13:01:32Z</time></trkpt><trkpt lat="40.01012780421074" lon="9.409026125715792"><ele>883.0</ele><time>2026-05-01T13:01:33Z</time></trkpt><trkpt lat="40.01028258253267" lon="9.408900290535819"><ele>885.0</ele><time>2026-05-01T13:01:34Z</time></trkpt><trkpt lat="40.01045786066552" lon="9.408847522577512"><ele>887.0</ele><time>2026-05-01T13:01:35Z</time></trkpt><trkpt lat="40.010631837119575" lon="9.408735135843733"><ele>889.0</ele><time>2026-05-01T13:01:36Z</time></trkpt><trkpt lat="40.010782886087384" lon="9.408616003293508"><ele>886.0</ele><time>2026-05-01T13:01:37Z</time></trkpt><trkpt lat="40.010925487622515" lon="9.408496077936437"><ele>883.0</ele><time>2026-05-01T13:01:38Z</time></trkpt><trkpt lat="40.01107305003742" lon="9.408421856465667"><ele>880.0</ele><time>2026-05-01T13:01:39Z</time></trkpt><trkpt lat="40.0112326463886" lon="9.40839349340977"><ele>880.0</ele><time>2026-05-01T13:01:40Z</time></trkpt><trkpt lat="40.011409717696" lon="9.408412322467257"><ele>880.0</ele><time>2026-05-01T13:01:41Z</time></trkpt><trkpt lat="40.01157621044942" lon="9.408419629895004"><ele>880.0</ele><time>2026-05-01T13:01:42Z</time></trkpt><trkpt lat="40.0117233156793" lon="9.408372589102552"><ele>881.3333333333333</ele><time>2026-05-01T13:01:43Z</time></trkpt><trkpt lat="40.011855936841734" lon="9.408256229616061"><ele>882.6666666666667</ele><time>2026-05-01T13:01:44Z</time></trkpt><trkpt lat="40.011982600975315" lon="9.408123302550608"><ele>884.0</ele><time>2026-05-01T13:01:45Z</time></trkpt><trkpt lat="40.01214053358268" lon="9.40805281647351"><ele>884.0</ele><time>2026-05-01T13:01:46Z</time></trkpt><trkpt lat="40.012314924380476" lon="9.408020952883446"><ele>884.0</ele><time>2026-05-01T13:01:47Z</time></trkpt><trkpt lat="40.012484708012416" lon="9.407991036984823"><ele>884.0</ele><time>2026-05-01T13:01:48Z</time></trkpt><trkpt lat="40.01264868743631" lon="9.407950239355264"><ele>879.6666666666667</ele><time>2026-05-01T13:01:49Z</time></trkpt><trkpt lat="40.012804335579666" lon="9.407902363066729"><ele>875.3333333333333</ele><time>2026-05-01T13:01:50Z</time></trkpt><trkpt lat="40.01295486512481" lon="9.407816167804684"><ele>871.0</ele><time>2026-05-01T13:01:51Z</time></trkpt><trkpt lat="40.013084395835335" lon="9.407670776972964"><ele>871.0</ele><time>2026-05-01T13:01:52Z</time></trkpt><trkpt lat="40.013211438017805" lon="9.407517582373266"><ele>871.0</ele><time>2026-05-01T13:01:53Z</time></trkpt><trkpt lat="40.01334662205038" lon="9.407372030319852"><ele>871.0</ele><time>2026-05-01T13:01:54Z</time></trkpt><trkpt lat="40.01348108096726" lon="9.40723376194037"><ele>870.3333333333333</ele><time>2026-05-01T13:01:55Z</time></trkpt><trkpt lat="40.01361065635423" lon="9.407095183977846"><ele>869.6666666666667</ele><time>2026-05-01T13:01:56Z</time></trkpt><trkpt lat="40.01373667299024" lon="9.406954736226707"><ele>869.0</ele><time>2026-05-01T13:01:57Z</time></trkpt><trkpt lat="40.013864399276564" lon="9.406817066705802"><ele>869.0</ele><time>2026-05-01T13:01:58Z</time></trkpt><trkpt lat="40.01398973606974" lon="9.406684574713276"><ele>869.0</ele><time>2026-05-01T13:01:59Z</time></trkpt><trkpt lat="40.01410433008785" lon="9.406552159694439"><ele>869.0</ele><time>2026-05-01T13:02:00Z</time></trkpt><trkpt lat="40.0142298828664" lon="9.40642074023398"><ele>868.3333333333334</ele><time>2026-05-01T13:02:01Z</time></trkpt><trkpt lat="40.01435383549358" lon="9.406293001596563"><ele>867.6666666666667</ele><time>2026-05-01T13:02:02Z</time></trkpt><trkpt lat="40.01445806752454" lon="9.406148647098714"><ele>867.0</ele><time>2026-05-01T13:02:03Z</time></trkpt><trkpt lat="40.01453732202854" lon="9.40597404895201"><ele>867.0</ele><time>2026-05-01T13:02:04Z</time></trkpt><trkpt lat="40.014590001001814" lon="9.405783244341285"><ele>867.0</ele><time>2026-05-01T13:02:05Z</time></trkpt><trkpt lat="40.01463432186335" lon="9.405597597425578"><ele>867.0</ele><time>2026-05-01T13:02:06Z</time></trkpt><trkpt lat="40.014677209366354" lon="9.405416242519333"><ele>865.75</ele><time>2026-05-01T13:02:07Z</time></trkpt><trkpt lat="40.01471590128021" lon="9.405227515234241"><ele>864.5</ele><time>2026-05-01T13:02:08Z</time></trkpt><trkpt lat="40.014754542923995" lon="9.40505677857897"><ele>863.25</ele><time>2026-05-01T13:02:09Z</time></trkpt><trkpt lat="40.0148041277814" lon="9.404874258487137"><ele>862.0</ele><time>2026-05-01T13:02:10Z</time></trkpt><trkpt lat="40.01487726954084" lon="9.404716590832809"><ele>863.0</ele><time>2026-05-01T13:02:11Z</time></trkpt><trkpt lat="40.01501284772638" lon="9.404591850487188"><ele>864.0</ele><time>2026-05-01T13:02:12Z</time></trkpt><trkpt lat="40.01516599436225" lon="9.404536330112013"><ele>865.0</ele><time>2026-05-01T13:02:13Z</time></trkpt><trkpt lat="40.01531937881506" lon="9.4045389550392"><ele>865.0</ele><time>2026-05-01T13:02:14Z</time></trkpt><trkpt lat="40.015468335600715" lon="9.404583909254965"><ele>865.0</ele><time>2026-05-01T13:02:15Z</time></trkpt><trkpt lat="40.0156192167708" lon="9.404631928359738"><ele>865.0</ele><time>2026-05-01T13:02:16Z</time></trkpt><trkpt lat="40.015775206339576" lon="9.404644844883235"><ele>865.0</ele><time>2026-05-01T13:02:17Z</time></trkpt><trkpt lat="40.015926494855776" lon="9.404595654159076"><ele>865.0</ele><time>2026-05-01T13:02:18Z</time></trkpt><trkpt lat="40.01607648414277" lon="9.404550053616623"><ele>865.0</ele><time>2026-05-01T13:02:19Z</time></trkpt><trkpt lat="40.01621931381841" lon="9.40451239654238"><ele>865.0</ele><time>2026-05-01T13:02:20Z</time></trkpt><trkpt lat="40.01635337167999" lon="9.4044758710015"><ele>865.0</ele><time>2026-05-01T13:02:21Z</time></trkpt><trkpt lat="40.0164893817905" lon="9.404498455942488"><ele>865.0</ele><time>2026-05-01T13:02:22Z</time></trkpt><trkpt lat="40.01661281280861" lon="9.404527310285502"><ele>865.0</ele><time>2026-05-01T13:02:23Z</time></trkpt><trkpt lat="40.0167233811972" lon="9.404551775706178"><ele>865.8</ele><time>2026-05-01T13:02:24Z</time></trkpt><trkpt lat="40.01682327916815" lon="9.404536612429954"><ele>866.6</ele><time>2026-05-01T13:02:25Z</time></trkpt><trkpt lat="40.01691680423316" lon="9.4044551405952"><ele>867.4000000000001</ele><time>2026-05-01T13:02:26Z</time></trkpt><trkpt lat="40.01698497322579" lon="9.404338185272994"><ele>868.2</ele><time>2026-05-01T13:02:27Z</time></trkpt><trkpt lat="40.01704444635829" lon="9.404219464108632"><ele>869.0</ele><time>2026-05-01T13:02:28Z</time></trkpt><trkpt lat="40.01706146836516" lon="9.404089726151714"><ele>869.0</ele><time>2026-05-01T13:02:29Z</time></trkpt><trkpt lat="40.01701963902108" lon="9.40396544148986"><ele>869.0</ele><time>2026-05-01T13:02:30Z</time></trkpt><trkpt lat="40.01692628565462" lon="9.40386179633583"><ele>869.0</ele><time>2026-05-01T13:02:31Z</time></trkpt><trkpt lat="40.01682546501551" lon="9.403761086410125"><ele>869.0</ele><time>2026-05-01T13:02:32Z</time></trkpt><trkpt lat="40.01671132915145" lon="9.403646057771912"><ele>871.3333333333334</ele><time>2026-05-01T13:02:33Z</time></trkpt><trkpt lat="40.01658290022552" lon="9.403561828766597"><ele>873.6666666666667</ele><time>2026-05-01T13:02:34Z</time></trkpt><trkpt lat="40.01644626537184" lon="9.403495122604392"><ele>876.0</ele><time>2026-05-01T13:02:35Z</time></trkpt><trkpt lat="40.016279018551415" lon="9.403465972199065"><ele>876.0</ele><time>2026-05-01T13:02:36Z</time></trkpt><trkpt lat="40.016114721780205" lon="9.403429120247575"><ele>876.0</ele><time>2026-05-01T13:02:37Z</time></trkpt><trkpt lat="40.01595269728054" lon="9.403381592481749"><ele>876.0</ele><time>2026-05-01T13:02:38Z</time></trkpt><trkpt lat="40.01580782248999" lon="9.40334696892092"><ele>875.25</ele><time>2026-05-01T13:02:39Z</time></trkpt><trkpt lat="40.01568512534649" lon="9.40328176867398"><ele>874.5</ele><time>2026-05-01T13:02:40Z</time></trkpt><trkpt lat="40.015595819117195" lon="9.403172495154992"><ele>873.75</ele><time>2026-05-01T13:02:41Z</time></trkpt><trkpt lat="40.015563790699616" lon="9.403030368751374"><ele>873.0</ele><time>2026-05-01T13:02:42Z</time></trkpt><trkpt lat="40.015595276620026" lon="9.402881392583335"><ele>874.3333333333333</ele><time>2026-05-01T13:02:43Z</time></trkpt><trkpt lat="40.01566450304954" lon="9.4027251205634"><ele>875.6666666666666</ele><time>2026-05-01T13:02:44Z</time></trkpt><trkpt lat="40.015774526979385" lon="9.402581302364514"><ele>877.0</ele><time>2026-05-01T13:02:45Z</time></trkpt><trkpt lat="40.01590065908025" lon="9.402457073558008"><ele>877.0</ele><time>2026-05-01T13:02:46Z</time></trkpt><trkpt lat="40.01603057352409" lon="9.40232726227563"><ele>877.0</ele><time>2026-05-01T13:02:47Z</time></trkpt><trkpt lat="40.016137705363406" lon="9.402198353001713"><ele>877.0</ele><time>2026-05-01T13:02:48Z</time></trkpt><trkpt lat="40.016230711065035" lon="9.40202502761044"><ele>873.0</ele><time>2026-05-01T13:02:49Z</time></trkpt><trkpt lat="40.016287051095574" lon="9.40182876707463"><ele>869.0</ele><time>2026-05-01T13:02:50Z</time></trkpt><trkpt lat="40.016329563853915" lon="9.401610618891542"><ele>865.0</ele><time>2026-05-01T13:02:51Z</time></trkpt><trkpt lat="40.016390138372344" lon="9.401399996925216"><ele>863.6666666666666</ele><time>2026-05-01T13:02:52Z</time></trkpt><trkpt lat="40.01644877794647" lon="9.401185847636576"><ele>862.3333333333333</ele><time>2026-05-01T13:02:53Z</time></trkpt><trkpt lat="40.016505322809124" lon="9.400972198948779"><ele>861.0</ele><time>2026-05-01T13:02:54Z</time></trkpt><trkpt lat="40.01655139052094" lon="9.400758328458927"><ele>861.0</ele><time>2026-05-01T13:02:55Z</time></trkpt><trkpt lat="40.01658016276579" lon="9.400543466132227"><ele>861.0</ele><time>2026-05-01T13:02:56Z</time></trkpt><trkpt lat="40.016598335123966" lon="9.400333151449686"><ele>861.0</ele><time>2026-05-01T13:02:57Z</time></trkpt><trkpt lat="40.01660184883284" lon="9.400142458403673"><ele>861.5</ele><time>2026-05-01T13:02:58Z</time></trkpt><trkpt lat="40.01658847655604" lon="9.399954836373043"><ele>862.0</ele><time>2026-05-01T13:02:59Z</time></trkpt><trkpt lat="40.016558259376566" lon="9.399770638990562"><ele>862.5</ele><time>2026-05-01T13:03:00Z</time></trkpt><trkpt lat="40.016516463615574" lon="9.399591770455181"><ele>863.0</ele><time>2026-05-01T13:03:01Z</time></trkpt><trkpt lat="40.0164696842217" lon="9.399415472375257"><ele>864.75</ele><time>2026-05-01T13:03:02Z</time></trkpt><trkpt lat="40.016424647610734" lon="9.399235786725821"><ele>866.5</ele><time>2026-05-01T13:03:03Z</time></trkpt><trkpt lat="40.01638478691889" lon="9.399056240144729"><ele>868.25</ele><time>2026-05-01T13:03:04Z</time></trkpt><trkpt lat="40.016354241692895" lon="9.398876664764694"><ele>870.0</ele><time>2026-05-01T13:03:05Z</time></trkpt><trkpt lat="40.016333950654655" lon="9.398712053744104"><ele>871.6</ele><time>2026-05-01T13:03:06Z</time></trkpt><trkpt lat="40.01629976142143" lon="9.398565197912301"><ele>873.2</ele><time>2026-05-01T13:03:07Z</time></trkpt><trkpt lat="40.01623683093986" lon="9.398454847150402"><ele>874.8</ele><time>2026-05-01T13:03:08Z</time></trkpt><trkpt lat="40.0161666700019" lon="9.398375383168188"><ele>876.4</ele><time>2026-05-01T13:03:09Z</time></trkpt><trkpt lat="40.01609857470147" lon="9.39832198188165"><ele>878.0</ele><time>2026-05-01T13:03:10Z</time></trkpt><trkpt lat="40.0160320433128" lon="9.398281600800548"><ele>878.0000000000001</ele><time>2026-05-01T13:03:11Z</time></trkpt><trkpt lat="40.01596683189941" lon="9.398258742563115"><ele>878.0</ele><time>2026-05-01T13:03:12Z</time></trkpt><trkpt lat="40.01589374475011" lon="9.398248355993834"><ele>878.0</ele><time>2026-05-01T13:03:13Z</time></trkpt><trkpt lat="40.01581342052436" lon="9.398246187124622"><ele>878.0</ele><time>2026-05-01T13:03:14Z</time></trkpt><trkpt lat="40.01572669272644" lon="9.398265128280716"><ele>878.0000000000001</ele><time>2026-05-01T13:03:15Z</time></trkpt><trkpt lat="40.015631754436505" lon="9.398300147147145"><ele>878.0</ele><time>2026-05-01T13:03:16Z</time></trkpt><trkpt lat="40.01553191921364" lon="9.39834086832027"><ele>876.8</ele><time>2026-05-01T13:03:17Z</time></trkpt><trkpt lat="40.0154253042335" lon="9.398377639462558"><ele>875.5999999999999</ele><time>2026-05-01T13:03:18Z</time></trkpt><trkpt lat="40.01531452612423" lon="9.398400941186456"><ele>874.4000000000001</ele><time>2026-05-01T13:03:19Z</time></trkpt><trkpt lat="40.01521256118812" lon="9.398388124641846"><ele>873.2</ele><time>2026-05-01T13:03:20Z</time></trkpt><trkpt lat="40.01511959535072" lon="9.398380834041125"><ele>872.0</ele><time>2026-05-01T13:03:21Z</time></trkpt><trkpt lat="40.015054603161325" lon="9.398300130763248"><ele>872.0</ele><time>2026-05-01T13:03:22Z</time></trkpt><trkpt lat="40.015013526853764" lon="9.398182999088071"><ele>872.0</ele><time>2026-05-01T13:03:23Z</time></trkpt><trkpt lat="40.0150015683014" lon="9.398038509880449"><ele>872.0</ele><time>2026-05-01T13:03:24Z</time></trkpt><trkpt lat="40.01502026561806" lon="9.397896677495142"><ele>872.0</ele><time>2026-05-01T13:03:25Z</time></trkpt><trkpt lat="40.0150682027597" lon="9.397755634418427"><ele>872.0</ele><time>2026-05-01T13:03:26Z</time></trkpt><trkpt lat="40.01511657607337" lon="9.397619230201373"><ele>872.25</ele><time>2026-05-01T13:03:27Z</time></trkpt><trkpt lat="40.01516217270625" lon="9.39747477247812"><ele>872.5</ele><time>2026-05-01T13:03:28Z</time></trkpt><trkpt lat="40.01520108451324" lon="9.397332670881704"><ele>872.75</ele><time>2026-05-01T13:03:29Z</time></trkpt><trkpt lat="40.01522509522541" lon="9.397190042921473"><ele>873.0</ele><time>2026-05-01T13:03:30Z</time></trkpt><trkpt lat="40.01524758018127" lon="9.39704766951691"><ele>873.0</ele><time>2026-05-01T13:03:31Z</time></trkpt><trkpt lat="40.01528250827548" lon="9.396924801765193"><ele>873.0</ele><time>2026-05-01T13:03:32Z</time></trkpt><trkpt lat="40.01530138116453" lon="9.396819213475727"><ele>873.0</ele><time>2026-05-01T13:03:33Z</time></trkpt><trkpt lat="40.01529768369917" lon="9.396720844559049"><ele>873.0</ele><time>2026-05-01T13:03:34Z</time></trkpt><trkpt lat="40.01530746738316" lon="9.39663543493169"><ele>873.0</ele><time>2026-05-01T13:03:35Z</time></trkpt><trkpt lat="40.01532956402656" lon="9.396543409285588"><ele>873.0</ele><time>2026-05-01T13:03:36Z</time></trkpt><trkpt lat="40.015347476318546" lon="9.396427991605254"><ele>873.0</ele><time>2026-05-01T13:03:37Z</time></trkpt><trkpt lat="40.0153545469821" lon="9.396289594691991"><ele>873.0</ele><time>2026-05-01T13:03:38Z</time></trkpt><trkpt lat="40.015356902910874" lon="9.396138506168947"><ele>873.0</ele><time>2026-05-01T13:03:39Z</time></trkpt><trkpt lat="40.0153619681681" lon="9.395998863023165"><ele>873.0</ele><time>2026-05-01T13:03:40Z</time></trkpt><trkpt lat="40.01537500199106" lon="9.395863658161947"><ele>873.0</ele><time>2026-05-01T13:03:41Z</time></trkpt><trkpt lat="40.015399504139786" lon="9.395731291880443"><ele>873.0</ele><time>2026-05-01T13:03:42Z</time></trkpt><trkpt lat="40.01543517095186" lon="9.39560526556813"><ele>873.0</ele><time>2026-05-01T13:03:43Z</time></trkpt><trkpt lat="40.015471010125786" lon="9.395492160965548"><ele>873.0</ele><time>2026-05-01T13:03:44Z</time></trkpt><trkpt lat="40.01548404306642" lon="9.395351127491471"><ele>873.0</ele><time>2026-05-01T13:03:45Z</time></trkpt><trkpt lat="40.01547469722571" lon="9.39520300655706"><ele>873.0</ele><time>2026-05-01T13:03:46Z</time></trkpt><trkpt lat="40.01547426053162" lon="9.395071338106948"><ele>873.4</ele><time>2026-05-01T13:03:47Z</time></trkpt><trkpt lat="40.015479009925734" lon="9.394911572105705"><ele>873.8</ele><time>2026-05-01T13:03:48Z</time></trkpt><trkpt lat="40.015495859812354" lon="9.394778828173088"><ele>874.2</ele><time>2026-05-01T13:03:49Z</time></trkpt><trkpt lat="40.015525049680896" lon="9.394639635031307"><ele>874.6</ele><time>2026-05-01T13:03:50Z</time></trkpt><trkpt lat="40.015566745592984" lon="9.394506958111851"><ele>875.0</ele><time>2026-05-01T13:03:51Z</time></trkpt><trkpt lat="40.01560549561032" lon="9.394358085439237"><ele>875.5</ele><time>2026-05-01T13:03:52Z</time></trkpt><trkpt lat="40.01562606295205" lon="9.39421696023836"><ele>876.0</ele><time>2026-05-01T13:03:53Z</time></trkpt><trkpt lat="40.01563318707255" lon="9.39407265414821"><ele>876.5</ele><time>2026-05-01T13:03:54Z</time></trkpt><trkpt lat="40.01561808035215" lon="9.393915782279297"><ele>877.0</ele><time>2026-05-01T13:03:55Z</time></trkpt><trkpt lat="40.01559210408954" lon="9.393765467217753"><ele>877.6</ele><time>2026-05-01T13:03:56Z</time></trkpt><trkpt lat="40.015558673092826" lon="9.393616539658067"><ele>878.2</ele><time>2026-05-01T13:03:57Z</time></trkpt><trkpt lat="40.01555062601281" lon="9.393490151807127"><ele>878.8</ele><time>2026-05-01T13:03:58Z</time></trkpt><trkpt lat="40.01557145540669" lon="9.393362147293285"><ele>879.4</ele><time>2026-05-01T13:03:59Z</time></trkpt><trkpt lat="40.01561790229087" lon="9.393252555103365"><ele>880.0</ele><time>2026-05-01T13:04:00Z</time></trkpt><trkpt lat="40.01567797161719" lon="9.393159764190761"><ele>880.0</ele><time>2026-05-01T13:04:01Z</time></trkpt><trkpt lat="40.01575912407442" lon="9.393072105801705"><ele>880.0</ele><time>2026-05-01T13:04:02Z</time></trkpt><trkpt lat="40.01584531626098" lon="9.392979591229047"><ele>880.0</ele><time>2026-05-01T13:04:03Z</time></trkpt><trkpt lat="40.01592942154615" lon="9.392882417182383"><ele>880.0</ele><time>2026-05-01T13:04:04Z</time></trkpt><trkpt lat="40.0160053038613" lon="9.392777361048456"><ele>880.0</ele><time>2026-05-01T13:04:05Z</time></trkpt><trkpt lat="40.01607568695875" lon="9.392668602365307"><ele>880.5</ele><time>2026-05-01T13:04:06Z</time></trkpt><trkpt lat="40.016146504355596" lon="9.392558783162578"><ele>881.0</ele><time>2026-05-01T13:04:07Z</time></trkpt><trkpt lat="40.01623576900797" lon="9.392472099748042"><ele>881.5</ele><time>2026-05-01T13:04:08Z</time></trkpt><trkpt lat="40.01634145114616" lon="9.392397827954085"><ele>882.0</ele><time>2026-05-01T13:04:09Z</time></trkpt><trkpt lat="40.016461595060505" lon="9.392355461001205"><ele>882.0</ele><time>2026-05-01T13:04:10Z</time></trkpt><trkpt lat="40.01659200947561" lon="9.392354318350856"><ele>882.0</ele><time>2026-05-01T13:04:11Z</time></trkpt><trkpt lat="40.01672586337802" lon="9.392353916190743"><ele>882.0</ele><time>2026-05-01T13:04:12Z</time></trkpt><trkpt lat="40.016831884690546" lon="9.392370791319026"><ele>882.0</ele><time>2026-05-01T13:04:13Z</time></trkpt><trkpt lat="40.01692527948185" lon="9.392439152596532"><ele>883.6</ele><time>2026-05-01T13:04:14Z</time></trkpt><trkpt lat="40.01696835526201" lon="9.392559757763294"><ele>885.2</ele><time>2026-05-01T13:04:15Z</time></trkpt><trkpt lat="40.01702493093776" lon="9.392679874795896"><ele>886.8</ele><time>2026-05-01T13:04:16Z</time></trkpt><trkpt lat="40.01708902242397" lon="9.392803307933931"><ele>888.4</ele><time>2026-05-01T13:04:17Z</time></trkpt><trkpt lat="40.01716974525272" lon="9.392912939790932"><ele>890.0</ele><time>2026-05-01T13:04:18Z</time></trkpt><trkpt lat="40.017251202710455" lon="9.393005609611595"><ele>893.5</ele><time>2026-05-01T13:04:19Z</time></trkpt><trkpt lat="40.017373080735155" lon="9.39306290363563"><ele>897.0</ele><time>2026-05-01T13:04:20Z</time></trkpt><trkpt lat="40.01749181390554" lon="9.393123256132384"><ele>900.5</ele><time>2026-05-01T13:04:21Z</time></trkpt><trkpt lat="40.01761270821921" lon="9.393170091902833"><ele>904.0</ele><time>2026-05-01T13:04:22Z</time></trkpt><trkpt lat="40.01773852371824" lon="9.393198617162279"><ele>904.0</ele><time>2026-05-01T13:04:23Z</time></trkpt><trkpt lat="40.017872227549844" lon="9.393211213696626"><ele>904.0</ele><time>2026-05-01T13:04:24Z</time></trkpt><trkpt lat="40.017992875675134" lon="9.393218416879936"><ele>904.0</ele><time>2026-05-01T13:04:25Z</time></trkpt><trkpt lat="40.01811557500371" lon="9.393228431046978"><ele>904.0</ele><time>2026-05-01T13:04:26Z</time></trkpt><trkpt lat="40.0182423165466" lon="9.393219283193693"><ele>903.25</ele><time>2026-05-01T13:04:27Z</time></trkpt><trkpt lat="40.018363869442354" lon="9.39320404967145"><ele>902.5</ele><time>2026-05-01T13:04:28Z</time></trkpt><trkpt lat="40.01847603766961" lon="9.393155475502336"><ele>901.75</ele><time>2026-05-01T13:04:29Z</time></trkpt><trkpt lat="40.01856786345365" lon="9.393063631407141"><ele>901.0</ele><time>2026-05-01T13:04:30Z</time></trkpt><trkpt lat="40.01865245246314" lon="9.392953289200207"><ele>897.25</ele><time>2026-05-01T13:04:31Z</time></trkpt><trkpt lat="40.018731233723074" lon="9.392840646485487"><ele>893.5</ele><time>2026-05-01T13:04:32Z</time></trkpt><trkpt lat="40.01882303568055" lon="9.392726324912406"><ele>889.75</ele><time>2026-05-01T13:04:33Z</time></trkpt><trkpt lat="40.01891445272879" lon="9.392622667427524"><ele>886.0</ele><time>2026-05-01T13:04:34Z</time></trkpt><trkpt lat="40.019001991573546" lon="9.39251315912225"><ele>886.0</ele><time>2026-05-01T13:04:35Z</time></trkpt><trkpt lat="40.019074575409604" lon="9.392391671562152"><ele>886.0</ele><time>2026-05-01T13:04:36Z</time></trkpt><trkpt lat="40.019120802797374" lon="9.3922516119138"><ele>886.0</ele><time>2026-05-01T13:04:37Z</time></trkpt><trkpt lat="40.01916929741548" lon="9.392107784281425"><ele>886.0</ele><time>2026-05-01T13:04:38Z</time></trkpt><trkpt lat="40.01919775166664" lon="9.391966190881732"><ele>886.4</ele><time>2026-05-01T13:04:39Z</time></trkpt><trkpt lat="40.019243174698566" lon="9.391818504886785"><ele>886.8</ele><time>2026-05-01T13:04:40Z</time></trkpt><trkpt lat="40.01929025729531" lon="9.39168342581204"><ele>887.1999999999999</ele><time>2026-05-01T13:04:41Z</time></trkpt><trkpt lat="40.019329169444426" lon="9.39156151698281"><ele>887.5999999999999</ele><time>2026-05-01T13:04:42Z</time></trkpt><trkpt lat="40.01935063216046" lon="9.391431872295021"><ele>888.0</ele><time>2026-05-01T13:04:43Z</time></trkpt><trkpt lat="40.01940016935157" lon="9.391317557534013"><ele>887.0</ele><time>2026-05-01T13:04:44Z</time></trkpt><trkpt lat="40.019455118184155" lon="9.391198056425921"><ele>886.0</ele><time>2026-05-01T13:04:45Z</time></trkpt><trkpt lat="40.01952247118115" lon="9.391095298966743"><ele>885.0</ele><time>2026-05-01T13:04:46Z</time></trkpt><trkpt lat="40.01961933849752" lon="9.391036544567308"><ele>884.0</ele><time>2026-05-01T13:04:47Z</time></trkpt><trkpt lat="40.01972805310564" lon="9.391059494869646"><ele>883.0</ele><time>2026-05-01T13:04:48Z</time></trkpt><trkpt lat="40.01983206789163" lon="9.391098107373601"><ele>883.0</ele><time>2026-05-01T13:04:49Z</time></trkpt><trkpt lat="40.01994049118363" lon="9.391152678936457"><ele>883.0</ele><time>2026-05-01T13:04:50Z</time></trkpt><trkpt lat="40.02005987817685" lon="9.391167315965534"><ele>883.0</ele><time>2026-05-01T13:04:51Z</time></trkpt><trkpt lat="40.020183785579164" lon="9.391165896888666"><ele>883.0</ele><time>2026-05-01T13:04:52Z</time></trkpt><trkpt lat="40.02030672587295" lon="9.391115609759119"><ele>883.75</ele><time>2026-05-01T13:04:53Z</time></trkpt><trkpt lat="40.02042847734832" lon="9.391086275292752"><ele>884.5</ele><time>2026-05-01T13:04:54Z</time></trkpt><trkpt lat="40.020544246442924" lon="9.391083379425313"><ele>885.25</ele><time>2026-05-01T13:04:55Z</time></trkpt><trkpt lat="40.02066232616611" lon="9.391132630494935"><ele>886.0</ele><time>2026-05-01T13:04:56Z</time></trkpt><trkpt lat="40.02080768197617" lon="9.391204000189425"><ele>886.6666666666666</ele><time>2026-05-01T13:04:57Z</time></trkpt><trkpt lat="40.0209553449876" lon="9.391269178885029"><ele>887.3333333333333</ele><time>2026-05-01T13:04:58Z</time></trkpt><trkpt lat="40.02110471769762" lon="9.391330799431632"><ele>888.0</ele><time>2026-05-01T13:04:59Z</time></trkpt><trkpt lat="40.021240063024926" lon="9.39142363113321"><ele>891.0</ele><time>2026-05-01T13:05:00Z</time></trkpt><trkpt lat="40.02137181628185" lon="9.39151143163417"><ele>894.0</ele><time>2026-05-01T13:05:01Z</time></trkpt><trkpt lat="40.02150715892633" lon="9.391601205660253"><ele>897.0</ele><time>2026-05-01T13:05:02Z</time></trkpt><trkpt lat="40.02164482986309" lon="9.391669367177359"><ele>900.0</ele><time>2026-05-01T13:05:03Z</time></trkpt><trkpt lat="40.02178882229001" lon="9.391705486937976"><ele>900.0</ele><time>2026-05-01T13:05:04Z</time></trkpt><trkpt lat="40.02192966753341" lon="9.391762356313794"><ele>900.0</ele><time>2026-05-01T13:05:05Z</time></trkpt><trkpt lat="40.02207481080069" lon="9.391813683770565"><ele>900.0</ele><time>2026-05-01T13:05:06Z</time></trkpt><trkpt lat="40.022223644528786" lon="9.39186010860813"><ele>900.0</ele><time>2026-05-01T13:05:07Z</time></trkpt><trkpt lat="40.022366010342694" lon="9.391904828988096"><ele>900.0</ele><time>2026-05-01T13:05:08Z</time></trkpt><trkpt lat="40.02248183777645" lon="9.391954599748798"><ele>900.0</ele><time>2026-05-01T13:05:09Z</time></trkpt><trkpt lat="40.02257806315321" lon="9.392053117525455"><ele>900.0</ele><time>2026-05-01T13:05:10Z</time></trkpt><trkpt lat="40.02264606151101" lon="9.392157432753342"><ele>904.0</ele><time>2026-05-01T13:05:11Z</time></trkpt><trkpt lat="40.022734958735406" lon="9.39224662181589"><ele>908.0</ele><time>2026-05-01T13:05:12Z</time></trkpt><trkpt lat="40.02281409117683" lon="9.392331897483816"><ele>912.0</ele><time>2026-05-01T13:05:13Z</time></trkpt><trkpt lat="40.02290730736533" lon="9.392387248050452"><ele>916.0</ele><time>2026-05-01T13:05:14Z</time></trkpt><trkpt lat="40.02298607679497" lon="9.39238509671491"><ele>920.0</ele><time>2026-05-01T13:05:15Z</time></trkpt><trkpt lat="40.02305645049171" lon="9.392355212949091"><ele>920.0000000000001</ele><time>2026-05-01T13:05:16Z</time></trkpt><trkpt lat="40.023134425145294" lon="9.39230190939375"><ele>920.0</ele><time>2026-05-01T13:05:17Z</time></trkpt><trkpt lat="40.02321137102927" lon="9.39224646604594"><ele>920.0</ele><time>2026-05-01T13:05:18Z</time></trkpt><trkpt lat="40.023290362218034" lon="9.392196912195365"><ele>920.0</ele><time>2026-05-01T13:05:19Z</time></trkpt><trkpt lat="40.02336596308704" lon="9.392147475146407"><ele>920.0000000000001</ele><time>2026-05-01T13:05:20Z</time></trkpt><trkpt lat="40.02342750130732" lon="9.392077239295885"><ele>920.0</ele><time>2026-05-01T13:05:21Z</time></trkpt><trkpt lat="40.02350461446197" lon="9.392013088268694"><ele>915.2</ele><time>2026-05-01T13:05:22Z</time></trkpt><trkpt lat="40.02356310258496" lon="9.391945849796194"><ele>910.4</ele><time>2026-05-01T13:05:23Z</time></trkpt><trkpt lat="40.02362192579063" lon="9.391860154362055"><ele>905.5999999999999</ele><time>2026-05-01T13:05:24Z</time></trkpt><trkpt lat="40.02368640784099" lon="9.391775607173015"><ele>900.8</ele><time>2026-05-01T13:05:25Z</time></trkpt><trkpt lat="40.02373347520111" lon="9.391664295959218"><ele>896.0</ele><time>2026-05-01T13:05:26Z</time></trkpt><trkpt lat="40.023774462591895" lon="9.391544675020025"><ele>896.0</ele><time>2026-05-01T13:05:27Z</time></trkpt><trkpt lat="40.02382854799887" lon="9.39143664210143"><ele>895.9999999999999</ele><time>2026-05-01T13:05:28Z</time></trkpt><trkpt lat="40.02385659340315" lon="9.391313934787533"><ele>895.9999999999999</ele><time>2026-05-01T13:05:29Z</time></trkpt><trkpt lat="40.02390251245489" lon="9.391191673000385"><ele>896.0</ele><time>2026-05-01T13:05:30Z</time></trkpt><trkpt lat="40.02394725712568" lon="9.391073561248259"><ele>896.0</ele><time>2026-05-01T13:05:31Z</time></trkpt><trkpt lat="40.0239691115813" lon="9.39094710631433"><ele>896.8</ele><time>2026-05-01T13:05:32Z</time></trkpt><trkpt lat="40.02397314616174" lon="9.390803727901451"><ele>897.5999999999999</ele><time>2026-05-01T13:05:33Z</time></trkpt><trkpt lat="40.02396415758426" lon="9.3906653982852"><ele>898.4</ele><time>2026-05-01T13:05:34Z</time></trkpt><trkpt lat="40.02393764044558" lon="9.390532148449866"><ele>899.2</ele><time>2026-05-01T13:05:35Z</time></trkpt><trkpt lat="40.023910268089246" lon="9.390397887673746"><ele>900.0</ele><time>2026-05-01T13:05:36Z</time></trkpt><trkpt lat="40.02387936759022" lon="9.390266263005058"><ele>900.75</ele><time>2026-05-01T13:05:37Z</time></trkpt><trkpt lat="40.02384323011635" lon="9.39013098462651"><ele>901.5</ele><time>2026-05-01T13:05:38Z</time></trkpt><trkpt lat="40.02380154625223" lon="9.390009393832285"><ele>902.25</ele><time>2026-05-01T13:05:39Z</time></trkpt><trkpt lat="40.02376605726305" lon="9.389866437883699"><ele>903.0</ele><time>2026-05-01T13:05:40Z</time></trkpt><trkpt lat="40.02370957844663" lon="9.389716518913257"><ele>902.2</ele><time>2026-05-01T13:05:41Z</time></trkpt><trkpt lat="40.023660280726986" lon="9.389585709033192"><ele>901.4</ele><time>2026-05-01T13:05:42Z</time></trkpt><trkpt lat="40.023614089987426" lon="9.38944668644407"><ele>900.6000000000001</ele><time>2026-05-01T13:05:43Z</time></trkpt><trkpt lat="40.023584286363956" lon="9.389327822066821"><ele>899.8000000000001</ele><time>2026-05-01T13:05:44Z</time></trkpt><trkpt lat="40.02357374910263" lon="9.389204818760971"><ele>899.0</ele><time>2026-05-01T13:05:45Z</time></trkpt><trkpt lat="40.02359140363557" lon="9.389085140583799"><ele>899.0</ele><time>2026-05-01T13:05:46Z</time></trkpt><trkpt lat="40.02366615235938" lon="9.388985041349695"><ele>899.0</ele><time>2026-05-01T13:05:47Z</time></trkpt><trkpt lat="40.02376704962337" lon="9.388917837563069"><ele>899.0</ele><time>2026-05-01T13:05:48Z</time></trkpt><trkpt lat="40.02387972037537" lon="9.388878296531717"><ele>899.0</ele><time>2026-05-01T13:05:49Z</time></trkpt><trkpt lat="40.02400257800918" lon="9.388882325427383"><ele>899.0</ele><time>2026-05-01T13:05:50Z</time></trkpt><trkpt lat="40.024131087840914" lon="9.388847265584582"><ele>899.0</ele><time>2026-05-01T13:05:51Z</time></trkpt><trkpt lat="40.02425939699009" lon="9.388822431319117"><ele>899.0</ele><time>2026-05-01T13:05:52Z</time></trkpt><trkpt lat="40.024387687959454" lon="9.38878989036673"><ele>899.0</ele><time>2026-05-01T13:05:53Z</time></trkpt><trkpt lat="40.024521399360076" lon="9.388757985110187"><ele>899.4000000000001</ele><time>2026-05-01T13:05:54Z</time></trkpt><trkpt lat="40.0246483781174" lon="9.388727588801729"><ele>899.8000000000001</ele><time>2026-05-01T13:05:55Z</time></trkpt><trkpt lat="40.024755134778985" lon="9.388704660872436"><ele>900.1999999999999</ele><time>2026-05-01T13:05:56Z</time></trkpt><trkpt lat="40.02483242710354" lon="9.388691787959338"><ele>900.5999999999999</ele><time>2026-05-01T13:05:57Z</time></trkpt><trkpt lat="40.02489666231559" lon="9.388727302677262"><ele>901.0</ele><time>2026-05-01T13:05:58Z</time></trkpt><trkpt lat="40.02496475041243" lon="9.388745232033628"><ele>902.4</ele><time>2026-05-01T13:05:59Z</time></trkpt><trkpt lat="40.02504389734727" lon="9.388774615680516"><ele>903.8</ele><time>2026-05-01T13:06:00Z</time></trkpt><trkpt lat="40.02513204974957" lon="9.388814354989492"><ele>905.1999999999999</ele><time>2026-05-01T13:06:01Z</time></trkpt><trkpt lat="40.02523277049699" lon="9.388863790997352"><ele>906.5999999999999</ele><time>2026-05-01T13:06:02Z</time></trkpt><trkpt lat="40.02533747029955" lon="9.388916112401043"><ele>908.0</ele><time>2026-05-01T13:06:03Z</time></trkpt><trkpt lat="40.02544585154466" lon="9.388973303540924"><ele>907.5</ele><time>2026-05-01T13:06:04Z</time></trkpt><trkpt lat="40.02555977598445" lon="9.38901195349278"><ele>907.0</ele><time>2026-05-01T13:06:05Z</time></trkpt><trkpt lat="40.0256616137113" lon="9.389094896369425"><ele>906.5</ele><time>2026-05-01T13:06:06Z</time></trkpt><trkpt lat="40.025767429500824" lon="9.389171379225361"><ele>906.0</ele><time>2026-05-01T13:06:07Z</time></trkpt><trkpt lat="40.02586505984888" lon="9.389251627514321"><ele>906.0</ele><time>2026-05-01T13:06:08Z</time></trkpt><trkpt lat="40.025947952894654" lon="9.389336599897634"><ele>905.9999999999999</ele><time>2026-05-01T13:06:09Z</time></trkpt><trkpt lat="40.02602945722615" lon="9.389398803450376"><ele>905.9999999999999</ele><time>2026-05-01T13:06:10Z</time></trkpt><trkpt lat="40.02611397213685" lon="9.389433385029617"><ele>906.0</ele><time>2026-05-01T13:06:11Z</time></trkpt><trkpt lat="40.02620187306624" lon="9.389429300719867"><ele>906.0</ele><time>2026-05-01T13:06:12Z</time></trkpt><trkpt lat="40.02627478770049" lon="9.389389318628679"><ele>906.0</ele><time>2026-05-01T13:06:13Z</time></trkpt><trkpt lat="40.02633175130104" lon="9.38932653161954"><ele>906.0</ele><time>2026-05-01T13:06:14Z</time></trkpt><trkpt lat="40.0263846447917" lon="9.389256289002565"><ele>906.0</ele><time>2026-05-01T13:06:15Z</time></trkpt><trkpt lat="40.02644509208755" lon="9.38918926681329"><ele>906.0</ele><time>2026-05-01T13:06:16Z</time></trkpt><trkpt lat="40.0265108939901" lon="9.389110475365372"><ele>906.0</ele><time>2026-05-01T13:06:17Z</time></trkpt><trkpt lat="40.02658240015171" lon="9.389029838597478"><ele>906.0</ele><time>2026-05-01T13:06:18Z</time></trkpt><trkpt lat="40.02665783504518" lon="9.388937407190799"><ele>905.0</ele><time>2026-05-01T13:06:19Z</time></trkpt><trkpt lat="40.026737559255864" lon="9.38884073218614"><ele>904.0</ele><time>2026-05-01T13:06:20Z</time></trkpt><trkpt lat="40.026817891775906" lon="9.388739556374642"><ele>903.0</ele><time>2026-05-01T13:06:21Z</time></trkpt><trkpt lat="40.026900981853174" lon="9.38863100376696"><ele>902.0</ele><time>2026-05-01T13:06:22Z</time></trkpt><trkpt lat="40.026984401307324" lon="9.388511266622386"><ele>902.0</ele><time>2026-05-01T13:06:23Z</time></trkpt><trkpt lat="40.02706208749527" lon="9.388371794517829"><ele>902.0</ele><time>2026-05-01T13:06:24Z</time></trkpt><trkpt lat="40.02714141317626" lon="9.38822291193568"><ele>902.0</ele><time>2026-05-01T13:06:25Z</time></trkpt><trkpt lat="40.02721425979636" lon="9.38807044151702"><ele>902.0</ele><time>2026-05-01T13:06:26Z</time></trkpt><trkpt lat="40.027282356952334" lon="9.387921494471767"><ele>903.25</ele><time>2026-05-01T13:06:27Z</time></trkpt><trkpt lat="40.02735224451997" lon="9.387777451055198"><ele>904.5</ele><time>2026-05-01T13:06:28Z</time></trkpt><trkpt lat="40.02742177138019" lon="9.387633685356981"><ele>905.75</ele><time>2026-05-01T13:06:29Z</time></trkpt><trkpt lat="40.0274865682065" lon="9.387489132954567"><ele>907.0</ele><time>2026-05-01T13:06:30Z</time></trkpt><trkpt lat="40.0275549802898" lon="9.387348102858486"><ele>907.0</ele><time>2026-05-01T13:06:31Z</time></trkpt><trkpt lat="40.02762140859299" lon="9.387210227875599"><ele>907.0</ele><time>2026-05-01T13:06:32Z</time></trkpt><trkpt lat="40.02767367398324" lon="9.387091238943427"><ele>907.0</ele><time>2026-05-01T13:06:33Z</time></trkpt><trkpt lat="40.02772737430253" lon="9.386972260668916"><ele>907.0</ele><time>2026-05-01T13:06:34Z</time></trkpt><trkpt lat="40.02778494187285" lon="9.386846938427519"><ele>907.0</ele><time>2026-05-01T13:06:35Z</time></trkpt><trkpt lat="40.02784238768899" lon="9.386716982379344"><ele>907.25</ele><time>2026-05-01T13:06:36Z</time></trkpt><trkpt lat="40.02790018672851" lon="9.386587187892957"><ele>907.5</ele><time>2026-05-01T13:06:37Z</time></trkpt><trkpt lat="40.02796073017997" lon="9.38645251293327"><ele>907.75</ele><time>2026-05-01T13:06:38Z</time></trkpt><trkpt lat="40.028022083482945" lon="9.386316944875793"><ele>908.0</ele><time>2026-05-01T13:06:39Z</time></trkpt><trkpt lat="40.02808660948568" lon="9.386176094666295"><ele>908.0</ele><time>2026-05-01T13:06:40Z</time></trkpt><trkpt lat="40.028149739644235" lon="9.38603415150621"><ele>908.0</ele><time>2026-05-01T13:06:41Z</time></trkpt><trkpt lat="40.02823004692777" lon="9.385905203133671"><ele>908.0</ele><time>2026-05-01T13:06:42Z</time></trkpt><trkpt lat="40.028304787540435" lon="9.385777916773762"><ele>908.0</ele><time>2026-05-01T13:06:43Z</time></trkpt><trkpt lat="40.028383203448186" lon="9.385655010749083"><ele>908.5</ele><time>2026-05-01T13:06:44Z</time></trkpt><trkpt lat="40.02846511472657" lon="9.385543347107301"><ele>909.0</ele><time>2026-05-01T13:06:45Z</time></trkpt><trkpt lat="40.028551429711925" lon="9.385439754410873"><ele>909.5</ele><time>2026-05-01T13:06:46Z</time></trkpt><trkpt lat="40.02864163804857" lon="9.385344659870137"><ele>910.0</ele><time>2026-05-01T13:06:47Z</time></trkpt><trkpt lat="40.02873370334622" lon="9.385256518964889"><ele>910.0</ele><time>2026-05-01T13:06:48Z</time></trkpt><trkpt lat="40.028830042814725" lon="9.385175217271046"><ele>910.0</ele><time>2026-05-01T13:06:49Z</time></trkpt><trkpt lat="40.02893533463556" lon="9.385099568369727"><ele>910.0</ele><time>2026-05-01T13:06:50Z</time></trkpt><trkpt lat="40.02905401121066" lon="9.385041867459766"><ele>910.0</ele><time>2026-05-01T13:06:51Z</time></trkpt><trkpt lat="40.02918057751896" lon="9.384996029792987"><ele>913.25</ele><time>2026-05-01T13:06:52Z</time></trkpt><trkpt lat="40.02930797158501" lon="9.384954673578187"><ele>916.5</ele><time>2026-05-01T13:06:53Z</time></trkpt><trkpt lat="40.02943704905582" lon="9.384909751474126"><ele>919.75</ele><time>2026-05-01T13:06:54Z</time></trkpt><trkpt lat="40.029565923126434" lon="9.384860124468656"><ele>923.0</ele><time>2026-05-01T13:06:55Z</time></trkpt><trkpt lat="40.029695619680986" lon="9.384813567059462"><ele>923.0</ele><time>2026-05-01T13:06:56Z</time></trkpt><trkpt lat="40.02982421116028" lon="9.384761113156413"><ele>923.0</ele><time>2026-05-01T13:06:57Z</time></trkpt><trkpt lat="40.029958692880456" lon="9.38471412287904"><ele>923.0</ele><time>2026-05-01T13:06:58Z</time></trkpt><trkpt lat="40.030096342957066" lon="9.38467864132476"><ele>923.0</ele><time>2026-05-01T13:06:59Z</time></trkpt><trkpt lat="40.030225529217226" lon="9.384689632754263"><ele>923.0</ele><time>2026-05-01T13:07:00Z</time></trkpt><trkpt lat="40.0303375967943" lon="9.384725003731926"><ele>923.0</ele><time>2026-05-01T13:07:01Z</time></trkpt><trkpt lat="40.03043281325939" lon="9.384757100804427"><ele>923.0</ele><time>2026-05-01T13:07:02Z</time></trkpt><trkpt lat="40.030514144286904" lon="9.384711262458854"><ele>923.0</ele><time>2026-05-01T13:07:03Z</time></trkpt><trkpt lat="40.030585273663675" lon="9.384658065389317"><ele>923.0</ele><time>2026-05-01T13:07:04Z</time></trkpt><trkpt lat="40.030598713910926" lon="9.3845054534618"><ele>923.0</ele><time>2026-05-01T13:07:05Z</time></trkpt><trkpt lat="40.03057683019481" lon="9.384372051375207"><ele>923.0</ele><time>2026-05-01T13:07:06Z</time></trkpt><trkpt lat="40.03052522455791" lon="9.38425359902247"><ele>923.0</ele><time>2026-05-01T13:07:07Z</time></trkpt><trkpt lat="40.03045413204442" lon="9.384136613922841"><ele>923.0</ele><time>2026-05-01T13:07:08Z</time></trkpt><trkpt lat="40.03039480058373" lon="9.384006079413574"><ele>923.0</ele><time>2026-05-01T13:07:09Z</time></trkpt><trkpt lat="40.03037198715714" lon="9.383852934687631"><ele>924.5</ele><time>2026-05-01T13:07:10Z</time></trkpt><trkpt lat="40.03035683042627" lon="9.383691972244215"><ele>926.0</ele><time>2026-05-01T13:07:11Z</time></trkpt><trkpt lat="40.030341981494466" lon="9.383541271550593"><ele>927.5</ele><time>2026-05-01T13:07:12Z</time></trkpt><trkpt lat="40.030311606434715" lon="9.38339452820822"><ele>929.0</ele><time>2026-05-01T13:07:13Z</time></trkpt><trkpt lat="40.03022774896822" lon="9.38328333526366"><ele>929.0</ele><time>2026-05-01T13:07:14Z</time></trkpt><trkpt lat="40.03014202759208" lon="9.383187053651067"><ele>929.0000000000001</ele><time>2026-05-01T13:07:15Z</time></trkpt><trkpt lat="40.03005846692713" lon="9.383096476054574"><ele>929.0000000000001</ele><time>2026-05-01T13:07:16Z</time></trkpt><trkpt lat="40.03000513262577" lon="9.38298963992219"><ele>929.0</ele><time>2026-05-01T13:07:17Z</time></trkpt><trkpt lat="40.029990885270564" lon="9.382872486317611"><ele>929.0</ele><time>2026-05-01T13:07:18Z</time></trkpt><trkpt lat="40.02999945892997" lon="9.382747211666288"><ele>928.0</ele><time>2026-05-01T13:07:19Z</time></trkpt><trkpt lat="40.03004660948652" lon="9.382618141947932"><ele>927.0</ele><time>2026-05-01T13:07:20Z</time></trkpt><trkpt lat="40.03008362349372" lon="9.382471181619204"><ele>926.0</ele><time>2026-05-01T13:07:21Z</time></trkpt><trkpt lat="40.0301422451686" lon="9.3823169734754"><ele>925.0</ele><time>2026-05-01T13:07:22Z</time></trkpt><trkpt lat="40.03021974149804" lon="9.382151752892165"><ele>925.0</ele><time>2026-05-01T13:07:23Z</time></trkpt><trkpt lat="40.03030165820002" lon="9.38197852689023"><ele>925.0</ele><time>2026-05-01T13:07:24Z</time></trkpt><trkpt lat="40.03038651826852" lon="9.381810773846054"><ele>925.0</ele><time>2026-05-01T13:07:25Z</time></trkpt><trkpt lat="40.03048580482021" lon="9.381661798051157"><ele>925.0</ele><time>2026-05-01T13:07:26Z</time></trkpt><trkpt lat="40.03059488282096" lon="9.38150848733458"><ele>925.0</ele><time>2026-05-01T13:07:27Z</time></trkpt><trkpt lat="40.03072517284418" lon="9.381416135798416"><ele>925.0</ele><time>2026-05-01T13:07:28Z</time></trkpt><trkpt lat="40.030854838063696" lon="9.38133067668263"><ele>926.75</ele><time>2026-05-01T13:07:29Z</time></trkpt><trkpt lat="40.030986570862154" lon="9.381251445239869"><ele>928.5</ele><time>2026-05-01T13:07:30Z</time></trkpt><trkpt lat="40.03112141717979" lon="9.381172316069947"><ele>930.25</ele><time>2026-05-01T13:07:31Z</time></trkpt><trkpt lat="40.03124818959605" lon="9.38107506673917"><ele>932.0</ele><time>2026-05-01T13:07:32Z</time></trkpt><trkpt lat="40.03138164371111" lon="9.381001847961167"><ele>932.0</ele><time>2026-05-01T13:07:33Z</time></trkpt><trkpt lat="40.03151673657221" lon="9.380934799231959"><ele>932.0</ele><time>2026-05-01T13:07:34Z</time></trkpt><trkpt lat="40.031655099484" lon="9.380872843994172"><ele>932.0</ele><time>2026-05-01T13:07:35Z</time></trkpt><trkpt lat="40.03179266948492" lon="9.380806122466463"><ele>932.0</ele><time>2026-05-01T13:07:36Z</time></trkpt><trkpt lat="40.031930017206406" lon="9.380725592666522"><ele>931.0</ele><time>2026-05-01T13:07:37Z</time></trkpt><trkpt lat="40.03206691173221" lon="9.380632104727242"><ele>930.0</ele><time>2026-05-01T13:07:38Z</time></trkpt><trkpt lat="40.03220216881704" lon="9.380531935640311"><ele>929.0</ele><time>2026-05-01T13:07:39Z</time></trkpt><trkpt lat="40.032335369642816" lon="9.380424939294603"><ele>929.0</ele><time>2026-05-01T13:07:40Z</time></trkpt><trkpt lat="40.03246916969584" lon="9.380319900622824"><ele>929.0</ele><time>2026-05-01T13:07:41Z</time></trkpt><trkpt lat="40.03260438869289" lon="9.380219376243847"><ele>929.0</ele><time>2026-05-01T13:07:42Z</time></trkpt><trkpt lat="40.03273560661746" lon="9.380137677078615"><ele>932.6</ele><time>2026-05-01T13:07:43Z</time></trkpt><trkpt lat="40.03285310024429" lon="9.380085835121022"><ele>936.2</ele><time>2026-05-01T13:07:44Z</time></trkpt><trkpt lat="40.03295773804312" lon="9.38006225278195"><ele>939.8000000000001</ele><time>2026-05-01T13:07:45Z</time></trkpt><trkpt lat="40.03304710440754" lon="9.380053576043451"><ele>943.4000000000001</ele><time>2026-05-01T13:07:46Z</time></trkpt><trkpt lat="40.03313414214706" lon="9.380040933625533"><ele>947.0</ele><time>2026-05-01T13:07:47Z</time></trkpt><trkpt lat="40.033218089801565" lon="9.380016825998629"><ele>947.0000000000001</ele><time>2026-05-01T13:07:48Z</time></trkpt><trkpt lat="40.03329237814579" lon="9.379979305526629"><ele>947.0</ele><time>2026-05-01T13:07:49Z</time></trkpt><trkpt lat="40.03336149513005" lon="9.379942067057906"><ele>947.0</ele><time>2026-05-01T13:07:50Z</time></trkpt><trkpt lat="40.033428351471166" lon="9.379906188933846"><ele>947.0</ele><time>2026-05-01T13:07:51Z</time></trkpt><trkpt lat="40.03349684064786" lon="9.379869032802203"><ele>947.0000000000001</ele><time>2026-05-01T13:07:52Z</time></trkpt><trkpt lat="40.03356856693725" lon="9.379831175304316"><ele>947.0</ele><time>2026-05-01T13:07:53Z</time></trkpt><trkpt lat="40.03364636127526" lon="9.379796074067743"><ele>945.5000000000001</ele><time>2026-05-01T13:07:54Z</time></trkpt><trkpt lat="40.033726162061065" lon="9.379763581118214"><ele>944.0</ele><time>2026-05-01T13:07:55Z</time></trkpt><trkpt lat="40.033807653968424" lon="9.379729764557112"><ele>942.5</ele><time>2026-05-01T13:07:56Z</time></trkpt><trkpt lat="40.03389044615952" lon="9.379693335416448"><ele>941.0</ele><time>2026-05-01T13:07:57Z</time></trkpt><trkpt lat="40.0339739415276" lon="9.37966060484866"><ele>939.5000000000001</ele><time>2026-05-01T13:07:58Z</time></trkpt><trkpt lat="40.03405439668342" lon="9.379626188071933"><ele>938.0</ele><time>2026-05-01T13:07:59Z</time></trkpt><trkpt lat="40.034135273837926" lon="9.379590948583054"><ele>940.2</ele><time>2026-05-01T13:08:00Z</time></trkpt><trkpt lat="40.03421978181497" lon="9.379562793993935"><ele>942.4</ele><time>2026-05-01T13:08:01Z</time></trkpt><trkpt lat="40.03430693861599" lon="9.379540067041987"><ele>944.6000000000001</ele><time>2026-05-01T13:08:02Z</time></trkpt><trkpt lat="40.03439593956482" lon="9.379539081522273"><ele>946.8000000000001</ele><time>2026-05-01T13:08:03Z</time></trkpt><trkpt lat="40.034491297254064" lon="9.379537183015762"><ele>949.0</ele><time>2026-05-01T13:08:04Z</time></trkpt><trkpt lat="40.034588104802914" lon="9.379526933624097"><ele>949.0</ele><time>2026-05-01T13:08:05Z</time></trkpt><trkpt lat="40.03468597613072" lon="9.379504230743152"><ele>949.0000000000001</ele><time>2026-05-01T13:08:06Z</time></trkpt><trkpt lat="40.03478385681859" lon="9.379459696744547"><ele>949.0000000000001</ele><time>2026-05-01T13:08:07Z</time></trkpt><trkpt lat="40.03488142899488" lon="9.379401202176247"><ele>949.0</ele><time>2026-05-01T13:08:08Z</time></trkpt><trkpt lat="40.03497986572641" lon="9.379337848469534"><ele>949.0</ele><time>2026-05-01T13:08:09Z</time></trkpt><trkpt lat="40.03507986266512" lon="9.379275533687487"><ele>951.8000000000001</ele><time>2026-05-01T13:08:10Z</time></trkpt><trkpt lat="40.03518371644338" lon="9.379233693863657"><ele>954.6000000000001</ele><time>2026-05-01T13:08:11Z</time></trkpt><trkpt lat="40.03528900537192" lon="9.379213680408515"><ele>957.4</ele><time>2026-05-01T13:08:12Z</time></trkpt><trkpt lat="40.035394043377" lon="9.379228841454614"><ele>960.2</ele><time>2026-05-01T13:08:13Z</time></trkpt><trkpt lat="40.03549411685108" lon="9.379262692210608"><ele>963.0</ele><time>2026-05-01T13:08:14Z</time></trkpt><trkpt lat="40.035591952891494" lon="9.379317311168924"><ele>963.0</ele><time>2026-05-01T13:08:15Z</time></trkpt><trkpt lat="40.03568907605775" lon="9.379378312563702"><ele>963.0</ele><time>2026-05-01T13:08:16Z</time></trkpt><trkpt lat="40.03578851059719" lon="9.379423467803422"><ele>963.0</ele><time>2026-05-01T13:08:17Z</time></trkpt><trkpt lat="40.035891294133364" lon="9.379426304706902"><ele>963.0</ele><time>2026-05-01T13:08:18Z</time></trkpt><trkpt lat="40.03599605330358" lon="9.379381118427082"><ele>963.0</ele><time>2026-05-01T13:08:19Z</time></trkpt><trkpt lat="40.036101341849346" lon="9.379314610973317"><ele>964.75</ele><time>2026-05-01T13:08:20Z</time></trkpt><trkpt lat="40.036205044366554" lon="9.379232148737904"><ele>966.5</ele><time>2026-05-01T13:08:21Z</time></trkpt><trkpt lat="40.03630765577407" lon="9.379136294832586"><ele>968.25</ele><time>2026-05-01T13:08:22Z</time></trkpt><trkpt lat="40.03641127543272" lon="9.37904019229877"><ele>970.0</ele><time>2026-05-01T13:08:23Z</time></trkpt><trkpt lat="40.03651443661889" lon="9.378944102239968"><ele>970.0</ele><time>2026-05-01T13:08:24Z</time></trkpt><trkpt lat="40.036615188519555" lon="9.378853633426976"><ele>970.0</ele><time>2026-05-01T13:08:25Z</time></trkpt><trkpt lat="40.036718682639524" lon="9.378773783983528"><ele>970.0</ele><time>2026-05-01T13:08:26Z</time></trkpt><trkpt lat="40.0368316012077" lon="9.378711578586511"><ele>970.0</ele><time>2026-05-01T13:08:27Z</time></trkpt><trkpt lat="40.036958651792325" lon="9.378710346276996"><ele>967.5</ele><time>2026-05-01T13:08:28Z</time></trkpt><trkpt lat="40.03708298326359" lon="9.378684720374853"><ele>965.0</ele><time>2026-05-01T13:08:29Z</time></trkpt><trkpt lat="40.03720630469851" lon="9.37866550366483"><ele>962.5</ele><time>2026-05-01T13:08:30Z</time></trkpt><trkpt lat="40.037323662118155" lon="9.378614669526256"><ele>960.0</ele><time>2026-05-01T13:08:31Z</time></trkpt><trkpt lat="40.037437400037845" lon="9.378555373179651"><ele>963.0</ele><time>2026-05-01T13:08:32Z</time></trkpt><trkpt lat="40.03755099190296" lon="9.378528259785899"><ele>966.0</ele><time>2026-05-01T13:08:33Z</time></trkpt><trkpt lat="40.03766241627644" lon="9.378556653428117"><ele>969.0</ele><time>2026-05-01T13:08:34Z</time></trkpt><trkpt lat="40.03774946982866" lon="9.378639154052403"><ele>972.0</ele><time>2026-05-01T13:08:35Z</time></trkpt><trkpt lat="40.037865048103" lon="9.378701934808152"><ele>972.0</ele><time>2026-05-01T13:08:36Z</time></trkpt><trkpt lat="40.03796925354819" lon="9.378786162303001"><ele>972.0</ele><time>2026-05-01T13:08:37Z</time></trkpt><trkpt lat="40.038077471196566" lon="9.378861836397165"><ele>972.0</ele><time>2026-05-01T13:08:38Z</time></trkpt><trkpt lat="40.03818836438226" lon="9.378938823573076"><ele>972.0</ele><time>2026-05-01T13:08:39Z</time></trkpt><trkpt lat="40.038297194769314" lon="9.37898747513673"><ele>977.75</ele><time>2026-05-01T13:08:40Z</time></trkpt><trkpt lat="40.03841239050107" lon="9.379003213406849"><ele>983.5</ele><time>2026-05-01T13:08:41Z</time></trkpt><trkpt lat="40.038529353220966" lon="9.378990824268536"><ele>989.25</ele><time>2026-05-01T13:08:42Z</time></trkpt><trkpt lat="40.038643010493715" lon="9.37896950830141"><ele>995.0</ele><time>2026-05-01T13:08:43Z</time></trkpt><trkpt lat="40.03873985324427" lon="9.378925636547415"><ele>991.8</ele><time>2026-05-01T13:08:44Z</time></trkpt><trkpt lat="40.03880781138866" lon="9.378838587784829"><ele>988.6</ele><time>2026-05-01T13:08:45Z</time></trkpt><trkpt lat="40.03883635085341" lon="9.378706328597612"><ele>985.4000000000001</ele><time>2026-05-01T13:08:46Z</time></trkpt><trkpt lat="40.038848406746176" lon="9.378564951913797"><ele>982.2</ele><time>2026-05-01T13:08:47Z</time></trkpt><trkpt lat="40.0388519953275" lon="9.3783959751845"><ele>979.0</ele><time>2026-05-01T13:08:48Z</time></trkpt><trkpt lat="40.03889514862944" lon="9.378230801359887"><ele>979.0</ele><time>2026-05-01T13:08:49Z</time></trkpt><trkpt lat="40.03893675480473" lon="9.378059929103864"><ele>979.0</ele><time>2026-05-01T13:08:50Z</time></trkpt><trkpt lat="40.038969290861836" lon="9.377882707260651"><ele>979.0</ele><time>2026-05-01T13:08:51Z</time></trkpt><trkpt lat="40.03901376861778" lon="9.377723672160487"><ele>979.0</ele><time>2026-05-01T13:08:52Z</time></trkpt><trkpt lat="40.03905891396312" lon="9.377571709029375"><ele>978.75</ele><time>2026-05-01T13:08:53Z</time></trkpt><trkpt lat="40.03913205711412" lon="9.377439250187278"><ele>978.5</ele><time>2026-05-01T13:08:54Z</time></trkpt><trkpt lat="40.03920148650908" lon="9.377287330533873"><ele>978.25</ele><time>2026-05-01T13:08:55Z</time></trkpt><trkpt lat="40.03929463338695" lon="9.377145762943313"><ele>978.0</ele><time>2026-05-01T13:08:56Z</time></trkpt><trkpt lat="40.039407001717116" lon="9.37702146223976"><ele>978.0</ele><time>2026-05-01T13:08:57Z</time></trkpt><trkpt lat="40.039532399161594" lon="9.376939160650517"><ele>978.0</ele><time>2026-05-01T13:08:58Z</time></trkpt><trkpt lat="40.0396532400959" lon="9.376838185180144"><ele>978.0</ele><time>2026-05-01T13:08:59Z</time></trkpt><trkpt lat="40.03978740892952" lon="9.37675706132962"><ele>978.0</ele><time>2026-05-01T13:09:00Z</time></trkpt><trkpt lat="40.0399227801909" lon="9.376672359448355"><ele>980.0</ele><time>2026-05-01T13:09:01Z</time></trkpt><trkpt lat="40.04004173763831" lon="9.376568444834973"><ele>982.0</ele><time>2026-05-01T13:09:02Z</time></trkpt><trkpt lat="40.0401354215222" lon="9.376432123286516"><ele>984.0</ele><time>2026-05-01T13:09:03Z</time></trkpt><trkpt lat="40.04022966398677" lon="9.376283713248824"><ele>986.0</ele><time>2026-05-01T13:09:04Z</time></trkpt><trkpt lat="40.04030036771571" lon="9.376141581444077"><ele>986.0</ele><time>2026-05-01T13:09:05Z</time></trkpt><trkpt lat="40.04036945592203" lon="9.375925096527858"><ele>986.0</ele><time>2026-05-01T13:09:06Z</time></trkpt><trkpt lat="40.04042098602547" lon="9.375745417622484"><ele>986.0</ele><time>2026-05-01T13:09:07Z</time></trkpt><trkpt lat="40.04048178522801" lon="9.375597351861074"><ele>987.0</ele><time>2026-05-01T13:09:08Z</time></trkpt><trkpt lat="40.04056263208804" lon="9.375475234986707"><ele>988.0</ele><time>2026-05-01T13:09:09Z</time></trkpt><trkpt lat="40.04063607737009" lon="9.375401054260367"><ele>989.0</ele><time>2026-05-01T13:09:10Z</time></trkpt><trkpt lat="40.04071088278651" lon="9.37536628216951"><ele>990.0</ele><time>2026-05-01T13:09:12Z</time></trkpt><trkpt lat="40.04097097469523" lon="9.375377228162888"><ele>990.0</ele><time>2026-05-01T13:09:13Z</time></trkpt><trkpt lat="40.041043278623505" lon="9.375480523575456"><ele>990.0</ele><time>2026-05-01T13:09:14Z</time></trkpt><trkpt lat="40.04114680841187" lon="9.375567130401222"><ele>990.0</ele><time>2026-05-01T13:09:15Z</time></trkpt><trkpt lat="40.04126250634584" lon="9.375654866202954"><ele>990.0</ele><time>2026-05-01T13:09:16Z</time></trkpt><trkpt lat="40.041390968447296" lon="9.37572100383725"><ele>995.25</ele><time>2026-05-01T13:09:17Z</time></trkpt><trkpt lat="40.041515578461144" lon="9.37581662308799"><ele>1000.5</ele><time>2026-05-01T13:09:18Z</time></trkpt><trkpt lat="40.041645943475544" lon="9.375905597567602"><ele>1005.75</ele><time>2026-05-01T13:09:19Z</time></trkpt><trkpt lat="40.041768792676855" lon="9.37597878467762"><ele>1011.0</ele><time>2026-05-01T13:09:20Z</time></trkpt><trkpt lat="40.04188640420775" lon="9.376005778314282"><ele>1011.5</ele><time>2026-05-01T13:09:21Z</time></trkpt><trkpt lat="40.04201472699856" lon="9.375997458415727"><ele>1012.0</ele><time>2026-05-01T13:09:22Z</time></trkpt><trkpt lat="40.042144676328284" lon="9.375957843851118"><ele>1012.5</ele><time>2026-05-01T13:09:23Z</time></trkpt><trkpt lat="40.042258611701804" lon="9.375914033199146"><ele>1013.0</ele><time>2026-05-01T13:09:24Z</time></trkpt><trkpt lat="40.042345718253486" lon="9.37581197284287"><ele>1013.0</ele><time>2026-05-01T13:09:25Z</time></trkpt><trkpt lat="40.04237812558915" lon="9.375659686794142"><ele>1013.0</ele><time>2026-05-01T13:09:26Z</time></trkpt><trkpt lat="40.042419881388724" lon="9.375517913381927"><ele>1013.0</ele><time>2026-05-01T13:09:27Z</time></trkpt><trkpt lat="40.04243458455394" lon="9.375349639826128"><ele>1013.0</ele><time>2026-05-01T13:09:28Z</time></trkpt><trkpt lat="40.04245592565578" lon="9.375183642914926"><ele>1012.25</ele><time>2026-05-01T13:09:29Z</time></trkpt><trkpt lat="40.042536863398446" lon="9.375059786333972"><ele>1011.5</ele><time>2026-05-01T13:09:30Z</time></trkpt><trkpt lat="40.04262972531084" lon="9.374947732909611"><ele>1010.75</ele><time>2026-05-01T13:09:31Z</time></trkpt><trkpt lat="40.04275397349356" lon="9.374888420452928"><ele>1010.0</ele><time>2026-05-01T13:09:32Z</time></trkpt><trkpt lat="40.04287749544676" lon="9.37481502225701"><ele>1010.0</ele><time>2026-05-01T13:09:33Z</time></trkpt><trkpt lat="40.04301333306925" lon="9.374741515424324"><ele>1010.0</ele><time>2026-05-01T13:09:34Z</time></trkpt><trkpt lat="40.04316791779778" lon="9.374664783743174"><ele>1010.0</ele><time>2026-05-01T13:09:35Z</time></trkpt><trkpt lat="40.04331318838114" lon="9.374612591515044"><ele>1010.0</ele><time>2026-05-01T13:09:36Z</time></trkpt><trkpt lat="40.04345072548581" lon="9.374551672688527"><ele>1010.0</ele><time>2026-05-01T13:09:37Z</time></trkpt><trkpt lat="40.043587514586605" lon="9.374492781240162"><ele>1010.0</ele><time>2026-05-01T13:09:38Z</time></trkpt><trkpt lat="40.0437022689205" lon="9.374433194509354"><ele>1010.0</ele><time>2026-05-01T13:09:39Z</time></trkpt><trkpt lat="40.04381045557841" lon="9.37434793589271"><ele>1010.0</ele><time>2026-05-01T13:09:40Z</time></trkpt><trkpt lat="40.04388691371652" lon="9.374214081536488"><ele>1010.0</ele><time>2026-05-01T13:09:41Z</time></trkpt><trkpt lat="40.043961439084654" lon="9.37408806277725"><ele>1010.0</ele><time>2026-05-01T13:09:42Z</time></trkpt><trkpt lat="40.04404482358156" lon="9.37399773599177"><ele>1010.0</ele><time>2026-05-01T13:09:43Z</time></trkpt><trkpt lat="40.04415835022306" lon="9.373948509571091"><ele>1014.75</ele><time>2026-05-01T13:09:44Z</time></trkpt><trkpt lat="40.04426568492434" lon="9.373949974252488"><ele>1019.5</ele><time>2026-05-01T13:09:45Z</time></trkpt><trkpt lat="40.044398772442136" lon="9.373966167522672"><ele>1024.25</ele><time>2026-05-01T13:09:46Z</time></trkpt><trkpt lat="40.04454070081033" lon="9.373964637294163"><ele>1029.0</ele><time>2026-05-01T13:09:47Z</time></trkpt><trkpt lat="40.04467925086655" lon="9.373995826070423"><ele>1029.0</ele><time>2026-05-01T13:09:48Z</time></trkpt><trkpt lat="40.044818093073914" lon="9.374017304905559"><ele>1029.0</ele><time>2026-05-01T13:09:49Z</time></trkpt><trkpt lat="40.04495982062915" lon="9.37403073520505"><ele>1029.0</ele><time>2026-05-01T13:09:50Z</time></trkpt><trkpt lat="40.04509409400175" lon="9.374009372596378"><ele>1029.0</ele><time>2026-05-01T13:09:51Z</time></trkpt><trkpt lat="40.045223243695844" lon="9.373940968486178"><ele>1027.25</ele><time>2026-05-01T13:09:52Z</time></trkpt><trkpt lat="40.04534555199173" lon="9.373845361552627"><ele>1025.5</ele><time>2026-05-01T13:09:53Z</time></trkpt><trkpt lat="40.04546375125172" lon="9.373781331812419"><ele>1023.75</ele><time>2026-05-01T13:09:54Z</time></trkpt><trkpt lat="40.045588621668635" lon="9.373752493576163"><ele>1022.0</ele><time>2026-05-01T13:09:55Z</time></trkpt><trkpt lat="40.04570955933611" lon="9.373720643539864"><ele>1023.75</ele><time>2026-05-01T13:09:56Z</time></trkpt><trkpt lat="40.0458334577029" lon="9.373673696586584"><ele>1025.5</ele><time>2026-05-01T13:09:57Z</time></trkpt><trkpt lat="40.0459624174451" lon="9.373640244280303"><ele>1027.25</ele><time>2026-05-01T13:09:58Z</time></trkpt><trkpt lat="40.046092254478665" lon="9.373576020169937"><ele>1029.0</ele><time>2026-05-01T13:09:59Z</time></trkpt><trkpt lat="40.046216189240134" lon="9.373478395527028"><ele>1029.0</ele><time>2026-05-01T13:10:00Z</time></trkpt><trkpt lat="40.04633926600157" lon="9.37337154087553"><ele>1029.0</ele><time>2026-05-01T13:10:01Z</time></trkpt><trkpt lat="40.04647511704815" lon="9.37330524965825"><ele>1029.0</ele><time>2026-05-01T13:10:02Z</time></trkpt><trkpt lat="40.04658721703478" lon="9.373239210813132"><ele>1029.0</ele><time>2026-05-01T13:10:03Z</time></trkpt><trkpt lat="40.046695668878925" lon="9.373215412830836"><ele>1032.25</ele><time>2026-05-01T13:10:04Z</time></trkpt><trkpt lat="40.046811813752996" lon="9.373235432187279"><ele>1035.5</ele><time>2026-05-01T13:10:05Z</time></trkpt><trkpt lat="40.046914547361375" lon="9.373316976543101"><ele>1038.75</ele><time>2026-05-01T13:10:06Z</time></trkpt><trkpt lat="40.04701673951623" lon="9.373429730358275"><ele>1042.0</ele><time>2026-05-01T13:10:07Z</time></trkpt><trkpt lat="40.04713085824936" lon="9.373552799649028"><ele>1042.0</ele><time>2026-05-01T13:10:08Z</time></trkpt><trkpt lat="40.04726373133182" lon="9.37367525286148"><ele>1042.0</ele><time>2026-05-01T13:10:09Z</time></trkpt><trkpt lat="40.047383551605705" lon="9.373807792836104"><ele>1042.0</ele><time>2026-05-01T13:10:10Z</time></trkpt><trkpt lat="40.04750659684283" lon="9.373959231963807"><ele>1045.0</ele><time>2026-05-01T13:10:11Z</time></trkpt><trkpt lat="40.047623180886035" lon="9.374106401516963"><ele>1048.0</ele><time>2026-05-01T13:10:12Z</time></trkpt><trkpt lat="40.04771571940767" lon="9.374236734271477"><ele>1051.0</ele><time>2026-05-01T13:10:13Z</time></trkpt><trkpt lat="40.04780989031157" lon="9.37433828118986"><ele>1054.0</ele><time>2026-05-01T13:10:14Z</time></trkpt><trkpt lat="40.047911844962236" lon="9.374407273604398"><ele>1054.0</ele><time>2026-05-01T13:10:15Z</time></trkpt><trkpt lat="40.048024713908696" lon="9.374450169369785"><ele>1054.0</ele><time>2026-05-01T13:10:16Z</time></trkpt><trkpt lat="40.048150654124576" lon="9.374432520770089"><ele>1054.0</ele><time>2026-05-01T13:10:17Z</time></trkpt><trkpt lat="40.04827728577809" lon="9.374368297039432"><ele>1054.0</ele><time>2026-05-01T13:10:18Z</time></trkpt><trkpt lat="40.04839752792688" lon="9.374275729491844"><ele>1053.0</ele><time>2026-05-01T13:10:19Z</time></trkpt><trkpt lat="40.04851897434399" lon="9.374163604261176"><ele>1052.0</ele><time>2026-05-01T13:10:20Z</time></trkpt><trkpt lat="40.048640834202814" lon="9.374040514117436"><ele>1051.0</ele><time>2026-05-01T13:10:21Z</time></trkpt><trkpt lat="40.048771143782766" lon="9.3739245737599"><ele>1052.0</ele><time>2026-05-01T13:10:22Z</time></trkpt><trkpt lat="40.048895794617366" lon="9.373796790478679"><ele>1053.0</ele><time>2026-05-01T13:10:23Z</time></trkpt><trkpt lat="40.0490201691688" lon="9.373666327269916"><ele>1054.0</ele><time>2026-05-01T13:10:24Z</time></trkpt><trkpt lat="40.0491330716795" lon="9.373530986111884"><ele>1054.0</ele><time>2026-05-01T13:10:25Z</time></trkpt><trkpt lat="40.049233724110884" lon="9.3734045976761"><ele>1054.0</ele><time>2026-05-01T13:10:26Z</time></trkpt><trkpt lat="40.04932469630379" lon="9.373276030575767"><ele>1054.0</ele><time>2026-05-01T13:10:27Z</time></trkpt><trkpt lat="40.04937768466959" lon="9.373130960763683"><ele>1054.0</ele><time>2026-05-01T13:10:28Z</time></trkpt><trkpt lat="40.04940873091946" lon="9.37298949450451"><ele>1051.6666666666665</ele><time>2026-05-01T13:10:29Z</time></trkpt><trkpt lat="40.04945524900734" lon="9.37287041266057"><ele>1049.3333333333333</ele><time>2026-05-01T13:10:30Z</time></trkpt><trkpt lat="40.049495863306795" lon="9.372758721873248"><ele>1047.0</ele><time>2026-05-01T13:10:31Z</time></trkpt><trkpt lat="40.049542442304386" lon="9.372675118866383"><ele>1044.6666666666667</ele><time>2026-05-01T13:10:32Z</time></trkpt><trkpt lat="40.049584980290696" lon="9.372597654801758"><ele>1042.3333333333335</ele><time>2026-05-01T13:10:33Z</time></trkpt><trkpt lat="40.04966502883065" lon="9.372589410801481"><ele>1040.0</ele><time>2026-05-01T13:10:34Z</time></trkpt><trkpt lat="40.04974980474537" lon="9.372613379638624"><ele>1040.0</ele><time>2026-05-01T13:10:35Z</time></trkpt><trkpt lat="40.049846273370136" lon="9.372650270597248"><ele>1040.0</ele><time>2026-05-01T13:10:36Z</time></trkpt><trkpt lat="40.049947285036886" lon="9.372689988557873"><ele>1040.0</ele><time>2026-05-01T13:10:37Z</time></trkpt><trkpt lat="40.050049903180486" lon="9.372736617397438"><ele>1040.0</ele><time>2026-05-01T13:10:38Z</time></trkpt><trkpt lat="40.05015975464952" lon="9.3727843807451"><ele>1040.0</ele><time>2026-05-01T13:10:39Z</time></trkpt><trkpt lat="40.05027076684583" lon="9.372838557517493"><ele>1043.25</ele><time>2026-05-01T13:10:40Z</time></trkpt><trkpt lat="40.05038351116534" lon="9.372888006486072"><ele>1046.5</ele><time>2026-05-01T13:10:41Z</time></trkpt><trkpt lat="40.050501104103795" lon="9.372939811932184"><ele>1049.75</ele><time>2026-05-01T13:10:42Z</time></trkpt><trkpt lat="40.05062174091412" lon="9.372998926727105"><ele>1053.0</ele><time>2026-05-01T13:10:43Z</time></trkpt><trkpt lat="40.050746018996904" lon="9.373061899865887"><ele>1058.0</ele><time>2026-05-01T13:10:44Z</time></trkpt><trkpt lat="40.05086547126765" lon="9.373124476458873"><ele>1063.0</ele><time>2026-05-01T13:10:45Z</time></trkpt><trkpt lat="40.05098088683575" lon="9.373183516896006"><ele>1068.0</ele><time>2026-05-01T13:10:46Z</time></trkpt><trkpt lat="40.051092660231866" lon="9.37323946574228"><ele>1073.0</ele><time>2026-05-01T13:10:47Z</time></trkpt><trkpt lat="40.05120075092839" lon="9.373292117698165"><ele>1073.0</ele><time>2026-05-01T13:10:48Z</time></trkpt><trkpt lat="40.05130563166509" lon="9.373351679174702"><ele>1073.0</ele><time>2026-05-01T13:10:49Z</time></trkpt><trkpt lat="40.05139786276363" lon="9.373423126911813"><ele>1073.0</ele><time>2026-05-01T13:10:50Z</time></trkpt><trkpt lat="40.051466811166186" lon="9.373522142083917"><ele>1073.0</ele><time>2026-05-01T13:10:51Z</time></trkpt><trkpt lat="40.05148627526341" lon="9.373661548800891"><ele>1073.0</ele><time>2026-05-01T13:10:52Z</time></trkpt><trkpt lat="40.051532206018315" lon="9.373777027543424"><ele>1074.6</ele><time>2026-05-01T13:10:53Z</time></trkpt><trkpt lat="40.05159175648297" lon="9.373859328606363"><ele>1076.1999999999998</ele><time>2026-05-01T13:10:54Z</time></trkpt><trkpt lat="40.05166087735851" lon="9.373923111875719"><ele>1077.8</ele><time>2026-05-01T13:10:55Z</time></trkpt><trkpt lat="40.05175160714698" lon="9.37395934506447"><ele>1079.3999999999999</ele><time>2026-05-01T13:10:56Z</time></trkpt><trkpt lat="40.05185352072543" lon="9.373942364211347"><ele>1081.0</ele><time>2026-05-01T13:10:57Z</time></trkpt><trkpt lat="40.05195907454473" lon="9.373918551495434"><ele>1081.0</ele><time>2026-05-01T13:10:58Z</time></trkpt><trkpt lat="40.05207113979336" lon="9.373887924059774"><ele>1081.0</ele><time>2026-05-01T13:10:59Z</time></trkpt><trkpt lat="40.0521767507707" lon="9.373835802489564"><ele>1081.0</ele><time>2026-05-01T13:11:00Z</time></trkpt><trkpt lat="40.05228511842333" lon="9.373779123414106"><ele>1081.0</ele><time>2026-05-01T13:11:01Z</time></trkpt><trkpt lat="40.05239024132542" lon="9.373710034546928"><ele>1076.75</ele><time>2026-05-01T13:11:02Z</time></trkpt><trkpt lat="40.05249502829057" lon="9.373632631277475"><ele>1072.5</ele><time>2026-05-01T13:11:03Z</time></trkpt><trkpt lat="40.05260129942862" lon="9.37357611955417"><ele>1068.25</ele><time>2026-05-01T13:11:04Z</time></trkpt><trkpt lat="40.0526941567654" lon="9.373499294257215"><ele>1064.0</ele><time>2026-05-01T13:11:05Z</time></trkpt><trkpt lat="40.052783441158695" lon="9.373422442523493"><ele>1064.0</ele><time>2026-05-01T13:11:06Z</time></trkpt><trkpt lat="40.05287702006891" lon="9.373366574700674"><ele>1064.0</ele><time>2026-05-01T13:11:07Z</time></trkpt><trkpt lat="40.05296901619659" lon="9.373308409730704"><ele>1064.0</ele><time>2026-05-01T13:11:08Z</time></trkpt><trkpt lat="40.0530716985153" lon="9.373277326072069"><ele>1064.0</ele><time>2026-05-01T13:11:09Z</time></trkpt><trkpt lat="40.05317850164256" lon="9.373236368315156"><ele>1064.0</ele><time>2026-05-01T13:11:10Z</time></trkpt><trkpt lat="40.053292559120706" lon="9.373220883383588"><ele>1068.25</ele><time>2026-05-01T13:11:11Z</time></trkpt><trkpt lat="40.05341103084004" lon="9.373202142971241"><ele>1072.5</ele><time>2026-05-01T13:11:12Z</time></trkpt><trkpt lat="40.05353448719789" lon="9.373185154505911"><ele>1076.75</ele><time>2026-05-01T13:11:13Z</time></trkpt><trkpt lat="40.05366249383477" lon="9.373182491407242"><ele>1081.0</ele><time>2026-05-01T13:11:14Z</time></trkpt><trkpt lat="40.05379264427715" lon="9.373205971743138"><ele>1081.0</ele><time>2026-05-01T13:11:15Z</time></trkpt><trkpt lat="40.05391939616472" lon="9.373229848110425"><ele>1081.0</ele><time>2026-05-01T13:11:16Z</time></trkpt><trkpt lat="40.05404088403121" lon="9.37322047566526"><ele>1081.0</ele><time>2026-05-01T13:11:17Z</time></trkpt><trkpt lat="40.05414703733544" lon="9.373161732939872"><ele>1081.0</ele><time>2026-05-01T13:11:18Z</time></trkpt><trkpt lat="40.05423218159751" lon="9.37306075642951"><ele>1080.5</ele><time>2026-05-01T13:11:19Z</time></trkpt><trkpt lat="40.05429337768573" lon="9.372931127419148"><ele>1080.0</ele><time>2026-05-01T13:11:20Z</time></trkpt><trkpt lat="40.05433508729461" lon="9.372782046308217"><ele>1079.5</ele><time>2026-05-01T13:11:21Z</time></trkpt><trkpt lat="40.05436980439404" lon="9.372624359456193"><ele>1079.0</ele><time>2026-05-01T13:11:22Z</time></trkpt><trkpt lat="40.05441210660695" lon="9.372463560443752"><ele>1079.0</ele><time>2026-05-01T13:11:23Z</time></trkpt><trkpt lat="40.05446267200264" lon="9.372299913639715"><ele>1079.0</ele><time>2026-05-01T13:11:24Z</time></trkpt><trkpt lat="40.05453917076986" lon="9.372151186588907"><ele>1079.0</ele><time>2026-05-01T13:11:25Z</time></trkpt><trkpt lat="40.0546198042491" lon="9.371998221009775"><ele>1079.0</ele><time>2026-05-01T13:11:26Z</time></trkpt><trkpt lat="40.05469651710726" lon="9.371836851069842"><ele>1079.5</ele><time>2026-05-01T13:11:27Z</time></trkpt><trkpt lat="40.054792185254335" lon="9.371691927686914"><ele>1080.0</ele><time>2026-05-01T13:11:28Z</time></trkpt><trkpt lat="40.054892707600104" lon="9.371554062275383"><ele>1080.5</ele><time>2026-05-01T13:11:29Z</time></trkpt><trkpt lat="40.055001646367195" lon="9.37143210265568"><ele>1081.0</ele><time>2026-05-01T13:11:30Z</time></trkpt><trkpt lat="40.05511725391171" lon="9.371322892163157"><ele>1081.0</ele><time>2026-05-01T13:11:31Z</time></trkpt><trkpt lat="40.05522853008811" lon="9.371208030777524"><ele>1081.0</ele><time>2026-05-01T13:11:32Z</time></trkpt><trkpt lat="40.0553283202269" lon="9.371076362336712"><ele>1081.0</ele><time>2026-05-01T13:11:33Z</time></trkpt><trkpt lat="40.055408449688514" lon="9.370938411135562"><ele>1081.0</ele><time>2026-05-01T13:11:34Z</time></trkpt><trkpt lat="40.055468516744696" lon="9.370820828369252"><ele>1081.0</ele><time>2026-05-01T13:11:35Z</time></trkpt><trkpt lat="40.05551195886981" lon="9.370725785994985"><ele>1081.0</ele><time>2026-05-01T13:11:36Z</time></trkpt><trkpt lat="40.0555490356505" lon="9.370643448172453"><ele>1081.0</ele><time>2026-05-01T13:11:37Z</time></trkpt><trkpt lat="40.05561170956808" lon="9.370503336804664"><ele>1081.0</ele><time>2026-05-01T13:11:39Z</time></trkpt><trkpt lat="40.0556518308306" lon="9.370429977563246"><ele>1081.0</ele><time>2026-05-01T13:11:40Z</time></trkpt><trkpt lat="40.05568870655704" lon="9.37034913296485"><ele>1081.0</ele><time>2026-05-01T13:11:41Z</time></trkpt><trkpt lat="40.05573713709724" lon="9.370271454453311"><ele>1083.2</ele><time>2026-05-01T13:11:42Z</time></trkpt><trkpt lat="40.05580834416141" lon="9.370211327086867"><ele>1085.3999999999999</ele><time>2026-05-01T13:11:43Z</time></trkpt><trkpt lat="40.05589451132546" lon="9.370178690086288"><ele>1087.6</ele><time>2026-05-01T13:11:44Z</time></trkpt><trkpt lat="40.055997100856366" lon="9.370195448034554"><ele>1089.8</ele><time>2026-05-01T13:11:45Z</time></trkpt><trkpt lat="40.056102111057896" lon="9.37024541315482"><ele>1092.0</ele><time>2026-05-01T13:11:46Z</time></trkpt><trkpt lat="40.05621295663153" lon="9.370288285771233"><ele>1092.0</ele><time>2026-05-01T13:11:47Z</time></trkpt><trkpt lat="40.056326876348756" lon="9.370336976511167"><ele>1092.0</ele><time>2026-05-01T13:11:48Z</time></trkpt><trkpt lat="40.05644538525323" lon="9.370368560479644"><ele>1092.0</ele><time>2026-05-01T13:11:49Z</time></trkpt><trkpt lat="40.05656892465" lon="9.370424571806957"><ele>1092.0</ele><time>2026-05-01T13:11:50Z</time></trkpt><trkpt lat="40.05669111287423" lon="9.370468257430698"><ele>1093.0</ele><time>2026-05-01T13:11:51Z</time></trkpt><trkpt lat="40.056807419902206" lon="9.370443025610381"><ele>1094.0</ele><time>2026-05-01T13:11:52Z</time></trkpt><trkpt lat="40.056925868402054" lon="9.370393761727668"><ele>1095.0</ele><time>2026-05-01T13:11:53Z</time></trkpt><trkpt lat="40.05704488140959" lon="9.37030687901643"><ele>1096.0</ele><time>2026-05-01T13:11:54Z</time></trkpt><trkpt lat="40.05716075915125" lon="9.370194646771179"><ele>1096.0</ele><time>2026-05-01T13:11:55Z</time></trkpt><trkpt lat="40.05727678878355" lon="9.370077332912635"><ele>1096.0</ele><time>2026-05-01T13:11:56Z</time></trkpt><trkpt lat="40.057391017694336" lon="9.369964314414794"><ele>1096.0</ele><time>2026-05-01T13:11:57Z</time></trkpt><trkpt lat="40.05750473218507" lon="9.36985534995653"><ele>1096.0</ele><time>2026-05-01T13:11:58Z</time></trkpt><trkpt lat="40.05761472818416" lon="9.369752337608672"><ele>1095.6</ele><time>2026-05-01T13:11:59Z</time></trkpt><trkpt lat="40.05771329542948" lon="9.3696663803056"><ele>1095.1999999999998</ele><time>2026-05-01T13:12:00Z</time></trkpt><trkpt lat="40.0578094510413" lon="9.369610994011818"><ele>1094.8000000000002</ele><time>2026-05-01T13:12:01Z</time></trkpt><trkpt lat="40.057917862724864" lon="9.369634678074648"><ele>1094.4</ele><time>2026-05-01T13:12:02Z</time></trkpt><trkpt lat="40.05801926177008" lon="9.369693438211403"><ele>1094.0</ele><time>2026-05-01T13:12:03Z</time></trkpt><trkpt lat="40.05812766926583" lon="9.369767350269344"><ele>1098.0</ele><time>2026-05-01T13:12:04Z</time></trkpt><trkpt lat="40.058241977214145" lon="9.369845895724602"><ele>1102.0</ele><time>2026-05-01T13:12:05Z</time></trkpt><trkpt lat="40.058360924208344" lon="9.369907679888623"><ele>1106.0</ele><time>2026-05-01T13:12:06Z</time></trkpt><trkpt lat="40.05847058075638" lon="9.369984072943977"><ele>1110.0</ele><time>2026-05-01T13:12:07Z</time></trkpt><trkpt lat="40.058587052864176" lon="9.370042536415353"><ele>1111.2</ele><time>2026-05-01T13:12:08Z</time></trkpt><trkpt lat="40.058706123835215" lon="9.370073874878173"><ele>1112.4</ele><time>2026-05-01T13:12:09Z</time></trkpt><trkpt lat="40.05881802359528" lon="9.370065017745638"><ele>1113.6</ele><time>2026-05-01T13:12:10Z</time></trkpt><trkpt lat="40.058914402483246" lon="9.369991052588981"><ele>1114.8</ele><time>2026-05-01T13:12:11Z</time></trkpt><trkpt lat="40.05899463330474" lon="9.369916203929803"><ele>1116.0</ele><time>2026-05-01T13:12:12Z</time></trkpt><trkpt lat="40.05902092990629" lon="9.369773462012418"><ele>1115.25</ele><time>2026-05-01T13:12:13Z</time></trkpt><trkpt lat="40.05908338815053" lon="9.369641068845652"><ele>1114.5</ele><time>2026-05-01T13:12:14Z</time></trkpt><trkpt lat="40.059128959498594" lon="9.369492152467126"><ele>1113.75</ele><time>2026-05-01T13:12:15Z</time></trkpt><trkpt lat="40.05917945280273" lon="9.36934117894472"><ele>1113.0</ele><time>2026-05-01T13:12:16Z</time></trkpt><trkpt lat="40.05923738235781" lon="9.36918938603569"><ele>1113.0</ele><time>2026-05-01T13:12:17Z</time></trkpt><trkpt lat="40.05930123988428" lon="9.369038391791786"><ele>1113.0</ele><time>2026-05-01T13:12:18Z</time></trkpt><trkpt lat="40.059377117293984" lon="9.368899978125052"><ele>1113.0</ele><time>2026-05-01T13:12:19Z</time></trkpt><trkpt lat="40.05949275523196" lon="9.368821703577275"><ele>1113.0</ele><time>2026-05-01T13:12:20Z</time></trkpt><trkpt lat="40.05961194732014" lon="9.368787366090938"><ele>1113.0</ele><time>2026-05-01T13:12:21Z</time></trkpt><trkpt lat="40.0597260939702" lon="9.368784429221433"><ele>1113.0</ele><time>2026-05-01T13:12:22Z</time></trkpt><trkpt lat="40.059826929469146" lon="9.368838414222528"><ele>1113.0</ele><time>2026-05-01T13:12:23Z</time></trkpt><trkpt lat="40.059918477227626" lon="9.36893102089217"><ele>1113.0</ele><time>2026-05-01T13:12:24Z</time></trkpt><trkpt lat="40.060013567709966" lon="9.369043089497197"><ele>1115.0</ele><time>2026-05-01T13:12:25Z</time></trkpt><trkpt lat="40.06007402386725" lon="9.369187112364786"><ele>1117.0</ele><time>2026-05-01T13:12:26Z</time></trkpt><trkpt lat="40.06013125547051" lon="9.369379472604155"><ele>1119.0</ele><time>2026-05-01T13:12:27Z</time></trkpt><trkpt lat="40.060209622582825" lon="9.369530976693946"><ele>1121.0</ele><time>2026-05-01T13:12:28Z</time></trkpt><trkpt lat="40.06028416462677" lon="9.369676935312151"><ele>1124.5</ele><time>2026-05-01T13:12:29Z</time></trkpt><trkpt lat="40.06037223462365" lon="9.369786036087133"><ele>1128.0</ele><time>2026-05-01T13:12:30Z</time></trkpt><trkpt lat="40.060479530042365" lon="9.36984840897591"><ele>1131.5</ele><time>2026-05-01T13:12:31Z</time></trkpt><trkpt lat="40.060602310269154" lon="9.369867973999382"><ele>1135.0</ele><time>2026-05-01T13:12:32Z</time></trkpt><trkpt lat="40.060739556995955" lon="9.369884281661937"><ele>1133.5</ele><time>2026-05-01T13:12:33Z</time></trkpt><trkpt lat="40.06087006493094" lon="9.369939206609823"><ele>1132.0</ele><time>2026-05-01T13:12:34Z</time></trkpt><trkpt lat="40.06099937833433" lon="9.370013759107175"><ele>1130.5</ele><time>2026-05-01T13:12:35Z</time></trkpt><trkpt lat="40.06111871031767" lon="9.37012415738509"><ele>1129.0</ele><time>2026-05-01T13:12:36Z</time></trkpt><trkpt lat="40.06123167867208" lon="9.370257401138351"><ele>1129.0</ele><time>2026-05-01T13:12:37Z</time></trkpt><trkpt lat="40.06132993836517" lon="9.370421868680065"><ele>1129.0</ele><time>2026-05-01T13:12:38Z</time></trkpt><trkpt lat="40.061451486389586" lon="9.370561740524318"><ele>1129.0</ele><time>2026-05-01T13:12:39Z</time></trkpt><trkpt lat="40.06154559863649" lon="9.370731515341628"><ele>1130.5</ele><time>2026-05-01T13:12:40Z</time></trkpt><trkpt lat="40.06162600839218" lon="9.370884977131386"><ele>1132.0</ele><time>2026-05-01T13:12:41Z</time></trkpt><trkpt lat="40.061684342258346" lon="9.371022302298561"><ele>1133.5</ele><time>2026-05-01T13:12:42Z</time></trkpt><trkpt lat="40.06175031627954" lon="9.371148385159596"><ele>1135.0</ele><time>2026-05-01T13:12:43Z</time></trkpt><trkpt lat="40.061808062908206" lon="9.371266885431213"><ele>1135.0</ele><time>2026-05-01T13:12:44Z</time></trkpt><trkpt lat="40.06189948170709" lon="9.371350545444121"><ele>1135.0</ele><time>2026-05-01T13:12:45Z</time></trkpt><trkpt lat="40.06202126685325" lon="9.37139967536662"><ele>1135.0</ele><time>2026-05-01T13:12:46Z</time></trkpt><trkpt lat="40.06215310562136" lon="9.371398734543567"><ele>1135.0</ele><time>2026-05-01T13:12:47Z</time></trkpt><trkpt lat="40.06226397395591" lon="9.371342576767779"><ele>1135.0</ele><time>2026-05-01T13:12:48Z</time></trkpt><trkpt lat="40.062357719924634" lon="9.371248105471604"><ele>1135.0</ele><time>2026-05-01T13:12:49Z</time></trkpt><trkpt lat="40.06244519439752" lon="9.371117847878084"><ele>1135.0</ele><time>2026-05-01T13:12:50Z</time></trkpt><trkpt lat="40.06253316208079" lon="9.371004501589686"><ele>1135.0</ele><time>2026-05-01T13:12:51Z</time></trkpt><trkpt lat="40.06262305057454" lon="9.370931260209188"><ele>1135.0</ele><time>2026-05-01T13:12:52Z</time></trkpt><trkpt lat="40.06272568488925" lon="9.370936879990284"><ele>1135.0</ele><time>2026-05-01T13:12:53Z</time></trkpt><trkpt lat="40.06282387397286" lon="9.370974448107694"><ele>1135.0</ele><time>2026-05-01T13:12:54Z</time></trkpt><trkpt lat="40.062904114215485" lon="9.371090095752352"><ele>1135.0</ele><time>2026-05-01T13:12:55Z</time></trkpt><trkpt lat="40.06301057417493" lon="9.371193770572178"><ele>1135.0</ele><time>2026-05-01T13:12:56Z</time></trkpt><trkpt lat="40.063107744644455" lon="9.37132992647349"><ele>1135.0</ele><time>2026-05-01T13:12:57Z</time></trkpt><trkpt lat="40.06321379710099" lon="9.37147391023278"><ele>1135.0</ele><time>2026-05-01T13:12:58Z</time></trkpt><trkpt lat="40.063325278742205" lon="9.37162429435256"><ele>1139.0</ele><time>2026-05-01T13:12:59Z</time></trkpt><trkpt lat="40.06344397386727" lon="9.37177360190296"><ele>1143.0</ele><time>2026-05-01T13:13:00Z</time></trkpt><trkpt lat="40.063563887507584" lon="9.371920012926044"><ele>1147.0</ele><time>2026-05-01T13:13:01Z</time></trkpt><trkpt lat="40.063687939203234" lon="9.372061038035696"><ele>1147.0</ele><time>2026-05-01T13:13:02Z</time></trkpt><trkpt lat="40.06379263874737" lon="9.372185492565137"><ele>1147.0</ele><time>2026-05-01T13:13:03Z</time></trkpt><trkpt lat="40.06388946676259" lon="9.372291957457431"><ele>1147.0</ele><time>2026-05-01T13:13:04Z</time></trkpt><trkpt lat="40.06399042139675" lon="9.372345237111263"><ele>1147.0</ele><time>2026-05-01T13:13:05Z</time></trkpt><trkpt lat="40.06409378477185" lon="9.372332954310263"><ele>1146.0</ele><time>2026-05-01T13:13:06Z</time></trkpt><trkpt lat="40.06418197647369" lon="9.372251500418217"><ele>1145.0</ele><time>2026-05-01T13:13:07Z</time></trkpt><trkpt lat="40.06424599476209" lon="9.372125355266387"><ele>1144.0</ele><time>2026-05-01T13:13:08Z</time></trkpt><trkpt lat="40.06430482810735" lon="9.371984849112959"><ele>1143.0</ele><time>2026-05-01T13:13:09Z</time></trkpt><trkpt lat="40.06440617743333" lon="9.371868131828505"><ele>1143.0</ele><time>2026-05-01T13:13:10Z</time></trkpt><trkpt lat="40.064523531974" lon="9.3717521197663"><ele>1143.0</ele><time>2026-05-01T13:13:11Z</time></trkpt><trkpt lat="40.06465243242455" lon="9.371615213545534"><ele>1143.0</ele><time>2026-05-01T13:13:12Z</time></trkpt><trkpt lat="40.06479873705911" lon="9.371497100578745"><ele>1145.0</ele><time>2026-05-01T13:13:13Z</time></trkpt><trkpt lat="40.06495258977488" lon="9.371388041207801"><ele>1147.0</ele><time>2026-05-01T13:13:14Z</time></trkpt><trkpt lat="40.06509896677947" lon="9.371282025435525"><ele>1149.0</ele><time>2026-05-01T13:13:15Z</time></trkpt><trkpt lat="40.065228469022294" lon="9.37115103827476"><ele>1149.0</ele><time>2026-05-01T13:13:16Z</time></trkpt><trkpt lat="40.065314273366894" lon="9.370975373360208"><ele>1149.0</ele><time>2026-05-01T13:13:17Z</time></trkpt><trkpt lat="40.06539592342515" lon="9.370804952389443"><ele>1149.0</ele><time>2026-05-01T13:13:18Z</time></trkpt><trkpt lat="40.06547916430553" lon="9.370659310179532"><ele>1149.0</ele><time>2026-05-01T13:13:19Z</time></trkpt><trkpt lat="40.065562280817645" lon="9.3705478105376"><ele>1149.0</ele><time>2026-05-01T13:13:20Z</time></trkpt><trkpt lat="40.06565332421424" lon="9.370463458926555"><ele>1149.0</ele><time>2026-05-01T13:13:21Z</time></trkpt><trkpt lat="40.065761962158064" lon="9.370390531353944"><ele>1149.0</ele><time>2026-05-01T13:13:22Z</time></trkpt><trkpt lat="40.0658801611425" lon="9.370327083023383"><ele>1149.25</ele><time>2026-05-01T13:13:23Z</time></trkpt><trkpt lat="40.065997669427155" lon="9.370275545975487"><ele>1149.5</ele><time>2026-05-01T13:13:24Z</time></trkpt><trkpt lat="40.066113303287466" lon="9.370239005961526"><ele>1149.75</ele><time>2026-05-01T13:13:25Z</time></trkpt><trkpt lat="40.066224489715765" lon="9.370211969399639"><ele>1150.0</ele><time>2026-05-01T13:13:26Z</time></trkpt><trkpt lat="40.06633209723158" lon="9.370179049757821"><ele>1150.0</ele><time>2026-05-01T13:13:27Z</time></trkpt><trkpt lat="40.066429427916624" lon="9.370123148074642"><ele>1150.0</ele><time>2026-05-01T13:13:28Z</time></trkpt><trkpt lat="40.06651036430165" lon="9.370035264161203"><ele>1150.0</ele><time>2026-05-01T13:13:29Z</time></trkpt><trkpt lat="40.066564041263995" lon="9.369912209403784"><ele>1150.0</ele><time>2026-05-01T13:13:30Z</time></trkpt><trkpt lat="40.066586245706084" lon="9.369763105061152"><ele>1150.0</ele><time>2026-05-01T13:13:31Z</time></trkpt><trkpt lat="40.06659068860628" lon="9.369603553851883"><ele>1147.0</ele><time>2026-05-01T13:13:32Z</time></trkpt><trkpt lat="40.06658902519557" lon="9.369439174273174"><ele>1144.0</ele><time>2026-05-01T13:13:33Z</time></trkpt><trkpt lat="40.0665761039009" lon="9.369272724044258"><ele>1141.0</ele><time>2026-05-01T13:13:34Z</time></trkpt><trkpt lat="40.06655088259649" lon="9.369103986359153"><ele>1138.0</ele><time>2026-05-01T13:13:35Z</time></trkpt><trkpt lat="40.0665199274411" lon="9.368937186909559"><ele>1138.25</ele><time>2026-05-01T13:13:36Z</time></trkpt><trkpt lat="40.06649619865052" lon="9.36877134787841"><ele>1138.5</ele><time>2026-05-01T13:13:37Z</time></trkpt><trkpt lat="40.06649100423473" lon="9.368607227535598"><ele>1138.75</ele><time>2026-05-01T13:13:38Z</time></trkpt><trkpt lat="40.06650155605614" lon="9.368444879068656"><ele>1139.0</ele><time>2026-05-01T13:13:39Z</time></trkpt><trkpt lat="40.06652794196949" lon="9.368287626335498"><ele>1139.0</ele><time>2026-05-01T13:13:40Z</time></trkpt><trkpt lat="40.06656608866833" lon="9.368132178573784"><ele>1139.0</ele><time>2026-05-01T13:13:41Z</time></trkpt><trkpt lat="40.06662445187867" lon="9.367985595788141"><ele>1139.0</ele><time>2026-05-01T13:13:42Z</time></trkpt><trkpt lat="40.06669090554429" lon="9.367847911224006"><ele>1139.0</ele><time>2026-05-01T13:13:43Z</time></trkpt><trkpt lat="40.06676749739624" lon="9.367724330266103"><ele>1146.25</ele><time>2026-05-01T13:13:44Z</time></trkpt><trkpt lat="40.06685662636986" lon="9.367618518373574"><ele>1153.5</ele><time>2026-05-01T13:13:45Z</time></trkpt><trkpt lat="40.06695542928254" lon="9.367530442109354"><ele>1160.75</ele><time>2026-05-01T13:13:46Z</time></trkpt><trkpt lat="40.06705743327923" lon="9.3674471367562"><ele>1168.0</ele><time>2026-05-01T13:13:47Z</time></trkpt><trkpt lat="40.067171065661384" lon="9.3673813057505"><ele>1168.0</ele><time>2026-05-01T13:13:48Z</time></trkpt><trkpt lat="40.06729291667451" lon="9.36733862708933"><ele>1168.0</ele><time>2026-05-01T13:13:49Z</time></trkpt><trkpt lat="40.06742495127945" lon="9.367331181864115"><ele>1168.0</ele><time>2026-05-01T13:13:50Z</time></trkpt><trkpt lat="40.06756107632015" lon="9.36734407041732"><ele>1168.0</ele><time>2026-05-01T13:13:51Z</time></trkpt><trkpt lat="40.067699195158845" lon="9.367338752970774"><ele>1165.0</ele><time>2026-05-01T13:13:52Z</time></trkpt><trkpt lat="40.067839833320875" lon="9.367317100942373"><ele>1162.0</ele><time>2026-05-01T13:13:53Z</time></trkpt><trkpt lat="40.06797894008052" lon="9.367277722958368"><ele>1159.0</ele><time>2026-05-01T13:13:54Z</time></trkpt><trkpt lat="40.0681130283164" lon="9.36721839746184"><ele>1156.0</ele><time>2026-05-01T13:13:55Z</time></trkpt><trkpt lat="40.068239429942096" lon="9.367139648053968"><ele>1159.5</ele><time>2026-05-01T13:13:56Z</time></trkpt><trkpt lat="40.06836290044836" lon="9.36705045198547"><ele>1163.0</ele><time>2026-05-01T13:13:57Z</time></trkpt><trkpt lat="40.06849140024103" lon="9.36696779758251"><ele>1166.5</ele><time>2026-05-01T13:13:58Z</time></trkpt><trkpt lat="40.068624584114836" lon="9.366890930840906"><ele>1170.0</ele><time>2026-05-01T13:13:59Z</time></trkpt><trkpt lat="40.06875918688543" lon="9.366810897858345"><ele>1170.0</ele><time>2026-05-01T13:14:00Z</time></trkpt><trkpt lat="40.0688928336494" lon="9.366723350570535"><ele>1170.0</ele><time>2026-05-01T13:14:01Z</time></trkpt><trkpt lat="40.069025232055374" lon="9.366632615786518"><ele>1170.0</ele><time>2026-05-01T13:14:02Z</time></trkpt><trkpt lat="40.06915319209326" lon="9.3665377466574"><ele>1170.0</ele><time>2026-05-01T13:14:03Z</time></trkpt><trkpt lat="40.069265729839664" lon="9.366441296756157"><ele>1169.6</ele><time>2026-05-01T13:14:04Z</time></trkpt><trkpt lat="40.0693604441876" lon="9.366368581692631"><ele>1169.2</ele><time>2026-05-01T13:14:05Z</time></trkpt><trkpt lat="40.06945123298925" lon="9.36635074882252"><ele>1168.8</ele><time>2026-05-01T13:14:06Z</time></trkpt><trkpt lat="40.06954656438778" lon="9.36639784523654"><ele>1168.4</ele><time>2026-05-01T13:14:07Z</time></trkpt><trkpt lat="40.0696455204169" lon="9.366480513356551"><ele>1168.0</ele><time>2026-05-01T13:14:08Z</time></trkpt><trkpt lat="40.06974194766403" lon="9.366595913571674"><ele>1174.6666666666665</ele><time>2026-05-01T13:14:09Z</time></trkpt><trkpt lat="40.06983298553307" lon="9.366756083693085"><ele>1181.3333333333333</ele><time>2026-05-01T13:14:10Z</time></trkpt><trkpt lat="40.06990164066438" lon="9.366957633863677"><ele>1188.0</ele><time>2026-05-01T13:14:11Z</time></trkpt><trkpt lat="40.06998697067042" lon="9.367166903960053"><ele>1194.0</ele><time>2026-05-01T13:14:12Z</time></trkpt><trkpt lat="40.07009285607128" lon="9.367372000675523"><ele>1200.0</ele><time>2026-05-01T13:14:13Z</time></trkpt><trkpt lat="40.07018020853854" lon="9.36757390597209"><ele>1206.0</ele><time>2026-05-01T13:14:14Z</time></trkpt><trkpt lat="40.07024232366452" lon="9.367760268396205"><ele>1206.0</ele><time>2026-05-01T13:14:15Z</time></trkpt><trkpt lat="40.070266711207346" lon="9.36793171443198"><ele>1206.0</ele><time>2026-05-01T13:14:16Z</time></trkpt><trkpt lat="40.07029360663413" lon="9.368082805773934"><ele>1206.0</ele><time>2026-05-01T13:14:17Z</time></trkpt><trkpt lat="40.07036343012719" lon="9.368210969267592"><ele>1206.0</ele><time>2026-05-01T13:14:18Z</time></trkpt><trkpt lat="40.07047381697935" lon="9.368293310151268"><ele>1206.5</ele><time>2026-05-01T13:14:19Z</time></trkpt><trkpt lat="40.070593241918004" lon="9.368319237581655"><ele>1207.0</ele><time>2026-05-01T13:14:20Z</time></trkpt><trkpt lat="40.070699157099355" lon="9.368313719858255"><ele>1207.5</ele><time>2026-05-01T13:14:21Z</time></trkpt><trkpt lat="40.07080680713333" lon="9.36830048457948"><ele>1208.0</ele><time>2026-05-01T13:14:22Z</time></trkpt><trkpt lat="40.07092616547016" lon="9.368261665312842"><ele>1208.0</ele><time>2026-05-01T13:14:23Z</time></trkpt><trkpt lat="40.07105057158499" lon="9.368196532627207"><ele>1208.0</ele><time>2026-05-01T13:14:24Z</time></trkpt><trkpt lat="40.071175538348044" lon="9.368131948766779"><ele>1208.0</ele><time>2026-05-01T13:14:25Z</time></trkpt><trkpt lat="40.07129879531384" lon="9.368072082359367"><ele>1208.0</ele><time>2026-05-01T13:14:26Z</time></trkpt><trkpt lat="40.07141280006378" lon="9.367986959754178"><ele>1207.75</ele><time>2026-05-01T13:14:27Z</time></trkpt><trkpt lat="40.07151379250165" lon="9.367869381193632"><ele>1207.5</ele><time>2026-05-01T13:14:28Z</time></trkpt><trkpt lat="40.07160543696209" lon="9.367725743816463"><ele>1207.25</ele><time>2026-05-01T13:14:29Z</time></trkpt><trkpt lat="40.07169876863141" lon="9.367554965225128"><ele>1207.0</ele><time>2026-05-01T13:14:30Z</time></trkpt><trkpt lat="40.07180188253814" lon="9.367383044158144"><ele>1207.0</ele><time>2026-05-01T13:14:31Z</time></trkpt><trkpt lat="40.071896591331154" lon="9.367203519526598"><ele>1207.0</ele><time>2026-05-01T13:14:32Z</time></trkpt><trkpt lat="40.07196483457643" lon="9.36699619596062"><ele>1207.0</ele><time>2026-05-01T13:14:33Z</time></trkpt><trkpt lat="40.07201599603784" lon="9.366776459452504"><ele>1203.6666666666665</ele><time>2026-05-01T13:14:34Z</time></trkpt><trkpt lat="40.07208043033748" lon="9.366574462474052"><ele>1200.3333333333333</ele><time>2026-05-01T13:14:35Z</time></trkpt><trkpt lat="40.072165579380986" lon="9.366406274591679"><ele>1197.0</ele><time>2026-05-01T13:14:36Z</time></trkpt><trkpt lat="40.07227337046189" lon="9.36624732000285"><ele>1192.0</ele><time>2026-05-01T13:14:37Z</time></trkpt><trkpt lat="40.0723932987096" lon="9.366093321906957"><ele>1187.0</ele><time>2026-05-01T13:14:38Z</time></trkpt><trkpt lat="40.07249091175774" lon="9.365940058070725"><ele>1182.0</ele><time>2026-05-01T13:14:39Z</time></trkpt><trkpt lat="40.07260469831601" lon="9.365782299133121"><ele>1187.6666666666667</ele><time>2026-05-01T13:14:40Z</time></trkpt><trkpt lat="40.07271067611147" lon="9.365608699210371"><ele>1193.3333333333335</ele><time>2026-05-01T13:14:41Z</time></trkpt><trkpt lat="40.07281349474811" lon="9.365427088346022"><ele>1199.0</ele><time>2026-05-01T13:14:42Z</time></trkpt><trkpt lat="40.07291809472687" lon="9.365240067483715"><ele>1199.0</ele><time>2026-05-01T13:14:43Z</time></trkpt><trkpt lat="40.07302331863616" lon="9.365051624598138"><ele>1199.0</ele><time>2026-05-01T13:14:44Z</time></trkpt><trkpt lat="40.07313122015928" lon="9.36486333839415"><ele>1199.0</ele><time>2026-05-01T13:14:45Z</time></trkpt><trkpt lat="40.073244258241274" lon="9.364684995498424"><ele>1204.0</ele><time>2026-05-01T13:14:46Z</time></trkpt><trkpt lat="40.07335063946024" lon="9.364530398692967"><ele>1209.0</ele><time>2026-05-01T13:14:47Z</time></trkpt><trkpt lat="40.07344892405227" lon="9.364392392544694"><ele>1214.0</ele><time>2026-05-01T13:14:48Z</time></trkpt><trkpt lat="40.073537772810525" lon="9.364255226612903"><ele>1219.0</ele><time>2026-05-01T13:14:49Z</time></trkpt><trkpt lat="40.07359661105732" lon="9.364115606024122"><ele>1219.0</ele><time>2026-05-01T13:14:50Z</time></trkpt><trkpt lat="40.073635429707" lon="9.363957142549772"><ele>1219.0</ele><time>2026-05-01T13:14:51Z</time></trkpt><trkpt lat="40.073652612576446" lon="9.36378284096913"><ele>1219.0</ele><time>2026-05-01T13:14:52Z</time></trkpt><trkpt lat="40.07364726420062" lon="9.363602144431011"><ele>1219.0</ele><time>2026-05-01T13:14:53Z</time></trkpt><trkpt lat="40.073621941554016" lon="9.363429997619503"><ele>1219.0</ele><time>2026-05-01T13:14:54Z</time></trkpt><trkpt lat="40.07360531182621" lon="9.363261892669097"><ele>1219.0</ele><time>2026-05-01T13:14:55Z</time></trkpt><trkpt lat="40.07359410114662" lon="9.363104952808571"><ele>1219.0</ele><time>2026-05-01T13:14:56Z</time></trkpt><trkpt lat="40.07359337236709" lon="9.362971782648351"><ele>1219.0</ele><time>2026-05-01T13:14:57Z</time></trkpt><trkpt lat="40.07360388986794" lon="9.362842323666966"><ele>1219.0</ele><time>2026-05-01T13:14:58Z</time></trkpt><trkpt lat="40.07362139410967" lon="9.362711850684917"><ele>1219.0</ele><time>2026-05-01T13:14:59Z</time></trkpt><trkpt lat="40.07365430358948" lon="9.362582703884465"><ele>1219.0</ele><time>2026-05-01T13:15:00Z</time></trkpt><trkpt lat="40.07372102694135" lon="9.362466422262164"><ele>1219.0</ele><time>2026-05-01T13:15:01Z</time></trkpt><trkpt lat="40.07379745220037" lon="9.362354511292212"><ele>1219.0</ele><time>2026-05-01T13:15:02Z</time></trkpt><trkpt lat="40.07389569674494" lon="9.362268577441668"><ele>1219.0</ele><time>2026-05-01T13:15:03Z</time></trkpt><trkpt lat="40.07400397773298" lon="9.362206284866124"><ele>1219.0</ele><time>2026-05-01T13:15:04Z</time></trkpt><trkpt lat="40.07411800666426" lon="9.36217889923374"><ele>1219.0</ele><time>2026-05-01T13:15:05Z</time></trkpt><trkpt lat="40.07422772356951" lon="9.362167534783415"><ele>1219.0</ele><time>2026-05-01T13:15:06Z</time></trkpt><trkpt lat="40.07432303792692" lon="9.362120727826692"><ele>1219.0</ele><time>2026-05-01T13:15:07Z</time></trkpt><trkpt lat="40.07439303334141" lon="9.362015736325258"><ele>1221.5</ele><time>2026-05-01T13:15:08Z</time></trkpt><trkpt lat="40.074444790831116" lon="9.361899605783462"><ele>1224.0</ele><time>2026-05-01T13:15:09Z</time></trkpt><trkpt lat="40.074461756266075" lon="9.361734776803168"><ele>1226.5</ele><time>2026-05-01T13:15:10Z</time></trkpt><trkpt lat="40.0744727192677" lon="9.361579355861094"><ele>1229.0</ele><time>2026-05-01T13:15:11Z</time></trkpt><trkpt lat="40.07446808624473" lon="9.361426050420578"><ele>1229.2</ele><time>2026-05-01T13:15:12Z</time></trkpt><trkpt lat="40.07443697717767" lon="9.361278617276964"><ele>1229.4</ele><time>2026-05-01T13:15:13Z</time></trkpt><trkpt lat="40.074400676814115" lon="9.361144197482625"><ele>1229.6</ele><time>2026-05-01T13:15:14Z</time></trkpt><trkpt lat="40.07438405940134" lon="9.361018860039511"><ele>1229.8</ele><time>2026-05-01T13:15:15Z</time></trkpt><trkpt lat="40.07439387825045" lon="9.360897903528846"><ele>1230.0</ele><time>2026-05-01T13:15:16Z</time></trkpt><trkpt lat="40.07441555849728" lon="9.36078093091542"><ele>1230.0</ele><time>2026-05-01T13:15:17Z</time></trkpt><trkpt lat="40.074441540018434" lon="9.360667671345805"><ele>1230.0</ele><time>2026-05-01T13:15:18Z</time></trkpt><trkpt lat="40.07446239210403" lon="9.360555453402498"><ele>1230.0</ele><time>2026-05-01T13:15:19Z</time></trkpt><trkpt lat="40.07448587093218" lon="9.360445106744622"><ele>1230.0</ele><time>2026-05-01T13:15:20Z</time></trkpt><trkpt lat="40.074508757053216" lon="9.360336395051426"><ele>1230.0</ele><time>2026-05-01T13:15:21Z</time></trkpt><trkpt lat="40.0745240332842" lon="9.360223740413414"><ele>1230.0</ele><time>2026-05-01T13:15:22Z</time></trkpt><trkpt lat="40.074533882598004" lon="9.360117836415919"><ele>1230.5</ele><time>2026-05-01T13:15:23Z</time></trkpt><trkpt lat="40.074538678257284" lon="9.36002261555665"><ele>1231.0</ele><time>2026-05-01T13:15:24Z</time></trkpt><trkpt lat="40.074547731223525" lon="9.359884661775121"><ele>1231.5</ele><time>2026-05-01T13:15:26Z</time></trkpt><trkpt lat="40.07454901959254" lon="9.359794728169812"><ele>1232.0</ele><time>2026-05-01T13:15:28Z</time></trkpt><trkpt lat="40.07457072274023" lon="9.359701346403334"><ele>1232.5</ele><time>2026-05-01T13:15:31Z</time></trkpt><trkpt lat="40.07458668554653" lon="9.359594133675103"><ele>1233.0</ele><time>2026-05-01T13:20:28Z</time></trkpt><trkpt lat="40.07464514980423" lon="9.359461332183914"><ele>1235.6666666666667</ele><time>2026-05-01T13:20:31Z</time></trkpt><trkpt lat="40.07474133999791" lon="9.359356485714969"><ele>1238.3333333333333</ele><time>2026-05-01T13:20:33Z</time></trkpt><trkpt lat="40.07479690918911" lon="9.359312444431032"><ele>1241.0</ele><time>2026-05-01T13:20:34Z</time></trkpt><trkpt lat="40.0748544040356" lon="9.359272808565063"><ele>1243.6666666666665</ele><time>2026-05-01T13:20:35Z</time></trkpt><trkpt lat="40.0749117847279" lon="9.359237286809073"><ele>1246.3333333333333</ele><time>2026-05-01T13:20:36Z</time></trkpt><trkpt lat="40.07496893658827" lon="9.359198584124021"><ele>1249.0</ele><time>2026-05-01T13:20:37Z</time></trkpt><trkpt lat="40.07507374888631" lon="9.35911971489169"><ele>1249.0</ele><time>2026-05-01T13:20:39Z</time></trkpt><trkpt lat="40.0751549702122" lon="9.35902364277157"><ele>1249.0</ele><time>2026-05-01T13:20:41Z</time></trkpt><trkpt lat="40.07520386724853" lon="9.358931773953467"><ele>1249.0</ele><time>2026-05-01T13:20:43Z</time></trkpt><trkpt lat="40.07524975863396" lon="9.358841061782982"><ele>1249.0</ele><time>2026-05-01T13:20:45Z</time></trkpt><trkpt lat="40.0752768151895" lon="9.358665408962102"><ele>1249.0</ele><time>2026-05-01T13:20:47Z</time></trkpt><trkpt lat="40.07530007184716" lon="9.358570451286688"><ele>1249.4</ele><time>2026-05-01T13:20:48Z</time></trkpt><trkpt lat="40.07532673192973" lon="9.358461597309523"><ele>1249.8000000000002</ele><time>2026-05-01T13:20:49Z</time></trkpt><trkpt lat="40.07535503369256" lon="9.358349586756207"><ele>1250.1999999999998</ele><time>2026-05-01T13:20:50Z</time></trkpt><trkpt lat="40.0753881250633" lon="9.35823754943853"><ele>1250.6</ele><time>2026-05-01T13:20:51Z</time></trkpt><trkpt lat="40.07541774952738" lon="9.358117713994924"><ele>1251.0</ele><time>2026-05-01T13:20:52Z</time></trkpt><trkpt lat="40.075466412361195" lon="9.357998106061256"><ele>1253.8</ele><time>2026-05-01T13:20:53Z</time></trkpt><trkpt lat="40.07552243688119" lon="9.357881218882687"><ele>1256.6</ele><time>2026-05-01T13:20:54Z</time></trkpt><trkpt lat="40.07556698572317" lon="9.357750491581445"><ele>1259.4</ele><time>2026-05-01T13:20:55Z</time></trkpt><trkpt lat="40.075618454729394" lon="9.35761981909769"><ele>1262.2</ele><time>2026-05-01T13:20:56Z</time></trkpt><trkpt lat="40.075669934984305" lon="9.357485406717563"><ele>1265.0</ele><time>2026-05-01T13:20:57Z</time></trkpt><trkpt lat="40.07572191023295" lon="9.357354736096566"><ele>1260.4</ele><time>2026-05-01T13:20:58Z</time></trkpt><trkpt lat="40.0757722447078" lon="9.357226638883152"><ele>1255.8</ele><time>2026-05-01T13:20:59Z</time></trkpt><trkpt lat="40.07581572575009" lon="9.357106040077625"><ele>1251.2</ele><time>2026-05-01T13:21:00Z</time></trkpt><trkpt lat="40.07586278604873" lon="9.356987956191553"><ele>1246.6</ele><time>2026-05-01T13:21:01Z</time></trkpt><trkpt lat="40.075906160984346" lon="9.356873237987573"><ele>1242.0</ele><time>2026-05-01T13:21:02Z</time></trkpt><trkpt lat="40.07595174413358" lon="9.35676379015996"><ele>1242.0</ele><time>2026-05-01T13:21:03Z</time></trkpt><trkpt lat="40.07599562930975" lon="9.35666082817548"><ele>1242.0</ele><time>2026-05-01T13:21:04Z</time></trkpt><trkpt lat="40.07604279954152" lon="9.356561490493949"><ele>1242.0</ele><time>2026-05-01T13:21:05Z</time></trkpt><trkpt lat="40.07609289247951" lon="9.356458909482955"><ele>1242.0</ele><time>2026-05-01T13:21:06Z</time></trkpt><trkpt lat="40.07615476667348" lon="9.356362828594309"><ele>1242.0</ele><time>2026-05-01T13:21:07Z</time></trkpt><trkpt lat="40.0762259084203" lon="9.356276047324169"><ele>1240.2</ele><time>2026-05-01T13:21:08Z</time></trkpt><trkpt lat="40.07630458597632" lon="9.356198379681329"><ele>1238.4</ele><time>2026-05-01T13:21:09Z</time></trkpt><trkpt lat="40.07639269165836" lon="9.35612895596734"><ele>1236.6</ele><time>2026-05-01T13:21:10Z</time></trkpt><trkpt lat="40.07649129622552" lon="9.356062450015056"><ele>1234.8</ele><time>2026-05-01T13:21:11Z</time></trkpt><trkpt lat="40.07659966953795" lon="9.355994524546022"><ele>1233.0</ele><time>2026-05-01T13:21:12Z</time></trkpt><trkpt lat="40.07671672882537" lon="9.355916562216045"><ele>1233.0</ele><time>2026-05-01T13:21:13Z</time></trkpt><trkpt lat="40.076850463008476" lon="9.35583487469071"><ele>1233.0</ele><time>2026-05-01T13:21:14Z</time></trkpt><trkpt lat="40.07698743210595" lon="9.355748155415547"><ele>1233.0</ele><time>2026-05-01T13:21:15Z</time></trkpt><trkpt lat="40.07712718061251" lon="9.355665548335049"><ele>1233.0</ele><time>2026-05-01T13:21:16Z</time></trkpt><trkpt lat="40.07726288939984" lon="9.355610775500862"><ele>1233.0</ele><time>2026-05-01T13:21:17Z</time></trkpt><trkpt lat="40.07740615078851" lon="9.355578860748109"><ele>1233.0</ele><time>2026-05-01T13:21:18Z</time></trkpt><trkpt lat="40.07755669309003" lon="9.355585718109674"><ele>1233.0</ele><time>2026-05-01T13:21:19Z</time></trkpt><trkpt lat="40.07771456995421" lon="9.355602722194707"><ele>1228.0</ele><time>2026-05-01T13:21:20Z</time></trkpt><trkpt lat="40.07787530545386" lon="9.355605153719557"><ele>1223.0</ele><time>2026-05-01T13:21:21Z</time></trkpt><trkpt lat="40.078037837174755" lon="9.355585074267418"><ele>1218.0</ele><time>2026-05-01T13:21:22Z</time></trkpt><trkpt lat="40.07819448616292" lon="9.355538258461722"><ele>1222.0</ele><time>2026-05-01T13:21:23Z</time></trkpt><trkpt lat="40.07833809345711" lon="9.355469664023254"><ele>1226.0</ele><time>2026-05-01T13:21:24Z</time></trkpt><trkpt lat="40.07847050650871" lon="9.355385258495534"><ele>1230.0</ele><time>2026-05-01T13:21:25Z</time></trkpt><trkpt lat="40.07859718731405" lon="9.355279481944773"><ele>1230.0</ele><time>2026-05-01T13:21:26Z</time></trkpt><trkpt lat="40.07871517768494" lon="9.355152264155988"><ele>1230.0</ele><time>2026-05-01T13:21:27Z</time></trkpt><trkpt lat="40.078826772975724" lon="9.355012863870197"><ele>1230.0</ele><time>2026-05-01T13:21:28Z</time></trkpt><trkpt lat="40.0789376097963" lon="9.35487017103438"><ele>1230.0</ele><time>2026-05-01T13:21:29Z</time></trkpt><trkpt lat="40.07904658576734" lon="9.35472714547684"><ele>1230.0</ele><time>2026-05-01T13:21:30Z</time></trkpt><trkpt lat="40.07915006880876" lon="9.354589125383503"><ele>1230.0</ele><time>2026-05-01T13:21:31Z</time></trkpt><trkpt lat="40.079250414998505" lon="9.354459149968287"><ele>1230.0</ele><time>2026-05-01T13:21:32Z</time></trkpt><trkpt lat="40.07934813223915" lon="9.354338359946452"><ele>1227.75</ele><time>2026-05-01T13:21:33Z</time></trkpt><trkpt lat="40.079449545581184" lon="9.354226985598405"><ele>1225.5</ele><time>2026-05-01T13:21:34Z</time></trkpt><trkpt lat="40.07955575772822" lon="9.354143077086732"><ele>1223.25</ele><time>2026-05-01T13:21:35Z</time></trkpt><trkpt lat="40.07967027014572" lon="9.354089373755693"><ele>1221.0</ele><time>2026-05-01T13:21:36Z</time></trkpt><trkpt lat="40.079783778284174" lon="9.354054928531479"><ele>1221.0</ele><time>2026-05-01T13:21:37Z</time></trkpt><trkpt lat="40.07989770552147" lon="9.353998491548069"><ele>1221.0</ele><time>2026-05-01T13:21:38Z</time></trkpt><trkpt lat="40.0799920698539" lon="9.353903071775708"><ele>1221.0</ele><time>2026-05-01T13:21:39Z</time></trkpt><trkpt lat="40.080078075095884" lon="9.353773841679754"><ele>1221.0</ele><time>2026-05-01T13:21:40Z</time></trkpt><trkpt lat="40.08016665757359" lon="9.35364547951625"><ele>1219.75</ele><time>2026-05-01T13:21:41Z</time></trkpt><trkpt lat="40.08026174664162" lon="9.353521626557336"><ele>1218.5</ele><time>2026-05-01T13:21:42Z</time></trkpt><trkpt lat="40.080359447525275" lon="9.353395910484325"><ele>1217.25</ele><time>2026-05-01T13:21:43Z</time></trkpt><trkpt lat="40.080454793513745" lon="9.353266493025876"><ele>1216.0</ele><time>2026-05-01T13:21:44Z</time></trkpt><trkpt lat="40.08053391202557" lon="9.35312961876453"><ele>1218.5</ele><time>2026-05-01T13:21:45Z</time></trkpt><trkpt lat="40.080598083888404" lon="9.352978837050458"><ele>1221.0</ele><time>2026-05-01T13:21:46Z</time></trkpt><trkpt lat="40.08064843007234" lon="9.352822109053003"><ele>1223.5</ele><time>2026-05-01T13:21:47Z</time></trkpt><trkpt lat="40.08068174728023" lon="9.352667403138188"><ele>1226.0</ele><time>2026-05-01T13:21:48Z</time></trkpt><trkpt lat="40.0806870926171" lon="9.352517396698417"><ele>1226.0</ele><time>2026-05-01T13:21:49Z</time></trkpt><trkpt lat="40.080676072090164" lon="9.352367491535496"><ele>1226.0</ele><time>2026-05-01T13:21:50Z</time></trkpt><trkpt lat="40.08063919990466" lon="9.352222185179617"><ele>1226.0</ele><time>2026-05-01T13:21:51Z</time></trkpt><trkpt lat="40.08059229529095" lon="9.352076265545943"><ele>1226.0</ele><time>2026-05-01T13:21:52Z</time></trkpt><trkpt lat="40.080547875864326" lon="9.351925356053314"><ele>1223.5</ele><time>2026-05-01T13:21:53Z</time></trkpt><trkpt lat="40.08052286710094" lon="9.3517623708928"><ele>1221.0</ele><time>2026-05-01T13:21:54Z</time></trkpt><trkpt lat="40.080467185580034" lon="9.351601418827078"><ele>1218.5</ele><time>2026-05-01T13:21:55Z</time></trkpt><trkpt lat="40.08043411170269" lon="9.351437289651352"><ele>1216.0</ele><time>2026-05-01T13:21:56Z</time></trkpt><trkpt lat="40.08040265837136" lon="9.351282082328382"><ele>1214.0</ele><time>2026-05-01T13:21:57Z</time></trkpt><trkpt lat="40.08036918431741" lon="9.351134395643076"><ele>1212.0</ele><time>2026-05-01T13:21:58Z</time></trkpt><trkpt lat="40.080338737497584" lon="9.350993050917204"><ele>1210.0</ele><time>2026-05-01T13:21:59Z</time></trkpt><trkpt lat="40.08032414086649" lon="9.35085275753639"><ele>1208.0</ele><time>2026-05-01T13:22:00Z</time></trkpt><trkpt lat="40.08034001669002" lon="9.35070772936484"><ele>1208.0</ele><time>2026-05-01T13:22:01Z</time></trkpt><trkpt lat="40.080394168164496" lon="9.350579296888418"><ele>1208.0</ele><time>2026-05-01T13:22:02Z</time></trkpt><trkpt lat="40.08047588842128" lon="9.35049063871342"><ele>1208.0</ele><time>2026-05-01T13:22:03Z</time></trkpt><trkpt lat="40.080569458261365" lon="9.35043999840398"><ele>1208.0</ele><time>2026-05-01T13:22:04Z</time></trkpt><trkpt lat="40.0806769868837" lon="9.350425420653126"><ele>1208.0</ele><time>2026-05-01T13:22:05Z</time></trkpt><trkpt lat="40.08078676616824" lon="9.350443138621527"><ele>1204.6</ele><time>2026-05-01T13:22:06Z</time></trkpt><trkpt lat="40.08090637168007" lon="9.35045774699061"><ele>1201.1999999999998</ele><time>2026-05-01T13:22:07Z</time></trkpt><trkpt lat="40.08102001569354" lon="9.350437722659763"><ele>1197.8</ele><time>2026-05-01T13:22:08Z</time></trkpt><trkpt lat="40.081110360897824" lon="9.350359542993253"><ele>1194.3999999999999</ele><time>2026-05-01T13:22:09Z</time></trkpt><trkpt lat="40.08114414119124" lon="9.350237363973184"><ele>1191.0</ele><time>2026-05-01T13:22:10Z</time></trkpt><trkpt lat="40.08116224810714" lon="9.350097238907635"><ele>1191.0</ele><time>2026-05-01T13:22:11Z</time></trkpt><trkpt lat="40.08116544982143" lon="9.349957366018412"><ele>1191.0</ele><time>2026-05-01T13:22:12Z</time></trkpt><trkpt lat="40.0812043329403" lon="9.349820222686573"><ele>1191.0</ele><time>2026-05-01T13:22:13Z</time></trkpt><trkpt lat="40.08126595733109" lon="9.349682868452115"><ele>1191.0</ele><time>2026-05-01T13:22:14Z</time></trkpt><trkpt lat="40.0813544607268" lon="9.34955406820099"><ele>1195.0</ele><time>2026-05-01T13:22:15Z</time></trkpt><trkpt lat="40.0814594631605" lon="9.349437567941061"><ele>1199.0</ele><time>2026-05-01T13:22:16Z</time></trkpt><trkpt lat="40.08155830070651" lon="9.349326263744317"><ele>1203.0</ele><time>2026-05-01T13:22:17Z</time></trkpt><trkpt lat="40.0816495611235" lon="9.3492132036812"><ele>1207.0</ele><time>2026-05-01T13:22:18Z</time></trkpt><trkpt lat="40.081753858957654" lon="9.34914314849059"><ele>1198.75</ele><time>2026-05-01T13:22:19Z</time></trkpt><trkpt lat="40.081860232408495" lon="9.349091921409416"><ele>1190.5</ele><time>2026-05-01T13:22:20Z</time></trkpt><trkpt lat="40.0819593018362" lon="9.349029829327458"><ele>1182.25</ele><time>2026-05-01T13:22:21Z</time></trkpt><trkpt lat="40.08206894645013" lon="9.348999852276615"><ele>1174.0</ele><time>2026-05-01T13:22:22Z</time></trkpt><trkpt lat="40.08218246478277" lon="9.348966151046808"><ele>1174.0</ele><time>2026-05-01T13:22:23Z</time></trkpt><trkpt lat="40.08228597256924" lon="9.348921727615549"><ele>1174.0</ele><time>2026-05-01T13:22:24Z</time></trkpt><trkpt lat="40.08236638645819" lon="9.348852329875612"><ele>1174.0</ele><time>2026-05-01T13:22:25Z</time></trkpt><trkpt lat="40.08242750343916" lon="9.348734095991855"><ele>1174.0</ele><time>2026-05-01T13:22:26Z</time></trkpt><trkpt lat="40.08245416534809" lon="9.348596193177755"><ele>1174.0</ele><time>2026-05-01T13:22:27Z</time></trkpt><trkpt lat="40.08246934267723" lon="9.348450846517611"><ele>1171.0</ele><time>2026-05-01T13:22:28Z</time></trkpt><trkpt lat="40.08248001131668" lon="9.348301320702728"><ele>1168.0</ele><time>2026-05-01T13:22:29Z</time></trkpt><trkpt lat="40.08248966298988" lon="9.348144785698105"><ele>1165.0</ele><time>2026-05-01T13:22:30Z</time></trkpt><trkpt lat="40.082485187393" lon="9.347986832055685"><ele>1162.0</ele><time>2026-05-01T13:22:31Z</time></trkpt><trkpt lat="40.08246109578887" lon="9.347829568125254"><ele>1169.4</ele><time>2026-05-01T13:22:32Z</time></trkpt><trkpt lat="40.08242316687305" lon="9.347681840068079"><ele>1176.8000000000002</ele><time>2026-05-01T13:22:33Z</time></trkpt><trkpt lat="40.08238512883951" lon="9.347548385728553"><ele>1184.2</ele><time>2026-05-01T13:22:34Z</time></trkpt><trkpt lat="40.08235807821402" lon="9.347419286620116"><ele>1191.6000000000001</ele><time>2026-05-01T13:22:35Z</time></trkpt><trkpt lat="40.08236171459505" lon="9.347296485547313"><ele>1199.0</ele><time>2026-05-01T13:22:36Z</time></trkpt><trkpt lat="40.08240692694761" lon="9.347171721504555"><ele>1195.2</ele><time>2026-05-01T13:22:37Z</time></trkpt><trkpt lat="40.08248667273721" lon="9.347084915818472"><ele>1191.4</ele><time>2026-05-01T13:22:38Z</time></trkpt><trkpt lat="40.08259138131162" lon="9.34703583022445"><ele>1187.6</ele><time>2026-05-01T13:22:39Z</time></trkpt><trkpt lat="40.08269329506578" lon="9.347027338872177"><ele>1183.8</ele><time>2026-05-01T13:22:40Z</time></trkpt><trkpt lat="40.08277553533016" lon="9.347112935987537"><ele>1180.0</ele><time>2026-05-01T13:22:41Z</time></trkpt><trkpt lat="40.08287457694615" lon="9.34716783111811"><ele>1177.6</ele><time>2026-05-01T13:22:42Z</time></trkpt><trkpt lat="40.08296992588931" lon="9.347243496026643"><ele>1175.2</ele><time>2026-05-01T13:22:43Z</time></trkpt><trkpt lat="40.08306772002627" lon="9.347284165037482"><ele>1172.8</ele><time>2026-05-01T13:22:44Z</time></trkpt><trkpt lat="40.0831684978717" lon="9.347278775026053"><ele>1170.4</ele><time>2026-05-01T13:22:45Z</time></trkpt><trkpt lat="40.0832620816519" lon="9.347213187498786"><ele>1168.0</ele><time>2026-05-01T13:22:46Z</time></trkpt><trkpt lat="40.083343323920644" lon="9.347117684393403"><ele>1168.0</ele><time>2026-05-01T13:22:47Z</time></trkpt><trkpt lat="40.08341868723602" lon="9.347012173355512"><ele>1168.0</ele><time>2026-05-01T13:22:48Z</time></trkpt><trkpt lat="40.08349828452656" lon="9.346899610600252"><ele>1168.0</ele><time>2026-05-01T13:22:49Z</time></trkpt><trkpt lat="40.08358495495723" lon="9.34679426167377"><ele>1168.0</ele><time>2026-05-01T13:22:50Z</time></trkpt><trkpt lat="40.08368193741918" lon="9.346705475304228"><ele>1168.0</ele><time>2026-05-01T13:22:51Z</time></trkpt><trkpt lat="40.08379457452452" lon="9.346638145979309"><ele>1168.0</ele><time>2026-05-01T13:22:52Z</time></trkpt><trkpt lat="40.083920863359545" lon="9.34660100880213"><ele>1168.0</ele><time>2026-05-01T13:22:53Z</time></trkpt><trkpt lat="40.08405435416665" lon="9.346598961243439"><ele>1168.0</ele><time>2026-05-01T13:22:54Z</time></trkpt><trkpt lat="40.08419652171128" lon="9.346626593847292"><ele>1162.75</ele><time>2026-05-01T13:22:55Z</time></trkpt><trkpt lat="40.08434261061226" lon="9.346679101322264"><ele>1157.5</ele><time>2026-05-01T13:22:56Z</time></trkpt><trkpt lat="40.084482486791046" lon="9.346694255139196"><ele>1152.25</ele><time>2026-05-01T13:22:57Z</time></trkpt><trkpt lat="40.084635882534556" lon="9.346712973371675"><ele>1147.0</ele><time>2026-05-01T13:22:58Z</time></trkpt><trkpt lat="40.08476732817974" lon="9.346747195787545"><ele>1147.0</ele><time>2026-05-01T13:22:59Z</time></trkpt><trkpt lat="40.08486971779892" lon="9.34677454198763"><ele>1147.0</ele><time>2026-05-01T13:23:00Z</time></trkpt><trkpt lat="40.08496208778529" lon="9.346733408058942"><ele>1147.0</ele><time>2026-05-01T13:23:01Z</time></trkpt><trkpt lat="40.085018635122665" lon="9.346624306320672"><ele>1147.0</ele><time>2026-05-01T13:23:02Z</time></trkpt><trkpt lat="40.08506575342813" lon="9.346505533008026"><ele>1147.0</ele><time>2026-05-01T13:23:03Z</time></trkpt><trkpt lat="40.085041268666096" lon="9.346336757748421"><ele>1150.3333333333333</ele><time>2026-05-01T13:23:04Z</time></trkpt><trkpt lat="40.085032351185276" lon="9.346140165957486"><ele>1153.6666666666667</ele><time>2026-05-01T13:23:05Z</time></trkpt><trkpt lat="40.08498931088026" lon="9.345933327124806"><ele>1157.0</ele><time>2026-05-01T13:23:06Z</time></trkpt><trkpt lat="40.08492504145799" lon="9.345750890185261"><ele>1157.0</ele><time>2026-05-01T13:23:07Z</time></trkpt><trkpt lat="40.08480951438805" lon="9.345609525210321"><ele>1157.0</ele><time>2026-05-01T13:23:08Z</time></trkpt><trkpt lat="40.08468813869396" lon="9.345456274054166"><ele>1157.0</ele><time>2026-05-01T13:23:09Z</time></trkpt><trkpt lat="40.08455819281905" lon="9.345316994662477"><ele>1152.3333333333335</ele><time>2026-05-01T13:23:10Z</time></trkpt><trkpt lat="40.08444462051696" lon="9.345159346917756"><ele>1147.6666666666667</ele><time>2026-05-01T13:23:11Z</time></trkpt><trkpt lat="40.08431841877788" lon="9.34501886880618"><ele>1143.0</ele><time>2026-05-01T13:23:12Z</time></trkpt><trkpt lat="40.08418290189986" lon="9.344890522121794"><ele>1146.3333333333333</ele><time>2026-05-01T13:23:13Z</time></trkpt><trkpt lat="40.08404417572207" lon="9.34475930099085"><ele>1149.6666666666665</ele><time>2026-05-01T13:23:14Z</time></trkpt><trkpt lat="40.083955829735345" lon="9.344578962051024"><ele>1153.0</ele><time>2026-05-01T13:23:15Z</time></trkpt><trkpt lat="40.08385654438824" lon="9.34438984611312"><ele>1153.0</ele><time>2026-05-01T13:23:16Z</time></trkpt><trkpt lat="40.083747553747145" lon="9.34419047883582"><ele>1153.0</ele><time>2026-05-01T13:23:17Z</time></trkpt><trkpt lat="40.083642363658704" lon="9.343995057121868"><ele>1153.0</ele><time>2026-05-01T13:23:18Z</time></trkpt><trkpt lat="40.083543111948735" lon="9.34379556771835"><ele>1148.3333333333333</ele><time>2026-05-01T13:23:19Z</time></trkpt><trkpt lat="40.08346923020384" lon="9.343589434439576"><ele>1143.6666666666667</ele><time>2026-05-01T13:23:20Z</time></trkpt><trkpt lat="40.08341253149694" lon="9.343372568827217"><ele>1139.0</ele><time>2026-05-01T13:23:21Z</time></trkpt><trkpt lat="40.083355532474734" lon="9.343140117788188"><ele>1134.6666666666667</ele><time>2026-05-01T13:23:22Z</time></trkpt><trkpt lat="40.083297856153834" lon="9.342904904628899"><ele>1130.3333333333333</ele><time>2026-05-01T13:23:23Z</time></trkpt><trkpt lat="40.08323610170521" lon="9.342653148724805"><ele>1126.0</ele><time>2026-05-01T13:23:24Z</time></trkpt><trkpt lat="40.08317748070484" lon="9.342414938766275"><ele>1133.3333333333333</ele><time>2026-05-01T13:23:25Z</time></trkpt><trkpt lat="40.083119154557785" lon="9.342173116123984"><ele>1140.6666666666667</ele><time>2026-05-01T13:23:26Z</time></trkpt><trkpt lat="40.08306919100474" lon="9.34192808465833"><ele>1148.0</ele><time>2026-05-01T13:23:27Z</time></trkpt><trkpt lat="40.08302588979353" lon="9.341684941687078"><ele>1148.0</ele><time>2026-05-01T13:23:28Z</time></trkpt><trkpt lat="40.0829942297298" lon="9.34144838686622"><ele>1148.0</ele><time>2026-05-01T13:23:29Z</time></trkpt><trkpt lat="40.08294494074216" lon="9.341208834943755"><ele>1148.0</ele><time>2026-05-01T13:23:30Z</time></trkpt><trkpt lat="40.08288739824476" lon="9.340980654527469"><ele>1144.3333333333335</ele><time>2026-05-01T13:23:31Z</time></trkpt><trkpt lat="40.08281957045527" lon="9.340760131386945"><ele>1140.6666666666667</ele><time>2026-05-01T13:23:32Z</time></trkpt><trkpt lat="40.08272078159754" lon="9.340556712776467"><ele>1137.0</ele><time>2026-05-01T13:23:33Z</time></trkpt><trkpt lat="40.08262336815421" lon="9.340361187133022"><ele>1139.3333333333333</ele><time>2026-05-01T13:23:34Z</time></trkpt><trkpt lat="40.082535367579176" lon="9.34016769358895"><ele>1141.6666666666665</ele><time>2026-05-01T13:23:35Z</time></trkpt><trkpt lat="40.0824519451866" lon="9.339984287532184"><ele>1144.0</ele><time>2026-05-01T13:23:36Z</time></trkpt><trkpt lat="40.08236380132958" lon="9.339811795154885"><ele>1141.25</ele><time>2026-05-01T13:23:37Z</time></trkpt><trkpt lat="40.0822798511456" lon="9.339702467742704"><ele>1138.5</ele><time>2026-05-01T13:23:38Z</time></trkpt><trkpt lat="40.082154707531025" lon="9.33964337467994"><ele>1135.75</ele><time>2026-05-01T13:23:39Z</time></trkpt><trkpt lat="40.08204437488269" lon="9.339590262856314"><ele>1133.0</ele><time>2026-05-01T13:23:40Z</time></trkpt><trkpt lat="40.08196416891979" lon="9.339519596530435"><ele>1133.0</ele><time>2026-05-01T13:23:41Z</time></trkpt><trkpt lat="40.081921244410374" lon="9.339413006203037"><ele>1133.0</ele><time>2026-05-01T13:23:42Z</time></trkpt><trkpt lat="40.081917235665124" lon="9.339282787642466"><ele>1133.0</ele><time>2026-05-01T13:23:43Z</time></trkpt><trkpt lat="40.08194436057387" lon="9.33913611383842"><ele>1133.0</ele><time>2026-05-01T13:23:44Z</time></trkpt><trkpt lat="40.08201055216388" lon="9.339019821199045"><ele>1133.0</ele><time>2026-05-01T13:23:45Z</time></trkpt><trkpt lat="40.08210505632737" lon="9.338953710815666"><ele>1133.0</ele><time>2026-05-01T13:23:46Z</time></trkpt><trkpt lat="40.0822222239117" lon="9.338940694256841"><ele>1133.0</ele><time>2026-05-01T13:23:47Z</time></trkpt><trkpt lat="40.082363864483455" lon="9.338962954987814"><ele>1133.0</ele><time>2026-05-01T13:23:48Z</time></trkpt><trkpt lat="40.082514880014" lon="9.338983430496587"><ele>1133.0</ele><time>2026-05-01T13:23:49Z</time></trkpt><trkpt lat="40.08269086608102" lon="9.3390096372136"><ele>1130.3333333333335</ele><time>2026-05-01T13:23:50Z</time></trkpt><trkpt lat="40.08287091690617" lon="9.33899627200257"><ele>1127.6666666666667</ele><time>2026-05-01T13:23:51Z</time></trkpt><trkpt lat="40.08303981506728" lon="9.338935216664758"><ele>1125.0</ele><time>2026-05-01T13:23:52Z</time></trkpt><trkpt lat="40.08320582742946" lon="9.338894782279034"><ele>1124.75</ele><time>2026-05-01T13:23:53Z</time></trkpt><trkpt lat="40.08334741344881" lon="9.338908288141218"><ele>1124.5</ele><time>2026-05-01T13:23:54Z</time></trkpt><trkpt lat="40.0834606596855" lon="9.339007755735508"><ele>1124.25</ele><time>2026-05-01T13:23:55Z</time></trkpt><trkpt lat="40.08358305348742" lon="9.339112999504971"><ele>1124.0</ele><time>2026-05-01T13:23:56Z</time></trkpt><trkpt lat="40.083711684410915" lon="9.339172663391711"><ele>1124.0</ele><time>2026-05-01T13:23:57Z</time></trkpt><trkpt lat="40.08383431747108" lon="9.339146127524096"><ele>1124.0</ele><time>2026-05-01T13:23:58Z</time></trkpt><trkpt lat="40.083969503811105" lon="9.33909460346977"><ele>1124.0</ele><time>2026-05-01T13:23:59Z</time></trkpt><trkpt lat="40.08412015940056" lon="9.33906132494225"><ele>1124.0</ele><time>2026-05-01T13:24:00Z</time></trkpt><trkpt lat="40.08427872857496" lon="9.339126006495276"><ele>1127.3333333333335</ele><time>2026-05-01T13:24:01Z</time></trkpt><trkpt lat="40.0844373564812" lon="9.33922688014881"><ele>1130.6666666666667</ele><time>2026-05-01T13:24:02Z</time></trkpt><trkpt lat="40.08459601473705" lon="9.3394083942085"><ele>1134.0</ele><time>2026-05-01T13:24:03Z</time></trkpt><trkpt lat="40.08475059310178" lon="9.339605155673087"><ele>1132.6666666666667</ele><time>2026-05-01T13:24:04Z</time></trkpt><trkpt lat="40.08488852486706" lon="9.339794099113368"><ele>1131.3333333333335</ele><time>2026-05-01T13:24:05Z</time></trkpt><trkpt lat="40.085040216590905" lon="9.339929933205164"><ele>1130.0</ele><time>2026-05-01T13:24:06Z</time></trkpt><trkpt lat="40.08519225637353" lon="9.339975595161382"><ele>1130.0</ele><time>2026-05-01T13:24:07Z</time></trkpt><trkpt lat="40.08534753438583" lon="9.34000742686101"><ele>1130.0</ele><time>2026-05-01T13:24:08Z</time></trkpt><trkpt lat="40.08549011405813" lon="9.340007140081838"><ele>1130.0</ele><time>2026-05-01T13:24:09Z</time></trkpt><trkpt lat="40.08558763659035" lon="9.339938957957552"><ele>1130.0</ele><time>2026-05-01T13:24:10Z</time></trkpt><trkpt lat="40.08565932248397" lon="9.339820273383474"><ele>1135.0</ele><time>2026-05-01T13:24:11Z</time></trkpt><trkpt lat="40.0856886935932" lon="9.33964687445541"><ele>1140.0</ele><time>2026-05-01T13:24:12Z</time></trkpt><trkpt lat="40.085668838192056" lon="9.339468134114389"><ele>1145.0</ele><time>2026-05-01T13:24:13Z</time></trkpt><trkpt lat="40.08560240374472" lon="9.339303685161994"><ele>1150.0</ele><time>2026-05-01T13:24:14Z</time></trkpt><trkpt lat="40.085591209360075" lon="9.339143650221711"><ele>1150.0</ele><time>2026-05-01T13:24:15Z</time></trkpt><trkpt lat="40.085645719560326" lon="9.339023559595018"><ele>1150.0</ele><time>2026-05-01T13:24:16Z</time></trkpt><trkpt lat="40.08573966537752" lon="9.338933577749206"><ele>1150.0</ele><time>2026-05-01T13:24:17Z</time></trkpt><trkpt lat="40.085860416521584" lon="9.338846059275841"><ele>1150.0</ele><time>2026-05-01T13:24:18Z</time></trkpt><trkpt lat="40.085962060347484" lon="9.338775652042955"><ele>1151.8333333333333</ele><time>2026-05-01T13:24:19Z</time></trkpt><trkpt lat="40.08603449962364" lon="9.338726591006617"><ele>1153.6666666666665</ele><time>2026-05-01T13:24:20Z</time></trkpt><trkpt lat="40.08610449786234" lon="9.338684812308735"><ele>1155.5</ele><time>2026-05-01T13:24:21Z</time></trkpt><trkpt lat="40.0861843478398" lon="9.338662604789034"><ele>1157.3333333333333</ele><time>2026-05-01T13:24:22Z</time></trkpt><trkpt lat="40.08627509658717" lon="9.338671055501385"><ele>1159.1666666666667</ele><time>2026-05-01T13:24:23Z</time></trkpt><trkpt lat="40.0863666839796" lon="9.338703515686065"><ele>1161.0</ele><time>2026-05-01T13:24:24Z</time></trkpt><trkpt lat="40.08647033152522" lon="9.338744356746394"><ele>1161.0</ele><time>2026-05-01T13:24:25Z</time></trkpt><trkpt lat="40.08657771228239" lon="9.338798988459565"><ele>1161.0</ele><time>2026-05-01T13:24:26Z</time></trkpt><trkpt lat="40.0866879478288" lon="9.338882432597902"><ele>1161.0</ele><time>2026-05-01T13:24:27Z</time></trkpt><trkpt lat="40.08678590453865" lon="9.33902703740065"><ele>1161.0</ele><time>2026-05-01T13:24:28Z</time></trkpt><trkpt lat="40.086877192768945" lon="9.339198959616423"><ele>1153.0</ele><time>2026-05-01T13:24:29Z</time></trkpt><trkpt lat="40.086974417757844" lon="9.339356035779922"><ele>1145.0</ele><time>2026-05-01T13:24:30Z</time></trkpt><trkpt lat="40.08709806141344" lon="9.33949126558059"><ele>1137.0</ele><time>2026-05-01T13:24:31Z</time></trkpt><trkpt lat="40.087245935993444" lon="9.339556238762984"><ele>1137.0</ele><time>2026-05-01T13:24:32Z</time></trkpt><trkpt lat="40.08738934005969" lon="9.339590466118066"><ele>1137.0</ele><time>2026-05-01T13:24:33Z</time></trkpt><trkpt lat="40.087513315799015" lon="9.33959275772591"><ele>1137.0</ele><time>2026-05-01T13:24:34Z</time></trkpt><trkpt lat="40.08762944242381" lon="9.339570368908841"><ele>1137.0</ele><time>2026-05-01T13:24:35Z</time></trkpt><trkpt lat="40.08774678492419" lon="9.339509518889976"><ele>1140.6</ele><time>2026-05-01T13:24:36Z</time></trkpt><trkpt lat="40.08786075522983" lon="9.3394369036184"><ele>1144.2</ele><time>2026-05-01T13:24:37Z</time></trkpt><trkpt lat="40.08796675578392" lon="9.339376316973675"><ele>1147.8</ele><time>2026-05-01T13:24:38Z</time></trkpt><trkpt lat="40.08806226889975" lon="9.339360924855587"><ele>1151.4</ele><time>2026-05-01T13:24:39Z</time></trkpt><trkpt lat="40.08816975775004" lon="9.33936970277072"><ele>1155.0</ele><time>2026-05-01T13:24:40Z</time></trkpt><trkpt lat="40.088274108004136" lon="9.339410383882907"><ele>1155.8</ele><time>2026-05-01T13:24:41Z</time></trkpt><trkpt lat="40.08837239389475" lon="9.339455221980032"><ele>1156.6</ele><time>2026-05-01T13:24:42Z</time></trkpt><trkpt lat="40.088472419561555" lon="9.33949995794571"><ele>1157.4</ele><time>2026-05-01T13:24:43Z</time></trkpt><trkpt lat="40.08857569540193" lon="9.339529091169972"><ele>1158.2</ele><time>2026-05-01T13:24:44Z</time></trkpt><trkpt lat="40.08867532906379" lon="9.339553752442365"><ele>1159.0</ele><time>2026-05-01T13:24:45Z</time></trkpt><trkpt lat="40.08875579127357" lon="9.339576079960262"><ele>1159.0</ele><time>2026-05-01T13:24:46Z</time></trkpt><trkpt lat="40.088831291827745" lon="9.339614326402954"><ele>1159.0</ele><time>2026-05-01T13:24:47Z</time></trkpt><trkpt lat="40.088880597821195" lon="9.339705421371331"><ele>1159.0</ele><time>2026-05-01T13:24:48Z</time></trkpt><trkpt lat="40.08890390431827" lon="9.339838672640662"><ele>1159.0</ele><time>2026-05-01T13:24:49Z</time></trkpt><trkpt lat="40.08891297306161" lon="9.340011656160142"><ele>1159.0</ele><time>2026-05-01T13:24:50Z</time></trkpt><trkpt lat="40.088921337884784" lon="9.340188704137628"><ele>1155.75</ele><time>2026-05-01T13:24:51Z</time></trkpt><trkpt lat="40.088937237018364" lon="9.3403684765655"><ele>1152.5</ele><time>2026-05-01T13:24:52Z</time></trkpt><trkpt lat="40.08899394484675" lon="9.340543803760001"><ele>1149.25</ele><time>2026-05-01T13:24:53Z</time></trkpt><trkpt lat="40.08906213328369" lon="9.340731302702286"><ele>1146.0</ele><time>2026-05-01T13:24:54Z</time></trkpt><trkpt lat="40.08913654326462" lon="9.340925753758638"><ele>1146.0</ele><time>2026-05-01T13:24:55Z</time></trkpt><trkpt lat="40.08921354689886" lon="9.341116191596374"><ele>1146.0</ele><time>2026-05-01T13:24:56Z</time></trkpt><trkpt lat="40.089325584670625" lon="9.341281457181546"><ele>1146.0</ele><time>2026-05-01T13:24:57Z</time></trkpt><trkpt lat="40.089431250990366" lon="9.341377725849817"><ele>1139.6666666666667</ele><time>2026-05-01T13:24:58Z</time></trkpt><trkpt lat="40.089571386297074" lon="9.341447124940045"><ele>1133.3333333333335</ele><time>2026-05-01T13:24:59Z</time></trkpt><trkpt lat="40.08973516005927" lon="9.341472424005241"><ele>1127.0</ele><time>2026-05-01T13:25:00Z</time></trkpt><trkpt lat="40.08990248327386" lon="9.34148415745853"><ele>1131.0</ele><time>2026-05-01T13:25:01Z</time></trkpt><trkpt lat="40.090071045009324" lon="9.341492403331616"><ele>1135.0</ele><time>2026-05-01T13:25:02Z</time></trkpt><trkpt lat="40.09024015567192" lon="9.34148610592297"><ele>1139.0</ele><time>2026-05-01T13:25:03Z</time></trkpt><trkpt lat="40.09038733003456" lon="9.341455458222686"><ele>1139.0</ele><time>2026-05-01T13:25:04Z</time></trkpt><trkpt lat="40.09053389743966" lon="9.341458693504995"><ele>1139.0</ele><time>2026-05-01T13:25:05Z</time></trkpt><trkpt lat="40.09067771681262" lon="9.34149855275538"><ele>1139.0</ele><time>2026-05-01T13:25:06Z</time></trkpt><trkpt lat="40.09077610730736" lon="9.341616911791332"><ele>1139.0</ele><time>2026-05-01T13:25:07Z</time></trkpt><trkpt lat="40.09084361856833" lon="9.341775849997601"><ele>1138.3333333333335</ele><time>2026-05-01T13:25:08Z</time></trkpt><trkpt lat="40.090907292789694" lon="9.341942109789407"><ele>1137.6666666666667</ele><time>2026-05-01T13:25:09Z</time></trkpt><trkpt lat="40.090986462520995" lon="9.342118809042386"><ele>1137.0</ele><time>2026-05-01T13:25:10Z</time></trkpt><trkpt lat="40.09107935839103" lon="9.342311248747674"><ele>1137.0</ele><time>2026-05-01T13:25:11Z</time></trkpt><trkpt lat="40.09117688104205" lon="9.34248215538519"><ele>1137.0</ele><time>2026-05-01T13:25:12Z</time></trkpt><trkpt lat="40.091298567675146" lon="9.342617115076242"><ele>1137.0</ele><time>2026-05-01T13:25:13Z</time></trkpt><trkpt lat="40.091426906781074" lon="9.342728086700177"><ele>1137.0</ele><time>2026-05-01T13:25:14Z</time></trkpt><trkpt lat="40.09155299660493" lon="9.342796709032879"><ele>1137.0</ele><time>2026-05-01T13:25:15Z</time></trkpt><trkpt lat="40.091654837622606" lon="9.342804592458846"><ele>1137.0</ele><time>2026-05-01T13:25:16Z</time></trkpt><trkpt lat="40.09176114472514" lon="9.342751015724179"><ele>1137.0</ele><time>2026-05-01T13:25:17Z</time></trkpt><trkpt lat="40.091840899785645" lon="9.34263089437127"><ele>1139.5</ele><time>2026-05-01T13:25:18Z</time></trkpt><trkpt lat="40.09189048543793" lon="9.342478094789199"><ele>1142.0</ele><time>2026-05-01T13:25:19Z</time></trkpt><trkpt lat="40.09190622099627" lon="9.342288812432523"><ele>1144.5</ele><time>2026-05-01T13:25:20Z</time></trkpt><trkpt lat="40.09194385397477" lon="9.342082575692501"><ele>1147.0</ele><time>2026-05-01T13:25:21Z</time></trkpt><trkpt lat="40.091988632957126" lon="9.341860659615486"><ele>1150.0</ele><time>2026-05-01T13:25:22Z</time></trkpt><trkpt lat="40.092041492453305" lon="9.341657699598999"><ele>1153.0</ele><time>2026-05-01T13:25:23Z</time></trkpt><trkpt lat="40.09214586856865" lon="9.341530211147251"><ele>1156.0</ele><time>2026-05-01T13:25:24Z</time></trkpt><trkpt lat="40.09225290119194" lon="9.341453176438165"><ele>1159.0</ele><time>2026-05-01T13:25:25Z</time></trkpt><trkpt lat="40.092394643551884" lon="9.341404267801469"><ele>1152.6666666666665</ele><time>2026-05-01T13:25:26Z</time></trkpt><trkpt lat="40.09255907550249" lon="9.341382722744447"><ele>1146.3333333333333</ele><time>2026-05-01T13:25:27Z</time></trkpt><trkpt lat="40.09275303103758" lon="9.341388747468232"><ele>1140.0</ele><time>2026-05-01T13:25:28Z</time></trkpt><trkpt lat="40.09292376454472" lon="9.341426735179807"><ele>1140.0</ele><time>2026-05-01T13:25:29Z</time></trkpt><trkpt lat="40.09308465001895" lon="9.341398123779912"><ele>1140.0</ele><time>2026-05-01T13:25:30Z</time></trkpt><trkpt lat="40.0932279470998" lon="9.341407230195582"><ele>1140.0</ele><time>2026-05-01T13:25:31Z</time></trkpt><trkpt lat="40.09334809010675" lon="9.34132737267402"><ele>1140.0</ele><time>2026-05-01T13:25:32Z</time></trkpt><trkpt lat="40.0934662278158" lon="9.341194547663164"><ele>1143.0</ele><time>2026-05-01T13:25:33Z</time></trkpt><trkpt lat="40.09356258842111" lon="9.3410339128132"><ele>1146.0</ele><time>2026-05-01T13:25:34Z</time></trkpt><trkpt lat="40.09365898277765" lon="9.340846508633103"><ele>1149.0</ele><time>2026-05-01T13:25:35Z</time></trkpt><trkpt lat="40.09375329025424" lon="9.340654869166215"><ele>1154.5</ele><time>2026-05-01T13:25:36Z</time></trkpt><trkpt lat="40.09381792705078" lon="9.340460344591083"><ele>1160.0</ele><time>2026-05-01T13:25:37Z</time></trkpt><trkpt lat="40.09388482650745" lon="9.340287879347109"><ele>1165.5</ele><time>2026-05-01T13:25:38Z</time></trkpt><trkpt lat="40.09396330642685" lon="9.340173058297639"><ele>1171.0</ele><time>2026-05-01T13:25:39Z</time></trkpt><trkpt lat="40.09408072706238" lon="9.340162383515379"><ele>1164.25</ele><time>2026-05-01T13:25:40Z</time></trkpt><trkpt lat="40.09420305362673" lon="9.340183717789458"><ele>1157.5</ele><time>2026-05-01T13:25:41Z</time></trkpt><trkpt lat="40.09433735460768" lon="9.3402331269857"><ele>1150.75</ele><time>2026-05-01T13:25:42Z</time></trkpt><trkpt lat="40.094474242188845" lon="9.340269051675975"><ele>1144.0</ele><time>2026-05-01T13:25:43Z</time></trkpt><trkpt lat="40.09459961917799" lon="9.340162187732401"><ele>1144.0</ele><time>2026-05-01T13:25:44Z</time></trkpt><trkpt lat="40.094746227929576" lon="9.340065341219313"><ele>1144.0</ele><time>2026-05-01T13:25:45Z</time></trkpt><trkpt lat="40.09490265983198" lon="9.339958702347015"><ele>1144.0</ele><time>2026-05-01T13:25:46Z</time></trkpt><trkpt lat="40.095057473185896" lon="9.339844910580736"><ele>1145.0</ele><time>2026-05-01T13:25:47Z</time></trkpt><trkpt lat="40.09520232251248" lon="9.33974767103983"><ele>1146.0</ele><time>2026-05-01T13:25:48Z</time></trkpt><trkpt lat="40.09532537903126" lon="9.33959608897694"><ele>1147.0</ele><time>2026-05-01T13:25:49Z</time></trkpt><trkpt lat="40.09542943696435" lon="9.339409492135411"><ele>1147.0</ele><time>2026-05-01T13:25:50Z</time></trkpt><trkpt lat="40.095528038978166" lon="9.339200509295367"><ele>1147.0</ele><time>2026-05-01T13:25:51Z</time></trkpt><trkpt lat="40.095630686034" lon="9.338980891770657"><ele>1147.0</ele><time>2026-05-01T13:25:52Z</time></trkpt><trkpt lat="40.095737080632574" lon="9.338760167054092"><ele>1144.3333333333333</ele><time>2026-05-01T13:25:53Z</time></trkpt><trkpt lat="40.095836451743374" lon="9.338526037419355"><ele>1141.6666666666667</ele><time>2026-05-01T13:25:54Z</time></trkpt><trkpt lat="40.095944482101636" lon="9.338275502428118"><ele>1139.0</ele><time>2026-05-01T13:25:55Z</time></trkpt><trkpt lat="40.09604995407964" lon="9.338014334227502"><ele>1139.0</ele><time>2026-05-01T13:25:56Z</time></trkpt><trkpt lat="40.096136793189245" lon="9.337741566093452"><ele>1139.0</ele><time>2026-05-01T13:25:57Z</time></trkpt><trkpt lat="40.096216049430126" lon="9.337460523283326"><ele>1140.0</ele><time>2026-05-01T13:25:58Z</time></trkpt><trkpt lat="40.09628071501836" lon="9.337180038670764"><ele>1141.0</ele><time>2026-05-01T13:25:59Z</time></trkpt><trkpt lat="40.096342810276994" lon="9.336920675110084"><ele>1142.0</ele><time>2026-05-01T13:26:00Z</time></trkpt><trkpt lat="40.096403052305895" lon="9.336681512695995"><ele>1142.0</ele><time>2026-05-01T13:26:01Z</time></trkpt><trkpt lat="40.09649581953688" lon="9.336480468603146"><ele>1142.0</ele><time>2026-05-01T13:26:02Z</time></trkpt><trkpt lat="40.09659801877487" lon="9.336304465435354"><ele>1142.0</ele><time>2026-05-01T13:26:03Z</time></trkpt><trkpt lat="40.0967074864034" lon="9.336152394854643"><ele>1136.25</ele><time>2026-05-01T13:26:04Z</time></trkpt><trkpt lat="40.096821777635505" lon="9.336022066536446"><ele>1130.5</ele><time>2026-05-01T13:26:05Z</time></trkpt><trkpt lat="40.09690526849662" lon="9.33588839024871"><ele>1124.75</ele><time>2026-05-01T13:26:06Z</time></trkpt><trkpt lat="40.09698542286732" lon="9.335778641121049"><ele>1119.0</ele><time>2026-05-01T13:26:07Z</time></trkpt><trkpt lat="40.097038661562756" lon="9.335667175108233"><ele>1117.75</ele><time>2026-05-01T13:26:08Z</time></trkpt><trkpt lat="40.097069370689766" lon="9.335547119022332"><ele>1116.5</ele><time>2026-05-01T13:26:09Z</time></trkpt><trkpt lat="40.09709246833145" lon="9.335435857106987"><ele>1115.25</ele><time>2026-05-01T13:26:10Z</time></trkpt><trkpt lat="40.09710540980003" lon="9.335329817698911"><ele>1114.0</ele><time>2026-05-01T13:26:12Z</time></trkpt><trkpt lat="40.09727806505011" lon="9.335444515897203"><ele>1114.0</ele><time>2026-05-01T13:26:14Z</time></trkpt><trkpt lat="40.09729961162323" lon="9.335544503771583"><ele>1114.0</ele><time>2026-05-01T13:26:15Z</time></trkpt><trkpt lat="40.0972834209227" lon="9.335664059860562"><ele>1114.0</ele><time>2026-05-01T13:26:16Z</time></trkpt><trkpt lat="40.097188505529125" lon="9.335721859118461"><ele>1114.0</ele><time>2026-05-01T13:26:17Z</time></trkpt><trkpt lat="40.09708878318082" lon="9.335856367062279"><ele>1114.0</ele><time>2026-05-01T13:26:18Z</time></trkpt><trkpt lat="40.096989960150815" lon="9.336022051544235"><ele>1114.3333333333333</ele><time>2026-05-01T13:26:19Z</time></trkpt><trkpt lat="40.096904693080006" lon="9.33621488389116"><ele>1114.6666666666667</ele><time>2026-05-01T13:26:20Z</time></trkpt><trkpt lat="40.09679712122058" lon="9.336405144920514"><ele>1115.0</ele><time>2026-05-01T13:26:21Z</time></trkpt><trkpt lat="40.09669302253887" lon="9.336603823237468"><ele>1115.0</ele><time>2026-05-01T13:26:22Z</time></trkpt><trkpt lat="40.09659175754122" lon="9.336787423763647"><ele>1115.0</ele><time>2026-05-01T13:26:23Z</time></trkpt><trkpt lat="40.09649315604051" lon="9.336969738458416"><ele>1115.0</ele><time>2026-05-01T13:26:24Z</time></trkpt><trkpt lat="40.09642346835505" lon="9.33716669787442"><ele>1123.0</ele><time>2026-05-01T13:26:25Z</time></trkpt><trkpt lat="40.09639220492739" lon="9.337378648307615"><ele>1131.0</ele><time>2026-05-01T13:26:26Z</time></trkpt><trkpt lat="40.096367938602825" lon="9.337598994775172"><ele>1139.0</ele><time>2026-05-01T13:26:27Z</time></trkpt><trkpt lat="40.09633532245577" lon="9.337828174029807"><ele>1136.0</ele><time>2026-05-01T13:26:28Z</time></trkpt><trkpt lat="40.09629418226135" lon="9.338054991701963"><ele>1133.0</ele><time>2026-05-01T13:26:29Z</time></trkpt><trkpt lat="40.096222594679304" lon="9.338270433345405"><ele>1130.0</ele><time>2026-05-01T13:26:30Z</time></trkpt><trkpt lat="40.09617161992001" lon="9.338497399117793"><ele>1130.0</ele><time>2026-05-01T13:26:31Z</time></trkpt><trkpt lat="40.09609298679478" lon="9.338709441043363"><ele>1130.0</ele><time>2026-05-01T13:26:32Z</time></trkpt><trkpt lat="40.09603151110429" lon="9.33892194151737"><ele>1130.0</ele><time>2026-05-01T13:26:33Z</time></trkpt><trkpt lat="40.095963981331494" lon="9.339194491747744"><ele>1125.3333333333335</ele><time>2026-05-01T13:26:34Z</time></trkpt><trkpt lat="40.09591033425747" lon="9.33945073289226"><ele>1120.6666666666667</ele><time>2026-05-01T13:26:35Z</time></trkpt><trkpt lat="40.09585807636819" lon="9.339710706798982"><ele>1116.0</ele><time>2026-05-01T13:26:36Z</time></trkpt><trkpt lat="40.09582466811249" lon="9.339954514258135"><ele>1120.3333333333333</ele><time>2026-05-01T13:26:37Z</time></trkpt><trkpt lat="40.09573596229651" lon="9.340149487926936"><ele>1124.6666666666665</ele><time>2026-05-01T13:26:38Z</time></trkpt><trkpt lat="40.09563302270155" lon="9.340318393750369"><ele>1129.0</ele><time>2026-05-01T13:26:39Z</time></trkpt><trkpt lat="40.09549297887569" lon="9.340464799274113"><ele>1119.3333333333333</ele><time>2026-05-01T13:26:40Z</time></trkpt><trkpt lat="40.0953316907971" lon="9.34063063305738"><ele>1109.6666666666667</ele><time>2026-05-01T13:26:41Z</time></trkpt><trkpt lat="40.0951739460666" lon="9.34079423246354"><ele>1100.0</ele><time>2026-05-01T13:26:42Z</time></trkpt><trkpt lat="40.095034237812804" lon="9.340942093454396"><ele>1104.25</ele><time>2026-05-01T13:26:43Z</time></trkpt><trkpt lat="40.09492004482436" lon="9.341053661101892"><ele>1108.5</ele><time>2026-05-01T13:26:44Z</time></trkpt><trkpt lat="40.09481033283213" lon="9.341128081059301"><ele>1112.75</ele><time>2026-05-01T13:26:45Z</time></trkpt><trkpt lat="40.09468574225108" lon="9.3411171297075"><ele>1117.0</ele><time>2026-05-01T13:26:46Z</time></trkpt><trkpt lat="40.094543115711964" lon="9.341129102842661"><ele>1117.0</ele><time>2026-05-01T13:26:47Z</time></trkpt><trkpt lat="40.094423993538676" lon="9.34118865643501"><ele>1117.0</ele><time>2026-05-01T13:26:48Z</time></trkpt><trkpt lat="40.094335407918116" lon="9.341295136901541"><ele>1117.0</ele><time>2026-05-01T13:26:49Z</time></trkpt><trkpt lat="40.09429728077616" lon="9.341487238553"><ele>1117.0</ele><time>2026-05-01T13:26:50Z</time></trkpt><trkpt lat="40.09427264274413" lon="9.341700806997707"><ele>1110.3333333333333</ele><time>2026-05-01T13:26:51Z</time></trkpt><trkpt lat="40.09424850591023" lon="9.341930726923414"><ele>1103.6666666666667</ele><time>2026-05-01T13:26:52Z</time></trkpt><trkpt lat="40.09421494137917" lon="9.3421649141759"><ele>1097.0</ele><time>2026-05-01T13:26:53Z</time></trkpt><trkpt lat="40.094185557301735" lon="9.342392382434815"><ele>1097.0</ele><time>2026-05-01T13:26:54Z</time></trkpt><trkpt lat="40.094138852161855" lon="9.34259449897432"><ele>1097.0</ele><time>2026-05-01T13:26:55Z</time></trkpt><trkpt lat="40.0940887648989" lon="9.342747926697145"><ele>1097.0</ele><time>2026-05-01T13:26:56Z</time></trkpt><trkpt lat="40.093995143003426" lon="9.342823289260673"><ele>1097.0</ele><time>2026-05-01T13:26:57Z</time></trkpt><trkpt lat="40.09390569506716" lon="9.34285784676082"><ele>1097.0</ele><time>2026-05-01T13:26:58Z</time></trkpt><trkpt lat="40.09379514188506" lon="9.342811085126176"><ele>1097.0</ele><time>2026-05-01T13:26:59Z</time></trkpt><trkpt lat="40.09365742991336" lon="9.342791802082765"><ele>1097.0</ele><time>2026-05-01T13:27:00Z</time></trkpt><trkpt lat="40.09353853034432" lon="9.342791069284466"><ele>1097.0</ele><time>2026-05-01T13:27:01Z</time></trkpt><trkpt lat="40.09343295128202" lon="9.342832487659877"><ele>1097.0</ele><time>2026-05-01T13:27:02Z</time></trkpt><trkpt lat="40.093298298524815" lon="9.34287237991482"><ele>1097.0</ele><time>2026-05-01T13:27:03Z</time></trkpt><trkpt lat="40.09327596344813" lon="9.343047949780336"><ele>1097.0</ele><time>2026-05-01T13:27:04Z</time></trkpt><trkpt lat="40.09320979907337" lon="9.343157732762185"><ele>1097.0</ele><time>2026-05-01T13:27:05Z</time></trkpt><trkpt lat="40.09322286161506" lon="9.34360860932593"><ele>1100.3333333333335</ele><time>2026-05-01T13:27:06Z</time></trkpt><trkpt lat="40.09323466266625" lon="9.343839606334312"><ele>1103.6666666666667</ele><time>2026-05-01T13:27:07Z</time></trkpt><trkpt lat="40.09323995548926" lon="9.344113517725994"><ele>1107.0</ele><time>2026-05-01T13:27:08Z</time></trkpt><trkpt lat="40.09324575751417" lon="9.344404401982711"><ele>1085.5</ele><time>2026-05-01T13:27:09Z</time></trkpt><trkpt lat="40.09325792982281" lon="9.344715765519114"><ele>1064.0</ele><time>2026-05-01T13:27:10Z</time></trkpt><trkpt lat="40.093270978130526" lon="9.345002400851671"><ele>1064.0</ele><time>2026-05-01T13:27:11Z</time></trkpt><trkpt lat="40.0932968270412" lon="9.345282181813719"><ele>1064.0</ele><time>2026-05-01T13:27:12Z</time></trkpt><trkpt lat="40.09333622818259" lon="9.345543265356943"><ele>1064.0</ele><time>2026-05-01T13:27:13Z</time></trkpt><trkpt lat="40.093385479111696" lon="9.345795400419325"><ele>1063.0</ele><time>2026-05-01T13:27:14Z</time></trkpt><trkpt lat="40.093419650509226" lon="9.345998013853114"><ele>1062.0</ele><time>2026-05-01T13:27:15Z</time></trkpt><trkpt lat="40.09340697471339" lon="9.346213985205607"><ele>1061.0</ele><time>2026-05-01T13:27:16Z</time></trkpt><trkpt lat="40.09339076749805" lon="9.34640955872533"><ele>1058.8</ele><time>2026-05-01T13:27:17Z</time></trkpt><trkpt lat="40.093391895623405" lon="9.346575797087455"><ele>1056.6</ele><time>2026-05-01T13:27:18Z</time></trkpt><trkpt lat="40.093405400028836" lon="9.346697544569528"><ele>1054.4</ele><time>2026-05-01T13:27:19Z</time></trkpt><trkpt lat="40.093475373880246" lon="9.346729891290186"><ele>1052.2</ele><time>2026-05-01T13:27:20Z</time></trkpt><trkpt lat="40.0935634229434" lon="9.346769043771356"><ele>1050.0</ele><time>2026-05-01T13:27:21Z</time></trkpt><trkpt lat="40.09365354928967" lon="9.346748022883437"><ele>1050.0</ele><time>2026-05-01T13:27:22Z</time></trkpt><trkpt lat="40.093729639880415" lon="9.346657573059678"><ele>1050.0</ele><time>2026-05-01T13:27:23Z</time></trkpt><trkpt lat="40.09379781001727" lon="9.346527610730812"><ele>1050.0</ele><time>2026-05-01T13:27:24Z</time></trkpt><trkpt lat="40.09383281010368" lon="9.346360081831957"><ele>1050.0</ele><time>2026-05-01T13:27:25Z</time></trkpt><trkpt lat="40.093826973686454" lon="9.34605225209911"><ele>1053.6666666666667</ele><time>2026-05-01T13:27:26Z</time></trkpt><trkpt lat="40.09384106278674" lon="9.345828461652872"><ele>1057.3333333333335</ele><time>2026-05-01T13:27:27Z</time></trkpt><trkpt lat="40.093860925879795" lon="9.345578559795014"><ele>1061.0</ele><time>2026-05-01T13:27:28Z</time></trkpt><trkpt lat="40.09389805714535" lon="9.345331576437111"><ele>1062.0</ele><time>2026-05-01T13:27:29Z</time></trkpt><trkpt lat="40.09390063373643" lon="9.345108173307553"><ele>1063.0</ele><time>2026-05-01T13:27:30Z</time></trkpt><trkpt lat="40.0938803370284" lon="9.344910684549493"><ele>1064.0</ele><time>2026-05-01T13:27:31Z</time></trkpt><trkpt lat="40.09387947174223" lon="9.344745390022513"><ele>1065.2</ele><time>2026-05-01T13:27:32Z</time></trkpt><trkpt lat="40.09389522127487" lon="9.34463084574434"><ele>1066.4</ele><time>2026-05-01T13:27:33Z</time></trkpt><trkpt lat="40.09393325582447" lon="9.344550267092952"><ele>1067.6</ele><time>2026-05-01T13:27:34Z</time></trkpt><trkpt lat="40.09398961079326" lon="9.344492351293294"><ele>1068.8</ele><time>2026-05-01T13:27:35Z</time></trkpt><trkpt lat="40.094114136077614" lon="9.344448605645766"><ele>1070.0</ele><time>2026-05-01T13:27:36Z</time></trkpt><trkpt lat="40.09429017665758" lon="9.3443943891742"><ele>1062.3333333333335</ele><time>2026-05-01T13:27:37Z</time></trkpt><trkpt lat="40.09449386808697" lon="9.34440289620307"><ele>1054.6666666666667</ele><time>2026-05-01T13:27:38Z</time></trkpt><trkpt lat="40.094700759869035" lon="9.344387254066714"><ele>1047.0</ele><time>2026-05-01T13:27:39Z</time></trkpt><trkpt lat="40.094852678668765" lon="9.344327937544056"><ele>1041.3333333333333</ele><time>2026-05-01T13:27:40Z</time></trkpt><trkpt lat="40.09497684440484" lon="9.34425793155598"><ele>1035.6666666666665</ele><time>2026-05-01T13:27:41Z</time></trkpt><trkpt lat="40.095094001765084" lon="9.344123961973454"><ele>1030.0</ele><time>2026-05-01T13:27:42Z</time></trkpt><trkpt lat="40.0951960349086" lon="9.343940125357998"><ele>1034.0</ele><time>2026-05-01T13:27:43Z</time></trkpt><trkpt lat="40.09527786203475" lon="9.34372942414933"><ele>1038.0</ele><time>2026-05-01T13:27:44Z</time></trkpt><trkpt lat="40.09534273242533" lon="9.343530573624736"><ele>1042.0</ele><time>2026-05-01T13:27:45Z</time></trkpt><trkpt lat="40.095419351754316" lon="9.34338860760991"><ele>1042.0</ele><time>2026-05-01T13:27:46Z</time></trkpt><trkpt lat="40.09550789243646" lon="9.343353011397323"><ele>1042.0</ele><time>2026-05-01T13:27:47Z</time></trkpt><trkpt lat="40.09561536695606" lon="9.34336381605318"><ele>1042.0</ele><time>2026-05-01T13:27:48Z</time></trkpt><trkpt lat="40.09572505044643" lon="9.343441998091311"><ele>1042.0</ele><time>2026-05-01T13:27:49Z</time></trkpt><trkpt lat="40.095800286430936" lon="9.343580018952546"><ele>1039.25</ele><time>2026-05-01T13:27:50Z</time></trkpt><trkpt lat="40.09582928741324" lon="9.343744162898819"><ele>1036.5</ele><time>2026-05-01T13:27:51Z</time></trkpt><trkpt lat="40.09588092480422" lon="9.343931915114796"><ele>1033.75</ele><time>2026-05-01T13:27:52Z</time></trkpt><trkpt lat="40.095943939523075" lon="9.344109580836962"><ele>1031.0</ele><time>2026-05-01T13:27:53Z</time></trkpt><trkpt lat="40.09599833251245" lon="9.344286636172429"><ele>1027.25</ele><time>2026-05-01T13:27:54Z</time></trkpt><trkpt lat="40.09608878193897" lon="9.344443023494929"><ele>1023.5</ele><time>2026-05-01T13:27:55Z</time></trkpt><trkpt lat="40.09622015406205" lon="9.344553116057808"><ele>1019.75</ele><time>2026-05-01T13:27:56Z</time></trkpt><trkpt lat="40.096354102151366" lon="9.344569793944228"><ele>1016.0</ele><time>2026-05-01T13:27:57Z</time></trkpt><trkpt lat="40.09650910330149" lon="9.34453647099106"><ele>1015.0</ele><time>2026-05-01T13:27:58Z</time></trkpt><trkpt lat="40.09666883187093" lon="9.34444343115956"><ele>1014.0</ele><time>2026-05-01T13:27:59Z</time></trkpt><trkpt lat="40.09682493321981" lon="9.344305992549419"><ele>1013.0</ele><time>2026-05-01T13:28:00Z</time></trkpt><trkpt lat="40.09698001722895" lon="9.344133713401172"><ele>1013.0</ele><time>2026-05-01T13:28:01Z</time></trkpt><trkpt lat="40.09714509061751" lon="9.343983939627712"><ele>1013.0</ele><time>2026-05-01T13:28:02Z</time></trkpt><trkpt lat="40.097317564189204" lon="9.34389614777818"><ele>1013.0</ele><time>2026-05-01T13:28:03Z</time></trkpt><trkpt lat="40.09743703975196" lon="9.343929543041988"><ele>1009.75</ele><time>2026-05-01T13:28:04Z</time></trkpt><trkpt lat="40.097537324116615" lon="9.343965048422705"><ele>1006.5</ele><time>2026-05-01T13:28:05Z</time></trkpt><trkpt lat="40.097612850029584" lon="9.344066815018971"><ele>1003.25</ele><time>2026-05-01T13:28:06Z</time></trkpt><trkpt lat="40.09770888908963" lon="9.344216385286186"><ele>1000.0</ele><time>2026-05-01T13:28:07Z</time></trkpt><trkpt lat="40.097829803511445" lon="9.344396756975986"><ele>1000.0</ele><time>2026-05-01T13:28:08Z</time></trkpt><trkpt lat="40.09795269141689" lon="9.344508298023062"><ele>1000.0</ele><time>2026-05-01T13:28:09Z</time></trkpt><trkpt lat="40.09808847178157" lon="9.344578971421106"><ele>1000.0</ele><time>2026-05-01T13:28:10Z</time></trkpt><trkpt lat="40.09823803877789" lon="9.344551425686392"><ele>1000.0</ele><time>2026-05-01T13:28:11Z</time></trkpt><trkpt lat="40.09841176533633" lon="9.344511283592244"><ele>999.6666666666666</ele><time>2026-05-01T13:28:12Z</time></trkpt><trkpt lat="40.09860931195853" lon="9.344485944804456"><ele>999.3333333333333</ele><time>2026-05-01T13:28:13Z</time></trkpt><trkpt lat="40.098812726678965" lon="9.344449431984028"><ele>999.0</ele><time>2026-05-01T13:28:14Z</time></trkpt><trkpt lat="40.0990184686198" lon="9.344366743865425"><ele>994.6666666666667</ele><time>2026-05-01T13:28:15Z</time></trkpt><trkpt lat="40.09921706207337" lon="9.344294430963382"><ele>990.3333333333334</ele><time>2026-05-01T13:28:16Z</time></trkpt><trkpt lat="40.09940199191683" lon="9.344226841076607"><ele>986.0</ele><time>2026-05-01T13:28:17Z</time></trkpt><trkpt lat="40.09956090250115" lon="9.344149064231477"><ele>986.0</ele><time>2026-05-01T13:28:18Z</time></trkpt><trkpt lat="40.09970426278696" lon="9.344023747121462"><ele>986.0</ele><time>2026-05-01T13:28:19Z</time></trkpt><trkpt lat="40.09984766836499" lon="9.343849899714451"><ele>986.0</ele><time>2026-05-01T13:28:20Z</time></trkpt><trkpt lat="40.099989316635835" lon="9.343663986292235"><ele>983.3333333333334</ele><time>2026-05-01T13:28:21Z</time></trkpt><trkpt lat="40.10012528686678" lon="9.343498445706999"><ele>980.6666666666667</ele><time>2026-05-01T13:28:22Z</time></trkpt><trkpt lat="40.1002651957692" lon="9.343364733513857"><ele>978.0</ele><time>2026-05-01T13:28:23Z</time></trkpt><trkpt lat="40.100421290844785" lon="9.343317523760428"><ele>978.0</ele><time>2026-05-01T13:28:24Z</time></trkpt><trkpt lat="40.100582993360824" lon="9.343346505136031"><ele>978.0</ele><time>2026-05-01T13:28:25Z</time></trkpt><trkpt lat="40.10077562218718" lon="9.343348491655656"><ele>978.0</ele><time>2026-05-01T13:28:26Z</time></trkpt><trkpt lat="40.10096934436044" lon="9.343328155767912"><ele>975.0</ele><time>2026-05-01T13:28:27Z</time></trkpt><trkpt lat="40.10114743305914" lon="9.343288097817142"><ele>972.0</ele><time>2026-05-01T13:28:28Z</time></trkpt><trkpt lat="40.10133264235453" lon="9.343219564415937"><ele>969.0</ele><time>2026-05-01T13:28:29Z</time></trkpt><trkpt lat="40.10152196665808" lon="9.343152551102913"><ele>968.6666666666667</ele><time>2026-05-01T13:28:30Z</time></trkpt><trkpt lat="40.10171597108292" lon="9.343081968645423"><ele>968.3333333333334</ele><time>2026-05-01T13:28:31Z</time></trkpt><trkpt lat="40.10191866076845" lon="9.343017973849994"><ele>968.0</ele><time>2026-05-01T13:28:32Z</time></trkpt><trkpt lat="40.10212595561493" lon="9.342940955962549"><ele>968.0</ele><time>2026-05-01T13:28:33Z</time></trkpt><trkpt lat="40.1023301418714" lon="9.342877808706346"><ele>968.0</ele><time>2026-05-01T13:28:34Z</time></trkpt><trkpt lat="40.10251340878391" lon="9.342816327578763"><ele>968.0</ele><time>2026-05-01T13:28:35Z</time></trkpt><trkpt lat="40.10266065787053" lon="9.342781455375476"><ele>965.5</ele><time>2026-05-01T13:28:36Z</time></trkpt><trkpt lat="40.10278064890307" lon="9.342787069947086"><ele>963.0</ele><time>2026-05-01T13:28:37Z</time></trkpt><trkpt lat="40.10288365067947" lon="9.342881715216182"><ele>960.5</ele><time>2026-05-01T13:28:38Z</time></trkpt><trkpt lat="40.10297274332255" lon="9.34297629360014"><ele>958.0</ele><time>2026-05-01T13:28:39Z</time></trkpt><trkpt lat="40.10309992369152" lon="9.343269917251844"><ele>957.0</ele><time>2026-05-01T13:28:41Z</time></trkpt><trkpt lat="40.10317373348153" lon="9.343399581056374"><ele>956.0</ele><time>2026-05-01T13:28:42Z</time></trkpt><trkpt lat="40.103220282236926" lon="9.34353810533711"><ele>955.0</ele><time>2026-05-01T13:28:43Z</time></trkpt><trkpt lat="40.10326578430643" lon="9.343637754284233"><ele>954.0</ele><time>2026-05-01T13:28:44Z</time></trkpt><trkpt lat="40.10329500261193" lon="9.343741907558753"><ele>953.0</ele><time>2026-05-01T13:28:45Z</time></trkpt><trkpt lat="40.10331189979287" lon="9.343845632546655"><ele>953.4</ele><time>2026-05-01T13:28:46Z</time></trkpt><trkpt lat="40.103308007820154" lon="9.343966441445774"><ele>953.8</ele><time>2026-05-01T13:28:47Z</time></trkpt><trkpt lat="40.103287776797046" lon="9.34408953665599"><ele>954.2</ele><time>2026-05-01T13:28:48Z</time></trkpt><trkpt lat="40.10323941231001" lon="9.34421325655366"><ele>954.6</ele><time>2026-05-01T13:28:49Z</time></trkpt><trkpt lat="40.10317511830531" lon="9.344352488897034"><ele>955.0</ele><time>2026-05-01T13:28:50Z</time></trkpt><trkpt lat="40.10309998837649" lon="9.344509531098705"><ele>955.3333333333333</ele><time>2026-05-01T13:28:51Z</time></trkpt><trkpt lat="40.10301642685856" lon="9.344677393690771"><ele>955.6666666666667</ele><time>2026-05-01T13:28:52Z</time></trkpt><trkpt lat="40.102910245040405" lon="9.344833478544096"><ele>956.0</ele><time>2026-05-01T13:28:53Z</time></trkpt><trkpt lat="40.10281012621" lon="9.344997474709245"><ele>957.3333333333334</ele><time>2026-05-01T13:28:54Z</time></trkpt><trkpt lat="40.10273820550074" lon="9.345190929597221"><ele>958.6666666666667</ele><time>2026-05-01T13:28:55Z</time></trkpt><trkpt lat="40.10264943009566" lon="9.345364795706077"><ele>960.0</ele><time>2026-05-01T13:28:56Z</time></trkpt><trkpt lat="40.10255994758864" lon="9.34553544685129"><ele>961.25</ele><time>2026-05-01T13:28:57Z</time></trkpt><trkpt lat="40.102482852915564" lon="9.345710664974805"><ele>962.5</ele><time>2026-05-01T13:28:58Z</time></trkpt><trkpt lat="40.10243054114083" lon="9.345883020590152"><ele>963.75</ele><time>2026-05-01T13:28:59Z</time></trkpt><trkpt lat="40.10242327011225" lon="9.34605325961753"><ele>965.0</ele><time>2026-05-01T13:29:00Z</time></trkpt><trkpt lat="40.10244101926988" lon="9.346222670417202"><ele>967.0</ele><time>2026-05-01T13:29:01Z</time></trkpt><trkpt lat="40.102482283941654" lon="9.346380205330334"><ele>969.0</ele><time>2026-05-01T13:29:02Z</time></trkpt><trkpt lat="40.10256042413031" lon="9.346506478539087"><ele>971.0</ele><time>2026-05-01T13:29:03Z</time></trkpt><trkpt lat="40.102645981362606" lon="9.34665408108607"><ele>973.0</ele><time>2026-05-01T13:29:04Z</time></trkpt><trkpt lat="40.102780728392965" lon="9.346718670040797"><ele>973.0</ele><time>2026-05-01T13:29:05Z</time></trkpt><trkpt lat="40.10292088735215" lon="9.346755011950702"><ele>973.0</ele><time>2026-05-01T13:29:06Z</time></trkpt><trkpt lat="40.103072541517435" lon="9.346763940781726"><ele>973.0</ele><time>2026-05-01T13:29:07Z</time></trkpt><trkpt lat="40.10321364954761" lon="9.34667312061856"><ele>972.6666666666666</ele><time>2026-05-01T13:29:08Z</time></trkpt><trkpt lat="40.10334829127643" lon="9.346574755689335"><ele>972.3333333333333</ele><time>2026-05-01T13:29:09Z</time></trkpt><trkpt lat="40.10342226568088" lon="9.346391935597149"><ele>972.0</ele><time>2026-05-01T13:29:10Z</time></trkpt><trkpt lat="40.10351839877904" lon="9.346227369116182"><ele>972.0</ele><time>2026-05-01T13:29:11Z</time></trkpt><trkpt lat="40.103575191330904" lon="9.346017645702073"><ele>972.0</ele><time>2026-05-01T13:29:12Z</time></trkpt><trkpt lat="40.103640818819834" lon="9.345798681899556"><ele>972.0</ele><time>2026-05-01T13:29:13Z</time></trkpt><trkpt lat="40.103728162430784" lon="9.345580705005425"><ele>971.6666666666667</ele><time>2026-05-01T13:29:14Z</time></trkpt><trkpt lat="40.103838706085384" lon="9.34537889988549"><ele>971.3333333333334</ele><time>2026-05-01T13:29:15Z</time></trkpt><trkpt lat="40.1039736622627" lon="9.345237085720226"><ele>971.0</ele><time>2026-05-01T13:29:16Z</time></trkpt><trkpt lat="40.104112592496364" lon="9.345100095506407"><ele>971.0</ele><time>2026-05-01T13:29:17Z</time></trkpt><trkpt lat="40.10428850857988" lon="9.345015337708011"><ele>971.0</ele><time>2026-05-01T13:29:18Z</time></trkpt><trkpt lat="40.10444772099334" lon="9.344899948527958"><ele>971.0</ele><time>2026-05-01T13:29:19Z</time></trkpt><trkpt lat="40.10461204034453" lon="9.344777453028911"><ele>968.0</ele><time>2026-05-01T13:29:20Z</time></trkpt><trkpt lat="40.10478395429441" lon="9.344661015516369"><ele>965.0</ele><time>2026-05-01T13:29:21Z</time></trkpt><trkpt lat="40.10496847834527" lon="9.344542229676149"><ele>962.0</ele><time>2026-05-01T13:29:22Z</time></trkpt><trkpt lat="40.10516309100899" lon="9.34441509980511"><ele>962.0</ele><time>2026-05-01T13:29:23Z</time></trkpt><trkpt lat="40.10536202723265" lon="9.344282617311624"><ele>962.0</ele><time>2026-05-01T13:29:24Z</time></trkpt><trkpt lat="40.10556215485217" lon="9.344154430403515"><ele>962.0</ele><time>2026-05-01T13:29:25Z</time></trkpt><trkpt lat="40.10576405740851" lon="9.344022214421825"><ele>963.5</ele><time>2026-05-01T13:29:26Z</time></trkpt><trkpt lat="40.105970483819256" lon="9.343889113342733"><ele>965.0</ele><time>2026-05-01T13:29:27Z</time></trkpt><trkpt lat="40.10618171404039" lon="9.343753001727817"><ele>965.0</ele><time>2026-05-01T13:29:28Z</time></trkpt><trkpt lat="40.1064050493637" lon="9.343607773242947"><ele>965.0</ele><time>2026-05-01T13:29:29Z</time></trkpt><trkpt lat="40.106636982556275" lon="9.343453771885299"><ele>969.0</ele><time>2026-05-01T13:29:30Z</time></trkpt><trkpt lat="40.10687671136591" lon="9.343295930787944"><ele>973.0</ele><time>2026-05-01T13:29:31Z</time></trkpt><trkpt lat="40.107120650311124" lon="9.343134737407242"><ele>967.5</ele><time>2026-05-01T13:29:32Z</time></trkpt><trkpt lat="40.10736799294994" lon="9.342975067300594"><ele>962.0</ele><time>2026-05-01T13:29:33Z</time></trkpt><trkpt lat="40.10761952600178" lon="9.342815804534089"><ele>962.0</ele><time>2026-05-01T13:29:34Z</time></trkpt><trkpt lat="40.10787416692215" lon="9.342655573724288"><ele>962.0</ele><time>2026-05-01T13:29:35Z</time></trkpt><trkpt lat="40.10813306675391" lon="9.342492877146604"><ele>959.5</ele><time>2026-05-01T13:29:36Z</time></trkpt><trkpt lat="40.10839274138843" lon="9.342326200463003"><ele>957.0</ele><time>2026-05-01T13:29:37Z</time></trkpt><trkpt lat="40.10865445181125" lon="9.342151723339196"><ele>957.0</ele><time>2026-05-01T13:29:38Z</time></trkpt><trkpt lat="40.10891777067332" lon="9.341982831988393"><ele>957.0</ele><time>2026-05-01T13:29:39Z</time></trkpt><trkpt lat="40.109181886573474" lon="9.34180520556899"><ele>960.0</ele><time>2026-05-01T13:29:40Z</time></trkpt><trkpt lat="40.10944704364486" lon="9.341630180297733"><ele>963.0</ele><time>2026-05-01T13:29:41Z</time></trkpt><trkpt lat="40.10970853122955" lon="9.341457504783847"><ele>959.0</ele><time>2026-05-01T13:29:42Z</time></trkpt><trkpt lat="40.109968909701124" lon="9.341289886557815"><ele>955.0</ele><time>2026-05-01T13:29:43Z</time></trkpt><trkpt lat="40.11022331164273" lon="9.341124143496495"><ele>955.0</ele><time>2026-05-01T13:29:44Z</time></trkpt><trkpt lat="40.11047572004139" lon="9.340961341463487"><ele>955.0</ele><time>2026-05-01T13:29:45Z</time></trkpt><trkpt lat="40.1107282609858" lon="9.34079382557061"><ele>956.5</ele><time>2026-05-01T13:29:46Z</time></trkpt><trkpt lat="40.11098113603626" lon="9.34061999516078"><ele>958.0</ele><time>2026-05-01T13:29:47Z</time></trkpt><trkpt lat="40.11123637869933" lon="9.34043773649814"><ele>958.0</ele><time>2026-05-01T13:29:48Z</time></trkpt><trkpt lat="40.11149429280697" lon="9.340249513870745"><ele>958.0</ele><time>2026-05-01T13:29:49Z</time></trkpt><trkpt lat="40.111753251339856" lon="9.34005393693862"><ele>956.5</ele><time>2026-05-01T13:29:50Z</time></trkpt><trkpt lat="40.112015004712426" lon="9.339855566383417"><ele>955.0</ele><time>2026-05-01T13:29:51Z</time></trkpt><trkpt lat="40.11226815301724" lon="9.339660492023178"><ele>957.0</ele><time>2026-05-01T13:29:52Z</time></trkpt><trkpt lat="40.11250314559704" lon="9.33947736695289"><ele>959.0</ele><time>2026-05-01T13:29:53Z</time></trkpt><trkpt lat="40.112723488126235" lon="9.339303412206116"><ele>959.0</ele><time>2026-05-01T13:29:54Z</time></trkpt><trkpt lat="40.11291919108977" lon="9.339139405153592"><ele>959.0</ele><time>2026-05-01T13:29:55Z</time></trkpt><trkpt lat="40.113097771284295" lon="9.338993352607943"><ele>959.0</ele><time>2026-05-01T13:29:56Z</time></trkpt><trkpt lat="40.113277288725044" lon="9.33884545452901"><ele>954.5</ele><time>2026-05-01T13:29:57Z</time></trkpt><trkpt lat="40.113469659021405" lon="9.338689163523288"><ele>950.0</ele><time>2026-05-01T13:29:58Z</time></trkpt><trkpt lat="40.113674141124086" lon="9.338522564102218"><ele>950.0</ele><time>2026-05-01T13:29:59Z</time></trkpt><trkpt lat="40.11388628217062" lon="9.338347438735445"><ele>950.0</ele><time>2026-05-01T13:30:00Z</time></trkpt><trkpt lat="40.11410738961629" lon="9.33816740443395"><ele>949.5</ele><time>2026-05-01T13:30:01Z</time></trkpt><trkpt lat="40.11434407458187" lon="9.337974403890462"><ele>949.0</ele><time>2026-05-01T13:30:02Z</time></trkpt><trkpt lat="40.114584704060746" lon="9.33777891700251"><ele>949.0</ele><time>2026-05-01T13:30:03Z</time></trkpt><trkpt lat="40.114826892831275" lon="9.337579059969249"><ele>949.0</ele><time>2026-05-01T13:30:04Z</time></trkpt><trkpt lat="40.11507419856008" lon="9.337375280049525"><ele>948.0</ele><time>2026-05-01T13:30:05Z</time></trkpt><trkpt lat="40.11532763915698" lon="9.337172894321219"><ele>947.0</ele><time>2026-05-01T13:30:06Z</time></trkpt><trkpt lat="40.115592170068204" lon="9.336964366860116"><ele>946.5</ele><time>2026-05-01T13:30:07Z</time></trkpt><trkpt lat="40.115853190122856" lon="9.336750579270072"><ele>946.0</ele><time>2026-05-01T13:30:08Z</time></trkpt><trkpt lat="40.116127279664454" lon="9.336525995055593"><ele>943.5</ele><time>2026-05-01T13:30:09Z</time></trkpt><trkpt lat="40.11640919691635" lon="9.336297019932859"><ele>941.0</ele><time>2026-05-01T13:30:10Z</time></trkpt><trkpt lat="40.116693196288566" lon="9.336063751384438"><ele>940.5</ele><time>2026-05-01T13:30:11Z</time></trkpt><trkpt lat="40.11697982953765" lon="9.335824812781258"><ele>940.0</ele><time>2026-05-01T13:30:12Z</time></trkpt><trkpt lat="40.117272300712166" lon="9.335579264525729"><ele>941.0</ele><time>2026-05-01T13:30:13Z</time></trkpt><trkpt lat="40.11756606185998" lon="9.335340473081459"><ele>942.0</ele><time>2026-05-01T13:30:14Z</time></trkpt><trkpt lat="40.117859208594716" lon="9.335119743803528"><ele>942.0</ele><time>2026-05-01T13:30:15Z</time></trkpt><trkpt lat="40.11814728616734" lon="9.33490425181639"><ele>942.0</ele><time>2026-05-01T13:30:16Z</time></trkpt><trkpt lat="40.118429099631925" lon="9.334684904133058"><ele>941.5</ele><time>2026-05-01T13:30:17Z</time></trkpt><trkpt lat="40.118703051073005" lon="9.334465757116941"><ele>941.0</ele><time>2026-05-01T13:30:18Z</time></trkpt><trkpt lat="40.118971316434035" lon="9.3342495906843"><ele>942.5</ele><time>2026-05-01T13:30:19Z</time></trkpt><trkpt lat="40.119235144220035" lon="9.33403544749644"><ele>944.0</ele><time>2026-05-01T13:30:20Z</time></trkpt><trkpt lat="40.11948810638609" lon="9.333830750594567"><ele>943.0</ele><time>2026-05-01T13:30:21Z</time></trkpt><trkpt lat="40.119741767293824" lon="9.333626439720028"><ele>942.0</ele><time>2026-05-01T13:30:22Z</time></trkpt><trkpt lat="40.120001941728844" lon="9.333418199258507"><ele>942.0</ele><time>2026-05-01T13:30:23Z</time></trkpt><trkpt lat="40.12026710837224" lon="9.333214816454724"><ele>942.0</ele><time>2026-05-01T13:30:24Z</time></trkpt><trkpt lat="40.12053566788198" lon="9.333019756771803"><ele>941.5</ele><time>2026-05-01T13:30:25Z</time></trkpt><trkpt lat="40.12080836346909" lon="9.332841089303214"><ele>941.0</ele><time>2026-05-01T13:30:26Z</time></trkpt><trkpt lat="40.12108319991272" lon="9.332677521282745"><ele>941.0</ele><time>2026-05-01T13:30:27Z</time></trkpt><trkpt lat="40.12135688468111" lon="9.33252720577805"><ele>941.0</ele><time>2026-05-01T13:30:28Z</time></trkpt><trkpt lat="40.121631186385265" lon="9.332386602595184"><ele>940.5</ele><time>2026-05-01T13:30:29Z</time></trkpt><trkpt lat="40.12190563655483" lon="9.332253933284475"><ele>940.0</ele><time>2026-05-01T13:30:30Z</time></trkpt><trkpt lat="40.1221843848975" lon="9.332131143075115"><ele>938.5</ele><time>2026-05-01T13:30:31Z</time></trkpt><trkpt lat="40.12246987006935" lon="9.332027538457764"><ele>937.0</ele><time>2026-05-01T13:30:32Z</time></trkpt><trkpt lat="40.12275758397682" lon="9.3319388748989"><ele>937.0</ele><time>2026-05-01T13:30:33Z</time></trkpt><trkpt lat="40.12304155647488" lon="9.33186029749397"><ele>937.0</ele><time>2026-05-01T13:30:34Z</time></trkpt><trkpt lat="40.123324490296724" lon="9.331781460246969"><ele>936.0</ele><time>2026-05-01T13:30:35Z</time></trkpt><trkpt lat="40.12360501228104" lon="9.331710265158504"><ele>935.0</ele><time>2026-05-01T13:30:36Z</time></trkpt><trkpt lat="40.12388402086881" lon="9.331641023582547"><ele>935.0</ele><time>2026-05-01T13:30:37Z</time></trkpt><trkpt lat="40.12416775525589" lon="9.331572758892767"><ele>935.0</ele><time>2026-05-01T13:30:38Z</time></trkpt><trkpt lat="40.12445424057979" lon="9.331505349677354"><ele>935.0</ele><time>2026-05-01T13:30:39Z</time></trkpt><trkpt lat="40.124743704032355" lon="9.331436897499415"><ele>935.0</ele><time>2026-05-01T13:30:40Z</time></trkpt><trkpt lat="40.12503797102461" lon="9.331367341401657"><ele>932.0</ele><time>2026-05-01T13:30:41Z</time></trkpt><trkpt lat="40.12533750884398" lon="9.33129907459955"><ele>929.0</ele><time>2026-05-01T13:30:42Z</time></trkpt><trkpt lat="40.12563909969283" lon="9.33123009843736"><ele>930.5</ele><time>2026-05-01T13:30:43Z</time></trkpt><trkpt lat="40.125941033374694" lon="9.33115715317974"><ele>932.0</ele><time>2026-05-01T13:30:44Z</time></trkpt><trkpt lat="40.12624362066719" lon="9.33108111651544"><ele>932.0</ele><time>2026-05-01T13:30:45Z</time></trkpt><trkpt lat="40.12654817024391" lon="9.331001558405653"><ele>932.0</ele><time>2026-05-01T13:30:46Z</time></trkpt><trkpt lat="40.126855024648805" lon="9.330912755592225"><ele>932.0</ele><time>2026-05-01T13:30:47Z</time></trkpt><trkpt lat="40.12716340520878" lon="9.33081346335011"><ele>932.0</ele><time>2026-05-01T13:30:48Z</time></trkpt><trkpt lat="40.1274723168192" lon="9.330707629265927"><ele>931.5</ele><time>2026-05-01T13:30:49Z</time></trkpt><trkpt lat="40.127780754367066" lon="9.330596569707774"><ele>931.0</ele><time>2026-05-01T13:30:50Z</time></trkpt><trkpt lat="40.1280904093072" lon="9.330476676518956"><ele>928.0</ele><time>2026-05-01T13:30:51Z</time></trkpt><trkpt lat="40.12840008613752" lon="9.330344793229944"><ele>925.0</ele><time>2026-05-01T13:30:52Z</time></trkpt><trkpt lat="40.12871116215437" lon="9.330201976228803"><ele>925.0</ele><time>2026-05-01T13:30:53Z</time></trkpt><trkpt lat="40.129022168557995" lon="9.330051816394857"><ele>925.0</ele><time>2026-05-01T13:30:54Z</time></trkpt><trkpt lat="40.12933216675052" lon="9.329896967510876"><ele>928.0</ele><time>2026-05-01T13:30:55Z</time></trkpt><trkpt lat="40.129642458842625" lon="9.329737292214373"><ele>931.0</ele><time>2026-05-01T13:30:56Z</time></trkpt><trkpt lat="40.129949371945415" lon="9.32957274980707"><ele>931.0</ele><time>2026-05-01T13:30:57Z</time></trkpt><trkpt lat="40.13025301439746" lon="9.329399896515818"><ele>931.0</ele><time>2026-05-01T13:30:58Z</time></trkpt><trkpt lat="40.1305535213391" lon="9.329216786459671"><ele>930.0</ele><time>2026-05-01T13:30:59Z</time></trkpt><trkpt lat="40.13085060760673" lon="9.32902214477707"><ele>929.0</ele><time>2026-05-01T13:31:00Z</time></trkpt><trkpt lat="40.13114456125504" lon="9.328821556265641"><ele>927.5</ele><time>2026-05-01T13:31:01Z</time></trkpt><trkpt lat="40.13143799271436" lon="9.328615297628126"><ele>926.0</ele><time>2026-05-01T13:31:02Z</time></trkpt><trkpt lat="40.13173000986822" lon="9.328394161738002"><ele>925.0</ele><time>2026-05-01T13:31:03Z</time></trkpt><trkpt lat="40.132020346089334" lon="9.328173586319302"><ele>924.0</ele><time>2026-05-01T13:31:04Z</time></trkpt><trkpt lat="40.132309580986785" lon="9.327947272893004"><ele>921.0</ele><time>2026-05-01T13:31:05Z</time></trkpt><trkpt lat="40.13259536154617" lon="9.327717453479197"><ele>918.0</ele><time>2026-05-01T13:31:06Z</time></trkpt><trkpt lat="40.13287974250699" lon="9.327488819127401"><ele>918.0</ele><time>2026-05-01T13:31:07Z</time></trkpt><trkpt lat="40.13316230103223" lon="9.327262332262885"><ele>918.0</ele><time>2026-05-01T13:31:08Z</time></trkpt><trkpt lat="40.13344131322308" lon="9.327038450678977"><ele>917.0</ele><time>2026-05-01T13:31:09Z</time></trkpt><trkpt lat="40.13372034371043" lon="9.326813067263874"><ele>916.0</ele><time>2026-05-01T13:31:10Z</time></trkpt><trkpt lat="40.13399674534925" lon="9.32658585523602"><ele>913.5</ele><time>2026-05-01T13:31:11Z</time></trkpt><trkpt lat="40.134276771654406" lon="9.32635921209541"><ele>911.0</ele><time>2026-05-01T13:31:12Z</time></trkpt><trkpt lat="40.13455699151794" lon="9.326128698508027"><ele>911.0</ele><time>2026-05-01T13:31:13Z</time></trkpt><trkpt lat="40.13483590593387" lon="9.32589672975423"><ele>911.0</ele><time>2026-05-01T13:31:14Z</time></trkpt><trkpt lat="40.135117467099036" lon="9.32566508666533"><ele>908.5</ele><time>2026-05-01T13:31:15Z</time></trkpt><trkpt lat="40.13540164891438" lon="9.325433239618953"><ele>906.0</ele><time>2026-05-01T13:31:16Z</time></trkpt><trkpt lat="40.13568800504919" lon="9.325204021964199"><ele>909.0</ele><time>2026-05-01T13:31:17Z</time></trkpt><trkpt lat="40.135973336948155" lon="9.32497376638887"><ele>912.0</ele><time>2026-05-01T13:31:18Z</time></trkpt><trkpt lat="40.136259960754366" lon="9.324744777920085"><ele>911.5</ele><time>2026-05-01T13:31:19Z</time></trkpt><trkpt lat="40.1365447114592" lon="9.3245131833406"><ele>911.0</ele><time>2026-05-01T13:31:20Z</time></trkpt><trkpt lat="40.13682995166646" lon="9.324280387467832"><ele>911.0</ele><time>2026-05-01T13:31:21Z</time></trkpt><trkpt lat="40.13711674110031" lon="9.324046622688858"><ele>911.0</ele><time>2026-05-01T13:31:22Z</time></trkpt><trkpt lat="40.13740406166089" lon="9.32381455959047"><ele>910.5</ele><time>2026-05-01T13:31:23Z</time></trkpt><trkpt lat="40.13768949392182" lon="9.323581109529528"><ele>910.0</ele><time>2026-05-01T13:31:24Z</time></trkpt><trkpt lat="40.13797601667347" lon="9.323349116892569"><ele>910.0</ele><time>2026-05-01T13:31:25Z</time></trkpt><trkpt lat="40.13826200733339" lon="9.323113660819837"><ele>910.0</ele><time>2026-05-01T13:31:26Z</time></trkpt><trkpt lat="40.13854384659874" lon="9.322879034564025"><ele>910.0</ele><time>2026-05-01T13:31:27Z</time></trkpt><trkpt lat="40.13882561934848" lon="9.32265078547924"><ele>910.0</ele><time>2026-05-01T13:31:28Z</time></trkpt><trkpt lat="40.13910820501655" lon="9.322422213385158"><ele>909.5</ele><time>2026-05-01T13:31:29Z</time></trkpt><trkpt lat="40.13938765195146" lon="9.322195339508344"><ele>909.0</ele><time>2026-05-01T13:31:30Z</time></trkpt><trkpt lat="40.13966685310721" lon="9.321967427575718"><ele>910.0</ele><time>2026-05-01T13:31:31Z</time></trkpt><trkpt lat="40.13995027298644" lon="9.321740035576482"><ele>911.0</ele><time>2026-05-01T13:31:32Z</time></trkpt><trkpt lat="40.14023016056121" lon="9.321511030213074"><ele>909.5</ele><time>2026-05-01T13:31:33Z</time></trkpt><trkpt lat="40.14051382512286" lon="9.321281100645553"><ele>908.0</ele><time>2026-05-01T13:31:34Z</time></trkpt><trkpt lat="40.140796788070986" lon="9.321053137267615"><ele>908.0</ele><time>2026-05-01T13:31:35Z</time></trkpt><trkpt lat="40.14108231456772" lon="9.320824248937685"><ele>908.0</ele><time>2026-05-01T13:31:36Z</time></trkpt><trkpt lat="40.14136790479685" lon="9.320595215840795"><ele>904.5</ele><time>2026-05-01T13:31:37Z</time></trkpt><trkpt lat="40.141652768454584" lon="9.32036576187551"><ele>901.0</ele><time>2026-05-01T13:31:38Z</time></trkpt><trkpt lat="40.14193707872733" lon="9.3201291452891"><ele>901.0</ele><time>2026-05-01T13:31:39Z</time></trkpt><trkpt lat="40.14222250518606" lon="9.31989789626894"><ele>901.0</ele><time>2026-05-01T13:31:40Z</time></trkpt><trkpt lat="40.142509881157764" lon="9.31966267707924"><ele>897.0</ele><time>2026-05-01T13:31:41Z</time></trkpt><trkpt lat="40.14279929732238" lon="9.319426589895674"><ele>893.0</ele><time>2026-05-01T13:31:42Z</time></trkpt><trkpt lat="40.14309073864321" lon="9.31918850357426"><ele>893.0</ele><time>2026-05-01T13:31:43Z</time></trkpt><trkpt lat="40.143380974257994" lon="9.318950664573627"><ele>893.0</ele><time>2026-05-01T13:31:44Z</time></trkpt><trkpt lat="40.14367567386411" lon="9.31871057932566"><ele>889.0</ele><time>2026-05-01T13:31:45Z</time></trkpt><trkpt lat="40.14396598987875" lon="9.318471548036925"><ele>885.0</ele><time>2026-05-01T13:31:46Z</time></trkpt><trkpt lat="40.14425665587597" lon="9.318234218976015"><ele>881.0</ele><time>2026-05-01T13:31:47Z</time></trkpt><trkpt lat="40.14454550896995" lon="9.317997413386362"><ele>877.0</ele><time>2026-05-01T13:31:48Z</time></trkpt><trkpt lat="40.14483246132708" lon="9.317765897833652"><ele>878.0</ele><time>2026-05-01T13:31:49Z</time></trkpt><trkpt lat="40.1451189002259" lon="9.31753561425113"><ele>879.0</ele><time>2026-05-01T13:31:50Z</time></trkpt><trkpt lat="40.145402321861695" lon="9.317305456789358"><ele>878.0</ele><time>2026-05-01T13:31:51Z</time></trkpt><trkpt lat="40.1456922570289" lon="9.317071329518802"><ele>877.0</ele><time>2026-05-01T13:31:52Z</time></trkpt><trkpt lat="40.14597444331897" lon="9.316838552108216"><ele>879.5</ele><time>2026-05-01T13:31:53Z</time></trkpt><trkpt lat="40.14626250755106" lon="9.31660528488702"><ele>882.0</ele><time>2026-05-01T13:31:54Z</time></trkpt><trkpt lat="40.14655065129708" lon="9.316372670277213"><ele>885.0</ele><time>2026-05-01T13:31:55Z</time></trkpt><trkpt lat="40.14684076373493" lon="9.31614081405499"><ele>888.0</ele><time>2026-05-01T13:31:56Z</time></trkpt><trkpt lat="40.14713075521778" lon="9.3159092032935"><ele>887.5</ele><time>2026-05-01T13:31:57Z</time></trkpt><trkpt lat="40.14742021687429" lon="9.315677661312904"><ele>887.0</ele><time>2026-05-01T13:31:58Z</time></trkpt><trkpt lat="40.147707281164664" lon="9.315445142698676"><ele>887.0</ele><time>2026-05-01T13:31:59Z</time></trkpt><trkpt lat="40.14799203803252" lon="9.315212065608454"><ele>887.0</ele><time>2026-05-01T13:32:00Z</time></trkpt><trkpt lat="40.148273128978666" lon="9.314979423272069"><ele>884.5</ele><time>2026-05-01T13:32:01Z</time></trkpt><trkpt lat="40.14855359253079" lon="9.314748116448367"><ele>882.0</ele><time>2026-05-01T13:32:02Z</time></trkpt><trkpt lat="40.1488314135487" lon="9.314519707097842"><ele>887.0</ele><time>2026-05-01T13:32:03Z</time></trkpt><trkpt lat="40.1491028392456" lon="9.314297247969087"><ele>892.0</ele><time>2026-05-01T13:32:04Z</time></trkpt><trkpt lat="40.14936537347382" lon="9.314082785940407"><ele>888.5</ele><time>2026-05-01T13:32:05Z</time></trkpt><trkpt lat="40.14962246828216" lon="9.31387561066518"><ele>885.0</ele><time>2026-05-01T13:32:06Z</time></trkpt><trkpt lat="40.14987841156333" lon="9.313670033424735"><ele>885.0</ele><time>2026-05-01T13:32:07Z</time></trkpt><trkpt lat="40.150133840259414" lon="9.313464592695132"><ele>885.0</ele><time>2026-05-01T13:32:08Z</time></trkpt><trkpt lat="40.15038956730176" lon="9.313255556389098"><ele>885.5</ele><time>2026-05-01T13:32:09Z</time></trkpt><trkpt lat="40.150649136576995" lon="9.313044417990126"><ele>886.0</ele><time>2026-05-01T13:32:10Z</time></trkpt><trkpt lat="40.15090940310345" lon="9.31283253544614"><ele>886.0</ele><time>2026-05-01T13:32:11Z</time></trkpt><trkpt lat="40.15117308518182" lon="9.312618516045449"><ele>886.0</ele><time>2026-05-01T13:32:12Z</time></trkpt><trkpt lat="40.15144374256376" lon="9.31240919706256"><ele>887.0</ele><time>2026-05-01T13:32:13Z</time></trkpt><trkpt lat="40.15171592487113" lon="9.3121977680939"><ele>888.0</ele><time>2026-05-01T13:32:14Z</time></trkpt><trkpt lat="40.151991520059575" lon="9.311986313977583"><ele>888.0</ele><time>2026-05-01T13:32:15Z</time></trkpt><trkpt lat="40.15227232649366" lon="9.311778563005559"><ele>888.0</ele><time>2026-05-01T13:32:16Z</time></trkpt><trkpt lat="40.152558225059934" lon="9.311573641549773"><ele>889.0</ele><time>2026-05-01T13:32:17Z</time></trkpt><trkpt lat="40.15284832481067" lon="9.311371712473736"><ele>890.0</ele><time>2026-05-01T13:32:18Z</time></trkpt><trkpt lat="40.15314168592088" lon="9.311174778072512"><ele>892.5</ele><time>2026-05-01T13:32:19Z</time></trkpt><trkpt lat="40.15343642133719" lon="9.310979848619699"><ele>895.0</ele><time>2026-05-01T13:32:20Z</time></trkpt><trkpt lat="40.15373687512531" lon="9.310789021571196"><ele>895.0</ele><time>2026-05-01T13:32:21Z</time></trkpt><trkpt lat="40.154038293640156" lon="9.31060472794098"><ele>895.0</ele><time>2026-05-01T13:32:22Z</time></trkpt><trkpt lat="40.154341781089286" lon="9.310422529364452"><ele>895.5</ele><time>2026-05-01T13:32:23Z</time></trkpt><trkpt lat="40.1546492593293" lon="9.310246342460891"><ele>896.0</ele><time>2026-05-01T13:32:24Z</time></trkpt><trkpt lat="40.15495876626868" lon="9.310072114626738"><ele>897.5</ele><time>2026-05-01T13:32:25Z</time></trkpt><trkpt lat="40.15526373588591" lon="9.309904973336195"><ele>899.0</ele><time>2026-05-01T13:32:26Z</time></trkpt><trkpt lat="40.155577163130225" lon="9.30974250890815"><ele>898.5</ele><time>2026-05-01T13:32:27Z</time></trkpt><trkpt lat="40.15589436679031" lon="9.309582824949967"><ele>898.0</ele><time>2026-05-01T13:32:28Z</time></trkpt><trkpt lat="40.156212655552295" lon="9.309429101767824"><ele>898.0</ele><time>2026-05-01T13:32:29Z</time></trkpt><trkpt lat="40.15652912222569" lon="9.309283049752565"><ele>898.0</ele><time>2026-05-01T13:32:30Z</time></trkpt><trkpt lat="40.15684887571165" lon="9.309135048018693"><ele>898.5</ele><time>2026-05-01T13:32:31Z</time></trkpt><trkpt lat="40.15717010816186" lon="9.309001808758659"><ele>899.0</ele><time>2026-05-01T13:32:32Z</time></trkpt><trkpt lat="40.15748940947564" lon="9.308869398777695"><ele>899.0</ele><time>2026-05-01T13:32:33Z</time></trkpt><trkpt lat="40.157807525779084" lon="9.308737188968887"><ele>899.0</ele><time>2026-05-01T13:32:34Z</time></trkpt><trkpt lat="40.15812721628283" lon="9.308606717118964"><ele>897.5</ele><time>2026-05-01T13:32:35Z</time></trkpt><trkpt lat="40.158445305099455" lon="9.30847230703382"><ele>896.0</ele><time>2026-05-01T13:32:36Z</time></trkpt><trkpt lat="40.15876346935403" lon="9.308331796018289"><ele>896.5</ele><time>2026-05-01T13:32:37Z</time></trkpt><trkpt lat="40.159081699767086" lon="9.308189528048635"><ele>897.0</ele><time>2026-05-01T13:32:38Z</time></trkpt><trkpt lat="40.1594027465376" lon="9.308050453342673"><ele>897.0</ele><time>2026-05-01T13:32:39Z</time></trkpt><trkpt lat="40.159726533281216" lon="9.307914086801151"><ele>897.0</ele><time>2026-05-01T13:32:40Z</time></trkpt><trkpt lat="40.160050687821176" lon="9.307775624338229"><ele>896.5</ele><time>2026-05-01T13:32:41Z</time></trkpt><trkpt lat="40.16037502486659" lon="9.30764146109781"><ele>896.0</ele><time>2026-05-01T13:32:42Z</time></trkpt><trkpt lat="40.160700674081355" lon="9.30750630312666"><ele>895.5</ele><time>2026-05-01T13:32:43Z</time></trkpt><trkpt lat="40.16102510116591" lon="9.307369965335141"><ele>895.0</ele><time>2026-05-01T13:32:44Z</time></trkpt><trkpt lat="40.161352542543234" lon="9.307235588835928"><ele>893.5</ele><time>2026-05-01T13:32:45Z</time></trkpt><trkpt lat="40.16167860333298" lon="9.307099253891655"><ele>892.0</ele><time>2026-05-01T13:32:46Z</time></trkpt><trkpt lat="40.162005504335724" lon="9.306963646668336"><ele>892.0</ele><time>2026-05-01T13:32:47Z</time></trkpt><trkpt lat="40.162328502619076" lon="9.306829640749578"><ele>892.0</ele><time>2026-05-01T13:32:48Z</time></trkpt><trkpt lat="40.16265274016363" lon="9.306683814795878"><ele>890.0</ele><time>2026-05-01T13:32:49Z</time></trkpt><trkpt lat="40.162982731984336" lon="9.306549185376547"><ele>888.0</ele><time>2026-05-01T13:32:50Z</time></trkpt><trkpt lat="40.16330496464037" lon="9.30640521419362"><ele>887.0</ele><time>2026-05-01T13:32:51Z</time></trkpt><trkpt lat="40.163631366265356" lon="9.306266079789186"><ele>886.0</ele><time>2026-05-01T13:32:52Z</time></trkpt><trkpt lat="40.16395633818619" lon="9.306124590088116"><ele>887.0</ele><time>2026-05-01T13:32:53Z</time></trkpt><trkpt lat="40.164282982107956" lon="9.305984017216023"><ele>888.0</ele><time>2026-05-01T13:32:54Z</time></trkpt><trkpt lat="40.16460768783985" lon="9.305848348360549"><ele>888.5</ele><time>2026-05-01T13:32:55Z</time></trkpt><trkpt lat="40.16492858826525" lon="9.305710617688755"><ele>889.0</ele><time>2026-05-01T13:32:56Z</time></trkpt><trkpt lat="40.16525001913823" lon="9.305564203394832"><ele>886.0</ele><time>2026-05-01T13:32:57Z</time></trkpt><trkpt lat="40.16557315051516" lon="9.305399157309495"><ele>883.0</ele><time>2026-05-01T13:32:58Z</time></trkpt><trkpt lat="40.16589115857252" lon="9.305222695166552"><ele>883.0</ele><time>2026-05-01T13:32:59Z</time></trkpt><trkpt lat="40.16620274894873" lon="9.305029617979045"><ele>883.0</ele><time>2026-05-01T13:33:00Z</time></trkpt><trkpt lat="40.1665044036026" lon="9.304818222633637"><ele>880.0</ele><time>2026-05-01T13:33:01Z</time></trkpt><trkpt lat="40.16680532388688" lon="9.304595324377793"><ele>877.0</ele><time>2026-05-01T13:33:02Z</time></trkpt><trkpt lat="40.16709925960586" lon="9.304353555042667"><ele>877.5</ele><time>2026-05-01T13:33:03Z</time></trkpt><trkpt lat="40.167387507912245" lon="9.304098189234724"><ele>878.0</ele><time>2026-05-01T13:33:04Z</time></trkpt><trkpt lat="40.16766487190055" lon="9.30382741304217"><ele>876.5</ele><time>2026-05-01T13:33:05Z</time></trkpt><trkpt lat="40.16793666348637" lon="9.303555053076506"><ele>875.0</ele><time>2026-05-01T13:33:06Z</time></trkpt><trkpt lat="40.16820357071674" lon="9.303278780562863"><ele>877.0</ele><time>2026-05-01T13:33:07Z</time></trkpt><trkpt lat="40.16846964155342" lon="9.303003715974592"><ele>879.0</ele><time>2026-05-01T13:33:08Z</time></trkpt><trkpt lat="40.16873286825551" lon="9.302729572495684"><ele>879.0</ele><time>2026-05-01T13:33:09Z</time></trkpt><trkpt lat="40.168993259243365" lon="9.302455641637508"><ele>879.0</ele><time>2026-05-01T13:33:10Z</time></trkpt><trkpt lat="40.16925265135565" lon="9.30218449112473"><ele>883.5</ele><time>2026-05-01T13:33:11Z</time></trkpt><trkpt lat="40.169511494637575" lon="9.301913401414177"><ele>888.0</ele><time>2026-05-01T13:33:12Z</time></trkpt><trkpt lat="40.169769798514544" lon="9.301647330721721"><ele>890.0</ele><time>2026-05-01T13:33:13Z</time></trkpt><trkpt lat="40.1700261004443" lon="9.301378242575712"><ele>892.0</ele><time>2026-05-01T13:33:14Z</time></trkpt><trkpt lat="40.17027602724709" lon="9.30111589989211"><ele>892.0</ele><time>2026-05-01T13:33:15Z</time></trkpt><trkpt lat="40.17052432345942" lon="9.300855451799919"><ele>892.0</ele><time>2026-05-01T13:33:16Z</time></trkpt><trkpt lat="40.170767215903474" lon="9.300603858866134"><ele>893.0</ele><time>2026-05-01T13:33:17Z</time></trkpt><trkpt lat="40.17100260432754" lon="9.3003527769081"><ele>894.0</ele><time>2026-05-01T13:33:18Z</time></trkpt><trkpt lat="40.17124181416131" lon="9.300099766596903"><ele>894.0</ele><time>2026-05-01T13:33:19Z</time></trkpt><trkpt lat="40.171481461517715" lon="9.299846903771622"><ele>894.0</ele><time>2026-05-01T13:33:20Z</time></trkpt><trkpt lat="40.17172352660481" lon="9.299592351169341"><ele>890.5</ele><time>2026-05-01T13:33:21Z</time></trkpt><trkpt lat="40.171968260254445" lon="9.299340857040187"><ele>887.0</ele><time>2026-05-01T13:33:22Z</time></trkpt><trkpt lat="40.17219722684097" lon="9.29910025730943"><ele>882.5</ele><time>2026-05-01T13:33:23Z</time></trkpt><trkpt lat="40.172435470837954" lon="9.298843701701387"><ele>878.0</ele><time>2026-05-01T13:33:24Z</time></trkpt><trkpt lat="40.17266403053477" lon="9.298602517485643"><ele>878.0</ele><time>2026-05-01T13:33:25Z</time></trkpt><trkpt lat="40.172900269574995" lon="9.298356132334309"><ele>878.0</ele><time>2026-05-01T13:33:26Z</time></trkpt><trkpt lat="40.17313924962685" lon="9.298113560836207"><ele>878.0</ele><time>2026-05-01T13:33:27Z</time></trkpt><trkpt lat="40.173369136472196" lon="9.297870914032467"><ele>878.0</ele><time>2026-05-01T13:33:28Z</time></trkpt><trkpt lat="40.17359679150804" lon="9.29763033817251"><ele>878.0</ele><time>2026-05-01T13:33:29Z</time></trkpt><trkpt lat="40.173812423358385" lon="9.297394349127162"><ele>878.0</ele><time>2026-05-01T13:33:30Z</time></trkpt><trkpt lat="40.174020703138396" lon="9.297177559426336"><ele>878.0</ele><time>2026-05-01T13:33:31Z</time></trkpt><trkpt lat="40.17423097068627" lon="9.296984515666495"><ele>878.0</ele><time>2026-05-01T13:33:32Z</time></trkpt><trkpt lat="40.17445286689455" lon="9.296793093774147"><ele>878.0</ele><time>2026-05-01T13:33:33Z</time></trkpt><trkpt lat="40.174678789386334" lon="9.296610938575782"><ele>878.0</ele><time>2026-05-01T13:33:34Z</time></trkpt><trkpt lat="40.17490412061507" lon="9.296429211930732"><ele>879.0</ele><time>2026-05-01T13:33:35Z</time></trkpt><trkpt lat="40.17513506464084" lon="9.296250293614603"><ele>880.0</ele><time>2026-05-01T13:33:36Z</time></trkpt><trkpt lat="40.17536739605955" lon="9.296075057908928"><ele>880.0</ele><time>2026-05-01T13:33:37Z</time></trkpt><trkpt lat="40.17560699699714" lon="9.295912504562931"><ele>880.0</ele><time>2026-05-01T13:33:38Z</time></trkpt><trkpt lat="40.175848858517355" lon="9.295759188602135"><ele>880.5</ele><time>2026-05-01T13:33:39Z</time></trkpt><trkpt lat="40.17609664075691" lon="9.295619109217085"><ele>881.0</ele><time>2026-05-01T13:33:40Z</time></trkpt><trkpt lat="40.17634926542124" lon="9.295482770386851"><ele>879.5</ele><time>2026-05-01T13:33:41Z</time></trkpt><trkpt lat="40.17659802420424" lon="9.295347994691008"><ele>878.0</ele><time>2026-05-01T13:33:42Z</time></trkpt><trkpt lat="40.17685825764488" lon="9.295199307719727"><ele>878.0</ele><time>2026-05-01T13:33:43Z</time></trkpt><trkpt lat="40.17713238068524" lon="9.29504244390765"><ele>878.0</ele><time>2026-05-01T13:33:44Z</time></trkpt><trkpt lat="40.17741687355212" lon="9.294883374120097"><ele>878.0</ele><time>2026-05-01T13:33:45Z</time></trkpt><trkpt lat="40.17770743154943" lon="9.29472330368731"><ele>878.0</ele><time>2026-05-01T13:33:46Z</time></trkpt><trkpt lat="40.177999035706385" lon="9.294567152140297"><ele>879.0</ele><time>2026-05-01T13:33:47Z</time></trkpt><trkpt lat="40.1782908240197" lon="9.294414704649272"><ele>880.0</ele><time>2026-05-01T13:33:48Z</time></trkpt><trkpt lat="40.17858314656573" lon="9.294262243291968"><ele>880.0</ele><time>2026-05-01T13:33:49Z</time></trkpt><trkpt lat="40.17886968748787" lon="9.2941078112908"><ele>880.0</ele><time>2026-05-01T13:33:50Z</time></trkpt><trkpt lat="40.17914647559457" lon="9.293956004159652"><ele>881.5</ele><time>2026-05-01T13:33:51Z</time></trkpt><trkpt lat="40.179416068273106" lon="9.293808937112933"><ele>883.0</ele><time>2026-05-01T13:33:52Z</time></trkpt><trkpt lat="40.17966616268365" lon="9.293653892971701"><ele>884.0</ele><time>2026-05-01T13:33:53Z</time></trkpt><trkpt lat="40.17990374055048" lon="9.293495271010336"><ele>885.0</ele><time>2026-05-01T13:33:54Z</time></trkpt><trkpt lat="40.18019561622318" lon="9.293360992620054"><ele>885.0</ele><time>2026-05-01T13:33:55Z</time></trkpt><trkpt lat="40.180451887977036" lon="9.293205200127677"><ele>885.0</ele><time>2026-05-01T13:33:56Z</time></trkpt><trkpt lat="40.18070016648042" lon="9.293036908705508"><ele>885.5</ele><time>2026-05-01T13:33:57Z</time></trkpt><trkpt lat="40.18094598959073" lon="9.292844875556185"><ele>886.0</ele><time>2026-05-01T13:33:58Z</time></trkpt><trkpt lat="40.181185341360084" lon="9.29264006177213"><ele>886.0</ele><time>2026-05-01T13:33:59Z</time></trkpt><trkpt lat="40.18142123622103" lon="9.292408051344081"><ele>886.0</ele><time>2026-05-01T13:34:00Z</time></trkpt><trkpt lat="40.18166213801694" lon="9.292153628191203"><ele>882.5</ele><time>2026-05-01T13:34:01Z</time></trkpt><trkpt lat="40.18189654545132" lon="9.291867545026037"><ele>879.0</ele><time>2026-05-01T13:34:02Z</time></trkpt><trkpt lat="40.182116757998344" lon="9.291559716731648"><ele>878.0</ele><time>2026-05-01T13:34:03Z</time></trkpt><trkpt lat="40.18232055527735" lon="9.29122594113434"><ele>877.0</ele><time>2026-05-01T13:34:04Z</time></trkpt><trkpt lat="40.18251558803653" lon="9.290862636274946"><ele>874.5</ele><time>2026-05-01T13:34:05Z</time></trkpt><trkpt lat="40.18269968030418" lon="9.290492196717825"><ele>872.0</ele><time>2026-05-01T13:34:06Z</time></trkpt><trkpt lat="40.18287244618702" lon="9.29010453611525"><ele>871.5</ele><time>2026-05-01T13:34:07Z</time></trkpt><trkpt lat="40.1830384697741" lon="9.289715723383027"><ele>871.0</ele><time>2026-05-01T13:34:08Z</time></trkpt><trkpt lat="40.183202535301646" lon="9.289321456593028"><ele>868.0</ele><time>2026-05-01T13:34:09Z</time></trkpt><trkpt lat="40.183370754102576" lon="9.288935769479536"><ele>865.0</ele><time>2026-05-01T13:34:10Z</time></trkpt><trkpt lat="40.18354281031331" lon="9.28857919977384"><ele>865.0</ele><time>2026-05-01T13:34:11Z</time></trkpt><trkpt lat="40.18372329159298" lon="9.288251502309986"><ele>865.0</ele><time>2026-05-01T13:34:12Z</time></trkpt><trkpt lat="40.18391872540144" lon="9.287941185641756"><ele>859.5</ele><time>2026-05-01T13:34:13Z</time></trkpt><trkpt lat="40.184135562649764" lon="9.287649976827014"><ele>854.0</ele><time>2026-05-01T13:34:14Z</time></trkpt><trkpt lat="40.18436577160644" lon="9.287381713629692"><ele>855.5</ele><time>2026-05-01T13:34:15Z</time></trkpt><trkpt lat="40.18461220788671" lon="9.28713850468089"><ele>857.0</ele><time>2026-05-01T13:34:16Z</time></trkpt><trkpt lat="40.18486765697008" lon="9.286907610967912"><ele>849.0</ele><time>2026-05-01T13:34:17Z</time></trkpt><trkpt lat="40.18513266994539" lon="9.286702593084877"><ele>841.0</ele><time>2026-05-01T13:34:18Z</time></trkpt><trkpt lat="40.185414384946114" lon="9.286526290246412"><ele>843.0</ele><time>2026-05-01T13:34:19Z</time></trkpt><trkpt lat="40.185707327703476" lon="9.286377781209795"><ele>845.0</ele><time>2026-05-01T13:34:20Z</time></trkpt><trkpt lat="40.186004943687664" lon="9.286248582742104"><ele>845.0</ele><time>2026-05-01T13:34:21Z</time></trkpt><trkpt lat="40.18631184402648" lon="9.286153048352588"><ele>845.0</ele><time>2026-05-01T13:34:22Z</time></trkpt><trkpt lat="40.1866098539388" lon="9.286074957137627"><ele>842.0</ele><time>2026-05-01T13:34:23Z</time></trkpt><trkpt lat="40.18691385233274" lon="9.286031239948825"><ele>839.0</ele><time>2026-05-01T13:34:24Z</time></trkpt><trkpt lat="40.18722115464189" lon="9.286021244625159"><ele>838.5</ele><time>2026-05-01T13:34:25Z</time></trkpt><trkpt lat="40.187535561900766" lon="9.286039213082363"><ele>838.0</ele><time>2026-05-01T13:34:26Z</time></trkpt><trkpt lat="40.187855593834975" lon="9.286075280818526"><ele>836.0</ele><time>2026-05-01T13:34:27Z</time></trkpt><trkpt lat="40.188181215159865" lon="9.28611910022609"><ele>834.0</ele><time>2026-05-01T13:34:28Z</time></trkpt><trkpt lat="40.18849808829003" lon="9.286150501457996"><ele>834.0</ele><time>2026-05-01T13:34:29Z</time></trkpt><trkpt lat="40.18880049961344" lon="9.286169377835298"><ele>834.0</ele><time>2026-05-01T13:34:30Z</time></trkpt><trkpt lat="40.18909404162047" lon="9.286159391722995"><ele>829.5</ele><time>2026-05-01T13:34:31Z</time></trkpt><trkpt lat="40.18940310936129" lon="9.28612443567521"><ele>825.0</ele><time>2026-05-01T13:34:32Z</time></trkpt><trkpt lat="40.18969386230984" lon="9.286058363553163"><ele>816.0</ele><time>2026-05-01T13:34:33Z</time></trkpt><trkpt lat="40.18996919318522" lon="9.285953908071946"><ele>807.0</ele><time>2026-05-01T13:34:34Z</time></trkpt><trkpt lat="40.190238069906115" lon="9.285806151159905"><ele>807.0</ele><time>2026-05-01T13:34:35Z</time></trkpt><trkpt lat="40.190503618786856" lon="9.285626920980507"><ele>807.0</ele><time>2026-05-01T13:34:36Z</time></trkpt><trkpt lat="40.19075073410759" lon="9.285421513554343"><ele>808.5</ele><time>2026-05-01T13:34:37Z</time></trkpt><trkpt lat="40.19098235077393" lon="9.285182542664556"><ele>810.0</ele><time>2026-05-01T13:34:38Z</time></trkpt><trkpt lat="40.19120020713312" lon="9.284916237548353"><ele>807.0</ele><time>2026-05-01T13:34:39Z</time></trkpt><trkpt lat="40.19139643899767" lon="9.28463369878687"><ele>804.0</ele><time>2026-05-01T13:34:40Z</time></trkpt><trkpt lat="40.1915730340321" lon="9.284322809629913"><ele>804.0</ele><time>2026-05-01T13:34:41Z</time></trkpt><trkpt lat="40.1917275209299" lon="9.283986043239377"><ele>804.0</ele><time>2026-05-01T13:34:42Z</time></trkpt><trkpt lat="40.19185163281213" lon="9.283631531125723"><ele>805.0</ele><time>2026-05-01T13:34:43Z</time></trkpt><trkpt lat="40.19194371863926" lon="9.283280682376068"><ele>806.0</ele><time>2026-05-01T13:34:44Z</time></trkpt><trkpt lat="40.192014504484746" lon="9.282915687589389"><ele>801.5</ele><time>2026-05-01T13:34:45Z</time></trkpt><trkpt lat="40.19206581100244" lon="9.282555426275659"><ele>797.0</ele><time>2026-05-01T13:34:46Z</time></trkpt><trkpt lat="40.19208922265328" lon="9.282191942536732"><ele>788.5</ele><time>2026-05-01T13:34:47Z</time></trkpt><trkpt lat="40.19208689192891" lon="9.281826777599658"><ele>780.0</ele><time>2026-05-01T13:34:48Z</time></trkpt><trkpt lat="40.19207950771873" lon="9.281459999396574"><ele>772.0</ele><time>2026-05-01T13:34:49Z</time></trkpt><trkpt lat="40.19205849519373" lon="9.281095097646755"><ele>764.0</ele><time>2026-05-01T13:34:50Z</time></trkpt><trkpt lat="40.19204780192909" lon="9.28073681869476"><ele>772.5</ele><time>2026-05-01T13:34:51Z</time></trkpt><trkpt lat="40.192040003809865" lon="9.280399649944087"><ele>781.0</ele><time>2026-05-01T13:34:52Z</time></trkpt><trkpt lat="40.1920383535392" lon="9.280075108077366"><ele>792.5</ele><time>2026-05-01T13:34:53Z</time></trkpt><trkpt lat="40.19204730901321" lon="9.279761694929542"><ele>804.0</ele><time>2026-05-01T13:34:54Z</time></trkpt><trkpt lat="40.192075004354315" lon="9.279462052642103"><ele>804.0</ele><time>2026-05-01T13:34:55Z</time></trkpt><trkpt lat="40.19212238918781" lon="9.279179972536214"><ele>804.0</ele><time>2026-05-01T13:34:56Z</time></trkpt><trkpt lat="40.19218474300763" lon="9.278912688713717"><ele>804.0</ele><time>2026-05-01T13:34:57Z</time></trkpt><trkpt lat="40.192257114035016" lon="9.278662969237887"><ele>795.0</ele><time>2026-05-01T13:34:58Z</time></trkpt><trkpt lat="40.1923452871482" lon="9.278414860554259"><ele>786.0</ele><time>2026-05-01T13:34:59Z</time></trkpt><trkpt lat="40.192439364485686" lon="9.278154773801147"><ele>777.0</ele><time>2026-05-01T13:35:00Z</time></trkpt><trkpt lat="40.192547842151285" lon="9.277918639801657"><ele>777.0</ele><time>2026-05-01T13:35:01Z</time></trkpt><trkpt lat="40.192667807298186" lon="9.27769754305194"><ele>777.0</ele><time>2026-05-01T13:35:02Z</time></trkpt><trkpt lat="40.192798184084566" lon="9.277488686229168"><ele>777.0</ele><time>2026-05-01T13:35:03Z</time></trkpt><trkpt lat="40.19294243787242" lon="9.277280006445174"><ele>779.0</ele><time>2026-05-01T13:35:04Z</time></trkpt><trkpt lat="40.19309384784756" lon="9.277083858355601"><ele>781.0</ele><time>2026-05-01T13:35:05Z</time></trkpt><trkpt lat="40.19325709097711" lon="9.276912503124537"><ele>783.0</ele><time>2026-05-01T13:35:06Z</time></trkpt><trkpt lat="40.193427970480876" lon="9.276759106621022"><ele>783.0</ele><time>2026-05-01T13:35:07Z</time></trkpt><trkpt lat="40.19359938541279" lon="9.276617405615585"><ele>783.0</ele><time>2026-05-01T13:35:08Z</time></trkpt><trkpt lat="40.193781097321185" lon="9.276482968631022"><ele>783.0</ele><time>2026-05-01T13:35:09Z</time></trkpt><trkpt lat="40.193976261101504" lon="9.276359498236431"><ele>783.0</ele><time>2026-05-01T13:35:10Z</time></trkpt><trkpt lat="40.19418352587929" lon="9.276238502921052"><ele>783.0</ele><time>2026-05-01T13:35:11Z</time></trkpt><trkpt lat="40.19440781311834" lon="9.276135696832542"><ele>783.0</ele><time>2026-05-01T13:35:12Z</time></trkpt><trkpt lat="40.194650299253404" lon="9.276014937271151"><ele>783.0</ele><time>2026-05-01T13:35:13Z</time></trkpt><trkpt lat="40.19491578736183" lon="9.275882464667477"><ele>771.5</ele><time>2026-05-01T13:35:14Z</time></trkpt><trkpt lat="40.19519409423639" lon="9.275742271271055"><ele>760.0</ele><time>2026-05-01T13:35:15Z</time></trkpt><trkpt lat="40.195485573678006" lon="9.275610555045247"><ele>762.5</ele><time>2026-05-01T13:35:16Z</time></trkpt><trkpt lat="40.19578398301397" lon="9.275469893693991"><ele>765.0</ele><time>2026-05-01T13:35:17Z</time></trkpt><trkpt lat="40.196085120915825" lon="9.275321819245256"><ele>765.0</ele><time>2026-05-01T13:35:18Z</time></trkpt><trkpt lat="40.19638996391245" lon="9.275167356250062"><ele>765.0</ele><time>2026-05-01T13:35:19Z</time></trkpt><trkpt lat="40.19669646800804" lon="9.275013168926359"><ele>766.5</ele><time>2026-05-01T13:35:20Z</time></trkpt><trkpt lat="40.196996962571575" lon="9.274862527558872"><ele>768.0</ele><time>2026-05-01T13:35:21Z</time></trkpt><trkpt lat="40.19729707671955" lon="9.274711153958368"><ele>763.0</ele><time>2026-05-01T13:35:22Z</time></trkpt><trkpt lat="40.19760050913665" lon="9.274558147695272"><ele>758.0</ele><time>2026-05-01T13:35:23Z</time></trkpt><trkpt lat="40.19790446385539" lon="9.27440322385854"><ele>754.0</ele><time>2026-05-01T13:35:24Z</time></trkpt><trkpt lat="40.198215062386005" lon="9.274248963700327"><ele>750.0</ele><time>2026-05-01T13:35:25Z</time></trkpt><trkpt lat="40.19852521831019" lon="9.274098430246074"><ele>750.0</ele><time>2026-05-01T13:35:26Z</time></trkpt><trkpt lat="40.19883303830098" lon="9.273947892049886"><ele>750.0</ele><time>2026-05-01T13:35:27Z</time></trkpt><trkpt lat="40.199134075167976" lon="9.27378315718667"><ele>754.5</ele><time>2026-05-01T13:35:28Z</time></trkpt><trkpt lat="40.19941309142216" lon="9.273585778705755"><ele>759.0</ele><time>2026-05-01T13:35:29Z</time></trkpt><trkpt lat="40.19967394650186" lon="9.273348693653979"><ele>755.0</ele><time>2026-05-01T13:35:30Z</time></trkpt><trkpt lat="40.1999210676059" lon="9.27307929181014"><ele>751.0</ele><time>2026-05-01T13:35:31Z</time></trkpt><trkpt lat="40.20014802353803" lon="9.272787304998612"><ele>751.0</ele><time>2026-05-01T13:35:32Z</time></trkpt><trkpt lat="40.20034992129043" lon="9.272476485195066"><ele>751.0</ele><time>2026-05-01T13:35:33Z</time></trkpt><trkpt lat="40.20052741319755" lon="9.272144689864046"><ele>752.0</ele><time>2026-05-01T13:35:34Z</time></trkpt><trkpt lat="40.20066274024058" lon="9.271760431924754"><ele>753.0</ele><time>2026-05-01T13:35:35Z</time></trkpt><trkpt lat="40.20079924634309" lon="9.27138060317806"><ele>750.5</ele><time>2026-05-01T13:35:36Z</time></trkpt><trkpt lat="40.2009217150989" lon="9.270980887675774"><ele>748.0</ele><time>2026-05-01T13:35:37Z</time></trkpt><trkpt lat="40.20104145844521" lon="9.270573886601353"><ele>748.0</ele><time>2026-05-01T13:35:38Z</time></trkpt><trkpt lat="40.20116643188224" lon="9.270170072143353"><ele>748.0</ele><time>2026-05-01T13:35:39Z</time></trkpt><trkpt lat="40.201298158623075" lon="9.269783430031348"><ele>750.5</ele><time>2026-05-01T13:35:40Z</time></trkpt><trkpt lat="40.20143690540168" lon="9.269424511836583"><ele>753.0</ele><time>2026-05-01T13:35:41Z</time></trkpt><trkpt lat="40.20159739843298" lon="9.26908617313094"><ele>741.5</ele><time>2026-05-01T13:35:42Z</time></trkpt><trkpt lat="40.201780569019554" lon="9.268760551515053"><ele>730.0</ele><time>2026-05-01T13:35:43Z</time></trkpt><trkpt lat="40.20198814239883" lon="9.268464484161676"><ele>730.0</ele><time>2026-05-01T13:35:44Z</time></trkpt><trkpt lat="40.202220679631516" lon="9.268192342102658"><ele>730.0</ele><time>2026-05-01T13:35:45Z</time></trkpt><trkpt lat="40.20247501695946" lon="9.267940292922274"><ele>727.5</ele><time>2026-05-01T13:35:46Z</time></trkpt><trkpt lat="40.202746136846336" lon="9.267719314596595"><ele>725.0</ele><time>2026-05-01T13:35:47Z</time></trkpt><trkpt lat="40.20303667372272" lon="9.267532066919644"><ele>720.5</ele><time>2026-05-01T13:35:48Z</time></trkpt><trkpt lat="40.20334194352146" lon="9.267369914341645"><ele>716.0</ele><time>2026-05-01T13:35:49Z</time></trkpt><trkpt lat="40.203659217609165" lon="9.267231653563034"><ele>719.0</ele><time>2026-05-01T13:35:50Z</time></trkpt><trkpt lat="40.20398257668489" lon="9.267104429584304"><ele>722.0</ele><time>2026-05-01T13:35:51Z</time></trkpt><trkpt lat="40.204298335713624" lon="9.2669732849878"><ele>722.0</ele><time>2026-05-01T13:35:52Z</time></trkpt><trkpt lat="40.20460956724044" lon="9.266844146270307"><ele>722.0</ele><time>2026-05-01T13:35:53Z</time></trkpt><trkpt lat="40.204888534022245" lon="9.266631973798907"><ele>719.5</ele><time>2026-05-01T13:35:54Z</time></trkpt><trkpt lat="40.205146846429614" lon="9.26642037368697"><ele>717.0</ele><time>2026-05-01T13:35:55Z</time></trkpt><trkpt lat="40.205388558098576" lon="9.2661903555142"><ele>717.0</ele><time>2026-05-01T13:35:56Z</time></trkpt><trkpt lat="40.20560707448757" lon="9.265928525476578"><ele>717.0</ele><time>2026-05-01T13:35:57Z</time></trkpt><trkpt lat="40.20580430686262" lon="9.265635585304986"><ele>708.0</ele><time>2026-05-01T13:35:58Z</time></trkpt><trkpt lat="40.20598280736469" lon="9.265338852634342"><ele>699.0</ele><time>2026-05-01T13:35:59Z</time></trkpt><trkpt lat="40.2061370520236" lon="9.265028820515184"><ele>697.0</ele><time>2026-05-01T13:36:00Z</time></trkpt><trkpt lat="40.20628305011329" lon="9.26470128018755"><ele>695.0</ele><time>2026-05-01T13:36:01Z</time></trkpt><trkpt lat="40.20640390798216" lon="9.264351963505128"><ele>695.0</ele><time>2026-05-01T13:36:02Z</time></trkpt><trkpt lat="40.206491356977615" lon="9.263985755194783"><ele>695.0</ele><time>2026-05-01T13:36:03Z</time></trkpt><trkpt lat="40.206555767554406" lon="9.263589631683072"><ele>686.0</ele><time>2026-05-01T13:36:04Z</time></trkpt><trkpt lat="40.20660929422636" lon="9.263177709006762"><ele>677.0</ele><time>2026-05-01T13:36:05Z</time></trkpt><trkpt lat="40.20665860857263" lon="9.26277933643903"><ele>675.5</ele><time>2026-05-01T13:36:06Z</time></trkpt><trkpt lat="40.20670289941316" lon="9.262403972662694"><ele>674.0</ele><time>2026-05-01T13:36:07Z</time></trkpt><trkpt lat="40.20675716889155" lon="9.26202847847341"><ele>674.0</ele><time>2026-05-01T13:36:08Z</time></trkpt><trkpt lat="40.2068295770089" lon="9.261650711652681"><ele>674.0</ele><time>2026-05-01T13:36:09Z</time></trkpt><trkpt lat="40.20692874113154" lon="9.261274997640225"><ele>677.5</ele><time>2026-05-01T13:36:10Z</time></trkpt><trkpt lat="40.20704493853633" lon="9.260908350651642"><ele>681.0</ele><time>2026-05-01T13:36:11Z</time></trkpt><trkpt lat="40.20717506816889" lon="9.260573053810491"><ele>686.5</ele><time>2026-05-01T13:36:12Z</time></trkpt><trkpt lat="40.2073162178602" lon="9.260253138367792"><ele>692.0</ele><time>2026-05-01T13:36:13Z</time></trkpt><trkpt lat="40.20747765366127" lon="9.259936969371573"><ele>679.0</ele><time>2026-05-01T13:36:14Z</time></trkpt><trkpt lat="40.20765398918036" lon="9.259628566591138"><ele>666.0</ele><time>2026-05-01T13:36:15Z</time></trkpt><trkpt lat="40.207839937075" lon="9.259352834686558"><ele>666.0</ele><time>2026-05-01T13:36:16Z</time></trkpt><trkpt lat="40.2080303248153" lon="9.25909294126619"><ele>666.0</ele><time>2026-05-01T13:36:17Z</time></trkpt><trkpt lat="40.20824587464371" lon="9.258842258765013"><ele>663.5</ele><time>2026-05-01T13:36:18Z</time></trkpt><trkpt lat="40.208476118347505" lon="9.258598466501523"><ele>661.0</ele><time>2026-05-01T13:36:19Z</time></trkpt><trkpt lat="40.20872384623925" lon="9.258376386708122"><ele>661.0</ele><time>2026-05-01T13:36:20Z</time></trkpt><trkpt lat="40.20897114123561" lon="9.258184763568508"><ele>661.0</ele><time>2026-05-01T13:36:21Z</time></trkpt><trkpt lat="40.209221606900805" lon="9.258025306486292"><ele>668.0</ele><time>2026-05-01T13:36:22Z</time></trkpt><trkpt lat="40.209483949036716" lon="9.257882394411038"><ele>675.0</ele><time>2026-05-01T13:36:23Z</time></trkpt><trkpt lat="40.20975750517588" lon="9.257744687943648"><ele>670.5</ele><time>2026-05-01T13:36:24Z</time></trkpt><trkpt lat="40.21004101595892" lon="9.257621794947037"><ele>666.0</ele><time>2026-05-01T13:36:25Z</time></trkpt><trkpt lat="40.21033365116497" lon="9.257533349929101"><ele>666.0</ele><time>2026-05-01T13:36:26Z</time></trkpt><trkpt lat="40.21063292159057" lon="9.257478273498748"><ele>666.0</ele><time>2026-05-01T13:36:27Z</time></trkpt><trkpt lat="40.21093529877245" lon="9.257453368137204"><ele>661.0</ele><time>2026-05-01T13:36:28Z</time></trkpt><trkpt lat="40.21123686758829" lon="9.257456298675939"><ele>656.0</ele><time>2026-05-01T13:36:29Z</time></trkpt><trkpt lat="40.211537034138495" lon="9.257476105769978"><ele>652.0</ele><time>2026-05-01T13:36:30Z</time></trkpt><trkpt lat="40.21183684839274" lon="9.257517501066157"><ele>648.0</ele><time>2026-05-01T13:36:31Z</time></trkpt><trkpt lat="40.212132804605154" lon="9.257590046584514"><ele>649.5</ele><time>2026-05-01T13:36:32Z</time></trkpt><trkpt lat="40.21242638505143" lon="9.257687749448309"><ele>651.0</ele><time>2026-05-01T13:36:33Z</time></trkpt><trkpt lat="40.21271356396552" lon="9.25780925393525"><ele>651.0</ele><time>2026-05-01T13:36:34Z</time></trkpt><trkpt lat="40.212985637228975" lon="9.25795378177024"><ele>651.0</ele><time>2026-05-01T13:36:35Z</time></trkpt><trkpt lat="40.213248275369445" lon="9.258121711084405"><ele>649.0</ele><time>2026-05-01T13:36:36Z</time></trkpt><trkpt lat="40.21350695108062" lon="9.258307604237908"><ele>647.0</ele><time>2026-05-01T13:36:37Z</time></trkpt><trkpt lat="40.21376486670506" lon="9.258512020960016"><ele>653.0</ele><time>2026-05-01T13:36:38Z</time></trkpt><trkpt lat="40.21401607143078" lon="9.258728117709413"><ele>659.0</ele><time>2026-05-01T13:36:39Z</time></trkpt><trkpt lat="40.214250047070976" lon="9.25893208962823"><ele>652.0</ele><time>2026-05-01T13:36:40Z</time></trkpt><trkpt lat="40.214471630544566" lon="9.259130347921102"><ele>645.0</ele><time>2026-05-01T13:36:41Z</time></trkpt><trkpt lat="40.21469444846499" lon="9.259322950269631"><ele>647.5</ele><time>2026-05-01T13:36:42Z</time></trkpt><trkpt lat="40.2149166096233" lon="9.259504385293527"><ele>650.0</ele><time>2026-05-01T13:36:43Z</time></trkpt><trkpt lat="40.21513444470793" lon="9.25966197577593"><ele>646.0</ele><time>2026-05-01T13:36:44Z</time></trkpt><trkpt lat="40.215356896673256" lon="9.259802002593467"><ele>642.0</ele><time>2026-05-01T13:36:45Z</time></trkpt><trkpt lat="40.21558475983834" lon="9.25992445765586"><ele>643.5</ele><time>2026-05-01T13:36:46Z</time></trkpt><trkpt lat="40.21581490928153" lon="9.26002665786851"><ele>645.0</ele><time>2026-05-01T13:36:47Z</time></trkpt><trkpt lat="40.21604529275041" lon="9.260106638647727"><ele>645.0</ele><time>2026-05-01T13:36:48Z</time></trkpt><trkpt lat="40.2162799918345" lon="9.260165133362385"><ele>645.0</ele><time>2026-05-01T13:36:49Z</time></trkpt><trkpt lat="40.216514280869795" lon="9.260205037186783"><ele>642.6666666666666</ele><time>2026-05-01T13:36:50Z</time></trkpt><trkpt lat="40.21674082865727" lon="9.260223205634707"><ele>640.3333333333333</ele><time>2026-05-01T13:36:51Z</time></trkpt><trkpt lat="40.21695638779" lon="9.260219400665315"><ele>638.0</ele><time>2026-05-01T13:36:52Z</time></trkpt><trkpt lat="40.217174792806475" lon="9.260199257723805"><ele>635.0</ele><time>2026-05-01T13:36:53Z</time></trkpt><trkpt lat="40.21740256583117" lon="9.260158727291739"><ele>632.0</ele><time>2026-05-01T13:36:54Z</time></trkpt><trkpt lat="40.21763450427249" lon="9.260102037060808"><ele>632.0</ele><time>2026-05-01T13:36:55Z</time></trkpt><trkpt lat="40.217865811452974" lon="9.260031015648103"><ele>632.0</ele><time>2026-05-01T13:36:56Z</time></trkpt><trkpt lat="40.21809399798718" lon="9.259946407667234"><ele>633.5</ele><time>2026-05-01T13:36:57Z</time></trkpt><trkpt lat="40.218330834573024" lon="9.259845544218203"><ele>635.0</ele><time>2026-05-01T13:36:58Z</time></trkpt><trkpt lat="40.218577048086445" lon="9.259735385246215"><ele>641.0</ele><time>2026-05-01T13:36:59Z</time></trkpt><trkpt lat="40.218827965266364" lon="9.259624100025725"><ele>647.0</ele><time>2026-05-01T13:37:00Z</time></trkpt><trkpt lat="40.21909138886061" lon="9.259506658197838"><ele>647.0</ele><time>2026-05-01T13:37:01Z</time></trkpt><trkpt lat="40.219361976346775" lon="9.259384425642297"><ele>647.0</ele><time>2026-05-01T13:37:02Z</time></trkpt><trkpt lat="40.219644191470366" lon="9.259256456362358"><ele>641.0</ele><time>2026-05-01T13:37:03Z</time></trkpt><trkpt lat="40.219934231878426" lon="9.259120481848779"><ele>635.0</ele><time>2026-05-01T13:37:04Z</time></trkpt><trkpt lat="40.22021742101818" lon="9.2589873233315"><ele>640.5</ele><time>2026-05-01T13:37:05Z</time></trkpt><trkpt lat="40.22048317694074" lon="9.25887046345346"><ele>646.0</ele><time>2026-05-01T13:37:06Z</time></trkpt><trkpt lat="40.22074619552606" lon="9.25876127479"><ele>634.0</ele><time>2026-05-01T13:37:07Z</time></trkpt><trkpt lat="40.22101151131412" lon="9.258663164383945"><ele>622.0</ele><time>2026-05-01T13:37:08Z</time></trkpt><trkpt lat="40.22127610448765" lon="9.25857616946519"><ele>619.5</ele><time>2026-05-01T13:37:09Z</time></trkpt><trkpt lat="40.22154105858367" lon="9.258501861224026"><ele>617.0</ele><time>2026-05-01T13:37:10Z</time></trkpt><trkpt lat="40.22180357687142" lon="9.258451163084993"><ele>617.0</ele><time>2026-05-01T13:37:11Z</time></trkpt><trkpt lat="40.22206896369058" lon="9.258429593375793"><ele>617.0</ele><time>2026-05-01T13:37:12Z</time></trkpt><trkpt lat="40.22233686062784" lon="9.258432686452549"><ele>617.5</ele><time>2026-05-01T13:37:13Z</time></trkpt><trkpt lat="40.222607182486435" lon="9.258462767326465"><ele>618.0</ele><time>2026-05-01T13:37:14Z</time></trkpt><trkpt lat="40.22287719893815" lon="9.258515025414276"><ele>618.0</ele><time>2026-05-01T13:37:15Z</time></trkpt><trkpt lat="40.22314615237265" lon="9.258595643343568"><ele>618.0</ele><time>2026-05-01T13:37:16Z</time></trkpt><trkpt lat="40.223409606883706" lon="9.258702338302355"><ele>618.0</ele><time>2026-05-01T13:37:17Z</time></trkpt><trkpt lat="40.223666004010354" lon="9.258844175960245"><ele>618.0</ele><time>2026-05-01T13:37:18Z</time></trkpt><trkpt lat="40.22391570582826" lon="9.259007763887364"><ele>615.5</ele><time>2026-05-01T13:37:19Z</time></trkpt><trkpt lat="40.22416001660712" lon="9.259197874466205"><ele>613.0</ele><time>2026-05-01T13:37:20Z</time></trkpt><trkpt lat="40.22439912428052" lon="9.259403746023349"><ele>613.0</ele><time>2026-05-01T13:37:21Z</time></trkpt><trkpt lat="40.22463157044884" lon="9.259623610317444"><ele>613.0</ele><time>2026-05-01T13:37:22Z</time></trkpt><trkpt lat="40.224863281068245" lon="9.259844450842559"><ele>615.5</ele><time>2026-05-01T13:37:23Z</time></trkpt><trkpt lat="40.225091718965636" lon="9.260063520585032"><ele>618.0</ele><time>2026-05-01T13:37:24Z</time></trkpt><trkpt lat="40.2253206812598" lon="9.26028003687221"><ele>618.0</ele><time>2026-05-01T13:37:25Z</time></trkpt><trkpt lat="40.22554813663894" lon="9.26049304049947"><ele>618.0</ele><time>2026-05-01T13:37:26Z</time></trkpt><trkpt lat="40.225776195517824" lon="9.2607061307868"><ele>619.5</ele><time>2026-05-01T13:37:27Z</time></trkpt><trkpt lat="40.22600400158955" lon="9.260915653613985"><ele>621.0</ele><time>2026-05-01T13:37:28Z</time></trkpt><trkpt lat="40.226230926250956" lon="9.26112570177743"><ele>621.0</ele><time>2026-05-01T13:37:29Z</time></trkpt><trkpt lat="40.22646136626949" lon="9.261331207538294"><ele>621.0</ele><time>2026-05-01T13:37:30Z</time></trkpt><trkpt lat="40.22669737826236" lon="9.261519372932481"><ele>621.0</ele><time>2026-05-01T13:37:31Z</time></trkpt><trkpt lat="40.22694223106436" lon="9.26168854332627"><ele>621.0</ele><time>2026-05-01T13:37:32Z</time></trkpt><trkpt lat="40.22719416555729" lon="9.261844150443068"><ele>619.0</ele><time>2026-05-01T13:37:33Z</time></trkpt><trkpt lat="40.227452791459356" lon="9.261990607563401"><ele>617.0</ele><time>2026-05-01T13:37:34Z</time></trkpt><trkpt lat="40.22771351375005" lon="9.262135028376202"><ele>617.0</ele><time>2026-05-01T13:37:35Z</time></trkpt><trkpt lat="40.227976473100235" lon="9.262277134302625"><ele>617.0</ele><time>2026-05-01T13:37:36Z</time></trkpt><trkpt lat="40.228239142718344" lon="9.26241818107397"><ele>611.5</ele><time>2026-05-01T13:37:37Z</time></trkpt><trkpt lat="40.22850432954415" lon="9.26255695574481"><ele>606.0</ele><time>2026-05-01T13:37:38Z</time></trkpt><trkpt lat="40.22877142095987" lon="9.26269884113299"><ele>608.0</ele><time>2026-05-01T13:37:39Z</time></trkpt><trkpt lat="40.22903916664719" lon="9.262837288252989"><ele>610.0</ele><time>2026-05-01T13:37:40Z</time></trkpt><trkpt lat="40.22930300959996" lon="9.262975632808361"><ele>609.0</ele><time>2026-05-01T13:37:41Z</time></trkpt><trkpt lat="40.229566722448666" lon="9.263115821450185"><ele>608.0</ele><time>2026-05-01T13:37:42Z</time></trkpt><trkpt lat="40.22982942211664" lon="9.263252509838994"><ele>605.5</ele><time>2026-05-01T13:37:43Z</time></trkpt><trkpt lat="40.230091417507225" lon="9.263392985887823"><ele>603.0</ele><time>2026-05-01T13:37:44Z</time></trkpt><trkpt lat="40.230354132077714" lon="9.263533204857456"><ele>603.0</ele><time>2026-05-01T13:37:45Z</time></trkpt><trkpt lat="40.23061868443531" lon="9.263668459506857"><ele>603.0</ele><time>2026-05-01T13:37:46Z</time></trkpt><trkpt lat="40.23088463513279" lon="9.263806397763055"><ele>601.0</ele><time>2026-05-01T13:37:47Z</time></trkpt><trkpt lat="40.23114761308846" lon="9.263944506098134"><ele>599.0</ele><time>2026-05-01T13:37:48Z</time></trkpt><trkpt lat="40.23141191839323" lon="9.264086841975375"><ele>598.5</ele><time>2026-05-01T13:37:49Z</time></trkpt><trkpt lat="40.23167881281429" lon="9.264224775686094"><ele>598.0</ele><time>2026-05-01T13:37:50Z</time></trkpt><trkpt lat="40.23194775230993" lon="9.264361739135097"><ele>598.0</ele><time>2026-05-01T13:37:51Z</time></trkpt><trkpt lat="40.23222279514145" lon="9.264491702936315"><ele>598.0</ele><time>2026-05-01T13:37:52Z</time></trkpt><trkpt lat="40.23249523532622" lon="9.264640208579443"><ele>596.5</ele><time>2026-05-01T13:37:53Z</time></trkpt><trkpt lat="40.23276980038326" lon="9.26478472706942"><ele>595.0</ele><time>2026-05-01T13:37:54Z</time></trkpt><trkpt lat="40.233033017995446" lon="9.264934186761534"><ele>599.0</ele><time>2026-05-01T13:37:55Z</time></trkpt><trkpt lat="40.23331019362092" lon="9.265084450427645"><ele>603.0</ele><time>2026-05-01T13:37:56Z</time></trkpt><trkpt lat="40.23358165541808" lon="9.265232030642828"><ele>603.0</ele><time>2026-05-01T13:37:57Z</time></trkpt><trkpt lat="40.233841365648246" lon="9.265367276090446"><ele>603.0</ele><time>2026-05-01T13:37:58Z</time></trkpt><trkpt lat="40.23410231546094" lon="9.265501067961749"><ele>597.5</ele><time>2026-05-01T13:37:59Z</time></trkpt><trkpt lat="40.23436930995037" lon="9.26563333733997"><ele>592.0</ele><time>2026-05-01T13:38:00Z</time></trkpt><trkpt lat="40.23464126509106" lon="9.265759492210803"><ele>593.5</ele><time>2026-05-01T13:38:01Z</time></trkpt><trkpt lat="40.234916773505006" lon="9.265876552172259"><ele>595.0</ele><time>2026-05-01T13:38:02Z</time></trkpt><trkpt lat="40.23519388458222" lon="9.265972089281563"><ele>595.0</ele><time>2026-05-01T13:38:03Z</time></trkpt><trkpt lat="40.23547908205684" lon="9.26603517040386"><ele>595.0</ele><time>2026-05-01T13:38:04Z</time></trkpt><trkpt lat="40.23576616892701" lon="9.26606858207134"><ele>592.5</ele><time>2026-05-01T13:38:05Z</time></trkpt><trkpt lat="40.236046506217974" lon="9.266122418377089"><ele>590.0</ele><time>2026-05-01T13:38:06Z</time></trkpt><trkpt lat="40.23633747199648" lon="9.266068195965886"><ele>588.5</ele><time>2026-05-01T13:38:07Z</time></trkpt><trkpt lat="40.23662106647" lon="9.266015527443486"><ele>587.0</ele><time>2026-05-01T13:38:08Z</time></trkpt><trkpt lat="40.23689595159011" lon="9.26593290142006"><ele>587.0</ele><time>2026-05-01T13:38:09Z</time></trkpt><trkpt lat="40.23716563489052" lon="9.265824617670487"><ele>587.0</ele><time>2026-05-01T13:38:10Z</time></trkpt><trkpt lat="40.23742890439874" lon="9.265694279879058"><ele>594.5</ele><time>2026-05-01T13:38:11Z</time></trkpt><trkpt lat="40.23767987067311" lon="9.265541968408229"><ele>602.0</ele><time>2026-05-01T13:38:12Z</time></trkpt><trkpt lat="40.23792505335783" lon="9.265371755823434"><ele>600.5</ele><time>2026-05-01T13:38:13Z</time></trkpt><trkpt lat="40.23816550932933" lon="9.265185664310032"><ele>599.0</ele><time>2026-05-01T13:38:14Z</time></trkpt><trkpt lat="40.238393154906944" lon="9.264997383819345"><ele>599.0</ele><time>2026-05-01T13:38:15Z</time></trkpt><trkpt lat="40.23861487323924" lon="9.26480463375633"><ele>599.0</ele><time>2026-05-01T13:38:16Z</time></trkpt><trkpt lat="40.2387974082384" lon="9.264597303712822"><ele>605.5</ele><time>2026-05-01T13:38:17Z</time></trkpt><trkpt lat="40.23899652056976" lon="9.26441505630755"><ele>612.0</ele><time>2026-05-01T13:38:18Z</time></trkpt><trkpt lat="40.23919567653035" lon="9.264224702355785"><ele>612.0</ele><time>2026-05-01T13:38:19Z</time></trkpt><trkpt lat="40.239385934569086" lon="9.264018817528493"><ele>612.0</ele><time>2026-05-01T13:38:20Z</time></trkpt><trkpt lat="40.23959045567784" lon="9.26383142578287"><ele>615.5</ele><time>2026-05-01T13:38:21Z</time></trkpt><trkpt lat="40.239809181597245" lon="9.263646341218994"><ele>619.0</ele><time>2026-05-01T13:38:22Z</time></trkpt><trkpt lat="40.24002722094784" lon="9.26345631394517"><ele>619.0</ele><time>2026-05-01T13:38:23.029Z</time></trkpt><trkpt lat="40.240221173233984" lon="9.26327403220077"><ele>619.0</ele><time>2026-05-01T13:38:24.025Z</time></trkpt><trkpt lat="40.24042908508498" lon="9.263094753447254"><ele>620.3333333333334</ele><time>2026-05-01T13:38:25.025Z</time></trkpt><trkpt lat="40.240612040608006" lon="9.262916442761593"><ele>621.6666666666666</ele><time>2026-05-01T13:38:25.976Z</time></trkpt><trkpt lat="40.24078879681327" lon="9.262748772075092"><ele>623.0</ele><time>2026-05-01T13:38:26.876Z</time></trkpt><trkpt lat="40.24463811748661" lon="9.259809996525108"><ele>588.5</ele><time>2026-05-01T13:38:41Z</time></trkpt><trkpt lat="40.244883665481126" lon="9.259604552860461"><ele>554.0</ele><time>2026-05-01T13:38:42Z</time></trkpt><trkpt lat="40.24514324165467" lon="9.259396343673567"><ele>554.0</ele><time>2026-05-01T13:38:43Z</time></trkpt><trkpt lat="40.24540514246795" lon="9.259188731822611"><ele>554.0</ele><time>2026-05-01T13:38:44Z</time></trkpt><trkpt lat="40.24567124755677" lon="9.25896752959686"><ele>554.5</ele><time>2026-05-01T13:38:45Z</time></trkpt><trkpt lat="40.24593651072666" lon="9.258737869640214"><ele>555.0</ele><time>2026-05-01T13:38:46Z</time></trkpt><trkpt lat="40.246192317168415" lon="9.25850070094302"><ele>555.0</ele><time>2026-05-01T13:38:47Z</time></trkpt><trkpt lat="40.246453283123365" lon="9.258273428648698"><ele>555.0</ele><time>2026-05-01T13:38:48Z</time></trkpt><trkpt lat="40.24668727733766" lon="9.258040227543683"><ele>549.5</ele><time>2026-05-01T13:38:49Z</time></trkpt><trkpt lat="40.246916693999985" lon="9.257798716270385"><ele>544.0</ele><time>2026-05-01T13:38:50Z</time></trkpt><trkpt lat="40.24715200842306" lon="9.257559127711788"><ele>540.5</ele><time>2026-05-01T13:38:51Z</time></trkpt><trkpt lat="40.24737149022067" lon="9.257314068086842"><ele>537.0</ele><time>2026-05-01T13:38:52Z</time></trkpt><trkpt lat="40.2476017498255" lon="9.257069677433414"><ele>531.0</ele><time>2026-05-01T13:38:53Z</time></trkpt><trkpt lat="40.24782309631596" lon="9.256823415376454"><ele>525.0</ele><time>2026-05-01T13:38:54Z</time></trkpt><trkpt lat="40.24803779817706" lon="9.256569462230578"><ele>514.5</ele><time>2026-05-01T13:38:55Z</time></trkpt><trkpt lat="40.248250335643334" lon="9.256310759432745"><ele>504.0</ele><time>2026-05-01T13:38:56Z</time></trkpt><trkpt lat="40.248462045016296" lon="9.256050354732837"><ele>504.0</ele><time>2026-05-01T13:38:57Z</time></trkpt><trkpt lat="40.248665617735995" lon="9.255786108298446"><ele>504.0</ele><time>2026-05-01T13:38:58Z</time></trkpt><trkpt lat="40.2488665930736" lon="9.255509405215694"><ele>493.0</ele><time>2026-05-01T13:38:59Z</time></trkpt><trkpt lat="40.2490674399992" lon="9.255236676791736"><ele>482.0</ele><time>2026-05-01T13:39:00Z</time></trkpt><trkpt lat="40.2492674843148" lon="9.254956178385408"><ele>480.0</ele><time>2026-05-01T13:39:01Z</time></trkpt><trkpt lat="40.24946731632724" lon="9.254671809841092"><ele>478.0</ele><time>2026-05-01T13:39:02Z</time></trkpt><trkpt lat="40.24966710278606" lon="9.254382389984613"><ele>480.0</ele><time>2026-05-01T13:39:03Z</time></trkpt><trkpt lat="40.24986887933054" lon="9.254085806864467"><ele>482.0</ele><time>2026-05-01T13:39:04Z</time></trkpt><trkpt lat="40.25007217921113" lon="9.253790029444238"><ele>482.0</ele><time>2026-05-01T13:39:05Z</time></trkpt><trkpt lat="40.25027365255188" lon="9.253494119108359"><ele>482.0</ele><time>2026-05-01T13:39:06Z</time></trkpt><trkpt lat="40.25047733782706" lon="9.253199806215541"><ele>496.0</ele><time>2026-05-01T13:39:07Z</time></trkpt><trkpt lat="40.25068370579506" lon="9.252904749323172"><ele>510.0</ele><time>2026-05-01T13:39:08Z</time></trkpt><trkpt lat="40.250888750462934" lon="9.252608932998923"><ele>510.0</ele><time>2026-05-01T13:39:09Z</time></trkpt><trkpt lat="40.25109359937879" lon="9.252309017977613"><ele>510.0</ele><time>2026-05-01T13:39:10Z</time></trkpt><trkpt lat="40.25129965829818" lon="9.252007129801207"><ele>523.0</ele><time>2026-05-01T13:39:11Z</time></trkpt><trkpt lat="40.25150920669698" lon="9.25170153150913"><ele>536.0</ele><time>2026-05-01T13:39:12Z</time></trkpt><trkpt lat="40.251725105791664" lon="9.251396605325619"><ele>538.0</ele><time>2026-05-01T13:39:13Z</time></trkpt><trkpt lat="40.251928091648224" lon="9.251092949799569"><ele>540.0</ele><time>2026-05-01T13:39:14Z</time></trkpt><trkpt lat="40.25214813681849" lon="9.250777940402562"><ele>532.5</ele><time>2026-05-01T13:39:15Z</time></trkpt><trkpt lat="40.25236580684512" lon="9.250453358109214"><ele>525.0</ele><time>2026-05-01T13:39:16Z</time></trkpt><trkpt lat="40.25258331240311" lon="9.25013362522852"><ele>525.0</ele><time>2026-05-01T13:39:17Z</time></trkpt><trkpt lat="40.25280710075721" lon="9.24981107651779"><ele>525.0</ele><time>2026-05-01T13:39:18Z</time></trkpt><trkpt lat="40.25303131167502" lon="9.249486906492455"><ele>514.5</ele><time>2026-05-01T13:39:19Z</time></trkpt><trkpt lat="40.25324450202537" lon="9.249177556777333"><ele>504.0</ele><time>2026-05-01T13:39:20Z</time></trkpt><trkpt lat="40.25345090314281" lon="9.248869308532079"><ele>501.0</ele><time>2026-05-01T13:39:21Z</time></trkpt><trkpt lat="40.25365997828053" lon="9.248563233749788"><ele>498.0</ele><time>2026-05-01T13:39:22Z</time></trkpt><trkpt lat="40.253861815437986" lon="9.248272590207414"><ele>485.5</ele><time>2026-05-01T13:39:23Z</time></trkpt><trkpt lat="40.25406810662697" lon="9.248007881275287"><ele>473.0</ele><time>2026-05-01T13:39:24Z</time></trkpt><trkpt lat="40.25428980041189" lon="9.247758621557086"><ele>473.0</ele><time>2026-05-01T13:39:25Z</time></trkpt><trkpt lat="40.25452557966221" lon="9.247525978566753"><ele>473.0</ele><time>2026-05-01T13:39:26Z</time></trkpt><trkpt lat="40.25476906748489" lon="9.24732139602785"><ele>455.0</ele><time>2026-05-01T13:39:27Z</time></trkpt><trkpt lat="40.255012068857475" lon="9.247145640965297"><ele>437.0</ele><time>2026-05-01T13:39:28Z</time></trkpt><trkpt lat="40.25525704757308" lon="9.24699371836744"><ele>437.0</ele><time>2026-05-01T13:39:29Z</time></trkpt><trkpt lat="40.25549911550456" lon="9.2468634797983"><ele>437.0</ele><time>2026-05-01T13:39:30Z</time></trkpt><trkpt lat="40.25574780398779" lon="9.24675288493398"><ele>440.0</ele><time>2026-05-01T13:39:31Z</time></trkpt><trkpt lat="40.256000419477616" lon="9.246656619767018"><ele>443.0</ele><time>2026-05-01T13:39:32Z</time></trkpt><trkpt lat="40.25625137239804" lon="9.246573558736948"><ele>463.0</ele><time>2026-05-01T13:39:33Z</time></trkpt><trkpt lat="40.25649973666535" lon="9.246512724669934"><ele>483.0</ele><time>2026-05-01T13:39:34Z</time></trkpt><trkpt lat="40.256746488419424" lon="9.24647299807348"><ele>483.0</ele><time>2026-05-01T13:39:35Z</time></trkpt><trkpt lat="40.2569927807957" lon="9.246463360229493"><ele>483.0</ele><time>2026-05-01T13:39:36Z</time></trkpt><trkpt lat="40.257240704406776" lon="9.24646743982235"><ele>492.5</ele><time>2026-05-01T13:39:37Z</time></trkpt><trkpt lat="40.25748596686543" lon="9.246489441005725"><ele>502.0</ele><time>2026-05-01T13:39:38Z</time></trkpt><trkpt lat="40.25772589752797" lon="9.246525446062266"><ele>502.0</ele><time>2026-05-01T13:39:39Z</time></trkpt><trkpt lat="40.2579592553045" lon="9.246577048058105"><ele>502.0</ele><time>2026-05-01T13:39:40Z</time></trkpt><trkpt lat="40.258188863927316" lon="9.246646779814753"><ele>506.5</ele><time>2026-05-01T13:39:41Z</time></trkpt><trkpt lat="40.25841475604512" lon="9.246734362111077"><ele>511.0</ele><time>2026-05-01T13:39:42Z</time></trkpt><trkpt lat="40.25864058047945" lon="9.246835175326444"><ele>511.0</ele><time>2026-05-01T13:39:43Z</time></trkpt><trkpt lat="40.25886268091027" lon="9.246940862124813"><ele>511.0</ele><time>2026-05-01T13:39:44Z</time></trkpt><trkpt lat="40.25908308744061" lon="9.247051356129168"><ele>516.0</ele><time>2026-05-01T13:39:45Z</time></trkpt><trkpt lat="40.25930035528516" lon="9.247166085833383"><ele>521.0</ele><time>2026-05-01T13:39:46Z</time></trkpt><trkpt lat="40.25951610450418" lon="9.247280144937179"><ele>519.5</ele><time>2026-05-01T13:39:47Z</time></trkpt><trkpt lat="40.259733458050576" lon="9.24738569197842"><ele>518.0</ele><time>2026-05-01T13:39:48Z</time></trkpt><trkpt lat="40.259949920515886" lon="9.247492536992349"><ele>523.5</ele><time>2026-05-01T13:39:49Z</time></trkpt><trkpt lat="40.2601742494974" lon="9.247598856299154"><ele>529.0</ele><time>2026-05-01T13:39:50Z</time></trkpt><trkpt lat="40.260378311865594" lon="9.24771188389376"><ele>529.0</ele><time>2026-05-01T13:39:51Z</time></trkpt><trkpt lat="40.26059978075802" lon="9.247816035576083"><ele>529.0</ele><time>2026-05-01T13:39:52Z</time></trkpt><trkpt lat="40.26081619211067" lon="9.24792221671574"><ele>532.0</ele><time>2026-05-01T13:39:53Z</time></trkpt><trkpt lat="40.26103207103368" lon="9.248033701302026"><ele>535.0</ele><time>2026-05-01T13:39:54Z</time></trkpt><trkpt lat="40.261248515464814" lon="9.248136748593968"><ele>535.0</ele><time>2026-05-01T13:39:55Z</time></trkpt><trkpt lat="40.26147554070833" lon="9.24824156485786"><ele>535.0</ele><time>2026-05-01T13:39:56Z</time></trkpt><trkpt lat="40.261708983645015" lon="9.248355351584804"><ele>535.0</ele><time>2026-05-01T13:39:57Z</time></trkpt><trkpt lat="40.261946676359486" lon="9.248466814864143"><ele>535.0</ele><time>2026-05-01T13:39:58Z</time></trkpt><trkpt lat="40.26218789559451" lon="9.248587974219365"><ele>538.5</ele><time>2026-05-01T13:39:59Z</time></trkpt><trkpt lat="40.26244869192265" lon="9.24870977387265"><ele>542.0</ele><time>2026-05-01T13:40:00Z</time></trkpt><trkpt lat="40.26271092072221" lon="9.248841291877183"><ele>540.0</ele><time>2026-05-01T13:40:01Z</time></trkpt><trkpt lat="40.262979606319085" lon="9.248971946094239"><ele>538.0</ele><time>2026-05-01T13:40:02Z</time></trkpt><trkpt lat="40.26325244430478" lon="9.249114451005717"><ele>538.0</ele><time>2026-05-01T13:40:03Z</time></trkpt><trkpt lat="40.263526785190194" lon="9.249247247955411"><ele>538.0</ele><time>2026-05-01T13:40:04Z</time></trkpt><trkpt lat="40.263806418181254" lon="9.249384011412074"><ele>539.5</ele><time>2026-05-01T13:40:05Z</time></trkpt><trkpt lat="40.26408705043297" lon="9.249518786621497"><ele>541.0</ele><time>2026-05-01T13:40:06Z</time></trkpt><trkpt lat="40.264369477782516" lon="9.249656352070462"><ele>541.0</ele><time>2026-05-01T13:40:07Z</time></trkpt><trkpt lat="40.26465344560253" lon="9.249796463541248"><ele>541.0</ele><time>2026-05-01T13:40:08Z</time></trkpt><trkpt lat="40.26493863585082" lon="9.249937117237282"><ele>541.0</ele><time>2026-05-01T13:40:09Z</time></trkpt><trkpt lat="40.265224953208154" lon="9.250076928561954"><ele>541.0</ele><time>2026-05-01T13:40:10Z</time></trkpt><trkpt lat="40.26551350449311" lon="9.250216046400729"><ele>543.0</ele><time>2026-05-01T13:40:11Z</time></trkpt><trkpt lat="40.26580390253668" lon="9.250356313625012"><ele>545.0</ele><time>2026-05-01T13:40:12Z</time></trkpt><trkpt lat="40.266095990855895" lon="9.25049884508655"><ele>543.0</ele><time>2026-05-01T13:40:13Z</time></trkpt><trkpt lat="40.266390906592164" lon="9.250641160023887"><ele>541.0</ele><time>2026-05-01T13:40:14Z</time></trkpt><trkpt lat="40.266688035082886" lon="9.250787177353956"><ele>547.0</ele><time>2026-05-01T13:40:15Z</time></trkpt><trkpt lat="40.266985039162506" lon="9.250937508720765"><ele>553.0</ele><time>2026-05-01T13:40:16Z</time></trkpt><trkpt lat="40.267280210608064" lon="9.251092648829532"><ele>558.5</ele><time>2026-05-01T13:40:17Z</time></trkpt><trkpt lat="40.26756878935713" lon="9.251252480857517"><ele>564.0</ele><time>2026-05-01T13:40:18Z</time></trkpt><trkpt lat="40.267850426947746" lon="9.251421706328419"><ele>564.0</ele><time>2026-05-01T13:40:19Z</time></trkpt><trkpt lat="40.268126967570346" lon="9.251592699675847"><ele>564.0</ele><time>2026-05-01T13:40:20Z</time></trkpt><trkpt lat="40.26839945762317" lon="9.2517698802206"><ele>564.0</ele><time>2026-05-01T13:40:21Z</time></trkpt><trkpt lat="40.268666234255086" lon="9.251963128756875"><ele>564.0</ele><time>2026-05-01T13:40:22Z</time></trkpt><trkpt lat="40.268927790180776" lon="9.2521787139245"><ele>565.0</ele><time>2026-05-01T13:40:23Z</time></trkpt><trkpt lat="40.26918368254645" lon="9.252407304767148"><ele>566.0</ele><time>2026-05-01T13:40:24Z</time></trkpt><trkpt lat="40.269431377164416" lon="9.252651803979562"><ele>566.0</ele><time>2026-05-01T13:40:25Z</time></trkpt><trkpt lat="40.26967416605027" lon="9.25291216048108"><ele>566.0</ele><time>2026-05-01T13:40:26Z</time></trkpt><trkpt lat="40.26991726354399" lon="9.253177294611882"><ele>567.5</ele><time>2026-05-01T13:40:27Z</time></trkpt><trkpt lat="40.27016100636457" lon="9.25344797722677"><ele>569.0</ele><time>2026-05-01T13:40:28Z</time></trkpt><trkpt lat="40.27040529491766" lon="9.253719999444042"><ele>573.5</ele><time>2026-05-01T13:40:29Z</time></trkpt><trkpt lat="40.27065015293152" lon="9.253998050883085"><ele>578.0</ele><time>2026-05-01T13:40:30Z</time></trkpt><trkpt lat="40.270898673995426" lon="9.25427992815873"><ele>578.0</ele><time>2026-05-01T13:40:31Z</time></trkpt><trkpt lat="40.27114328401183" lon="9.254565629992968"><ele>578.0</ele><time>2026-05-01T13:40:32Z</time></trkpt><trkpt lat="40.27138786009373" lon="9.254853104706255"><ele>583.0</ele><time>2026-05-01T13:40:33Z</time></trkpt><trkpt lat="40.27163625267912" lon="9.255137832119773"><ele>588.0</ele><time>2026-05-01T13:40:34Z</time></trkpt><trkpt lat="40.27188433964082" lon="9.255425990978397"><ele>588.5</ele><time>2026-05-01T13:40:35Z</time></trkpt><trkpt lat="40.27213751720299" lon="9.255707754025035"><ele>589.0</ele><time>2026-05-01T13:40:36Z</time></trkpt><trkpt lat="40.272399590466364" lon="9.255985853149106"><ele>589.0</ele><time>2026-05-01T13:40:37Z</time></trkpt><trkpt lat="40.27266598381889" lon="9.2562609178432"><ele>589.0</ele><time>2026-05-01T13:40:38Z</time></trkpt><trkpt lat="40.27293699747818" lon="9.256525425263616"><ele>591.5</ele><time>2026-05-01T13:40:39Z</time></trkpt><trkpt lat="40.27320529900416" lon="9.256777564022368"><ele>594.0</ele><time>2026-05-01T13:40:40Z</time></trkpt><trkpt lat="40.27347454461067" lon="9.257021263646417"><ele>594.0</ele><time>2026-05-01T13:40:41Z</time></trkpt><trkpt lat="40.273747105629255" lon="9.257250318969946"><ele>594.0</ele><time>2026-05-01T13:40:42Z</time></trkpt><trkpt lat="40.274019806578906" lon="9.257465659883675"><ele>593.0</ele><time>2026-05-01T13:40:43Z</time></trkpt><trkpt lat="40.27429715310106" lon="9.25766939712619"><ele>592.0</ele><time>2026-05-01T13:40:44Z</time></trkpt><trkpt lat="40.27457841919584" lon="9.257866462225707"><ele>591.0</ele><time>2026-05-01T13:40:45Z</time></trkpt><trkpt lat="40.274835470090736" lon="9.258036108091547"><ele>590.0</ele><time>2026-05-01T13:40:46Z</time></trkpt><trkpt lat="40.27508575543532" lon="9.258191664941213"><ele>588.0</ele><time>2026-05-01T13:40:47Z</time></trkpt><trkpt lat="40.27534019927834" lon="9.258337121634161"><ele>586.0</ele><time>2026-05-01T13:40:48Z</time></trkpt><trkpt lat="40.275604120463264" lon="9.25847648668221"><ele>582.5</ele><time>2026-05-01T13:40:49Z</time></trkpt><trkpt lat="40.27587802411588" lon="9.258617441621178"><ele>579.0</ele><time>2026-05-01T13:40:50Z</time></trkpt><trkpt lat="40.27615975054628" lon="9.258747167962127"><ele>579.0</ele><time>2026-05-01T13:40:51Z</time></trkpt><trkpt lat="40.2764445538893" lon="9.258868430910345"><ele>579.0</ele><time>2026-05-01T13:40:52Z</time></trkpt><trkpt lat="40.27672811644217" lon="9.25898304892039"><ele>579.0</ele><time>2026-05-01T13:40:53Z</time></trkpt><trkpt lat="40.2770150220527" lon="9.259090546752724"><ele>579.0</ele><time>2026-05-01T13:40:54Z</time></trkpt><trkpt lat="40.277308945990015" lon="9.25918874175934"><ele>581.5</ele><time>2026-05-01T13:40:55Z</time></trkpt><trkpt lat="40.2776087217975" lon="9.259278577380622"><ele>584.0</ele><time>2026-05-01T13:40:56Z</time></trkpt><trkpt lat="40.27790866026814" lon="9.259361701959508"><ele>586.5</ele><time>2026-05-01T13:40:57Z</time></trkpt><trkpt lat="40.27821506796035" lon="9.259438253186856"><ele>589.0</ele><time>2026-05-01T13:40:58Z</time></trkpt><trkpt lat="40.278522270569084" lon="9.259513556218746"><ele>589.0</ele><time>2026-05-01T13:40:59Z</time></trkpt><trkpt lat="40.278828020653954" lon="9.259585723184708"><ele>589.0</ele><time>2026-05-01T13:41:00Z</time></trkpt><trkpt lat="40.27913423265536" lon="9.259654372856463"><ele>591.0</ele><time>2026-05-01T13:41:01Z</time></trkpt><trkpt lat="40.27944257003575" lon="9.259715761028769"><ele>593.0</ele><time>2026-05-01T13:41:02Z</time></trkpt><trkpt lat="40.27975023750102" lon="9.259773702577672"><ele>589.5</ele><time>2026-05-01T13:41:03Z</time></trkpt><trkpt lat="40.28005691135198" lon="9.259828638867628"><ele>586.0</ele><time>2026-05-01T13:41:04Z</time></trkpt><trkpt lat="40.280361624674526" lon="9.259884608339984"><ele>584.5</ele><time>2026-05-01T13:41:05Z</time></trkpt><trkpt lat="40.28066557656345" lon="9.259941410582414"><ele>583.0</ele><time>2026-05-01T13:41:06Z</time></trkpt><trkpt lat="40.28096333605964" lon="9.259993648262588"><ele>583.0</ele><time>2026-05-01T13:41:07Z</time></trkpt><trkpt lat="40.28126141135361" lon="9.260046971462012"><ele>583.0</ele><time>2026-05-01T13:41:08Z</time></trkpt><trkpt lat="40.281560956568" lon="9.260100699991343"><ele>580.0</ele><time>2026-05-01T13:41:09Z</time></trkpt><trkpt lat="40.281860511579495" lon="9.260155458869596"><ele>577.0</ele><time>2026-05-01T13:41:10Z</time></trkpt><trkpt lat="40.28215841661855" lon="9.260215125880936"><ele>577.5</ele><time>2026-05-01T13:41:11Z</time></trkpt><trkpt lat="40.282452004984904" lon="9.260271973904489"><ele>578.0</ele><time>2026-05-01T13:41:12Z</time></trkpt><trkpt lat="40.28274347045517" lon="9.26032557191691"><ele>578.0</ele><time>2026-05-01T13:41:13Z</time></trkpt><trkpt lat="40.283028855856585" lon="9.260372448614998"><ele>578.0</ele><time>2026-05-01T13:41:14Z</time></trkpt><trkpt lat="40.283320318099804" lon="9.260421651509903"><ele>578.5</ele><time>2026-05-01T13:41:15Z</time></trkpt><trkpt lat="40.28361534527882" lon="9.260480662224682"><ele>579.0</ele><time>2026-05-01T13:41:16Z</time></trkpt><trkpt lat="40.28387476926907" lon="9.26054932105077"><ele>575.0</ele><time>2026-05-01T13:41:17Z</time></trkpt><trkpt lat="40.284160918378355" lon="9.260632178199609"><ele>571.0</ele><time>2026-05-01T13:41:18Z</time></trkpt><trkpt lat="40.2844470872538" lon="9.260730076243956"><ele>571.0</ele><time>2026-05-01T13:41:19Z</time></trkpt><trkpt lat="40.28473317928545" lon="9.260844463058602"><ele>571.0</ele><time>2026-05-01T13:41:20Z</time></trkpt><trkpt lat="40.28503767768074" lon="9.26086314353991"><ele>572.0</ele><time>2026-05-01T13:41:21Z</time></trkpt><trkpt lat="40.28533499668009" lon="9.260923549153016"><ele>573.0</ele><time>2026-05-01T13:41:22Z</time></trkpt><trkpt lat="40.28562595172634" lon="9.261010305760133"><ele>574.0</ele><time>2026-05-01T13:41:23Z</time></trkpt><trkpt lat="40.28591507880313" lon="9.261101064164523"><ele>575.0</ele><time>2026-05-01T13:41:24Z</time></trkpt><trkpt lat="40.28619944310815" lon="9.26119658310343"><ele>575.5</ele><time>2026-05-01T13:41:25Z</time></trkpt><trkpt lat="40.286480436788224" lon="9.261300710214458"><ele>576.0</ele><time>2026-05-01T13:41:26Z</time></trkpt><trkpt lat="40.28677403766894" lon="9.261410779612186"><ele>572.5</ele><time>2026-05-01T13:41:27Z</time></trkpt><trkpt lat="40.28705084419634" lon="9.261528679053288"><ele>569.0</ele><time>2026-05-01T13:41:28Z</time></trkpt><trkpt lat="40.28732449487745" lon="9.261650571916269"><ele>568.0</ele><time>2026-05-01T13:41:29Z</time></trkpt><trkpt lat="40.28759678638388" lon="9.261778123192935"><ele>567.0</ele><time>2026-05-01T13:41:30Z</time></trkpt><trkpt lat="40.287871239627364" lon="9.261906657735402"><ele>566.5</ele><time>2026-05-01T13:41:31Z</time></trkpt><trkpt lat="40.288141748513006" lon="9.262042019851663"><ele>566.0</ele><time>2026-05-01T13:41:32Z</time></trkpt><trkpt lat="40.28841267266018" lon="9.262181744306178"><ele>565.0</ele><time>2026-05-01T13:41:33Z</time></trkpt><trkpt lat="40.288679089032755" lon="9.26232835206353"><ele>564.0</ele><time>2026-05-01T13:41:34Z</time></trkpt><trkpt lat="40.288945723805675" lon="9.262479452132581"><ele>564.0</ele><time>2026-05-01T13:41:35Z</time></trkpt><trkpt lat="40.289209725705106" lon="9.262636563483424"><ele>564.0</ele><time>2026-05-01T13:41:36Z</time></trkpt><trkpt lat="40.289472383410434" lon="9.262798942064032"><ele>564.0</ele><time>2026-05-01T13:41:37Z</time></trkpt><trkpt lat="40.28973264596874" lon="9.262970945785373"><ele>564.0</ele><time>2026-05-01T13:41:38Z</time></trkpt><trkpt lat="40.28999113521532" lon="9.26314644270112"><ele>560.5</ele><time>2026-05-01T13:41:39Z</time></trkpt><trkpt lat="40.29024465531032" lon="9.263328940895956"><ele>557.0</ele><time>2026-05-01T13:41:40Z</time></trkpt><trkpt lat="40.29049795925624" lon="9.263516492337056"><ele>553.0</ele><time>2026-05-01T13:41:41Z</time></trkpt><trkpt lat="40.29075358423506" lon="9.263710187090142"><ele>549.0</ele><time>2026-05-01T13:41:42Z</time></trkpt><trkpt lat="40.29100861077203" lon="9.263911747239922"><ele>548.0</ele><time>2026-05-01T13:41:43Z</time></trkpt><trkpt lat="40.291263180578376" lon="9.264120820721848"><ele>547.0</ele><time>2026-05-01T13:41:44Z</time></trkpt><trkpt lat="40.29151843983823" lon="9.2643352090902"><ele>546.0</ele><time>2026-05-01T13:41:45Z</time></trkpt><trkpt lat="40.29176999551294" lon="9.264560004731257"><ele>545.0</ele><time>2026-05-01T13:41:46Z</time></trkpt><trkpt lat="40.29202054815408" lon="9.264788898027394"><ele>542.5</ele><time>2026-05-01T13:41:47Z</time></trkpt><trkpt lat="40.292267687022665" lon="9.265021921843632"><ele>540.0</ele><time>2026-05-01T13:41:48Z</time></trkpt><trkpt lat="40.292505619505455" lon="9.265266539502479"><ele>540.0</ele><time>2026-05-01T13:41:49Z</time></trkpt><trkpt lat="40.29274370174513" lon="9.2655131517247"><ele>540.0</ele><time>2026-05-01T13:41:50Z</time></trkpt><trkpt lat="40.2929784465178" lon="9.265767034645856"><ele>537.5</ele><time>2026-05-01T13:41:51Z</time></trkpt><trkpt lat="40.29321050660183" lon="9.266023834944418"><ele>535.0</ele><time>2026-05-01T13:41:52Z</time></trkpt><trkpt lat="40.29344015239484" lon="9.266284063054576"><ele>534.5</ele><time>2026-05-01T13:41:53Z</time></trkpt><trkpt lat="40.29367009931259" lon="9.26654501557482"><ele>534.0</ele><time>2026-05-01T13:41:54Z</time></trkpt><trkpt lat="40.29389941735208" lon="9.266806931028528"><ele>533.0</ele><time>2026-05-01T13:41:55Z</time></trkpt><trkpt lat="40.29412856035977" lon="9.267071847847127"><ele>532.0</ele><time>2026-05-01T13:41:56Z</time></trkpt><trkpt lat="40.294353365246465" lon="9.26733974104202"><ele>530.5</ele><time>2026-05-01T13:41:57Z</time></trkpt><trkpt lat="40.294573820744056" lon="9.267613503555785"><ele>529.0</ele><time>2026-05-01T13:41:58Z</time></trkpt><trkpt lat="40.294788905277734" lon="9.267888771449416"><ele>527.5</ele><time>2026-05-01T13:41:59Z</time></trkpt><trkpt lat="40.29500461597573" lon="9.268165258306567"><ele>526.0</ele><time>2026-05-01T13:42:00Z</time></trkpt><trkpt lat="40.29521852984066" lon="9.26843960127194"><ele>526.0</ele><time>2026-05-01T13:42:01Z</time></trkpt><trkpt lat="40.295433447059764" lon="9.268713765211018"><ele>526.0</ele><time>2026-05-01T13:42:02Z</time></trkpt><trkpt lat="40.29564989577783" lon="9.26898892681338"><ele>525.5</ele><time>2026-05-01T13:42:03Z</time></trkpt><trkpt lat="40.29586573783838" lon="9.269264786948517"><ele>525.0</ele><time>2026-05-01T13:42:04Z</time></trkpt><trkpt lat="40.29608051533458" lon="9.269543507671592"><ele>524.5</ele><time>2026-05-01T13:42:05Z</time></trkpt><trkpt lat="40.2962965475357" lon="9.269825417949303"><ele>524.0</ele><time>2026-05-01T13:42:06Z</time></trkpt><trkpt lat="40.29651367386753" lon="9.270104700233754"><ele>524.0</ele><time>2026-05-01T13:42:07Z</time></trkpt><trkpt lat="40.296730219142695" lon="9.270390797807538"><ele>524.0</ele><time>2026-05-01T13:42:08Z</time></trkpt><trkpt lat="40.29694870127257" lon="9.270673681623414"><ele>522.0</ele><time>2026-05-01T13:42:09Z</time></trkpt><trkpt lat="40.29716781346617" lon="9.270958366624638"><ele>520.0</ele><time>2026-05-01T13:42:10Z</time></trkpt><trkpt lat="40.297386978394144" lon="9.271244031919327"><ele>518.0</ele><time>2026-05-01T13:42:11Z</time></trkpt><trkpt lat="40.29760532210218" lon="9.2715287713911"><ele>516.0</ele><time>2026-05-01T13:42:12Z</time></trkpt><trkpt lat="40.29782589953472" lon="9.27181407676929"><ele>516.0</ele><time>2026-05-01T13:42:13Z</time></trkpt><trkpt lat="40.298044903867726" lon="9.272100325476801"><ele>516.0</ele><time>2026-05-01T13:42:14Z</time></trkpt><trkpt lat="40.29827012661008" lon="9.272380766471278"><ele>516.0</ele><time>2026-05-01T13:42:15Z</time></trkpt><trkpt lat="40.298489975132895" lon="9.272667579439773"><ele>516.0</ele><time>2026-05-01T13:42:16Z</time></trkpt><trkpt lat="40.298712351995235" lon="9.272951528928747"><ele>516.0</ele><time>2026-05-01T13:42:17Z</time></trkpt><trkpt lat="40.29893304479371" lon="9.27323550967064"><ele>516.0</ele><time>2026-05-01T13:42:18Z</time></trkpt><trkpt lat="40.299154106705274" lon="9.273521191855044"><ele>516.0</ele><time>2026-05-01T13:42:19Z</time></trkpt><trkpt lat="40.29937498311036" lon="9.273806704247074"><ele>516.0</ele><time>2026-05-01T13:42:20Z</time></trkpt><trkpt lat="40.29959493521355" lon="9.274090572720182"><ele>516.5</ele><time>2026-05-01T13:42:21Z</time></trkpt><trkpt lat="40.2998185441244" lon="9.27437162647915"><ele>517.0</ele><time>2026-05-01T13:42:22Z</time></trkpt><trkpt lat="40.30004285288979" lon="9.2746488286784"><ele>518.5</ele><time>2026-05-01T13:42:23Z</time></trkpt><trkpt lat="40.30027974987019" lon="9.274915795053824"><ele>520.0</ele><time>2026-05-01T13:42:24Z</time></trkpt><trkpt lat="40.30052423755544" lon="9.275171143019586"><ele>519.5</ele><time>2026-05-01T13:42:25Z</time></trkpt><trkpt lat="40.3007808626064" lon="9.275406562983079"><ele>519.0</ele><time>2026-05-01T13:42:26Z</time></trkpt><trkpt lat="40.30104390835405" lon="9.275629706699227"><ele>519.0</ele><time>2026-05-01T13:42:27Z</time></trkpt><trkpt lat="40.301313197655865" lon="9.275842536775663"><ele>519.0</ele><time>2026-05-01T13:42:28Z</time></trkpt><trkpt lat="40.30158651528807" lon="9.276047870346975"><ele>519.0</ele><time>2026-05-01T13:42:29Z</time></trkpt><trkpt lat="40.30186253370008" lon="9.276251977180799"><ele>519.0</ele><time>2026-05-01T13:42:30Z</time></trkpt><trkpt lat="40.302137467629905" lon="9.276458116280423"><ele>520.0</ele><time>2026-05-01T13:42:31Z</time></trkpt><trkpt lat="40.30241090503115" lon="9.27666477662051"><ele>521.0</ele><time>2026-05-01T13:42:32Z</time></trkpt><trkpt lat="40.30268449900567" lon="9.276872919223637"><ele>521.0</ele><time>2026-05-01T13:42:33Z</time></trkpt><trkpt lat="40.302956689285544" lon="9.277082660657138"><ele>521.0</ele><time>2026-05-01T13:42:34Z</time></trkpt><trkpt lat="40.30322843657097" lon="9.277289554244122"><ele>522.0</ele><time>2026-05-01T13:42:35Z</time></trkpt><trkpt lat="40.30350000999672" lon="9.277492820494915"><ele>523.0</ele><time>2026-05-01T13:42:36Z</time></trkpt><trkpt lat="40.30376973558198" lon="9.277695837061664"><ele>523.5</ele><time>2026-05-01T13:42:37Z</time></trkpt><trkpt lat="40.304035710492826" lon="9.277896872512203"><ele>524.0</ele><time>2026-05-01T13:42:38Z</time></trkpt><trkpt lat="40.30430508795673" lon="9.278098945014122"><ele>525.0</ele><time>2026-05-01T13:42:39Z</time></trkpt><trkpt lat="40.30457070093435" lon="9.278301799081351"><ele>526.0</ele><time>2026-05-01T13:42:40Z</time></trkpt><trkpt lat="40.304837151343335" lon="9.278503172074876"><ele>527.5</ele><time>2026-05-01T13:42:41Z</time></trkpt><trkpt lat="40.30510522255676" lon="9.278705071492055"><ele>529.0</ele><time>2026-05-01T13:42:42Z</time></trkpt><trkpt lat="40.30537050298207" lon="9.278905778877355"><ele>532.5</ele><time>2026-05-01T13:42:43Z</time></trkpt><trkpt lat="40.30563629864772" lon="9.27910595585001"><ele>536.0</ele><time>2026-05-01T13:42:44Z</time></trkpt><trkpt lat="40.30589785459444" lon="9.279302596040973"><ele>536.0</ele><time>2026-05-01T13:42:45Z</time></trkpt><trkpt lat="40.306156729482986" lon="9.27949846860175"><ele>536.0</ele><time>2026-05-01T13:42:46Z</time></trkpt><trkpt lat="40.30641358993159" lon="9.279695385798494"><ele>535.5</ele><time>2026-05-01T13:42:47Z</time></trkpt><trkpt lat="40.3066720190064" lon="9.279891067962208"><ele>535.0</ele><time>2026-05-01T13:42:48Z</time></trkpt><trkpt lat="40.30693327330882" lon="9.280082206737768"><ele>535.0</ele><time>2026-05-01T13:42:49Z</time></trkpt><trkpt lat="40.30719857222685" lon="9.280261374066143"><ele>535.0</ele><time>2026-05-01T13:42:50Z</time></trkpt><trkpt lat="40.30747060359828" lon="9.280407120974933"><ele>534.5</ele><time>2026-05-01T13:42:51Z</time></trkpt><trkpt lat="40.307748910375636" lon="9.280533268494134"><ele>534.0</ele><time>2026-05-01T13:42:52Z</time></trkpt><trkpt lat="40.308027211859944" lon="9.280651276385795"><ele>533.0</ele><time>2026-05-01T13:42:53Z</time></trkpt><trkpt lat="40.30830972224423" lon="9.280739179957182"><ele>532.0</ele><time>2026-05-01T13:42:54Z</time></trkpt><trkpt lat="40.30857718556703" lon="9.28081041212371"><ele>532.0</ele><time>2026-05-01T13:42:55Z</time></trkpt><trkpt lat="40.308839667076015" lon="9.280879008309496"><ele>532.0</ele><time>2026-05-01T13:42:56Z</time></trkpt><trkpt lat="40.3091050924782" lon="9.280947285378515"><ele>533.5</ele><time>2026-05-01T13:42:57Z</time></trkpt><trkpt lat="40.30936901981496" lon="9.281015681608887"><ele>535.0</ele><time>2026-05-01T13:42:58Z</time></trkpt><trkpt lat="40.30962768989469" lon="9.28108079015043"><ele>536.5</ele><time>2026-05-01T13:42:59Z</time></trkpt><trkpt lat="40.3098856161988" lon="9.281146101966995"><ele>538.0</ele><time>2026-05-01T13:43:00Z</time></trkpt><trkpt lat="40.31015033761018" lon="9.281215207856345"><ele>538.0</ele><time>2026-05-01T13:43:01Z</time></trkpt><trkpt lat="40.31042298178143" lon="9.281284272512679"><ele>538.0</ele><time>2026-05-01T13:43:02Z</time></trkpt><trkpt lat="40.31069771685026" lon="9.281347792860506"><ele>540.0</ele><time>2026-05-01T13:43:03Z</time></trkpt><trkpt lat="40.310975645575745" lon="9.281410450223298"><ele>542.0</ele><time>2026-05-01T13:43:04Z</time></trkpt><trkpt lat="40.311257129436285" lon="9.281479624577546"><ele>544.0</ele><time>2026-05-01T13:43:05Z</time></trkpt><trkpt lat="40.311540127964456" lon="9.281548882923714"><ele>546.0</ele><time>2026-05-01T13:43:06Z</time></trkpt><trkpt lat="40.31182689135266" lon="9.281623247595682"><ele>546.0</ele><time>2026-05-01T13:43:07Z</time></trkpt><trkpt lat="40.31211133834256" lon="9.281694761879344"><ele>546.0</ele><time>2026-05-01T13:43:08Z</time></trkpt><trkpt lat="40.31238835593834" lon="9.281762457671357"><ele>550.5</ele><time>2026-05-01T13:43:09Z</time></trkpt><trkpt lat="40.31266304486777" lon="9.281835390270167"><ele>555.0</ele><time>2026-05-01T13:43:10Z</time></trkpt><trkpt lat="40.31292594180253" lon="9.281911713793168"><ele>557.5</ele><time>2026-05-01T13:43:11Z</time></trkpt><trkpt lat="40.31318691388836" lon="9.281989709053654"><ele>560.0</ele><time>2026-05-01T13:43:12Z</time></trkpt><trkpt lat="40.31344883320511" lon="9.282067110255513"><ele>560.0</ele><time>2026-05-01T13:43:13Z</time></trkpt><trkpt lat="40.313705192358576" lon="9.282142534529038"><ele>560.0</ele><time>2026-05-01T13:43:14Z</time></trkpt><trkpt lat="40.31396667230783" lon="9.282220333599652"><ele>560.5</ele><time>2026-05-01T13:43:15.027Z</time></trkpt><trkpt lat="40.314215919247914" lon="9.282295425331355"><ele>561.0</ele><time>2026-05-01T13:43:16.027Z</time></trkpt><trkpt lat="40.31446984837067" lon="9.282376590130694"><ele>561.0</ele><time>2026-05-01T13:43:17.025Z</time></trkpt><trkpt lat="40.314714303327875" lon="9.28245451641021"><ele>561.0</ele><time>2026-05-01T13:43:17.975Z</time></trkpt><trkpt lat="40.31494941659194" lon="9.282526928181726"><ele>584.0</ele><time>2026-05-01T13:43:18.876Z</time></trkpt><trkpt lat="40.3174140185207" lon="9.28319743525338"><ele>584.0</ele><time>2026-05-01T13:43:29.729Z</time></trkpt><trkpt lat="40.3179258877814" lon="9.283355600359105"><ele>587.0</ele><time>2026-05-01T13:43:32.792Z</time></trkpt><trkpt lat="40.31814546356258" lon="9.283415699451407"><ele>590.0</ele><time>2026-05-01T13:43:34.176Z</time></trkpt><trkpt lat="40.321913571261014" lon="9.284179787295955"><ele>567.0</ele><time>2026-05-01T13:43:51.6Z</time></trkpt><trkpt lat="40.32205120740925" lon="9.28423337474778"><ele>544.0</ele><time>2026-05-01T13:43:52.55Z</time></trkpt><trkpt lat="40.322206133178454" lon="9.284279696707642"><ele>521.0</ele><time>2026-05-01T13:43:53.5Z</time></trkpt><trkpt lat="40.32236077560046" lon="9.284321996380656"><ele>519.0</ele><time>2026-05-01T13:43:54.45Z</time></trkpt><trkpt lat="40.32249970706136" lon="9.284364626749698"><ele>517.0</ele><time>2026-05-01T13:43:55.4Z</time></trkpt><trkpt lat="40.322631959065134" lon="9.284412529222584"><ele>515.0</ele><time>2026-05-01T13:43:56.35Z</time></trkpt><trkpt lat="40.32275711600197" lon="9.28446521914899"><ele>513.0</ele><time>2026-05-01T13:43:57.3Z</time></trkpt><trkpt lat="40.32287765214595" lon="9.284545395726202"><ele>513.0</ele><time>2026-05-01T13:43:58.25Z</time></trkpt><trkpt lat="40.32298700861398" lon="9.284669587893775"><ele>513.0</ele><time>2026-05-01T13:43:59.2Z</time></trkpt><trkpt lat="40.32309995689297" lon="9.284804744476133"><ele>513.0</ele><time>2026-05-01T13:44:00.15Z</time></trkpt><trkpt lat="40.32320073895361" lon="9.28496259014475"><ele>511.33333333333337</ele><time>2026-05-01T13:44:01.1Z</time></trkpt><trkpt lat="40.323280359476065" lon="9.285141995621265"><ele>509.6666666666667</ele><time>2026-05-01T13:44:02.05Z</time></trkpt><trkpt lat="40.323346221470715" lon="9.285331386207226"><ele>508.0</ele><time>2026-05-01T13:44:03Z</time></trkpt><trkpt lat="40.32342410958361" lon="9.285509576166561"><ele>508.6666666666667</ele><time>2026-05-01T13:44:04Z</time></trkpt><trkpt lat="40.32346449200807" lon="9.285717155760258"><ele>509.33333333333337</ele><time>2026-05-01T13:44:05Z</time></trkpt><trkpt lat="40.323493854904456" lon="9.285929780436483"><ele>510.0</ele><time>2026-05-01T13:44:06Z</time></trkpt><trkpt lat="40.32352423877024" lon="9.286149439563868"><ele>510.0</ele><time>2026-05-01T13:44:07Z</time></trkpt><trkpt lat="40.3235562675709" lon="9.286357496915002"><ele>510.0</ele><time>2026-05-01T13:44:08Z</time></trkpt><trkpt lat="40.323587746471134" lon="9.286557328664184"><ele>510.0</ele><time>2026-05-01T13:44:09Z</time></trkpt><trkpt lat="40.3236129770471" lon="9.286744123726232"><ele>511.2</ele><time>2026-05-01T13:44:10Z</time></trkpt><trkpt lat="40.323633874416885" lon="9.286885477392865"><ele>512.4</ele><time>2026-05-01T13:44:11Z</time></trkpt><trkpt lat="40.32365115538352" lon="9.286980449793129"><ele>513.6</ele><time>2026-05-01T13:44:12Z</time></trkpt><trkpt lat="40.32369260424384" lon="9.28713011244176"><ele>514.8</ele><time>2026-05-01T13:44:14Z</time></trkpt><trkpt lat="40.3237067126563" lon="9.287229086119446"><ele>516.0</ele><time>2026-05-01T13:44:15Z</time></trkpt><trkpt lat="40.323725363747705" lon="9.287365968864423"><ele>518.25</ele><time>2026-05-01T13:44:16Z</time></trkpt><trkpt lat="40.323747400275046" lon="9.287523896475244"><ele>520.5</ele><time>2026-05-01T13:44:17Z</time></trkpt><trkpt lat="40.32377375829047" lon="9.28770145064014"><ele>522.75</ele><time>2026-05-01T13:44:18Z</time></trkpt><trkpt lat="40.32380438142763" lon="9.28789550703732"><ele>525.0</ele><time>2026-05-01T13:44:19Z</time></trkpt><trkpt lat="40.323834174985706" lon="9.288088770683878"><ele>527.3333333333334</ele><time>2026-05-01T13:44:20Z</time></trkpt><trkpt lat="40.323858363698065" lon="9.288287654158184"><ele>529.6666666666667</ele><time>2026-05-01T13:44:21Z</time></trkpt><trkpt lat="40.32388426770924" lon="9.288485069866947"><ele>532.0</ele><time>2026-05-01T13:44:22Z</time></trkpt><trkpt lat="40.3239098918025" lon="9.288681910288673"><ele>527.3333333333334</ele><time>2026-05-01T13:44:23Z</time></trkpt><trkpt lat="40.32393448116499" lon="9.288879790146812"><ele>522.6666666666666</ele><time>2026-05-01T13:44:24Z</time></trkpt><trkpt lat="40.32396212559989" lon="9.289082050254494"><ele>518.0</ele><time>2026-05-01T13:44:25Z</time></trkpt><trkpt lat="40.32399131749306" lon="9.28928421046109"><ele>518.0</ele><time>2026-05-01T13:44:26Z</time></trkpt><trkpt lat="40.32402182121618" lon="9.289486220400978"><ele>518.0</ele><time>2026-05-01T13:44:27Z</time></trkpt><trkpt lat="40.32405230295768" lon="9.28969096599926"><ele>518.0</ele><time>2026-05-01T13:44:28Z</time></trkpt><trkpt lat="40.32408371963395" lon="9.289896387295208"><ele>518.6</ele><time>2026-05-01T13:44:29Z</time></trkpt><trkpt lat="40.32411214167145" lon="9.290101201716293"><ele>519.1999999999999</ele><time>2026-05-01T13:44:30Z</time></trkpt><trkpt lat="40.32413085600474" lon="9.29025522000528"><ele>519.8</ele><time>2026-05-01T13:44:31Z</time></trkpt><trkpt lat="40.32413974749999" lon="9.290339494109547"><ele>520.4</ele><time>2026-05-01T13:44:32Z</time></trkpt><trkpt lat="40.32406393473105" lon="9.290393045786171"><ele>521.0</ele><time>2026-05-01T13:44:51Z</time></trkpt><trkpt lat="40.32402509092123" lon="9.290492096964535"><ele>521.0</ele><time>2026-05-01T13:44:52Z</time></trkpt><trkpt lat="40.323986613275935" lon="9.290620597887882"><ele>521.0</ele><time>2026-05-01T13:44:53Z</time></trkpt><trkpt lat="40.323929076211385" lon="9.290759525758556"><ele>521.0</ele><time>2026-05-01T13:44:54Z</time></trkpt><trkpt lat="40.32385982679688" lon="9.290893764101778"><ele>521.0</ele><time>2026-05-01T13:44:55Z</time></trkpt><trkpt lat="40.3238343614982" lon="9.291025051273875"><ele>521.0</ele><time>2026-05-01T13:44:56Z</time></trkpt><trkpt lat="40.32386139564148" lon="9.291145973639866"><ele>521.0</ele><time>2026-05-01T13:44:57Z</time></trkpt><trkpt lat="40.323932351967706" lon="9.291253607425698"><ele>521.0</ele><time>2026-05-01T13:44:58Z</time></trkpt><trkpt lat="40.324037460942776" lon="9.291328852504861"><ele>521.0</ele><time>2026-05-01T13:44:59Z</time></trkpt><trkpt lat="40.324150458873966" lon="9.291384155953859"><ele>521.0</ele><time>2026-05-01T13:45:00Z</time></trkpt><trkpt lat="40.32426089569228" lon="9.291438499744894"><ele>521.6</ele><time>2026-05-01T13:45:01Z</time></trkpt><trkpt lat="40.324367283428465" lon="9.291503600779874"><ele>522.2</ele><time>2026-05-01T13:45:02Z</time></trkpt><trkpt lat="40.32447540661344" lon="9.291571927822751"><ele>522.8</ele><time>2026-05-01T13:45:03Z</time></trkpt><trkpt lat="40.32456369572975" lon="9.291639497993604"><ele>523.4</ele><time>2026-05-01T13:45:04Z</time></trkpt><trkpt lat="40.324622009962056" lon="9.291678729403404"><ele>524.0</ele><time>2026-05-01T13:45:05Z</time></trkpt><trkpt lat="40.3247307981177" lon="9.291736837323104"><ele>521.5</ele><time>2026-05-01T13:45:07Z</time></trkpt><trkpt lat="40.32482844490087" lon="9.29179903261673"><ele>519.0</ele><time>2026-05-01T13:45:09Z</time></trkpt><trkpt lat="40.324941399736105" lon="9.291901164367198"><ele>516.5</ele><time>2026-05-01T13:45:11Z</time></trkpt><trkpt lat="40.32501423178897" lon="9.291990878688722"><ele>514.0</ele><time>2026-05-01T13:45:12Z</time></trkpt><trkpt lat="40.32510565263341" lon="9.29207575743408"><ele>514.0</ele><time>2026-05-01T13:45:13Z</time></trkpt><trkpt lat="40.325220281048644" lon="9.29212972106841"><ele>514.0</ele><time>2026-05-01T13:45:14Z</time></trkpt><trkpt lat="40.32535756884323" lon="9.292136784342839"><ele>514.0</ele><time>2026-05-01T13:45:15Z</time></trkpt><trkpt lat="40.325501467053755" lon="9.292123515156641"><ele>514.0</ele><time>2026-05-01T13:45:16Z</time></trkpt><trkpt lat="40.325646682003644" lon="9.292095692594398"><ele>513.6666666666667</ele><time>2026-05-01T13:45:17Z</time></trkpt><trkpt lat="40.3257975343181" lon="9.292214928083027"><ele>513.3333333333334</ele><time>2026-05-01T13:45:18Z</time></trkpt><trkpt lat="40.325956316997555" lon="9.292269384873757"><ele>513.0</ele><time>2026-05-01T13:45:19Z</time></trkpt><trkpt lat="40.32613277447444" lon="9.292302665962781"><ele>513.0</ele><time>2026-05-01T13:45:20Z</time></trkpt><trkpt lat="40.32632205476461" lon="9.292310521213716"><ele>513.0</ele><time>2026-05-01T13:45:21Z</time></trkpt><trkpt lat="40.326508786526794" lon="9.292309970276916"><ele>513.0</ele><time>2026-05-01T13:45:22Z</time></trkpt><trkpt lat="40.32669799576777" lon="9.29230797607969"><ele>512.3333333333334</ele><time>2026-05-01T13:45:23Z</time></trkpt><trkpt lat="40.32688282992289" lon="9.29231488219288"><ele>511.6666666666667</ele><time>2026-05-01T13:45:24Z</time></trkpt><trkpt lat="40.327057163890686" lon="9.292325472029662"><ele>511.0</ele><time>2026-05-01T13:45:25Z</time></trkpt><trkpt lat="40.32722304406482" lon="9.292333608701854"><ele>509.33333333333337</ele><time>2026-05-01T13:45:26Z</time></trkpt><trkpt lat="40.327380958495546" lon="9.292337614296587"><ele>507.66666666666663</ele><time>2026-05-01T13:45:27Z</time></trkpt><trkpt lat="40.32753196832948" lon="9.292339384389182"><ele>506.0</ele><time>2026-05-01T13:45:28Z</time></trkpt><trkpt lat="40.327677369478906" lon="9.292340792289558"><ele>506.0</ele><time>2026-05-01T13:45:29Z</time></trkpt><trkpt lat="40.327814805842664" lon="9.292346444850896"><ele>506.0</ele><time>2026-05-01T13:45:30Z</time></trkpt><trkpt lat="40.32794696929963" lon="9.292351289376809"><ele>506.0</ele><time>2026-05-01T13:45:31Z</time></trkpt><trkpt lat="40.328072138748595" lon="9.292347878259923"><ele>506.0</ele><time>2026-05-01T13:45:32Z</time></trkpt><trkpt lat="40.32819105826813" lon="9.292321841856895"><ele>505.0</ele><time>2026-05-01T13:45:33Z</time></trkpt><trkpt lat="40.32829889608828" lon="9.29226570074927"><ele>504.0</ele><time>2026-05-01T13:45:34Z</time></trkpt><trkpt lat="40.3283861985071" lon="9.292184566978303"><ele>503.0</ele><time>2026-05-01T13:45:35Z</time></trkpt><trkpt lat="40.32845588015223" lon="9.292091539309538"><ele>502.0</ele><time>2026-05-01T13:45:36Z</time></trkpt><trkpt lat="40.32851089970331" lon="9.291997441882508"><ele>501.0</ele><time>2026-05-01T13:45:37Z</time></trkpt><trkpt lat="40.32855778018999" lon="9.291898963532304"><ele>499.5</ele><time>2026-05-01T13:45:38Z</time></trkpt><trkpt lat="40.32858381778817" lon="9.291772671902262"><ele>498.0</ele><time>2026-05-01T13:45:39Z</time></trkpt><trkpt lat="40.32859997797149" lon="9.291615763012349"><ele>496.5</ele><time>2026-05-01T13:45:40Z</time></trkpt><trkpt lat="40.32860837209838" lon="9.291453443870253"><ele>495.0</ele><time>2026-05-01T13:45:41Z</time></trkpt><trkpt lat="40.32861644107047" lon="9.291279994729654"><ele>494.5</ele><time>2026-05-01T13:45:42Z</time></trkpt><trkpt lat="40.328632932243615" lon="9.291091070391987"><ele>494.0</ele><time>2026-05-01T13:45:43Z</time></trkpt><trkpt lat="40.32865538762001" lon="9.290894233552555"><ele>493.5</ele><time>2026-05-01T13:45:44Z</time></trkpt><trkpt lat="40.32868854260332" lon="9.290705644849425"><ele>493.0</ele><time>2026-05-01T13:45:45Z</time></trkpt><trkpt lat="40.32871119751649" lon="9.290530955346977"><ele>492.0</ele><time>2026-05-01T13:45:46Z</time></trkpt><trkpt lat="40.32872592371204" lon="9.290364644350609"><ele>491.0</ele><time>2026-05-01T13:45:47Z</time></trkpt><trkpt lat="40.328742471020135" lon="9.29019939559521"><ele>490.0</ele><time>2026-05-01T13:45:48Z</time></trkpt><trkpt lat="40.328760255755284" lon="9.290035344879943"><ele>489.0</ele><time>2026-05-01T13:45:49Z</time></trkpt><trkpt lat="40.328772576884035" lon="9.289881594150668"><ele>488.5</ele><time>2026-05-01T13:45:50Z</time></trkpt><trkpt lat="40.328784740473395" lon="9.289738074958207"><ele>488.0</ele><time>2026-05-01T13:45:51Z</time></trkpt><trkpt lat="40.328811478432335" lon="9.289601718422464"><ele>487.5</ele><time>2026-05-01T13:45:52Z</time></trkpt><trkpt lat="40.32886776449687" lon="9.289474678424321"><ele>487.0</ele><time>2026-05-01T13:45:53Z</time></trkpt><trkpt lat="40.328948831664945" lon="9.289358300821906"><ele>486.25</ele><time>2026-05-01T13:45:54Z</time></trkpt><trkpt lat="40.32905219361407" lon="9.289267348243575"><ele>485.5</ele><time>2026-05-01T13:45:55Z</time></trkpt><trkpt lat="40.32909479831182" lon="9.289109263437028"><ele>484.75</ele><time>2026-05-01T13:45:56Z</time></trkpt><trkpt lat="40.329122152017426" lon="9.288944072965178"><ele>484.0</ele><time>2026-05-01T13:45:57Z</time></trkpt><trkpt lat="40.32916471535209" lon="9.288776930778127"><ele>484.0</ele><time>2026-05-01T13:45:58Z</time></trkpt><trkpt lat="40.32925898336504" lon="9.288652532031806"><ele>484.0</ele><time>2026-05-01T13:45:59Z</time></trkpt><trkpt lat="40.32937277740693" lon="9.28854227053367"><ele>484.0</ele><time>2026-05-01T13:46:00Z</time></trkpt><trkpt lat="40.32948085276273" lon="9.288423179949763"><ele>484.0</ele><time>2026-05-01T13:46:01Z</time></trkpt><trkpt lat="40.32959065373292" lon="9.2883030295992"><ele>484.0</ele><time>2026-05-01T13:46:02Z</time></trkpt><trkpt lat="40.32970333846932" lon="9.288185862353705"><ele>484.0</ele><time>2026-05-01T13:46:03Z</time></trkpt><trkpt lat="40.329819968354826" lon="9.288072817531521"><ele>484.0</ele><time>2026-05-01T13:46:04Z</time></trkpt><trkpt lat="40.32993702000136" lon="9.287963843033088"><ele>484.0</ele><time>2026-05-01T13:46:05Z</time></trkpt><trkpt lat="40.33004957893702" lon="9.287864755343357"><ele>483.75</ele><time>2026-05-01T13:46:06Z</time></trkpt><trkpt lat="40.33016753430483" lon="9.28776619145974"><ele>483.5</ele><time>2026-05-01T13:46:07Z</time></trkpt><trkpt lat="40.33028968815647" lon="9.28767077596901"><ele>483.25</ele><time>2026-05-01T13:46:08Z</time></trkpt><trkpt lat="40.330413025260796" lon="9.287576937828582"><ele>483.0</ele><time>2026-05-01T13:46:09Z</time></trkpt><trkpt lat="40.33053582446462" lon="9.2874776052424"><ele>483.0</ele><time>2026-05-01T13:46:10Z</time></trkpt><trkpt lat="40.33066047557447" lon="9.287377325343598"><ele>483.0</ele><time>2026-05-01T13:46:11Z</time></trkpt><trkpt lat="40.33078712961871" lon="9.287271076795172"><ele>483.0</ele><time>2026-05-01T13:46:12Z</time></trkpt><trkpt lat="40.33091478637234" lon="9.287168695214982"><ele>483.0</ele><time>2026-05-01T13:46:13Z</time></trkpt><trkpt lat="40.331049167275516" lon="9.287062487533971"><ele>483.0</ele><time>2026-05-01T13:46:14Z</time></trkpt><trkpt lat="40.33119265306865" lon="9.286951829171542"><ele>483.0</ele><time>2026-05-01T13:46:15Z</time></trkpt><trkpt lat="40.3313446013865" lon="9.286838338204056"><ele>483.0</ele><time>2026-05-01T13:46:16Z</time></trkpt><trkpt lat="40.331500209310406" lon="9.28671763946024"><ele>483.0</ele><time>2026-05-01T13:46:17Z</time></trkpt><trkpt lat="40.33166346931668" lon="9.286589748478987"><ele>483.0</ele><time>2026-05-01T13:46:18Z</time></trkpt><trkpt lat="40.331833298842476" lon="9.28645563027657"><ele>483.0</ele><time>2026-05-01T13:46:19Z</time></trkpt><trkpt lat="40.332008144037985" lon="9.28631882225542"><ele>483.0</ele><time>2026-05-01T13:46:20Z</time></trkpt><trkpt lat="40.332187899791165" lon="9.286178575981273"><ele>483.0</ele><time>2026-05-01T13:46:21Z</time></trkpt><trkpt lat="40.33237110915144" lon="9.286035929869216"><ele>483.0</ele><time>2026-05-01T13:46:22Z</time></trkpt><trkpt lat="40.33255553055247" lon="9.285888594874795"><ele>483.0</ele><time>2026-05-01T13:46:23Z</time></trkpt><trkpt lat="40.332745536676406" lon="9.285735694460415"><ele>483.0</ele><time>2026-05-01T13:46:24Z</time></trkpt><trkpt lat="40.332947691667584" lon="9.285577029657857"><ele>484.0</ele><time>2026-05-01T13:46:25Z</time></trkpt><trkpt lat="40.33315244197167" lon="9.285424429895178"><ele>485.0</ele><time>2026-05-01T13:46:26Z</time></trkpt><trkpt lat="40.33336039446822" lon="9.285297238895668"><ele>485.0</ele><time>2026-05-01T13:46:27Z</time></trkpt><trkpt lat="40.33357595131816" lon="9.285215180035687"><ele>485.0</ele><time>2026-05-01T13:46:28Z</time></trkpt><trkpt lat="40.333802422229574" lon="9.285179637332776"><ele>485.0</ele><time>2026-05-01T13:46:29Z</time></trkpt><trkpt lat="40.334041095226766" lon="9.285178005971716"><ele>485.0</ele><time>2026-05-01T13:46:30Z</time></trkpt><trkpt lat="40.33426567614187" lon="9.285203708625595"><ele>485.0</ele><time>2026-05-01T13:46:31Z</time></trkpt><trkpt lat="40.33446432328324" lon="9.28527462067027"><ele>485.0</ele><time>2026-05-01T13:46:32Z</time></trkpt><trkpt lat="40.33464939929868" lon="9.285388170836185"><ele>485.0</ele><time>2026-05-01T13:46:33Z</time></trkpt><trkpt lat="40.33480377274929" lon="9.285551728439154"><ele>487.3333333333333</ele><time>2026-05-01T13:46:34Z</time></trkpt><trkpt lat="40.334897971901526" lon="9.285746882659152"><ele>489.66666666666663</ele><time>2026-05-01T13:46:35Z</time></trkpt><trkpt lat="40.334968661764286" lon="9.28594313355945"><ele>492.0</ele><time>2026-05-01T13:46:36Z</time></trkpt><trkpt lat="40.33502409380299" lon="9.286160602377393"><ele>492.0</ele><time>2026-05-01T13:46:37Z</time></trkpt><trkpt lat="40.33501481129752" lon="9.286380796019742"><ele>492.0</ele><time>2026-05-01T13:46:38Z</time></trkpt><trkpt lat="40.33495484752378" lon="9.286597303454142"><ele>492.0</ele><time>2026-05-01T13:46:39Z</time></trkpt><trkpt lat="40.334925386167505" lon="9.286836306697401"><ele>492.66666666666663</ele><time>2026-05-01T13:46:40Z</time></trkpt><trkpt lat="40.33489423060503" lon="9.287081781744643"><ele>493.3333333333333</ele><time>2026-05-01T13:46:41Z</time></trkpt><trkpt lat="40.33492061263838" lon="9.287341601995182"><ele>494.0</ele><time>2026-05-01T13:46:42Z</time></trkpt><trkpt lat="40.334987950770106" lon="9.287616071705953"><ele>495.66666666666663</ele><time>2026-05-01T13:46:43Z</time></trkpt><trkpt lat="40.335044759521054" lon="9.287904632157984"><ele>497.33333333333337</ele><time>2026-05-01T13:46:44Z</time></trkpt><trkpt lat="40.33511667236805" lon="9.28815806946161"><ele>499.0</ele><time>2026-05-01T13:46:45Z</time></trkpt><trkpt lat="40.33522817962491" lon="9.288391609302668"><ele>499.5</ele><time>2026-05-01T13:46:46Z</time></trkpt><trkpt lat="40.33537857313136" lon="9.28862581249402"><ele>500.0</ele><time>2026-05-01T13:46:47Z</time></trkpt><trkpt lat="40.33550227075691" lon="9.288866827049011"><ele>503.0</ele><time>2026-05-01T13:46:48Z</time></trkpt><trkpt lat="40.33568752289937" lon="9.289109739679468"><ele>506.0</ele><time>2026-05-01T13:46:49Z</time></trkpt><trkpt lat="40.33585011728484" lon="9.289338157775001"><ele>506.0</ele><time>2026-05-01T13:46:50Z</time></trkpt><trkpt lat="40.33601420996827" lon="9.289523543172912"><ele>506.0</ele><time>2026-05-01T13:46:51Z</time></trkpt><trkpt lat="40.33621651716088" lon="9.289672976309479"><ele>506.0</ele><time>2026-05-01T13:46:52Z</time></trkpt><trkpt lat="40.33643821235317" lon="9.28981899612684"><ele>508.0</ele><time>2026-05-01T13:46:53Z</time></trkpt><trkpt lat="40.33664931362471" lon="9.289960865139607"><ele>510.0</ele><time>2026-05-01T13:46:54Z</time></trkpt><trkpt lat="40.33683406582755" lon="9.290101670724479"><ele>510.0</ele><time>2026-05-01T13:46:55Z</time></trkpt><trkpt lat="40.336981243353456" lon="9.290290604205701"><ele>510.0</ele><time>2026-05-01T13:46:56Z</time></trkpt><trkpt lat="40.33710379836952" lon="9.290499238559525"><ele>510.0</ele><time>2026-05-01T13:46:57Z</time></trkpt><trkpt lat="40.33721645197216" lon="9.29069660784498"><ele>510.66666666666663</ele><time>2026-05-01T13:46:58Z</time></trkpt><trkpt lat="40.337333461448" lon="9.290862795539407"><ele>511.3333333333333</ele><time>2026-05-01T13:46:59Z</time></trkpt><trkpt lat="40.337443006555084" lon="9.291003769818628"><ele>512.0</ele><time>2026-05-01T13:47:00Z</time></trkpt><trkpt lat="40.33757713407261" lon="9.291079976623942"><ele>512.0</ele><time>2026-05-01T13:47:01Z</time></trkpt><trkpt lat="40.337717427207174" lon="9.291079981408263"><ele>512.0</ele><time>2026-05-01T13:47:02Z</time></trkpt><trkpt lat="40.337864004039844" lon="9.291026220520461"><ele>512.0</ele><time>2026-05-01T13:47:03Z</time></trkpt><trkpt lat="40.33801310750003" lon="9.290954564345945"><ele>512.0</ele><time>2026-05-01T13:47:04Z</time></trkpt><trkpt lat="40.33814086370333" lon="9.291007042464514"><ele>512.0</ele><time>2026-05-01T13:47:05Z</time></trkpt><trkpt lat="40.33824169849486" lon="9.291102548260913"><ele>512.0</ele><time>2026-05-01T13:47:06Z</time></trkpt><trkpt lat="40.33837297169792" lon="9.291209807534036"><ele>512.0</ele><time>2026-05-01T13:47:07Z</time></trkpt><trkpt lat="40.33850377942324" lon="9.291409636660644"><ele>512.0</ele><time>2026-05-01T13:47:08Z</time></trkpt><trkpt lat="40.33851791482583" lon="9.291738031812796"><ele>512.0</ele><time>2026-05-01T13:47:09Z</time></trkpt><trkpt lat="40.3385496385282" lon="9.291987526462334"><ele>512.0</ele><time>2026-05-01T13:47:10Z</time></trkpt><trkpt lat="40.338587808217525" lon="9.292279826062769"><ele>512.3333333333333</ele><time>2026-05-01T13:47:11Z</time></trkpt><trkpt lat="40.33863596206399" lon="9.292526361337401"><ele>512.6666666666666</ele><time>2026-05-01T13:47:12Z</time></trkpt><trkpt lat="40.338691618897585" lon="9.292769936912167"><ele>513.0</ele><time>2026-05-01T13:47:13Z</time></trkpt><trkpt lat="40.33876987124277" lon="9.293005978395856"><ele>513.6666666666666</ele><time>2026-05-01T13:47:14Z</time></trkpt><trkpt lat="40.33887457488532" lon="9.293239414942454"><ele>514.3333333333333</ele><time>2026-05-01T13:47:15Z</time></trkpt><trkpt lat="40.339006523377954" lon="9.293460770023922"><ele>515.0</ele><time>2026-05-01T13:47:16Z</time></trkpt><trkpt lat="40.339154092092436" lon="9.29366607975419"><ele>516.6666666666666</ele><time>2026-05-01T13:47:17Z</time></trkpt><trkpt lat="40.339307460673055" lon="9.293831178389683"><ele>518.3333333333334</ele><time>2026-05-01T13:47:18Z</time></trkpt><trkpt lat="40.33947215793509" lon="9.29394959807914"><ele>520.0</ele><time>2026-05-01T13:47:19Z</time></trkpt><trkpt lat="40.33967186561311" lon="9.294021843071679"><ele>521.6666666666667</ele><time>2026-05-01T13:47:20Z</time></trkpt><trkpt lat="40.33987705089155" lon="9.294088107175911"><ele>523.3333333333334</ele><time>2026-05-01T13:47:21Z</time></trkpt><trkpt lat="40.34008296146949" lon="9.294121910925407"><ele>525.0</ele><time>2026-05-01T13:47:22Z</time></trkpt><trkpt lat="40.34029663880899" lon="9.294107145693175"><ele>525.0</ele><time>2026-05-01T13:47:23Z</time></trkpt><trkpt lat="40.34051956345722" lon="9.294062792267656"><ele>525.0</ele><time>2026-05-01T13:47:24Z</time></trkpt><trkpt lat="40.340743210659674" lon="9.294031186998453"><ele>525.5</ele><time>2026-05-01T13:47:25Z</time></trkpt><trkpt lat="40.34097246862207" lon="9.294006794782645"><ele>526.0</ele><time>2026-05-01T13:47:26Z</time></trkpt><trkpt lat="40.341207718732406" lon="9.293982662712976"><ele>526.5</ele><time>2026-05-01T13:47:27Z</time></trkpt><trkpt lat="40.34144795724679" lon="9.29395884722096"><ele>527.0</ele><time>2026-05-01T13:47:28Z</time></trkpt><trkpt lat="40.34169058345652" lon="9.293932858922256"><ele>531.5</ele><time>2026-05-01T13:47:29Z</time></trkpt><trkpt lat="40.341933019115984" lon="9.293906866326319"><ele>536.0</ele><time>2026-05-01T13:47:30Z</time></trkpt><trkpt lat="40.34217351045147" lon="9.293886064065862"><ele>537.3333333333333</ele><time>2026-05-01T13:47:31Z</time></trkpt><trkpt lat="40.34237931689177" lon="9.293855061573977"><ele>538.6666666666666</ele><time>2026-05-01T13:47:32Z</time></trkpt><trkpt lat="40.342575741527206" lon="9.293848493179887"><ele>540.0</ele><time>2026-05-01T13:47:33Z</time></trkpt><trkpt lat="40.342752156156266" lon="9.293907606331597"><ele>539.6666666666666</ele><time>2026-05-01T13:47:34Z</time></trkpt><trkpt lat="40.342915217342615" lon="9.294022566746124"><ele>539.3333333333333</ele><time>2026-05-01T13:47:35Z</time></trkpt><trkpt lat="40.34306903725192" lon="9.294199361175528"><ele>539.0</ele><time>2026-05-01T13:47:36Z</time></trkpt><trkpt lat="40.343224309740734" lon="9.29436312288095"><ele>539.0</ele><time>2026-05-01T13:47:37Z</time></trkpt><trkpt lat="40.34337040045149" lon="9.294489879152986"><ele>539.0</ele><time>2026-05-01T13:47:38Z</time></trkpt><trkpt lat="40.34351576710207" lon="9.294565828756493"><ele>539.0</ele><time>2026-05-01T13:47:39Z</time></trkpt><trkpt lat="40.34367449986108" lon="9.294569022084804"><ele>539.0</ele><time>2026-05-01T13:47:40Z</time></trkpt><trkpt lat="40.343852380692354" lon="9.294503987743346"><ele>539.0</ele><time>2026-05-01T13:47:41Z</time></trkpt><trkpt lat="40.34403014633225" lon="9.294445980749918"><ele>539.0</ele><time>2026-05-01T13:47:42Z</time></trkpt><trkpt lat="40.344198370532965" lon="9.294474658344665"><ele>540.0</ele><time>2026-05-01T13:47:43Z</time></trkpt><trkpt lat="40.34437915035664" lon="9.29456976468269"><ele>541.0</ele><time>2026-05-01T13:47:44Z</time></trkpt><trkpt lat="40.34457667516204" lon="9.294654161469754"><ele>542.0</ele><time>2026-05-01T13:47:45Z</time></trkpt><trkpt lat="40.34476796133137" lon="9.294703676533091"><ele>542.3333333333333</ele><time>2026-05-01T13:47:46Z</time></trkpt><trkpt lat="40.34495898135752" lon="9.294727134398983"><ele>542.6666666666666</ele><time>2026-05-01T13:47:47Z</time></trkpt><trkpt lat="40.345139383089396" lon="9.294714470975324"><ele>543.0</ele><time>2026-05-01T13:47:48Z</time></trkpt><trkpt lat="40.345304951667934" lon="9.294658473321489"><ele>543.0</ele><time>2026-05-01T13:47:49Z</time></trkpt><trkpt lat="40.34545779627358" lon="9.294552650239034"><ele>543.0</ele><time>2026-05-01T13:47:50Z</time></trkpt><trkpt lat="40.345594365849486" lon="9.294403873291538"><ele>543.0</ele><time>2026-05-01T13:47:51Z</time></trkpt><trkpt lat="40.34572239383035" lon="9.294208452141845"><ele>541.6666666666666</ele><time>2026-05-01T13:47:52Z</time></trkpt><trkpt lat="40.345827513269086" lon="9.293992749041637"><ele>540.3333333333333</ele><time>2026-05-01T13:47:53Z</time></trkpt><trkpt lat="40.34589323816898" lon="9.29377167057182"><ele>539.0</ele><time>2026-05-01T13:47:54Z</time></trkpt><trkpt lat="40.345913827698276" lon="9.293548706387135"><ele>539.0</ele><time>2026-05-01T13:47:55Z</time></trkpt><trkpt lat="40.34588605604966" lon="9.29330623613056"><ele>539.0</ele><time>2026-05-01T13:47:56Z</time></trkpt><trkpt lat="40.34584593710038" lon="9.293052353620125"><ele>539.0</ele><time>2026-05-01T13:47:57Z</time></trkpt><trkpt lat="40.345830254137454" lon="9.292779644108334"><ele>539.6666666666666</ele><time>2026-05-01T13:47:58Z</time></trkpt><trkpt lat="40.3458301397076" lon="9.292496348493689"><ele>540.3333333333334</ele><time>2026-05-01T13:47:59Z</time></trkpt><trkpt lat="40.34581628736392" lon="9.292204326630033"><ele>541.0</ele><time>2026-05-01T13:48:00Z</time></trkpt><trkpt lat="40.345790351144394" lon="9.291909633760092"><ele>541.3333333333334</ele><time>2026-05-01T13:48:01Z</time></trkpt><trkpt lat="40.34579030649124" lon="9.291608672318594"><ele>541.6666666666666</ele><time>2026-05-01T13:48:02Z</time></trkpt><trkpt lat="40.34580618608374" lon="9.291330415281399"><ele>542.0</ele><time>2026-05-01T13:48:03Z</time></trkpt><trkpt lat="40.345824704537044" lon="9.29107226153397"><ele>542.3333333333333</ele><time>2026-05-01T13:48:04Z</time></trkpt><trkpt lat="40.34583276427485" lon="9.290831077861773"><ele>542.6666666666666</ele><time>2026-05-01T13:48:05Z</time></trkpt><trkpt lat="40.34588556210711" lon="9.290630265133483"><ele>543.0</ele><time>2026-05-01T13:48:06Z</time></trkpt><trkpt lat="40.34597498404106" lon="9.290491595815997"><ele>543.0</ele><time>2026-05-01T13:48:07Z</time></trkpt><trkpt lat="40.34610001751027" lon="9.290355276584346"><ele>543.0</ele><time>2026-05-01T13:48:08Z</time></trkpt><trkpt lat="40.346252026815996" lon="9.290197980966644"><ele>543.0</ele><time>2026-05-01T13:48:09Z</time></trkpt><trkpt lat="40.34637639170867" lon="9.290021974943805"><ele>542.3333333333334</ele><time>2026-05-01T13:48:10Z</time></trkpt><trkpt lat="40.346479620782254" lon="9.289817196465899"><ele>541.6666666666667</ele><time>2026-05-01T13:48:11Z</time></trkpt><trkpt lat="40.346565855945116" lon="9.289576222438166"><ele>541.0</ele><time>2026-05-01T13:48:12Z</time></trkpt><trkpt lat="40.34666471368706" lon="9.289345899492497"><ele>543.0</ele><time>2026-05-01T13:48:13Z</time></trkpt><trkpt lat="40.346766264429114" lon="9.289160863131722"><ele>545.0</ele><time>2026-05-01T13:48:14Z</time></trkpt><trkpt lat="40.34684041040798" lon="9.288973884822747"><ele>547.0</ele><time>2026-05-01T13:48:15Z</time></trkpt><trkpt lat="40.346863591570916" lon="9.288747572295073"><ele>548.0</ele><time>2026-05-01T13:48:16Z</time></trkpt><trkpt lat="40.346863606920394" lon="9.288477246180346"><ele>549.0</ele><time>2026-05-01T13:48:17Z</time></trkpt><trkpt lat="40.34687788690236" lon="9.28818577857108"><ele>550.0</ele><time>2026-05-01T13:48:18Z</time></trkpt><trkpt lat="40.34695617763746" lon="9.287901388396797"><ele>551.6666666666667</ele><time>2026-05-01T13:48:19Z</time></trkpt><trkpt lat="40.34703222284209" lon="9.28764231928961"><ele>553.3333333333334</ele><time>2026-05-01T13:48:20Z</time></trkpt><trkpt lat="40.347088909628255" lon="9.287391951125791"><ele>555.0</ele><time>2026-05-01T13:48:21Z</time></trkpt><trkpt lat="40.34720139295207" lon="9.287175188484666"><ele>554.3333333333334</ele><time>2026-05-01T13:48:22Z</time></trkpt><trkpt lat="40.34732232820972" lon="9.286974925693041"><ele>553.6666666666667</ele><time>2026-05-01T13:48:23Z</time></trkpt><trkpt lat="40.34742761405941" lon="9.286776818790244"><ele>553.0</ele><time>2026-05-01T13:48:24Z</time></trkpt><trkpt lat="40.347515470942284" lon="9.286554205364725"><ele>554.0</ele><time>2026-05-01T13:48:25Z</time></trkpt><trkpt lat="40.34757131848282" lon="9.286288736598745"><ele>555.0</ele><time>2026-05-01T13:48:26Z</time></trkpt><trkpt lat="40.347612236045485" lon="9.286026586125368"><ele>556.0</ele><time>2026-05-01T13:48:27Z</time></trkpt><trkpt lat="40.34765599249327" lon="9.285796826667031"><ele>556.0</ele><time>2026-05-01T13:48:28Z</time></trkpt><trkpt lat="40.347722708068666" lon="9.285602160388445"><ele>556.0</ele><time>2026-05-01T13:48:29Z</time></trkpt><trkpt lat="40.34780797911244" lon="9.285448598352156"><ele>556.0</ele><time>2026-05-01T13:48:30Z</time></trkpt><trkpt lat="40.34792486565135" lon="9.285341127184122"><ele>555.6666666666667</ele><time>2026-05-01T13:48:31Z</time></trkpt><trkpt lat="40.34806839138792" lon="9.285285625132873"><ele>555.3333333333334</ele><time>2026-05-01T13:48:32Z</time></trkpt><trkpt lat="40.34822367555726" lon="9.285290141510597"><ele>555.0</ele><time>2026-05-01T13:48:33Z</time></trkpt><trkpt lat="40.348383452835094" lon="9.28536400554978"><ele>555.0</ele><time>2026-05-01T13:48:34Z</time></trkpt><trkpt lat="40.34855370439036" lon="9.285439181291208"><ele>555.0</ele><time>2026-05-01T13:48:35Z</time></trkpt><trkpt lat="40.34868508818309" lon="9.285547566423704"><ele>555.0</ele><time>2026-05-01T13:48:36Z</time></trkpt><trkpt lat="40.34877130527225" lon="9.2857003706689"><ele>555.0</ele><time>2026-05-01T13:48:37Z</time></trkpt><trkpt lat="40.34884786404117" lon="9.285880013136822"><ele>555.0</ele><time>2026-05-01T13:48:38Z</time></trkpt><trkpt lat="40.34892730250653" lon="9.286065497498159"><ele>555.0</ele><time>2026-05-01T13:48:39Z</time></trkpt><trkpt lat="40.348985726246504" lon="9.286264608518408"><ele>557.0</ele><time>2026-05-01T13:48:40Z</time></trkpt><trkpt lat="40.349046559656415" lon="9.28646056050273"><ele>559.0</ele><time>2026-05-01T13:48:41Z</time></trkpt><trkpt lat="40.34910755688221" lon="9.286656793477949"><ele>561.0</ele><time>2026-05-01T13:48:42Z</time></trkpt><trkpt lat="40.34916668031468" lon="9.286843001480488"><ele>561.0</ele><time>2026-05-01T13:48:43Z</time></trkpt><trkpt lat="40.3492223758455" lon="9.286994050575048"><ele>561.0</ele><time>2026-05-01T13:48:44Z</time></trkpt><trkpt lat="40.349302310270815" lon="9.287090849244308"><ele>561.0</ele><time>2026-05-01T13:48:45Z</time></trkpt><trkpt lat="40.349417639969985" lon="9.287121270670958"><ele>561.0</ele><time>2026-05-01T13:48:46Z</time></trkpt><trkpt lat="40.34955105667086" lon="9.287081146930229"><ele>561.0</ele><time>2026-05-01T13:48:47Z</time></trkpt><trkpt lat="40.34968977410007" lon="9.287038823628283"><ele>561.0</ele><time>2026-05-01T13:48:48Z</time></trkpt><trkpt lat="40.34981264513156" lon="9.287096888674885"><ele>561.0</ele><time>2026-05-01T13:48:49Z</time></trkpt><trkpt lat="40.34988375173778" lon="9.287215585849236"><ele>561.0</ele><time>2026-05-01T13:48:50Z</time></trkpt><trkpt lat="40.34995109067441" lon="9.287393355284296"><ele>563.0</ele><time>2026-05-01T13:48:51Z</time></trkpt><trkpt lat="40.35003362141285" lon="9.287589056922664"><ele>565.0</ele><time>2026-05-01T13:48:52Z</time></trkpt><trkpt lat="40.35010723359831" lon="9.287751019371811"><ele>567.0</ele><time>2026-05-01T13:48:53Z</time></trkpt><trkpt lat="40.35021824478337" lon="9.287845847523158"><ele>569.0</ele><time>2026-05-01T13:48:54Z</time></trkpt><trkpt lat="40.35035909161116" lon="9.287899161763692"><ele>569.0</ele><time>2026-05-01T13:48:55Z</time></trkpt><trkpt lat="40.35046599206776" lon="9.28798015968765"><ele>569.0</ele><time>2026-05-01T13:48:56Z</time></trkpt><trkpt lat="40.35050908237081" lon="9.288125527624013"><ele>569.0</ele><time>2026-05-01T13:48:57Z</time></trkpt><trkpt lat="40.35055832481895" lon="9.28828022637454"><ele>569.0</ele><time>2026-05-01T13:48:58Z</time></trkpt><trkpt lat="40.3506213306601" lon="9.288405944918377"><ele>571.25</ele><time>2026-05-01T13:48:59Z</time></trkpt><trkpt lat="40.35074380215193" lon="9.28847843490656"><ele>573.5</ele><time>2026-05-01T13:49:00Z</time></trkpt><trkpt lat="40.35088635096584" lon="9.28847972073339"><ele>575.75</ele><time>2026-05-01T13:49:01Z</time></trkpt><trkpt lat="40.35102864033585" lon="9.288461133977354"><ele>578.0</ele><time>2026-05-01T13:49:02Z</time></trkpt><trkpt lat="40.35113001327751" lon="9.288548777497507"><ele>578.0</ele><time>2026-05-01T13:49:03Z</time></trkpt><trkpt lat="40.35117979839823" lon="9.288666488748571"><ele>578.0</ele><time>2026-05-01T13:49:04Z</time></trkpt><trkpt lat="40.3511997087348" lon="9.288775066646613"><ele>578.0</ele><time>2026-05-01T13:49:05Z</time></trkpt><trkpt lat="40.35108531958765" lon="9.288864267454937"><ele>578.0</ele><time>2026-05-01T13:49:06Z</time></trkpt><trkpt lat="40.351004139402086" lon="9.288989309924089"><ele>578.0</ele><time>2026-05-01T13:49:07Z</time></trkpt><trkpt lat="40.35094064716962" lon="9.289153118157543"><ele>578.25</ele><time>2026-05-01T13:49:08Z</time></trkpt><trkpt lat="40.35094915072721" lon="9.289315633795976"><ele>578.5</ele><time>2026-05-01T13:49:09Z</time></trkpt><trkpt lat="40.35103668298789" lon="9.289476602099153"><ele>578.75</ele><time>2026-05-01T13:49:10Z</time></trkpt><trkpt lat="40.351130711063746" lon="9.289644128409217"><ele>579.0</ele><time>2026-05-01T13:49:11Z</time></trkpt><trkpt lat="40.35122002891301" lon="9.289776036109"><ele>579.5</ele><time>2026-05-01T13:49:12Z</time></trkpt><trkpt lat="40.35132753149592" lon="9.289863145129893"><ele>580.0</ele><time>2026-05-01T13:49:13Z</time></trkpt><trkpt lat="40.35146523170558" lon="9.289855084769165"><ele>580.5</ele><time>2026-05-01T13:49:14Z</time></trkpt><trkpt lat="40.351597031148714" lon="9.289778042085903"><ele>581.0</ele><time>2026-05-01T13:49:15Z</time></trkpt><trkpt lat="40.351670756335274" lon="9.289599322388144"><ele>582.6666666666666</ele><time>2026-05-01T13:49:16Z</time></trkpt><trkpt lat="40.35176908850864" lon="9.289417578848752"><ele>584.3333333333334</ele><time>2026-05-01T13:49:17Z</time></trkpt><trkpt lat="40.35187390154621" lon="9.289234412622386"><ele>586.0</ele><time>2026-05-01T13:49:18Z</time></trkpt><trkpt lat="40.3519926560421" lon="9.289065826730113"><ele>586.3333333333334</ele><time>2026-05-01T13:49:19Z</time></trkpt><trkpt lat="40.35209347519963" lon="9.288883735384184"><ele>586.6666666666666</ele><time>2026-05-01T13:49:20Z</time></trkpt><trkpt lat="40.352151976201554" lon="9.288666331889885"><ele>587.0</ele><time>2026-05-01T13:49:21Z</time></trkpt><trkpt lat="40.35216768846736" lon="9.28840337606182"><ele>587.0</ele><time>2026-05-01T13:49:22Z</time></trkpt><trkpt lat="40.352181531495546" lon="9.28813924203236"><ele>587.0</ele><time>2026-05-01T13:49:23Z</time></trkpt><trkpt lat="40.35219162937177" lon="9.287910213814746"><ele>587.0</ele><time>2026-05-01T13:49:24Z</time></trkpt><trkpt lat="40.352240190853294" lon="9.287704521481059"><ele>590.25</ele><time>2026-05-01T13:49:25Z</time></trkpt><trkpt lat="40.352323829090544" lon="9.287583610713897"><ele>593.5</ele><time>2026-05-01T13:49:26Z</time></trkpt><trkpt lat="40.35243205150311" lon="9.287463456940058"><ele>596.75</ele><time>2026-05-01T13:49:27Z</time></trkpt><trkpt lat="40.35255709458744" lon="9.287375147533606"><ele>600.0</ele><time>2026-05-01T13:49:28Z</time></trkpt><trkpt lat="40.352674488777545" lon="9.287364237035268"><ele>600.0</ele><time>2026-05-01T13:49:29Z</time></trkpt><trkpt lat="40.35278057224271" lon="9.287421574273132"><ele>600.0</ele><time>2026-05-01T13:49:30Z</time></trkpt><trkpt lat="40.35279694080729" lon="9.287506537822182"><ele>600.0</ele><time>2026-05-01T13:49:31Z</time></trkpt><trkpt lat="40.352804943353014" lon="9.28760398906925"><ele>600.0</ele><time>2026-05-01T13:49:32Z</time></trkpt><trkpt lat="40.3528032895718" lon="9.287749669155872"><ele>600.0</ele><time>2026-05-01T13:49:33Z</time></trkpt><trkpt lat="40.352790300090376" lon="9.287982005501675"><ele>600.3333333333334</ele><time>2026-05-01T13:49:34Z</time></trkpt><trkpt lat="40.35281328642098" lon="9.288191571876473"><ele>600.6666666666667</ele><time>2026-05-01T13:49:35Z</time></trkpt><trkpt lat="40.35287425807089" lon="9.288416729979156"><ele>601.0</ele><time>2026-05-01T13:49:36Z</time></trkpt><trkpt lat="40.35299336998477" lon="9.288629033616905"><ele>603.3333333333334</ele><time>2026-05-01T13:49:37Z</time></trkpt><trkpt lat="40.35312559752461" lon="9.28882973428443"><ele>605.6666666666666</ele><time>2026-05-01T13:49:38Z</time></trkpt><trkpt lat="40.35325003950735" lon="9.289023276240787"><ele>608.0</ele><time>2026-05-01T13:49:39Z</time></trkpt><trkpt lat="40.353378832337114" lon="9.28918742561111"><ele>608.0</ele><time>2026-05-01T13:49:40Z</time></trkpt><trkpt lat="40.35353109161399" lon="9.289320426026872"><ele>608.0</ele><time>2026-05-01T13:49:41Z</time></trkpt><trkpt lat="40.353703949574424" lon="9.289414773883246"><ele>608.0</ele><time>2026-05-01T13:49:42Z</time></trkpt><trkpt lat="40.35386932493753" lon="9.289458833313326"><ele>608.5</ele><time>2026-05-01T13:49:43Z</time></trkpt><trkpt lat="40.354019318968504" lon="9.289457095280042"><ele>609.0</ele><time>2026-05-01T13:49:44Z</time></trkpt><trkpt lat="40.35415511112574" lon="9.289391705818126"><ele>609.5</ele><time>2026-05-01T13:49:45Z</time></trkpt><trkpt lat="40.354243275922826" lon="9.289251321974938"><ele>610.0</ele><time>2026-05-01T13:49:46Z</time></trkpt><trkpt lat="40.35431326514235" lon="9.289052277677943"><ele>611.3333333333334</ele><time>2026-05-01T13:49:47Z</time></trkpt><trkpt lat="40.354392800962344" lon="9.288827367444053"><ele>612.6666666666666</ele><time>2026-05-01T13:49:48Z</time></trkpt><trkpt lat="40.354498855959456" lon="9.288622279375666"><ele>614.0</ele><time>2026-05-01T13:49:49Z</time></trkpt><trkpt lat="40.354649512096024" lon="9.288476820638081"><ele>614.0</ele><time>2026-05-01T13:49:50Z</time></trkpt><trkpt lat="40.35482198146782" lon="9.288365027452734"><ele>614.0</ele><time>2026-05-01T13:49:51Z</time></trkpt><trkpt lat="40.355016032230175" lon="9.288257910680214"><ele>614.0</ele><time>2026-05-01T13:49:52Z</time></trkpt><trkpt lat="40.35522305825734" lon="9.288148596546721"><ele>617.3333333333333</ele><time>2026-05-01T13:49:53Z</time></trkpt><trkpt lat="40.35542321501373" lon="9.288076614997452"><ele>620.6666666666666</ele><time>2026-05-01T13:49:54Z</time></trkpt><trkpt lat="40.35561030948565" lon="9.288054826450674"><ele>624.0</ele><time>2026-05-01T13:49:55Z</time></trkpt><trkpt lat="40.35580289568957" lon="9.288024446461787"><ele>625.3333333333334</ele><time>2026-05-01T13:49:56Z</time></trkpt><trkpt lat="40.355989670867984" lon="9.287953030591273"><ele>626.6666666666667</ele><time>2026-05-01T13:49:57Z</time></trkpt><trkpt lat="40.35616859685254" lon="9.287806085635193"><ele>628.0</ele><time>2026-05-01T13:49:58Z</time></trkpt><trkpt lat="40.356359860110885" lon="9.28771900857081"><ele>627.6666666666667</ele><time>2026-05-01T13:49:59Z</time></trkpt><trkpt lat="40.35655292686477" lon="9.287698422257987"><ele>627.3333333333334</ele><time>2026-05-01T13:50:00Z</time></trkpt><trkpt lat="40.35671996206433" lon="9.287612973778913"><ele>627.0</ele><time>2026-05-01T13:50:01Z</time></trkpt><trkpt lat="40.35690750718607" lon="9.287512288966774"><ele>627.0</ele><time>2026-05-01T13:50:02Z</time></trkpt><trkpt lat="40.35708171861037" lon="9.287344272186832"><ele>627.0</ele><time>2026-05-01T13:50:03Z</time></trkpt><trkpt lat="40.35722459447316" lon="9.287202438163758"><ele>627.0</ele><time>2026-05-01T13:50:04Z</time></trkpt><trkpt lat="40.35733424732408" lon="9.28706103455629"><ele>628.0</ele><time>2026-05-01T13:50:05Z</time></trkpt><trkpt lat="40.35740429177119" lon="9.286855744260402"><ele>629.0</ele><time>2026-05-01T13:50:06Z</time></trkpt><trkpt lat="40.357461322050405" lon="9.28660829627543"><ele>630.0</ele><time>2026-05-01T13:50:07Z</time></trkpt><trkpt lat="40.35753009064777" lon="9.286352558486737"><ele>634.5</ele><time>2026-05-01T13:50:08Z</time></trkpt><trkpt lat="40.35767389997039" lon="9.286132833781457"><ele>639.0</ele><time>2026-05-01T13:50:09Z</time></trkpt><trkpt lat="40.35778028396727" lon="9.285850770837609"><ele>643.0</ele><time>2026-05-01T13:50:10Z</time></trkpt><trkpt lat="40.357886093750146" lon="9.285573276143205"><ele>647.0</ele><time>2026-05-01T13:50:11Z</time></trkpt><trkpt lat="40.358025749175496" lon="9.285339722382465"><ele>644.0</ele><time>2026-05-01T13:50:12Z</time></trkpt><trkpt lat="40.35810347312939" lon="9.285095128953914"><ele>641.0</ele><time>2026-05-01T13:50:13Z</time></trkpt><trkpt lat="40.358094476137616" lon="9.2848578009261"><ele>638.0</ele><time>2026-05-01T13:50:14Z</time></trkpt><trkpt lat="40.35809201720615" lon="9.284576675151797"><ele>638.0</ele><time>2026-05-01T13:50:15Z</time></trkpt><trkpt lat="40.358071851399416" lon="9.2842743356633"><ele>638.0</ele><time>2026-05-01T13:50:16Z</time></trkpt><trkpt lat="40.35809766891695" lon="9.284002457750892"><ele>638.0</ele><time>2026-05-01T13:50:17Z</time></trkpt><trkpt lat="40.35815238185672" lon="9.283738818976191"><ele>639.6666666666666</ele><time>2026-05-01T13:50:18Z</time></trkpt><trkpt lat="40.3582223397586" lon="9.283485525343844"><ele>641.3333333333334</ele><time>2026-05-01T13:50:19Z</time></trkpt><trkpt lat="40.3583144700239" lon="9.283277250584595"><ele>643.0</ele><time>2026-05-01T13:50:20Z</time></trkpt><trkpt lat="40.358421920438246" lon="9.283095052683654"><ele>644.8</ele><time>2026-05-01T13:50:21Z</time></trkpt><trkpt lat="40.35852236285902" lon="9.282932563836074"><ele>646.5999999999999</ele><time>2026-05-01T13:50:22Z</time></trkpt><trkpt lat="40.358605743766034" lon="9.282813733391281"><ele>648.4000000000001</ele><time>2026-05-01T13:50:23Z</time></trkpt><trkpt lat="40.358685596446506" lon="9.282761734527382"><ele>650.2</ele><time>2026-05-01T13:50:24Z</time></trkpt><trkpt lat="40.35876126807739" lon="9.282756381551538"><ele>652.0</ele><time>2026-05-01T13:50:25Z</time></trkpt><trkpt lat="40.35883793986985" lon="9.282805814578541"><ele>651.75</ele><time>2026-05-01T13:50:26Z</time></trkpt><trkpt lat="40.35890818724399" lon="9.282922659002399"><ele>651.5</ele><time>2026-05-01T13:50:27Z</time></trkpt><trkpt lat="40.35896871225031" lon="9.283102217141755"><ele>651.25</ele><time>2026-05-01T13:50:28Z</time></trkpt><trkpt lat="40.35902987709001" lon="9.283329139801667"><ele>651.0</ele><time>2026-05-01T13:50:29Z</time></trkpt><trkpt lat="40.359092323541915" lon="9.283601741498154"><ele>651.0</ele><time>2026-05-01T13:50:30Z</time></trkpt><trkpt lat="40.35916226172398" lon="9.283830826666303"><ele>651.0</ele><time>2026-05-01T13:50:31Z</time></trkpt><trkpt lat="40.35922897591275" lon="9.284054088671764"><ele>651.0</ele><time>2026-05-01T13:50:32Z</time></trkpt><trkpt lat="40.35933203214729" lon="9.28426587089472"><ele>649.6666666666666</ele><time>2026-05-01T13:50:33Z</time></trkpt><trkpt lat="40.35946314417026" lon="9.28448310382003"><ele>648.3333333333333</ele><time>2026-05-01T13:50:34Z</time></trkpt><trkpt lat="40.35957652845986" lon="9.284688319050906"><ele>647.0</ele><time>2026-05-01T13:50:35Z</time></trkpt><trkpt lat="40.359693440582504" lon="9.284892904350457"><ele>649.3333333333333</ele><time>2026-05-01T13:50:36Z</time></trkpt><trkpt lat="40.35984441858257" lon="9.285054195994382"><ele>651.6666666666666</ele><time>2026-05-01T13:50:37Z</time></trkpt><trkpt lat="40.36001006843479" lon="9.285195406667397"><ele>654.0</ele><time>2026-05-01T13:50:38Z</time></trkpt><trkpt lat="40.36017261847462" lon="9.285314401837988"><ele>654.0</ele><time>2026-05-01T13:50:39Z</time></trkpt><trkpt lat="40.3603024810581" lon="9.285425721918422"><ele>654.0</ele><time>2026-05-01T13:50:40Z</time></trkpt><trkpt lat="40.36036357227677" lon="9.285566058884156"><ele>654.0</ele><time>2026-05-01T13:50:41Z</time></trkpt><trkpt lat="40.360377133368004" lon="9.285717120440275"><ele>654.0</ele><time>2026-05-01T13:50:42Z</time></trkpt><trkpt lat="40.36036045503269" lon="9.285896232374192"><ele>653.5</ele><time>2026-05-01T13:50:43Z</time></trkpt><trkpt lat="40.360356725180864" lon="9.286124918016855"><ele>653.0</ele><time>2026-05-01T13:50:44Z</time></trkpt><trkpt lat="40.360348693265" lon="9.286318454713273"><ele>652.5</ele><time>2026-05-01T13:50:45Z</time></trkpt><trkpt lat="40.36037279876988" lon="9.286472499989436"><ele>652.0</ele><time>2026-05-01T13:50:46Z</time></trkpt><trkpt lat="40.36045673285106" lon="9.28657309618997"><ele>653.75</ele><time>2026-05-01T13:50:47Z</time></trkpt><trkpt lat="40.36056996240319" lon="9.286614413297556"><ele>655.5</ele><time>2026-05-01T13:50:48Z</time></trkpt><trkpt lat="40.36070353938246" lon="9.286602364646937"><ele>657.25</ele><time>2026-05-01T13:50:49Z</time></trkpt><trkpt lat="40.360856541601215" lon="9.28653920533739"><ele>659.0</ele><time>2026-05-01T13:50:50Z</time></trkpt><trkpt lat="40.361019727234826" lon="9.286425560386956"><ele>659.3333333333333</ele><time>2026-05-01T13:50:51Z</time></trkpt><trkpt lat="40.361199913220624" lon="9.286285627425144"><ele>659.6666666666666</ele><time>2026-05-01T13:50:52Z</time></trkpt><trkpt lat="40.36139961717289" lon="9.286136690335393"><ele>660.0</ele><time>2026-05-01T13:50:53Z</time></trkpt><trkpt lat="40.36162230189751" lon="9.286005441043434"><ele>660.0</ele><time>2026-05-01T13:50:54Z</time></trkpt><trkpt lat="40.361828993596234" lon="9.2858646303843"><ele>660.0</ele><time>2026-05-01T13:50:55Z</time></trkpt><trkpt lat="40.36198854241454" lon="9.285727557773294"><ele>660.0</ele><time>2026-05-01T13:50:56Z</time></trkpt><trkpt lat="40.3621413128809" lon="9.285558728159018"><ele>660.6666666666666</ele><time>2026-05-01T13:50:57Z</time></trkpt><trkpt lat="40.36228946178145" lon="9.285363361524345"><ele>661.3333333333333</ele><time>2026-05-01T13:50:58Z</time></trkpt><trkpt lat="40.3624472577344" lon="9.285194571942107"><ele>662.0</ele><time>2026-05-01T13:50:59Z</time></trkpt><trkpt lat="40.36258931354898" lon="9.285035890665768"><ele>662.0</ele><time>2026-05-01T13:51:00Z</time></trkpt><trkpt lat="40.36271983789831" lon="9.284894017585001"><ele>662.0</ele><time>2026-05-01T13:51:01Z</time></trkpt><trkpt lat="40.36284461254884" lon="9.284808829538518"><ele>662.0</ele><time>2026-05-01T13:51:02Z</time></trkpt><trkpt lat="40.36292109836643" lon="9.284793183914726"><ele>662.0</ele><time>2026-05-01T13:51:03Z</time></trkpt><trkpt lat="40.363006624731796" lon="9.284851947344249"><ele>662.25</ele><time>2026-05-01T13:51:04Z</time></trkpt><trkpt lat="40.36305734411848" lon="9.284965171284563"><ele>662.5</ele><time>2026-05-01T13:51:05Z</time></trkpt><trkpt lat="40.36313553827598" lon="9.2851032641145"><ele>662.75</ele><time>2026-05-01T13:51:06Z</time></trkpt><trkpt lat="40.36323157559009" lon="9.28524413302661"><ele>663.0</ele><time>2026-05-01T13:51:07Z</time></trkpt><trkpt lat="40.363358586209046" lon="9.285339941431115"><ele>663.0</ele><time>2026-05-01T13:51:08Z</time></trkpt><trkpt lat="40.36351123368261" lon="9.285423809361108"><ele>663.0</ele><time>2026-05-01T13:51:09Z</time></trkpt><trkpt lat="40.363699253255895" lon="9.285470465804066"><ele>663.0</ele><time>2026-05-01T13:51:10Z</time></trkpt><trkpt lat="40.363908268214786" lon="9.28552079557069"><ele>662.6666666666666</ele><time>2026-05-01T13:51:11Z</time></trkpt><trkpt lat="40.36411798129795" lon="9.285599536171965"><ele>662.3333333333333</ele><time>2026-05-01T13:51:12Z</time></trkpt><trkpt lat="40.36433078798681" lon="9.285642573593316"><ele>662.0</ele><time>2026-05-01T13:51:13Z</time></trkpt><trkpt lat="40.36451312273239" lon="9.285741286701425"><ele>662.0</ele><time>2026-05-01T13:51:14Z</time></trkpt><trkpt lat="40.36468587880029" lon="9.285861853652523"><ele>662.0</ele><time>2026-05-01T13:51:15Z</time></trkpt><trkpt lat="40.364856268404104" lon="9.286041778575301"><ele>662.0</ele><time>2026-05-01T13:51:16Z</time></trkpt><trkpt lat="40.365034319213414" lon="9.28623196037613"><ele>663.6666666666666</ele><time>2026-05-01T13:51:17Z</time></trkpt><trkpt lat="40.36519698308995" lon="9.28640213011002"><ele>665.3333333333334</ele><time>2026-05-01T13:51:18Z</time></trkpt><trkpt lat="40.36533569713456" lon="9.286544827619032"><ele>667.0</ele><time>2026-05-01T13:51:19Z</time></trkpt><trkpt lat="40.36545391199896" lon="9.28660845164893"><ele>667.0</ele><time>2026-05-01T13:51:20Z</time></trkpt><trkpt lat="40.36557789049373" lon="9.286620011476638"><ele>667.0</ele><time>2026-05-01T13:51:21Z</time></trkpt><trkpt lat="40.36569443044394" lon="9.286565089722572"><ele>667.0</ele><time>2026-05-01T13:51:22Z</time></trkpt><trkpt lat="40.365794582882614" lon="9.286430469774738"><ele>667.0</ele><time>2026-05-01T13:51:23Z</time></trkpt><trkpt lat="40.365904461831406" lon="9.286248149541729"><ele>669.0</ele><time>2026-05-01T13:51:24Z</time></trkpt><trkpt lat="40.36604400054044" lon="9.286097811757795"><ele>671.0</ele><time>2026-05-01T13:51:25Z</time></trkpt><trkpt lat="40.366192811030615" lon="9.286000072376927"><ele>673.0</ele><time>2026-05-01T13:51:26Z</time></trkpt><trkpt lat="40.366330545381814" lon="9.285937665839462"><ele>673.0</ele><time>2026-05-01T13:51:27Z</time></trkpt><trkpt lat="40.36644666651464" lon="9.285910888121808"><ele>673.0</ele><time>2026-05-01T13:51:28Z</time></trkpt><trkpt lat="40.36668015204852" lon="9.28598703508563"><ele>673.0</ele><time>2026-05-01T13:51:29Z</time></trkpt><trkpt lat="40.36684894568189" lon="9.285963846487663"><ele>673.0</ele><time>2026-05-01T13:51:30Z</time></trkpt><trkpt lat="40.36702803412683" lon="9.285921046962127"><ele>673.0</ele><time>2026-05-01T13:51:31Z</time></trkpt><trkpt lat="40.367200664909156" lon="9.28587345385834"><ele>673.0</ele><time>2026-05-01T13:51:32Z</time></trkpt><trkpt lat="40.3673178558358" lon="9.28576983229785"><ele>673.0</ele><time>2026-05-01T13:51:33Z</time></trkpt><trkpt lat="40.36742146126938" lon="9.285592796987883"><ele>673.0</ele><time>2026-05-01T13:51:34Z</time></trkpt><trkpt lat="40.367504024985365" lon="9.285363997846527"><ele>673.0</ele><time>2026-05-01T13:51:35Z</time></trkpt><trkpt lat="40.367583527810545" lon="9.285117550335567"><ele>673.0</ele><time>2026-05-01T13:51:36Z</time></trkpt><trkpt lat="40.36771052515212" lon="9.284943677041099"><ele>673.0</ele><time>2026-05-01T13:51:37Z</time></trkpt><trkpt lat="40.367865716293515" lon="9.284798829987475"><ele>673.0</ele><time>2026-05-01T13:51:38Z</time></trkpt><trkpt lat="40.368013487623" lon="9.284692796759698"><ele>674.6666666666667</ele><time>2026-05-01T13:51:39Z</time></trkpt><trkpt lat="40.36816034076279" lon="9.284669006635596"><ele>676.3333333333334</ele><time>2026-05-01T13:51:40Z</time></trkpt><trkpt lat="40.36831000538891" lon="9.28469072511836"><ele>678.0</ele><time>2026-05-01T13:51:41Z</time></trkpt><trkpt lat="40.36852121232145" lon="9.284730829413105"><ele>677.6666666666666</ele><time>2026-05-01T13:51:42Z</time></trkpt><trkpt lat="40.36874780532124" lon="9.284774545649773"><ele>677.3333333333333</ele><time>2026-05-01T13:51:43Z</time></trkpt><trkpt lat="40.36894082275155" lon="9.284831076052221"><ele>677.0</ele><time>2026-05-01T13:51:44Z</time></trkpt><trkpt lat="40.36910173891898" lon="9.284938849465137"><ele>677.0</ele><time>2026-05-01T13:51:45Z</time></trkpt><trkpt lat="40.369225348747094" lon="9.285075739611468"><ele>677.0</ele><time>2026-05-01T13:51:46Z</time></trkpt><trkpt lat="40.36937713104068" lon="9.285181757001093"><ele>677.0</ele><time>2026-05-01T13:51:47Z</time></trkpt><trkpt lat="40.36952375384115" lon="9.28523966512644"><ele>677.6666666666666</ele><time>2026-05-01T13:51:48Z</time></trkpt><trkpt lat="40.369700157425086" lon="9.285250876134794"><ele>678.3333333333334</ele><time>2026-05-01T13:51:49Z</time></trkpt><trkpt lat="40.36985797775497" lon="9.285161861861878"><ele>679.0</ele><time>2026-05-01T13:51:50Z</time></trkpt><trkpt lat="40.37000231875471" lon="9.285031346524699"><ele>679.0</ele><time>2026-05-01T13:51:51Z</time></trkpt><trkpt lat="40.37012893973298" lon="9.28489581214585"><ele>679.0</ele><time>2026-05-01T13:51:52Z</time></trkpt><trkpt lat="40.37025580353775" lon="9.284883514082372"><ele>679.0</ele><time>2026-05-01T13:51:53Z</time></trkpt><trkpt lat="40.37035196407004" lon="9.284948448937007"><ele>679.0</ele><time>2026-05-01T13:51:54Z</time></trkpt><trkpt lat="40.37042555291615" lon="9.285065555534462"><ele>680.0</ele><time>2026-05-01T13:51:55Z</time></trkpt><trkpt lat="40.37053528785449" lon="9.285207372935531"><ele>681.0</ele><time>2026-05-01T13:51:56Z</time></trkpt><trkpt lat="40.3706779824422" lon="9.285301685087992"><ele>682.0</ele><time>2026-05-01T13:51:57Z</time></trkpt><trkpt lat="40.37084293759935" lon="9.285364759635774"><ele>682.0</ele><time>2026-05-01T13:51:58Z</time></trkpt><trkpt lat="40.37102130750279" lon="9.28535129469749"><ele>682.0</ele><time>2026-05-01T13:51:59Z</time></trkpt><trkpt lat="40.37123423616437" lon="9.285298609531319"><ele>682.0</ele><time>2026-05-01T13:52:00Z</time></trkpt><trkpt lat="40.371439935226846" lon="9.285345220227772"><ele>683.3333333333334</ele><time>2026-05-01T13:52:01Z</time></trkpt><trkpt lat="40.37164962099344" lon="9.28542338900107"><ele>684.6666666666666</ele><time>2026-05-01T13:52:02Z</time></trkpt><trkpt lat="40.371858706572326" lon="9.285489524371718"><ele>686.0</ele><time>2026-05-01T13:52:03Z</time></trkpt><trkpt lat="40.37204973397739" lon="9.285569475155533"><ele>685.0</ele><time>2026-05-01T13:52:04Z</time></trkpt><trkpt lat="40.37221598343817" lon="9.285643521263623"><ele>684.0</ele><time>2026-05-01T13:52:05Z</time></trkpt><trkpt lat="40.37235944548936" lon="9.285718322652645"><ele>683.0</ele><time>2026-05-01T13:52:06Z</time></trkpt><trkpt lat="40.37248496547139" lon="9.28575341903088"><ele>683.0</ele><time>2026-05-01T13:52:07Z</time></trkpt><trkpt lat="40.372610387208226" lon="9.285743398521928"><ele>683.0</ele><time>2026-05-01T13:52:08Z</time></trkpt><trkpt lat="40.372744430574784" lon="9.285600045421676"><ele>683.0</ele><time>2026-05-01T13:52:09Z</time></trkpt><trkpt lat="40.372884744571024" lon="9.285411115751065"><ele>685.0</ele><time>2026-05-01T13:52:10Z</time></trkpt><trkpt lat="40.3730210400931" lon="9.2852533723631"><ele>687.0</ele><time>2026-05-01T13:52:11Z</time></trkpt><trkpt lat="40.3731474106681" lon="9.285148147151343"><ele>689.0</ele><time>2026-05-01T13:52:12Z</time></trkpt><trkpt lat="40.37329541368357" lon="9.28515880539997"><ele>689.6666666666666</ele><time>2026-05-01T13:52:13Z</time></trkpt><trkpt lat="40.37347056032697" lon="9.285194197544808"><ele>690.3333333333334</ele><time>2026-05-01T13:52:14Z</time></trkpt><trkpt lat="40.373679429365716" lon="9.285208664339239"><ele>691.0</ele><time>2026-05-01T13:52:15Z</time></trkpt><trkpt lat="40.37389451767926" lon="9.28522151041931"><ele>692.0</ele><time>2026-05-01T13:52:16Z</time></trkpt><trkpt lat="40.374119320413925" lon="9.285209326982297"><ele>693.0</ele><time>2026-05-01T13:52:17Z</time></trkpt><trkpt lat="40.37434229736797" lon="9.28520490661714"><ele>694.0</ele><time>2026-05-01T13:52:18Z</time></trkpt><trkpt lat="40.37456423080524" lon="9.285199430629296"><ele>695.3333333333334</ele><time>2026-05-01T13:52:19Z</time></trkpt><trkpt lat="40.374771444321865" lon="9.285194579023658"><ele>696.6666666666666</ele><time>2026-05-01T13:52:20Z</time></trkpt><trkpt lat="40.37494780848049" lon="9.285249445343327"><ele>698.0</ele><time>2026-05-01T13:52:21Z</time></trkpt><trkpt lat="40.375119231036415" lon="9.285333895674755"><ele>698.0</ele><time>2026-05-01T13:52:22Z</time></trkpt><trkpt lat="40.37527869854664" lon="9.285459577077706"><ele>698.0</ele><time>2026-05-01T13:52:23Z</time></trkpt><trkpt lat="40.37543381527659" lon="9.285575583002439"><ele>698.0</ele><time>2026-05-01T13:52:24Z</time></trkpt><trkpt lat="40.37559081153964" lon="9.285665840515675"><ele>697.6666666666666</ele><time>2026-05-01T13:52:25Z</time></trkpt><trkpt lat="40.37573921868483" lon="9.285685420906315"><ele>697.3333333333334</ele><time>2026-05-01T13:52:26Z</time></trkpt><trkpt lat="40.37589743464481" lon="9.285628794386207"><ele>697.0</ele><time>2026-05-01T13:52:27Z</time></trkpt><trkpt lat="40.37603270530636" lon="9.285520715400029"><ele>699.0</ele><time>2026-05-01T13:52:28Z</time></trkpt><trkpt lat="40.37611280467123" lon="9.28533993079967"><ele>701.0</ele><time>2026-05-01T13:52:29Z</time></trkpt><trkpt lat="40.37616532654374" lon="9.28512501784858"><ele>703.0</ele><time>2026-05-01T13:52:30Z</time></trkpt><trkpt lat="40.376201994120976" lon="9.284852001478697"><ele>705.0</ele><time>2026-05-01T13:52:31Z</time></trkpt><trkpt lat="40.376251969175705" lon="9.284573753662604"><ele>707.0</ele><time>2026-05-01T13:52:32Z</time></trkpt><trkpt lat="40.37633578284261" lon="9.284286361241985"><ele>703.0</ele><time>2026-05-01T13:52:33Z</time></trkpt><trkpt lat="40.37640458121219" lon="9.283979647597004"><ele>699.0</ele><time>2026-05-01T13:52:34Z</time></trkpt><trkpt lat="40.37649730198354" lon="9.283648618935732"><ele>699.0</ele><time>2026-05-01T13:52:35Z</time></trkpt><trkpt lat="40.37656973566646" lon="9.28332407029035"><ele>699.0</ele><time>2026-05-01T13:52:36Z</time></trkpt><trkpt lat="40.37663130095655" lon="9.282986925367581"><ele>702.0</ele><time>2026-05-01T13:52:37Z</time></trkpt><trkpt lat="40.37664404295563" lon="9.282671523451134"><ele>705.0</ele><time>2026-05-01T13:52:38Z</time></trkpt><trkpt lat="40.3767029529968" lon="9.282395574645388"><ele>709.6666666666666</ele><time>2026-05-01T13:52:39Z</time></trkpt><trkpt lat="40.37678174110088" lon="9.28214046946013"><ele>714.3333333333333</ele><time>2026-05-01T13:52:40Z</time></trkpt><trkpt lat="40.37689635168034" lon="9.281903791459344"><ele>719.0</ele><time>2026-05-01T13:52:41Z</time></trkpt><trkpt lat="40.37702054723406" lon="9.281653040933657"><ele>716.0</ele><time>2026-05-01T13:52:42Z</time></trkpt><trkpt lat="40.37714528705031" lon="9.281379566815101"><ele>713.0</ele><time>2026-05-01T13:52:43Z</time></trkpt><trkpt lat="40.37729209178012" lon="9.281113321062008"><ele>713.0</ele><time>2026-05-01T13:52:44Z</time></trkpt><trkpt lat="40.37741359489312" lon="9.2808657225998"><ele>713.0</ele><time>2026-05-01T13:52:45Z</time></trkpt><trkpt lat="40.37751237664464" lon="9.280604881477075"><ele>713.0</ele><time>2026-05-01T13:52:46Z</time></trkpt><trkpt lat="40.3775779006551" lon="9.280320836039527"><ele>717.0</ele><time>2026-05-01T13:52:47Z</time></trkpt><trkpt lat="40.37761673170634" lon="9.280011848761095"><ele>721.0</ele><time>2026-05-01T13:52:48Z</time></trkpt><trkpt lat="40.37765865439942" lon="9.279732115775662"><ele>722.3333333333334</ele><time>2026-05-01T13:52:49Z</time></trkpt><trkpt lat="40.37773130216249" lon="9.27950673118315"><ele>723.6666666666666</ele><time>2026-05-01T13:52:50Z</time></trkpt><trkpt lat="40.37778155160278" lon="9.279308335986052"><ele>725.0</ele><time>2026-05-01T13:52:51Z</time></trkpt><trkpt lat="40.377910792127395" lon="9.279180926006333"><ele>725.0</ele><time>2026-05-01T13:52:52Z</time></trkpt><trkpt lat="40.37796132327509" lon="9.279031627941603"><ele>725.0</ele><time>2026-05-01T13:52:53Z</time></trkpt><trkpt lat="40.37823443559637" lon="9.27904826816237"><ele>725.0</ele><time>2026-05-01T13:52:54Z</time></trkpt><trkpt lat="40.378434814259016" lon="9.27906038304188"><ele>724.3333333333333</ele><time>2026-05-01T13:52:55Z</time></trkpt><trkpt lat="40.37864686524836" lon="9.279062748526476"><ele>723.6666666666666</ele><time>2026-05-01T13:52:56Z</time></trkpt><trkpt lat="40.37884513036304" lon="9.279015042418836"><ele>723.0</ele><time>2026-05-01T13:52:57Z</time></trkpt><trkpt lat="40.37901692833479" lon="9.278925061438084"><ele>727.6666666666666</ele><time>2026-05-01T13:52:58Z</time></trkpt><trkpt lat="40.37917113700494" lon="9.278865722090694"><ele>732.3333333333333</ele><time>2026-05-01T13:52:59Z</time></trkpt><trkpt lat="40.379327366607704" lon="9.278847177831233"><ele>737.0</ele><time>2026-05-01T13:53:00Z</time></trkpt><trkpt lat="40.37948567735967" lon="9.278894113466425"><ele>735.3333333333333</ele><time>2026-05-01T13:53:01Z</time></trkpt><trkpt lat="40.37966295970782" lon="9.278979439919159"><ele>733.6666666666666</ele><time>2026-05-01T13:53:02Z</time></trkpt><trkpt lat="40.379793904554035" lon="9.279097262203196"><ele>732.0</ele><time>2026-05-01T13:53:03Z</time></trkpt><trkpt lat="40.37989814791492" lon="9.279231592011739"><ele>732.0</ele><time>2026-05-01T13:53:04Z</time></trkpt><trkpt lat="40.37998669487584" lon="9.279378676255007"><ele>732.0</ele><time>2026-05-01T13:53:05Z</time></trkpt><trkpt lat="40.38007352747385" lon="9.279467580178578"><ele>732.0</ele><time>2026-05-01T13:53:06Z</time></trkpt><trkpt lat="40.380203296788146" lon="9.279485015485514"><ele>732.0</ele><time>2026-05-01T13:53:07Z</time></trkpt><trkpt lat="40.38034304660068" lon="9.279433402491351"><ele>732.0</ele><time>2026-05-01T13:53:08Z</time></trkpt><trkpt lat="40.38049358507684" lon="9.279383714632164"><ele>732.0</ele><time>2026-05-01T13:53:09Z</time></trkpt><trkpt lat="40.38063913997831" lon="9.279441639297762"><ele>732.0</ele><time>2026-05-01T13:53:10Z</time></trkpt><trkpt lat="40.380790730922875" lon="9.279529066503972"><ele>731.6666666666666</ele><time>2026-05-01T13:53:11Z</time></trkpt><trkpt lat="40.380956845000306" lon="9.279679193896163"><ele>731.3333333333333</ele><time>2026-05-01T13:53:12Z</time></trkpt><trkpt lat="40.38112910475054" lon="9.279781553557275"><ele>731.0</ele><time>2026-05-01T13:53:13Z</time></trkpt><trkpt lat="40.38130797062365" lon="9.279820609869429"><ele>733.6666666666666</ele><time>2026-05-01T13:53:14Z</time></trkpt><trkpt lat="40.38149025510085" lon="9.27982457133495"><ele>736.3333333333334</ele><time>2026-05-01T13:53:15Z</time></trkpt><trkpt lat="40.381664563319255" lon="9.279867068819325"><ele>739.0</ele><time>2026-05-01T13:53:16Z</time></trkpt><trkpt lat="40.3818370590855" lon="9.27994229827725"><ele>739.0</ele><time>2026-05-01T13:53:17Z</time></trkpt><trkpt lat="40.38200590733034" lon="9.28001800429276"><ele>739.0</ele><time>2026-05-01T13:53:18Z</time></trkpt><trkpt lat="40.38216762168106" lon="9.280101214966937"><ele>739.0</ele><time>2026-05-01T13:53:19Z</time></trkpt><trkpt lat="40.38231732212167" lon="9.280215276555483"><ele>740.0</ele><time>2026-05-01T13:53:20Z</time></trkpt><trkpt lat="40.3824359070793" lon="9.280379315795425"><ele>741.0</ele><time>2026-05-01T13:53:21Z</time></trkpt><trkpt lat="40.38254028020744" lon="9.280546906585487"><ele>742.0</ele><time>2026-05-01T13:53:22Z</time></trkpt><trkpt lat="40.38266144503695" lon="9.280661347881068"><ele>742.0</ele><time>2026-05-01T13:53:23Z</time></trkpt><trkpt lat="40.38281837735118" lon="9.28071901387279"><ele>742.0</ele><time>2026-05-01T13:53:24Z</time></trkpt><trkpt lat="40.38300958514896" lon="9.280733531334473"><ele>742.0</ele><time>2026-05-01T13:53:25Z</time></trkpt><trkpt lat="40.38321419923429" lon="9.280749401626379"><ele>744.0</ele><time>2026-05-01T13:53:26Z</time></trkpt><trkpt lat="40.383427537317424" lon="9.28077360092579"><ele>746.0</ele><time>2026-05-01T13:53:27Z</time></trkpt><trkpt lat="40.38363608187887" lon="9.280805207517762"><ele>748.0</ele><time>2026-05-01T13:53:28Z</time></trkpt><trkpt lat="40.38380371926056" lon="9.280833843001357"><ele>748.6666666666667</ele><time>2026-05-01T13:53:29Z</time></trkpt><trkpt lat="40.38396925479844" lon="9.280834922543287"><ele>749.3333333333334</ele><time>2026-05-01T13:53:30Z</time></trkpt><trkpt lat="40.38412598125117" lon="9.280824829091493"><ele>750.0</ele><time>2026-05-01T13:53:31Z</time></trkpt><trkpt lat="40.384284770907534" lon="9.280844274798906"><ele>750.0</ele><time>2026-05-01T13:53:32Z</time></trkpt><trkpt lat="40.38444270948783" lon="9.280919013134755"><ele>750.0</ele><time>2026-05-01T13:53:33Z</time></trkpt><trkpt lat="40.3845836211546" lon="9.281044134023915"><ele>750.0</ele><time>2026-05-01T13:53:34Z</time></trkpt><trkpt lat="40.38470668279332" lon="9.281211139128123"><ele>751.6666666666666</ele><time>2026-05-01T13:53:35Z</time></trkpt><trkpt lat="40.38481332991234" lon="9.281434934681885"><ele>753.3333333333333</ele><time>2026-05-01T13:53:36Z</time></trkpt><trkpt lat="40.384918998663395" lon="9.281662319629522"><ele>755.0</ele><time>2026-05-01T13:53:37Z</time></trkpt><trkpt lat="40.38504122772024" lon="9.281876005556533"><ele>755.0</ele><time>2026-05-01T13:53:38Z</time></trkpt><trkpt lat="40.38519197971971" lon="9.28207263374213"><ele>755.0</ele><time>2026-05-01T13:53:39Z</time></trkpt><trkpt lat="40.38535499684286" lon="9.28226428015835"><ele>755.0</ele><time>2026-05-01T13:53:40Z</time></trkpt><trkpt lat="40.38551223717235" lon="9.282451450464926"><ele>754.6666666666666</ele><time>2026-05-01T13:53:41Z</time></trkpt><trkpt lat="40.38564764348366" lon="9.282623821076434"><ele>754.3333333333334</ele><time>2026-05-01T13:53:42Z</time></trkpt><trkpt lat="40.38577429412019" lon="9.28278688891489"><ele>754.0</ele><time>2026-05-01T13:53:43Z</time></trkpt><trkpt lat="40.3859027949428" lon="9.282957147826714"><ele>752.6666666666667</ele><time>2026-05-01T13:53:44Z</time></trkpt><trkpt lat="40.38601919807213" lon="9.283142721104207"><ele>751.3333333333334</ele><time>2026-05-01T13:53:45Z</time></trkpt><trkpt lat="40.386107489257995" lon="9.283370692092033"><ele>750.0</ele><time>2026-05-01T13:53:46Z</time></trkpt><trkpt lat="40.38616810250019" lon="9.283625081923052"><ele>750.0</ele><time>2026-05-01T13:53:47Z</time></trkpt><trkpt lat="40.38622089012135" lon="9.28384386514665"><ele>750.0</ele><time>2026-05-01T13:53:48Z</time></trkpt><trkpt lat="40.386271232688685" lon="9.283993916734973"><ele>750.0</ele><time>2026-05-01T13:53:49Z</time></trkpt><trkpt lat="40.38634084154058" lon="9.28408433504799"><ele>750.0</ele><time>2026-05-01T13:53:50Z</time></trkpt><trkpt lat="40.386446416368464" lon="9.28411647807438"><ele>750.3333333333334</ele><time>2026-05-01T13:53:51Z</time></trkpt><trkpt lat="40.386581595387014" lon="9.284083647850391"><ele>750.6666666666667</ele><time>2026-05-01T13:53:52Z</time></trkpt><trkpt lat="40.386709281765945" lon="9.28397292882877"><ele>751.0</ele><time>2026-05-01T13:53:53Z</time></trkpt><trkpt lat="40.38682657340207" lon="9.283804601331996"><ele>751.0</ele><time>2026-05-01T13:53:54Z</time></trkpt><trkpt lat="40.38693305794482" lon="9.283612115907621"><ele>751.0</ele><time>2026-05-01T13:53:55Z</time></trkpt><trkpt lat="40.38702719016374" lon="9.283382187302962"><ele>751.0</ele><time>2026-05-01T13:53:56Z</time></trkpt><trkpt lat="40.38712298443187" lon="9.283136141611124"><ele>750.3333333333334</ele><time>2026-05-01T13:53:57Z</time></trkpt><trkpt lat="40.38720561479412" lon="9.282910979340247"><ele>749.6666666666666</ele><time>2026-05-01T13:53:58Z</time></trkpt><trkpt lat="40.38731375228195" lon="9.282718031419849"><ele>749.0</ele><time>2026-05-01T13:53:59Z</time></trkpt><trkpt lat="40.38743203086161" lon="9.28257170583973"><ele>749.0</ele><time>2026-05-01T13:54:00Z</time></trkpt><trkpt lat="40.38756157299571" lon="9.282488311941853"><ele>749.0</ele><time>2026-05-01T13:54:01Z</time></trkpt><trkpt lat="40.38769346301065" lon="9.28247820449111"><ele>749.0</ele><time>2026-05-01T13:54:02Z</time></trkpt><trkpt lat="40.38787965703145" lon="9.282472984536877"><ele>747.6666666666666</ele><time>2026-05-01T13:54:03Z</time></trkpt><trkpt lat="40.38808377168413" lon="9.282472996155702"><ele>746.3333333333334</ele><time>2026-05-01T13:54:04Z</time></trkpt><trkpt lat="40.38828099137009" lon="9.282483989131137"><ele>745.0</ele><time>2026-05-01T13:54:05Z</time></trkpt><trkpt lat="40.38846719187621" lon="9.28254600035635"><ele>745.0</ele><time>2026-05-01T13:54:06Z</time></trkpt><trkpt lat="40.38866249440495" lon="9.282645283879912"><ele>745.0</ele><time>2026-05-01T13:54:07Z</time></trkpt><trkpt lat="40.38884086076985" lon="9.282752011292908"><ele>745.0</ele><time>2026-05-01T13:54:08Z</time></trkpt><trkpt lat="40.38897555007476" lon="9.28289775394028"><ele>744.3333333333334</ele><time>2026-05-01T13:54:09Z</time></trkpt><trkpt lat="40.38908479619356" lon="9.283084235874444"><ele>743.6666666666666</ele><time>2026-05-01T13:54:10Z</time></trkpt><trkpt lat="40.389176055237705" lon="9.283328891230376"><ele>743.0</ele><time>2026-05-01T13:54:11Z</time></trkpt><trkpt lat="40.38928060242023" lon="9.283601466857059"><ele>740.5</ele><time>2026-05-01T13:54:12Z</time></trkpt><trkpt lat="40.38936081020055" lon="9.283898193695554"><ele>738.0</ele><time>2026-05-01T13:54:13Z</time></trkpt><trkpt lat="40.3894490626523" lon="9.284186838593545"><ele>737.5</ele><time>2026-05-01T13:54:14Z</time></trkpt><trkpt lat="40.389567580786114" lon="9.284469043323591"><ele>737.0</ele><time>2026-05-01T13:54:15Z</time></trkpt><trkpt lat="40.38966813095519" lon="9.28476529279554"><ele>735.5</ele><time>2026-05-01T13:54:16Z</time></trkpt><trkpt lat="40.38976851060159" lon="9.285064191676833"><ele>734.0</ele><time>2026-05-01T13:54:17Z</time></trkpt><trkpt lat="40.38985454902258" lon="9.285381948589823"><ele>733.0</ele><time>2026-05-01T13:54:18Z</time></trkpt><trkpt lat="40.38996509435846" lon="9.28572369763503"><ele>732.0</ele><time>2026-05-01T13:54:19Z</time></trkpt><trkpt lat="40.39006000525178" lon="9.286039175697127"><ele>732.0</ele><time>2026-05-01T13:54:20Z</time></trkpt><trkpt lat="40.39014455589654" lon="9.286383293706697"><ele>732.0</ele><time>2026-05-01T13:54:21Z</time></trkpt><trkpt lat="40.39021391004365" lon="9.286733524030028"><ele>731.0</ele><time>2026-05-01T13:54:22Z</time></trkpt><trkpt lat="40.39027675872549" lon="9.287058299194923"><ele>730.0</ele><time>2026-05-01T13:54:23Z</time></trkpt><trkpt lat="40.39034821719815" lon="9.287351762990529"><ele>728.6666666666667</ele><time>2026-05-01T13:54:24Z</time></trkpt><trkpt lat="40.39035960297808" lon="9.287624980337826"><ele>727.3333333333334</ele><time>2026-05-01T13:54:25Z</time></trkpt><trkpt lat="40.3903584671267" lon="9.287877026293472"><ele>726.0</ele><time>2026-05-01T13:54:26Z</time></trkpt><trkpt lat="40.39040951693187" lon="9.288115004816248"><ele>724.6666666666666</ele><time>2026-05-01T13:54:27Z</time></trkpt><trkpt lat="40.39047545827903" lon="9.288345363090139"><ele>723.3333333333333</ele><time>2026-05-01T13:54:28Z</time></trkpt><trkpt lat="40.39049693997798" lon="9.28856813832783"><ele>722.0</ele><time>2026-05-01T13:54:29Z</time></trkpt><trkpt lat="40.390474816603174" lon="9.288773407283367"><ele>722.0</ele><time>2026-05-01T13:54:30Z</time></trkpt><trkpt lat="40.39039373587085" lon="9.288966538275817"><ele>722.0</ele><time>2026-05-01T13:54:31Z</time></trkpt><trkpt lat="40.39031067181353" lon="9.289194158718688"><ele>722.0</ele><time>2026-05-01T13:54:32Z</time></trkpt><trkpt lat="40.39027518305097" lon="9.289400121042931"><ele>722.0</ele><time>2026-05-01T13:54:33Z</time></trkpt><trkpt lat="40.39030881596852" lon="9.289621834043475"><ele>722.0</ele><time>2026-05-01T13:54:34Z</time></trkpt><trkpt lat="40.39038280153332" lon="9.289848411387378"><ele>722.0</ele><time>2026-05-01T13:54:35Z</time></trkpt><trkpt lat="40.390502841276124" lon="9.290036919811415"><ele>726.0</ele><time>2026-05-01T13:54:36Z</time></trkpt><trkpt lat="40.39063650843557" lon="9.290184036729775"><ele>730.0</ele><time>2026-05-01T13:54:37Z</time></trkpt><trkpt lat="40.39080874018981" lon="9.290278179976942"><ele>734.0</ele><time>2026-05-01T13:54:38Z</time></trkpt><trkpt lat="40.39096729490852" lon="9.29039164644829"><ele>734.0</ele><time>2026-05-01T13:54:39Z</time></trkpt><trkpt lat="40.391107520772955" lon="9.29056044677819"><ele>734.0</ele><time>2026-05-01T13:54:40Z</time></trkpt><trkpt lat="40.391275703551166" lon="9.290736427094897"><ele>734.0</ele><time>2026-05-01T13:54:41Z</time></trkpt><trkpt lat="40.391462668953565" lon="9.290884309636105"><ele>734.6666666666666</ele><time>2026-05-01T13:54:42Z</time></trkpt><trkpt lat="40.391633601114776" lon="9.291020791138328"><ele>735.3333333333334</ele><time>2026-05-01T13:54:43Z</time></trkpt><trkpt lat="40.39180721526834" lon="9.29111328202659"><ele>736.0</ele><time>2026-05-01T13:54:44Z</time></trkpt><trkpt lat="40.39194995308418" lon="9.291174631591096"><ele>736.0</ele><time>2026-05-01T13:54:45Z</time></trkpt><trkpt lat="40.392071907446066" lon="9.291239350901668"><ele>736.0</ele><time>2026-05-01T13:54:46Z</time></trkpt><trkpt lat="40.392126651387755" lon="9.291368964305432"><ele>736.0</ele><time>2026-05-01T13:54:47Z</time></trkpt><trkpt lat="40.39213832453381" lon="9.291544667700993"><ele>736.0</ele><time>2026-05-01T13:54:48Z</time></trkpt><trkpt lat="40.3921590532168" lon="9.29177313044617"><ele>738.3333333333334</ele><time>2026-05-01T13:54:49Z</time></trkpt><trkpt lat="40.39220118892275" lon="9.29196781675654"><ele>740.6666666666666</ele><time>2026-05-01T13:54:50Z</time></trkpt><trkpt lat="40.39225856362784" lon="9.292144538876759"><ele>743.0</ele><time>2026-05-01T13:54:51Z</time></trkpt><trkpt lat="40.3923982426078" lon="9.292333437596156"><ele>743.0</ele><time>2026-05-01T13:54:52Z</time></trkpt><trkpt lat="40.39243477518065" lon="9.292522548669254"><ele>743.0</ele><time>2026-05-01T13:54:53Z</time></trkpt><trkpt lat="40.392432451770084" lon="9.292660231162374"><ele>743.0</ele><time>2026-05-01T13:54:54Z</time></trkpt><trkpt lat="40.39236270472853" lon="9.29273105590139"><ele>743.0</ele><time>2026-05-01T13:54:55Z</time></trkpt><trkpt lat="40.39226958334577" lon="9.292754780016061"><ele>743.0</ele><time>2026-05-01T13:54:56Z</time></trkpt><trkpt lat="40.39213249964275" lon="9.29283931663723"><ele>739.6666666666666</ele><time>2026-05-01T13:54:57Z</time></trkpt><trkpt lat="40.392006779417805" lon="9.29300665953815"><ele>736.3333333333334</ele><time>2026-05-01T13:54:58Z</time></trkpt><trkpt lat="40.391927721836275" lon="9.293196373800416"><ele>733.0</ele><time>2026-05-01T13:54:59Z</time></trkpt><trkpt lat="40.391825352957895" lon="9.293417003097584"><ele>733.0</ele><time>2026-05-01T13:55:00Z</time></trkpt><trkpt lat="40.39175746167646" lon="9.29366266880623"><ele>733.0</ele><time>2026-05-01T13:55:01Z</time></trkpt><trkpt lat="40.39174811606146" lon="9.29392683642958"><ele>733.0</ele><time>2026-05-01T13:55:02Z</time></trkpt><trkpt lat="40.391761272246136" lon="9.294211432098876"><ele>734.6666666666667</ele><time>2026-05-01T13:55:03Z</time></trkpt><trkpt lat="40.39180071695096" lon="9.29449407582066"><ele>736.3333333333334</ele><time>2026-05-01T13:55:04Z</time></trkpt><trkpt lat="40.39182634078847" lon="9.294790867212278"><ele>738.0</ele><time>2026-05-01T13:55:05Z</time></trkpt><trkpt lat="40.39184953072691" lon="9.295058471056102"><ele>738.0</ele><time>2026-05-01T13:55:06Z</time></trkpt><trkpt lat="40.391886307417515" lon="9.295247997769005"><ele>738.0</ele><time>2026-05-01T13:55:07Z</time></trkpt><trkpt lat="40.39197487794237" lon="9.295432870978992"><ele>738.0</ele><time>2026-05-01T13:55:08Z</time></trkpt><trkpt lat="40.392092126141655" lon="9.29553600396414"><ele>739.5</ele><time>2026-05-01T13:55:09Z</time></trkpt><trkpt lat="40.392251261413016" lon="9.295562722287594"><ele>741.0</ele><time>2026-05-01T13:55:10Z</time></trkpt><trkpt lat="40.392385136410695" lon="9.295607591049297"><ele>742.5</ele><time>2026-05-01T13:55:11Z</time></trkpt><trkpt lat="40.39250847190517" lon="9.295642095617024"><ele>744.0</ele><time>2026-05-01T13:55:12Z</time></trkpt><trkpt lat="40.392563130921744" lon="9.29579270226862"><ele>744.0</ele><time>2026-05-01T13:55:13Z</time></trkpt><trkpt lat="40.39253402466828" lon="9.296014613316345"><ele>744.0</ele><time>2026-05-01T13:55:14Z</time></trkpt><trkpt lat="40.392574444927135" lon="9.296250259383498"><ele>744.0</ele><time>2026-05-01T13:55:15Z</time></trkpt><trkpt lat="40.39261127589549" lon="9.296491857731473"><ele>744.0</ele><time>2026-05-01T13:55:16Z</time></trkpt><trkpt lat="40.39269591327907" lon="9.296722162472957"><ele>744.0</ele><time>2026-05-01T13:55:17Z</time></trkpt><trkpt lat="40.39279949487393" lon="9.296927423464329"><ele>744.0</ele><time>2026-05-01T13:55:18Z</time></trkpt><trkpt lat="40.392922968491725" lon="9.297120470866508"><ele>744.3333333333334</ele><time>2026-05-01T13:55:19Z</time></trkpt><trkpt lat="40.39307544851958" lon="9.297284370745725"><ele>744.6666666666667</ele><time>2026-05-01T13:55:20Z</time></trkpt><trkpt lat="40.39324933152321" lon="9.297374305788885"><ele>745.0</ele><time>2026-05-01T13:55:21Z</time></trkpt><trkpt lat="40.39343443675227" lon="9.297406304215968"><ele>745.0</ele><time>2026-05-01T13:55:22Z</time></trkpt><trkpt lat="40.39360477648917" lon="9.29744672419895"><ele>745.0</ele><time>2026-05-01T13:55:23Z</time></trkpt><trkpt lat="40.39372868628566" lon="9.297563474875377"><ele>745.0</ele><time>2026-05-01T13:55:24Z</time></trkpt><trkpt lat="40.3938387378933" lon="9.29774309779755"><ele>746.0</ele><time>2026-05-01T13:55:25Z</time></trkpt><trkpt lat="40.39396809551775" lon="9.297926902754877"><ele>747.0</ele><time>2026-05-01T13:55:26Z</time></trkpt><trkpt lat="40.39410449614631" lon="9.298064232723783"><ele>748.0</ele><time>2026-05-01T13:55:27Z</time></trkpt><trkpt lat="40.39421129263876" lon="9.298191849027855"><ele>748.0</ele><time>2026-05-01T13:55:28Z</time></trkpt><trkpt lat="40.3942790730219" lon="9.298341682642482"><ele>748.0</ele><time>2026-05-01T13:55:29Z</time></trkpt><trkpt lat="40.394285066745866" lon="9.2985052735877"><ele>748.0</ele><time>2026-05-01T13:55:30Z</time></trkpt><trkpt lat="40.394238425516136" lon="9.298663129982314"><ele>748.0</ele><time>2026-05-01T13:55:31Z</time></trkpt><trkpt lat="40.39415197661145" lon="9.29886908888957"><ele>748.6666666666667</ele><time>2026-05-01T13:55:32Z</time></trkpt><trkpt lat="40.39407139841849" lon="9.29910200431468"><ele>749.3333333333334</ele><time>2026-05-01T13:55:33Z</time></trkpt><trkpt lat="40.39401286113481" lon="9.299368847320476"><ele>750.0</ele><time>2026-05-01T13:55:34Z</time></trkpt><trkpt lat="40.39398256939902" lon="9.2996363157622"><ele>750.0</ele><time>2026-05-01T13:55:35Z</time></trkpt><trkpt lat="40.394000467501556" lon="9.299933705172894"><ele>750.0</ele><time>2026-05-01T13:55:36Z</time></trkpt><trkpt lat="40.394037816601326" lon="9.300194819099325"><ele>750.0</ele><time>2026-05-01T13:55:37Z</time></trkpt><trkpt lat="40.39406301165708" lon="9.300436418459864"><ele>748.6666666666666</ele><time>2026-05-01T13:55:38Z</time></trkpt><trkpt lat="40.39411164469447" lon="9.300670445081954"><ele>747.3333333333333</ele><time>2026-05-01T13:55:39Z</time></trkpt><trkpt lat="40.39421001789745" lon="9.300867368247468"><ele>746.0</ele><time>2026-05-01T13:55:40Z</time></trkpt><trkpt lat="40.3943611142822" lon="9.301016781452185"><ele>746.0</ele><time>2026-05-01T13:55:41Z</time></trkpt><trkpt lat="40.39454919853634" lon="9.301148474751777"><ele>746.0</ele><time>2026-05-01T13:55:42Z</time></trkpt><trkpt lat="40.39474837989197" lon="9.301243608049628"><ele>746.0</ele><time>2026-05-01T13:55:43Z</time></trkpt><trkpt lat="40.39494557749213" lon="9.301294115140198"><ele>745.0</ele><time>2026-05-01T13:55:44Z</time></trkpt><trkpt lat="40.395140604177165" lon="9.301278843127342"><ele>744.0</ele><time>2026-05-01T13:55:45Z</time></trkpt><trkpt lat="40.39533007365961" lon="9.301192296277083"><ele>743.0</ele><time>2026-05-01T13:55:46Z</time></trkpt><trkpt lat="40.39552470570081" lon="9.301057410603201"><ele>743.0</ele><time>2026-05-01T13:55:47Z</time></trkpt><trkpt lat="40.395724000229464" lon="9.30088608127035"><ele>743.0</ele><time>2026-05-01T13:55:48Z</time></trkpt><trkpt lat="40.39594418556594" lon="9.300718529698704"><ele>741.5</ele><time>2026-05-01T13:55:49Z</time></trkpt><trkpt lat="40.39615246776441" lon="9.300515194453089"><ele>740.0</ele><time>2026-05-01T13:55:50Z</time></trkpt><trkpt lat="40.39634308676324" lon="9.30030511393542"><ele>740.0</ele><time>2026-05-01T13:55:51Z</time></trkpt><trkpt lat="40.39655863212412" lon="9.300156634402551"><ele>740.0</ele><time>2026-05-01T13:55:52Z</time></trkpt><trkpt lat="40.39677560429386" lon="9.300026387477008"><ele>740.0</ele><time>2026-05-01T13:55:53Z</time></trkpt><trkpt lat="40.396974540654206" lon="9.29992166343549"><ele>740.0</ele><time>2026-05-01T13:55:54Z</time></trkpt><trkpt lat="40.39717294141548" lon="9.299850951967287"><ele>740.0</ele><time>2026-05-01T13:55:55Z</time></trkpt><trkpt lat="40.39736051146849" lon="9.299870458669536"><ele>738.6666666666666</ele><time>2026-05-01T13:55:56Z</time></trkpt><trkpt lat="40.39755195565952" lon="9.29992240859091"><ele>737.3333333333334</ele><time>2026-05-01T13:55:57Z</time></trkpt><trkpt lat="40.39776258101229" lon="9.29998406803231"><ele>736.0</ele><time>2026-05-01T13:55:58Z</time></trkpt><trkpt lat="40.39795444986689" lon="9.300065958870478"><ele>736.0</ele><time>2026-05-01T13:55:59Z</time></trkpt><trkpt lat="40.39814762833917" lon="9.300201312458254"><ele>736.0</ele><time>2026-05-01T13:56:00Z</time></trkpt><trkpt lat="40.398343783929086" lon="9.300373175427204"><ele>736.0</ele><time>2026-05-01T13:56:01Z</time></trkpt><trkpt lat="40.39855909487087" lon="9.300553322791657"><ele>736.0</ele><time>2026-05-01T13:56:02Z</time></trkpt><trkpt lat="40.39878097909683" lon="9.300739767636445"><ele>733.5</ele><time>2026-05-01T13:56:03Z</time></trkpt><trkpt lat="40.39900163676532" lon="9.300926469808804"><ele>731.0</ele><time>2026-05-01T13:56:04Z</time></trkpt><trkpt lat="40.39922624893451" lon="9.301097079842327"><ele>731.0</ele><time>2026-05-01T13:56:05Z</time></trkpt><trkpt lat="40.399407064815556" lon="9.301268239928383"><ele>731.0</ele><time>2026-05-01T13:56:06Z</time></trkpt><trkpt lat="40.399580924268435" lon="9.301388601110075"><ele>731.0</ele><time>2026-05-01T13:56:07Z</time></trkpt><trkpt lat="40.399739502067305" lon="9.301508773719636"><ele>731.0</ele><time>2026-05-01T13:56:08Z</time></trkpt><trkpt lat="40.399905043560224" lon="9.301580092501458"><ele>731.0</ele><time>2026-05-01T13:56:09Z</time></trkpt><trkpt lat="40.400091761295364" lon="9.301573213698308"><ele>731.0</ele><time>2026-05-01T13:56:10Z</time></trkpt><trkpt lat="40.40028763735099" lon="9.301526366575999"><ele>731.0</ele><time>2026-05-01T13:56:11Z</time></trkpt><trkpt lat="40.40049182512475" lon="9.301458687516032"><ele>731.0</ele><time>2026-05-01T13:56:12Z</time></trkpt><trkpt lat="40.40070452620022" lon="9.301396688619636"><ele>731.0</ele><time>2026-05-01T13:56:13Z</time></trkpt><trkpt lat="40.40092339542678" lon="9.30133584547495"><ele>731.0</ele><time>2026-05-01T13:56:14Z</time></trkpt><trkpt lat="40.401153947168034" lon="9.301288547767774"><ele>731.0</ele><time>2026-05-01T13:56:15Z</time></trkpt><trkpt lat="40.401395713841545" lon="9.301262683112123"><ele>731.0</ele><time>2026-05-01T13:56:16Z</time></trkpt><trkpt lat="40.40164254910881" lon="9.301250757288388"><ele>731.0</ele><time>2026-05-01T13:56:17Z</time></trkpt><trkpt lat="40.401891725449474" lon="9.301233122569814"><ele>731.0</ele><time>2026-05-01T13:56:18Z</time></trkpt><trkpt lat="40.402144935143916" lon="9.30121379352889"><ele>731.0</ele><time>2026-05-01T13:56:19Z</time></trkpt><trkpt lat="40.40240013660111" lon="9.30120878498652"><ele>732.0</ele><time>2026-05-01T13:56:20Z</time></trkpt><trkpt lat="40.40264686731859" lon="9.301148557507586"><ele>733.0</ele><time>2026-05-01T13:56:21Z</time></trkpt><trkpt lat="40.40287372804716" lon="9.301109623557169"><ele>733.5</ele><time>2026-05-01T13:56:22Z</time></trkpt><trkpt lat="40.40310313452727" lon="9.301127449658152"><ele>734.0</ele><time>2026-05-01T13:56:23Z</time></trkpt><trkpt lat="40.4033324021448" lon="9.30116166082176"><ele>734.0</ele><time>2026-05-01T13:56:24Z</time></trkpt><trkpt lat="40.40354969472114" lon="9.30119613234005"><ele>734.0</ele><time>2026-05-01T13:56:25Z</time></trkpt><trkpt lat="40.403746221438645" lon="9.301218010446084"><ele>734.0</ele><time>2026-05-01T13:56:26Z</time></trkpt><trkpt lat="40.40391858697115" lon="9.301307769196528"><ele>734.6666666666666</ele><time>2026-05-01T13:56:27Z</time></trkpt><trkpt lat="40.40408421390888" lon="9.301435339239731"><ele>735.3333333333334</ele><time>2026-05-01T13:56:28Z</time></trkpt><trkpt lat="40.40426094320046" lon="9.301578875063122"><ele>736.0</ele><time>2026-05-01T13:56:29Z</time></trkpt><trkpt lat="40.404458511505965" lon="9.301721107084466"><ele>736.0</ele><time>2026-05-01T13:56:30Z</time></trkpt><trkpt lat="40.40465350018467" lon="9.301884602147721"><ele>736.0</ele><time>2026-05-01T13:56:31Z</time></trkpt><trkpt lat="40.40484494339419" lon="9.302052171938403"><ele>736.0</ele><time>2026-05-01T13:56:32Z</time></trkpt><trkpt lat="40.40501618034987" lon="9.302189545088527"><ele>736.0</ele><time>2026-05-01T13:56:33Z</time></trkpt><trkpt lat="40.40515265947698" lon="9.302292940747675"><ele>736.0</ele><time>2026-05-01T13:56:34Z</time></trkpt><trkpt lat="40.40527475153642" lon="9.3023762706174"><ele>736.6666666666667</ele><time>2026-05-01T13:56:35Z</time></trkpt><trkpt lat="40.40540049959104" lon="9.30245560225117"><ele>737.3333333333334</ele><time>2026-05-01T13:56:36Z</time></trkpt><trkpt lat="40.405519469650265" lon="9.302521734248295"><ele>738.0</ele><time>2026-05-01T13:56:37Z</time></trkpt><trkpt lat="40.40580438985827" lon="9.302157566257419"><ele>738.0</ele><time>2026-05-01T13:56:38Z</time></trkpt><trkpt lat="40.40597870206999" lon="9.302096470568562"><ele>738.0</ele><time>2026-05-01T13:56:39Z</time></trkpt><trkpt lat="40.406122263988806" lon="9.302044818798924"><ele>738.0</ele><time>2026-05-01T13:56:40Z</time></trkpt><trkpt lat="40.406239488006584" lon="9.302023961995777"><ele>738.0</ele><time>2026-05-01T13:56:41Z</time></trkpt><trkpt lat="40.40636549221767" lon="9.30206723205338"><ele>738.6666666666666</ele><time>2026-05-01T13:56:42Z</time></trkpt><trkpt lat="40.406505299219795" lon="9.30215567697982"><ele>739.3333333333333</ele><time>2026-05-01T13:56:43Z</time></trkpt><trkpt lat="40.4066531713666" lon="9.302257701321665"><ele>740.0</ele><time>2026-05-01T13:56:44Z</time></trkpt><trkpt lat="40.40680671346977" lon="9.302380306910432"><ele>740.6666666666666</ele><time>2026-05-01T13:56:45Z</time></trkpt><trkpt lat="40.40696642454428" lon="9.302503917888172"><ele>741.3333333333334</ele><time>2026-05-01T13:56:46Z</time></trkpt><trkpt lat="40.40711662625058" lon="9.302660982461799"><ele>742.0</ele><time>2026-05-01T13:56:47Z</time></trkpt><trkpt lat="40.40723334318516" lon="9.302867081915558"><ele>743.3333333333334</ele><time>2026-05-01T13:56:48Z</time></trkpt><trkpt lat="40.4073177659733" lon="9.303104741963557"><ele>744.6666666666666</ele><time>2026-05-01T13:56:49Z</time></trkpt><trkpt lat="40.407394527666845" lon="9.303349683084402"><ele>746.0</ele><time>2026-05-01T13:56:50Z</time></trkpt><trkpt lat="40.40747138748153" lon="9.303586453040683"><ele>746.0</ele><time>2026-05-01T13:56:51Z</time></trkpt><trkpt lat="40.4075410997395" lon="9.303795500348842"><ele>746.0</ele><time>2026-05-01T13:56:52Z</time></trkpt><trkpt lat="40.407612799058064" lon="9.303973951007944"><ele>746.0</ele><time>2026-05-01T13:56:53Z</time></trkpt><trkpt lat="40.40769195663818" lon="9.30414279432078"><ele>746.3333333333333</ele><time>2026-05-01T13:56:54Z</time></trkpt><trkpt lat="40.40779967280631" lon="9.304304811028938"><ele>746.6666666666666</ele><time>2026-05-01T13:56:55Z</time></trkpt><trkpt lat="40.40794249987767" lon="9.304437230640021"><ele>747.0</ele><time>2026-05-01T13:56:56Z</time></trkpt><trkpt lat="40.408116152726684" lon="9.304532722938353"><ele>747.0</ele><time>2026-05-01T13:56:57Z</time></trkpt><trkpt lat="40.408305142124064" lon="9.304615390894945"><ele>747.0</ele><time>2026-05-01T13:56:58Z</time></trkpt><trkpt lat="40.40849326217678" lon="9.30472182863511"><ele>747.0</ele><time>2026-05-01T13:56:59Z</time></trkpt><trkpt lat="40.40867858574138" lon="9.304867589397393"><ele>752.0</ele><time>2026-05-01T13:57:00Z</time></trkpt><trkpt lat="40.40888150274725" lon="9.305017993957948"><ele>757.0</ele><time>2026-05-01T13:57:01Z</time></trkpt><trkpt lat="40.40910012922413" lon="9.305149887945039"><ele>757.0</ele><time>2026-05-01T13:57:02Z</time></trkpt><trkpt lat="40.40932243479429" lon="9.305282364132143"><ele>757.0</ele><time>2026-05-01T13:57:03Z</time></trkpt><trkpt lat="40.40953720961151" lon="9.305399146364476"><ele>758.0</ele><time>2026-05-01T13:57:04Z</time></trkpt><trkpt lat="40.409733418634985" lon="9.3054571680014"><ele>759.0</ele><time>2026-05-01T13:57:05Z</time></trkpt><trkpt lat="40.409937930742494" lon="9.30545430695068"><ele>760.0</ele><time>2026-05-01T13:57:06Z</time></trkpt><trkpt lat="40.410136282821995" lon="9.305412533233838"><ele>760.0</ele><time>2026-05-01T13:57:07Z</time></trkpt><trkpt lat="40.410331550478205" lon="9.305354643592132"><ele>760.0</ele><time>2026-05-01T13:57:08Z</time></trkpt><trkpt lat="40.41053011030686" lon="9.305318973483082"><ele>760.0</ele><time>2026-05-01T13:57:09Z</time></trkpt><trkpt lat="40.41071879375356" lon="9.305336955231677"><ele>759.6666666666667</ele><time>2026-05-01T13:57:10Z</time></trkpt><trkpt lat="40.410860971634065" lon="9.305383694104759"><ele>759.3333333333334</ele><time>2026-05-01T13:57:11Z</time></trkpt><trkpt lat="40.411039019029396" lon="9.305446579516643"><ele>759.0</ele><time>2026-05-01T13:57:12Z</time></trkpt><trkpt lat="40.411216252676866" lon="9.305508093389061"><ele>760.5</ele><time>2026-05-01T13:57:13Z</time></trkpt><trkpt lat="40.41132908890993" lon="9.305935970828711"><ele>762.0</ele><time>2026-05-01T13:57:14Z</time></trkpt><trkpt lat="40.411449950972134" lon="9.30622283750168"><ele>762.0</ele><time>2026-05-01T13:57:15Z</time></trkpt><trkpt lat="40.41160057559266" lon="9.306391275285554"><ele>762.0</ele><time>2026-05-01T13:57:16Z</time></trkpt><trkpt lat="40.41172777679298" lon="9.306500409905047"><ele>762.0</ele><time>2026-05-01T13:57:17Z</time></trkpt><trkpt lat="40.41182209821502" lon="9.306689077924718"><ele>763.3333333333334</ele><time>2026-05-01T13:57:18Z</time></trkpt><trkpt lat="40.41192197074902" lon="9.306910786919907"><ele>764.6666666666667</ele><time>2026-05-01T13:57:19Z</time></trkpt><trkpt lat="40.411993152708575" lon="9.307142524939701"><ele>766.0</ele><time>2026-05-01T13:57:20Z</time></trkpt><trkpt lat="40.41206442659375" lon="9.307323039129745"><ele>768.0</ele><time>2026-05-01T13:57:21Z</time></trkpt><trkpt lat="40.412092515053445" lon="9.30750277857335"><ele>770.0</ele><time>2026-05-01T13:57:22Z</time></trkpt><trkpt lat="40.41207435002174" lon="9.307704913961635"><ele>772.0</ele><time>2026-05-01T13:57:23Z</time></trkpt><trkpt lat="40.41201099100675" lon="9.307911369070968"><ele>772.75</ele><time>2026-05-01T13:57:24Z</time></trkpt><trkpt lat="40.41200568312046" lon="9.30809488056962"><ele>773.5</ele><time>2026-05-01T13:57:25Z</time></trkpt><trkpt lat="40.41202143562445" lon="9.308279781762806"><ele>774.25</ele><time>2026-05-01T13:57:26Z</time></trkpt><trkpt lat="40.41214426305858" lon="9.308315869305044"><ele>775.0</ele><time>2026-05-01T13:57:27Z</time></trkpt><trkpt lat="40.412280400288886" lon="9.308342191964053"><ele>775.0</ele><time>2026-05-01T13:57:28Z</time></trkpt><trkpt lat="40.41246089319072" lon="9.308355219893203"><ele>775.0</ele><time>2026-05-01T13:57:29Z</time></trkpt><trkpt lat="40.412682649875904" lon="9.308327247432347"><ele>775.0</ele><time>2026-05-01T13:57:30Z</time></trkpt><trkpt lat="40.41286785290682" lon="9.30827300681532"><ele>775.25</ele><time>2026-05-01T13:57:31Z</time></trkpt><trkpt lat="40.41303287504671" lon="9.308195106071889"><ele>775.5</ele><time>2026-05-01T13:57:32Z</time></trkpt><trkpt lat="40.413173280661525" lon="9.308154583994353"><ele>775.75</ele><time>2026-05-01T13:57:33Z</time></trkpt><trkpt lat="40.41328231517147" lon="9.308203356980588"><ele>776.0</ele><time>2026-05-01T13:57:34Z</time></trkpt><trkpt lat="40.41342401543484" lon="9.308306398406911"><ele>776.0</ele><time>2026-05-01T13:57:35Z</time></trkpt><trkpt lat="40.41354639131016" lon="9.308458486788448"><ele>776.0</ele><time>2026-05-01T13:57:36Z</time></trkpt><trkpt lat="40.41363465930842" lon="9.308675146022518"><ele>776.0</ele><time>2026-05-01T13:57:37Z</time></trkpt><trkpt lat="40.41371866346732" lon="9.308931770494285"><ele>777.0</ele><time>2026-05-01T13:57:38Z</time></trkpt><trkpt lat="40.41381173500129" lon="9.309175939977559"><ele>778.0</ele><time>2026-05-01T13:57:39Z</time></trkpt><trkpt lat="40.413941067082106" lon="9.30933860773912"><ele>779.0</ele><time>2026-05-01T13:57:40Z</time></trkpt><trkpt lat="40.41409481993922" lon="9.309444528768406"><ele>779.0</ele><time>2026-05-01T13:57:41Z</time></trkpt><trkpt lat="40.41427740583274" lon="9.309515188293542"><ele>779.0</ele><time>2026-05-01T13:57:42Z</time></trkpt><trkpt lat="40.414473187651915" lon="9.309582025808778"><ele>779.0</ele><time>2026-05-01T13:57:43Z</time></trkpt><trkpt lat="40.414677838976296" lon="9.309733884073031"><ele>780.6666666666667</ele><time>2026-05-01T13:57:44Z</time></trkpt><trkpt lat="40.41484658399728" lon="9.309890974725793"><ele>782.3333333333333</ele><time>2026-05-01T13:57:45Z</time></trkpt><trkpt lat="40.41498864809069" lon="9.31004807447961"><ele>784.0</ele><time>2026-05-01T13:57:46Z</time></trkpt><trkpt lat="40.41509147923599" lon="9.310211464375023"><ele>784.0</ele><time>2026-05-01T13:57:47Z</time></trkpt><trkpt lat="40.41517970110453" lon="9.310393843177525"><ele>784.0</ele><time>2026-05-01T13:57:48Z</time></trkpt><trkpt lat="40.415268248317716" lon="9.310600617041285"><ele>784.0</ele><time>2026-05-01T13:57:49Z</time></trkpt><trkpt lat="40.415355936309645" lon="9.310816997853596"><ele>785.0</ele><time>2026-05-01T13:57:50Z</time></trkpt><trkpt lat="40.41542006309411" lon="9.311019992769603"><ele>786.0</ele><time>2026-05-01T13:57:51Z</time></trkpt><trkpt lat="40.41544783914702" lon="9.311230271303398"><ele>787.0</ele><time>2026-05-01T13:57:52Z</time></trkpt><trkpt lat="40.41542260472214" lon="9.311465830975179"><ele>787.6666666666666</ele><time>2026-05-01T13:57:53Z</time></trkpt><trkpt lat="40.41535242951611" lon="9.311671135991695"><ele>788.3333333333333</ele><time>2026-05-01T13:57:54Z</time></trkpt><trkpt lat="40.41522905954068" lon="9.311813636268186"><ele>789.0</ele><time>2026-05-01T13:57:55Z</time></trkpt><trkpt lat="40.415067354125576" lon="9.311918517095583"><ele>789.0</ele><time>2026-05-01T13:57:56Z</time></trkpt><trkpt lat="40.41489215737456" lon="9.31202766432865"><ele>789.0</ele><time>2026-05-01T13:57:57Z</time></trkpt><trkpt lat="40.41470162366226" lon="9.312156745810276"><ele>789.0</ele><time>2026-05-01T13:57:58Z</time></trkpt><trkpt lat="40.414537871244676" lon="9.312342305299142"><ele>791.5</ele><time>2026-05-01T13:57:59Z</time></trkpt><trkpt lat="40.41437703847667" lon="9.312585431504546"><ele>794.0</ele><time>2026-05-01T13:58:00Z</time></trkpt><trkpt lat="40.414258352588526" lon="9.312825366620537"><ele>794.0</ele><time>2026-05-01T13:58:01Z</time></trkpt><trkpt lat="40.41416441940976" lon="9.313041276406693"><ele>794.0</ele><time>2026-05-01T13:58:02Z</time></trkpt><trkpt lat="40.41409331313066" lon="9.313266500730728"><ele>794.0</ele><time>2026-05-01T13:58:03Z</time></trkpt><trkpt lat="40.41406344733311" lon="9.313520664022503"><ele>794.3333333333334</ele><time>2026-05-01T13:58:04Z</time></trkpt><trkpt lat="40.414052249981125" lon="9.313798889296613"><ele>794.6666666666667</ele><time>2026-05-01T13:58:05Z</time></trkpt><trkpt lat="40.41405431715778" lon="9.314097545234185"><ele>795.0</ele><time>2026-05-01T13:58:06Z</time></trkpt><trkpt lat="40.41403234482992" lon="9.314400683121765"><ele>795.5</ele><time>2026-05-01T13:58:07Z</time></trkpt><trkpt lat="40.41396589559115" lon="9.314701659391384"><ele>796.0</ele><time>2026-05-01T13:58:08Z</time></trkpt><trkpt lat="40.41387992854837" lon="9.31500265362912"><ele>796.0</ele><time>2026-05-01T13:58:09Z</time></trkpt><trkpt lat="40.41379324843735" lon="9.315284397751059"><ele>796.0</ele><time>2026-05-01T13:58:10Z</time></trkpt><trkpt lat="40.41371795966041" lon="9.315534155863086"><ele>796.0</ele><time>2026-05-01T13:58:11Z</time></trkpt><trkpt lat="40.41364530068571" lon="9.31577108367292"><ele>796.0</ele><time>2026-05-01T13:58:12Z</time></trkpt><trkpt lat="40.41355197794306" lon="9.315983609701465"><ele>796.0</ele><time>2026-05-01T13:58:13Z</time></trkpt><trkpt lat="40.41342022940779" lon="9.316172751699197"><ele>796.0</ele><time>2026-05-01T13:58:14Z</time></trkpt><trkpt lat="40.41324580532764" lon="9.316300210658948"><ele>796.3333333333333</ele><time>2026-05-01T13:58:15Z</time></trkpt><trkpt lat="40.41308168374528" lon="9.316432520198925"><ele>796.6666666666667</ele><time>2026-05-01T13:58:16Z</time></trkpt><trkpt lat="40.41295359527137" lon="9.316552931283658"><ele>797.0</ele><time>2026-05-01T13:58:17Z</time></trkpt><trkpt lat="40.412886793666765" lon="9.31672223569417"><ele>796.3333333333334</ele><time>2026-05-01T13:58:18Z</time></trkpt><trkpt lat="40.41285336332154" lon="9.316938018394213"><ele>795.6666666666667</ele><time>2026-05-01T13:58:19Z</time></trkpt><trkpt lat="40.41285180206852" lon="9.31718669603461"><ele>795.0</ele><time>2026-05-01T13:58:20Z</time></trkpt><trkpt lat="40.41282563589404" lon="9.317477896204942"><ele>795.0</ele><time>2026-05-01T13:58:21Z</time></trkpt><trkpt lat="40.41276830284035" lon="9.317769336056266"><ele>795.0</ele><time>2026-05-01T13:58:22Z</time></trkpt><trkpt lat="40.41268216619461" lon="9.318025642379906"><ele>795.0</ele><time>2026-05-01T13:58:23Z</time></trkpt><trkpt lat="40.41259778818202" lon="9.318240240863716"><ele>795.0</ele><time>2026-05-01T13:58:24Z</time></trkpt><trkpt lat="40.41255385959099" lon="9.318402976989741"><ele>795.0</ele><time>2026-05-01T13:58:25Z</time></trkpt><trkpt lat="40.41256079945569" lon="9.318560330936545"><ele>795.0</ele><time>2026-05-01T13:58:26Z</time></trkpt><trkpt lat="40.41262402592128" lon="9.318728704692322"><ele>795.0</ele><time>2026-05-01T13:58:27Z</time></trkpt><trkpt lat="40.412756975818944" lon="9.318900757414625"><ele>794.3333333333333</ele><time>2026-05-01T13:58:28Z</time></trkpt><trkpt lat="40.41292336730799" lon="9.319078782829564"><ele>793.6666666666666</ele><time>2026-05-01T13:58:29Z</time></trkpt><trkpt lat="40.413067411255064" lon="9.319265449637719"><ele>793.0</ele><time>2026-05-01T13:58:30Z</time></trkpt><trkpt lat="40.41316158295857" lon="9.319498287816266"><ele>793.6666666666666</ele><time>2026-05-01T13:58:31Z</time></trkpt><trkpt lat="40.4132027702285" lon="9.319781221243874"><ele>794.3333333333333</ele><time>2026-05-01T13:58:32Z</time></trkpt><trkpt lat="40.41323140614421" lon="9.320043980578749"><ele>795.0</ele><time>2026-05-01T13:58:33Z</time></trkpt><trkpt lat="40.41329206493239" lon="9.320274815556674"><ele>795.0</ele><time>2026-05-01T13:58:34Z</time></trkpt><trkpt lat="40.41342172523559" lon="9.320494626383043"><ele>795.0</ele><time>2026-05-01T13:58:35Z</time></trkpt><trkpt lat="40.41363179174892" lon="9.320673316678997"><ele>793.0</ele><time>2026-05-01T13:58:36Z</time></trkpt><trkpt lat="40.413801694239574" lon="9.320897926589177"><ele>791.0</ele><time>2026-05-01T13:58:37Z</time></trkpt><trkpt lat="40.41392481748595" lon="9.321131926331155"><ele>792.0</ele><time>2026-05-01T13:58:38Z</time></trkpt><trkpt lat="40.41401163192956" lon="9.321379557522325"><ele>793.0</ele><time>2026-05-01T13:58:39Z</time></trkpt><trkpt lat="40.41410277187955" lon="9.321618585748098"><ele>794.0</ele><time>2026-05-01T13:58:40Z</time></trkpt><trkpt lat="40.41423890989488" lon="9.32180984056153"><ele>794.0</ele><time>2026-05-01T13:58:41Z</time></trkpt><trkpt lat="40.41441670163673" lon="9.321970918936223"><ele>794.0</ele><time>2026-05-01T13:58:42Z</time></trkpt><trkpt lat="40.41456332003907" lon="9.3221638627829"><ele>794.0</ele><time>2026-05-01T13:58:43Z</time></trkpt><trkpt lat="40.41466690276279" lon="9.322391598848464"><ele>794.3333333333334</ele><time>2026-05-01T13:58:44Z</time></trkpt><trkpt lat="40.414762989636706" lon="9.322613620981606"><ele>794.6666666666667</ele><time>2026-05-01T13:58:45Z</time></trkpt><trkpt lat="40.414889746298265" lon="9.32280569629736"><ele>795.0</ele><time>2026-05-01T13:58:46Z</time></trkpt><trkpt lat="40.41505132888003" lon="9.322953697989703"><ele>795.0</ele><time>2026-05-01T13:58:47Z</time></trkpt><trkpt lat="40.41524023108029" lon="9.323046191806805"><ele>795.0</ele><time>2026-05-01T13:58:48Z</time></trkpt><trkpt lat="40.41545332843278" lon="9.323097962540045"><ele>795.0</ele><time>2026-05-01T13:58:49Z</time></trkpt><trkpt lat="40.41567482201371" lon="9.323164126620851"><ele>795.0</ele><time>2026-05-01T13:58:50Z</time></trkpt><trkpt lat="40.41588265298829" lon="9.323290059725153"><ele>795.0</ele><time>2026-05-01T13:58:51Z</time></trkpt><trkpt lat="40.41605418873228" lon="9.323469219859941"><ele>795.0</ele><time>2026-05-01T13:58:52Z</time></trkpt><trkpt lat="40.416212146120536" lon="9.323676501434914"><ele>796.0</ele><time>2026-05-01T13:58:53Z</time></trkpt><trkpt lat="40.41637335814803" lon="9.323855690143777"><ele>797.0</ele><time>2026-05-01T13:58:54Z</time></trkpt><trkpt lat="40.416531048356646" lon="9.3239937048859"><ele>798.0</ele><time>2026-05-01T13:58:55Z</time></trkpt><trkpt lat="40.416666650485865" lon="9.324109835991637"><ele>798.0</ele><time>2026-05-01T13:58:56Z</time></trkpt><trkpt lat="40.41675180529818" lon="9.324227469054456"><ele>798.0</ele><time>2026-05-01T13:58:57Z</time></trkpt><trkpt lat="40.41678121385603" lon="9.324405273586537"><ele>798.0</ele><time>2026-05-01T13:58:58Z</time></trkpt><trkpt lat="40.41673659312692" lon="9.32459079904597"><ele>798.0</ele><time>2026-05-01T13:58:59Z</time></trkpt><trkpt lat="40.41664740342699" lon="9.324810316604907"><ele>796.6666666666667</ele><time>2026-05-01T13:59:00Z</time></trkpt><trkpt lat="40.4165492741586" lon="9.325040793364188"><ele>795.3333333333334</ele><time>2026-05-01T13:59:01Z</time></trkpt><trkpt lat="40.416451560564944" lon="9.325265529176217"><ele>794.0</ele><time>2026-05-01T13:59:02Z</time></trkpt><trkpt lat="40.41636484446806" lon="9.325496229393377"><ele>795.3333333333334</ele><time>2026-05-01T13:59:03Z</time></trkpt><trkpt lat="40.416269432883254" lon="9.325728203567117"><ele>796.6666666666667</ele><time>2026-05-01T13:59:04Z</time></trkpt><trkpt lat="40.41614867777069" lon="9.3259028347847"><ele>798.0</ele><time>2026-05-01T13:59:05Z</time></trkpt><trkpt lat="40.415973134087814" lon="9.326013383025186"><ele>798.0</ele><time>2026-05-01T13:59:06Z</time></trkpt><trkpt lat="40.41577579742602" lon="9.326088893195463"><ele>798.0</ele><time>2026-05-01T13:59:07Z</time></trkpt><trkpt lat="40.41560630667047" lon="9.326159913255994"><ele>798.0</ele><time>2026-05-01T13:59:08Z</time></trkpt><trkpt lat="40.41545139673085" lon="9.326234272228282"><ele>798.25</ele><time>2026-05-01T13:59:09Z</time></trkpt><trkpt lat="40.41533474173978" lon="9.326317216390024"><ele>798.5</ele><time>2026-05-01T13:59:10Z</time></trkpt><trkpt lat="40.415248255315994" lon="9.326451413840955"><ele>798.75</ele><time>2026-05-01T13:59:11Z</time></trkpt><trkpt lat="40.41521809061807" lon="9.326633365701857"><ele>799.0</ele><time>2026-05-01T13:59:12Z</time></trkpt><trkpt lat="40.41526205561328" lon="9.326851838616259"><ele>799.0</ele><time>2026-05-01T13:59:13Z</time></trkpt><trkpt lat="40.41535840813631" lon="9.327103705559486"><ele>799.0</ele><time>2026-05-01T13:59:14Z</time></trkpt><trkpt lat="40.41544641117761" lon="9.327365303409568"><ele>799.0</ele><time>2026-05-01T13:59:15Z</time></trkpt><trkpt lat="40.41552315056675" lon="9.327632646886928"><ele>802.6666666666666</ele><time>2026-05-01T13:59:16Z</time></trkpt><trkpt lat="40.41558907338443" lon="9.327896827781883"><ele>806.3333333333333</ele><time>2026-05-01T13:59:17Z</time></trkpt><trkpt lat="40.415636616514966" lon="9.32813825158242"><ele>810.0</ele><time>2026-05-01T13:59:18Z</time></trkpt><trkpt lat="40.41565746085566" lon="9.32834931191517"><ele>810.0</ele><time>2026-05-01T13:59:19Z</time></trkpt><trkpt lat="40.41563092393958" lon="9.328521197873762"><ele>810.0</ele><time>2026-05-01T13:59:20Z</time></trkpt><trkpt lat="40.41554461700065" lon="9.328653370699737"><ele>810.0</ele><time>2026-05-01T13:59:21Z</time></trkpt><trkpt lat="40.415421108983914" lon="9.328758993135"><ele>810.0</ele><time>2026-05-01T13:59:22Z</time></trkpt><trkpt lat="40.41527097893274" lon="9.328852625227672"><ele>810.0</ele><time>2026-05-01T13:59:23Z</time></trkpt><trkpt lat="40.41508845901943" lon="9.328879283914077"><ele>810.0</ele><time>2026-05-01T13:59:24Z</time></trkpt><trkpt lat="40.414894810928025" lon="9.328853925882624"><ele>810.0</ele><time>2026-05-01T13:59:25Z</time></trkpt><trkpt lat="40.414715009739915" lon="9.3288390109797"><ele>811.3333333333333</ele><time>2026-05-01T13:59:26Z</time></trkpt><trkpt lat="40.41455946420473" lon="9.32888496174986"><ele>812.6666666666666</ele><time>2026-05-01T13:59:27Z</time></trkpt><trkpt lat="40.41441977096551" lon="9.329018292393414"><ele>814.0</ele><time>2026-05-01T13:59:28Z</time></trkpt><trkpt lat="40.414304716667544" lon="9.329181866066914"><ele>815.0</ele><time>2026-05-01T13:59:29Z</time></trkpt><trkpt lat="40.414206843485346" lon="9.32934057006894"><ele>816.0</ele><time>2026-05-01T13:59:30Z</time></trkpt><trkpt lat="40.414101764585766" lon="9.32941469674426"><ele>817.0</ele><time>2026-05-01T13:59:31Z</time></trkpt><trkpt lat="40.413983544813576" lon="9.329390312392402"><ele>818.0</ele><time>2026-05-01T13:59:32Z</time></trkpt><trkpt lat="40.413880737421216" lon="9.329291358184063"><ele>819.3333333333334</ele><time>2026-05-01T13:59:33Z</time></trkpt><trkpt lat="40.41379685150288" lon="9.329102132830725"><ele>820.6666666666667</ele><time>2026-05-01T13:59:34Z</time></trkpt><trkpt lat="40.41373456420429" lon="9.328890781420428"><ele>822.0</ele><time>2026-05-01T13:59:35Z</time></trkpt><trkpt lat="40.413683897555536" lon="9.328659708302045"><ele>822.0</ele><time>2026-05-01T13:59:36Z</time></trkpt><trkpt lat="40.41360256564013" lon="9.328451140782583"><ele>822.0</ele><time>2026-05-01T13:59:37Z</time></trkpt><trkpt lat="40.41348726736467" lon="9.32826789073174"><ele>822.0</ele><time>2026-05-01T13:59:38Z</time></trkpt><trkpt lat="40.41333884841095" lon="9.328146762015553"><ele>822.0</ele><time>2026-05-01T13:59:39Z</time></trkpt><trkpt lat="40.4131405230698" lon="9.328127314439527"><ele>822.0</ele><time>2026-05-01T13:59:40Z</time></trkpt><trkpt lat="40.412934208742406" lon="9.328116611342786"><ele>822.0</ele><time>2026-05-01T13:59:41Z</time></trkpt><trkpt lat="40.412708066245266" lon="9.32813929016278"><ele>824.3333333333333</ele><time>2026-05-01T13:59:42Z</time></trkpt><trkpt lat="40.41250123035046" lon="9.32814666496492"><ele>826.6666666666666</ele><time>2026-05-01T13:59:43Z</time></trkpt><trkpt lat="40.41232547592274" lon="9.32816087549152"><ele>829.0</ele><time>2026-05-01T13:59:44Z</time></trkpt><trkpt lat="40.412212294646416" lon="9.328210359006775"><ele>829.25</ele><time>2026-05-01T13:59:45Z</time></trkpt><trkpt lat="40.412129378903266" lon="9.328319922196174"><ele>829.5</ele><time>2026-05-01T13:59:46Z</time></trkpt><trkpt lat="40.41209873658759" lon="9.328493518750259"><ele>829.75</ele><time>2026-05-01T13:59:47Z</time></trkpt><trkpt lat="40.4121278103697" lon="9.328690094007541"><ele>830.0</ele><time>2026-05-01T13:59:48Z</time></trkpt><trkpt lat="40.41218175510417" lon="9.328914822276346"><ele>830.0</ele><time>2026-05-01T13:59:49Z</time></trkpt><trkpt lat="40.41223540678763" lon="9.329168278903479"><ele>830.0</ele><time>2026-05-01T13:59:50Z</time></trkpt><trkpt lat="40.41224406338082" lon="9.329440729094678"><ele>830.0</ele><time>2026-05-01T13:59:51Z</time></trkpt><trkpt lat="40.41222779766666" lon="9.329741396999001"><ele>831.0</ele><time>2026-05-01T13:59:52Z</time></trkpt><trkpt lat="40.41221566892408" lon="9.33003288248601"><ele>832.0</ele><time>2026-05-01T13:59:53Z</time></trkpt><trkpt lat="40.41220720497325" lon="9.330297409880188"><ele>833.0</ele><time>2026-05-01T13:59:54Z</time></trkpt><trkpt lat="40.41217558463552" lon="9.330516440264018"><ele>835.0</ele><time>2026-05-01T13:59:55Z</time></trkpt><trkpt lat="40.412110228418854" lon="9.33067413599136"><ele>837.0</ele><time>2026-05-01T13:59:56Z</time></trkpt><trkpt lat="40.41198700321713" lon="9.330772000526101"><ele>839.0</ele><time>2026-05-01T13:59:57Z</time></trkpt><trkpt lat="40.41182803365843" lon="9.330852927552769"><ele>839.0</ele><time>2026-05-01T13:59:58Z</time></trkpt><trkpt lat="40.41164392138408" lon="9.330951289396914"><ele>839.0</ele><time>2026-05-01T13:59:59Z</time></trkpt><trkpt lat="40.41146617178772" lon="9.331083694151312"><ele>839.0</ele><time>2026-05-01T14:00:00Z</time></trkpt><trkpt lat="40.411339701585796" lon="9.33126604015033"><ele>839.0</ele><time>2026-05-01T14:00:01Z</time></trkpt><trkpt lat="40.411245741126876" lon="9.331489538225656"><ele>839.0</ele><time>2026-05-01T14:00:02Z</time></trkpt><trkpt lat="40.41117596142182" lon="9.331743171009693"><ele>839.0</ele><time>2026-05-01T14:00:03Z</time></trkpt><trkpt lat="40.41113150907788" lon="9.331968392681576"><ele>839.0</ele><time>2026-05-01T14:00:04Z</time></trkpt><trkpt lat="40.411105741568484" lon="9.332181324536569"><ele>839.0</ele><time>2026-05-01T14:00:05Z</time></trkpt><trkpt lat="40.411124174132546" lon="9.33238741232305"><ele>839.0</ele><time>2026-05-01T14:00:06Z</time></trkpt><trkpt lat="40.41121181809209" lon="9.332579285050848"><ele>839.6666666666667</ele><time>2026-05-01T14:00:07Z</time></trkpt><trkpt lat="40.41135614315222" lon="9.332765428121988"><ele>840.3333333333333</ele><time>2026-05-01T14:00:08Z</time></trkpt><trkpt lat="40.411515872027586" lon="9.332955401736417"><ele>841.0</ele><time>2026-05-01T14:00:09Z</time></trkpt><trkpt lat="40.41166002442435" lon="9.333132827306448"><ele>841.6666666666666</ele><time>2026-05-01T14:00:10Z</time></trkpt><trkpt lat="40.41175746047338" lon="9.333330944663846"><ele>842.3333333333333</ele><time>2026-05-01T14:00:11Z</time></trkpt><trkpt lat="40.411833620893844" lon="9.333572998517845"><ele>843.0</ele><time>2026-05-01T14:00:12Z</time></trkpt><trkpt lat="40.41185874146157" lon="9.333800179561939"><ele>844.0</ele><time>2026-05-01T14:00:13Z</time></trkpt><trkpt lat="40.41184322904701" lon="9.33403432534922"><ele>845.0</ele><time>2026-05-01T14:00:14Z</time></trkpt><trkpt lat="40.411776045111296" lon="9.334277321905855"><ele>846.0</ele><time>2026-05-01T14:00:15Z</time></trkpt><trkpt lat="40.411687649162594" lon="9.334530212303124"><ele>850.0</ele><time>2026-05-01T14:00:16Z</time></trkpt><trkpt lat="40.41158718630233" lon="9.334796114378863"><ele>854.0</ele><time>2026-05-01T14:00:17Z</time></trkpt><trkpt lat="40.41148032603596" lon="9.335089504326175"><ele>854.0</ele><time>2026-05-01T14:00:18Z</time></trkpt><trkpt lat="40.41134942472258" lon="9.335393877589388"><ele>854.0</ele><time>2026-05-01T14:00:19Z</time></trkpt><trkpt lat="40.41118887123767" lon="9.335703074942582"><ele>852.0</ele><time>2026-05-01T14:00:20Z</time></trkpt><trkpt lat="40.411021978647895" lon="9.336037612318105"><ele>850.0</ele><time>2026-05-01T14:00:21Z</time></trkpt><trkpt lat="40.4108669695466" lon="9.33638446598776"><ele>852.0</ele><time>2026-05-01T14:00:22Z</time></trkpt><trkpt lat="40.41073151405313" lon="9.336699457149141"><ele>854.0</ele><time>2026-05-01T14:00:23Z</time></trkpt><trkpt lat="40.41057638608399" lon="9.336975242000458"><ele>854.5</ele><time>2026-05-01T14:00:24Z</time></trkpt><trkpt lat="40.410404254723005" lon="9.337208981202126"><ele>855.0</ele><time>2026-05-01T14:00:25Z</time></trkpt><trkpt lat="40.410250341425986" lon="9.337436204324813"><ele>855.0</ele><time>2026-05-01T14:00:26Z</time></trkpt><trkpt lat="40.41013459271647" lon="9.337681147931322"><ele>855.0</ele><time>2026-05-01T14:00:27Z</time></trkpt><trkpt lat="40.410067482375055" lon="9.337943311004999"><ele>855.0</ele><time>2026-05-01T14:00:28Z</time></trkpt><trkpt lat="40.41001505710311" lon="9.338179016496762"><ele>855.0</ele><time>2026-05-01T14:00:29Z</time></trkpt><trkpt lat="40.409936091094124" lon="9.338361398321592"><ele>855.0</ele><time>2026-05-01T14:00:30Z</time></trkpt><trkpt lat="40.40980414145459" lon="9.338485972572077"><ele>855.0</ele><time>2026-05-01T14:00:31Z</time></trkpt><trkpt lat="40.409638458357044" lon="9.3385754094861"><ele>855.0</ele><time>2026-05-01T14:00:32Z</time></trkpt><trkpt lat="40.4094396048665" lon="9.338640101341815"><ele>855.0</ele><time>2026-05-01T14:00:33Z</time></trkpt><trkpt lat="40.409257302704724" lon="9.33870582954406"><ele>855.0</ele><time>2026-05-01T14:00:34Z</time></trkpt><trkpt lat="40.40909206828672" lon="9.33881293943603"><ele>856.0</ele><time>2026-05-01T14:00:35Z</time></trkpt><trkpt lat="40.40893889677463" lon="9.338965655724099"><ele>857.0</ele><time>2026-05-01T14:00:36Z</time></trkpt><trkpt lat="40.408814983438916" lon="9.339166973493555"><ele>858.0</ele><time>2026-05-01T14:00:37Z</time></trkpt><trkpt lat="40.40871648566465" lon="9.33938604440245"><ele>858.0</ele><time>2026-05-01T14:00:38Z</time></trkpt><trkpt lat="40.408644476895375" lon="9.339585519603679"><ele>858.0</ele><time>2026-05-01T14:00:39Z</time></trkpt><trkpt lat="40.40861058284512" lon="9.33978901818372"><ele>858.0</ele><time>2026-05-01T14:00:40Z</time></trkpt><trkpt lat="40.408622160090545" lon="9.340002618305762"><ele>859.3333333333333</ele><time>2026-05-01T14:00:41Z</time></trkpt><trkpt lat="40.40869054482275" lon="9.340195984859117"><ele>860.6666666666666</ele><time>2026-05-01T14:00:42Z</time></trkpt><trkpt lat="40.40880310141689" lon="9.340388568968406"><ele>862.0</ele><time>2026-05-01T14:00:43Z</time></trkpt><trkpt lat="40.40894244613326" lon="9.340575392606267"><ele>862.3333333333333</ele><time>2026-05-01T14:00:44Z</time></trkpt><trkpt lat="40.40907721593302" lon="9.340776214647287"><ele>862.6666666666667</ele><time>2026-05-01T14:00:45Z</time></trkpt><trkpt lat="40.40918713037998" lon="9.340973660557486"><ele>863.0</ele><time>2026-05-01T14:00:46Z</time></trkpt><trkpt lat="40.40925802922221" lon="9.341213999159317"><ele>862.3333333333334</ele><time>2026-05-01T14:00:47Z</time></trkpt><trkpt lat="40.409314177668" lon="9.341455925145516"><ele>861.6666666666667</ele><time>2026-05-01T14:00:48Z</time></trkpt><trkpt lat="40.409377796673155" lon="9.341700561943867"><ele>861.0</ele><time>2026-05-01T14:00:49Z</time></trkpt><trkpt lat="40.40945221972641" lon="9.341955200248925"><ele>861.0</ele><time>2026-05-01T14:00:50Z</time></trkpt><trkpt lat="40.40953854409247" lon="9.342182029691047"><ele>861.0</ele><time>2026-05-01T14:00:51Z</time></trkpt><trkpt lat="40.409632932256166" lon="9.342394471182931"><ele>861.0</ele><time>2026-05-01T14:00:52Z</time></trkpt><trkpt lat="40.409736780462104" lon="9.342602360100866"><ele>864.6666666666667</ele><time>2026-05-01T14:00:53Z</time></trkpt><trkpt lat="40.40985771239286" lon="9.342770188592171"><ele>868.3333333333334</ele><time>2026-05-01T14:00:54Z</time></trkpt><trkpt lat="40.4100049717371" lon="9.342902387635316"><ele>872.0</ele><time>2026-05-01T14:00:55Z</time></trkpt><trkpt lat="40.410172945749245" lon="9.34299688493102"><ele>871.6666666666667</ele><time>2026-05-01T14:00:56Z</time></trkpt><trkpt lat="40.41035646015755" lon="9.3430724801308"><ele>871.3333333333333</ele><time>2026-05-01T14:00:57Z</time></trkpt><trkpt lat="40.41053515803511" lon="9.343171826090813"><ele>871.0</ele><time>2026-05-01T14:00:58Z</time></trkpt><trkpt lat="40.41067794709116" lon="9.343334466647939"><ele>871.0</ele><time>2026-05-01T14:00:59Z</time></trkpt><trkpt lat="40.410807872155104" lon="9.343545999538183"><ele>871.0</ele><time>2026-05-01T14:01:00Z</time></trkpt><trkpt lat="40.41093743434385" lon="9.343755951235316"><ele>871.0</ele><time>2026-05-01T14:01:01Z</time></trkpt><trkpt lat="40.4110807878898" lon="9.343953909010988"><ele>872.0</ele><time>2026-05-01T14:01:02Z</time></trkpt><trkpt lat="40.41122762492919" lon="9.344150233859596"><ele>873.0</ele><time>2026-05-01T14:01:03Z</time></trkpt><trkpt lat="40.41136132573259" lon="9.344363521287281"><ele>874.0</ele><time>2026-05-01T14:01:04Z</time></trkpt><trkpt lat="40.411467292482946" lon="9.344610535583824"><ele>872.3333333333333</ele><time>2026-05-01T14:01:05Z</time></trkpt><trkpt lat="40.411558055693405" lon="9.344877713935746"><ele>870.6666666666667</ele><time>2026-05-01T14:01:06Z</time></trkpt><trkpt lat="40.41165801801149" lon="9.34513279615963"><ele>869.0</ele><time>2026-05-01T14:01:07Z</time></trkpt><trkpt lat="40.411776092020666" lon="9.34537415629547"><ele>868.6666666666667</ele><time>2026-05-01T14:01:08Z</time></trkpt><trkpt lat="40.411894037921606" lon="9.345601825179454"><ele>868.3333333333333</ele><time>2026-05-01T14:01:09Z</time></trkpt><trkpt lat="40.41198769636538" lon="9.345802286326101"><ele>868.0</ele><time>2026-05-01T14:01:10Z</time></trkpt><trkpt lat="40.41204395279328" lon="9.345984567995806"><ele>868.0</ele><time>2026-05-01T14:01:11Z</time></trkpt><trkpt lat="40.41205209284835" lon="9.346167451855315"><ele>868.0</ele><time>2026-05-01T14:01:12Z</time></trkpt><trkpt lat="40.41199809502038" lon="9.346336775762257"><ele>868.0</ele><time>2026-05-01T14:01:13Z</time></trkpt><trkpt lat="40.411910870434895" lon="9.346509666726124"><ele>868.0</ele><time>2026-05-01T14:01:14Z</time></trkpt><trkpt lat="40.41181020570202" lon="9.34668761747659"><ele>867.6666666666666</ele><time>2026-05-01T14:01:15Z</time></trkpt><trkpt lat="40.41170105860164" lon="9.346882553642768"><ele>867.3333333333333</ele><time>2026-05-01T14:01:16Z</time></trkpt><trkpt lat="40.41159115844208" lon="9.347105662500349"><ele>867.0</ele><time>2026-05-01T14:01:17Z</time></trkpt><trkpt lat="40.41147979082415" lon="9.34730469522986"><ele>867.0</ele><time>2026-05-01T14:01:18Z</time></trkpt><trkpt lat="40.4113858866489" lon="9.34748261600305"><ele>867.0</ele><time>2026-05-01T14:01:19Z</time></trkpt><trkpt lat="40.41135213641254" lon="9.347673724642833"><ele>867.0</ele><time>2026-05-01T14:01:20Z</time></trkpt><trkpt lat="40.41137111896684" lon="9.347878350142013"><ele>869.0</ele><time>2026-05-01T14:01:21Z</time></trkpt><trkpt lat="40.411425950660956" lon="9.348107936316259"><ele>871.0</ele><time>2026-05-01T14:01:22Z</time></trkpt><trkpt lat="40.411458406684574" lon="9.348363697479844"><ele>873.0</ele><time>2026-05-01T14:01:23Z</time></trkpt><trkpt lat="40.411435373511274" lon="9.348625428198673"><ele>873.0</ele><time>2026-05-01T14:01:24Z</time></trkpt><trkpt lat="40.41139602860927" lon="9.348899294502612"><ele>873.0</ele><time>2026-05-01T14:01:25Z</time></trkpt><trkpt lat="40.411349022625885" lon="9.34918756191538"><ele>873.0</ele><time>2026-05-01T14:01:26Z</time></trkpt><trkpt lat="40.41129745851589" lon="9.34947659322774"><ele>871.5</ele><time>2026-05-01T14:01:27Z</time></trkpt><trkpt lat="40.41124112773109" lon="9.3497893786627"><ele>870.0</ele><time>2026-05-01T14:01:28Z</time></trkpt><trkpt lat="40.411167571032486" lon="9.350119857081562"><ele>870.0</ele><time>2026-05-01T14:01:29Z</time></trkpt><trkpt lat="40.41109696188095" lon="9.350450513289914"><ele>870.0</ele><time>2026-05-01T14:01:30Z</time></trkpt><trkpt lat="40.411025465320904" lon="9.350755459113659"><ele>870.0</ele><time>2026-05-01T14:01:31Z</time></trkpt><trkpt lat="40.41095600859297" lon="9.351044026072566"><ele>870.0</ele><time>2026-05-01T14:01:32Z</time></trkpt><trkpt lat="40.41089377973189" lon="9.351297788678178"><ele>870.0</ele><time>2026-05-01T14:01:33Z</time></trkpt><trkpt lat="40.41084466806494" lon="9.351494548232182"><ele>870.25</ele><time>2026-05-01T14:01:34Z</time></trkpt><trkpt lat="40.410819330488266" lon="9.351669584296314"><ele>870.5</ele><time>2026-05-01T14:01:35Z</time></trkpt><trkpt lat="40.41082964896599" lon="9.351851584009047"><ele>870.75</ele><time>2026-05-01T14:01:36Z</time></trkpt><trkpt lat="40.41089892610528" lon="9.352015953548651"><ele>871.0</ele><time>2026-05-01T14:01:37Z</time></trkpt><trkpt lat="40.41101559441741" lon="9.352142753549098"><ele>870.3333333333333</ele><time>2026-05-01T14:01:38Z</time></trkpt><trkpt lat="40.411149386908534" lon="9.352278292851137"><ele>869.6666666666667</ele><time>2026-05-01T14:01:39Z</time></trkpt><trkpt lat="40.411240008133255" lon="9.352454728499705"><ele>869.0</ele><time>2026-05-01T14:01:40Z</time></trkpt><trkpt lat="40.41125850062255" lon="9.35265540369459"><ele>869.0</ele><time>2026-05-01T14:01:41Z</time></trkpt><trkpt lat="40.41124724320456" lon="9.352886343199218"><ele>869.0</ele><time>2026-05-01T14:01:42Z</time></trkpt><trkpt lat="40.41122692530387" lon="9.353136298642566"><ele>869.0</ele><time>2026-05-01T14:01:43Z</time></trkpt><trkpt lat="40.41122412303989" lon="9.353391843978267"><ele>868.6666666666667</ele><time>2026-05-01T14:01:44Z</time></trkpt><trkpt lat="40.411246451732794" lon="9.353671091077933"><ele>868.3333333333333</ele><time>2026-05-01T14:01:45Z</time></trkpt><trkpt lat="40.41127597016854" lon="9.35393767610479"><ele>868.0</ele><time>2026-05-01T14:01:46Z</time></trkpt><trkpt lat="40.411287958246184" lon="9.354215683731638"><ele>868.0</ele><time>2026-05-01T14:01:47Z</time></trkpt><trkpt lat="40.41131420598582" lon="9.354487374958392"><ele>868.0</ele><time>2026-05-01T14:01:48Z</time></trkpt><trkpt lat="40.411338299675634" lon="9.354736769583068"><ele>868.0</ele><time>2026-05-01T14:01:49Z</time></trkpt><trkpt lat="40.41137640376292" lon="9.354969511156424"><ele>867.6666666666666</ele><time>2026-05-01T14:01:50Z</time></trkpt><trkpt lat="40.41141056334422" lon="9.355188032829723"><ele>867.3333333333333</ele><time>2026-05-01T14:01:51Z</time></trkpt><trkpt lat="40.411485836438686" lon="9.355376185490792"><ele>867.0</ele><time>2026-05-01T14:01:52Z</time></trkpt><trkpt lat="40.41161670916037" lon="9.355536374044641"><ele>866.6666666666667</ele><time>2026-05-01T14:01:53Z</time></trkpt><trkpt lat="40.41179430101445" lon="9.355691304700727"><ele>866.3333333333334</ele><time>2026-05-01T14:01:54Z</time></trkpt><trkpt lat="40.411988042081845" lon="9.355859500180767"><ele>866.0</ele><time>2026-05-01T14:01:55Z</time></trkpt><trkpt lat="40.41218186654863" lon="9.356036804972202"><ele>866.0</ele><time>2026-05-01T14:01:56Z</time></trkpt><trkpt lat="40.4123566098313" lon="9.356189599073602"><ele>866.0</ele><time>2026-05-01T14:01:57Z</time></trkpt><trkpt lat="40.41251306775673" lon="9.356355516543072"><ele>866.0</ele><time>2026-05-01T14:01:58Z</time></trkpt><trkpt lat="40.41266111720512" lon="9.356489837107677"><ele>865.25</ele><time>2026-05-01T14:01:59Z</time></trkpt><trkpt lat="40.412789355743534" lon="9.356606183931904"><ele>864.5</ele><time>2026-05-01T14:02:00Z</time></trkpt><trkpt lat="40.41291192080183" lon="9.356692641662029"><ele>863.75</ele><time>2026-05-01T14:02:01Z</time></trkpt><trkpt lat="40.41301690628352" lon="9.356812633308317"><ele>863.0</ele><time>2026-05-01T14:02:02Z</time></trkpt><trkpt lat="40.41312561773925" lon="9.35691126430129"><ele>863.0</ele><time>2026-05-01T14:02:03Z</time></trkpt><trkpt lat="40.41323440819041" lon="9.357012355829605"><ele>863.0</ele><time>2026-05-01T14:02:04Z</time></trkpt><trkpt lat="40.413357745717285" lon="9.357120379878381"><ele>863.0</ele><time>2026-05-01T14:02:05Z</time></trkpt><trkpt lat="40.41346239002584" lon="9.357288624734094"><ele>863.0</ele><time>2026-05-01T14:02:06Z</time></trkpt><trkpt lat="40.41354755727284" lon="9.357493437630778"><ele>862.3333333333334</ele><time>2026-05-01T14:02:07Z</time></trkpt><trkpt lat="40.41361581508024" lon="9.35772361139969"><ele>861.6666666666667</ele><time>2026-05-01T14:02:08Z</time></trkpt><trkpt lat="40.41366886254415" lon="9.357973408750956"><ele>861.0</ele><time>2026-05-01T14:02:09Z</time></trkpt><trkpt lat="40.41370026110606" lon="9.358238128593019"><ele>859.0</ele><time>2026-05-01T14:02:10Z</time></trkpt><trkpt lat="40.41366477127107" lon="9.358507967469684"><ele>857.0</ele><time>2026-05-01T14:02:11Z</time></trkpt><trkpt lat="40.4136359227939" lon="9.358787978307298"><ele>855.0</ele><time>2026-05-01T14:02:12Z</time></trkpt><trkpt lat="40.41356536108026" lon="9.359062962024229"><ele>855.0</ele><time>2026-05-01T14:02:13Z</time></trkpt><trkpt lat="40.413489431169886" lon="9.359345918149746"><ele>855.0</ele><time>2026-05-01T14:02:14Z</time></trkpt><trkpt lat="40.41343993732268" lon="9.359617171436229"><ele>855.0</ele><time>2026-05-01T14:02:15Z</time></trkpt><trkpt lat="40.41335894351882" lon="9.359894245723138"><ele>854.6666666666667</ele><time>2026-05-01T14:02:16Z</time></trkpt><trkpt lat="40.41332776699225" lon="9.360076294089989"><ele>854.3333333333334</ele><time>2026-05-01T14:02:17Z</time></trkpt><trkpt lat="40.41319935772236" lon="9.360207946267538"><ele>854.0</ele><time>2026-05-01T14:02:18Z</time></trkpt><trkpt lat="40.41304514368797" lon="9.36035542514652"><ele>848.3333333333334</ele><time>2026-05-01T14:02:19Z</time></trkpt><trkpt lat="40.41291063560183" lon="9.360548166825037"><ele>842.6666666666667</ele><time>2026-05-01T14:02:20Z</time></trkpt><trkpt lat="40.41283236383208" lon="9.360758050640454"><ele>837.0</ele><time>2026-05-01T14:02:21Z</time></trkpt><trkpt lat="40.41274916615411" lon="9.360979473551165"><ele>837.0</ele><time>2026-05-01T14:02:22Z</time></trkpt><trkpt lat="40.41270395599961" lon="9.361218258773357"><ele>837.0</ele><time>2026-05-01T14:02:23Z</time></trkpt><trkpt lat="40.4126917351825" lon="9.361462766839074"><ele>837.0</ele><time>2026-05-01T14:02:24Z</time></trkpt><trkpt lat="40.412732012356365" lon="9.361715211745747"><ele>836.0</ele><time>2026-05-01T14:02:25Z</time></trkpt><trkpt lat="40.41281703117733" lon="9.361956325598092"><ele>835.0</ele><time>2026-05-01T14:02:26Z</time></trkpt><trkpt lat="40.41293098415886" lon="9.36220165591868"><ele>834.0</ele><time>2026-05-01T14:02:27Z</time></trkpt><trkpt lat="40.41303663389951" lon="9.362422029192919"><ele>836.5</ele><time>2026-05-01T14:02:28Z</time></trkpt><trkpt lat="40.413125968021525" lon="9.3625895836638"><ele>839.0</ele><time>2026-05-01T14:02:29Z</time></trkpt><trkpt lat="40.413220785869576" lon="9.362696312441786"><ele>841.5</ele><time>2026-05-01T14:02:30Z</time></trkpt><trkpt lat="40.41335043123417" lon="9.362732644779996"><ele>844.0</ele><time>2026-05-01T14:02:31Z</time></trkpt><trkpt lat="40.41351615946654" lon="9.362714472015538"><ele>844.0</ele><time>2026-05-01T14:02:32Z</time></trkpt><trkpt lat="40.41370681832792" lon="9.362654989223403"><ele>844.0</ele><time>2026-05-01T14:02:33Z</time></trkpt><trkpt lat="40.413881235120215" lon="9.362584905213366"><ele>844.0</ele><time>2026-05-01T14:02:34Z</time></trkpt><trkpt lat="40.4140100034393" lon="9.362588173197425"><ele>842.0</ele><time>2026-05-01T14:02:35Z</time></trkpt><trkpt lat="40.41409186027897" lon="9.362638724466484"><ele>840.0</ele><time>2026-05-01T14:02:36Z</time></trkpt><trkpt lat="40.41408570459653" lon="9.362767804149035"><ele>838.0</ele><time>2026-05-01T14:02:37Z</time></trkpt><trkpt lat="40.414043527341484" lon="9.362969647199245"><ele>836.0</ele><time>2026-05-01T14:02:38Z</time></trkpt><trkpt lat="40.414021459021676" lon="9.36320891206906"><ele>836.0</ele><time>2026-05-01T14:02:39Z</time></trkpt><trkpt lat="40.41400627837638" lon="9.363435324163623"><ele>836.0</ele><time>2026-05-01T14:02:40Z</time></trkpt><trkpt lat="40.41401865594503" lon="9.363670449074288"><ele>836.0</ele><time>2026-05-01T14:02:41Z</time></trkpt><trkpt lat="40.41409443479601" lon="9.363873102781904"><ele>830.6666666666667</ele><time>2026-05-01T14:02:42Z</time></trkpt><trkpt lat="40.4141886441901" lon="9.3640250405518"><ele>825.3333333333333</ele><time>2026-05-01T14:02:43Z</time></trkpt><trkpt lat="40.41433677850842" lon="9.3641061571694"><ele>820.0</ele><time>2026-05-01T14:02:44Z</time></trkpt><trkpt lat="40.41448635953479" lon="9.364158236065359"><ele>820.0</ele><time>2026-05-01T14:02:45Z</time></trkpt><trkpt lat="40.41464187314035" lon="9.364233216254206"><ele>820.0</ele><time>2026-05-01T14:02:46Z</time></trkpt><trkpt lat="40.41476808500124" lon="9.364412436406809"><ele>820.0</ele><time>2026-05-01T14:02:47Z</time></trkpt><trkpt lat="40.41490599128326" lon="9.364571458322052"><ele>817.25</ele><time>2026-05-01T14:02:48Z</time></trkpt><trkpt lat="40.41503122808478" lon="9.364723817044094"><ele>814.5</ele><time>2026-05-01T14:02:49Z</time></trkpt><trkpt lat="40.41515131166346" lon="9.364825885740668"><ele>811.75</ele><time>2026-05-01T14:02:50Z</time></trkpt><trkpt lat="40.41526425525612" lon="9.364875380346973"><ele>809.0</ele><time>2026-05-01T14:02:51Z</time></trkpt><trkpt lat="40.41538689673743" lon="9.364869807763627"><ele>809.5</ele><time>2026-05-01T14:02:52Z</time></trkpt><trkpt lat="40.415529239718815" lon="9.364817410368374"><ele>810.0</ele><time>2026-05-01T14:02:53Z</time></trkpt><trkpt lat="40.415667495822724" lon="9.364740842059263"><ele>810.5</ele><time>2026-05-01T14:02:54Z</time></trkpt><trkpt lat="40.41581279390839" lon="9.364690868806028"><ele>811.0</ele><time>2026-05-01T14:02:55Z</time></trkpt><trkpt lat="40.4159810430443" lon="9.36466449195601"><ele>812.0</ele><time>2026-05-01T14:02:56Z</time></trkpt><trkpt lat="40.416179618863794" lon="9.364600950719849"><ele>813.0</ele><time>2026-05-01T14:02:57Z</time></trkpt><trkpt lat="40.41637678601452" lon="9.364464821087589"><ele>814.0</ele><time>2026-05-01T14:02:58Z</time></trkpt><trkpt lat="40.41654735437775" lon="9.36432947481665"><ele>814.0</ele><time>2026-05-01T14:02:59Z</time></trkpt><trkpt lat="40.41669817794764" lon="9.364146990994861"><ele>814.0</ele><time>2026-05-01T14:03:00Z</time></trkpt><trkpt lat="40.41681413729485" lon="9.363894846490178"><ele>814.0</ele><time>2026-05-01T14:03:01Z</time></trkpt><trkpt lat="40.41691542884072" lon="9.363627112660208"><ele>812.3333333333333</ele><time>2026-05-01T14:03:02Z</time></trkpt><trkpt lat="40.41702826105422" lon="9.363361755290082"><ele>810.6666666666667</ele><time>2026-05-01T14:03:03Z</time></trkpt><trkpt lat="40.41713651558882" lon="9.363132428990879"><ele>809.0</ele><time>2026-05-01T14:03:04Z</time></trkpt><trkpt lat="40.41723998475056" lon="9.362920380567573"><ele>809.0</ele><time>2026-05-01T14:03:05Z</time></trkpt><trkpt lat="40.41732973700081" lon="9.362724521911154"><ele>809.0</ele><time>2026-05-01T14:03:06Z</time></trkpt><trkpt lat="40.417391053951924" lon="9.362522931581097"><ele>809.0</ele><time>2026-05-01T14:03:07Z</time></trkpt><trkpt lat="40.417403088349886" lon="9.362295823128822"><ele>813.0</ele><time>2026-05-01T14:03:08Z</time></trkpt><trkpt lat="40.4173922579839" lon="9.362048062206934"><ele>817.0</ele><time>2026-05-01T14:03:09Z</time></trkpt><trkpt lat="40.417404586593236" lon="9.361828916763065"><ele>821.0</ele><time>2026-05-01T14:03:10Z</time></trkpt><trkpt lat="40.41750097944919" lon="9.361666770448851"><ele>821.0</ele><time>2026-05-01T14:03:11Z</time></trkpt><trkpt lat="40.41759391896147" lon="9.361459370718558"><ele>821.0</ele><time>2026-05-01T14:03:12Z</time></trkpt><trkpt lat="40.41763764831979" lon="9.361259245586371"><ele>821.0</ele><time>2026-05-01T14:03:13Z</time></trkpt><trkpt lat="40.4176741680237" lon="9.361072939039472"><ele>820.0</ele><time>2026-05-01T14:03:14Z</time></trkpt><trkpt lat="40.41766182044302" lon="9.360836859983568"><ele>819.0</ele><time>2026-05-01T14:03:15Z</time></trkpt><trkpt lat="40.41765882267802" lon="9.36058145262124"><ele>818.0</ele><time>2026-05-01T14:03:16Z</time></trkpt><trkpt lat="40.417654708110355" lon="9.360358486709055"><ele>820.75</ele><time>2026-05-01T14:03:17Z</time></trkpt><trkpt lat="40.41766647885486" lon="9.360168885033248"><ele>823.5</ele><time>2026-05-01T14:03:18Z</time></trkpt><trkpt lat="40.41778656311748" lon="9.360048961160773"><ele>826.25</ele><time>2026-05-01T14:03:19Z</time></trkpt><trkpt lat="40.41785202190594" lon="9.359885364569871"><ele>829.0</ele><time>2026-05-01T14:03:20Z</time></trkpt><trkpt lat="40.41790049092887" lon="9.359703206348014"><ele>832.6666666666666</ele><time>2026-05-01T14:03:21Z</time></trkpt><trkpt lat="40.41792544612534" lon="9.35948210336031"><ele>836.3333333333333</ele><time>2026-05-01T14:03:22Z</time></trkpt><trkpt lat="40.41796051595811" lon="9.359222812016792"><ele>840.0</ele><time>2026-05-01T14:03:23Z</time></trkpt><trkpt lat="40.41802121166065" lon="9.359008784200652"><ele>836.0</ele><time>2026-05-01T14:03:24Z</time></trkpt><trkpt lat="40.418128139283766" lon="9.358837041337356"><ele>832.0</ele><time>2026-05-01T14:03:25Z</time></trkpt><trkpt lat="40.41823900809265" lon="9.35867964330419"><ele>828.0</ele><time>2026-05-01T14:03:26Z</time></trkpt><trkpt lat="40.41836212249709" lon="9.358591964451204"><ele>828.0</ele><time>2026-05-01T14:03:27Z</time></trkpt><trkpt lat="40.41850305546707" lon="9.358558632706039"><ele>828.0</ele><time>2026-05-01T14:03:28Z</time></trkpt><trkpt lat="40.418679116758085" lon="9.358536888375282"><ele>828.0</ele><time>2026-05-01T14:03:29Z</time></trkpt><trkpt lat="40.41886361006534" lon="9.358556446778337"><ele>826.0</ele><time>2026-05-01T14:03:30Z</time></trkpt><trkpt lat="40.41902193999265" lon="9.358540330107804"><ele>824.0</ele><time>2026-05-01T14:03:31Z</time></trkpt><trkpt lat="40.419161679428534" lon="9.358492956474802"><ele>822.0</ele><time>2026-05-01T14:03:32Z</time></trkpt><trkpt lat="40.41929813067748" lon="9.358409791699572"><ele>822.0</ele><time>2026-05-01T14:03:33Z</time></trkpt><trkpt lat="40.4194538082375" lon="9.358295321285894"><ele>822.0</ele><time>2026-05-01T14:03:34Z</time></trkpt><trkpt lat="40.41964104958274" lon="9.35814886247583"><ele>822.0</ele><time>2026-05-01T14:03:35Z</time></trkpt><trkpt lat="40.41981904664919" lon="9.3580492149641"><ele>822.6666666666667</ele><time>2026-05-01T14:03:36Z</time></trkpt><trkpt lat="40.41998128346116" lon="9.357950419550335"><ele>823.3333333333334</ele><time>2026-05-01T14:03:37Z</time></trkpt><trkpt lat="40.42012357114958" lon="9.357779554193447"><ele>824.0</ele><time>2026-05-01T14:03:38Z</time></trkpt><trkpt lat="40.420236226933895" lon="9.357563446489326"><ele>824.0</ele><time>2026-05-01T14:03:39Z</time></trkpt><trkpt lat="40.42033495630981" lon="9.357367379853045"><ele>824.0</ele><time>2026-05-01T14:03:40Z</time></trkpt><trkpt lat="40.4204504326598" lon="9.357243227452955"><ele>824.0</ele><time>2026-05-01T14:03:41Z</time></trkpt><trkpt lat="40.42063291948065" lon="9.357192207608596"><ele>825.0</ele><time>2026-05-01T14:03:42Z</time></trkpt><trkpt lat="40.42081884508564" lon="9.357112351088166"><ele>826.0</ele><time>2026-05-01T14:03:43Z</time></trkpt><trkpt lat="40.421002249224244" lon="9.356988956285306"><ele>827.0</ele><time>2026-05-01T14:03:44Z</time></trkpt><trkpt lat="40.42118926783176" lon="9.356867073159822"><ele>824.6666666666667</ele><time>2026-05-01T14:03:45Z</time></trkpt><trkpt lat="40.42137572518294" lon="9.356799136550888"><ele>822.3333333333333</ele><time>2026-05-01T14:03:46Z</time></trkpt><trkpt lat="40.42156854914735" lon="9.356774800868548"><ele>820.0</ele><time>2026-05-01T14:03:47Z</time></trkpt><trkpt lat="40.42172842017606" lon="9.356760427470013"><ele>820.0</ele><time>2026-05-01T14:03:48Z</time></trkpt><trkpt lat="40.421843024191745" lon="9.356796565203895"><ele>820.0</ele><time>2026-05-01T14:03:49Z</time></trkpt><trkpt lat="40.42191797421734" lon="9.35691773825746"><ele>820.0</ele><time>2026-05-01T14:03:50Z</time></trkpt><trkpt lat="40.42197918117336" lon="9.357088217274692"><ele>820.0</ele><time>2026-05-01T14:03:51Z</time></trkpt><trkpt lat="40.42206587441432" lon="9.357291543733085"><ele>821.6666666666666</ele><time>2026-05-01T14:03:52Z</time></trkpt><trkpt lat="40.422128257197855" lon="9.357530403346104"><ele>823.3333333333333</ele><time>2026-05-01T14:03:53Z</time></trkpt><trkpt lat="40.4221592460755" lon="9.357758327977642"><ele>825.0</ele><time>2026-05-01T14:03:54Z</time></trkpt><trkpt lat="40.42219933882079" lon="9.357970042295621"><ele>819.0</ele><time>2026-05-01T14:03:55Z</time></trkpt><trkpt lat="40.42228905908295" lon="9.358103642415978"><ele>813.0</ele><time>2026-05-01T14:03:56Z</time></trkpt><trkpt lat="40.422433321706514" lon="9.35819664151481"><ele>807.0</ele><time>2026-05-01T14:03:57Z</time></trkpt><trkpt lat="40.42259222750128" lon="9.358235065017878"><ele>807.0</ele><time>2026-05-01T14:03:58Z</time></trkpt><trkpt lat="40.42270695958706" lon="9.358295982402582"><ele>807.0</ele><time>2026-05-01T14:03:59Z</time></trkpt><trkpt lat="40.422763222634586" lon="9.358406197519091"><ele>807.0</ele><time>2026-05-01T14:04:00Z</time></trkpt><trkpt lat="40.42272246017894" lon="9.358619349375504"><ele>807.0</ele><time>2026-05-01T14:04:01Z</time></trkpt><trkpt lat="40.42272207718389" lon="9.358840467074597"><ele>803.6666666666667</ele><time>2026-05-01T14:04:02Z</time></trkpt><trkpt lat="40.42272709384733" lon="9.359040101136843"><ele>800.3333333333334</ele><time>2026-05-01T14:04:03Z</time></trkpt><trkpt lat="40.4227707376179" lon="9.35923149348156"><ele>797.0</ele><time>2026-05-01T14:04:04Z</time></trkpt><trkpt lat="40.422870937555786" lon="9.359407789161168"><ele>803.6666666666667</ele><time>2026-05-01T14:04:05Z</time></trkpt><trkpt lat="40.42299907819145" lon="9.359533371278154"><ele>810.3333333333333</ele><time>2026-05-01T14:04:06Z</time></trkpt><trkpt lat="40.42313720743386" lon="9.359582332289046"><ele>817.0</ele><time>2026-05-01T14:04:07Z</time></trkpt><trkpt lat="40.42328091773362" lon="9.359530587093692"><ele>817.0</ele><time>2026-05-01T14:04:08Z</time></trkpt><trkpt lat="40.42343554243701" lon="9.359437536853177"><ele>817.0</ele><time>2026-05-01T14:04:09Z</time></trkpt><trkpt lat="40.42360279354292" lon="9.359339186657445"><ele>817.0</ele><time>2026-05-01T14:04:10Z</time></trkpt><trkpt lat="40.423753623960394" lon="9.359278547036435"><ele>818.0</ele><time>2026-05-01T14:04:11Z</time></trkpt><trkpt lat="40.423895086376845" lon="9.359314220903423"><ele>819.0</ele><time>2026-05-01T14:04:12Z</time></trkpt><trkpt lat="40.42400930766467" lon="9.359420226624952"><ele>820.0</ele><time>2026-05-01T14:04:13Z</time></trkpt><trkpt lat="40.42414598550899" lon="9.359576977990764"><ele>815.0</ele><time>2026-05-01T14:04:14Z</time></trkpt><trkpt lat="40.424297461056675" lon="9.359753288479023"><ele>810.0</ele><time>2026-05-01T14:04:15Z</time></trkpt><trkpt lat="40.42445211617373" lon="9.359942047269215"><ele>805.0</ele><time>2026-05-01T14:04:16Z</time></trkpt><trkpt lat="40.42461049818012" lon="9.360119543580963"><ele>808.3333333333333</ele><time>2026-05-01T14:04:17Z</time></trkpt><trkpt lat="40.42475379320961" lon="9.360278609163545"><ele>811.6666666666667</ele><time>2026-05-01T14:04:18Z</time></trkpt><trkpt lat="40.42489614899766" lon="9.360408831920816"><ele>815.0</ele><time>2026-05-01T14:04:19Z</time></trkpt><trkpt lat="40.425041324893925" lon="9.360462119383445"><ele>815.0</ele><time>2026-05-01T14:04:20Z</time></trkpt><trkpt lat="40.42519499722594" lon="9.36042210065017"><ele>815.0</ele><time>2026-05-01T14:04:21Z</time></trkpt><trkpt lat="40.42535807877687" lon="9.360327367183391"><ele>815.0</ele><time>2026-05-01T14:04:22Z</time></trkpt><trkpt lat="40.42553001932579" lon="9.360235945739365"><ele>814.75</ele><time>2026-05-01T14:04:23Z</time></trkpt><trkpt lat="40.42568590676375" lon="9.36020373590809"><ele>814.5</ele><time>2026-05-01T14:04:24Z</time></trkpt><trkpt lat="40.42581783546133" lon="9.360237621686085"><ele>814.25</ele><time>2026-05-01T14:04:25Z</time></trkpt><trkpt lat="40.42590490251444" lon="9.360342196265735"><ele>814.0</ele><time>2026-05-01T14:04:26Z</time></trkpt><trkpt lat="40.426033261517034" lon="9.360483674751107"><ele>811.3333333333333</ele><time>2026-05-01T14:04:27Z</time></trkpt><trkpt lat="40.4261860425316" lon="9.360577518621415"><ele>808.6666666666667</ele><time>2026-05-01T14:04:28Z</time></trkpt><trkpt lat="40.426337892007766" lon="9.360622902430437"><ele>806.0</ele><time>2026-05-01T14:04:29Z</time></trkpt><trkpt lat="40.426529109764274" lon="9.360612346284752"><ele>807.6666666666667</ele><time>2026-05-01T14:04:30Z</time></trkpt><trkpt lat="40.42675131734282" lon="9.360531507630347"><ele>809.3333333333333</ele><time>2026-05-01T14:04:31Z</time></trkpt><trkpt lat="40.426941141513325" lon="9.360498365845348"><ele>811.0</ele><time>2026-05-01T14:04:32Z</time></trkpt><trkpt lat="40.42713026911793" lon="9.36043254309131"><ele>809.3333333333333</ele><time>2026-05-01T14:04:33Z</time></trkpt><trkpt lat="40.427319338204285" lon="9.360311629284357"><ele>807.6666666666667</ele><time>2026-05-01T14:04:34Z</time></trkpt><trkpt lat="40.427511640424235" lon="9.360165617605292"><ele>806.0</ele><time>2026-05-01T14:04:35Z</time></trkpt><trkpt lat="40.427688377143674" lon="9.360029150377972"><ele>806.0</ele><time>2026-05-01T14:04:36Z</time></trkpt><trkpt lat="40.427823451622864" lon="9.359926100077749"><ele>806.0</ele><time>2026-05-01T14:04:37Z</time></trkpt><trkpt lat="40.42792551595527" lon="9.359782212266332"><ele>806.0</ele><time>2026-05-01T14:04:38Z</time></trkpt><trkpt lat="40.427994320550106" lon="9.359584299254966"><ele>806.5</ele><time>2026-05-01T14:04:39Z</time></trkpt><trkpt lat="40.42804881653536" lon="9.359375413367177"><ele>807.0</ele><time>2026-05-01T14:04:40Z</time></trkpt><trkpt lat="40.42815321502042" lon="9.359264948331093"><ele>807.5</ele><time>2026-05-01T14:04:41Z</time></trkpt><trkpt lat="40.42826722796355" lon="9.35925599076792"><ele>808.0</ele><time>2026-05-01T14:04:42Z</time></trkpt><trkpt lat="40.42836856630631" lon="9.359273497556426"><ele>808.0</ele><time>2026-05-01T14:04:43Z</time></trkpt><trkpt lat="40.42849246745938" lon="9.359386564765114"><ele>808.0</ele><time>2026-05-01T14:04:44Z</time></trkpt><trkpt lat="40.428625174207916" lon="9.359551701683557"><ele>808.0</ele><time>2026-05-01T14:04:45Z</time></trkpt><trkpt lat="40.428758449049134" lon="9.359779971965251"><ele>804.0</ele><time>2026-05-01T14:04:46Z</time></trkpt><trkpt lat="40.428922697064515" lon="9.359951373070203"><ele>800.0</ele><time>2026-05-01T14:04:47Z</time></trkpt><trkpt lat="40.429088803099994" lon="9.360088372577133"><ele>796.0</ele><time>2026-05-01T14:04:48Z</time></trkpt><trkpt lat="40.42926537905209" lon="9.360187332141063"><ele>796.0</ele><time>2026-05-01T14:04:49Z</time></trkpt><trkpt lat="40.429422097238266" lon="9.360258700753912"><ele>796.0</ele><time>2026-05-01T14:04:50Z</time></trkpt><trkpt lat="40.429577677931505" lon="9.360258392225749"><ele>796.0</ele><time>2026-05-01T14:04:51Z</time></trkpt><trkpt lat="40.429750168390974" lon="9.360197551541729"><ele>797.6666666666666</ele><time>2026-05-01T14:04:52Z</time></trkpt><trkpt lat="40.42994926824926" lon="9.360124525952292"><ele>799.3333333333333</ele><time>2026-05-01T14:04:53Z</time></trkpt><trkpt lat="40.430130392044866" lon="9.36016670841381"><ele>801.0</ele><time>2026-05-01T14:04:54Z</time></trkpt><trkpt lat="40.430341216901546" lon="9.360221141834577"><ele>802.5</ele><time>2026-05-01T14:04:55Z</time></trkpt><trkpt lat="40.430502508056065" lon="9.36026331863485"><ele>804.0</ele><time>2026-05-01T14:04:56Z</time></trkpt><trkpt lat="40.430627407570924" lon="9.360299200577874"><ele>805.5</ele><time>2026-05-01T14:04:57Z</time></trkpt><trkpt lat="40.43068162844542" lon="9.360446481598267"><ele>807.0</ele><time>2026-05-01T14:04:58Z</time></trkpt><trkpt lat="40.43077628196673" lon="9.360606994427863"><ele>798.6666666666667</ele><time>2026-05-01T14:04:59Z</time></trkpt><trkpt lat="40.43087888069904" lon="9.360797430418357"><ele>790.3333333333334</ele><time>2026-05-01T14:05:00Z</time></trkpt><trkpt lat="40.431001133055744" lon="9.360904027306848"><ele>782.0</ele><time>2026-05-01T14:05:01Z</time></trkpt><trkpt lat="40.43114048892835" lon="9.360920758034112"><ele>782.0</ele><time>2026-05-01T14:05:02Z</time></trkpt><trkpt lat="40.431275556635185" lon="9.360843463999897"><ele>782.0</ele><time>2026-05-01T14:05:03Z</time></trkpt><trkpt lat="40.43140347674536" lon="9.360702691559009"><ele>782.0</ele><time>2026-05-01T14:05:04Z</time></trkpt><trkpt lat="40.43154298484921" lon="9.360523348809608"><ele>789.0</ele><time>2026-05-01T14:05:05Z</time></trkpt><trkpt lat="40.431704517505715" lon="9.360390469180423"><ele>796.0</ele><time>2026-05-01T14:05:06Z</time></trkpt><trkpt lat="40.43185978252099" lon="9.360327753322423"><ele>803.0</ele><time>2026-05-01T14:05:07Z</time></trkpt><trkpt lat="40.43203485591564" lon="9.360313232847297"><ele>801.6666666666667</ele><time>2026-05-01T14:05:08Z</time></trkpt><trkpt lat="40.43224844706373" lon="9.360294249138372"><ele>800.3333333333333</ele><time>2026-05-01T14:05:09Z</time></trkpt><trkpt lat="40.43245095168346" lon="9.360301704782868"><ele>799.0</ele><time>2026-05-01T14:05:10Z</time></trkpt><trkpt lat="40.432612615896716" lon="9.36035103483063"><ele>799.0</ele><time>2026-05-01T14:05:11Z</time></trkpt><trkpt lat="40.43277616838257" lon="9.360357604713311"><ele>799.0</ele><time>2026-05-01T14:05:12Z</time></trkpt><trkpt lat="40.43293500318882" lon="9.360329290621166"><ele>799.0</ele><time>2026-05-01T14:05:13Z</time></trkpt><trkpt lat="40.433096451104674" lon="9.360255567764511"><ele>797.3333333333333</ele><time>2026-05-01T14:05:14Z</time></trkpt><trkpt lat="40.43319968115289" lon="9.360092777955959"><ele>795.6666666666667</ele><time>2026-05-01T14:05:15Z</time></trkpt><trkpt lat="40.433369826356426" lon="9.359871138604198"><ele>794.0</ele><time>2026-05-01T14:05:16Z</time></trkpt><trkpt lat="40.43350743238947" lon="9.359697366596752"><ele>794.0</ele><time>2026-05-01T14:05:17Z</time></trkpt><trkpt lat="40.43364115165602" lon="9.359564470481361"><ele>794.0</ele><time>2026-05-01T14:05:18Z</time></trkpt><trkpt lat="40.433807521077746" lon="9.359522933676155"><ele>794.0</ele><time>2026-05-01T14:05:19Z</time></trkpt><trkpt lat="40.434000289971614" lon="9.359536255703425"><ele>793.3333333333334</ele><time>2026-05-01T14:05:20Z</time></trkpt><trkpt lat="40.43421510376843" lon="9.359554067047736"><ele>792.6666666666667</ele><time>2026-05-01T14:05:21Z</time></trkpt><trkpt lat="40.43438987118697" lon="9.359591238224722"><ele>792.0</ele><time>2026-05-01T14:05:22Z</time></trkpt><trkpt lat="40.43450674623066" lon="9.359688825946712"><ele>791.6666666666667</ele><time>2026-05-01T14:05:23Z</time></trkpt><trkpt lat="40.434591070428425" lon="9.35983353885429"><ele>791.3333333333334</ele><time>2026-05-01T14:05:24Z</time></trkpt><trkpt lat="40.43474000896239" lon="9.359991800047533"><ele>791.0</ele><time>2026-05-01T14:05:25Z</time></trkpt><trkpt lat="40.434870244526024" lon="9.360126022890736"><ele>789.3333333333334</ele><time>2026-05-01T14:05:26Z</time></trkpt><trkpt lat="40.43504857344101" lon="9.360177427566072"><ele>787.6666666666667</ele><time>2026-05-01T14:05:27Z</time></trkpt><trkpt lat="40.43527956060258" lon="9.36017403902831"><ele>786.0</ele><time>2026-05-01T14:05:28Z</time></trkpt><trkpt lat="40.43551577815409" lon="9.360137683466904"><ele>783.0</ele><time>2026-05-01T14:05:29Z</time></trkpt><trkpt lat="40.435756286878004" lon="9.360057238843936"><ele>780.0</ele><time>2026-05-01T14:05:30Z</time></trkpt><trkpt lat="40.4360096693859" lon="9.360021191647176"><ele>780.0</ele><time>2026-05-01T14:05:31Z</time></trkpt><trkpt lat="40.43626989727857" lon="9.360009126523806"><ele>780.0</ele><time>2026-05-01T14:05:32Z</time></trkpt><trkpt lat="40.43651487125208" lon="9.360014394348733"><ele>779.3333333333333</ele><time>2026-05-01T14:05:33Z</time></trkpt><trkpt lat="40.43673363163503" lon="9.360019543041835"><ele>778.6666666666666</ele><time>2026-05-01T14:05:34Z</time></trkpt><trkpt lat="40.436898260613454" lon="9.359990489726549"><ele>778.0</ele><time>2026-05-01T14:05:35Z</time></trkpt><trkpt lat="40.43703500752445" lon="9.359887190820553"><ele>778.6666666666666</ele><time>2026-05-01T14:05:36Z</time></trkpt><trkpt lat="40.437170789282156" lon="9.359712181737242"><ele>779.3333333333333</ele><time>2026-05-01T14:05:37Z</time></trkpt><trkpt lat="40.437302645942715" lon="9.359441203686814"><ele>780.0</ele><time>2026-05-01T14:05:38Z</time></trkpt><trkpt lat="40.43743547967021" lon="9.359207878047979"><ele>780.0</ele><time>2026-05-01T14:05:39Z</time></trkpt><trkpt lat="40.4375978066694" lon="9.359030541878294"><ele>780.0</ele><time>2026-05-01T14:05:40Z</time></trkpt><trkpt lat="40.437756787372216" lon="9.358924041301545"><ele>780.0</ele><time>2026-05-01T14:05:41Z</time></trkpt><trkpt lat="40.43790818521653" lon="9.358883258645031"><ele>780.0</ele><time>2026-05-01T14:05:42Z</time></trkpt><trkpt lat="40.438075246999794" lon="9.358895769240682"><ele>780.0</ele><time>2026-05-01T14:05:43Z</time></trkpt><trkpt lat="40.43826455885444" lon="9.358938214625711"><ele>780.0</ele><time>2026-05-01T14:05:44Z</time></trkpt><trkpt lat="40.43850243189311" lon="9.358990096410604"><ele>780.0</ele><time>2026-05-01T14:05:45Z</time></trkpt><trkpt lat="40.43872176221645" lon="9.359037933455395"><ele>780.0</ele><time>2026-05-01T14:05:46Z</time></trkpt><trkpt lat="40.43887958756398" lon="9.359058674705965"><ele>780.0</ele><time>2026-05-01T14:05:47Z</time></trkpt><trkpt lat="40.43903355175041" lon="9.359139450313503"><ele>777.0</ele><time>2026-05-01T14:05:48Z</time></trkpt><trkpt lat="40.439148283148455" lon="9.359208314186311"><ele>774.0</ele><time>2026-05-01T14:05:49Z</time></trkpt><trkpt lat="40.43912587719419" lon="9.359580757893601"><ele>771.0</ele><time>2026-05-01T14:05:50Z</time></trkpt><trkpt lat="40.439119067008384" lon="9.359830880668254"><ele>771.0</ele><time>2026-05-01T14:05:51Z</time></trkpt><trkpt lat="40.439088540373156" lon="9.360101428894996"><ele>771.0</ele><time>2026-05-01T14:05:52Z</time></trkpt><trkpt lat="40.43906782452009" lon="9.360324687065809"><ele>771.0</ele><time>2026-05-01T14:05:53Z</time></trkpt><trkpt lat="40.439132437399905" lon="9.360460249079122"><ele>771.0</ele><time>2026-05-01T14:05:54Z</time></trkpt><trkpt lat="40.439263774003095" lon="9.360491945431725"><ele>771.0</ele><time>2026-05-01T14:05:55Z</time></trkpt><trkpt lat="40.43940356084036" lon="9.360517694387044"><ele>771.0</ele><time>2026-05-01T14:05:56Z</time></trkpt><trkpt lat="40.439559972840726" lon="9.360540336657724"><ele>771.0</ele><time>2026-05-01T14:05:57Z</time></trkpt><trkpt lat="40.43969247649808" lon="9.3606257323395"><ele>767.6666666666666</ele><time>2026-05-01T14:05:58Z</time></trkpt><trkpt lat="40.4397430769945" lon="9.360810093748329"><ele>764.3333333333333</ele><time>2026-05-01T14:05:59Z</time></trkpt><trkpt lat="40.43977459445587" lon="9.361020224754144"><ele>761.0</ele><time>2026-05-01T14:06:00Z</time></trkpt><trkpt lat="40.43980971910534" lon="9.361283796909552"><ele>762.0</ele><time>2026-05-01T14:06:01Z</time></trkpt><trkpt lat="40.439841835871256" lon="9.361540458679643"><ele>763.0</ele><time>2026-05-01T14:06:02Z</time></trkpt><trkpt lat="40.439862017203815" lon="9.361803395147732"><ele>764.0</ele><time>2026-05-01T14:06:03Z</time></trkpt><trkpt lat="40.439854862379576" lon="9.36205927209768"><ele>763.0</ele><time>2026-05-01T14:06:04Z</time></trkpt><trkpt lat="40.439835388037636" lon="9.36231917635207"><ele>762.0</ele><time>2026-05-01T14:06:05Z</time></trkpt><trkpt lat="40.4398055737343" lon="9.362546450071413"><ele>761.0</ele><time>2026-05-01T14:06:06Z</time></trkpt><trkpt lat="40.43974315522889" lon="9.362754748352788"><ele>761.0</ele><time>2026-05-01T14:06:07Z</time></trkpt><trkpt lat="40.439650235424956" lon="9.362904079894122"><ele>761.0</ele><time>2026-05-01T14:06:08Z</time></trkpt><trkpt lat="40.43953953599603" lon="9.363040240987461"><ele>761.0</ele><time>2026-05-01T14:06:09Z</time></trkpt><trkpt lat="40.43947561244267" lon="9.363186163335127"><ele>761.0</ele><time>2026-05-01T14:06:10Z</time></trkpt><trkpt lat="40.439432927747305" lon="9.363308697625186"><ele>760.0</ele><time>2026-05-01T14:06:11Z</time></trkpt><trkpt lat="40.43945661031104" lon="9.36343332722884"><ele>759.0</ele><time>2026-05-01T14:06:12Z</time></trkpt><trkpt lat="40.439563709808866" lon="9.363545294993324"><ele>758.0</ele><time>2026-05-01T14:06:13Z</time></trkpt><trkpt lat="40.439703828083196" lon="9.363590919328653"><ele>757.0</ele><time>2026-05-01T14:06:14Z</time></trkpt><trkpt lat="40.43986607459541" lon="9.36364399039087"><ele>757.0</ele><time>2026-05-01T14:06:15Z</time></trkpt><trkpt lat="40.44002551413806" lon="9.363740076816624"><ele>757.0</ele><time>2026-05-01T14:06:16Z</time></trkpt><trkpt lat="40.440159565231205" lon="9.363913916601366"><ele>757.0</ele><time>2026-05-01T14:06:17Z</time></trkpt><trkpt lat="40.44028638989047" lon="9.36408877722657"><ele>759.5</ele><time>2026-05-01T14:06:18Z</time></trkpt><trkpt lat="40.440405095934985" lon="9.364229616357646"><ele>762.0</ele><time>2026-05-01T14:06:19Z</time></trkpt><trkpt lat="40.44051704510333" lon="9.364305386600185"><ele>764.5</ele><time>2026-05-01T14:06:20Z</time></trkpt><trkpt lat="40.440625728117475" lon="9.364255813799842"><ele>767.0</ele><time>2026-05-01T14:06:21Z</time></trkpt><trkpt lat="40.44073275652899" lon="9.3641549330585"><ele>767.0</ele><time>2026-05-01T14:06:22Z</time></trkpt><trkpt lat="40.44077566606768" lon="9.363964852190199"><ele>767.0</ele><time>2026-05-01T14:06:23Z</time></trkpt><trkpt lat="40.440782904446216" lon="9.363701924623935"><ele>767.0</ele><time>2026-05-01T14:06:24Z</time></trkpt><trkpt lat="40.440804777778304" lon="9.363505656489906"><ele>764.0</ele><time>2026-05-01T14:06:25Z</time></trkpt><trkpt lat="40.44087955212241" lon="9.363358380017656"><ele>761.0</ele><time>2026-05-01T14:06:26Z</time></trkpt><trkpt lat="40.44103331561842" lon="9.363351478419379"><ele>758.0</ele><time>2026-05-01T14:06:27Z</time></trkpt><trkpt lat="40.4411995657479" lon="9.363404869176428"><ele>757.6666666666666</ele><time>2026-05-01T14:06:28Z</time></trkpt><trkpt lat="40.44136754519034" lon="9.363487486253884"><ele>757.3333333333334</ele><time>2026-05-01T14:06:29Z</time></trkpt><trkpt lat="40.441559530861504" lon="9.363588946339492"><ele>757.0</ele><time>2026-05-01T14:06:30Z</time></trkpt><trkpt lat="40.441711950933815" lon="9.363697320348727"><ele>757.0</ele><time>2026-05-01T14:06:31Z</time></trkpt><trkpt lat="40.44184834585921" lon="9.363757745374393"><ele>757.0</ele><time>2026-05-01T14:06:32Z</time></trkpt><trkpt lat="40.44197971303144" lon="9.36374676443371"><ele>757.0</ele><time>2026-05-01T14:06:33Z</time></trkpt><trkpt lat="40.44210784074619" lon="9.363639785079116"><ele>757.0</ele><time>2026-05-01T14:06:34Z</time></trkpt><trkpt lat="40.44221685570568" lon="9.363435412898538"><ele>756.6666666666667</ele><time>2026-05-01T14:06:35Z</time></trkpt><trkpt lat="40.44238359171111" lon="9.363227298511244"><ele>756.3333333333334</ele><time>2026-05-01T14:06:36Z</time></trkpt><trkpt lat="40.442551939124165" lon="9.363145787072016"><ele>756.0</ele><time>2026-05-01T14:06:37Z</time></trkpt><trkpt lat="40.44272691988286" lon="9.363122166833723"><ele>756.0</ele><time>2026-05-01T14:06:38Z</time></trkpt><trkpt lat="40.442881540006326" lon="9.363108604405449"><ele>756.0</ele><time>2026-05-01T14:06:39Z</time></trkpt><trkpt lat="40.443023370618484" lon="9.363140628043263"><ele>756.0</ele><time>2026-05-01T14:06:40Z</time></trkpt><trkpt lat="40.44315516096709" lon="9.363202048652644"><ele>756.0</ele><time>2026-05-01T14:06:41Z</time></trkpt><trkpt lat="40.44321627286008" lon="9.363417465170908"><ele>756.0</ele><time>2026-05-01T14:06:42Z</time></trkpt><trkpt lat="40.44331831946422" lon="9.36363220018557"><ele>756.0</ele><time>2026-05-01T14:06:43Z</time></trkpt><trkpt lat="40.443453117318" lon="9.363913837986269"><ele>756.0</ele><time>2026-05-01T14:06:44Z</time></trkpt><trkpt lat="40.44360527344505" lon="9.364201635387328"><ele>756.0</ele><time>2026-05-01T14:06:45Z</time></trkpt><trkpt lat="40.443748580208215" lon="9.364498128156413"><ele>756.0</ele><time>2026-05-01T14:06:46Z</time></trkpt><trkpt lat="40.44387489411091" lon="9.364764597191598"><ele>754.75</ele><time>2026-05-01T14:06:47Z</time></trkpt><trkpt lat="40.44398038024355" lon="9.364972561813437"><ele>753.5</ele><time>2026-05-01T14:06:48Z</time></trkpt><trkpt lat="40.44406923841067" lon="9.365074587341864"><ele>752.25</ele><time>2026-05-01T14:06:49Z</time></trkpt><trkpt lat="40.44416854400871" lon="9.365098440651394"><ele>751.0</ele><time>2026-05-01T14:06:50Z</time></trkpt><trkpt lat="40.4443058461049" lon="9.365064513254202"><ele>751.0</ele><time>2026-05-01T14:06:51Z</time></trkpt><trkpt lat="40.44448429177528" lon="9.364952912116706"><ele>751.0</ele><time>2026-05-01T14:06:52Z</time></trkpt><trkpt lat="40.44464036004663" lon="9.364880472572832"><ele>751.0</ele><time>2026-05-01T14:06:53Z</time></trkpt><trkpt lat="40.44480537738719" lon="9.364910502171613"><ele>749.6666666666667</ele><time>2026-05-01T14:06:54Z</time></trkpt><trkpt lat="40.44497850452251" lon="9.365023710346476"><ele>748.3333333333334</ele><time>2026-05-01T14:06:55Z</time></trkpt><trkpt lat="40.44514554469058" lon="9.365121709453257"><ele>747.0</ele><time>2026-05-01T14:06:56Z</time></trkpt><trkpt lat="40.445287556176865" lon="9.365261569879754"><ele>747.0</ele><time>2026-05-01T14:06:57Z</time></trkpt><trkpt lat="40.44537552794131" lon="9.36546242307267"><ele>747.0</ele><time>2026-05-01T14:06:58Z</time></trkpt><trkpt lat="40.44546911917018" lon="9.3656215716935"><ele>747.0</ele><time>2026-05-01T14:06:59Z</time></trkpt><trkpt lat="40.44557821748062" lon="9.365776502406781"><ele>745.6666666666666</ele><time>2026-05-01T14:07:00Z</time></trkpt><trkpt lat="40.44574612005096" lon="9.365862656249446"><ele>744.3333333333333</ele><time>2026-05-01T14:07:01Z</time></trkpt><trkpt lat="40.44595701618567" lon="9.365928725360567"><ele>743.0</ele><time>2026-05-01T14:07:02Z</time></trkpt><trkpt lat="40.44614102720327" lon="9.366053883851725"><ele>742.0</ele><time>2026-05-01T14:07:03Z</time></trkpt><trkpt lat="40.446311926784425" lon="9.366223830473476"><ele>741.0</ele><time>2026-05-01T14:07:04Z</time></trkpt><trkpt lat="40.446500037331376" lon="9.36642468320314"><ele>741.0</ele><time>2026-05-01T14:07:05Z</time></trkpt><trkpt lat="40.44672213030812" lon="9.366626648389797"><ele>741.0</ele><time>2026-05-01T14:07:06Z</time></trkpt><trkpt lat="40.44696356414155" lon="9.366836821423695"><ele>739.5</ele><time>2026-05-01T14:07:07Z</time></trkpt><trkpt lat="40.44723015465981" lon="9.367052001361651"><ele>738.0</ele><time>2026-05-01T14:07:08Z</time></trkpt><trkpt lat="40.44751103821746" lon="9.367282600174438"><ele>736.0</ele><time>2026-05-01T14:07:09Z</time></trkpt><trkpt lat="40.44780564227919" lon="9.3675269789914"><ele>734.0</ele><time>2026-05-01T14:07:10Z</time></trkpt><trkpt lat="40.44811197360579" lon="9.36777867006376"><ele>733.0</ele><time>2026-05-01T14:07:11Z</time></trkpt><trkpt lat="40.44842926168015" lon="9.36803934973438"><ele>732.0</ele><time>2026-05-01T14:07:12Z</time></trkpt><trkpt lat="40.4487565272963" lon="9.368301463023956"><ele>732.5</ele><time>2026-05-01T14:07:13Z</time></trkpt><trkpt lat="40.44906357511338" lon="9.368565845899754"><ele>733.0</ele><time>2026-05-01T14:07:14Z</time></trkpt><trkpt lat="40.44933570894536" lon="9.368815902004126"><ele>731.5</ele><time>2026-05-01T14:07:15Z</time></trkpt><trkpt lat="40.44960698909867" lon="9.369010585741837"><ele>730.0</ele><time>2026-05-01T14:07:16Z</time></trkpt><trkpt lat="40.4498646130245" lon="9.36921598067889"><ele>728.5</ele><time>2026-05-01T14:07:17Z</time></trkpt><trkpt lat="40.450101596188794" lon="9.36941625342054"><ele>727.0</ele><time>2026-05-01T14:07:18Z</time></trkpt><trkpt lat="40.4503298715065" lon="9.369605684898188"><ele>728.0</ele><time>2026-05-01T14:07:19Z</time></trkpt><trkpt lat="40.45054793782365" lon="9.369786299017473"><ele>729.0</ele><time>2026-05-01T14:07:20Z</time></trkpt><trkpt lat="40.45076252661229" lon="9.369943053712381"><ele>729.0</ele><time>2026-05-01T14:07:21Z</time></trkpt><trkpt lat="40.450988061864116" lon="9.370082115850252"><ele>729.0</ele><time>2026-05-01T14:07:22Z</time></trkpt><trkpt lat="40.45121838806692" lon="9.370178192567058"><ele>728.6666666666666</ele><time>2026-05-01T14:07:23Z</time></trkpt><trkpt lat="40.451425056134575" lon="9.370247614243672"><ele>728.3333333333333</ele><time>2026-05-01T14:07:24Z</time></trkpt><trkpt lat="40.451596741335365" lon="9.37030877225761"><ele>728.0</ele><time>2026-05-01T14:07:25Z</time></trkpt><trkpt lat="40.451745421460295" lon="9.370312520722285"><ele>728.0</ele><time>2026-05-01T14:07:26Z</time></trkpt><trkpt lat="40.45189394802864" lon="9.370244959112783"><ele>728.0</ele><time>2026-05-01T14:07:27Z</time></trkpt><trkpt lat="40.45205128408582" lon="9.37011881359969"><ele>728.0</ele><time>2026-05-01T14:07:28Z</time></trkpt><trkpt lat="40.45222926716364" lon="9.369960140469871"><ele>729.3333333333333</ele><time>2026-05-01T14:07:29Z</time></trkpt><trkpt lat="40.452415661543505" lon="9.36987370782432"><ele>730.6666666666666</ele><time>2026-05-01T14:07:30Z</time></trkpt><trkpt lat="40.452627643664194" lon="9.369844012432003"><ele>732.0</ele><time>2026-05-01T14:07:31Z</time></trkpt><trkpt lat="40.45287158925298" lon="9.369845267350962"><ele>732.5</ele><time>2026-05-01T14:07:32Z</time></trkpt><trkpt lat="40.45311807383565" lon="9.369833034078221"><ele>733.0</ele><time>2026-05-01T14:07:33Z</time></trkpt><trkpt lat="40.45337365452619" lon="9.369812020819252"><ele>733.0</ele><time>2026-05-01T14:07:34Z</time></trkpt><trkpt lat="40.453643887750566" lon="9.369792299492602"><ele>733.0</ele><time>2026-05-01T14:07:35Z</time></trkpt><trkpt lat="40.45392080419644" lon="9.369772556702877"><ele>734.0</ele><time>2026-05-01T14:07:36Z</time></trkpt><trkpt lat="40.45417649505477" lon="9.369754856461567"><ele>735.0</ele><time>2026-05-01T14:07:37Z</time></trkpt><trkpt lat="40.4544041411468" lon="9.369736486539747"><ele>735.0</ele><time>2026-05-01T14:07:38Z</time></trkpt><trkpt lat="40.45461992170868" lon="9.369693205509815"><ele>735.0</ele><time>2026-05-01T14:07:39Z</time></trkpt><trkpt lat="40.45484707644428" lon="9.369584756953751"><ele>737.0</ele><time>2026-05-01T14:07:40Z</time></trkpt><trkpt lat="40.455081296014605" lon="9.36945673806714"><ele>739.0</ele><time>2026-05-01T14:07:41Z</time></trkpt><trkpt lat="40.45529704789466" lon="9.369328568613042"><ele>740.0</ele><time>2026-05-01T14:07:42Z</time></trkpt><trkpt lat="40.4554915203282" lon="9.369227862177505"><ele>741.0</ele><time>2026-05-01T14:07:43Z</time></trkpt><trkpt lat="40.4556883857171" lon="9.369131400816023"><ele>742.0</ele><time>2026-05-01T14:07:44Z</time></trkpt><trkpt lat="40.45587661738258" lon="9.369039481158698"><ele>742.0</ele><time>2026-05-01T14:07:45Z</time></trkpt><trkpt lat="40.45604754293173" lon="9.368946910775103"><ele>742.0</ele><time>2026-05-01T14:07:46Z</time></trkpt><trkpt lat="40.456227855203544" lon="9.36883505333073"><ele>742.0</ele><time>2026-05-01T14:07:47Z</time></trkpt><trkpt lat="40.456408820669516" lon="9.368689028517656"><ele>742.3333333333334</ele><time>2026-05-01T14:07:48Z</time></trkpt><trkpt lat="40.45658963182602" lon="9.368544451185892"><ele>742.6666666666666</ele><time>2026-05-01T14:07:49Z</time></trkpt><trkpt lat="40.45675457520289" lon="9.368411435924221"><ele>743.0</ele><time>2026-05-01T14:07:50Z</time></trkpt><trkpt lat="40.45690584191845" lon="9.36828753246362"><ele>743.0</ele><time>2026-05-01T14:07:51Z</time></trkpt><trkpt lat="40.457054851964045" lon="9.368173194180288"><ele>743.0</ele><time>2026-05-01T14:07:52Z</time></trkpt><trkpt lat="40.45719789170089" lon="9.368067951702132"><ele>743.0</ele><time>2026-05-01T14:07:53Z</time></trkpt><trkpt lat="40.45732465342301" lon="9.367998642080149"><ele>742.75</ele><time>2026-05-01T14:07:54Z</time></trkpt><trkpt lat="40.45745138427799" lon="9.36797968462915"><ele>742.5</ele><time>2026-05-01T14:07:55Z</time></trkpt><trkpt lat="40.457576293355686" lon="9.368038775183646"><ele>742.25</ele><time>2026-05-01T14:07:56Z</time></trkpt><trkpt lat="40.45769009825774" lon="9.368143080238827"><ele>742.0</ele><time>2026-05-01T14:07:57Z</time></trkpt><trkpt lat="40.45776988481313" lon="9.368301758130794"><ele>742.0</ele><time>2026-05-01T14:07:58Z</time></trkpt><trkpt lat="40.45783627182555" lon="9.36844744635901"><ele>742.0</ele><time>2026-05-01T14:07:59Z</time></trkpt><trkpt lat="40.4579362404684" lon="9.368538880471181"><ele>742.0</ele><time>2026-05-01T14:08:00Z</time></trkpt><trkpt lat="40.45808225055442" lon="9.368552633241787"><ele>742.0</ele><time>2026-05-01T14:08:01Z</time></trkpt><trkpt lat="40.458243214474315" lon="9.368440327900291"><ele>742.0</ele><time>2026-05-01T14:08:02Z</time></trkpt><trkpt lat="40.45839294391919" lon="9.368360274146099"><ele>742.0</ele><time>2026-05-01T14:08:03Z</time></trkpt><trkpt lat="40.458474683255055" lon="9.368297153658427"><ele>742.0</ele><time>2026-05-01T14:08:04Z</time></trkpt><trkpt lat="40.45856553595085" lon="9.368312587246537"><ele>742.0</ele><time>2026-05-01T14:08:05Z</time></trkpt><trkpt lat="40.45863006271182" lon="9.36843281403254"><ele>742.0</ele><time>2026-05-01T14:08:06Z</time></trkpt><trkpt lat="40.45866565979977" lon="9.368574005149569"><ele>742.0</ele><time>2026-05-01T14:08:07Z</time></trkpt><trkpt lat="40.458653028182724" lon="9.368672813082416"><ele>742.0</ele><time>2026-05-01T14:08:08Z</time></trkpt><trkpt lat="40.458617734570865" lon="9.368751356367708"><ele>742.0</ele><time>2026-05-01T14:08:09Z</time></trkpt><trkpt lat="40.45857614955598" lon="9.368817014714622"><ele>742.0</ele><time>2026-05-01T14:08:10Z</time></trkpt><trkpt lat="40.458486925573915" lon="9.368920259927494"><ele>742.0</ele><time>2026-05-01T14:08:12Z</time></trkpt><trkpt lat="40.45842983988324" lon="9.369023074115214"><ele>740.0</ele><time>2026-05-01T14:08:14Z</time></trkpt><trkpt lat="40.45840694507646" lon="9.369115937730733"><ele>738.0</ele><time>2026-05-01T14:08:16Z</time></trkpt><trkpt lat="40.458405106000015" lon="9.369199311964415"><ele>736.0</ele><time>2026-05-01T14:08:17Z</time></trkpt><trkpt lat="40.45842719658527" lon="9.369353804806057"><ele>734.0</ele><time>2026-05-01T14:08:19Z</time></trkpt><trkpt lat="40.45847269501217" lon="9.369468743596219"><ele>732.0</ele><time>2026-05-01T14:08:21Z</time></trkpt><trkpt lat="40.45852475175622" lon="9.369532420567973"><ele>730.0</ele><time>2026-05-01T14:08:24Z</time></trkpt><trkpt lat="40.45855134038491" lon="9.36942688550266"><ele>730.0</ele><time>2026-05-01T14:08:32Z</time></trkpt><trkpt lat="40.458502139241425" lon="9.369364164510287"><ele>730.0</ele><time>2026-05-01T14:08:33Z</time></trkpt><trkpt lat="40.458455150110865" lon="9.369261348288413"><ele>730.0</ele><time>2026-05-01T14:08:34Z</time></trkpt><trkpt lat="40.45845129755279" lon="9.369085554694527"><ele>730.0</ele><time>2026-05-01T14:08:35Z</time></trkpt><trkpt lat="40.45850108381501" lon="9.368894653857371"><ele>730.0</ele><time>2026-05-01T14:08:36Z</time></trkpt><trkpt lat="40.45860124569864" lon="9.36873680267976"><ele>732.4</ele><time>2026-05-01T14:08:37Z</time></trkpt><trkpt lat="40.45867069194375" lon="9.368599216668045"><ele>734.8</ele><time>2026-05-01T14:08:38Z</time></trkpt><trkpt lat="40.458664956654346" lon="9.368478734959202"><ele>737.2</ele><time>2026-05-01T14:08:39Z</time></trkpt><trkpt lat="40.458641431681116" lon="9.36835903203835"><ele>739.6</ele><time>2026-05-01T14:08:40Z</time></trkpt><trkpt lat="40.458577789794695" lon="9.36826384835104"><ele>742.0</ele><time>2026-05-01T14:08:41Z</time></trkpt><trkpt lat="40.45851630393263" lon="9.368213292781444"><ele>742.0</ele><time>2026-05-01T14:08:42Z</time></trkpt><trkpt lat="40.45855405417784" lon="9.368122496120986"><ele>742.0</ele><time>2026-05-01T14:08:48Z</time></trkpt><trkpt lat="40.45860676355815" lon="9.368063891180109"><ele>742.0</ele><time>2026-05-01T14:08:49Z</time></trkpt><trkpt lat="40.458656187901646" lon="9.368003655029211"><ele>742.0</ele><time>2026-05-01T14:08:50Z</time></trkpt><trkpt lat="40.45870895447974" lon="9.367933163737195"><ele>742.0</ele><time>2026-05-01T14:08:51Z</time></trkpt><trkpt lat="40.4587661595151" lon="9.367865392862386"><ele>742.0</ele><time>2026-05-01T14:08:52Z</time></trkpt><trkpt lat="40.458827795246094" lon="9.367795345731714"><ele>742.0</ele><time>2026-05-01T14:08:53Z</time></trkpt><trkpt lat="40.45889429611776" lon="9.367721724039967"><ele>743.8</ele><time>2026-05-01T14:08:54Z</time></trkpt><trkpt lat="40.45895810370375" lon="9.36765908535508"><ele>745.6</ele><time>2026-05-01T14:08:55Z</time></trkpt><trkpt lat="40.459026575916155" lon="9.367592044717151"><ele>747.4</ele><time>2026-05-01T14:08:56Z</time></trkpt><trkpt lat="40.45909050170352" lon="9.367530116863506"><ele>749.1999999999999</ele><time>2026-05-01T14:08:57Z</time></trkpt><trkpt lat="40.45915088182909" lon="9.367407347898338"><ele>751.0</ele><time>2026-05-01T14:08:59Z</time></trkpt><trkpt lat="40.45908436872728" lon="9.367289287747925"><ele>751.0</ele><time>2026-05-01T14:09:01Z</time></trkpt><trkpt lat="40.459010111973576" lon="9.367252125628983"><ele>751.0</ele><time>2026-05-01T14:09:02Z</time></trkpt><trkpt lat="40.45891506269686" lon="9.367189802266696"><ele>751.0</ele><time>2026-05-01T14:09:03Z</time></trkpt><trkpt lat="40.45880507045522" lon="9.36713580719695"><ele>751.0</ele><time>2026-05-01T14:09:04Z</time></trkpt><trkpt lat="40.45869590023489" lon="9.367067551750534"><ele>751.0</ele><time>2026-05-01T14:09:05Z</time></trkpt><trkpt lat="40.45858048805245" lon="9.367007420551532"><ele>752.5</ele><time>2026-05-01T14:09:06Z</time></trkpt><trkpt lat="40.458464022822106" lon="9.366942279482252"><ele>754.0</ele><time>2026-05-01T14:09:07Z</time></trkpt><trkpt lat="40.45834509023229" lon="9.366870624304656"><ele>755.5</ele><time>2026-05-01T14:09:08Z</time></trkpt><trkpt lat="40.458220328245005" lon="9.366801024804806"><ele>757.0</ele><time>2026-05-01T14:09:09Z</time></trkpt><trkpt lat="40.45809717098185" lon="9.366720546456765"><ele>757.0</ele><time>2026-05-01T14:09:10Z</time></trkpt><trkpt lat="40.45799226675347" lon="9.366605021495756"><ele>757.0</ele><time>2026-05-01T14:09:11Z</time></trkpt><trkpt lat="40.457886006089296" lon="9.366439453678078"><ele>757.0</ele><time>2026-05-01T14:09:12Z</time></trkpt><trkpt lat="40.45780831761332" lon="9.36625723511142"><ele>757.25</ele><time>2026-05-01T14:09:13Z</time></trkpt><trkpt lat="40.45772718380731" lon="9.366076204823619"><ele>757.5</ele><time>2026-05-01T14:09:14Z</time></trkpt><trkpt lat="40.45783894134844" lon="9.36613353335294"><ele>757.75</ele><time>2026-05-01T14:09:15Z</time></trkpt><trkpt lat="40.45789185339678" lon="9.36598078776204"><ele>758.0</ele><time>2026-05-01T14:09:16Z</time></trkpt><trkpt lat="40.45798054378519" lon="9.365816922141894"><ele>758.0</ele><time>2026-05-01T14:09:17Z</time></trkpt><trkpt lat="40.45808907397179" lon="9.365646494315394"><ele>758.0</ele><time>2026-05-01T14:09:18Z</time></trkpt><trkpt lat="40.458203407044124" lon="9.365463367543967"><ele>758.0</ele><time>2026-05-01T14:09:19Z</time></trkpt><trkpt lat="40.4583101732347" lon="9.365274193224506"><ele>757.0</ele><time>2026-05-01T14:09:20Z</time></trkpt><trkpt lat="40.458415807443075" lon="9.365086085468644"><ele>756.0</ele><time>2026-05-01T14:09:21Z</time></trkpt><trkpt lat="40.4585238399031" lon="9.364893193695064"><ele>755.0</ele><time>2026-05-01T14:09:22Z</time></trkpt><trkpt lat="40.45863180296144" lon="9.364704076265218"><ele>754.0</ele><time>2026-05-01T14:09:23Z</time></trkpt><trkpt lat="40.45874035561953" lon="9.364520394706947"><ele>753.0</ele><time>2026-05-01T14:09:24Z</time></trkpt><trkpt lat="40.45884500484423" lon="9.364339528497565"><ele>752.0</ele><time>2026-05-01T14:09:25Z</time></trkpt><trkpt lat="40.45894946406922" lon="9.364159202725927"><ele>750.6666666666666</ele><time>2026-05-01T14:09:26Z</time></trkpt><trkpt lat="40.45906032320688" lon="9.363967738236584"><ele>749.3333333333334</ele><time>2026-05-01T14:09:27Z</time></trkpt><trkpt lat="40.45917144576605" lon="9.363768427881494"><ele>748.0</ele><time>2026-05-01T14:09:28Z</time></trkpt><trkpt lat="40.45929085895185" lon="9.363559324121264"><ele>748.6666666666667</ele><time>2026-05-01T14:09:29Z</time></trkpt><trkpt lat="40.459423240872574" lon="9.363339556292587"><ele>749.3333333333334</ele><time>2026-05-01T14:09:30Z</time></trkpt><trkpt lat="40.45955926794085" lon="9.36310790551962"><ele>750.0</ele><time>2026-05-01T14:09:31Z</time></trkpt><trkpt lat="40.45969676182436" lon="9.362880189766313"><ele>750.0</ele><time>2026-05-01T14:09:32Z</time></trkpt><trkpt lat="40.45983232351953" lon="9.362650347053378"><ele>750.0</ele><time>2026-05-01T14:09:33Z</time></trkpt><trkpt lat="40.45995712559302" lon="9.362423700452394"><ele>750.0</ele><time>2026-05-01T14:09:34Z</time></trkpt><trkpt lat="40.46007419092147" lon="9.362201599214947"><ele>749.3333333333334</ele><time>2026-05-01T14:09:35Z</time></trkpt><trkpt lat="40.46018772424707" lon="9.361989602646398"><ele>748.6666666666667</ele><time>2026-05-01T14:09:36Z</time></trkpt><trkpt lat="40.46030053970125" lon="9.361789584495055"><ele>748.0</ele><time>2026-05-01T14:09:37Z</time></trkpt><trkpt lat="40.4604100599183" lon="9.361599146349034"><ele>750.3333333333334</ele><time>2026-05-01T14:09:38Z</time></trkpt><trkpt lat="40.46052190013263" lon="9.361400414616611"><ele>752.6666666666666</ele><time>2026-05-01T14:09:39Z</time></trkpt><trkpt lat="40.46062740904234" lon="9.361205113728944"><ele>755.0</ele><time>2026-05-01T14:09:40Z</time></trkpt><trkpt lat="40.46071792237131" lon="9.361026999113152"><ele>755.0</ele><time>2026-05-01T14:09:41Z</time></trkpt><trkpt lat="40.46079355489835" lon="9.360848308926755"><ele>755.0</ele><time>2026-05-01T14:09:42Z</time></trkpt><trkpt lat="40.460850424045695" lon="9.360642389404466"><ele>755.0</ele><time>2026-05-01T14:09:43Z</time></trkpt><trkpt lat="40.46087294072932" lon="9.360419050042173"><ele>754.6666666666666</ele><time>2026-05-01T14:09:44Z</time></trkpt><trkpt lat="40.46086983583696" lon="9.360188879954473"><ele>754.3333333333334</ele><time>2026-05-01T14:09:45Z</time></trkpt><trkpt lat="40.460847956721324" lon="9.35995341165053"><ele>754.0</ele><time>2026-05-01T14:09:46Z</time></trkpt><trkpt lat="40.46082655286225" lon="9.359710100869295"><ele>752.6666666666667</ele><time>2026-05-01T14:09:47Z</time></trkpt><trkpt lat="40.460829099908764" lon="9.35944874733538"><ele>751.3333333333334</ele><time>2026-05-01T14:09:48Z</time></trkpt><trkpt lat="40.4608612325144" lon="9.359174876134071"><ele>750.0</ele><time>2026-05-01T14:09:49Z</time></trkpt><trkpt lat="40.46091036303941" lon="9.358904604443941"><ele>751.3333333333334</ele><time>2026-05-01T14:09:50Z</time></trkpt><trkpt lat="40.460962754207294" lon="9.358638626450967"><ele>752.6666666666667</ele><time>2026-05-01T14:09:51Z</time></trkpt><trkpt lat="40.46102041327604" lon="9.358370215174943"><ele>754.0</ele><time>2026-05-01T14:09:52Z</time></trkpt><trkpt lat="40.4610757303791" lon="9.35811822296155"><ele>756.0</ele><time>2026-05-01T14:09:53Z</time></trkpt><trkpt lat="40.46113299613409" lon="9.35785995556438"><ele>758.0</ele><time>2026-05-01T14:09:54Z</time></trkpt><trkpt lat="40.46119365030086" lon="9.357594358016746"><ele>760.0</ele><time>2026-05-01T14:09:55Z</time></trkpt><trkpt lat="40.46125409273477" lon="9.35731490465844"><ele>764.0</ele><time>2026-05-01T14:09:56Z</time></trkpt><trkpt lat="40.4613105116809" lon="9.35703227603542"><ele>768.0</ele><time>2026-05-01T14:09:57Z</time></trkpt><trkpt lat="40.46137628744474" lon="9.356742372386813"><ele>768.0</ele><time>2026-05-01T14:09:58Z</time></trkpt><trkpt lat="40.461445705480536" lon="9.356443442660858"><ele>768.0</ele><time>2026-05-01T14:09:59Z</time></trkpt><trkpt lat="40.461507523962425" lon="9.356157198753237"><ele>771.0</ele><time>2026-05-01T14:10:00Z</time></trkpt><trkpt lat="40.461572627066005" lon="9.355856507843972"><ele>774.0</ele><time>2026-05-01T14:10:01Z</time></trkpt><trkpt lat="40.461631255179306" lon="9.355558254752461"><ele>776.5</ele><time>2026-05-01T14:10:02Z</time></trkpt><trkpt lat="40.461693037904176" lon="9.355260164252767"><ele>779.0</ele><time>2026-05-01T14:10:03Z</time></trkpt><trkpt lat="40.46176065891029" lon="9.354981209832872"><ele>779.0</ele><time>2026-05-01T14:10:04Z</time></trkpt><trkpt lat="40.46182384787719" lon="9.354713067839045"><ele>779.0</ele><time>2026-05-01T14:10:05Z</time></trkpt><trkpt lat="40.461888674155006" lon="9.354444893372884"><ele>779.0</ele><time>2026-05-01T14:10:06Z</time></trkpt><trkpt lat="40.46193995607939" lon="9.354170059025707"><ele>780.0</ele><time>2026-05-01T14:10:07Z</time></trkpt><trkpt lat="40.461959560258926" lon="9.353905799664297"><ele>781.0</ele><time>2026-05-01T14:10:08Z</time></trkpt><trkpt lat="40.46193666381301" lon="9.353649285954285"><ele>782.0</ele><time>2026-05-01T14:10:09Z</time></trkpt><trkpt lat="40.46188065703851" lon="9.353396637508443"><ele>782.3333333333334</ele><time>2026-05-01T14:10:10Z</time></trkpt><trkpt lat="40.46184396837106" lon="9.35316494117238"><ele>782.6666666666667</ele><time>2026-05-01T14:10:11Z</time></trkpt><trkpt lat="40.46183394568249" lon="9.352948888449822"><ele>783.0</ele><time>2026-05-01T14:10:12Z</time></trkpt><trkpt lat="40.461840373569025" lon="9.352688651405188"><ele>783.0</ele><time>2026-05-01T14:10:13Z</time></trkpt><trkpt lat="40.46188471989876" lon="9.352388103182275"><ele>783.0</ele><time>2026-05-01T14:10:14Z</time></trkpt><trkpt lat="40.46193075510123" lon="9.35208797690233"><ele>783.0</ele><time>2026-05-01T14:10:15Z</time></trkpt><trkpt lat="40.461975842274036" lon="9.351792541650452"><ele>783.0</ele><time>2026-05-01T14:10:16Z</time></trkpt><trkpt lat="40.46201839736144" lon="9.351505623058125"><ele>782.6666666666667</ele><time>2026-05-01T14:10:17Z</time></trkpt><trkpt lat="40.46206370471861" lon="9.3512405844421"><ele>782.3333333333334</ele><time>2026-05-01T14:10:18Z</time></trkpt><trkpt lat="40.46210978887793" lon="9.350980815857397"><ele>782.0</ele><time>2026-05-01T14:10:19Z</time></trkpt><trkpt lat="40.46217149712039" lon="9.350742195099192"><ele>782.0</ele><time>2026-05-01T14:10:20Z</time></trkpt><trkpt lat="40.462213590065055" lon="9.35050763801122"><ele>782.0</ele><time>2026-05-01T14:10:21Z</time></trkpt><trkpt lat="40.46221616739141" lon="9.350243541132524"><ele>782.0</ele><time>2026-05-01T14:10:22Z</time></trkpt><trkpt lat="40.46219889858445" lon="9.349960835247163"><ele>780.3333333333334</ele><time>2026-05-01T14:10:23Z</time></trkpt><trkpt lat="40.46218692325769" lon="9.349683197145088"><ele>778.6666666666667</ele><time>2026-05-01T14:10:24Z</time></trkpt><trkpt lat="40.46219564750336" lon="9.349398093146842"><ele>777.0</ele><time>2026-05-01T14:10:25Z</time></trkpt><trkpt lat="40.46221403886286" lon="9.34910122552547"><ele>774.0</ele><time>2026-05-01T14:10:26Z</time></trkpt><trkpt lat="40.46223606843731" lon="9.348822652462378"><ele>771.0</ele><time>2026-05-01T14:10:27Z</time></trkpt><trkpt lat="40.46226124985655" lon="9.3485538063175"><ele>768.0</ele><time>2026-05-01T14:10:28Z</time></trkpt><trkpt lat="40.462299304681274" lon="9.348297959098018"><ele>766.0</ele><time>2026-05-01T14:10:29Z</time></trkpt><trkpt lat="40.46236741523199" lon="9.348038578622871"><ele>764.0</ele><time>2026-05-01T14:10:30Z</time></trkpt><trkpt lat="40.46246276822372" lon="9.347808268019001"><ele>762.0</ele><time>2026-05-01T14:10:31Z</time></trkpt><trkpt lat="40.462557003814595" lon="9.347593936391512"><ele>762.0</ele><time>2026-05-01T14:10:32Z</time></trkpt><trkpt lat="40.46265081102152" lon="9.34739914341438"><ele>762.0</ele><time>2026-05-01T14:10:33Z</time></trkpt><trkpt lat="40.46275667761463" lon="9.347264903922179"><ele>762.0</ele><time>2026-05-01T14:10:34Z</time></trkpt><trkpt lat="40.4628898104318" lon="9.34719819722798"><ele>763.0</ele><time>2026-05-01T14:10:35Z</time></trkpt><trkpt lat="40.46305324210501" lon="9.34716585588345"><ele>764.0</ele><time>2026-05-01T14:10:36Z</time></trkpt><trkpt lat="40.46323275163477" lon="9.34718829705602"><ele>765.0</ele><time>2026-05-01T14:10:37Z</time></trkpt><trkpt lat="40.46336279208311" lon="9.34710905389096"><ele>765.0</ele><time>2026-05-01T14:10:38Z</time></trkpt><trkpt lat="40.46347598510327" lon="9.34696763579915"><ele>765.0</ele><time>2026-05-01T14:10:39Z</time></trkpt><trkpt lat="40.463560212520925" lon="9.346781755250515"><ele>765.0</ele><time>2026-05-01T14:10:40Z</time></trkpt><trkpt lat="40.46361156381499" lon="9.34655949317631"><ele>767.0</ele><time>2026-05-01T14:10:41Z</time></trkpt><trkpt lat="40.46364018632641" lon="9.346316336806536"><ele>769.0</ele><time>2026-05-01T14:10:42Z</time></trkpt><trkpt lat="40.4636595001171" lon="9.346065672152072"><ele>771.0</ele><time>2026-05-01T14:10:43Z</time></trkpt><trkpt lat="40.463691692708615" lon="9.345805830969923"><ele>771.3333333333333</ele><time>2026-05-01T14:10:44Z</time></trkpt><trkpt lat="40.46373606862526" lon="9.345536939274881"><ele>771.6666666666666</ele><time>2026-05-01T14:10:45Z</time></trkpt><trkpt lat="40.463782858787255" lon="9.345278437771357"><ele>772.0</ele><time>2026-05-01T14:10:46Z</time></trkpt><trkpt lat="40.463825853002" lon="9.34503047712954"><ele>772.0</ele><time>2026-05-01T14:10:47Z</time></trkpt><trkpt lat="40.46386740775102" lon="9.344797996564504"><ele>772.0</ele><time>2026-05-01T14:10:48Z</time></trkpt><trkpt lat="40.463920723350384" lon="9.344585178153087"><ele>772.0</ele><time>2026-05-01T14:10:49Z</time></trkpt><trkpt lat="40.464002594519506" lon="9.344423818281589"><ele>770.75</ele><time>2026-05-01T14:10:50Z</time></trkpt><trkpt lat="40.46411715587122" lon="9.344333724610234"><ele>769.5</ele><time>2026-05-01T14:10:51Z</time></trkpt><trkpt lat="40.46425162299288" lon="9.34430106582066"><ele>768.25</ele><time>2026-05-01T14:10:52Z</time></trkpt><trkpt lat="40.464406648245735" lon="9.344336080915893"><ele>767.0</ele><time>2026-05-01T14:10:53Z</time></trkpt><trkpt lat="40.46459155138338" lon="9.344394810968241"><ele>765.3333333333333</ele><time>2026-05-01T14:10:54Z</time></trkpt><trkpt lat="40.46479431660062" lon="9.344459863617885"><ele>763.6666666666666</ele><time>2026-05-01T14:10:55Z</time></trkpt><trkpt lat="40.465013890664075" lon="9.34452733169657"><ele>762.0</ele><time>2026-05-01T14:10:56Z</time></trkpt><trkpt lat="40.465228191026725" lon="9.344589614506948"><ele>762.0</ele><time>2026-05-01T14:10:57Z</time></trkpt><trkpt lat="40.46542416378003" lon="9.34463362630368"><ele>762.0</ele><time>2026-05-01T14:10:58Z</time></trkpt><trkpt lat="40.46560919676567" lon="9.344635713248564"><ele>762.0</ele><time>2026-05-01T14:10:59Z</time></trkpt><trkpt lat="40.465784082517864" lon="9.344601981470904"><ele>764.0</ele><time>2026-05-01T14:11:00Z</time></trkpt><trkpt lat="40.465935061379454" lon="9.344527741393188"><ele>766.0</ele><time>2026-05-01T14:11:01Z</time></trkpt><trkpt lat="40.4660797761668" lon="9.344397127060041"><ele>768.0</ele><time>2026-05-01T14:11:02Z</time></trkpt><trkpt lat="40.46621328215681" lon="9.344208838160164"><ele>769.3333333333333</ele><time>2026-05-01T14:11:03Z</time></trkpt><trkpt lat="40.46634350095073" lon="9.34400320347961"><ele>770.6666666666666</ele><time>2026-05-01T14:11:04Z</time></trkpt><trkpt lat="40.46647282406279" lon="9.343802532699804"><ele>772.0</ele><time>2026-05-01T14:11:05Z</time></trkpt><trkpt lat="40.46660546981672" lon="9.343605340401194"><ele>772.0</ele><time>2026-05-01T14:11:06Z</time></trkpt><trkpt lat="40.46674360518637" lon="9.343482681931626"><ele>772.0</ele><time>2026-05-01T14:11:07Z</time></trkpt><trkpt lat="40.4668987011659" lon="9.343356051427842"><ele>772.0</ele><time>2026-05-01T14:11:08Z</time></trkpt><trkpt lat="40.46707156321702" lon="9.343267216975088"><ele>770.0</ele><time>2026-05-01T14:11:09Z</time></trkpt><trkpt lat="40.467245972206456" lon="9.34321913360936"><ele>768.0</ele><time>2026-05-01T14:11:10Z</time></trkpt><trkpt lat="40.467434551674174" lon="9.343228786139099"><ele>766.0</ele><time>2026-05-01T14:11:11Z</time></trkpt><trkpt lat="40.46761881021411" lon="9.343260134398573"><ele>766.0</ele><time>2026-05-01T14:11:12Z</time></trkpt><trkpt lat="40.467794598999056" lon="9.343254550519635"><ele>766.0</ele><time>2026-05-01T14:11:13Z</time></trkpt><trkpt lat="40.46797851688359" lon="9.343195351158197"><ele>766.0</ele><time>2026-05-01T14:11:14Z</time></trkpt><trkpt lat="40.46817805295208" lon="9.34308926374383"><ele>760.0</ele><time>2026-05-01T14:11:15Z</time></trkpt><trkpt lat="40.468362757977296" lon="9.342978081485036"><ele>754.0</ele><time>2026-05-01T14:11:16Z</time></trkpt><trkpt lat="40.46853127920918" lon="9.34287526926119"><ele>748.0</ele><time>2026-05-01T14:11:17Z</time></trkpt><trkpt lat="40.46869076186122" lon="9.34278048362995"><ele>746.6666666666667</ele><time>2026-05-01T14:11:18Z</time></trkpt><trkpt lat="40.468862913284" lon="9.342733011526684"><ele>745.3333333333334</ele><time>2026-05-01T14:11:19Z</time></trkpt><trkpt lat="40.46903688885956" lon="9.342750762945636"><ele>744.0</ele><time>2026-05-01T14:11:20Z</time></trkpt><trkpt lat="40.46919174376154" lon="9.342863397307235"><ele>744.0</ele><time>2026-05-01T14:11:21Z</time></trkpt><trkpt lat="40.46933726983299" lon="9.343032733145886"><ele>744.0</ele><time>2026-05-01T14:11:22Z</time></trkpt><trkpt lat="40.4694648192091" lon="9.343246888916134"><ele>744.0</ele><time>2026-05-01T14:11:23Z</time></trkpt><trkpt lat="40.46958071446545" lon="9.343455757153134"><ele>742.6666666666666</ele><time>2026-05-01T14:11:24Z</time></trkpt><trkpt lat="40.46970411872991" lon="9.343617003316254"><ele>741.3333333333333</ele><time>2026-05-01T14:11:25Z</time></trkpt><trkpt lat="40.469858246585986" lon="9.343731611933729"><ele>740.0</ele><time>2026-05-01T14:11:26Z</time></trkpt><trkpt lat="40.470029524585485" lon="9.343807229780541"><ele>740.0</ele><time>2026-05-01T14:11:27Z</time></trkpt><trkpt lat="40.47020333445941" lon="9.343827727717487"><ele>740.0</ele><time>2026-05-01T14:11:28Z</time></trkpt><trkpt lat="40.47039558511919" lon="9.343816620702258"><ele>740.0</ele><time>2026-05-01T14:11:29Z</time></trkpt><trkpt lat="40.47060188192124" lon="9.343803201696089"><ele>741.3333333333333</ele><time>2026-05-01T14:11:30Z</time></trkpt><trkpt lat="40.470818151841726" lon="9.343798933512492"><ele>742.6666666666666</ele><time>2026-05-01T14:11:31Z</time></trkpt><trkpt lat="40.47103537858046" lon="9.343805682297765"><ele>744.0</ele><time>2026-05-01T14:11:32Z</time></trkpt><trkpt lat="40.47125052220624" lon="9.343811673113743"><ele>746.6666666666666</ele><time>2026-05-01T14:11:33Z</time></trkpt><trkpt lat="40.47146423482314" lon="9.343819973848966"><ele>749.3333333333333</ele><time>2026-05-01T14:11:34Z</time></trkpt><trkpt lat="40.471677206444255" lon="9.343828621251241"><ele>752.0</ele><time>2026-05-01T14:11:35Z</time></trkpt><trkpt lat="40.47188837555997" lon="9.343833074520907"><ele>752.0</ele><time>2026-05-01T14:11:36Z</time></trkpt><trkpt lat="40.472096406316204" lon="9.343838763125731"><ele>752.0</ele><time>2026-05-01T14:11:37Z</time></trkpt><trkpt lat="40.472299272479134" lon="9.343850267954723"><ele>752.0</ele><time>2026-05-01T14:11:38Z</time></trkpt><trkpt lat="40.472496019982046" lon="9.343883304490715"><ele>754.0</ele><time>2026-05-01T14:11:39Z</time></trkpt><trkpt lat="40.47268854148514" lon="9.343953405970668"><ele>756.0</ele><time>2026-05-01T14:11:40Z</time></trkpt><trkpt lat="40.472882217513565" lon="9.344047320103709"><ele>758.0</ele><time>2026-05-01T14:11:41Z</time></trkpt><trkpt lat="40.47307511868868" lon="9.344156153234431"><ele>760.3333333333333</ele><time>2026-05-01T14:11:42Z</time></trkpt><trkpt lat="40.473258301382" lon="9.344284405626553"><ele>762.6666666666666</ele><time>2026-05-01T14:11:43Z</time></trkpt><trkpt lat="40.473413549051145" lon="9.344427116927983"><ele>765.0</ele><time>2026-05-01T14:11:44Z</time></trkpt><trkpt lat="40.47352786812132" lon="9.344566200529195"><ele>765.0</ele><time>2026-05-01T14:11:45Z</time></trkpt><trkpt lat="40.473595490436445" lon="9.344680869281818"><ele>765.0</ele><time>2026-05-01T14:11:46Z</time></trkpt><trkpt lat="40.47363595059254" lon="9.344759466591858"><ele>765.0</ele><time>2026-05-01T14:11:47Z</time></trkpt><trkpt lat="40.47368389315091" lon="9.344900158479067"><ele>765.0</ele><time>2026-05-01T14:11:49Z</time></trkpt><trkpt lat="40.47370597902973" lon="9.345006331025957"><ele>765.0</ele><time>2026-05-01T14:11:50Z</time></trkpt><trkpt lat="40.47370638750807" lon="9.345138552793898"><ele>764.8</ele><time>2026-05-01T14:11:51Z</time></trkpt><trkpt lat="40.47368963976179" lon="9.345276329937722"><ele>764.6</ele><time>2026-05-01T14:11:52Z</time></trkpt><trkpt lat="40.473704731858206" lon="9.345396290428015"><ele>764.4000000000001</ele><time>2026-05-01T14:11:53Z</time></trkpt><trkpt lat="40.47376092977006" lon="9.345482492914176"><ele>764.2</ele><time>2026-05-01T14:11:54Z</time></trkpt><trkpt lat="40.47383722334158" lon="9.345534949518868"><ele>764.0</ele><time>2026-05-01T14:11:55Z</time></trkpt><trkpt lat="40.47393479812184" lon="9.345526684319289"><ele>767.0</ele><time>2026-05-01T14:11:56Z</time></trkpt><trkpt lat="40.47403145569223" lon="9.345464528619274"><ele>770.0</ele><time>2026-05-01T14:11:57Z</time></trkpt><trkpt lat="40.47410210548217" lon="9.345356869426846"><ele>773.0</ele><time>2026-05-01T14:11:58Z</time></trkpt><trkpt lat="40.47417743148675" lon="9.345252811470496"><ele>776.0</ele><time>2026-05-01T14:11:59Z</time></trkpt><trkpt lat="40.474316312670915" lon="9.345283851941785"><ele>776.0</ele><time>2026-05-01T14:12:00Z</time></trkpt><trkpt lat="40.47444256051949" lon="9.345311031950363"><ele>776.0</ele><time>2026-05-01T14:12:01Z</time></trkpt><trkpt lat="40.47459252942827" lon="9.345332580983218"><ele>776.0</ele><time>2026-05-01T14:12:02Z</time></trkpt><trkpt lat="40.474749194303854" lon="9.345378393560766"><ele>776.0</ele><time>2026-05-01T14:12:03Z</time></trkpt><trkpt lat="40.47489779234863" lon="9.345409487239973"><ele>778.75</ele><time>2026-05-01T14:12:04Z</time></trkpt><trkpt lat="40.475030994826085" lon="9.34542517944909"><ele>781.5</ele><time>2026-05-01T14:12:05Z</time></trkpt><trkpt lat="40.47517579618901" lon="9.345421738533158"><ele>784.25</ele><time>2026-05-01T14:12:06Z</time></trkpt><trkpt lat="40.475321955918595" lon="9.345408590329534"><ele>787.0</ele><time>2026-05-01T14:12:07Z</time></trkpt><trkpt lat="40.47546900993804" lon="9.345378984259622"><ele>788.0</ele><time>2026-05-01T14:12:08Z</time></trkpt><trkpt lat="40.47562359127123" lon="9.3453486687532"><ele>789.0</ele><time>2026-05-01T14:12:09Z</time></trkpt><trkpt lat="40.47578611669231" lon="9.345317849403536"><ele>790.0</ele><time>2026-05-01T14:12:10Z</time></trkpt><trkpt lat="40.47595545848484" lon="9.345295670204637"><ele>790.0</ele><time>2026-05-01T14:12:11Z</time></trkpt><trkpt lat="40.47613020028026" lon="9.345288376579527"><ele>790.0</ele><time>2026-05-01T14:12:12Z</time></trkpt><trkpt lat="40.476306735886766" lon="9.345310130266931"><ele>790.0</ele><time>2026-05-01T14:12:13Z</time></trkpt><trkpt lat="40.476481031414" lon="9.34535879586176"><ele>789.3333333333333</ele><time>2026-05-01T14:12:14Z</time></trkpt><trkpt lat="40.4766731058625" lon="9.345421390949928"><ele>788.6666666666667</ele><time>2026-05-01T14:12:15Z</time></trkpt><trkpt lat="40.476885465544505" lon="9.345481316893606"><ele>788.0</ele><time>2026-05-01T14:12:16Z</time></trkpt><trkpt lat="40.47711115845703" lon="9.345546305348096"><ele>784.0</ele><time>2026-05-01T14:12:17Z</time></trkpt><trkpt lat="40.47734211793611" lon="9.345611607792895"><ele>780.0</ele><time>2026-05-01T14:12:18Z</time></trkpt><trkpt lat="40.47757042519783" lon="9.345676161181258"><ele>780.0</ele><time>2026-05-01T14:12:19Z</time></trkpt><trkpt lat="40.47779067484227" lon="9.345736343999564"><ele>780.0</ele><time>2026-05-01T14:12:20Z</time></trkpt><trkpt lat="40.47801190082039" lon="9.345801194444467"><ele>779.5</ele><time>2026-05-01T14:12:21Z</time></trkpt><trkpt lat="40.4782435295014" lon="9.345863838948837"><ele>779.0</ele><time>2026-05-01T14:12:22Z</time></trkpt><trkpt lat="40.47847229105519" lon="9.345931695033164"><ele>779.0</ele><time>2026-05-01T14:12:23Z</time></trkpt><trkpt lat="40.47868353863115" lon="9.345995828357113"><ele>779.0</ele><time>2026-05-01T14:12:24Z</time></trkpt><trkpt lat="40.478882622327724" lon="9.346051809236588"><ele>779.0</ele><time>2026-05-01T14:12:25Z</time></trkpt><trkpt lat="40.47907268719784" lon="9.346106940099752"><ele>779.0</ele><time>2026-05-01T14:12:26Z</time></trkpt><trkpt lat="40.479268323003375" lon="9.346153445558034"><ele>779.0</ele><time>2026-05-01T14:12:27Z</time></trkpt><trkpt lat="40.47948510060029" lon="9.346166209458026"><ele>779.0</ele><time>2026-05-01T14:12:28Z</time></trkpt><trkpt lat="40.479724446208536" lon="9.346150136862557"><ele>776.5</ele><time>2026-05-01T14:12:29Z</time></trkpt><trkpt lat="40.479971393994326" lon="9.346094988137251"><ele>774.0</ele><time>2026-05-01T14:12:30Z</time></trkpt><trkpt lat="40.48022998881221" lon="9.34604320099918"><ele>773.0</ele><time>2026-05-01T14:12:31Z</time></trkpt><trkpt lat="40.480477498459415" lon="9.345991895629469"><ele>772.0</ele><time>2026-05-01T14:12:32Z</time></trkpt><trkpt lat="40.48070758044308" lon="9.345948589978537"><ele>772.0</ele><time>2026-05-01T14:12:33Z</time></trkpt><trkpt lat="40.480938782921555" lon="9.34590380288281"><ele>772.0</ele><time>2026-05-01T14:12:34Z</time></trkpt><trkpt lat="40.48117850123468" lon="9.345860050547724"><ele>772.0</ele><time>2026-05-01T14:12:35Z</time></trkpt><trkpt lat="40.48141823532543" lon="9.34581156176216"><ele>772.0</ele><time>2026-05-01T14:12:36Z</time></trkpt><trkpt lat="40.48165666409505" lon="9.345767665811819"><ele>772.0</ele><time>2026-05-01T14:12:37Z</time></trkpt><trkpt lat="40.48189429787746" lon="9.345724563166792"><ele>772.0</ele><time>2026-05-01T14:12:38Z</time></trkpt><trkpt lat="40.48213168370501" lon="9.345680620383174"><ele>771.0</ele><time>2026-05-01T14:12:39Z</time></trkpt><trkpt lat="40.482369625265136" lon="9.345636040096778"><ele>770.0</ele><time>2026-05-01T14:12:40Z</time></trkpt><trkpt lat="40.48260572666869" lon="9.345586711824192"><ele>769.5</ele><time>2026-05-01T14:12:41Z</time></trkpt><trkpt lat="40.48285020809154" lon="9.345534462751946"><ele>769.0</ele><time>2026-05-01T14:12:42Z</time></trkpt><trkpt lat="40.483101977732765" lon="9.345485565967646"><ele>769.0</ele><time>2026-05-01T14:12:43Z</time></trkpt><trkpt lat="40.48335248784665" lon="9.345437965666603"><ele>769.0</ele><time>2026-05-01T14:12:44Z</time></trkpt><trkpt lat="40.48359796596588" lon="9.345390240248555"><ele>768.0</ele><time>2026-05-01T14:12:45Z</time></trkpt><trkpt lat="40.48384371186916" lon="9.345343049086553"><ele>767.0</ele><time>2026-05-01T14:12:46Z</time></trkpt><trkpt lat="40.484085116011244" lon="9.34529319053792"><ele>767.0</ele><time>2026-05-01T14:12:47Z</time></trkpt><trkpt lat="40.48431817888283" lon="9.345249542225272"><ele>767.0</ele><time>2026-05-01T14:12:48Z</time></trkpt><trkpt lat="40.484557502037426" lon="9.345223566128581"><ele>765.6666666666666</ele><time>2026-05-01T14:12:49Z</time></trkpt><trkpt lat="40.48477599009454" lon="9.345216914034644"><ele>764.3333333333334</ele><time>2026-05-01T14:12:50Z</time></trkpt><trkpt lat="40.4849914294356" lon="9.345225366047982"><ele>763.0</ele><time>2026-05-01T14:12:51Z</time></trkpt><trkpt lat="40.48519404576623" lon="9.34523536680366"><ele>763.0</ele><time>2026-05-01T14:12:52Z</time></trkpt><trkpt lat="40.485391182931174" lon="9.345244180626217"><ele>763.0</ele><time>2026-05-01T14:12:53Z</time></trkpt><trkpt lat="40.48555995800364" lon="9.345255766925504"><ele>763.0</ele><time>2026-05-01T14:12:54Z</time></trkpt><trkpt lat="40.485699866647956" lon="9.34526839880928"><ele>763.0</ele><time>2026-05-01T14:12:55Z</time></trkpt><trkpt lat="40.485820413280734" lon="9.345305537772678"><ele>763.0</ele><time>2026-05-01T14:12:56Z</time></trkpt><trkpt lat="40.4859275379415" lon="9.345384931704078"><ele>763.0</ele><time>2026-05-01T14:12:57Z</time></trkpt><trkpt lat="40.486035471517" lon="9.345470602648648"><ele>763.0</ele><time>2026-05-01T14:12:58Z</time></trkpt><trkpt lat="40.48614415416807" lon="9.345523317309368"><ele>763.0</ele><time>2026-05-01T14:12:59Z</time></trkpt><trkpt lat="40.48624364067517" lon="9.345535892687506"><ele>763.0</ele><time>2026-05-01T14:13:00Z</time></trkpt><trkpt lat="40.48634523156099" lon="9.345482177457567"><ele>763.0</ele><time>2026-05-01T14:13:01Z</time></trkpt><trkpt lat="40.48645309370824" lon="9.345389822285968"><ele>763.0</ele><time>2026-05-01T14:13:02Z</time></trkpt><trkpt lat="40.486592809847295" lon="9.345306960974094"><ele>762.6666666666667</ele><time>2026-05-01T14:13:03Z</time></trkpt><trkpt lat="40.4867594160067" lon="9.345289253739699"><ele>762.3333333333334</ele><time>2026-05-01T14:13:04Z</time></trkpt><trkpt lat="40.486959840595254" lon="9.34530574354341"><ele>762.0</ele><time>2026-05-01T14:13:05Z</time></trkpt><trkpt lat="40.487181006439286" lon="9.345322197105817"><ele>760.5</ele><time>2026-05-01T14:13:06Z</time></trkpt><trkpt lat="40.48741997738949" lon="9.34534754505972"><ele>759.0</ele><time>2026-05-01T14:13:07Z</time></trkpt><trkpt lat="40.48764685059734" lon="9.3453575175051"><ele>759.0</ele><time>2026-05-01T14:13:08Z</time></trkpt><trkpt lat="40.487884112078675" lon="9.345366132095641"><ele>759.0</ele><time>2026-05-01T14:13:09Z</time></trkpt><trkpt lat="40.488121407727384" lon="9.345380134388165"><ele>758.5</ele><time>2026-05-01T14:13:10Z</time></trkpt><trkpt lat="40.48835891013002" lon="9.345387260019407"><ele>758.0</ele><time>2026-05-01T14:13:11Z</time></trkpt><trkpt lat="40.4886034426051" lon="9.345400633936954"><ele>758.0</ele><time>2026-05-01T14:13:12Z</time></trkpt><trkpt lat="40.48884773287849" lon="9.345410958371922"><ele>758.0</ele><time>2026-05-01T14:13:13Z</time></trkpt><trkpt lat="40.48909487506957" lon="9.3454205649765"><ele>758.0</ele><time>2026-05-01T14:13:14Z</time></trkpt><trkpt lat="40.489348979386655" lon="9.345435797332268"><ele>758.0</ele><time>2026-05-01T14:13:15Z</time></trkpt><trkpt lat="40.48960841610249" lon="9.345452443150752"><ele>756.0</ele><time>2026-05-01T14:13:16Z</time></trkpt><trkpt lat="40.48987360113223" lon="9.345467630493962"><ele>754.0</ele><time>2026-05-01T14:13:17Z</time></trkpt><trkpt lat="40.490141398087616" lon="9.345480563931803"><ele>754.0</ele><time>2026-05-01T14:13:18Z</time></trkpt><trkpt lat="40.490408163087245" lon="9.345492753589077"><ele>754.0</ele><time>2026-05-01T14:13:19Z</time></trkpt><trkpt lat="40.49067212248878" lon="9.34550491506609"><ele>753.5</ele><time>2026-05-01T14:13:20Z</time></trkpt><trkpt lat="40.490914661539456" lon="9.34551633961409"><ele>753.0</ele><time>2026-05-01T14:13:21Z</time></trkpt><trkpt lat="40.49113072076448" lon="9.345531263746905"><ele>752.5</ele><time>2026-05-01T14:13:22Z</time></trkpt><trkpt lat="40.49135673390959" lon="9.345543368779879"><ele>752.0</ele><time>2026-05-01T14:13:23Z</time></trkpt><trkpt lat="40.49158739894128" lon="9.345552169961243"><ele>752.0</ele><time>2026-05-01T14:13:24Z</time></trkpt><trkpt lat="40.4918184539041" lon="9.345564079597793"><ele>752.0</ele><time>2026-05-01T14:13:25Z</time></trkpt><trkpt lat="40.49204460513638" lon="9.345572640488282"><ele>752.3333333333333</ele><time>2026-05-01T14:13:26Z</time></trkpt><trkpt lat="40.492267799694325" lon="9.345584488938487"><ele>752.6666666666666</ele><time>2026-05-01T14:13:27Z</time></trkpt><trkpt lat="40.49248645772174" lon="9.345597392505512"><ele>753.0</ele><time>2026-05-01T14:13:28Z</time></trkpt><trkpt lat="40.49270171261085" lon="9.345606115276606"><ele>753.0</ele><time>2026-05-01T14:13:29Z</time></trkpt><trkpt lat="40.49291692140293" lon="9.345613282189781"><ele>753.0</ele><time>2026-05-01T14:13:30Z</time></trkpt><trkpt lat="40.4931302681747" lon="9.34562148334131"><ele>753.0</ele><time>2026-05-01T14:13:31Z</time></trkpt><trkpt lat="40.49333978673625" lon="9.345631518527151"><ele>752.3333333333334</ele><time>2026-05-01T14:13:32Z</time></trkpt><trkpt lat="40.493534239726166" lon="9.34563818517451"><ele>751.6666666666667</ele><time>2026-05-01T14:13:33Z</time></trkpt><trkpt lat="40.493704617829586" lon="9.345645778069601"><ele>751.0</ele><time>2026-05-01T14:13:34Z</time></trkpt><trkpt lat="40.49384152211322" lon="9.345651354462426"><ele>749.8333333333334</ele><time>2026-05-01T14:13:35Z</time></trkpt><trkpt lat="40.493952414475224" lon="9.34566006741563"><ele>748.6666666666667</ele><time>2026-05-01T14:13:36Z</time></trkpt><trkpt lat="40.49404482468843" lon="9.345666533044813"><ele>747.5</ele><time>2026-05-01T14:13:37Z</time></trkpt><trkpt lat="40.49413262348711" lon="9.345679246622087"><ele>746.3333333333334</ele><time>2026-05-01T14:13:38Z</time></trkpt><trkpt lat="40.49420056039625" lon="9.345712983561864"><ele>745.1666666666666</ele><time>2026-05-01T14:13:39Z</time></trkpt><trkpt lat="40.49425561976762" lon="9.345758644348166"><ele>744.0</ele><time>2026-05-01T14:13:40Z</time></trkpt><trkpt lat="40.494314256136526" lon="9.345833197913663"><ele>744.0</ele><time>2026-05-01T14:13:41Z</time></trkpt><trkpt lat="40.494390006345874" lon="9.345907648584161"><ele>744.0</ele><time>2026-05-01T14:13:42Z</time></trkpt><trkpt lat="40.49448176926729" lon="9.34595058103916"><ele>744.0</ele><time>2026-05-01T14:13:43Z</time></trkpt><trkpt lat="40.494576474094536" lon="9.34593873935675"><ele>744.0</ele><time>2026-05-01T14:13:44Z</time></trkpt><trkpt lat="40.49465809730737" lon="9.345851325315596"><ele>744.0</ele><time>2026-05-01T14:13:45Z</time></trkpt><trkpt lat="40.49470708376566" lon="9.345725730040208"><ele>743.25</ele><time>2026-05-01T14:13:46Z</time></trkpt><trkpt lat="40.49472373451582" lon="9.34557873870094"><ele>742.5</ele><time>2026-05-01T14:13:47Z</time></trkpt><trkpt lat="40.494702287268304" lon="9.345406145718748"><ele>741.75</ele><time>2026-05-01T14:13:48Z</time></trkpt><trkpt lat="40.49470015136123" lon="9.345222448947395"><ele>741.0</ele><time>2026-05-01T14:13:49Z</time></trkpt><trkpt lat="40.49475557004248" lon="9.345048827277916"><ele>741.0</ele><time>2026-05-01T14:13:50Z</time></trkpt><trkpt lat="40.49487771119029" lon="9.344918744944748"><ele>741.0</ele><time>2026-05-01T14:13:51Z</time></trkpt><trkpt lat="40.49502965868631" lon="9.344823623722268"><ele>741.0</ele><time>2026-05-01T14:13:52Z</time></trkpt><trkpt lat="40.495218628671196" lon="9.344783627010782"><ele>743.5</ele><time>2026-05-01T14:13:53Z</time></trkpt><trkpt lat="40.495435506928146" lon="9.344739339479041"><ele>746.0</ele><time>2026-05-01T14:13:54Z</time></trkpt><trkpt lat="40.49568398293658" lon="9.344700445969504"><ele>741.0</ele><time>2026-05-01T14:13:55Z</time></trkpt><trkpt lat="40.49592743152438" lon="9.344635525556932"><ele>736.0</ele><time>2026-05-01T14:13:56Z</time></trkpt><trkpt lat="40.49618009992939" lon="9.344568754119669"><ele>736.5</ele><time>2026-05-01T14:13:57Z</time></trkpt><trkpt lat="40.49642742823756" lon="9.344495959409159"><ele>737.0</ele><time>2026-05-01T14:13:58Z</time></trkpt><trkpt lat="40.49666616609276" lon="9.34443515181974"><ele>737.0</ele><time>2026-05-01T14:13:59Z</time></trkpt><trkpt lat="40.49689911032164" lon="9.344369013420328"><ele>737.0</ele><time>2026-05-01T14:14:00Z</time></trkpt><trkpt lat="40.49711959372015" lon="9.344313089301817"><ele>737.0</ele><time>2026-05-01T14:14:01Z</time></trkpt><trkpt lat="40.497333263010255" lon="9.34426697535284"><ele>737.0</ele><time>2026-05-01T14:14:02Z</time></trkpt><trkpt lat="40.49755385426931" lon="9.344246543403187"><ele>737.0</ele><time>2026-05-01T14:14:03Z</time></trkpt><trkpt lat="40.4977949003658" lon="9.344255819682633"><ele>737.5</ele><time>2026-05-01T14:14:04Z</time></trkpt><trkpt lat="40.49803858331774" lon="9.344256681754528"><ele>738.0</ele><time>2026-05-01T14:14:05Z</time></trkpt><trkpt lat="40.49828538292822" lon="9.344264350696838"><ele>738.0</ele><time>2026-05-01T14:14:06Z</time></trkpt><trkpt lat="40.49853248974255" lon="9.3442733788967"><ele>738.0</ele><time>2026-05-01T14:14:07Z</time></trkpt><trkpt lat="40.49878205756497" lon="9.344278720113882"><ele>736.0</ele><time>2026-05-01T14:14:08Z</time></trkpt><trkpt lat="40.49903372418247" lon="9.34428200221564"><ele>734.0</ele><time>2026-05-01T14:14:09Z</time></trkpt><trkpt lat="40.499282054730216" lon="9.344279040558348"><ele>734.0</ele><time>2026-05-01T14:14:10Z</time></trkpt><trkpt lat="40.49951631396764" lon="9.344276183196499"><ele>734.0</ele><time>2026-05-01T14:14:11Z</time></trkpt><trkpt lat="40.49974479828195" lon="9.344261255350148"><ele>733.3333333333333</ele><time>2026-05-01T14:14:12Z</time></trkpt><trkpt lat="40.49996054957986" lon="9.344230209647963"><ele>732.6666666666666</ele><time>2026-05-01T14:14:13Z</time></trkpt><trkpt lat="40.50017839083142" lon="9.344158388256705"><ele>732.0</ele><time>2026-05-01T14:14:14Z</time></trkpt><trkpt lat="40.50040340026695" lon="9.34404795971511"><ele>731.0</ele><time>2026-05-01T14:14:15Z</time></trkpt><trkpt lat="40.50063948361026" lon="9.343937255651493"><ele>730.0</ele><time>2026-05-01T14:14:16Z</time></trkpt><trkpt lat="40.50089204020104" lon="9.343838071809245"><ele>729.0</ele><time>2026-05-01T14:14:17Z</time></trkpt><trkpt lat="40.50116237405395" lon="9.343735547279145"><ele>728.0</ele><time>2026-05-01T14:14:18Z</time></trkpt><trkpt lat="40.501438159578335" lon="9.343626396230711"><ele>728.0</ele><time>2026-05-01T14:14:19Z</time></trkpt><trkpt lat="40.50171665711401" lon="9.343512036207814"><ele>728.0</ele><time>2026-05-01T14:14:20Z</time></trkpt><trkpt lat="40.50199719687762" lon="9.343393647664723"><ele>728.0</ele><time>2026-05-01T14:14:21Z</time></trkpt><trkpt lat="40.502276342580586" lon="9.343277856274408"><ele>728.0</ele><time>2026-05-01T14:14:22Z</time></trkpt><trkpt lat="40.502548699958695" lon="9.343166887508527"><ele>728.0</ele><time>2026-05-01T14:14:23Z</time></trkpt><trkpt lat="40.50279886588639" lon="9.343064114052469"><ele>728.0</ele><time>2026-05-01T14:14:24Z</time></trkpt><trkpt lat="40.50304559298878" lon="9.342966151326722"><ele>727.5</ele><time>2026-05-01T14:14:25Z</time></trkpt><trkpt lat="40.50329390867942" lon="9.342858416502525"><ele>727.0</ele><time>2026-05-01T14:14:26Z</time></trkpt><trkpt lat="40.50354186604139" lon="9.34275762097582"><ele>729.0</ele><time>2026-05-01T14:14:27Z</time></trkpt><trkpt lat="40.50377449169348" lon="9.342666248875325"><ele>731.0</ele><time>2026-05-01T14:14:28Z</time></trkpt><trkpt lat="40.50398744615497" lon="9.342572425723027"><ele>731.0</ele><time>2026-05-01T14:14:29Z</time></trkpt><trkpt lat="40.5041880448791" lon="9.342447942406718"><ele>731.0</ele><time>2026-05-01T14:14:30Z</time></trkpt><trkpt lat="40.50436243682672" lon="9.342268409094615"><ele>731.0</ele><time>2026-05-01T14:14:31Z</time></trkpt><trkpt lat="40.504503812382794" lon="9.342051921427728"><ele>732.0</ele><time>2026-05-01T14:14:32Z</time></trkpt><trkpt lat="40.50461285743711" lon="9.341787544698356"><ele>733.0</ele><time>2026-05-01T14:14:33Z</time></trkpt><trkpt lat="40.504705947467684" lon="9.341492933354"><ele>732.5</ele><time>2026-05-01T14:14:34Z</time></trkpt><trkpt lat="40.504803480042014" lon="9.341205632448423"><ele>732.0</ele><time>2026-05-01T14:14:35Z</time></trkpt><trkpt lat="40.50490866350073" lon="9.340925252012957"><ele>732.0</ele><time>2026-05-01T14:14:36Z</time></trkpt><trkpt lat="40.505016781476854" lon="9.340644449472526"><ele>732.0</ele><time>2026-05-01T14:14:37Z</time></trkpt><trkpt lat="40.50512559408121" lon="9.340360156944234"><ele>731.0</ele><time>2026-05-01T14:14:38Z</time></trkpt><trkpt lat="40.50523269394353" lon="9.34007377922978"><ele>730.0</ele><time>2026-05-01T14:14:39Z</time></trkpt><trkpt lat="40.50533493723724" lon="9.33980041317339"><ele>731.6666666666667</ele><time>2026-05-01T14:14:40Z</time></trkpt><trkpt lat="40.5054293803655" lon="9.339548936881616"><ele>733.3333333333334</ele><time>2026-05-01T14:14:41Z</time></trkpt><trkpt lat="40.505515262614374" lon="9.339312464724129"><ele>735.0</ele><time>2026-05-01T14:14:42Z</time></trkpt><trkpt lat="40.50559589633425" lon="9.339089582326677"><ele>735.0</ele><time>2026-05-01T14:14:43Z</time></trkpt><trkpt lat="40.50567288204718" lon="9.338879598454875"><ele>735.0</ele><time>2026-05-01T14:14:44Z</time></trkpt><trkpt lat="40.50573951398534" lon="9.33870602158856"><ele>735.0</ele><time>2026-05-01T14:14:45Z</time></trkpt><trkpt lat="40.505800320836585" lon="9.338569331385072"><ele>735.0</ele><time>2026-05-01T14:14:46Z</time></trkpt><trkpt lat="40.505880829778704" lon="9.338464774778739"><ele>735.0</ele><time>2026-05-01T14:14:47Z</time></trkpt><trkpt lat="40.50598900138255" lon="9.338395617846633"><ele>735.0</ele><time>2026-05-01T14:14:48Z</time></trkpt><trkpt lat="40.506101249438025" lon="9.338316526195525"><ele>735.0</ele><time>2026-05-01T14:14:49Z</time></trkpt><trkpt lat="40.506175670746785" lon="9.338212764780808"><ele>735.0</ele><time>2026-05-01T14:14:50Z</time></trkpt><trkpt lat="40.50620736574469" lon="9.338066743904179"><ele>734.75</ele><time>2026-05-01T14:14:51Z</time></trkpt><trkpt lat="40.50621634096628" lon="9.337885532950645"><ele>734.5</ele><time>2026-05-01T14:14:52Z</time></trkpt><trkpt lat="40.50624130992892" lon="9.337708443199238"><ele>734.25</ele><time>2026-05-01T14:14:53Z</time></trkpt><trkpt lat="40.50632494275917" lon="9.337573571422535"><ele>734.0</ele><time>2026-05-01T14:14:54Z</time></trkpt><trkpt lat="40.50642389998723" lon="9.337450483581627"><ele>734.0</ele><time>2026-05-01T14:14:55Z</time></trkpt><trkpt lat="40.506626857763386" lon="9.337335716099005"><ele>734.0</ele><time>2026-05-01T14:14:56Z</time></trkpt><trkpt lat="40.50679441280218" lon="9.33720053406225"><ele>734.0</ele><time>2026-05-01T14:14:57Z</time></trkpt><trkpt lat="40.50696085828156" lon="9.337046844988526"><ele>734.6666666666666</ele><time>2026-05-01T14:14:58Z</time></trkpt><trkpt lat="40.50712899134548" lon="9.336892530896213"><ele>735.3333333333334</ele><time>2026-05-01T14:14:59Z</time></trkpt><trkpt lat="40.50729047059476" lon="9.336714749261159"><ele>736.0</ele><time>2026-05-01T14:15:00Z</time></trkpt><trkpt lat="40.50743875145893" lon="9.336508312506353"><ele>736.0</ele><time>2026-05-01T14:15:01Z</time></trkpt><trkpt lat="40.50758069033277" lon="9.336284632501245"><ele>736.0</ele><time>2026-05-01T14:15:02Z</time></trkpt><trkpt lat="40.50772319051351" lon="9.336037130412196"><ele>736.0</ele><time>2026-05-01T14:15:03Z</time></trkpt><trkpt lat="40.5078764025362" lon="9.335795424132261"><ele>736.0</ele><time>2026-05-01T14:15:04Z</time></trkpt><trkpt lat="40.508022666380235" lon="9.335565566987343"><ele>734.3333333333334</ele><time>2026-05-01T14:15:05Z</time></trkpt><trkpt lat="40.50815294006178" lon="9.335350044170006"><ele>732.6666666666666</ele><time>2026-05-01T14:15:06Z</time></trkpt><trkpt lat="40.5082816859136" lon="9.335149659070872"><ele>731.0</ele><time>2026-05-01T14:15:07Z</time></trkpt><trkpt lat="40.50839705523744" lon="9.334966154028384"><ele>731.0</ele><time>2026-05-01T14:15:08Z</time></trkpt><trkpt lat="40.50851423001513" lon="9.334829591838918"><ele>731.0</ele><time>2026-05-01T14:15:09Z</time></trkpt><trkpt lat="40.50866052192319" lon="9.334759092638802"><ele>731.0</ele><time>2026-05-01T14:15:10Z</time></trkpt><trkpt lat="40.50883301907076" lon="9.334759534273136"><ele>729.6666666666666</ele><time>2026-05-01T14:15:11Z</time></trkpt><trkpt lat="40.50902791777855" lon="9.334807179718467"><ele>728.3333333333334</ele><time>2026-05-01T14:15:12Z</time></trkpt><trkpt lat="40.509247171865546" lon="9.334886488950213"><ele>727.0</ele><time>2026-05-01T14:15:13Z</time></trkpt><trkpt lat="40.50947737600502" lon="9.334973031443997"><ele>726.0</ele><time>2026-05-01T14:15:14Z</time></trkpt><trkpt lat="40.50972922064079" lon="9.335051928415561"><ele>725.0</ele><time>2026-05-01T14:15:15Z</time></trkpt><trkpt lat="40.50999071593172" lon="9.33512132211161"><ele>725.0</ele><time>2026-05-01T14:15:16Z</time></trkpt><trkpt lat="40.510261182947424" lon="9.335190006279156"><ele>725.0</ele><time>2026-05-01T14:15:17Z</time></trkpt><trkpt lat="40.51053596564102" lon="9.33528605548857"><ele>726.0</ele><time>2026-05-01T14:15:18Z</time></trkpt><trkpt lat="40.51080545736992" lon="9.33537187666152"><ele>727.0</ele><time>2026-05-01T14:15:19Z</time></trkpt><trkpt lat="40.511067131538" lon="9.335441881550567"><ele>727.5</ele><time>2026-05-01T14:15:20Z</time></trkpt><trkpt lat="40.51132453028427" lon="9.33551697788271"><ele>728.0</ele><time>2026-05-01T14:15:21Z</time></trkpt><trkpt lat="40.511573303110886" lon="9.335593740846758"><ele>727.0</ele><time>2026-05-01T14:15:22Z</time></trkpt><trkpt lat="40.51181309587227" lon="9.335665412039035"><ele>726.0</ele><time>2026-05-01T14:15:23Z</time></trkpt><trkpt lat="40.51204940724158" lon="9.335737569042776"><ele>729.0</ele><time>2026-05-01T14:15:24Z</time></trkpt><trkpt lat="40.51227817364097" lon="9.335810012722837"><ele>732.0</ele><time>2026-05-01T14:15:25Z</time></trkpt><trkpt lat="40.51249957508215" lon="9.33588967686431"><ele>732.0</ele><time>2026-05-01T14:15:26Z</time></trkpt><trkpt lat="40.51270905991853" lon="9.336002194304823"><ele>732.0</ele><time>2026-05-01T14:15:27Z</time></trkpt><trkpt lat="40.5129026571064" lon="9.336163233769279"><ele>734.5</ele><time>2026-05-01T14:15:28Z</time></trkpt><trkpt lat="40.51308124112706" lon="9.336361409465855"><ele>737.0</ele><time>2026-05-01T14:15:29Z</time></trkpt><trkpt lat="40.51326078216701" lon="9.336583357843288"><ele>737.5</ele><time>2026-05-01T14:15:30Z</time></trkpt><trkpt lat="40.513443413742195" lon="9.336806498716514"><ele>738.0</ele><time>2026-05-01T14:15:31Z</time></trkpt><trkpt lat="40.51362928302494" lon="9.33702326935395"><ele>738.6666666666666</ele><time>2026-05-01T14:15:32Z</time></trkpt><trkpt lat="40.51379355125504" lon="9.3372130533343"><ele>739.3333333333333</ele><time>2026-05-01T14:15:33Z</time></trkpt><trkpt lat="40.513949533398595" lon="9.337393520432208"><ele>740.0</ele><time>2026-05-01T14:15:34Z</time></trkpt><trkpt lat="40.514117544555276" lon="9.337581437292226"><ele>740.0</ele><time>2026-05-01T14:15:35Z</time></trkpt><trkpt lat="40.51427076055319" lon="9.33777641523729"><ele>740.0</ele><time>2026-05-01T14:15:36Z</time></trkpt><trkpt lat="40.514405685953356" lon="9.337992229838473"><ele>740.0</ele><time>2026-05-01T14:15:37Z</time></trkpt><trkpt lat="40.51452889573138" lon="9.3382418266493"><ele>741.5</ele><time>2026-05-01T14:15:38Z</time></trkpt><trkpt lat="40.51466232430804" lon="9.338489701454364"><ele>743.0</ele><time>2026-05-01T14:15:39Z</time></trkpt><trkpt lat="40.51481420095597" lon="9.33873625065063"><ele>743.5</ele><time>2026-05-01T14:15:40Z</time></trkpt><trkpt lat="40.51497062323327" lon="9.33898247236621"><ele>744.0</ele><time>2026-05-01T14:15:41Z</time></trkpt><trkpt lat="40.515132985066" lon="9.33924289680521"><ele>744.0</ele><time>2026-05-01T14:15:42Z</time></trkpt><trkpt lat="40.515296985035654" lon="9.33950056489541"><ele>744.0</ele><time>2026-05-01T14:15:43Z</time></trkpt><trkpt lat="40.51547068728627" lon="9.339780304458376"><ele>744.5</ele><time>2026-05-01T14:15:44Z</time></trkpt><trkpt lat="40.51565010192895" lon="9.340064150860533"><ele>745.0</ele><time>2026-05-01T14:15:45Z</time></trkpt><trkpt lat="40.51581637263507" lon="9.34032498449054"><ele>748.0</ele><time>2026-05-01T14:15:46Z</time></trkpt><trkpt lat="40.51596677020615" lon="9.340562636972011"><ele>751.0</ele><time>2026-05-01T14:15:47Z</time></trkpt><trkpt lat="40.51610827659132" lon="9.340785304990511"><ele>749.0</ele><time>2026-05-01T14:15:48Z</time></trkpt><trkpt lat="40.516242436665344" lon="9.340996849198683"><ele>747.0</ele><time>2026-05-01T14:15:49Z</time></trkpt><trkpt lat="40.516364496187876" lon="9.341208770038403"><ele>745.0</ele><time>2026-05-01T14:15:50Z</time></trkpt><trkpt lat="40.516484244229744" lon="9.341428786748807"><ele>745.0</ele><time>2026-05-01T14:15:51Z</time></trkpt><trkpt lat="40.51655284389651" lon="9.341691338456263"><ele>745.0</ele><time>2026-05-01T14:15:52Z</time></trkpt><trkpt lat="40.51657760216099" lon="9.341996621347862"><ele>745.0</ele><time>2026-05-01T14:15:53Z</time></trkpt><trkpt lat="40.51660613132233" lon="9.34224713489775"><ele>745.3333333333334</ele><time>2026-05-01T14:15:54Z</time></trkpt><trkpt lat="40.51664558532321" lon="9.34247194309812"><ele>745.6666666666666</ele><time>2026-05-01T14:15:55Z</time></trkpt><trkpt lat="40.516736860378494" lon="9.342639780832563"><ele>746.0</ele><time>2026-05-01T14:15:56Z</time></trkpt><trkpt lat="40.51687234250088" lon="9.34276398375388"><ele>746.0</ele><time>2026-05-01T14:15:57Z</time></trkpt><trkpt lat="40.51704646017136" lon="9.342885845927047"><ele>746.0</ele><time>2026-05-01T14:15:58Z</time></trkpt><trkpt lat="40.51723499532735" lon="9.34300787161062"><ele>746.0</ele><time>2026-05-01T14:15:59Z</time></trkpt><trkpt lat="40.51740335864029" lon="9.343103035514224"><ele>746.0</ele><time>2026-05-01T14:16:00Z</time></trkpt><trkpt lat="40.51757913523665" lon="9.343132615442538"><ele>746.0</ele><time>2026-05-01T14:16:01Z</time></trkpt><trkpt lat="40.517762829788616" lon="9.343092393728952"><ele>746.0</ele><time>2026-05-01T14:16:02Z</time></trkpt><trkpt lat="40.51794853374596" lon="9.342998768242756"><ele>746.0</ele><time>2026-05-01T14:16:03Z</time></trkpt><trkpt lat="40.51813622454161" lon="9.342899328030295"><ele>746.0</ele><time>2026-05-01T14:16:04Z</time></trkpt><trkpt lat="40.51830388115139" lon="9.342821474243829"><ele>746.0</ele><time>2026-05-01T14:16:05Z</time></trkpt><trkpt lat="40.51846933809551" lon="9.342848467088762"><ele>746.0</ele><time>2026-05-01T14:16:06Z</time></trkpt><trkpt lat="40.51864624806182" lon="9.342916424559922"><ele>746.0</ele><time>2026-05-01T14:16:07Z</time></trkpt><trkpt lat="40.51885552086805" lon="9.343100653265626"><ele>746.0</ele><time>2026-05-01T14:16:08Z</time></trkpt><trkpt lat="40.51906257406325" lon="9.34327229283539"><ele>747.5</ele><time>2026-05-01T14:16:09Z</time></trkpt><trkpt lat="40.519290816914086" lon="9.343443131371691"><ele>749.0</ele><time>2026-05-01T14:16:10Z</time></trkpt><trkpt lat="40.519532334705424" lon="9.343620893893098"><ele>748.5</ele><time>2026-05-01T14:16:11Z</time></trkpt><trkpt lat="40.51977105346535" lon="9.343796576779951"><ele>748.0</ele><time>2026-05-01T14:16:12Z</time></trkpt><trkpt lat="40.52000122138863" lon="9.343963252371626"><ele>749.0</ele><time>2026-05-01T14:16:13Z</time></trkpt><trkpt lat="40.520210400732395" lon="9.344114046872043"><ele>750.0</ele><time>2026-05-01T14:16:14Z</time></trkpt><trkpt lat="40.52040369612079" lon="9.344254922875264"><ele>750.0</ele><time>2026-05-01T14:16:15Z</time></trkpt><trkpt lat="40.52057481321603" lon="9.34437384152456"><ele>750.0</ele><time>2026-05-01T14:16:16Z</time></trkpt><trkpt lat="40.520730248248846" lon="9.34446222016779"><ele>750.0</ele><time>2026-05-01T14:16:17Z</time></trkpt><trkpt lat="40.52089456021059" lon="9.344490658731237"><ele>750.0</ele><time>2026-05-01T14:16:18Z</time></trkpt><trkpt lat="40.52106507866357" lon="9.344476018540158"><ele>750.0</ele><time>2026-05-01T14:16:19Z</time></trkpt><trkpt lat="40.521271838987275" lon="9.344367408978737"><ele>750.0</ele><time>2026-05-01T14:16:20Z</time></trkpt><trkpt lat="40.521485808968066" lon="9.34425776228089"><ele>752.0</ele><time>2026-05-01T14:16:21Z</time></trkpt><trkpt lat="40.521705697688716" lon="9.344159715339066"><ele>754.0</ele><time>2026-05-01T14:16:22Z</time></trkpt><trkpt lat="40.52192645915178" lon="9.344069266645635"><ele>757.0</ele><time>2026-05-01T14:16:23Z</time></trkpt><trkpt lat="40.522148682682435" lon="9.343977813580047"><ele>760.0</ele><time>2026-05-01T14:16:24Z</time></trkpt><trkpt lat="40.522372164575714" lon="9.343893115856197"><ele>756.0</ele><time>2026-05-01T14:16:25Z</time></trkpt><trkpt lat="40.52259479339108" lon="9.343817011792378"><ele>752.0</ele><time>2026-05-01T14:16:26Z</time></trkpt><trkpt lat="40.52281230814721" lon="9.34376068321751"><ele>754.0</ele><time>2026-05-01T14:16:27Z</time></trkpt><trkpt lat="40.52303749603849" lon="9.343774287652295"><ele>756.0</ele><time>2026-05-01T14:16:28Z</time></trkpt><trkpt lat="40.52325468172659" lon="9.343822393928322"><ele>758.0</ele><time>2026-05-01T14:16:29Z</time></trkpt><trkpt lat="40.52347343262123" lon="9.343912444785566"><ele>759.0</ele><time>2026-05-01T14:16:30Z</time></trkpt><trkpt lat="40.523662158324846" lon="9.34406259231672"><ele>760.0</ele><time>2026-05-01T14:16:31Z</time></trkpt><trkpt lat="40.52382292381185" lon="9.344305593009656"><ele>761.0</ele><time>2026-05-01T14:16:32Z</time></trkpt><trkpt lat="40.523971637952265" lon="9.344538633469094"><ele>762.0</ele><time>2026-05-01T14:16:33Z</time></trkpt><trkpt lat="40.524117713039416" lon="9.344777171685411"><ele>759.5</ele><time>2026-05-01T14:16:34Z</time></trkpt><trkpt lat="40.52429519417792" lon="9.344988604865728"><ele>757.0</ele><time>2026-05-01T14:16:35Z</time></trkpt><trkpt lat="40.52450668710758" lon="9.345162765501316"><ele>760.0</ele><time>2026-05-01T14:16:36Z</time></trkpt><trkpt lat="40.5247227725576" lon="9.345324471762257"><ele>763.0</ele><time>2026-05-01T14:16:37Z</time></trkpt><trkpt lat="40.524927398857095" lon="9.345475654195601"><ele>763.3333333333334</ele><time>2026-05-01T14:16:38Z</time></trkpt><trkpt lat="40.525113944516704" lon="9.345621298610979"><ele>763.6666666666666</ele><time>2026-05-01T14:16:39Z</time></trkpt><trkpt lat="40.525300622689585" lon="9.345760169674001"><ele>764.0</ele><time>2026-05-01T14:16:40Z</time></trkpt><trkpt lat="40.52549752700973" lon="9.345870436676185"><ele>764.0</ele><time>2026-05-01T14:16:41Z</time></trkpt><trkpt lat="40.52570449272578" lon="9.345938156626305"><ele>764.0</ele><time>2026-05-01T14:16:42Z</time></trkpt><trkpt lat="40.525921838474204" lon="9.345983023339077"><ele>764.0</ele><time>2026-05-01T14:16:43Z</time></trkpt><trkpt lat="40.52614166201587" lon="9.346016680773234"><ele>765.6666666666666</ele><time>2026-05-01T14:16:44Z</time></trkpt><trkpt lat="40.526348459007664" lon="9.346030303094214"><ele>767.3333333333333</ele><time>2026-05-01T14:16:45Z</time></trkpt><trkpt lat="40.52654407623304" lon="9.34600664108553"><ele>769.0</ele><time>2026-05-01T14:16:46Z</time></trkpt><trkpt lat="40.52675172882131" lon="9.345930750957482"><ele>769.0</ele><time>2026-05-01T14:16:47Z</time></trkpt><trkpt lat="40.52696357484891" lon="9.345804131666767"><ele>769.0</ele><time>2026-05-01T14:16:48Z</time></trkpt><trkpt lat="40.52718317022757" lon="9.34568391059011"><ele>770.5</ele><time>2026-05-01T14:16:49Z</time></trkpt><trkpt lat="40.52741062429713" lon="9.34556522840907"><ele>772.0</ele><time>2026-05-01T14:16:50Z</time></trkpt><trkpt lat="40.52764174083411" lon="9.345448101422678"><ele>773.5</ele><time>2026-05-01T14:16:51Z</time></trkpt><trkpt lat="40.52787802952854" lon="9.345331764332926"><ele>775.0</ele><time>2026-05-01T14:16:52Z</time></trkpt><trkpt lat="40.52811512682146" lon="9.345215559423066"><ele>776.5</ele><time>2026-05-01T14:16:53Z</time></trkpt><trkpt lat="40.528352310188204" lon="9.345106845072692"><ele>778.0</ele><time>2026-05-01T14:16:54Z</time></trkpt><trkpt lat="40.528581921429236" lon="9.344991468006969"><ele>778.5</ele><time>2026-05-01T14:16:55Z</time></trkpt><trkpt lat="40.52880879284422" lon="9.344875200633322"><ele>779.0</ele><time>2026-05-01T14:16:56Z</time></trkpt><trkpt lat="40.52903475646743" lon="9.344761316994106"><ele>781.0</ele><time>2026-05-01T14:16:57Z</time></trkpt><trkpt lat="40.52926124956719" lon="9.344648283646043"><ele>783.0</ele><time>2026-05-01T14:16:58Z</time></trkpt><trkpt lat="40.52948609186797" lon="9.344539277049106"><ele>782.3333333333333</ele><time>2026-05-01T14:16:59Z</time></trkpt><trkpt lat="40.529699214889" lon="9.344433088728813"><ele>781.6666666666666</ele><time>2026-05-01T14:17:00Z</time></trkpt><trkpt lat="40.529904263454746" lon="9.344336649982818"><ele>781.0</ele><time>2026-05-01T14:17:01Z</time></trkpt><trkpt lat="40.53009987947762" lon="9.344278161278789"><ele>781.0</ele><time>2026-05-01T14:17:02Z</time></trkpt><trkpt lat="40.53030015382948" lon="9.344289009249515"><ele>781.0</ele><time>2026-05-01T14:17:03Z</time></trkpt><trkpt lat="40.53050504896625" lon="9.344367168380288"><ele>781.0</ele><time>2026-05-01T14:17:04Z</time></trkpt><trkpt lat="40.53069472874533" lon="9.344499205164757"><ele>782.0</ele><time>2026-05-01T14:17:05Z</time></trkpt><trkpt lat="40.53086934790319" lon="9.344640088939135"><ele>783.0</ele><time>2026-05-01T14:17:06Z</time></trkpt><trkpt lat="40.53104793973307" lon="9.344708005156926"><ele>784.0</ele><time>2026-05-01T14:17:07Z</time></trkpt><trkpt lat="40.531219658691676" lon="9.344700097519198"><ele>786.3333333333333</ele><time>2026-05-01T14:17:08Z</time></trkpt><trkpt lat="40.53141617384006" lon="9.344605390289084"><ele>788.6666666666667</ele><time>2026-05-01T14:17:09Z</time></trkpt><trkpt lat="40.53161364468597" lon="9.344504650857392"><ele>791.0</ele><time>2026-05-01T14:17:10Z</time></trkpt><trkpt lat="40.53179721773242" lon="9.344508135075259"><ele>791.0</ele><time>2026-05-01T14:17:11Z</time></trkpt><trkpt lat="40.53197180153952" lon="9.344591055065381"><ele>791.0</ele><time>2026-05-01T14:17:12Z</time></trkpt><trkpt lat="40.53213878617006" lon="9.344697584744509"><ele>791.0</ele><time>2026-05-01T14:17:13Z</time></trkpt><trkpt lat="40.53231936226542" lon="9.344729724909644"><ele>791.6666666666667</ele><time>2026-05-01T14:17:14Z</time></trkpt><trkpt lat="40.53251577527393" lon="9.344714945120186"><ele>792.3333333333333</ele><time>2026-05-01T14:17:15Z</time></trkpt><trkpt lat="40.532709827534255" lon="9.344685721021364"><ele>793.0</ele><time>2026-05-01T14:17:16Z</time></trkpt><trkpt lat="40.5328515423258" lon="9.344786271712534"><ele>795.0</ele><time>2026-05-01T14:17:17Z</time></trkpt><trkpt lat="40.53299806947504" lon="9.344956881745617"><ele>797.0</ele><time>2026-05-01T14:17:18Z</time></trkpt><trkpt lat="40.53314638880089" lon="9.34511098242651"><ele>799.0</ele><time>2026-05-01T14:17:19Z</time></trkpt><trkpt lat="40.53327598125167" lon="9.345199765756682"><ele>799.0</ele><time>2026-05-01T14:17:20Z</time></trkpt><trkpt lat="40.533415686806904" lon="9.34519412238796"><ele>799.0</ele><time>2026-05-01T14:17:21Z</time></trkpt><trkpt lat="40.533569471550365" lon="9.345116618531076"><ele>799.0</ele><time>2026-05-01T14:17:22Z</time></trkpt><trkpt lat="40.53375795324666" lon="9.345007170592512"><ele>799.6666666666666</ele><time>2026-05-01T14:17:23Z</time></trkpt><trkpt lat="40.53395370588132" lon="9.344907954220139"><ele>800.3333333333333</ele><time>2026-05-01T14:17:24Z</time></trkpt><trkpt lat="40.534164481424966" lon="9.34481064355902"><ele>801.0</ele><time>2026-05-01T14:17:25Z</time></trkpt><trkpt lat="40.53437588030317" lon="9.34471539008573"><ele>804.0</ele><time>2026-05-01T14:17:26Z</time></trkpt><trkpt lat="40.53459522799513" lon="9.344616505252286"><ele>807.0</ele><time>2026-05-01T14:17:27Z</time></trkpt><trkpt lat="40.53481407187404" lon="9.34451495832716"><ele>807.0</ele><time>2026-05-01T14:17:28Z</time></trkpt><trkpt lat="40.53502730735259" lon="9.344395551012914"><ele>807.0</ele><time>2026-05-01T14:17:29Z</time></trkpt><trkpt lat="40.535231747591816" lon="9.344252612499588"><ele>806.5</ele><time>2026-05-01T14:17:30Z</time></trkpt><trkpt lat="40.535437213201405" lon="9.344100569282231"><ele>806.0</ele><time>2026-05-01T14:17:31Z</time></trkpt><trkpt lat="40.53564530824188" lon="9.343951971247417"><ele>808.5</ele><time>2026-05-01T14:17:32Z</time></trkpt><trkpt lat="40.53585352754659" lon="9.34380780009627"><ele>811.0</ele><time>2026-05-01T14:17:33Z</time></trkpt><trkpt lat="40.536052379989336" lon="9.343668316297542"><ele>809.6666666666666</ele><time>2026-05-01T14:17:34Z</time></trkpt><trkpt lat="40.5362330791557" lon="9.34354500111731"><ele>808.3333333333333</ele><time>2026-05-01T14:17:35Z</time></trkpt><trkpt lat="40.53639803122484" lon="9.343411633133705"><ele>807.0</ele><time>2026-05-01T14:17:36Z</time></trkpt><trkpt lat="40.53654032516413" lon="9.343235096048277"><ele>808.3333333333333</ele><time>2026-05-01T14:17:37Z</time></trkpt><trkpt lat="40.5366707895607" lon="9.343019658063117"><ele>809.6666666666666</ele><time>2026-05-01T14:17:38Z</time></trkpt><trkpt lat="40.53680119885433" lon="9.342797890652967"><ele>811.0</ele><time>2026-05-01T14:17:39Z</time></trkpt><trkpt lat="40.536953018502814" lon="9.342554429474399"><ele>812.0</ele><time>2026-05-01T14:17:40Z</time></trkpt><trkpt lat="40.537080024510765" lon="9.342256763374486"><ele>813.0</ele><time>2026-05-01T14:17:41Z</time></trkpt><trkpt lat="40.53723072187372" lon="9.341981937580117"><ele>813.0</ele><time>2026-05-01T14:17:42Z</time></trkpt><trkpt lat="40.5373905113002" lon="9.341700249991241"><ele>813.0</ele><time>2026-05-01T14:17:43Z</time></trkpt><trkpt lat="40.53755084185304" lon="9.341409447079695"><ele>814.5</ele><time>2026-05-01T14:17:44Z</time></trkpt><trkpt lat="40.53769844258222" lon="9.341137881562123"><ele>816.0</ele><time>2026-05-01T14:17:45Z</time></trkpt><trkpt lat="40.53783117668141" lon="9.34089172815802"><ele>815.6666666666667</ele><time>2026-05-01T14:17:46Z</time></trkpt><trkpt lat="40.537959049356346" lon="9.34066432878591"><ele>815.3333333333334</ele><time>2026-05-01T14:17:47Z</time></trkpt><trkpt lat="40.53808716176134" lon="9.340431200207485"><ele>815.0</ele><time>2026-05-01T14:17:48Z</time></trkpt><trkpt lat="40.53822015301446" lon="9.340190663780005"><ele>817.5</ele><time>2026-05-01T14:17:49Z</time></trkpt><trkpt lat="40.53835891195186" lon="9.339943021483291"><ele>820.0</ele><time>2026-05-01T14:17:50Z</time></trkpt><trkpt lat="40.53849722541821" lon="9.3396887743153"><ele>822.0</ele><time>2026-05-01T14:17:51Z</time></trkpt><trkpt lat="40.53862416069729" lon="9.339433237523522"><ele>824.0</ele><time>2026-05-01T14:17:52Z</time></trkpt><trkpt lat="40.538765802776894" lon="9.339214847469766"><ele>824.0</ele><time>2026-05-01T14:17:53Z</time></trkpt><trkpt lat="40.53886578980827" lon="9.338998811522153"><ele>824.0</ele><time>2026-05-01T14:17:54Z</time></trkpt><trkpt lat="40.53899588686148" lon="9.338840133308587"><ele>824.0</ele><time>2026-05-01T14:17:55Z</time></trkpt><trkpt lat="40.53912693946116" lon="9.338688836261728"><ele>824.3333333333334</ele><time>2026-05-01T14:17:56Z</time></trkpt><trkpt lat="40.539314695061314" lon="9.338660795158665"><ele>824.6666666666667</ele><time>2026-05-01T14:17:57Z</time></trkpt><trkpt lat="40.539502652977944" lon="9.338661623867369"><ele>825.0</ele><time>2026-05-01T14:17:58Z</time></trkpt><trkpt lat="40.53973207063876" lon="9.338626741120088"><ele>821.0</ele><time>2026-05-01T14:17:59Z</time></trkpt><trkpt lat="40.53997157727204" lon="9.338658556205965"><ele>817.0</ele><time>2026-05-01T14:18:00Z</time></trkpt><trkpt lat="40.54019219823895" lon="9.338659115316485"><ele>815.0</ele><time>2026-05-01T14:18:01Z</time></trkpt><trkpt lat="40.54038707978361" lon="9.338652553902447"><ele>813.0</ele><time>2026-05-01T14:18:02Z</time></trkpt><trkpt lat="40.54056319836716" lon="9.338750128534812"><ele>811.0</ele><time>2026-05-01T14:18:03Z</time></trkpt><trkpt lat="40.54074897574283" lon="9.338852813787376"><ele>811.6666666666666</ele><time>2026-05-01T14:18:04Z</time></trkpt><trkpt lat="40.54091872561892" lon="9.338936686530458"><ele>812.3333333333333</ele><time>2026-05-01T14:18:05Z</time></trkpt><trkpt lat="40.54111487932692" lon="9.3389515814297"><ele>813.0</ele><time>2026-05-01T14:18:06Z</time></trkpt><trkpt lat="40.54132780056429" lon="9.338939824881543"><ele>813.0</ele><time>2026-05-01T14:18:07Z</time></trkpt><trkpt lat="40.541561693016384" lon="9.33890674113221"><ele>813.0</ele><time>2026-05-01T14:18:08Z</time></trkpt><trkpt lat="40.541798433852435" lon="9.338891110169362"><ele>813.0</ele><time>2026-05-01T14:18:09Z</time></trkpt><trkpt lat="40.542036542691065" lon="9.338887892990279"><ele>813.0</ele><time>2026-05-01T14:18:10Z</time></trkpt><trkpt lat="40.54227900215497" lon="9.33887259199574"><ele>811.0</ele><time>2026-05-01T14:18:11Z</time></trkpt><trkpt lat="40.54252486308471" lon="9.338861704702193"><ele>809.0</ele><time>2026-05-01T14:18:12Z</time></trkpt><trkpt lat="40.542769974988246" lon="9.338848557108202"><ele>808.0</ele><time>2026-05-01T14:18:13Z</time></trkpt><trkpt lat="40.54300076590068" lon="9.338835568006216"><ele>807.0</ele><time>2026-05-01T14:18:14Z</time></trkpt><trkpt lat="40.54320984101265" lon="9.33882385216164"><ele>806.0</ele><time>2026-05-01T14:18:15Z</time></trkpt><trkpt lat="40.54340110176328" lon="9.338802420352478"><ele>806.0</ele><time>2026-05-01T14:18:16Z</time></trkpt><trkpt lat="40.54357907310763" lon="9.33872355534413"><ele>806.0</ele><time>2026-05-01T14:18:17Z</time></trkpt><trkpt lat="40.54375016017487" lon="9.338581797889804"><ele>806.0</ele><time>2026-05-01T14:18:18Z</time></trkpt><trkpt lat="40.543914599119304" lon="9.33842104914726"><ele>807.3333333333334</ele><time>2026-05-01T14:18:19Z</time></trkpt><trkpt lat="40.544060383285476" lon="9.338264697921478"><ele>808.6666666666667</ele><time>2026-05-01T14:18:20Z</time></trkpt><trkpt lat="40.54417602749646" lon="9.338090286851108"><ele>810.0</ele><time>2026-05-01T14:18:21Z</time></trkpt><trkpt lat="40.54423363075644" lon="9.337875751402786"><ele>810.0</ele><time>2026-05-01T14:18:22Z</time></trkpt><trkpt lat="40.5442670918232" lon="9.337637235689874"><ele>810.0</ele><time>2026-05-01T14:18:23Z</time></trkpt><trkpt lat="40.54430921109404" lon="9.337419373303844"><ele>810.0</ele><time>2026-05-01T14:18:24Z</time></trkpt><trkpt lat="40.54439276310864" lon="9.337250742314932"><ele>811.0</ele><time>2026-05-01T14:18:25Z</time></trkpt><trkpt lat="40.544505367280316" lon="9.33713897711997"><ele>812.0</ele><time>2026-05-01T14:18:26Z</time></trkpt><trkpt lat="40.54466036007855" lon="9.33714539835166"><ele>813.0</ele><time>2026-05-01T14:18:27Z</time></trkpt><trkpt lat="40.54481421189075" lon="9.337189479178639"><ele>815.6666666666667</ele><time>2026-05-01T14:18:28Z</time></trkpt><trkpt lat="40.5449910643346" lon="9.337301485153926"><ele>818.3333333333334</ele><time>2026-05-01T14:18:29Z</time></trkpt><trkpt lat="40.54516642100346" lon="9.337456412512742"><ele>821.0</ele><time>2026-05-01T14:18:30Z</time></trkpt><trkpt lat="40.54535415439201" lon="9.337631144858333"><ele>821.5</ele><time>2026-05-01T14:18:31Z</time></trkpt><trkpt lat="40.545525402669206" lon="9.337843176757278"><ele>822.0</ele><time>2026-05-01T14:18:32Z</time></trkpt><trkpt lat="40.54568984578387" lon="9.338055095019618"><ele>824.3333333333333</ele><time>2026-05-01T14:18:33Z</time></trkpt><trkpt lat="40.54584616880177" lon="9.33826114148484"><ele>826.6666666666666</ele><time>2026-05-01T14:18:34Z</time></trkpt><trkpt lat="40.54600057557027" lon="9.338452189253916"><ele>829.0</ele><time>2026-05-01T14:18:35Z</time></trkpt><trkpt lat="40.54614968056435" lon="9.33863655381614"><ele>829.6666666666666</ele><time>2026-05-01T14:18:36Z</time></trkpt><trkpt lat="40.54627545711913" lon="9.338814384626186"><ele>830.3333333333333</ele><time>2026-05-01T14:18:37Z</time></trkpt><trkpt lat="40.54640649001504" lon="9.33897520099385"><ele>831.0</ele><time>2026-05-01T14:18:38Z</time></trkpt><trkpt lat="40.54663304561641" lon="9.338995416151512"><ele>830.6666666666667</ele><time>2026-05-01T14:18:39Z</time></trkpt><trkpt lat="40.5468116664402" lon="9.339074977091132"><ele>830.3333333333334</ele><time>2026-05-01T14:18:40Z</time></trkpt><trkpt lat="40.54699432543106" lon="9.339122137485901"><ele>830.0</ele><time>2026-05-01T14:18:41Z</time></trkpt><trkpt lat="40.547181698765364" lon="9.339119714957123"><ele>830.0</ele><time>2026-05-01T14:18:42Z</time></trkpt><trkpt lat="40.54737040823112" lon="9.339095461518449"><ele>830.0</ele><time>2026-05-01T14:18:43Z</time></trkpt><trkpt lat="40.54756538724184" lon="9.339055946296885"><ele>830.0</ele><time>2026-05-01T14:18:44Z</time></trkpt><trkpt lat="40.54776710940978" lon="9.339020633127806"><ele>828.3333333333334</ele><time>2026-05-01T14:18:45Z</time></trkpt><trkpt lat="40.54798314435327" lon="9.33897962703282"><ele>826.6666666666667</ele><time>2026-05-01T14:18:46Z</time></trkpt><trkpt lat="40.54820925880233" lon="9.338931228052349"><ele>825.0</ele><time>2026-05-01T14:18:47Z</time></trkpt><trkpt lat="40.548437885389355" lon="9.33888501181735"><ele>824.5</ele><time>2026-05-01T14:18:48Z</time></trkpt><trkpt lat="40.548665725876816" lon="9.338844851272219"><ele>824.0</ele><time>2026-05-01T14:18:49Z</time></trkpt><trkpt lat="40.54889543242531" lon="9.338803137574775"><ele>822.3333333333334</ele><time>2026-05-01T14:18:50Z</time></trkpt><trkpt lat="40.54912358987733" lon="9.33875982600849"><ele>820.6666666666667</ele><time>2026-05-01T14:18:51Z</time></trkpt><trkpt lat="40.54933411003238" lon="9.338728692150369"><ele>819.0</ele><time>2026-05-01T14:18:52Z</time></trkpt><trkpt lat="40.54953711256864" lon="9.338696890406656"><ele>818.6666666666667</ele><time>2026-05-01T14:18:53Z</time></trkpt><trkpt lat="40.549729160313895" lon="9.338659859581842"><ele>818.3333333333334</ele><time>2026-05-01T14:18:54Z</time></trkpt><trkpt lat="40.54991996031658" lon="9.33862371697863"><ele>818.0</ele><time>2026-05-01T14:18:55Z</time></trkpt><trkpt lat="40.55009384555748" lon="9.33857194955084"><ele>818.0</ele><time>2026-05-01T14:18:56Z</time></trkpt><trkpt lat="40.55025808803774" lon="9.338486651255971"><ele>818.0</ele><time>2026-05-01T14:18:57Z</time></trkpt><trkpt lat="40.55040605196178" lon="9.338343963624686"><ele>818.0</ele><time>2026-05-01T14:18:58Z</time></trkpt><trkpt lat="40.55056286079133" lon="9.33816510041173"><ele>817.6666666666667</ele><time>2026-05-01T14:18:59Z</time></trkpt><trkpt lat="40.550727747254854" lon="9.337980579651042"><ele>817.3333333333333</ele><time>2026-05-01T14:19:00Z</time></trkpt><trkpt lat="40.55090113044922" lon="9.337794299730593"><ele>817.0</ele><time>2026-05-01T14:19:01Z</time></trkpt><trkpt lat="40.551072017228186" lon="9.337600900512141"><ele>817.0</ele><time>2026-05-01T14:19:02Z</time></trkpt><trkpt lat="40.55124988929995" lon="9.337406861935673"><ele>817.0</ele><time>2026-05-01T14:19:03Z</time></trkpt><trkpt lat="40.551430955591584" lon="9.337218131680997"><ele>817.0</ele><time>2026-05-01T14:19:04Z</time></trkpt><trkpt lat="40.55160510742979" lon="9.337034526441533"><ele>817.0</ele><time>2026-05-01T14:19:05Z</time></trkpt><trkpt lat="40.551769702148064" lon="9.33684747332686"><ele>817.0</ele><time>2026-05-01T14:19:06Z</time></trkpt><trkpt lat="40.551939613563874" lon="9.336672171598511"><ele>817.0</ele><time>2026-05-01T14:19:07Z</time></trkpt><trkpt lat="40.5521147285599" lon="9.336515780254357"><ele>817.0</ele><time>2026-05-01T14:19:08Z</time></trkpt><trkpt lat="40.552302663570295" lon="9.336383023450908"><ele>817.0</ele><time>2026-05-01T14:19:09Z</time></trkpt><trkpt lat="40.55249174296979" lon="9.336269716175932"><ele>817.0</ele><time>2026-05-01T14:19:10Z</time></trkpt><trkpt lat="40.55267129658754" lon="9.336173116672231"><ele>817.0</ele><time>2026-05-01T14:19:11Z</time></trkpt><trkpt lat="40.55283732098046" lon="9.336081072667684"><ele>817.0</ele><time>2026-05-01T14:19:12Z</time></trkpt><trkpt lat="40.552999647325834" lon="9.335986413574084"><ele>818.3333333333333</ele><time>2026-05-01T14:19:13Z</time></trkpt><trkpt lat="40.55315868553604" lon="9.335899666103447"><ele>819.6666666666667</ele><time>2026-05-01T14:19:14Z</time></trkpt><trkpt lat="40.55331225336007" lon="9.335817688362313"><ele>821.0</ele><time>2026-05-01T14:19:15Z</time></trkpt><trkpt lat="40.55345688150002" lon="9.335737933925506"><ele>821.0</ele><time>2026-05-01T14:19:16Z</time></trkpt><trkpt lat="40.55360423105743" lon="9.335663680670681"><ele>821.0</ele><time>2026-05-01T14:19:17Z</time></trkpt><trkpt lat="40.55375509085302" lon="9.335620622290305"><ele>821.0</ele><time>2026-05-01T14:19:18Z</time></trkpt><trkpt lat="40.5539070975135" lon="9.335648091352665"><ele>819.0</ele><time>2026-05-01T14:19:19Z</time></trkpt><trkpt lat="40.55405901950623" lon="9.33574471415425"><ele>817.0</ele><time>2026-05-01T14:19:20Z</time></trkpt><trkpt lat="40.55421808790213" lon="9.33587704521743"><ele>815.0</ele><time>2026-05-01T14:19:21Z</time></trkpt><trkpt lat="40.55436474807226" lon="9.335985893474549"><ele>815.0</ele><time>2026-05-01T14:19:22Z</time></trkpt><trkpt lat="40.5545340001387" lon="9.336073112177948"><ele>815.0</ele><time>2026-05-01T14:19:23Z</time></trkpt><trkpt lat="40.554723603748045" lon="9.336107995714531"><ele>815.0</ele><time>2026-05-01T14:19:24Z</time></trkpt><trkpt lat="40.55491303451568" lon="9.336141666724478"><ele>812.6666666666667</ele><time>2026-05-01T14:19:25Z</time></trkpt><trkpt lat="40.55508453514545" lon="9.336219972208974"><ele>810.3333333333333</ele><time>2026-05-01T14:19:26Z</time></trkpt><trkpt lat="40.55525594848507" lon="9.336367141257902"><ele>808.0</ele><time>2026-05-01T14:19:27Z</time></trkpt><trkpt lat="40.55542288951165" lon="9.336546947816108"><ele>805.6666666666666</ele><time>2026-05-01T14:19:28Z</time></trkpt><trkpt lat="40.55557821411423" lon="9.336718551960386"><ele>803.3333333333333</ele><time>2026-05-01T14:19:29Z</time></trkpt><trkpt lat="40.55572845628013" lon="9.336911845918953"><ele>801.0</ele><time>2026-05-01T14:19:30Z</time></trkpt><trkpt lat="40.55587286271229" lon="9.337134683986005"><ele>802.0</ele><time>2026-05-01T14:19:31Z</time></trkpt><trkpt lat="40.55600800913134" lon="9.337361287093398"><ele>803.0</ele><time>2026-05-01T14:19:32Z</time></trkpt><trkpt lat="40.556142672469655" lon="9.337592926646584"><ele>804.0</ele><time>2026-05-01T14:19:33Z</time></trkpt><trkpt lat="40.55626853554174" lon="9.337830477749156"><ele>800.6666666666667</ele><time>2026-05-01T14:19:34Z</time></trkpt><trkpt lat="40.556372984081165" lon="9.338073705446899"><ele>797.3333333333334</ele><time>2026-05-01T14:19:35Z</time></trkpt><trkpt lat="40.55646993320852" lon="9.33830250954916"><ele>794.0</ele><time>2026-05-01T14:19:36Z</time></trkpt><trkpt lat="40.556559941415244" lon="9.338514543155776"><ele>794.0</ele><time>2026-05-01T14:19:37Z</time></trkpt><trkpt lat="40.5566468788815" lon="9.338711103275093"><ele>794.0</ele><time>2026-05-01T14:19:38Z</time></trkpt><trkpt lat="40.556733215873024" lon="9.338862219050917"><ele>794.0</ele><time>2026-05-01T14:19:39Z</time></trkpt><trkpt lat="40.55683215269661" lon="9.338946889969115"><ele>794.0</ele><time>2026-05-01T14:19:40Z</time></trkpt><trkpt lat="40.556955803075674" lon="9.338969013699979"><ele>791.75</ele><time>2026-05-01T14:19:41Z</time></trkpt><trkpt lat="40.557092192690966" lon="9.338921866909896"><ele>789.5</ele><time>2026-05-01T14:19:42Z</time></trkpt><trkpt lat="40.557214836431854" lon="9.338803974208902"><ele>787.25</ele><time>2026-05-01T14:19:43Z</time></trkpt><trkpt lat="40.55728428558974" lon="9.338632391121939"><ele>785.0</ele><time>2026-05-01T14:19:44Z</time></trkpt><trkpt lat="40.55732192140185" lon="9.338398884916131"><ele>784.3333333333334</ele><time>2026-05-01T14:19:45Z</time></trkpt><trkpt lat="40.55734778277939" lon="9.338132941034784"><ele>783.6666666666667</ele><time>2026-05-01T14:19:46Z</time></trkpt><trkpt lat="40.5573778755495" lon="9.337850384929986"><ele>783.0</ele><time>2026-05-01T14:19:47Z</time></trkpt><trkpt lat="40.55740362973691" lon="9.337585054545375"><ele>783.0</ele><time>2026-05-01T14:19:48Z</time></trkpt><trkpt lat="40.55743244943567" lon="9.337320555125002"><ele>783.0</ele><time>2026-05-01T14:19:49Z</time></trkpt><trkpt lat="40.55745743227529" lon="9.337178201307681"><ele>783.0</ele><time>2026-05-01T14:19:50Z</time></trkpt><trkpt lat="40.557489233478115" lon="9.336987209842182"><ele>783.0</ele><time>2026-05-01T14:19:51Z</time></trkpt><trkpt lat="40.55754778114314" lon="9.336838944877414"><ele>783.0</ele><time>2026-05-01T14:19:52Z</time></trkpt><trkpt lat="40.557627217086164" lon="9.336729057117017"><ele>783.0</ele><time>2026-05-01T14:19:53Z</time></trkpt><trkpt lat="40.557737079729264" lon="9.336672779279459"><ele>783.0</ele><time>2026-05-01T14:19:54Z</time></trkpt><trkpt lat="40.55787160065864" lon="9.336677967000867"><ele>781.0</ele><time>2026-05-01T14:19:55Z</time></trkpt><trkpt lat="40.55803338355045" lon="9.336776619795312"><ele>779.0</ele><time>2026-05-01T14:19:56Z</time></trkpt><trkpt lat="40.55821146930355" lon="9.336857002975288"><ele>777.0</ele><time>2026-05-01T14:19:57Z</time></trkpt><trkpt lat="40.55839755188309" lon="9.336898936374967"><ele>777.0</ele><time>2026-05-01T14:19:58Z</time></trkpt><trkpt lat="40.55855666914692" lon="9.336925916615497"><ele>777.0</ele><time>2026-05-01T14:19:59Z</time></trkpt><trkpt lat="40.5586968981984" lon="9.337013341190524"><ele>777.0</ele><time>2026-05-01T14:20:00Z</time></trkpt><trkpt lat="40.55882415704144" lon="9.337111265273357"><ele>775.5</ele><time>2026-05-01T14:20:01Z</time></trkpt><trkpt lat="40.558932278041695" lon="9.337157653253545"><ele>774.0</ele><time>2026-05-01T14:20:02Z</time></trkpt><trkpt lat="40.559060116887906" lon="9.337114213736687"><ele>772.5</ele><time>2026-05-01T14:20:03Z</time></trkpt><trkpt lat="40.559191736634915" lon="9.336939506356694"><ele>771.0</ele><time>2026-05-01T14:20:04Z</time></trkpt><trkpt lat="40.559323487631765" lon="9.336759395619985"><ele>771.0</ele><time>2026-05-01T14:20:05Z</time></trkpt><trkpt lat="40.55944242086864" lon="9.336616972704984"><ele>771.0</ele><time>2026-05-01T14:20:06Z</time></trkpt><trkpt lat="40.559559713084255" lon="9.336503266805135"><ele>771.0</ele><time>2026-05-01T14:20:07Z</time></trkpt><trkpt lat="40.55967071518334" lon="9.33639180830542"><ele>771.0</ele><time>2026-05-01T14:20:08Z</time></trkpt><trkpt lat="40.55978101658056" lon="9.336303310796348"><ele>769.5</ele><time>2026-05-01T14:20:09Z</time></trkpt><trkpt lat="40.5598987638188" lon="9.336282401219975"><ele>768.0</ele><time>2026-05-01T14:20:10Z</time></trkpt><trkpt lat="40.560011246012984" lon="9.336343343758237"><ele>766.5</ele><time>2026-05-01T14:20:11Z</time></trkpt><trkpt lat="40.56012977216211" lon="9.336382277373508"><ele>765.0</ele><time>2026-05-01T14:20:12Z</time></trkpt><trkpt lat="40.560243275512356" lon="9.336327985740175"><ele>765.0</ele><time>2026-05-01T14:20:13Z</time></trkpt><trkpt lat="40.56031931590416" lon="9.336206393415017"><ele>765.0</ele><time>2026-05-01T14:20:14Z</time></trkpt><trkpt lat="40.56036290662887" lon="9.336026164035498"><ele>765.0</ele><time>2026-05-01T14:20:15Z</time></trkpt><trkpt lat="40.56039746818342" lon="9.3358266296831"><ele>765.0</ele><time>2026-05-01T14:20:16Z</time></trkpt><trkpt lat="40.56042817448433" lon="9.335617384233304"><ele>768.0</ele><time>2026-05-01T14:20:17Z</time></trkpt><trkpt lat="40.56045190987375" lon="9.335405008653707"><ele>771.0</ele><time>2026-05-01T14:20:18Z</time></trkpt><trkpt lat="40.560440815538" lon="9.335224516040334"><ele>774.0</ele><time>2026-05-01T14:20:19Z</time></trkpt><trkpt lat="40.560398746812574" lon="9.335049286368234"><ele>777.0</ele><time>2026-05-01T14:20:20Z</time></trkpt><trkpt lat="40.56037556223203" lon="9.33486007070208"><ele>777.3333333333333</ele><time>2026-05-01T14:20:21Z</time></trkpt><trkpt lat="40.560421867491364" lon="9.33465985610746"><ele>777.6666666666666</ele><time>2026-05-01T14:20:22Z</time></trkpt><trkpt lat="40.56044945156085" lon="9.33445356678127"><ele>778.0</ele><time>2026-05-01T14:20:23Z</time></trkpt><trkpt lat="40.560426806425916" lon="9.334237095333203"><ele>778.0</ele><time>2026-05-01T14:20:24Z</time></trkpt><trkpt lat="40.56040784145267" lon="9.33402689789844"><ele>778.0</ele><time>2026-05-01T14:20:25Z</time></trkpt><trkpt lat="40.560450458845395" lon="9.333840472707735"><ele>778.0</ele><time>2026-05-01T14:20:26Z</time></trkpt><trkpt lat="40.560548646765206" lon="9.333687017447806"><ele>776.3333333333333</ele><time>2026-05-01T14:20:27Z</time></trkpt><trkpt lat="40.560686788752044" lon="9.333548307946051"><ele>774.6666666666667</ele><time>2026-05-01T14:20:28Z</time></trkpt><trkpt lat="40.56082581373471" lon="9.333399409786312"><ele>773.0</ele><time>2026-05-01T14:20:29Z</time></trkpt><trkpt lat="40.560944120580814" lon="9.333276766287252"><ele>773.0</ele><time>2026-05-01T14:20:30Z</time></trkpt><trkpt lat="40.56108903109609" lon="9.333202742849128"><ele>773.0</ele><time>2026-05-01T14:20:31Z</time></trkpt><trkpt lat="40.56125939583157" lon="9.333190129224127"><ele>773.0</ele><time>2026-05-01T14:20:32Z</time></trkpt><trkpt lat="40.561430184643754" lon="9.333211199162163"><ele>772.75</ele><time>2026-05-01T14:20:33Z</time></trkpt><trkpt lat="40.56155923808803" lon="9.33328313350635"><ele>772.5</ele><time>2026-05-01T14:20:34Z</time></trkpt><trkpt lat="40.56165573987357" lon="9.333435502830104"><ele>772.25</ele><time>2026-05-01T14:20:35Z</time></trkpt><trkpt lat="40.56175494610745" lon="9.333568812722808"><ele>772.0</ele><time>2026-05-01T14:20:36Z</time></trkpt><trkpt lat="40.56188029138651" lon="9.33362419247752"><ele>772.0</ele><time>2026-05-01T14:20:37Z</time></trkpt><trkpt lat="40.56202900031775" lon="9.333549108994108"><ele>772.0</ele><time>2026-05-01T14:20:38Z</time></trkpt><trkpt lat="40.56216536379695" lon="9.333441584898932"><ele>772.0</ele><time>2026-05-01T14:20:39Z</time></trkpt><trkpt lat="40.56231816955657" lon="9.333371515323861"><ele>770.3333333333333</ele><time>2026-05-01T14:20:40Z</time></trkpt><trkpt lat="40.56250442283929" lon="9.333380737879091"><ele>768.6666666666666</ele><time>2026-05-01T14:20:41Z</time></trkpt><trkpt lat="40.56268243310922" lon="9.333417392621625"><ele>767.0</ele><time>2026-05-01T14:20:42Z</time></trkpt><trkpt lat="40.562827886405955" lon="9.333496361457069"><ele>767.25</ele><time>2026-05-01T14:20:43Z</time></trkpt><trkpt lat="40.562945874689575" lon="9.333597871956531"><ele>767.5</ele><time>2026-05-01T14:20:44Z</time></trkpt><trkpt lat="40.5630534251234" lon="9.333657678783146"><ele>767.75</ele><time>2026-05-01T14:20:45Z</time></trkpt><trkpt lat="40.5631648192697" lon="9.333624059849189"><ele>768.0</ele><time>2026-05-01T14:20:46Z</time></trkpt><trkpt lat="40.56325096043319" lon="9.333518278970951"><ele>768.0</ele><time>2026-05-01T14:20:47Z</time></trkpt><trkpt lat="40.56328791394611" lon="9.33335736237809"><ele>768.0</ele><time>2026-05-01T14:20:48Z</time></trkpt><trkpt lat="40.56327089679429" lon="9.333167277007602"><ele>768.0</ele><time>2026-05-01T14:20:49Z</time></trkpt><trkpt lat="40.56321256183608" lon="9.33295565712431"><ele>768.0</ele><time>2026-05-01T14:20:50Z</time></trkpt><trkpt lat="40.56316488195988" lon="9.332736454382125"><ele>769.3333333333333</ele><time>2026-05-01T14:20:51Z</time></trkpt><trkpt lat="40.56313157610993" lon="9.332539970774683"><ele>770.6666666666666</ele><time>2026-05-01T14:20:52Z</time></trkpt><trkpt lat="40.56311798761384" lon="9.33234807560154"><ele>772.0</ele><time>2026-05-01T14:20:53Z</time></trkpt><trkpt lat="40.56314741507674" lon="9.33213323258633"><ele>773.6666666666666</ele><time>2026-05-01T14:20:54Z</time></trkpt><trkpt lat="40.56320638899403" lon="9.33191547579952"><ele>775.3333333333333</ele><time>2026-05-01T14:20:55Z</time></trkpt><trkpt lat="40.56326853529964" lon="9.331700815504353"><ele>777.0</ele><time>2026-05-01T14:20:56Z</time></trkpt><trkpt lat="40.56331843862259" lon="9.331479263212165"><ele>778.5</ele><time>2026-05-01T14:20:57Z</time></trkpt><trkpt lat="40.56334941855792" lon="9.331302707031204"><ele>780.0</ele><time>2026-05-01T14:20:58Z</time></trkpt><trkpt lat="40.56333812816922" lon="9.331121341614603"><ele>781.5</ele><time>2026-05-01T14:20:59Z</time></trkpt><trkpt lat="40.563243413737716" lon="9.330968181015502"><ele>783.0</ele><time>2026-05-01T14:21:00Z</time></trkpt><trkpt lat="40.563136004297206" lon="9.330821081063714"><ele>783.0</ele><time>2026-05-01T14:21:01Z</time></trkpt><trkpt lat="40.563022750515245" lon="9.330655779461567"><ele>783.0</ele><time>2026-05-01T14:21:02Z</time></trkpt><trkpt lat="40.562926801329866" lon="9.330442167514773"><ele>783.0</ele><time>2026-05-01T14:21:03Z</time></trkpt><trkpt lat="40.562838632284844" lon="9.330195299896785"><ele>782.3333333333333</ele><time>2026-05-01T14:21:04Z</time></trkpt><trkpt lat="40.56274996009761" lon="9.329944675533648"><ele>781.6666666666666</ele><time>2026-05-01T14:21:05Z</time></trkpt><trkpt lat="40.56265333651969" lon="9.329685433887935"><ele>781.0</ele><time>2026-05-01T14:21:06Z</time></trkpt><trkpt lat="40.56256082601553" lon="9.329413025790881"><ele>783.6666666666666</ele><time>2026-05-01T14:21:07Z</time></trkpt><trkpt lat="40.56246785236005" lon="9.329158581007668"><ele>786.3333333333333</ele><time>2026-05-01T14:21:08Z</time></trkpt><trkpt lat="40.56236754321072" lon="9.328920288029313"><ele>789.0</ele><time>2026-05-01T14:21:09Z</time></trkpt><trkpt lat="40.56224205230317" lon="9.328699189631477"><ele>790.0</ele><time>2026-05-01T14:21:10Z</time></trkpt><trkpt lat="40.5621416841203" lon="9.32854110709718"><ele>791.0</ele><time>2026-05-01T14:21:11Z</time></trkpt><trkpt lat="40.56207524058329" lon="9.328386353588003"><ele>792.0</ele><time>2026-05-01T14:21:12Z</time></trkpt><trkpt lat="40.56204279163076" lon="9.328228752175008"><ele>793.0</ele><time>2026-05-01T14:21:13Z</time></trkpt><trkpt lat="40.562069159690864" lon="9.328070755568303"><ele>792.25</ele><time>2026-05-01T14:21:14Z</time></trkpt><trkpt lat="40.562162154461596" lon="9.327938035549597"><ele>791.5</ele><time>2026-05-01T14:21:15Z</time></trkpt><trkpt lat="40.56229384478782" lon="9.327880139282934"><ele>790.75</ele><time>2026-05-01T14:21:16Z</time></trkpt><trkpt lat="40.56242994504881" lon="9.32788929408698"><ele>790.0</ele><time>2026-05-01T14:21:17Z</time></trkpt><trkpt lat="40.562599583059544" lon="9.327991181041059"><ele>790.6666666666666</ele><time>2026-05-01T14:21:18Z</time></trkpt><trkpt lat="40.56274002473953" lon="9.328069542124421"><ele>791.3333333333333</ele><time>2026-05-01T14:21:19Z</time></trkpt><trkpt lat="40.562922798852526" lon="9.328106357946977"><ele>792.0</ele><time>2026-05-01T14:21:20Z</time></trkpt><trkpt lat="40.563126189005025" lon="9.328079145303168"><ele>792.3333333333333</ele><time>2026-05-01T14:21:21Z</time></trkpt><trkpt lat="40.56334355548419" lon="9.328043196944133"><ele>792.6666666666666</ele><time>2026-05-01T14:21:22Z</time></trkpt><trkpt lat="40.5635490239597" lon="9.328018082262638"><ele>793.0</ele><time>2026-05-01T14:21:23Z</time></trkpt><trkpt lat="40.56372650404663" lon="9.327963875335579"><ele>793.0</ele><time>2026-05-01T14:21:24Z</time></trkpt><trkpt lat="40.56389500130616" lon="9.327927354821302"><ele>793.0</ele><time>2026-05-01T14:21:25Z</time></trkpt><trkpt lat="40.56403197987958" lon="9.327872458387187"><ele>793.0</ele><time>2026-05-01T14:21:26Z</time></trkpt><trkpt lat="40.564162092665335" lon="9.327791076824344"><ele>793.0</ele><time>2026-05-01T14:21:27Z</time></trkpt><trkpt lat="40.564238788237425" lon="9.327655252692432"><ele>793.0</ele><time>2026-05-01T14:21:28Z</time></trkpt><trkpt lat="40.564289693323516" lon="9.32747201899009"><ele>793.0</ele><time>2026-05-01T14:21:29Z</time></trkpt><trkpt lat="40.5643036457111" lon="9.327255680479723"><ele>793.0</ele><time>2026-05-01T14:21:30Z</time></trkpt><trkpt lat="40.56426263376454" lon="9.327084903506089"><ele>793.5</ele><time>2026-05-01T14:21:31Z</time></trkpt><trkpt lat="40.56417092225415" lon="9.326922862766724"><ele>794.0</ele><time>2026-05-01T14:21:32Z</time></trkpt><trkpt lat="40.5641007226121" lon="9.326767513756456"><ele>794.5</ele><time>2026-05-01T14:21:33Z</time></trkpt><trkpt lat="40.564112547722026" lon="9.326580931120093"><ele>795.0</ele><time>2026-05-01T14:21:34Z</time></trkpt><trkpt lat="40.56416357766735" lon="9.326365363795068"><ele>796.3333333333333</ele><time>2026-05-01T14:21:35Z</time></trkpt><trkpt lat="40.56417198435622" lon="9.326131161144824"><ele>797.6666666666666</ele><time>2026-05-01T14:21:36Z</time></trkpt><trkpt lat="40.56409804012796" lon="9.325904167961"><ele>799.0</ele><time>2026-05-01T14:21:37Z</time></trkpt><trkpt lat="40.56401044301433" lon="9.325664908356606"><ele>799.6666666666666</ele><time>2026-05-01T14:21:38Z</time></trkpt><trkpt lat="40.5639366460346" lon="9.325414804221696"><ele>800.3333333333333</ele><time>2026-05-01T14:21:39Z</time></trkpt><trkpt lat="40.56386980430375" lon="9.32515359109532"><ele>801.0</ele><time>2026-05-01T14:21:40Z</time></trkpt><trkpt lat="40.56381660357067" lon="9.324888146085774"><ele>800.6666666666667</ele><time>2026-05-01T14:21:41Z</time></trkpt><trkpt lat="40.56378846786683" lon="9.324618207210765"><ele>800.3333333333334</ele><time>2026-05-01T14:21:42Z</time></trkpt><trkpt lat="40.563778704149826" lon="9.324354538924736"><ele>800.0</ele><time>2026-05-01T14:21:43Z</time></trkpt><trkpt lat="40.563792422786356" lon="9.32409626608015"><ele>799.3333333333334</ele><time>2026-05-01T14:21:44Z</time></trkpt><trkpt lat="40.56382699007369" lon="9.323870496223702"><ele>798.6666666666667</ele><time>2026-05-01T14:21:45Z</time></trkpt><trkpt lat="40.563881369174226" lon="9.32362642789071"><ele>798.0</ele><time>2026-05-01T14:21:46Z</time></trkpt><trkpt lat="40.56394533334237" lon="9.323392270952091"><ele>798.0</ele><time>2026-05-01T14:21:47Z</time></trkpt><trkpt lat="40.56400552857936" lon="9.323172710310915"><ele>798.0</ele><time>2026-05-01T14:21:48Z</time></trkpt><trkpt lat="40.56405495935038" lon="9.32296125429458"><ele>798.0</ele><time>2026-05-01T14:21:49Z</time></trkpt><trkpt lat="40.564107739786586" lon="9.32276801528809"><ele>797.75</ele><time>2026-05-01T14:21:50Z</time></trkpt><trkpt lat="40.56416739408557" lon="9.322576750609601"><ele>797.5</ele><time>2026-05-01T14:21:51Z</time></trkpt><trkpt lat="40.56424054614954" lon="9.322449038840336"><ele>797.25</ele><time>2026-05-01T14:21:52Z</time></trkpt><trkpt lat="40.56435856284532" lon="9.32235738658367"><ele>797.0</ele><time>2026-05-01T14:21:53Z</time></trkpt><trkpt lat="40.564522069021905" lon="9.322304924275077"><ele>796.6666666666667</ele><time>2026-05-01T14:21:54Z</time></trkpt><trkpt lat="40.564719339902595" lon="9.322309488905143"><ele>796.3333333333333</ele><time>2026-05-01T14:21:55Z</time></trkpt><trkpt lat="40.564880623170474" lon="9.32230434730236"><ele>796.0</ele><time>2026-05-01T14:21:56Z</time></trkpt><trkpt lat="40.56502163441102" lon="9.322253346096137"><ele>794.5</ele><time>2026-05-01T14:21:57Z</time></trkpt><trkpt lat="40.56513573183264" lon="9.322168036191634"><ele>793.0</ele><time>2026-05-01T14:21:58Z</time></trkpt><trkpt lat="40.56521744379109" lon="9.322022041041759"><ele>791.5</ele><time>2026-05-01T14:21:59Z</time></trkpt><trkpt lat="40.565253264645044" lon="9.321812922837603"><ele>790.0</ele><time>2026-05-01T14:22:00Z</time></trkpt><trkpt lat="40.565249219410006" lon="9.321559034759359"><ele>789.6666666666666</ele><time>2026-05-01T14:22:01Z</time></trkpt><trkpt lat="40.565296027569076" lon="9.321290857273873"><ele>789.3333333333333</ele><time>2026-05-01T14:22:02Z</time></trkpt><trkpt lat="40.56538474032119" lon="9.321049464283083"><ele>789.0</ele><time>2026-05-01T14:22:03Z</time></trkpt><trkpt lat="40.565471624390696" lon="9.320846336974626"><ele>789.0</ele><time>2026-05-01T14:22:04Z</time></trkpt><trkpt lat="40.56553497419951" lon="9.320686843197729"><ele>789.0</ele><time>2026-05-01T14:22:05Z</time></trkpt><trkpt lat="40.565575973542025" lon="9.320563077628314"><ele>789.0</ele><time>2026-05-01T14:22:06Z</time></trkpt><trkpt lat="40.56561713085885" lon="9.32046324265903"><ele>789.0</ele><time>2026-05-01T14:22:07Z</time></trkpt><trkpt lat="40.56565165550713" lon="9.320382167406713"><ele>789.0</ele><time>2026-05-01T14:22:08Z</time></trkpt><trkpt lat="40.56569044859163" lon="9.320263066578136"><ele>788.8571428571428</ele><time>2026-05-01T14:22:10Z</time></trkpt><trkpt lat="40.565663584188016" lon="9.320183275748633"><ele>788.7142857142857</ele><time>2026-05-01T14:22:12Z</time></trkpt><trkpt lat="40.56562474216385" lon="9.320116044140306"><ele>788.5714285714286</ele><time>2026-05-01T14:22:15Z</time></trkpt><trkpt lat="40.56571468532125" lon="9.320111228405777"><ele>788.4285714285713</ele><time>2026-05-01T14:31:41Z</time></trkpt><trkpt lat="40.56578503957158" lon="9.320069279224555"><ele>788.2857142857143</ele><time>2026-05-01T14:31:43Z</time></trkpt><trkpt lat="40.565821672469276" lon="9.319982844588765"><ele>788.1428571428571</ele><time>2026-05-01T14:31:44Z</time></trkpt><trkpt lat="40.56584837476795" lon="9.31989484352039"><ele>788.0</ele><time>2026-05-01T14:31:45Z</time></trkpt><trkpt lat="40.56590223304577" lon="9.319834152994012"><ele>788.5999999999999</ele><time>2026-05-01T14:31:46Z</time></trkpt><trkpt lat="40.56594106272821" lon="9.319714531348739"><ele>789.1999999999999</ele><time>2026-05-01T14:31:47Z</time></trkpt><trkpt lat="40.56597831476215" lon="9.319602484191956"><ele>789.8</ele><time>2026-05-01T14:31:48Z</time></trkpt><trkpt lat="40.56601854050355" lon="9.319495476485715"><ele>790.4</ele><time>2026-05-01T14:31:49Z</time></trkpt><trkpt lat="40.566056492513475" lon="9.3193890609379"><ele>791.0</ele><time>2026-05-01T14:31:50Z</time></trkpt><trkpt lat="40.566096302615" lon="9.319282010504837"><ele>791.0</ele><time>2026-05-01T14:31:51Z</time></trkpt><trkpt lat="40.566137747193416" lon="9.319168773803467"><ele>791.0</ele><time>2026-05-01T14:31:52Z</time></trkpt><trkpt lat="40.56618223862297" lon="9.319056939218873"><ele>791.0</ele><time>2026-05-01T14:31:53Z</time></trkpt><trkpt lat="40.566226996917955" lon="9.318937384864746"><ele>791.0</ele><time>2026-05-01T14:31:54Z</time></trkpt><trkpt lat="40.56627563239322" lon="9.318820306904836"><ele>791.0</ele><time>2026-05-01T14:31:55Z</time></trkpt><trkpt lat="40.56632266907881" lon="9.318699879011444"><ele>791.1999999999999</ele><time>2026-05-01T14:31:56Z</time></trkpt><trkpt lat="40.566369851038935" lon="9.31857741274242"><ele>791.4</ele><time>2026-05-01T14:31:57Z</time></trkpt><trkpt lat="40.56642100557812" lon="9.318453539428026"><ele>791.6</ele><time>2026-05-01T14:31:58Z</time></trkpt><trkpt lat="40.56647294459342" lon="9.31833075448205"><ele>791.8</ele><time>2026-05-01T14:31:59Z</time></trkpt><trkpt lat="40.56652311193808" lon="9.318205396344096"><ele>792.0</ele><time>2026-05-01T14:32:00Z</time></trkpt><trkpt lat="40.56657318694826" lon="9.318076435023887"><ele>792.5</ele><time>2026-05-01T14:32:01Z</time></trkpt><trkpt lat="40.56662676588185" lon="9.317944806481906"><ele>793.0</ele><time>2026-05-01T14:32:02Z</time></trkpt><trkpt lat="40.566681568019966" lon="9.317807547948396"><ele>793.5</ele><time>2026-05-01T14:32:03Z</time></trkpt><trkpt lat="40.56673644758598" lon="9.317672710624349"><ele>794.0</ele><time>2026-05-01T14:32:04Z</time></trkpt><trkpt lat="40.56679157085925" lon="9.317542553548241"><ele>794.0</ele><time>2026-05-01T14:32:05Z</time></trkpt><trkpt lat="40.566843917602945" lon="9.317410463109075"><ele>794.0</ele><time>2026-05-01T14:32:06Z</time></trkpt><trkpt lat="40.56689984503404" lon="9.317289321887118"><ele>794.0</ele><time>2026-05-01T14:32:07Z</time></trkpt><trkpt lat="40.566956805050296" lon="9.317186469421166"><ele>794.0</ele><time>2026-05-01T14:32:08Z</time></trkpt><trkpt lat="40.567028876951404" lon="9.31708698559491"><ele>794.0</ele><time>2026-05-01T14:32:09Z</time></trkpt><trkpt lat="40.56710772568628" lon="9.316979315302689"><ele>794.2</ele><time>2026-05-01T14:32:10Z</time></trkpt><trkpt lat="40.56718482823743" lon="9.316875772763503"><ele>794.4000000000001</ele><time>2026-05-01T14:32:11Z</time></trkpt><trkpt lat="40.56725641997701" lon="9.316787305421284"><ele>794.6</ele><time>2026-05-01T14:32:12Z</time></trkpt><trkpt lat="40.567321960105055" lon="9.316698338250818"><ele>794.8</ele><time>2026-05-01T14:32:13Z</time></trkpt><trkpt lat="40.56739299128191" lon="9.316606159219033"><ele>795.0</ele><time>2026-05-01T14:32:14Z</time></trkpt><trkpt lat="40.56745313045692" lon="9.316517683287234"><ele>795.0</ele><time>2026-05-01T14:32:15Z</time></trkpt><trkpt lat="40.56751406918513" lon="9.316414200154473"><ele>795.0</ele><time>2026-05-01T14:32:17Z</time></trkpt><trkpt lat="40.56757486856194" lon="9.316314845514352"><ele>795.0</ele><time>2026-05-01T14:32:19Z</time></trkpt><trkpt lat="40.56764370748775" lon="9.316180954717003"><ele>795.0</ele><time>2026-05-01T14:32:21Z</time></trkpt><trkpt lat="40.56768465147812" lon="9.316097413240758"><ele>795.0</ele><time>2026-05-01T14:32:22Z</time></trkpt><trkpt lat="40.5677332055904" lon="9.316001335055061"><ele>795.4</ele><time>2026-05-01T14:32:23Z</time></trkpt><trkpt lat="40.56778260365808" lon="9.31589331788422"><ele>795.8</ele><time>2026-05-01T14:32:24Z</time></trkpt><trkpt lat="40.567839188025104" lon="9.315770872752843"><ele>796.2</ele><time>2026-05-01T14:32:25Z</time></trkpt><trkpt lat="40.56790188812219" lon="9.315641229321754"><ele>796.6</ele><time>2026-05-01T14:32:26Z</time></trkpt><trkpt lat="40.56796809279251" lon="9.315503248327223"><ele>797.0</ele><time>2026-05-01T14:32:27Z</time></trkpt><trkpt lat="40.56803885469873" lon="9.315363967237507"><ele>795.5</ele><time>2026-05-01T14:32:28Z</time></trkpt><trkpt lat="40.568105822532246" lon="9.315228722080578"><ele>794.0</ele><time>2026-05-01T14:32:29Z</time></trkpt><trkpt lat="40.568167131241715" lon="9.315107610047678"><ele>792.5</ele><time>2026-05-01T14:32:30Z</time></trkpt><trkpt lat="40.568229023100855" lon="9.31498684895956"><ele>791.0</ele><time>2026-05-01T14:32:31Z</time></trkpt><trkpt lat="40.56830309934207" lon="9.314860816036763"><ele>790.25</ele><time>2026-05-01T14:32:32Z</time></trkpt><trkpt lat="40.56839065261276" lon="9.314724517982901"><ele>789.5</ele><time>2026-05-01T14:32:33Z</time></trkpt><trkpt lat="40.56849600733156" lon="9.314590519890235"><ele>788.75</ele><time>2026-05-01T14:32:34Z</time></trkpt><trkpt lat="40.56861482980986" lon="9.314455335372859"><ele>788.0</ele><time>2026-05-01T14:32:35Z</time></trkpt><trkpt lat="40.568741404351016" lon="9.314315296634751"><ele>788.0</ele><time>2026-05-01T14:32:36Z</time></trkpt><trkpt lat="40.5688743206326" lon="9.314169696630122"><ele>788.0</ele><time>2026-05-01T14:32:37Z</time></trkpt><trkpt lat="40.5690028990821" lon="9.314024215051955"><ele>788.0</ele><time>2026-05-01T14:32:38Z</time></trkpt><trkpt lat="40.56911973899841" lon="9.313885885615822"><ele>789.0</ele><time>2026-05-01T14:32:39Z</time></trkpt><trkpt lat="40.569231936827826" lon="9.313759055981754"><ele>790.0</ele><time>2026-05-01T14:32:40Z</time></trkpt><trkpt lat="40.5693357328248" lon="9.313621612472943"><ele>791.0</ele><time>2026-05-01T14:32:41Z</time></trkpt><trkpt lat="40.56942523733115" lon="9.313472512843411"><ele>792.0</ele><time>2026-05-01T14:32:42Z</time></trkpt><trkpt lat="40.569493237620634" lon="9.313302539292948"><ele>790.0</ele><time>2026-05-01T14:32:43Z</time></trkpt><trkpt lat="40.56952815479104" lon="9.313091928135966"><ele>788.0</ele><time>2026-05-01T14:32:44Z</time></trkpt><trkpt lat="40.56953964978556" lon="9.312875371455492"><ele>786.0</ele><time>2026-05-01T14:32:45Z</time></trkpt><trkpt lat="40.56954151783625" lon="9.312658941304779"><ele>786.0</ele><time>2026-05-01T14:32:46Z</time></trkpt><trkpt lat="40.56953928752282" lon="9.312449133807096"><ele>786.0</ele><time>2026-05-01T14:32:47Z</time></trkpt><trkpt lat="40.569548218147375" lon="9.31224259582251"><ele>786.0</ele><time>2026-05-01T14:32:48Z</time></trkpt><trkpt lat="40.56958125455838" lon="9.312034828677916"><ele>786.3333333333333</ele><time>2026-05-01T14:32:49Z</time></trkpt><trkpt lat="40.569673632799905" lon="9.311860569207877"><ele>786.6666666666666</ele><time>2026-05-01T14:32:50Z</time></trkpt><trkpt lat="40.569791152484335" lon="9.311692973441188"><ele>787.0</ele><time>2026-05-01T14:32:51Z</time></trkpt><trkpt lat="40.56990993970898" lon="9.31152130033904"><ele>788.0</ele><time>2026-05-01T14:32:52Z</time></trkpt><trkpt lat="40.57003921951461" lon="9.311367602451675"><ele>789.0</ele><time>2026-05-01T14:32:53Z</time></trkpt><trkpt lat="40.5701591109724" lon="9.311200487597958"><ele>790.0</ele><time>2026-05-01T14:32:54Z</time></trkpt><trkpt lat="40.570268312227185" lon="9.311009449436003"><ele>789.3333333333333</ele><time>2026-05-01T14:32:55Z</time></trkpt><trkpt lat="40.57037547530775" lon="9.310805435920368"><ele>788.6666666666667</ele><time>2026-05-01T14:32:56Z</time></trkpt><trkpt lat="40.57047352095762" lon="9.310593313521426"><ele>788.0</ele><time>2026-05-01T14:32:57Z</time></trkpt><trkpt lat="40.5705503636549" lon="9.310384012169711"><ele>788.0</ele><time>2026-05-01T14:32:58Z</time></trkpt><trkpt lat="40.57060429233693" lon="9.31016897682471"><ele>788.0</ele><time>2026-05-01T14:32:59Z</time></trkpt><trkpt lat="40.570635520246" lon="9.309925925592278"><ele>788.0</ele><time>2026-05-01T14:33:00Z</time></trkpt><trkpt lat="40.57063994207408" lon="9.309658332089997"><ele>787.3333333333334</ele><time>2026-05-01T14:33:01Z</time></trkpt><trkpt lat="40.57063541365857" lon="9.309382478794642"><ele>786.6666666666667</ele><time>2026-05-01T14:33:02Z</time></trkpt><trkpt lat="40.570655216682944" lon="9.309104929660572"><ele>786.0</ele><time>2026-05-01T14:33:03Z</time></trkpt><trkpt lat="40.57065950123051" lon="9.308826116326012"><ele>786.0</ele><time>2026-05-01T14:33:04Z</time></trkpt><trkpt lat="40.57066384145324" lon="9.308543680018346"><ele>786.0</ele><time>2026-05-01T14:33:05Z</time></trkpt><trkpt lat="40.57066820713833" lon="9.308259586710907"><ele>786.0</ele><time>2026-05-01T14:33:06Z</time></trkpt><trkpt lat="40.57067262406676" lon="9.307972158805923"><ele>786.0</ele><time>2026-05-01T14:33:07Z</time></trkpt><trkpt lat="40.57067705888855" lon="9.307683566468592"><ele>786.0</ele><time>2026-05-01T14:33:08Z</time></trkpt><trkpt lat="40.57068149303153" lon="9.307395018347151"><ele>786.0</ele><time>2026-05-01T14:33:09Z</time></trkpt><trkpt lat="40.5706859200578" lon="9.307106933337028"><ele>786.5</ele><time>2026-05-01T14:33:10Z</time></trkpt><trkpt lat="40.5706913157765" lon="9.30680932992999"><ele>787.0</ele><time>2026-05-01T14:33:11Z</time></trkpt><trkpt lat="40.57069700117897" lon="9.306506052735832"><ele>787.0</ele><time>2026-05-01T14:33:12Z</time></trkpt><trkpt lat="40.57068883290475" lon="9.306200422072731"><ele>787.0</ele><time>2026-05-01T14:33:13Z</time></trkpt><trkpt lat="40.570694052112636" lon="9.305877060146205"><ele>787.0</ele><time>2026-05-01T14:33:14Z</time></trkpt><trkpt lat="40.57071489660568" lon="9.305551454679815"><ele>787.0</ele><time>2026-05-01T14:33:15Z</time></trkpt><trkpt lat="40.5707210034394" lon="9.305219751327973"><ele>787.0</ele><time>2026-05-01T14:33:16Z</time></trkpt><trkpt lat="40.57072712221541" lon="9.304882971936488"><ele>787.0</ele><time>2026-05-01T14:33:17Z</time></trkpt><trkpt lat="40.570733292736264" lon="9.304542798333939"><ele>787.5</ele><time>2026-05-01T14:33:18Z</time></trkpt><trkpt lat="40.570739585945965" lon="9.304195860999341"><ele>788.0</ele><time>2026-05-01T14:33:19Z</time></trkpt><trkpt lat="40.57074385835378" lon="9.303845401557925"><ele>788.5</ele><time>2026-05-01T14:33:20Z</time></trkpt><trkpt lat="40.57074031381286" lon="9.303494598021901"><ele>789.0</ele><time>2026-05-01T14:33:21Z</time></trkpt><trkpt lat="40.57073328061345" lon="9.303141888895732"><ele>789.0</ele><time>2026-05-01T14:33:22Z</time></trkpt><trkpt lat="40.57072028223442" lon="9.302810766419315"><ele>789.0</ele><time>2026-05-01T14:33:23Z</time></trkpt><trkpt lat="40.57071239771348" lon="9.302484280438561"><ele>789.0</ele><time>2026-05-01T14:33:24Z</time></trkpt><trkpt lat="40.57073123768353" lon="9.302215982987882"><ele>789.0</ele><time>2026-05-01T14:33:25Z</time></trkpt><trkpt lat="40.57077929305046" lon="9.301934401763093"><ele>789.0</ele><time>2026-05-01T14:33:26Z</time></trkpt><trkpt lat="40.57086702242667" lon="9.301657773861471"><ele>788.0</ele><time>2026-05-01T14:33:27Z</time></trkpt><trkpt lat="40.570949132052434" lon="9.30139059207155"><ele>787.0</ele><time>2026-05-01T14:33:28Z</time></trkpt><trkpt lat="40.57104556406214" lon="9.301160099937032"><ele>786.0</ele><time>2026-05-01T14:33:29Z</time></trkpt><trkpt lat="40.571133149361486" lon="9.300977634781127"><ele>786.0</ele><time>2026-05-01T14:33:30Z</time></trkpt><trkpt lat="40.57117295202254" lon="9.300775461686856"><ele>786.0</ele><time>2026-05-01T14:33:31Z</time></trkpt><trkpt lat="40.57112105364399" lon="9.30057022551428"><ele>786.0</ele><time>2026-05-01T14:33:32Z</time></trkpt><trkpt lat="40.57103287511734" lon="9.300353144042619"><ele>784.5</ele><time>2026-05-01T14:33:33Z</time></trkpt><trkpt lat="40.570905740477464" lon="9.300095880928952"><ele>783.0</ele><time>2026-05-01T14:33:34Z</time></trkpt><trkpt lat="40.57078066474043" lon="9.299824263975813"><ele>783.5</ele><time>2026-05-01T14:33:35Z</time></trkpt><trkpt lat="40.57066761552793" lon="9.299553192504645"><ele>784.0</ele><time>2026-05-01T14:33:36Z</time></trkpt><trkpt lat="40.57056179955707" lon="9.299273871798915"><ele>784.0</ele><time>2026-05-01T14:33:37Z</time></trkpt><trkpt lat="40.57049023760754" lon="9.298991082104653"><ele>784.0</ele><time>2026-05-01T14:33:38Z</time></trkpt><trkpt lat="40.57041917228558" lon="9.298723711143774"><ele>784.0</ele><time>2026-05-01T14:33:39Z</time></trkpt><trkpt lat="40.57033281587391" lon="9.29845412643734"><ele>784.3333333333333</ele><time>2026-05-01T14:33:40Z</time></trkpt><trkpt lat="40.57027080210855" lon="9.29818083828511"><ele>784.6666666666667</ele><time>2026-05-01T14:33:41Z</time></trkpt><trkpt lat="40.57020413170993" lon="9.297913613330346"><ele>785.0</ele><time>2026-05-01T14:33:42Z</time></trkpt><trkpt lat="40.57013589268727" lon="9.297642347925242"><ele>785.5</ele><time>2026-05-01T14:33:43Z</time></trkpt><trkpt lat="40.570087238571226" lon="9.297353134965226"><ele>786.0</ele><time>2026-05-01T14:33:44Z</time></trkpt><trkpt lat="40.5700104604859" lon="9.297069550819957"><ele>786.0</ele><time>2026-05-01T14:33:45Z</time></trkpt><trkpt lat="40.569950973370304" lon="9.296780497388196"><ele>786.0</ele><time>2026-05-01T14:33:46Z</time></trkpt><trkpt lat="40.56989137283419" lon="9.296495690273495"><ele>786.5</ele><time>2026-05-01T14:33:47Z</time></trkpt><trkpt lat="40.569834838702434" lon="9.296204812265671"><ele>787.0</ele><time>2026-05-01T14:33:48Z</time></trkpt><trkpt lat="40.56978906837171" lon="9.295908140908098"><ele>787.0</ele><time>2026-05-01T14:33:49Z</time></trkpt><trkpt lat="40.56974777133433" lon="9.295604146928408"><ele>787.0</ele><time>2026-05-01T14:33:50Z</time></trkpt><trkpt lat="40.56970326859817" lon="9.29529864391113"><ele>786.5</ele><time>2026-05-01T14:33:51Z</time></trkpt><trkpt lat="40.56965419775125" lon="9.294989561564275"><ele>786.0</ele><time>2026-05-01T14:33:52Z</time></trkpt><trkpt lat="40.56960121790531" lon="9.294681170272963"><ele>785.0</ele><time>2026-05-01T14:33:53Z</time></trkpt><trkpt lat="40.56951311938465" lon="9.294365302741927"><ele>784.0</ele><time>2026-05-01T14:33:54Z</time></trkpt><trkpt lat="40.56945619290728" lon="9.29405193964514"><ele>784.5</ele><time>2026-05-01T14:33:55Z</time></trkpt><trkpt lat="40.56938208810027" lon="9.293731320314949"><ele>785.0</ele><time>2026-05-01T14:33:56Z</time></trkpt><trkpt lat="40.56930821593657" lon="9.293417824202537"><ele>785.0</ele><time>2026-05-01T14:33:57Z</time></trkpt><trkpt lat="40.56922133892567" lon="9.293109346325625"><ele>785.0</ele><time>2026-05-01T14:33:58Z</time></trkpt><trkpt lat="40.56918079574342" lon="9.29278204444195"><ele>784.0</ele><time>2026-05-01T14:33:59Z</time></trkpt><trkpt lat="40.569136978546844" lon="9.292460670776862"><ele>783.0</ele><time>2026-05-01T14:34:00Z</time></trkpt><trkpt lat="40.569106781356" lon="9.292150795285538"><ele>783.0</ele><time>2026-05-01T14:34:01Z</time></trkpt><trkpt lat="40.56907423839925" lon="9.29186063795714"><ele>783.0</ele><time>2026-05-01T14:34:02Z</time></trkpt><trkpt lat="40.56904983609528" lon="9.291584762018424"><ele>783.0</ele><time>2026-05-01T14:34:03Z</time></trkpt><trkpt lat="40.569049240405995" lon="9.291326509242529"><ele>782.3333333333333</ele><time>2026-05-01T14:34:04Z</time></trkpt><trkpt lat="40.56908441542623" lon="9.291065746717301"><ele>781.6666666666666</ele><time>2026-05-01T14:34:05Z</time></trkpt><trkpt lat="40.56915831885935" lon="9.290787431255914"><ele>781.0</ele><time>2026-05-01T14:34:06Z</time></trkpt><trkpt lat="40.56925804671825" lon="9.290502039989754"><ele>779.5</ele><time>2026-05-01T14:34:07Z</time></trkpt><trkpt lat="40.569374080772775" lon="9.290202254056721"><ele>778.0</ele><time>2026-05-01T14:34:08Z</time></trkpt><trkpt lat="40.569504727716996" lon="9.289886428037688"><ele>778.5</ele><time>2026-05-01T14:34:09Z</time></trkpt><trkpt lat="40.56963843872603" lon="9.289585747253119"><ele>779.0</ele><time>2026-05-01T14:34:10Z</time></trkpt><trkpt lat="40.56975034057307" lon="9.289287346558957"><ele>779.0</ele><time>2026-05-01T14:34:11Z</time></trkpt><trkpt lat="40.569853693770355" lon="9.288978302709156"><ele>779.0</ele><time>2026-05-01T14:34:12Z</time></trkpt><trkpt lat="40.5699224820529" lon="9.288643128871998"><ele>778.5</ele><time>2026-05-01T14:34:13Z</time></trkpt><trkpt lat="40.569979376938804" lon="9.28828711338093"><ele>778.0</ele><time>2026-05-01T14:34:14Z</time></trkpt><trkpt lat="40.570041318279515" lon="9.2879222314028"><ele>778.0</ele><time>2026-05-01T14:34:15Z</time></trkpt><trkpt lat="40.570098730395344" lon="9.287581183261707"><ele>778.0</ele><time>2026-05-01T14:34:16Z</time></trkpt><trkpt lat="40.570156299127824" lon="9.287279153345827"><ele>778.5</ele><time>2026-05-01T14:34:17Z</time></trkpt><trkpt lat="40.57024595929061" lon="9.287003987669118"><ele>779.0</ele><time>2026-05-01T14:34:18Z</time></trkpt><trkpt lat="40.57037088319737" lon="9.28671202066014"><ele>778.5</ele><time>2026-05-01T14:34:19Z</time></trkpt><trkpt lat="40.570511241561995" lon="9.28644095703429"><ele>778.0</ele><time>2026-05-01T14:34:20Z</time></trkpt><trkpt lat="40.570648693575336" lon="9.286196566994512"><ele>778.0</ele><time>2026-05-01T14:34:21Z</time></trkpt><trkpt lat="40.57077830103318" lon="9.285932981721352"><ele>778.0</ele><time>2026-05-01T14:34:22Z</time></trkpt><trkpt lat="40.57088750548724" lon="9.285683488304423"><ele>778.0</ele><time>2026-05-01T14:34:23Z</time></trkpt><trkpt lat="40.57098052081812" lon="9.285435257863426"><ele>778.0</ele><time>2026-05-01T14:34:24Z</time></trkpt><trkpt lat="40.571036830467335" lon="9.285184418356286"><ele>778.0</ele><time>2026-05-01T14:34:25Z</time></trkpt><trkpt lat="40.57104063234139" lon="9.284924841754293"><ele>777.0</ele><time>2026-05-01T14:34:26Z</time></trkpt><trkpt lat="40.571023594046075" lon="9.284676099822274"><ele>776.0</ele><time>2026-05-01T14:34:27Z</time></trkpt><trkpt lat="40.57095652545172" lon="9.284446106413421"><ele>775.0</ele><time>2026-05-01T14:34:28Z</time></trkpt><trkpt lat="40.570859878494" lon="9.284201702563994"><ele>775.0</ele><time>2026-05-01T14:34:29Z</time></trkpt><trkpt lat="40.57072828271359" lon="9.283961043351326"><ele>775.0</ele><time>2026-05-01T14:34:30Z</time></trkpt><trkpt lat="40.57061390114073" lon="9.283738731190061"><ele>775.0</ele><time>2026-05-01T14:34:31Z</time></trkpt><trkpt lat="40.57051202931825" lon="9.283527873186102"><ele>774.75</ele><time>2026-05-01T14:34:32Z</time></trkpt><trkpt lat="40.57045564543641" lon="9.283331714529144"><ele>774.5</ele><time>2026-05-01T14:34:33Z</time></trkpt><trkpt lat="40.57045132518232" lon="9.28316205731805"><ele>774.25</ele><time>2026-05-01T14:34:34Z</time></trkpt><trkpt lat="40.57049218775821" lon="9.283014322547114"><ele>774.0</ele><time>2026-05-01T14:34:35Z</time></trkpt><trkpt lat="40.57050595085991" lon="9.282859213311513"><ele>774.0</ele><time>2026-05-01T14:34:36Z</time></trkpt><trkpt lat="40.570616134164766" lon="9.282720561382103"><ele>774.0</ele><time>2026-05-01T14:34:37Z</time></trkpt><trkpt lat="40.570760256039556" lon="9.282585892755677"><ele>774.0</ele><time>2026-05-01T14:34:38Z</time></trkpt><trkpt lat="40.57086774570954" lon="9.282381272417142"><ele>773.6666666666667</ele><time>2026-05-01T14:34:39Z</time></trkpt><trkpt lat="40.570992487054404" lon="9.282180664561295"><ele>773.3333333333334</ele><time>2026-05-01T14:34:40Z</time></trkpt><trkpt lat="40.57110477734241" lon="9.281990988926433"><ele>773.0</ele><time>2026-05-01T14:34:41Z</time></trkpt><trkpt lat="40.57118289426363" lon="9.281805450705386"><ele>773.0</ele><time>2026-05-01T14:34:42Z</time></trkpt><trkpt lat="40.57120552362663" lon="9.281636072439426"><ele>773.0</ele><time>2026-05-01T14:34:43Z</time></trkpt><trkpt lat="40.57116010842955" lon="9.28147922496244"><ele>773.0</ele><time>2026-05-01T14:34:44Z</time></trkpt><trkpt lat="40.57105423611546" lon="9.28132913590427"><ele>773.0</ele><time>2026-05-01T14:34:45Z</time></trkpt><trkpt lat="40.570905629505795" lon="9.281168006630717"><ele>771.0</ele><time>2026-05-01T14:34:46Z</time></trkpt><trkpt lat="40.5707393632856" lon="9.28098062596166"><ele>769.0</ele><time>2026-05-01T14:34:47Z</time></trkpt><trkpt lat="40.570579858241004" lon="9.280728987461893"><ele>767.3333333333333</ele><time>2026-05-01T14:34:48Z</time></trkpt><trkpt lat="40.570432942659444" lon="9.280515447236516"><ele>765.6666666666666</ele><time>2026-05-01T14:34:49Z</time></trkpt><trkpt lat="40.57031091551183" lon="9.280331639743283"><ele>764.0</ele><time>2026-05-01T14:34:50Z</time></trkpt><trkpt lat="40.57022381441749" lon="9.280166381536276"><ele>765.0</ele><time>2026-05-01T14:34:51Z</time></trkpt><trkpt lat="40.57018787772041" lon="9.280012176435614"><ele>766.0</ele><time>2026-05-01T14:34:52Z</time></trkpt><trkpt lat="40.57024018807601" lon="9.279896052042032"><ele>767.0</ele><time>2026-05-01T14:34:53Z</time></trkpt><trkpt lat="40.570310692395175" lon="9.279795506405634"><ele>768.0</ele><time>2026-05-01T14:34:54Z</time></trkpt><trkpt lat="40.57042833396632" lon="9.279666579301262"><ele>768.0</ele><time>2026-05-01T14:34:55Z</time></trkpt><trkpt lat="40.570574044100454" lon="9.279501505323813"><ele>768.0</ele><time>2026-05-01T14:34:56Z</time></trkpt><trkpt lat="40.570722270578514" lon="9.279304226769316"><ele>768.0</ele><time>2026-05-01T14:34:57Z</time></trkpt><trkpt lat="40.570901797217815" lon="9.279128541198936"><ele>770.0</ele><time>2026-05-01T14:34:58Z</time></trkpt><trkpt lat="40.571049649561324" lon="9.278892435337747"><ele>772.0</ele><time>2026-05-01T14:34:59Z</time></trkpt><trkpt lat="40.57112216454664" lon="9.278642019137541"><ele>774.0</ele><time>2026-05-01T14:35:00Z</time></trkpt><trkpt lat="40.57116784549518" lon="9.278362695117151"><ele>773.0</ele><time>2026-05-01T14:35:01Z</time></trkpt><trkpt lat="40.57117687954292" lon="9.2780605532626"><ele>772.0</ele><time>2026-05-01T14:35:02Z</time></trkpt><trkpt lat="40.57118909007996" lon="9.277782015141316"><ele>771.0</ele><time>2026-05-01T14:35:03Z</time></trkpt><trkpt lat="40.57118107987071" lon="9.27754615079833"><ele>771.0</ele><time>2026-05-01T14:35:04Z</time></trkpt><trkpt lat="40.571134626248146" lon="9.277328374834557"><ele>771.0</ele><time>2026-05-01T14:35:05Z</time></trkpt><trkpt lat="40.57103790206419" lon="9.277152851873582"><ele>771.0</ele><time>2026-05-01T14:35:06Z</time></trkpt><trkpt lat="40.57098379117152" lon="9.277012514840333"><ele>770.25</ele><time>2026-05-01T14:35:07Z</time></trkpt><trkpt lat="40.571002128941714" lon="9.276908350273885"><ele>769.5</ele><time>2026-05-01T14:35:08Z</time></trkpt><trkpt lat="40.571076414220755" lon="9.276854124045217"><ele>768.75</ele><time>2026-05-01T14:35:09Z</time></trkpt><trkpt lat="40.57120603933418" lon="9.276809382658094"><ele>768.0</ele><time>2026-05-01T14:35:10Z</time></trkpt><trkpt lat="40.57133154849982" lon="9.276691370932689"><ele>764.0</ele><time>2026-05-01T14:35:11Z</time></trkpt><trkpt lat="40.571405543630725" lon="9.276532993609921"><ele>760.0</ele><time>2026-05-01T14:35:12Z</time></trkpt><trkpt lat="40.57141487883881" lon="9.27629746094076"><ele>756.0</ele><time>2026-05-01T14:35:13Z</time></trkpt><trkpt lat="40.5714013718191" lon="9.276007885436172"><ele>756.0</ele><time>2026-05-01T14:35:14Z</time></trkpt><trkpt lat="40.57142218572763" lon="9.275689569404959"><ele>756.0</ele><time>2026-05-01T14:35:15Z</time></trkpt><trkpt lat="40.57144546224928" lon="9.275374682468593"><ele>756.0</ele><time>2026-05-01T14:35:16Z</time></trkpt><trkpt lat="40.57150173822015" lon="9.275101427083689"><ele>756.0</ele><time>2026-05-01T14:35:17Z</time></trkpt><trkpt lat="40.57159999836465" lon="9.274869342390577"><ele>756.0</ele><time>2026-05-01T14:35:18Z</time></trkpt><trkpt lat="40.571706245675365" lon="9.274624091890791"><ele>756.6666666666666</ele><time>2026-05-01T14:35:19Z</time></trkpt><trkpt lat="40.57183770349406" lon="9.274410123256965"><ele>757.3333333333333</ele><time>2026-05-01T14:35:20Z</time></trkpt><trkpt lat="40.571948470189646" lon="9.27418219780459"><ele>758.0</ele><time>2026-05-01T14:35:21Z</time></trkpt><trkpt lat="40.57202177158729" lon="9.27394121230278"><ele>757.6666666666666</ele><time>2026-05-01T14:35:22Z</time></trkpt><trkpt lat="40.57205242450451" lon="9.273685655522877"><ele>757.3333333333334</ele><time>2026-05-01T14:35:23Z</time></trkpt><trkpt lat="40.572014853467444" lon="9.273443728085915"><ele>757.0</ele><time>2026-05-01T14:35:24Z</time></trkpt><trkpt lat="40.57192932293752" lon="9.273207935930978"><ele>756.5</ele><time>2026-05-01T14:35:25Z</time></trkpt><trkpt lat="40.571806200495914" lon="9.272965551356801"><ele>756.0</ele><time>2026-05-01T14:35:26Z</time></trkpt><trkpt lat="40.57169703834265" lon="9.272690044467318"><ele>756.0</ele><time>2026-05-01T14:35:27Z</time></trkpt><trkpt lat="40.57157449478163" lon="9.27242283065841"><ele>756.0</ele><time>2026-05-01T14:35:28Z</time></trkpt><trkpt lat="40.57145445133945" lon="9.27216701764306"><ele>756.0</ele><time>2026-05-01T14:35:29Z</time></trkpt><trkpt lat="40.57134131998152" lon="9.271925934572533"><ele>756.0</ele><time>2026-05-01T14:35:30Z</time></trkpt><trkpt lat="40.5712334717729" lon="9.271692997797757"><ele>756.0</ele><time>2026-05-01T14:35:31Z</time></trkpt><trkpt lat="40.57112917096908" lon="9.271466119155097"><ele>754.6666666666666</ele><time>2026-05-01T14:35:32Z</time></trkpt><trkpt lat="40.571025271263004" lon="9.271241791271027"><ele>753.3333333333333</ele><time>2026-05-01T14:35:33Z</time></trkpt><trkpt lat="40.57092275818146" lon="9.271021465505676"><ele>752.0</ele><time>2026-05-01T14:35:34Z</time></trkpt><trkpt lat="40.5708229110961" lon="9.270798791619542"><ele>750.5</ele><time>2026-05-01T14:35:35Z</time></trkpt><trkpt lat="40.570727765095235" lon="9.270593989758606"><ele>749.0</ele><time>2026-05-01T14:35:36Z</time></trkpt><trkpt lat="40.57068029080816" lon="9.270426378542082"><ele>747.5</ele><time>2026-05-01T14:35:37Z</time></trkpt><trkpt lat="40.57065538703825" lon="9.270276346921147"><ele>746.0</ele><time>2026-05-01T14:35:38Z</time></trkpt><trkpt lat="40.57064847927305" lon="9.270127821545527"><ele>746.0</ele><time>2026-05-01T14:35:39Z</time></trkpt><trkpt lat="40.57064558474534" lon="9.269975088535304"><ele>746.0</ele><time>2026-05-01T14:35:40Z</time></trkpt><trkpt lat="40.570642088149114" lon="9.269828231349116"><ele>746.0</ele><time>2026-05-01T14:35:41Z</time></trkpt><trkpt lat="40.57062847504663" lon="9.269705631780788"><ele>746.0</ele><time>2026-05-01T14:35:42Z</time></trkpt><trkpt lat="40.5706452367918" lon="9.269620637856717"><ele>746.0</ele><time>2026-05-01T14:35:43Z</time></trkpt><trkpt lat="40.57068556770279" lon="9.269556814864563"><ele>745.0</ele><time>2026-05-01T14:35:44Z</time></trkpt><trkpt lat="40.5708409883115" lon="9.269522334867055"><ele>744.0</ele><time>2026-05-01T14:35:46Z</time></trkpt><trkpt lat="40.57093803600492" lon="9.2695415059647"><ele>743.0</ele><time>2026-05-01T14:35:47Z</time></trkpt><trkpt lat="40.57104583659551" lon="9.269574698231107"><ele>742.0</ele><time>2026-05-01T14:35:48Z</time></trkpt><trkpt lat="40.57115568807768" lon="9.2696128775791"><ele>742.25</ele><time>2026-05-01T14:35:49Z</time></trkpt><trkpt lat="40.571264342671626" lon="9.269614259869632"><ele>742.5</ele><time>2026-05-01T14:35:50Z</time></trkpt><trkpt lat="40.5713587893046" lon="9.269530417876506"><ele>742.75</ele><time>2026-05-01T14:35:51Z</time></trkpt><trkpt lat="40.57143031993224" lon="9.269405595117211"><ele>743.0</ele><time>2026-05-01T14:35:52Z</time></trkpt><trkpt lat="40.571492856134974" lon="9.269270464659801"><ele>743.0</ele><time>2026-05-01T14:35:53Z</time></trkpt><trkpt lat="40.57156289481911" lon="9.269136063968762"><ele>743.0</ele><time>2026-05-01T14:35:54Z</time></trkpt><trkpt lat="40.57163909011363" lon="9.269004566442316"><ele>743.0</ele><time>2026-05-01T14:35:55Z</time></trkpt><trkpt lat="40.57172111260155" lon="9.268871971540218"><ele>743.0</ele><time>2026-05-01T14:35:56Z</time></trkpt><trkpt lat="40.57180724542682" lon="9.268727885258354"><ele>743.25</ele><time>2026-05-01T14:35:57Z</time></trkpt><trkpt lat="40.571892543145346" lon="9.268585556707995"><ele>743.5</ele><time>2026-05-01T14:35:58Z</time></trkpt><trkpt lat="40.57198692608813" lon="9.268437882808302"><ele>743.75</ele><time>2026-05-01T14:35:59Z</time></trkpt><trkpt lat="40.57207591284364" lon="9.268290948798663"><ele>744.0</ele><time>2026-05-01T14:36:00Z</time></trkpt><trkpt lat="40.572167692190945" lon="9.268142252723862"><ele>743.6666666666666</ele><time>2026-05-01T14:36:01Z</time></trkpt><trkpt lat="40.57227427942838" lon="9.268005836049356"><ele>743.3333333333333</ele><time>2026-05-01T14:36:02Z</time></trkpt><trkpt lat="40.57240237567925" lon="9.267889840104885"><ele>743.0</ele><time>2026-05-01T14:36:03Z</time></trkpt><trkpt lat="40.57255327401324" lon="9.267788130916683"><ele>743.0</ele><time>2026-05-01T14:36:04Z</time></trkpt><trkpt lat="40.57270019544985" lon="9.267682449049662"><ele>743.0</ele><time>2026-05-01T14:36:05Z</time></trkpt><trkpt lat="40.57284433132509" lon="9.267571238496775"><ele>743.0</ele><time>2026-05-01T14:36:06Z</time></trkpt><trkpt lat="40.57299021046462" lon="9.267455674874926"><ele>743.3333333333333</ele><time>2026-05-01T14:36:07Z</time></trkpt><trkpt lat="40.5731427083521" lon="9.267360900135255"><ele>743.6666666666666</ele><time>2026-05-01T14:36:08Z</time></trkpt><trkpt lat="40.573308379480736" lon="9.267292137821116"><ele>744.0</ele><time>2026-05-01T14:36:09Z</time></trkpt><trkpt lat="40.57347795562026" lon="9.267228140151985"><ele>744.0</ele><time>2026-05-01T14:36:10Z</time></trkpt><trkpt lat="40.57364025292076" lon="9.267165556983143"><ele>744.0</ele><time>2026-05-01T14:36:11Z</time></trkpt><trkpt lat="40.573782273119704" lon="9.267118814907114"><ele>744.0</ele><time>2026-05-01T14:36:12Z</time></trkpt><trkpt lat="40.573912827376425" lon="9.267097664074967"><ele>744.0</ele><time>2026-05-01T14:36:13Z</time></trkpt><trkpt lat="40.574045162754345" lon="9.267141630370016"><ele>742.6666666666666</ele><time>2026-05-01T14:36:14Z</time></trkpt><trkpt lat="40.574192979454466" lon="9.267219111203692"><ele>741.3333333333333</ele><time>2026-05-01T14:36:15Z</time></trkpt><trkpt lat="40.57433535700293" lon="9.267310168115419"><ele>740.0</ele><time>2026-05-01T14:36:16Z</time></trkpt><trkpt lat="40.57446064699528" lon="9.267374921490973"><ele>738.25</ele><time>2026-05-01T14:36:17Z</time></trkpt><trkpt lat="40.574581352915786" lon="9.267434419525026"><ele>736.5</ele><time>2026-05-01T14:36:18Z</time></trkpt><trkpt lat="40.57470142686304" lon="9.267456686684264"><ele>734.75</ele><time>2026-05-01T14:36:19Z</time></trkpt><trkpt lat="40.57482047634429" lon="9.267418895936732"><ele>733.0</ele><time>2026-05-01T14:36:20Z</time></trkpt><trkpt lat="40.57492957159092" lon="9.267319029651345"><ele>732.25</ele><time>2026-05-01T14:36:21Z</time></trkpt><trkpt lat="40.57504965841208" lon="9.267226700084407"><ele>731.5</ele><time>2026-05-01T14:36:22Z</time></trkpt><trkpt lat="40.57515194764357" lon="9.267111399916965"><ele>730.75</ele><time>2026-05-01T14:36:23Z</time></trkpt><trkpt lat="40.57524773446528" lon="9.267009854858133"><ele>730.0</ele><time>2026-05-01T14:36:24Z</time></trkpt><trkpt lat="40.575341973088776" lon="9.266920864786355"><ele>729.0</ele><time>2026-05-01T14:36:25Z</time></trkpt><trkpt lat="40.575433417709924" lon="9.266838185706545"><ele>728.0</ele><time>2026-05-01T14:36:26Z</time></trkpt><trkpt lat="40.57552248400484" lon="9.266758282249478"><ele>727.0</ele><time>2026-05-01T14:36:27Z</time></trkpt><trkpt lat="40.57560982421604" lon="9.266680644369934"><ele>726.0</ele><time>2026-05-01T14:36:28Z</time></trkpt><trkpt lat="40.57569169179065" lon="9.266605560663544"><ele>725.0</ele><time>2026-05-01T14:36:29Z</time></trkpt><trkpt lat="40.575770837168676" lon="9.26653219404871"><ele>725.0</ele><time>2026-05-01T14:36:30Z</time></trkpt><trkpt lat="40.57584366776842" lon="9.266464259605872"><ele>725.0</ele><time>2026-05-01T14:36:31Z</time></trkpt><trkpt lat="40.57590804862733" lon="9.26639510798635"><ele>725.0</ele><time>2026-05-01T14:36:32Z</time></trkpt><trkpt lat="40.57596936600208" lon="9.26632619684592"><ele>725.0</ele><time>2026-05-01T14:36:33Z</time></trkpt><trkpt lat="40.57603204919881" lon="9.266250565201117"><ele>725.0</ele><time>2026-05-01T14:36:34Z</time></trkpt><trkpt lat="40.576107434203514" lon="9.26616168540529"><ele>725.0</ele><time>2026-05-01T14:36:35Z</time></trkpt><trkpt lat="40.57619206616063" lon="9.266065051010631"><ele>723.0</ele><time>2026-05-01T14:36:36Z</time></trkpt><trkpt lat="40.57627201165457" lon="9.265977471337791"><ele>721.0</ele><time>2026-05-01T14:36:37Z</time></trkpt><trkpt lat="40.576346139315135" lon="9.265893416741651"><ele>719.0</ele><time>2026-05-01T14:36:38Z</time></trkpt><trkpt lat="40.57641726292971" lon="9.265801223093662"><ele>717.0</ele><time>2026-05-01T14:36:39Z</time></trkpt><trkpt lat="40.57649600116845" lon="9.265700829743675"><ele>715.0</ele><time>2026-05-01T14:36:40Z</time></trkpt><trkpt lat="40.576581376664315" lon="9.265595625336676"><ele>714.0</ele><time>2026-05-01T14:36:41Z</time></trkpt><trkpt lat="40.576669150972116" lon="9.265486751619022"><ele>713.0</ele><time>2026-05-01T14:36:42Z</time></trkpt><trkpt lat="40.57676066770164" lon="9.265379507407404"><ele>712.0</ele><time>2026-05-01T14:36:43Z</time></trkpt><trkpt lat="40.576854719009674" lon="9.265271857920801"><ele>711.0</ele><time>2026-05-01T14:36:44Z</time></trkpt><trkpt lat="40.57694378261881" lon="9.26517290713002"><ele>710.6666666666666</ele><time>2026-05-01T14:36:45Z</time></trkpt><trkpt lat="40.577020859945705" lon="9.265076451898004"><ele>710.3333333333334</ele><time>2026-05-01T14:36:46Z</time></trkpt><trkpt lat="40.57708257962842" lon="9.264981426247893"><ele>710.0</ele><time>2026-05-01T14:36:47Z</time></trkpt><trkpt lat="40.57712312799124" lon="9.264885463673721"><ele>709.6666666666667</ele><time>2026-05-01T14:36:48Z</time></trkpt><trkpt lat="40.577151358737424" lon="9.264783822867782"><ele>709.3333333333334</ele><time>2026-05-01T14:36:49Z</time></trkpt><trkpt lat="40.577164371409076" lon="9.264679499106181"><ele>709.0</ele><time>2026-05-01T14:36:50Z</time></trkpt><trkpt lat="40.577178569532066" lon="9.264584845891708"><ele>708.1666666666667</ele><time>2026-05-01T14:36:51Z</time></trkpt><trkpt lat="40.57719491363069" lon="9.264494281456349"><ele>707.3333333333334</ele><time>2026-05-01T14:36:52Z</time></trkpt><trkpt lat="40.57720837678629" lon="9.264397710755288"><ele>706.5</ele><time>2026-05-01T14:36:53Z</time></trkpt><trkpt lat="40.57722730243233" lon="9.264305473870184"><ele>705.6666666666666</ele><time>2026-05-01T14:36:54Z</time></trkpt><trkpt lat="40.57724906773017" lon="9.26419229593171"><ele>704.8333333333333</ele><time>2026-05-01T14:36:55Z</time></trkpt><trkpt lat="40.5772699185746" lon="9.264058799781903"><ele>704.0</ele><time>2026-05-01T14:36:56Z</time></trkpt><trkpt lat="40.57728840356521" lon="9.263936921081749"><ele>702.8000000000001</ele><time>2026-05-01T14:36:57Z</time></trkpt><trkpt lat="40.577323991937455" lon="9.26382305103739"><ele>701.6</ele><time>2026-05-01T14:36:58Z</time></trkpt><trkpt lat="40.5773467995919" lon="9.26369445644703"><ele>700.4</ele><time>2026-05-01T14:36:59Z</time></trkpt><trkpt lat="40.577371343139596" lon="9.26355572233309"><ele>699.2</ele><time>2026-05-01T14:37:00Z</time></trkpt><trkpt lat="40.57740803625934" lon="9.263425451389212"><ele>698.0</ele><time>2026-05-01T14:37:01Z</time></trkpt><trkpt lat="40.57745258226368" lon="9.263311282010166"><ele>698.0</ele><time>2026-05-01T14:37:02Z</time></trkpt><trkpt lat="40.577517982413326" lon="9.263214531078122"><ele>698.0</ele><time>2026-05-01T14:37:03Z</time></trkpt><trkpt lat="40.577577517024324" lon="9.26313162727668"><ele>698.0</ele><time>2026-05-01T14:37:04Z</time></trkpt><trkpt lat="40.57763004993967" lon="9.263049977559454"><ele>698.0</ele><time>2026-05-01T14:37:05Z</time></trkpt><trkpt lat="40.57767876915272" lon="9.262973808389956"><ele>698.0</ele><time>2026-05-01T14:37:06Z</time></trkpt><trkpt lat="40.57772449268259" lon="9.262902148755183"><ele>698.0</ele><time>2026-05-01T14:37:07Z</time></trkpt><trkpt lat="40.57776834180052" lon="9.262831192778712"><ele>697.3333333333333</ele><time>2026-05-01T14:37:08Z</time></trkpt><trkpt lat="40.577808136301456" lon="9.262762914582417"><ele>696.6666666666666</ele><time>2026-05-01T14:37:09Z</time></trkpt><trkpt lat="40.57787376304964" lon="9.262664361675487"><ele>696.0</ele><time>2026-05-01T14:37:11Z</time></trkpt><trkpt lat="40.577927668108074" lon="9.262587564972169"><ele>695.3333333333334</ele><time>2026-05-01T14:37:13Z</time></trkpt><trkpt lat="40.577990245274584" lon="9.262530336992558"><ele>694.6666666666667</ele><time>2026-05-01T14:37:15Z</time></trkpt><trkpt lat="40.578070568355066" lon="9.262603066254558"><ele>694.0</ele><time>2026-05-01T14:37:18Z</time></trkpt><trkpt lat="40.57806605103514" lon="9.262714859140281"><ele>693.3333333333334</ele><time>2026-05-01T14:37:20Z</time></trkpt><trkpt lat="40.57821414380352" lon="9.262742875858946"><ele>692.6666666666667</ele><time>2026-05-01T14:37:24Z</time></trkpt><trkpt lat="40.57828329296526" lon="9.262768853657894"><ele>692.0</ele><time>2026-05-01T14:37:25Z</time></trkpt><trkpt lat="40.578362314528654" lon="9.26276081256633"><ele>691.3333333333334</ele><time>2026-05-01T14:37:26Z</time></trkpt><trkpt lat="40.57843473758192" lon="9.262770265916775"><ele>690.6666666666666</ele><time>2026-05-01T14:37:27Z</time></trkpt><trkpt lat="40.57850607811576" lon="9.262779500243917"><ele>690.0</ele><time>2026-05-01T14:37:28Z</time></trkpt><trkpt lat="40.57862148895443" lon="9.262795794541216"><ele>690.0</ele><time>2026-05-01T14:37:30Z</time></trkpt><trkpt lat="40.57862074001057" lon="9.262694117139896"><ele>690.0</ele><time>2026-05-01T14:37:31Z</time></trkpt><trkpt lat="40.57866897768398" lon="9.262513830121115"><ele>690.0</ele><time>2026-05-01T14:37:33Z</time></trkpt><trkpt lat="40.57869236643223" lon="9.26237724609412"><ele>690.0</ele><time>2026-05-01T14:37:34Z</time></trkpt><trkpt lat="40.57869866619072" lon="9.262233673382065"><ele>690.0</ele><time>2026-05-01T14:37:35Z</time></trkpt><trkpt lat="40.57868443055393" lon="9.262086626474963"><ele>691.2</ele><time>2026-05-01T14:37:36Z</time></trkpt><trkpt lat="40.57869137973882" lon="9.26195022686438"><ele>692.4</ele><time>2026-05-01T14:37:37Z</time></trkpt><trkpt lat="40.578699604212716" lon="9.261820863820404"><ele>693.5999999999999</ele><time>2026-05-01T14:37:38Z</time></trkpt><trkpt lat="40.57870826620416" lon="9.261694251877286"><ele>694.8</ele><time>2026-05-01T14:37:39Z</time></trkpt><trkpt lat="40.57872285976134" lon="9.261574515861216"><ele>696.0</ele><time>2026-05-01T14:37:40Z</time></trkpt><trkpt lat="40.57873491908865" lon="9.261464377654727"><ele>695.5</ele><time>2026-05-01T14:37:41Z</time></trkpt><trkpt lat="40.57874228968689" lon="9.261377692875534"><ele>695.0</ele><time>2026-05-01T14:37:42Z</time></trkpt><trkpt lat="40.57874620744505" lon="9.261237635559052"><ele>694.5</ele><time>2026-05-01T14:37:45Z</time></trkpt><trkpt lat="40.578757618618454" lon="9.261147472424966"><ele>694.0</ele><time>2026-05-01T14:37:48Z</time></trkpt><trkpt lat="40.578767508487296" lon="9.261023925207805"><ele>693.5</ele><time>2026-05-01T14:37:51Z</time></trkpt><trkpt lat="40.57879818118436" lon="9.26092842871255"><ele>693.0</ele><time>2026-05-01T14:37:54Z</time></trkpt><trkpt lat="40.57875074265415" lon="9.260854358936754"><ele>693.0</ele><time>2026-05-01T14:37:56Z</time></trkpt><trkpt lat="40.578816593713846" lon="9.2607461315621"><ele>693.0</ele><time>2026-05-01T14:37:58Z</time></trkpt><trkpt lat="40.578884615929574" lon="9.260679170775306"><ele>693.0</ele><time>2026-05-01T14:37:59Z</time></trkpt><trkpt lat="40.57891493936541" lon="9.26053426635044"><ele>693.0</ele><time>2026-05-01T14:38:00Z</time></trkpt><trkpt lat="40.578951986952234" lon="9.260392802881585"><ele>693.0</ele><time>2026-05-01T14:38:01Z</time></trkpt><trkpt lat="40.57898568022272" lon="9.260249706921515"><ele>691.5999999999999</ele><time>2026-05-01T14:38:02Z</time></trkpt><trkpt lat="40.57902631131249" lon="9.26013298885848"><ele>690.1999999999999</ele><time>2026-05-01T14:38:03Z</time></trkpt><trkpt lat="40.579073315920645" lon="9.26002468204562"><ele>688.8</ele><time>2026-05-01T14:38:04Z</time></trkpt><trkpt lat="40.57914665502526" lon="9.259948647604281"><ele>687.4</ele><time>2026-05-01T14:38:05Z</time></trkpt><trkpt lat="40.57921771677091" lon="9.259852206097802"><ele>686.0</ele><time>2026-05-01T14:38:06Z</time></trkpt><trkpt lat="40.579290028691446" lon="9.259750645445306"><ele>685.1999999999999</ele><time>2026-05-01T14:38:07Z</time></trkpt><trkpt lat="40.57936239999317" lon="9.259649001297179"><ele>684.4</ele><time>2026-05-01T14:38:08Z</time></trkpt><trkpt lat="40.57943338305097" lon="9.259548998857175"><ele>683.6</ele><time>2026-05-01T14:38:09Z</time></trkpt><trkpt lat="40.57951774416141" lon="9.259466580048741"><ele>682.8</ele><time>2026-05-01T14:38:10Z</time></trkpt><trkpt lat="40.57960842935492" lon="9.259392293161195"><ele>682.0</ele><time>2026-05-01T14:38:11Z</time></trkpt><trkpt lat="40.57969886807871" lon="9.259323624540293"><ele>682.0</ele><time>2026-05-01T14:38:12Z</time></trkpt><trkpt lat="40.579783519824055" lon="9.259260678324114"><ele>682.0</ele><time>2026-05-01T14:38:13Z</time></trkpt><trkpt lat="40.579861836123925" lon="9.259196173915647"><ele>682.0</ele><time>2026-05-01T14:38:14Z</time></trkpt><trkpt lat="40.57994940728011" lon="9.259127497402982"><ele>682.0</ele><time>2026-05-01T14:38:15Z</time></trkpt><trkpt lat="40.580053388655585" lon="9.259059536620414"><ele>682.0</ele><time>2026-05-01T14:38:16Z</time></trkpt><trkpt lat="40.580158566525945" lon="9.258973227105285"><ele>679.75</ele><time>2026-05-01T14:38:17Z</time></trkpt><trkpt lat="40.58025988144409" lon="9.258865772402224"><ele>677.5</ele><time>2026-05-01T14:38:18Z</time></trkpt><trkpt lat="40.58035931405635" lon="9.258735938538122"><ele>675.25</ele><time>2026-05-01T14:38:19Z</time></trkpt><trkpt lat="40.58046665839451" lon="9.258608720555877"><ele>673.0</ele><time>2026-05-01T14:38:20Z</time></trkpt><trkpt lat="40.58058906001913" lon="9.258504148074056"><ele>673.0</ele><time>2026-05-01T14:38:21Z</time></trkpt><trkpt lat="40.58072695639545" lon="9.258431015284428"><ele>673.0</ele><time>2026-05-01T14:38:22Z</time></trkpt><trkpt lat="40.58086104471725" lon="9.258348598276582"><ele>673.0</ele><time>2026-05-01T14:38:23Z</time></trkpt><trkpt lat="40.58098917288642" lon="9.258246385549938"><ele>673.0</ele><time>2026-05-01T14:38:24Z</time></trkpt><trkpt lat="40.58110666798778" lon="9.258120840620283"><ele>673.3333333333334</ele><time>2026-05-01T14:38:25Z</time></trkpt><trkpt lat="40.581212731598875" lon="9.257972165996042"><ele>673.6666666666666</ele><time>2026-05-01T14:38:26Z</time></trkpt><trkpt lat="40.581321801963725" lon="9.257823063685322"><ele>674.0</ele><time>2026-05-01T14:38:27Z</time></trkpt><trkpt lat="40.58143024799387" lon="9.257673836752637"><ele>674.0</ele><time>2026-05-01T14:38:28Z</time></trkpt><trkpt lat="40.581534361534025" lon="9.257531425380277"><ele>674.0</ele><time>2026-05-01T14:38:29Z</time></trkpt><trkpt lat="40.58163361293816" lon="9.257392000436262"><ele>674.0</ele><time>2026-05-01T14:38:30Z</time></trkpt><trkpt lat="40.58173111639069" lon="9.25725616056984"><ele>674.0</ele><time>2026-05-01T14:38:31Z</time></trkpt><trkpt lat="40.581830455861976" lon="9.257135395104902"><ele>671.0</ele><time>2026-05-01T14:38:32Z</time></trkpt><trkpt lat="40.581948610957994" lon="9.257025317409852"><ele>668.0</ele><time>2026-05-01T14:38:33Z</time></trkpt><trkpt lat="40.58208992281978" lon="9.256934669744394"><ele>665.0</ele><time>2026-05-01T14:38:34Z</time></trkpt><trkpt lat="40.58224735861778" lon="9.256860238941904"><ele>665.0</ele><time>2026-05-01T14:38:35Z</time></trkpt><trkpt lat="40.58241068760792" lon="9.25678185886858"><ele>665.0</ele><time>2026-05-01T14:38:36Z</time></trkpt><trkpt lat="40.58257605863253" lon="9.256699877287437"><ele>665.0</ele><time>2026-05-01T14:38:37Z</time></trkpt><trkpt lat="40.582744218823414" lon="9.256613055221488"><ele>664.3333333333333</ele><time>2026-05-01T14:38:38Z</time></trkpt><trkpt lat="40.582915892133315" lon="9.256524543001534"><ele>663.6666666666666</ele><time>2026-05-01T14:38:39Z</time></trkpt><trkpt lat="40.5830898852324" lon="9.256434323101907"><ele>663.0</ele><time>2026-05-01T14:38:40Z</time></trkpt><trkpt lat="40.58326557505167" lon="9.256340813010885"><ele>662.6666666666666</ele><time>2026-05-01T14:38:41Z</time></trkpt><trkpt lat="40.58344247466819" lon="9.256250015068913"><ele>662.3333333333333</ele><time>2026-05-01T14:38:42Z</time></trkpt><trkpt lat="40.583608118578496" lon="9.256152970910295"><ele>662.0</ele><time>2026-05-01T14:38:43Z</time></trkpt><trkpt lat="40.58372996872855" lon="9.25603675726908"><ele>664.6666666666666</ele><time>2026-05-01T14:38:44Z</time></trkpt><trkpt lat="40.58381018597277" lon="9.255876092218648"><ele>667.3333333333334</ele><time>2026-05-01T14:38:45Z</time></trkpt><trkpt lat="40.583848952717744" lon="9.255653849032864"><ele>670.0</ele><time>2026-05-01T14:38:46Z</time></trkpt><trkpt lat="40.58387326639029" lon="9.255404400286972"><ele>670.0</ele><time>2026-05-01T14:38:47Z</time></trkpt><trkpt lat="40.58388841834043" lon="9.255139114063875"><ele>670.0</ele><time>2026-05-01T14:38:48Z</time></trkpt><trkpt lat="40.58394676035073" lon="9.254912712418783"><ele>670.0</ele><time>2026-05-01T14:38:49Z</time></trkpt><trkpt lat="40.58403851993637" lon="9.254723977101573"><ele>669.0</ele><time>2026-05-01T14:38:50Z</time></trkpt><trkpt lat="40.58414721001001" lon="9.254511640544134"><ele>668.0</ele><time>2026-05-01T14:38:51Z</time></trkpt><trkpt lat="40.58427497191365" lon="9.25440059333057"><ele>667.0</ele><time>2026-05-01T14:38:52Z</time></trkpt><trkpt lat="40.58437365008927" lon="9.254334337519953"><ele>665.3333333333334</ele><time>2026-05-01T14:38:53Z</time></trkpt><trkpt lat="40.584520237909445" lon="9.254335108862016"><ele>663.6666666666666</ele><time>2026-05-01T14:38:54Z</time></trkpt><trkpt lat="40.584688804295396" lon="9.254392038797864"><ele>662.0</ele><time>2026-05-01T14:38:55Z</time></trkpt><trkpt lat="40.584848589096495" lon="9.254549810662727"><ele>662.0</ele><time>2026-05-01T14:38:56Z</time></trkpt><trkpt lat="40.585019843448535" lon="9.254702434632215"><ele>662.0</ele><time>2026-05-01T14:38:57Z</time></trkpt><trkpt lat="40.58514750869379" lon="9.254848407592851"><ele>662.0</ele><time>2026-05-01T14:38:58Z</time></trkpt><trkpt lat="40.58522197623276" lon="9.255023731587123"><ele>663.6666666666666</ele><time>2026-05-01T14:38:59Z</time></trkpt><trkpt lat="40.5852250149872" lon="9.255235707535114"><ele>665.3333333333334</ele><time>2026-05-01T14:39:00Z</time></trkpt><trkpt lat="40.58524470900521" lon="9.255487363478494"><ele>667.0</ele><time>2026-05-01T14:39:01Z</time></trkpt><trkpt lat="40.58527481579184" lon="9.255777231042638"><ele>660.0</ele><time>2026-05-01T14:39:02Z</time></trkpt><trkpt lat="40.58536792365413" lon="9.256050933614029"><ele>653.0</ele><time>2026-05-01T14:39:03Z</time></trkpt><trkpt lat="40.58549840263304" lon="9.25633207542662"><ele>654.0</ele><time>2026-05-01T14:39:04Z</time></trkpt><trkpt lat="40.58561760946426" lon="9.256571425457693"><ele>655.0</ele><time>2026-05-01T14:39:05Z</time></trkpt><trkpt lat="40.585706649173844" lon="9.2567936142591"><ele>656.0</ele><time>2026-05-01T14:39:06Z</time></trkpt><trkpt lat="40.585775865316556" lon="9.25701745135184"><ele>656.0</ele><time>2026-05-01T14:39:07Z</time></trkpt><trkpt lat="40.585829630607186" lon="9.257233576204067"><ele>656.0</ele><time>2026-05-01T14:39:08Z</time></trkpt><trkpt lat="40.58587761850151" lon="9.25743603851633"><ele>656.0</ele><time>2026-05-01T14:39:09Z</time></trkpt><trkpt lat="40.58592050209462" lon="9.257634490498939"><ele>656.0</ele><time>2026-05-01T14:39:10Z</time></trkpt><trkpt lat="40.585947588906876" lon="9.257794157218774"><ele>656.0</ele><time>2026-05-01T14:39:11Z</time></trkpt><trkpt lat="40.58593626626985" lon="9.257918624562073"><ele>656.0</ele><time>2026-05-01T14:39:12Z</time></trkpt><trkpt lat="40.585926259439255" lon="9.258051582121848"><ele>656.0</ele><time>2026-05-01T14:39:13Z</time></trkpt><trkpt lat="40.58591433375402" lon="9.258280483354365"><ele>656.0</ele><time>2026-05-01T14:39:14Z</time></trkpt><trkpt lat="40.58595376902613" lon="9.258573655320554"><ele>656.0</ele><time>2026-05-01T14:39:15Z</time></trkpt><trkpt lat="40.585975409009826" lon="9.25889014962036"><ele>655.6666666666666</ele><time>2026-05-01T14:39:16Z</time></trkpt><trkpt lat="40.58599009883959" lon="9.259166230439163"><ele>655.3333333333334</ele><time>2026-05-01T14:39:17Z</time></trkpt><trkpt lat="40.586032277657495" lon="9.259418731523118"><ele>655.0</ele><time>2026-05-01T14:39:18Z</time></trkpt><trkpt lat="40.58613914667748" lon="9.259652086903822"><ele>649.0</ele><time>2026-05-01T14:39:19Z</time></trkpt><trkpt lat="40.58628653906649" lon="9.259896457683567"><ele>643.0</ele><time>2026-05-01T14:39:20Z</time></trkpt><trkpt lat="40.58645878156775" lon="9.260164912906056"><ele>643.0</ele><time>2026-05-01T14:39:21Z</time></trkpt><trkpt lat="40.58663374739193" lon="9.260474817902628"><ele>643.0</ele><time>2026-05-01T14:39:22Z</time></trkpt><trkpt lat="40.58680837153177" lon="9.260808512372147"><ele>643.0</ele><time>2026-05-01T14:39:23Z</time></trkpt><trkpt lat="40.58696216402656" lon="9.261124608780014"><ele>643.0</ele><time>2026-05-01T14:39:24Z</time></trkpt><trkpt lat="40.58710178190128" lon="9.26141908076205"><ele>642.0</ele><time>2026-05-01T14:39:25Z</time></trkpt><trkpt lat="40.587236839946854" lon="9.261694032026485"><ele>641.0</ele><time>2026-05-01T14:39:26Z</time></trkpt><trkpt lat="40.58736738753048" lon="9.261955624658631"><ele>641.0</ele><time>2026-05-01T14:39:27Z</time></trkpt><trkpt lat="40.58749688591197" lon="9.262214179747799"><ele>641.0</ele><time>2026-05-01T14:39:28Z</time></trkpt><trkpt lat="40.58762988942243" lon="9.262461479149703"><ele>641.0</ele><time>2026-05-01T14:39:29Z</time></trkpt><trkpt lat="40.587771555486526" lon="9.262693243603303"><ele>641.0</ele><time>2026-05-01T14:39:30Z</time></trkpt><trkpt lat="40.58792235988055" lon="9.262912772658755"><ele>639.0</ele><time>2026-05-01T14:39:31Z</time></trkpt><trkpt lat="40.58807225821998" lon="9.26313170267836"><ele>637.0</ele><time>2026-05-01T14:39:32Z</time></trkpt><trkpt lat="40.58822344103245" lon="9.263355096067093"><ele>637.0</ele><time>2026-05-01T14:39:33Z</time></trkpt><trkpt lat="40.58837566454175" lon="9.26358279496195"><ele>637.0</ele><time>2026-05-01T14:39:34Z</time></trkpt><trkpt lat="40.588524798467425" lon="9.263812430319419"><ele>638.0</ele><time>2026-05-01T14:39:35Z</time></trkpt><trkpt lat="40.58867662834721" lon="9.26404704180672"><ele>639.0</ele><time>2026-05-01T14:39:36Z</time></trkpt><trkpt lat="40.58883099981878" lon="9.264281760422312"><ele>639.0</ele><time>2026-05-01T14:39:37Z</time></trkpt><trkpt lat="40.58898568641874" lon="9.26451202915267"><ele>639.0</ele><time>2026-05-01T14:39:38Z</time></trkpt><trkpt lat="40.58914293471626" lon="9.264732470780142"><ele>637.0</ele><time>2026-05-01T14:39:39Z</time></trkpt><trkpt lat="40.58930611646231" lon="9.264943596687738"><ele>635.0</ele><time>2026-05-01T14:39:40Z</time></trkpt><trkpt lat="40.58947341484504" lon="9.26513343822704"><ele>635.3333333333333</ele><time>2026-05-01T14:39:41Z</time></trkpt><trkpt lat="40.58964142378777" lon="9.265296900846813"><ele>635.6666666666666</ele><time>2026-05-01T14:39:42Z</time></trkpt><trkpt lat="40.58981071532823" lon="9.265445256835598"><ele>636.0</ele><time>2026-05-01T14:39:43Z</time></trkpt><trkpt lat="40.590003328468484" lon="9.265562864504734"><ele>633.3333333333334</ele><time>2026-05-01T14:39:44Z</time></trkpt><trkpt lat="40.59021332149907" lon="9.26564603788068"><ele>630.6666666666667</ele><time>2026-05-01T14:39:45Z</time></trkpt><trkpt lat="40.59043844555113" lon="9.265675071207154"><ele>628.0</ele><time>2026-05-01T14:39:46Z</time></trkpt><trkpt lat="40.590665324515925" lon="9.265650180478989"><ele>628.5</ele><time>2026-05-01T14:39:47Z</time></trkpt><trkpt lat="40.590889059805406" lon="9.26557245049933"><ele>629.0</ele><time>2026-05-01T14:39:48Z</time></trkpt><trkpt lat="40.59111626137569" lon="9.26547686880349"><ele>625.6666666666666</ele><time>2026-05-01T14:39:49Z</time></trkpt><trkpt lat="40.59133103556472" lon="9.2653707084858"><ele>622.3333333333334</ele><time>2026-05-01T14:39:50Z</time></trkpt><trkpt lat="40.59153945667264" lon="9.265360636177244"><ele>619.0</ele><time>2026-05-01T14:39:51Z</time></trkpt><trkpt lat="40.591758222483726" lon="9.265434417085478"><ele>619.0</ele><time>2026-05-01T14:39:52Z</time></trkpt><trkpt lat="40.591998861451" lon="9.265476410191846"><ele>619.0</ele><time>2026-05-01T14:39:53Z</time></trkpt><trkpt lat="40.59225415542136" lon="9.265546270343986"><ele>617.0</ele><time>2026-05-01T14:39:54Z</time></trkpt><trkpt lat="40.59249890429298" lon="9.265617893261938"><ele>615.0</ele><time>2026-05-01T14:39:55Z</time></trkpt><trkpt lat="40.59274772783958" lon="9.265679659448262"><ele>614.5</ele><time>2026-05-01T14:39:56Z</time></trkpt><trkpt lat="40.592998663284845" lon="9.265746218823729"><ele>614.0</ele><time>2026-05-01T14:39:57Z</time></trkpt><trkpt lat="40.59325619193492" lon="9.265816077502215"><ele>614.0</ele><time>2026-05-01T14:39:58Z</time></trkpt><trkpt lat="40.593522299507036" lon="9.265891004147967"><ele>614.0</ele><time>2026-05-01T14:39:59Z</time></trkpt><trkpt lat="40.593799411458896" lon="9.265962248642957"><ele>613.5</ele><time>2026-05-01T14:40:00Z</time></trkpt><trkpt lat="40.59406975064174" lon="9.266035724677684"><ele>613.0</ele><time>2026-05-01T14:40:01Z</time></trkpt><trkpt lat="40.594344217046086" lon="9.266107028096865"><ele>613.0</ele><time>2026-05-01T14:40:02Z</time></trkpt><trkpt lat="40.594613698464634" lon="9.266176143701362"><ele>613.0</ele><time>2026-05-01T14:40:03Z</time></trkpt><trkpt lat="40.59488098695437" lon="9.266256862175185"><ele>613.0</ele><time>2026-05-01T14:40:04Z</time></trkpt><trkpt lat="40.59514289651736" lon="9.266324970640195"><ele>613.0</ele><time>2026-05-01T14:40:05Z</time></trkpt><trkpt lat="40.59539108494312" lon="9.266394361506526"><ele>614.0</ele><time>2026-05-01T14:40:06Z</time></trkpt><trkpt lat="40.59562756343164" lon="9.266449560044746"><ele>615.0</ele><time>2026-05-01T14:40:07Z</time></trkpt><trkpt lat="40.59586431384489" lon="9.266511956590296"><ele>615.0</ele><time>2026-05-01T14:40:08Z</time></trkpt><trkpt lat="40.59610052622995" lon="9.266574791913742"><ele>615.0</ele><time>2026-05-01T14:40:09Z</time></trkpt><trkpt lat="40.59634342062377" lon="9.26664504976718"><ele>613.5</ele><time>2026-05-01T14:40:10Z</time></trkpt><trkpt lat="40.59659165134413" lon="9.26673210426349"><ele>612.0</ele><time>2026-05-01T14:40:11Z</time></trkpt><trkpt lat="40.59683890503223" lon="9.26683777245871"><ele>611.5</ele><time>2026-05-01T14:40:12Z</time></trkpt><trkpt lat="40.597087250425055" lon="9.266958762500245"><ele>611.0</ele><time>2026-05-01T14:40:13Z</time></trkpt><trkpt lat="40.597338684947516" lon="9.267088387050725"><ele>611.0</ele><time>2026-05-01T14:40:14Z</time></trkpt><trkpt lat="40.59759469545396" lon="9.267218417995757"><ele>611.0</ele><time>2026-05-01T14:40:15Z</time></trkpt><trkpt lat="40.597850506701704" lon="9.267346751025087"><ele>612.5</ele><time>2026-05-01T14:40:16Z</time></trkpt><trkpt lat="40.5981083389764" lon="9.267473448790506"><ele>614.0</ele><time>2026-05-01T14:40:17Z</time></trkpt><trkpt lat="40.59836548381798" lon="9.267601696809736"><ele>614.0</ele><time>2026-05-01T14:40:18Z</time></trkpt><trkpt lat="40.59862245544262" lon="9.267730645745017"><ele>614.0</ele><time>2026-05-01T14:40:19Z</time></trkpt><trkpt lat="40.59887785364429" lon="9.267858576634787"><ele>613.5</ele><time>2026-05-01T14:40:20Z</time></trkpt><trkpt lat="40.59913400805519" lon="9.26798425570778"><ele>613.0</ele><time>2026-05-01T14:40:21Z</time></trkpt><trkpt lat="40.59938827403184" lon="9.268111261680358"><ele>612.0</ele><time>2026-05-01T14:40:22Z</time></trkpt><trkpt lat="40.599640327449244" lon="9.268235809526127"><ele>611.0</ele><time>2026-05-01T14:40:23Z</time></trkpt><trkpt lat="40.59988965547395" lon="9.268358658067887"><ele>611.0</ele><time>2026-05-01T14:40:24Z</time></trkpt><trkpt lat="40.600123208041566" lon="9.268474685835987"><ele>611.0</ele><time>2026-05-01T14:40:25Z</time></trkpt><trkpt lat="40.60034607563938" lon="9.268585409373369"><ele>612.0</ele><time>2026-05-01T14:40:26Z</time></trkpt><trkpt lat="40.60056829007133" lon="9.26869728369522"><ele>613.0</ele><time>2026-05-01T14:40:27Z</time></trkpt><trkpt lat="40.60078563839257" lon="9.268807524753147"><ele>613.0</ele><time>2026-05-01T14:40:28Z</time></trkpt><trkpt lat="40.6010000152697" lon="9.268917931338654"><ele>613.0</ele><time>2026-05-01T14:40:29Z</time></trkpt><trkpt lat="40.601217915748514" lon="9.269033852424403"><ele>614.0</ele><time>2026-05-01T14:40:30Z</time></trkpt><trkpt lat="40.60143855523378" lon="9.269152742943598"><ele>615.0</ele><time>2026-05-01T14:40:31Z</time></trkpt><trkpt lat="40.601654384770455" lon="9.269270736554255"><ele>615.0</ele><time>2026-05-01T14:40:32Z</time></trkpt><trkpt lat="40.60186470158768" lon="9.269387844330652"><ele>615.0</ele><time>2026-05-01T14:40:33Z</time></trkpt><trkpt lat="40.602073874785205" lon="9.269503907438693"><ele>614.0</ele><time>2026-05-01T14:40:34Z</time></trkpt><trkpt lat="40.602285509570486" lon="9.269620855494074"><ele>613.0</ele><time>2026-05-01T14:40:35Z</time></trkpt><trkpt lat="40.60249905740349" lon="9.26973548435202"><ele>614.0</ele><time>2026-05-01T14:40:36Z</time></trkpt><trkpt lat="40.602715305856066" lon="9.26985647164261"><ele>615.0</ele><time>2026-05-01T14:40:37Z</time></trkpt><trkpt lat="40.60293045763292" lon="9.269997013175546"><ele>615.3333333333334</ele><time>2026-05-01T14:40:38Z</time></trkpt><trkpt lat="40.60312631487724" lon="9.270145327886528"><ele>615.6666666666667</ele><time>2026-05-01T14:40:39Z</time></trkpt><trkpt lat="40.60329976517013" lon="9.27028912570826"><ele>616.0</ele><time>2026-05-01T14:40:40Z</time></trkpt><trkpt lat="40.60345620886623" lon="9.270431755238645"><ele>616.0</ele><time>2026-05-01T14:40:41Z</time></trkpt><trkpt lat="40.6035999006013" lon="9.270566472141603"><ele>616.0</ele><time>2026-05-01T14:40:42Z</time></trkpt><trkpt lat="40.603741844626" lon="9.270715086648675"><ele>616.0</ele><time>2026-05-01T14:40:43Z</time></trkpt><trkpt lat="40.603896855857016" lon="9.270878468939758"><ele>616.6666666666667</ele><time>2026-05-01T14:40:44Z</time></trkpt><trkpt lat="40.60405677919743" lon="9.271061939065724"><ele>617.3333333333334</ele><time>2026-05-01T14:40:45Z</time></trkpt><trkpt lat="40.604222537908235" lon="9.271267017610718"><ele>618.0</ele><time>2026-05-01T14:40:46Z</time></trkpt><trkpt lat="40.604391899286156" lon="9.271478897992937"><ele>617.0</ele><time>2026-05-01T14:40:47Z</time></trkpt><trkpt lat="40.60456846637144" lon="9.271715154199105"><ele>616.0</ele><time>2026-05-01T14:40:48Z</time></trkpt><trkpt lat="40.60496452461375" lon="9.272179962419587"><ele>616.5</ele><time>2026-05-01T14:40:50Z</time></trkpt><trkpt lat="40.605171235533646" lon="9.272422463094141"><ele>617.0</ele><time>2026-05-01T14:40:51Z</time></trkpt><trkpt lat="40.605385947756915" lon="9.272670984032528"><ele>617.0</ele><time>2026-05-01T14:40:52Z</time></trkpt><trkpt lat="40.60560603112877" lon="9.272925643158784"><ele>617.0</ele><time>2026-05-01T14:40:53Z</time></trkpt><trkpt lat="40.60583463285877" lon="9.27318257776967"><ele>616.5</ele><time>2026-05-01T14:40:54Z</time></trkpt><trkpt lat="40.60606978762418" lon="9.273443183997106"><ele>616.0</ele><time>2026-05-01T14:40:55Z</time></trkpt><trkpt lat="40.60631407651112" lon="9.273716756412398"><ele>617.5</ele><time>2026-05-01T14:40:56Z</time></trkpt><trkpt lat="40.606560275620225" lon="9.273994382767416"><ele>619.0</ele><time>2026-05-01T14:40:57Z</time></trkpt><trkpt lat="40.606815572752026" lon="9.27428246888987"><ele>619.0</ele><time>2026-05-01T14:40:58Z</time></trkpt><trkpt lat="40.6070747586108" lon="9.274569781246885"><ele>619.0</ele><time>2026-05-01T14:40:59Z</time></trkpt><trkpt lat="40.60734159578283" lon="9.274872681134953"><ele>619.0</ele><time>2026-05-01T14:41:00Z</time></trkpt><trkpt lat="40.607604557614636" lon="9.275181230028693"><ele>619.0</ele><time>2026-05-01T14:41:01Z</time></trkpt><trkpt lat="40.60786495041257" lon="9.275500723484706"><ele>619.5</ele><time>2026-05-01T14:41:02Z</time></trkpt><trkpt lat="40.60811528892801" lon="9.275791553154576"><ele>620.0</ele><time>2026-05-01T14:41:03Z</time></trkpt><trkpt lat="40.60837453928303" lon="9.27608484790668"><ele>620.0</ele><time>2026-05-01T14:41:04Z</time></trkpt><trkpt lat="40.60865579799826" lon="9.276350675521504"><ele>620.0</ele><time>2026-05-01T14:41:05Z</time></trkpt><trkpt lat="40.60892006953301" lon="9.276644171880307"><ele>620.5</ele><time>2026-05-01T14:41:06Z</time></trkpt><trkpt lat="40.60918108089918" lon="9.27694575368968"><ele>621.0</ele><time>2026-05-01T14:41:07Z</time></trkpt><trkpt lat="40.60944392276041" lon="9.277232633627495"><ele>621.0</ele><time>2026-05-01T14:41:08Z</time></trkpt><trkpt lat="40.609701347850866" lon="9.277510266362661"><ele>621.0</ele><time>2026-05-01T14:41:09Z</time></trkpt><trkpt lat="40.60995884726677" lon="9.277781120264105"><ele>621.0</ele><time>2026-05-01T14:41:10Z</time></trkpt><trkpt lat="40.61021475905273" lon="9.278046637361758"><ele>621.0</ele><time>2026-05-01T14:41:11Z</time></trkpt><trkpt lat="40.61046765666653" lon="9.278299354068151"><ele>621.5</ele><time>2026-05-01T14:41:12Z</time></trkpt><trkpt lat="40.61071865512848" lon="9.278536790432184"><ele>622.0</ele><time>2026-05-01T14:41:13Z</time></trkpt><trkpt lat="40.61094936859006" lon="9.278901255802795"><ele>623.0</ele><time>2026-05-01T14:41:14Z</time></trkpt><trkpt lat="40.61118369848621" lon="9.279132413065287"><ele>624.0</ele><time>2026-05-01T14:41:15Z</time></trkpt><trkpt lat="40.61141590357219" lon="9.27940614682767"><ele>624.0</ele><time>2026-05-01T14:41:16Z</time></trkpt><trkpt lat="40.61164439719555" lon="9.279667830488826"><ele>624.0</ele><time>2026-05-01T14:41:17Z</time></trkpt><trkpt lat="40.61187244204631" lon="9.279926654081471"><ele>622.0</ele><time>2026-05-01T14:41:18Z</time></trkpt><trkpt lat="40.61209997856038" lon="9.280179580329696"><ele>620.0</ele><time>2026-05-01T14:41:19Z</time></trkpt><trkpt lat="40.61232666610252" lon="9.280433255279995"><ele>620.0</ele><time>2026-05-01T14:41:20Z</time></trkpt><trkpt lat="40.612554358432654" lon="9.280688124185348"><ele>620.0</ele><time>2026-05-01T14:41:21Z</time></trkpt><trkpt lat="40.612780334652285" lon="9.28095248241416"><ele>620.5</ele><time>2026-05-01T14:41:22Z</time></trkpt><trkpt lat="40.613008802904695" lon="9.281209662357348"><ele>621.0</ele><time>2026-05-01T14:41:23Z</time></trkpt><trkpt lat="40.613239927498185" lon="9.281468760146543"><ele>622.0</ele><time>2026-05-01T14:41:24Z</time></trkpt><trkpt lat="40.61347294755824" lon="9.281729302508227"><ele>623.0</ele><time>2026-05-01T14:41:25Z</time></trkpt><trkpt lat="40.61370861041742" lon="9.281989506385598"><ele>624.0</ele><time>2026-05-01T14:41:26Z</time></trkpt><trkpt lat="40.61394475793163" lon="9.282256407652703"><ele>625.0</ele><time>2026-05-01T14:41:27Z</time></trkpt><trkpt lat="40.61418406028849" lon="9.282524935282469"><ele>627.0</ele><time>2026-05-01T14:41:28Z</time></trkpt><trkpt lat="40.61442635464249" lon="9.282794270161965"><ele>629.0</ele><time>2026-05-01T14:41:29Z</time></trkpt><trkpt lat="40.614671101579454" lon="9.28306590554289"><ele>630.5</ele><time>2026-05-01T14:41:30Z</time></trkpt><trkpt lat="40.61491624928542" lon="9.283340687155714"><ele>632.0</ele><time>2026-05-01T14:41:31Z</time></trkpt><trkpt lat="40.61516370473556" lon="9.28361129143666"><ele>633.0</ele><time>2026-05-01T14:41:32Z</time></trkpt><trkpt lat="40.61540796175709" lon="9.283884364936865"><ele>634.0</ele><time>2026-05-01T14:41:33Z</time></trkpt><trkpt lat="40.615652098676264" lon="9.284157462422717"><ele>634.0</ele><time>2026-05-01T14:41:34Z</time></trkpt><trkpt lat="40.615890662419744" lon="9.284432541253326"><ele>634.0</ele><time>2026-05-01T14:41:35Z</time></trkpt><trkpt lat="40.61612705674379" lon="9.284702069255024"><ele>633.0</ele><time>2026-05-01T14:41:36Z</time></trkpt><trkpt lat="40.616356816608054" lon="9.28495882681495"><ele>632.0</ele><time>2026-05-01T14:41:37Z</time></trkpt><trkpt lat="40.61657553248143" lon="9.285196416322387"><ele>632.0</ele><time>2026-05-01T14:41:38Z</time></trkpt><trkpt lat="40.61679056687843" lon="9.28541974439819"><ele>632.0</ele><time>2026-05-01T14:41:39Z</time></trkpt><trkpt lat="40.61700956122683" lon="9.285653379885252"><ele>631.0</ele><time>2026-05-01T14:41:40Z</time></trkpt><trkpt lat="40.61723298470649" lon="9.285894698323814"><ele>630.0</ele><time>2026-05-01T14:41:41Z</time></trkpt><trkpt lat="40.6174570594412" lon="9.28614389019511"><ele>630.0</ele><time>2026-05-01T14:41:42Z</time></trkpt><trkpt lat="40.61768311276568" lon="9.286398543596968"><ele>630.0</ele><time>2026-05-01T14:41:43Z</time></trkpt><trkpt lat="40.61790550463604" lon="9.286653701391163"><ele>630.5</ele><time>2026-05-01T14:41:44Z</time></trkpt><trkpt lat="40.61812148340062" lon="9.286907762231483"><ele>631.0</ele><time>2026-05-01T14:41:45Z</time></trkpt><trkpt lat="40.61833949625603" lon="9.28715639650416"><ele>631.5</ele><time>2026-05-01T14:41:46Z</time></trkpt><trkpt lat="40.6185586705231" lon="9.287404380448574"><ele>632.0</ele><time>2026-05-01T14:41:47Z</time></trkpt><trkpt lat="40.61878243067659" lon="9.28765352981154"><ele>632.0</ele><time>2026-05-01T14:41:48Z</time></trkpt><trkpt lat="40.619009020125446" lon="9.287902658391582"><ele>632.0</ele><time>2026-05-01T14:41:49Z</time></trkpt><trkpt lat="40.619237132461194" lon="9.288153833789117"><ele>632.0</ele><time>2026-05-01T14:41:50Z</time></trkpt><trkpt lat="40.61946565351459" lon="9.2884074518204"><ele>632.0</ele><time>2026-05-01T14:41:51Z</time></trkpt><trkpt lat="40.61969933946661" lon="9.288666926327162"><ele>631.5</ele><time>2026-05-01T14:41:52Z</time></trkpt><trkpt lat="40.619939128173314" lon="9.288934466490758"><ele>631.0</ele><time>2026-05-01T14:41:53Z</time></trkpt><trkpt lat="40.62018205131859" lon="9.289206742175493"><ele>631.0</ele><time>2026-05-01T14:41:54Z</time></trkpt><trkpt lat="40.62042853630184" lon="9.2894849103696"><ele>631.0</ele><time>2026-05-01T14:41:55Z</time></trkpt><trkpt lat="40.620673176612996" lon="9.289773120706615"><ele>631.5</ele><time>2026-05-01T14:41:56Z</time></trkpt><trkpt lat="40.62091569585537" lon="9.290072210535003"><ele>632.0</ele><time>2026-05-01T14:41:57Z</time></trkpt><trkpt lat="40.62115801114404" lon="9.290378155320708"><ele>632.5</ele><time>2026-05-01T14:41:58Z</time></trkpt><trkpt lat="40.6213970193858" lon="9.290689191244306"><ele>633.0</ele><time>2026-05-01T14:41:59Z</time></trkpt><trkpt lat="40.621630164518066" lon="9.291003651173037"><ele>633.0</ele><time>2026-05-01T14:42:00Z</time></trkpt><trkpt lat="40.62184635211698" lon="9.291303693880923"><ele>633.0</ele><time>2026-05-01T14:42:01Z</time></trkpt><trkpt lat="40.62204474971631" lon="9.29159870932032"><ele>633.5</ele><time>2026-05-01T14:42:02Z</time></trkpt><trkpt lat="40.62224589901959" lon="9.291908264057485"><ele>634.0</ele><time>2026-05-01T14:42:03Z</time></trkpt><trkpt lat="40.62244704868779" lon="9.292229330862265"><ele>633.5</ele><time>2026-05-01T14:42:04Z</time></trkpt><trkpt lat="40.62264465976154" lon="9.292559596616215"><ele>633.0</ele><time>2026-05-01T14:42:05Z</time></trkpt><trkpt lat="40.622837572696135" lon="9.292890173467661"><ele>634.5</ele><time>2026-05-01T14:42:06Z</time></trkpt><trkpt lat="40.62303160469545" lon="9.293220897602751"><ele>636.0</ele><time>2026-05-01T14:42:07Z</time></trkpt><trkpt lat="40.623228752822804" lon="9.293549895817465"><ele>636.0</ele><time>2026-05-01T14:42:08Z</time></trkpt><trkpt lat="40.6234236402789" lon="9.29387709199038"><ele>636.0</ele><time>2026-05-01T14:42:09Z</time></trkpt><trkpt lat="40.623616892870345" lon="9.294206986287735"><ele>637.5</ele><time>2026-05-01T14:42:10Z</time></trkpt><trkpt lat="40.62380935168595" lon="9.29453285172364"><ele>639.0</ele><time>2026-05-01T14:42:11Z</time></trkpt><trkpt lat="40.62400156928464" lon="9.294857715942037"><ele>639.5</ele><time>2026-05-01T14:42:12Z</time></trkpt><trkpt lat="40.62419379202546" lon="9.295179948744693"><ele>640.0</ele><time>2026-05-01T14:42:13Z</time></trkpt><trkpt lat="40.624383898167025" lon="9.29549763662763"><ele>642.0</ele><time>2026-05-01T14:42:14Z</time></trkpt><trkpt lat="40.624566831125264" lon="9.295807159227119"><ele>644.0</ele><time>2026-05-01T14:42:15Z</time></trkpt><trkpt lat="40.62474387063541" lon="9.296104963051867"><ele>644.0</ele><time>2026-05-01T14:42:16Z</time></trkpt><trkpt lat="40.62491648037889" lon="9.29639566804508"><ele>644.0</ele><time>2026-05-01T14:42:17Z</time></trkpt><trkpt lat="40.62508657303448" lon="9.296679289748564"><ele>644.0</ele><time>2026-05-01T14:42:18Z</time></trkpt><trkpt lat="40.62525680796721" lon="9.296968025067027"><ele>644.0</ele><time>2026-05-01T14:42:19Z</time></trkpt><trkpt lat="40.625426403197615" lon="9.297255686495653"><ele>645.0</ele><time>2026-05-01T14:42:20Z</time></trkpt><trkpt lat="40.62559755869483" lon="9.297545004071807"><ele>646.0</ele><time>2026-05-01T14:42:21Z</time></trkpt><trkpt lat="40.62577556383226" lon="9.297834344077861"><ele>646.5</ele><time>2026-05-01T14:42:22Z</time></trkpt><trkpt lat="40.62596236015353" lon="9.29811666044245"><ele>647.0</ele><time>2026-05-01T14:42:23Z</time></trkpt><trkpt lat="40.62615759690411" lon="9.298393581854898"><ele>647.0</ele><time>2026-05-01T14:42:24Z</time></trkpt><trkpt lat="40.62635342328969" lon="9.298673265694745"><ele>647.0</ele><time>2026-05-01T14:42:25Z</time></trkpt><trkpt lat="40.62655303059775" lon="9.298952958791984"><ele>647.0</ele><time>2026-05-01T14:42:26Z</time></trkpt><trkpt lat="40.626755289617776" lon="9.299237053027634"><ele>647.0</ele><time>2026-05-01T14:42:27Z</time></trkpt><trkpt lat="40.626959773685755" lon="9.299522735445947"><ele>646.5</ele><time>2026-05-01T14:42:28Z</time></trkpt><trkpt lat="40.62716473286207" lon="9.29981360247827"><ele>646.0</ele><time>2026-05-01T14:42:29Z</time></trkpt><trkpt lat="40.62736776714414" lon="9.3001047522148"><ele>646.0</ele><time>2026-05-01T14:42:30Z</time></trkpt><trkpt lat="40.627570628281404" lon="9.300401854136926"><ele>646.0</ele><time>2026-05-01T14:42:31Z</time></trkpt><trkpt lat="40.627772574442425" lon="9.300705094495155"><ele>644.5</ele><time>2026-05-01T14:42:32Z</time></trkpt><trkpt lat="40.627971425519675" lon="9.301015027474664"><ele>643.0</ele><time>2026-05-01T14:42:33Z</time></trkpt><trkpt lat="40.628169300835786" lon="9.301332554202164"><ele>642.5</ele><time>2026-05-01T14:42:34Z</time></trkpt><trkpt lat="40.628359217004956" lon="9.301659995691566"><ele>642.0</ele><time>2026-05-01T14:42:35Z</time></trkpt><trkpt lat="40.628547464176336" lon="9.301990673965223"><ele>642.0</ele><time>2026-05-01T14:42:36Z</time></trkpt><trkpt lat="40.628733640664585" lon="9.302324380008844"><ele>642.0</ele><time>2026-05-01T14:42:37Z</time></trkpt><trkpt lat="40.628917017988755" lon="9.302664402918342"><ele>642.0</ele><time>2026-05-01T14:42:38Z</time></trkpt><trkpt lat="40.62909316447832" lon="9.30301068436737"><ele>642.0</ele><time>2026-05-01T14:42:39Z</time></trkpt><trkpt lat="40.62926702913236" lon="9.303362464080557"><ele>643.0</ele><time>2026-05-01T14:42:40Z</time></trkpt><trkpt lat="40.629438045558175" lon="9.303717217125573"><ele>644.0</ele><time>2026-05-01T14:42:41Z</time></trkpt><trkpt lat="40.629602205632665" lon="9.304075724609907"><ele>644.5</ele><time>2026-05-01T14:42:42Z</time></trkpt><trkpt lat="40.62976302397123" lon="9.304439009727544"><ele>645.0</ele><time>2026-05-01T14:42:43Z</time></trkpt><trkpt lat="40.629918088636565" lon="9.304809454015293"><ele>646.5</ele><time>2026-05-01T14:42:44Z</time></trkpt><trkpt lat="40.63006452980336" lon="9.305187696683031"><ele>648.0</ele><time>2026-05-01T14:42:45Z</time></trkpt><trkpt lat="40.63021002816028" lon="9.305567888448028"><ele>647.5</ele><time>2026-05-01T14:42:46Z</time></trkpt><trkpt lat="40.63035724773165" lon="9.30595131266618"><ele>647.0</ele><time>2026-05-01T14:42:47Z</time></trkpt><trkpt lat="40.630505107872594" lon="9.306334800587667"><ele>648.0</ele><time>2026-05-01T14:42:48Z</time></trkpt><trkpt lat="40.63065651666964" lon="9.306724990642698"><ele>649.0</ele><time>2026-05-01T14:42:49Z</time></trkpt><trkpt lat="40.63080680756856" lon="9.307105023910054"><ele>650.5</ele><time>2026-05-01T14:42:50Z</time></trkpt><trkpt lat="40.63095945238712" lon="9.307484620953286"><ele>652.0</ele><time>2026-05-01T14:42:51Z</time></trkpt><trkpt lat="40.63110958600267" lon="9.307866146749221"><ele>651.5</ele><time>2026-05-01T14:42:52Z</time></trkpt><trkpt lat="40.6312559307219" lon="9.308239779723879"><ele>651.0</ele><time>2026-05-01T14:42:53Z</time></trkpt><trkpt lat="40.631402237145224" lon="9.30860889113264"><ele>650.0</ele><time>2026-05-01T14:42:54Z</time></trkpt><trkpt lat="40.63154810889353" lon="9.308983981383758"><ele>649.0</ele><time>2026-05-01T14:42:55Z</time></trkpt><trkpt lat="40.63169462498428" lon="9.309358132105354"><ele>649.0</ele><time>2026-05-01T14:42:56Z</time></trkpt><trkpt lat="40.63184069578158" lon="9.309735609422644"><ele>649.0</ele><time>2026-05-01T14:42:57Z</time></trkpt><trkpt lat="40.631982978865175" lon="9.310114293505844"><ele>646.5</ele><time>2026-05-01T14:42:58Z</time></trkpt><trkpt lat="40.63212517994144" lon="9.310494221246874"><ele>644.0</ele><time>2026-05-01T14:42:59Z</time></trkpt><trkpt lat="40.632269003962676" lon="9.31087132250788"><ele>644.0</ele><time>2026-05-01T14:43:00Z</time></trkpt><trkpt lat="40.63241108936887" lon="9.31123947219136"><ele>644.0</ele><time>2026-05-01T14:43:01Z</time></trkpt><trkpt lat="40.632555375890014" lon="9.311596230328957"><ele>644.5</ele><time>2026-05-01T14:43:02Z</time></trkpt><trkpt lat="40.632697206895294" lon="9.311948409673214"><ele>645.0</ele><time>2026-05-01T14:43:03Z</time></trkpt><trkpt lat="40.632835447644354" lon="9.312296101325634"><ele>645.0</ele><time>2026-05-01T14:43:04Z</time></trkpt><trkpt lat="40.6329701924545" lon="9.31264074930493"><ele>645.0</ele><time>2026-05-01T14:43:05Z</time></trkpt><trkpt lat="40.63310333678596" lon="9.31298600208383"><ele>645.5</ele><time>2026-05-01T14:43:06Z</time></trkpt><trkpt lat="40.63323728401027" lon="9.313332265446759"><ele>646.0</ele><time>2026-05-01T14:43:07Z</time></trkpt><trkpt lat="40.63337052380115" lon="9.313680915608078"><ele>646.5</ele><time>2026-05-01T14:43:08Z</time></trkpt><trkpt lat="40.63350464656683" lon="9.314033375507845"><ele>647.0</ele><time>2026-05-01T14:43:09Z</time></trkpt><trkpt lat="40.633639685621326" lon="9.314388052688614"><ele>646.5</ele><time>2026-05-01T14:43:10Z</time></trkpt><trkpt lat="40.63377929775702" lon="9.314743381974418"><ele>646.0</ele><time>2026-05-01T14:43:11Z</time></trkpt><trkpt lat="40.63391963558767" lon="9.315100981204148"><ele>646.0</ele><time>2026-05-01T14:43:12Z</time></trkpt><trkpt lat="40.634059862085344" lon="9.31546136105728"><ele>646.0</ele><time>2026-05-01T14:43:13Z</time></trkpt><trkpt lat="40.63420026033205" lon="9.31581726531441"><ele>645.5</ele><time>2026-05-01T14:43:14Z</time></trkpt><trkpt lat="40.63434152547275" lon="9.316179272921293"><ele>645.0</ele><time>2026-05-01T14:43:15Z</time></trkpt><trkpt lat="40.63448138907585" lon="9.316541569293623"><ele>645.0</ele><time>2026-05-01T14:43:16Z</time></trkpt><trkpt lat="40.6346220089538" lon="9.316906104107023"><ele>645.0</ele><time>2026-05-01T14:43:17Z</time></trkpt><trkpt lat="40.63476494596766" lon="9.31727201677212"><ele>646.0</ele><time>2026-05-01T14:43:18Z</time></trkpt><trkpt lat="40.634906421389196" lon="9.317636310422582"><ele>647.0</ele><time>2026-05-01T14:43:19Z</time></trkpt><trkpt lat="40.63504716301328" lon="9.317996425135135"><ele>647.5</ele><time>2026-05-01T14:43:20Z</time></trkpt><trkpt lat="40.63518727072261" lon="9.318354643210052"><ele>648.0</ele><time>2026-05-01T14:43:21Z</time></trkpt><trkpt lat="40.63532319428458" lon="9.318704452369165"><ele>648.0</ele><time>2026-05-01T14:43:22Z</time></trkpt><trkpt lat="40.635457995312784" lon="9.319052640510991"><ele>648.0</ele><time>2026-05-01T14:43:23Z</time></trkpt><trkpt lat="40.63558423798305" lon="9.31938431757408"><ele>648.0</ele><time>2026-05-01T14:43:24Z</time></trkpt><trkpt lat="40.63570709045702" lon="9.319697452960654"><ele>648.0</ele><time>2026-05-01T14:43:25Z</time></trkpt><trkpt lat="40.63583275549513" lon="9.32001625461905"><ele>650.0</ele><time>2026-05-01T14:43:26Z</time></trkpt><trkpt lat="40.635962261152" lon="9.320340089389468"><ele>652.0</ele><time>2026-05-01T14:43:27Z</time></trkpt><trkpt lat="40.63609408224426" lon="9.320669255590738"><ele>653.0</ele><time>2026-05-01T14:43:28Z</time></trkpt><trkpt lat="40.63622583845725" lon="9.321003690694885"><ele>654.0</ele><time>2026-05-01T14:43:29Z</time></trkpt><trkpt lat="40.636356272049746" lon="9.321343606066883"><ele>654.0</ele><time>2026-05-01T14:43:30Z</time></trkpt><trkpt lat="40.63648548731613" lon="9.321691851274755"><ele>654.0</ele><time>2026-05-01T14:43:31Z</time></trkpt><trkpt lat="40.63661634313555" lon="9.322043646810005"><ele>654.5</ele><time>2026-05-01T14:43:32Z</time></trkpt><trkpt lat="40.63675040781792" lon="9.322396874091872"><ele>655.0</ele><time>2026-05-01T14:43:33Z</time></trkpt><trkpt lat="40.63688589826108" lon="9.322754552316516"><ele>657.0</ele><time>2026-05-01T14:43:34Z</time></trkpt><trkpt lat="40.6370255337061" lon="9.323114661179668"><ele>659.0</ele><time>2026-05-01T14:43:35Z</time></trkpt><trkpt lat="40.637164013245226" lon="9.323474869478733"><ele>659.0</ele><time>2026-05-01T14:43:36Z</time></trkpt><trkpt lat="40.63731056285543" lon="9.323844290510642"><ele>659.0</ele><time>2026-05-01T14:43:37Z</time></trkpt><trkpt lat="40.63745329589315" lon="9.324214380776892"><ele>658.5</ele><time>2026-05-01T14:43:38Z</time></trkpt><trkpt lat="40.63759489758418" lon="9.324578490625418"><ele>658.0</ele><time>2026-05-01T14:43:39Z</time></trkpt><trkpt lat="40.637735762525836" lon="9.324935660716045"><ele>657.5</ele><time>2026-05-01T14:43:40Z</time></trkpt><trkpt lat="40.63788232959874" lon="9.3252803930259"><ele>657.0</ele><time>2026-05-01T14:43:41Z</time></trkpt><trkpt lat="40.63804161442508" lon="9.325620526491099"><ele>657.0</ele><time>2026-05-01T14:43:42Z</time></trkpt><trkpt lat="40.63821793256449" lon="9.325946775662585"><ele>657.0</ele><time>2026-05-01T14:43:43Z</time></trkpt><trkpt lat="40.63841299014047" lon="9.326252947061938"><ele>657.5</ele><time>2026-05-01T14:43:44Z</time></trkpt><trkpt lat="40.638622147232205" lon="9.326549357790707"><ele>658.0</ele><time>2026-05-01T14:43:45Z</time></trkpt><trkpt lat="40.63885075372493" lon="9.326825728159742"><ele>658.0</ele><time>2026-05-01T14:43:46Z</time></trkpt><trkpt lat="40.63909855662791" lon="9.32707868900666"><ele>658.0</ele><time>2026-05-01T14:43:47Z</time></trkpt><trkpt lat="40.63936191607568" lon="9.327310589998437"><ele>659.0</ele><time>2026-05-01T14:43:48Z</time></trkpt><trkpt lat="40.639635495394266" lon="9.327517393186907"><ele>660.0</ele><time>2026-05-01T14:43:49Z</time></trkpt><trkpt lat="40.639916614652236" lon="9.32768931936508"><ele>660.0</ele><time>2026-05-01T14:43:50Z</time></trkpt><trkpt lat="40.64019864050606" lon="9.327843001967127"><ele>660.0</ele><time>2026-05-01T14:43:51Z</time></trkpt><trkpt lat="40.64050275845906" lon="9.327969225930886"><ele>658.0</ele><time>2026-05-01T14:43:52Z</time></trkpt><trkpt lat="40.64081489296596" lon="9.328080478210767"><ele>656.0</ele><time>2026-05-01T14:43:53Z</time></trkpt><trkpt lat="40.64113385599973" lon="9.328181752989222"><ele>655.0</ele><time>2026-05-01T14:43:54Z</time></trkpt><trkpt lat="40.64143784113854" lon="9.328270668752063"><ele>654.0</ele><time>2026-05-01T14:43:55Z</time></trkpt><trkpt lat="40.64174873587104" lon="9.328365894376423"><ele>651.5</ele><time>2026-05-01T14:43:56Z</time></trkpt><trkpt lat="40.6420594929588" lon="9.328465006941993"><ele>649.0</ele><time>2026-05-01T14:43:57Z</time></trkpt><trkpt lat="40.642363865493074" lon="9.328566692301958"><ele>649.0</ele><time>2026-05-01T14:43:58Z</time></trkpt><trkpt lat="40.6426632712289" lon="9.32867617248037"><ele>649.0</ele><time>2026-05-01T14:43:59Z</time></trkpt><trkpt lat="40.64294523920964" lon="9.32879747025043"><ele>644.0</ele><time>2026-05-01T14:44:00Z</time></trkpt><trkpt lat="40.643224871864724" lon="9.328921739035868"><ele>639.0</ele><time>2026-05-01T14:44:01Z</time></trkpt><trkpt lat="40.643504768755385" lon="9.32907718429132"><ele>640.0</ele><time>2026-05-01T14:44:02Z</time></trkpt><trkpt lat="40.643777975723914" lon="9.329263252085363"><ele>641.0</ele><time>2026-05-01T14:44:03Z</time></trkpt><trkpt lat="40.64402054713343" lon="9.329458288908393"><ele>641.0</ele><time>2026-05-01T14:44:04Z</time></trkpt><trkpt lat="40.64425051712442" lon="9.329683861702208"><ele>641.0</ele><time>2026-05-01T14:44:05Z</time></trkpt><trkpt lat="40.64447488775587" lon="9.32992346379701"><ele>640.0</ele><time>2026-05-01T14:44:06Z</time></trkpt><trkpt lat="40.64468633254567" lon="9.330182428103802"><ele>639.0</ele><time>2026-05-01T14:44:07Z</time></trkpt><trkpt lat="40.64489368473952" lon="9.330447888465219"><ele>636.5</ele><time>2026-05-01T14:44:08Z</time></trkpt><trkpt lat="40.64507206465186" lon="9.33074649843734"><ele>634.0</ele><time>2026-05-01T14:44:09Z</time></trkpt><trkpt lat="40.64524400933909" lon="9.331056111785179"><ele>632.5</ele><time>2026-05-01T14:44:10Z</time></trkpt><trkpt lat="40.64539749886722" lon="9.331385226370202"><ele>631.0</ele><time>2026-05-01T14:44:11Z</time></trkpt><trkpt lat="40.64553786460449" lon="9.331717019317324"><ele>631.0</ele><time>2026-05-01T14:44:12Z</time></trkpt><trkpt lat="40.645662557328876" lon="9.332076697757742"><ele>631.0</ele><time>2026-05-01T14:44:13Z</time></trkpt><trkpt lat="40.645767854967026" lon="9.33243864857752"><ele>628.5</ele><time>2026-05-01T14:44:14Z</time></trkpt><trkpt lat="40.64585564142544" lon="9.33281404030822"><ele>626.0</ele><time>2026-05-01T14:44:15Z</time></trkpt><trkpt lat="40.64593199403521" lon="9.333195558307526"><ele>623.0</ele><time>2026-05-01T14:44:16Z</time></trkpt><trkpt lat="40.646023969147365" lon="9.333573268412211"><ele>620.0</ele><time>2026-05-01T14:44:17Z</time></trkpt><trkpt lat="40.64608561430462" lon="9.333929412965432"><ele>624.0</ele><time>2026-05-01T14:44:18Z</time></trkpt><trkpt lat="40.64617552384552" lon="9.33426671747625"><ele>628.0</ele><time>2026-05-01T14:44:19Z</time></trkpt><trkpt lat="40.6462821530003" lon="9.334599398907772"><ele>627.5</ele><time>2026-05-01T14:44:20Z</time></trkpt><trkpt lat="40.64641264894273" lon="9.334920198316006"><ele>627.0</ele><time>2026-05-01T14:44:21Z</time></trkpt><trkpt lat="40.64655956725819" lon="9.335228545395774"><ele>627.0</ele><time>2026-05-01T14:44:22Z</time></trkpt><trkpt lat="40.646725880881995" lon="9.335523034888235"><ele>627.0</ele><time>2026-05-01T14:44:23Z</time></trkpt><trkpt lat="40.64691685326611" lon="9.335804793790581"><ele>626.5</ele><time>2026-05-01T14:44:24Z</time></trkpt><trkpt lat="40.647126474852065" lon="9.336071133679678"><ele>626.0</ele><time>2026-05-01T14:44:25Z</time></trkpt><trkpt lat="40.64735638011969" lon="9.336316105557854"><ele>622.5</ele><time>2026-05-01T14:44:26Z</time></trkpt><trkpt lat="40.64760130250769" lon="9.33653551482111"><ele>619.0</ele><time>2026-05-01T14:44:27Z</time></trkpt><trkpt lat="40.64784687941036" lon="9.336725509080887"><ele>619.0</ele><time>2026-05-01T14:44:28Z</time></trkpt><trkpt lat="40.64807683188434" lon="9.33690709170783"><ele>619.0</ele><time>2026-05-01T14:44:29Z</time></trkpt><trkpt lat="40.648307347847535" lon="9.337084151255963"><ele>619.0</ele><time>2026-05-01T14:44:30Z</time></trkpt><trkpt lat="40.64858932229275" lon="9.337166018271198"><ele>619.0</ele><time>2026-05-01T14:44:31Z</time></trkpt><trkpt lat="40.648823084413564" lon="9.337370583354469"><ele>615.0</ele><time>2026-05-01T14:44:32Z</time></trkpt><trkpt lat="40.64903118126044" lon="9.337618403631076"><ele>611.0</ele><time>2026-05-01T14:44:33Z</time></trkpt><trkpt lat="40.64922469557876" lon="9.337873207634267"><ele>609.5</ele><time>2026-05-01T14:44:34Z</time></trkpt><trkpt lat="40.64940537528885" lon="9.338137374815345"><ele>608.0</ele><time>2026-05-01T14:44:35Z</time></trkpt><trkpt lat="40.64957342016692" lon="9.338410605775211"><ele>607.0</ele><time>2026-05-01T14:44:36Z</time></trkpt><trkpt lat="40.64972959743734" lon="9.338691252731357"><ele>606.0</ele><time>2026-05-01T14:44:37Z</time></trkpt><trkpt lat="40.64987031378436" lon="9.338976995309652"><ele>606.0</ele><time>2026-05-01T14:44:38Z</time></trkpt><trkpt lat="40.649999026467846" lon="9.33924239152292"><ele>606.0</ele><time>2026-05-01T14:44:39Z</time></trkpt><trkpt lat="40.650119967566866" lon="9.339491087333306"><ele>606.6666666666666</ele><time>2026-05-01T14:44:40Z</time></trkpt><trkpt lat="40.65024645823392" lon="9.339740672392706"><ele>607.3333333333333</ele><time>2026-05-01T14:44:41Z</time></trkpt><trkpt lat="40.65036892340528" lon="9.339971979382694"><ele>608.0</ele><time>2026-05-01T14:44:42Z</time></trkpt><trkpt lat="40.65049209803745" lon="9.340187525617575"><ele>608.0</ele><time>2026-05-01T14:44:43Z</time></trkpt><trkpt lat="40.65061816734984" lon="9.34037524355808"><ele>608.0</ele><time>2026-05-01T14:44:44Z</time></trkpt><trkpt lat="40.650753255304735" lon="9.34054162567682"><ele>608.0</ele><time>2026-05-01T14:44:45Z</time></trkpt><trkpt lat="40.65089360776552" lon="9.340688556327109"><ele>610.5</ele><time>2026-05-01T14:44:46Z</time></trkpt><trkpt lat="40.651142678389554" lon="9.340992523520049"><ele>613.0</ele><time>2026-05-01T14:44:48Z</time></trkpt><trkpt lat="40.651247290829716" lon="9.341174681712925"><ele>613.0</ele><time>2026-05-01T14:44:49Z</time></trkpt><trkpt lat="40.65134966953657" lon="9.341353758856917"><ele>613.0</ele><time>2026-05-01T14:44:50Z</time></trkpt><trkpt lat="40.6514650871884" lon="9.341514288416686"><ele>613.0</ele><time>2026-05-01T14:44:51Z</time></trkpt><trkpt lat="40.65159986889109" lon="9.341655203511355"><ele>612.0</ele><time>2026-05-01T14:44:52Z</time></trkpt><trkpt lat="40.65175144910918" lon="9.341775511080378"><ele>611.0</ele><time>2026-05-01T14:44:53Z</time></trkpt><trkpt lat="40.651909633735265" lon="9.341885483995497"><ele>610.0</ele><time>2026-05-01T14:44:54Z</time></trkpt><trkpt lat="40.6520590235117" lon="9.341968710008755"><ele>610.0</ele><time>2026-05-01T14:44:55Z</time></trkpt><trkpt lat="40.65221049892613" lon="9.34205633228196"><ele>610.0</ele><time>2026-05-01T14:44:56Z</time></trkpt><trkpt lat="40.65235284079167" lon="9.342151730041712"><ele>610.0</ele><time>2026-05-01T14:44:57Z</time></trkpt><trkpt lat="40.6524817917709" lon="9.34223830141084"><ele>609.6666666666667</ele><time>2026-05-01T14:44:58Z</time></trkpt><trkpt lat="40.65260878391582" lon="9.34232720230942"><ele>609.3333333333334</ele><time>2026-05-01T14:44:59Z</time></trkpt><trkpt lat="40.652742357427385" lon="9.342414627150335"><ele>609.0</ele><time>2026-05-01T14:45:00Z</time></trkpt><trkpt lat="40.65288759208231" lon="9.342507209312474"><ele>609.0</ele><time>2026-05-01T14:45:01Z</time></trkpt><trkpt lat="40.65304641974895" lon="9.34261417098766"><ele>609.0</ele><time>2026-05-01T14:45:02Z</time></trkpt><trkpt lat="40.65321372625941" lon="9.342698166650816"><ele>609.0</ele><time>2026-05-01T14:45:03Z</time></trkpt><trkpt lat="40.653387667518004" lon="9.342721644900335"><ele>609.0</ele><time>2026-05-01T14:45:04Z</time></trkpt><trkpt lat="40.653552487171744" lon="9.34268732076583"><ele>609.0</ele><time>2026-05-01T14:45:05Z</time></trkpt><trkpt lat="40.653692487519514" lon="9.34264879522463"><ele>609.0</ele><time>2026-05-01T14:45:06Z</time></trkpt><trkpt lat="40.65380058913119" lon="9.34263758366808"><ele>609.0</ele><time>2026-05-01T14:45:07Z</time></trkpt><trkpt lat="40.65389033127685" lon="9.342690072378733"><ele>609.5</ele><time>2026-05-01T14:45:08Z</time></trkpt><trkpt lat="40.65396434201582" lon="9.342835631550658"><ele>610.0</ele><time>2026-05-01T14:45:09Z</time></trkpt><trkpt lat="40.65400482619181" lon="9.34301932890576"><ele>610.5</ele><time>2026-05-01T14:45:10Z</time></trkpt><trkpt lat="40.65402954690201" lon="9.34323673193697"><ele>611.0</ele><time>2026-05-01T14:45:11Z</time></trkpt><trkpt lat="40.65408700759468" lon="9.343445943784142"><ele>608.0</ele><time>2026-05-01T14:45:12Z</time></trkpt><trkpt lat="40.654174948311706" lon="9.3436616231212"><ele>605.0</ele><time>2026-05-01T14:45:13Z</time></trkpt><trkpt lat="40.654262152000605" lon="9.343888599996973"><ele>602.0</ele><time>2026-05-01T14:45:14Z</time></trkpt><trkpt lat="40.65434777860593" lon="9.344107807996215"><ele>603.3333333333333</ele><time>2026-05-01T14:45:15Z</time></trkpt><trkpt lat="40.65444878372864" lon="9.344300305880619"><ele>604.6666666666666</ele><time>2026-05-01T14:45:16Z</time></trkpt><trkpt lat="40.65457998561084" lon="9.344484489389231"><ele>606.0</ele><time>2026-05-01T14:45:17Z</time></trkpt><trkpt lat="40.654726614103325" lon="9.344647528483458"><ele>601.3333333333334</ele><time>2026-05-01T14:45:18Z</time></trkpt><trkpt lat="40.65488869336709" lon="9.344786649023433"><ele>596.6666666666667</ele><time>2026-05-01T14:45:19Z</time></trkpt><trkpt lat="40.65505576232591" lon="9.344917380539192"><ele>592.0</ele><time>2026-05-01T14:45:20Z</time></trkpt><trkpt lat="40.65522536621713" lon="9.345060009192155"><ele>590.6666666666667</ele><time>2026-05-01T14:45:21Z</time></trkpt><trkpt lat="40.65538540198701" lon="9.345222671426587"><ele>589.3333333333334</ele><time>2026-05-01T14:45:22Z</time></trkpt><trkpt lat="40.655528259194504" lon="9.345417527072549"><ele>588.0</ele><time>2026-05-01T14:45:23Z</time></trkpt><trkpt lat="40.65565509217249" lon="9.345630669245516"><ele>588.0</ele><time>2026-05-01T14:45:24Z</time></trkpt><trkpt lat="40.655766938457944" lon="9.345864174166243"><ele>588.0</ele><time>2026-05-01T14:45:25Z</time></trkpt><trkpt lat="40.65588920932451" lon="9.346094226973014"><ele>588.0</ele><time>2026-05-01T14:45:26Z</time></trkpt><trkpt lat="40.65601900410582" lon="9.346303913358062"><ele>584.0</ele><time>2026-05-01T14:45:27Z</time></trkpt><trkpt lat="40.656160694064944" lon="9.34649252337078"><ele>580.0</ele><time>2026-05-01T14:45:28Z</time></trkpt><trkpt lat="40.65631423307818" lon="9.346657891617124"><ele>576.0</ele><time>2026-05-01T14:45:29Z</time></trkpt><trkpt lat="40.656479064256644" lon="9.346804573976296"><ele>576.0</ele><time>2026-05-01T14:45:30Z</time></trkpt><trkpt lat="40.656657815162205" lon="9.346847285907023"><ele>576.0</ele><time>2026-05-01T14:45:31Z</time></trkpt><trkpt lat="40.656814283942495" lon="9.346912413710626"><ele>576.0</ele><time>2026-05-01T14:45:32Z</time></trkpt><trkpt lat="40.6569491046014" lon="9.346987376262183"><ele>575.25</ele><time>2026-05-01T14:45:33Z</time></trkpt><trkpt lat="40.65706739812826" lon="9.3470757213225"><ele>574.5</ele><time>2026-05-01T14:45:34Z</time></trkpt><trkpt lat="40.6571682773905" lon="9.347176380129165"><ele>573.75</ele><time>2026-05-01T14:45:35Z</time></trkpt><trkpt lat="40.65726448009134" lon="9.347268448509197"><ele>573.0</ele><time>2026-05-01T14:45:36Z</time></trkpt><trkpt lat="40.65740641746293" lon="9.347334028143866"><ele>572.0</ele><time>2026-05-01T14:45:37Z</time></trkpt><trkpt lat="40.657584078674034" lon="9.347424795485873"><ele>571.0</ele><time>2026-05-01T14:45:38Z</time></trkpt><trkpt lat="40.657753103016375" lon="9.347560405628236"><ele>570.0</ele><time>2026-05-01T14:45:39Z</time></trkpt><trkpt lat="40.657895821538226" lon="9.347703877134295"><ele>572.0</ele><time>2026-05-01T14:45:40Z</time></trkpt><trkpt lat="40.65802345432033" lon="9.347837219398855"><ele>574.0</ele><time>2026-05-01T14:45:41Z</time></trkpt><trkpt lat="40.65815159115529" lon="9.347933755104322"><ele>576.0</ele><time>2026-05-01T14:45:42Z</time></trkpt><trkpt lat="40.65830056515584" lon="9.3479700449439"><ele>576.0</ele><time>2026-05-01T14:45:43Z</time></trkpt><trkpt lat="40.65845693928067" lon="9.347954531765376"><ele>576.0</ele><time>2026-05-01T14:45:44Z</time></trkpt><trkpt lat="40.658597430174034" lon="9.347864626375266"><ele>576.0</ele><time>2026-05-01T14:45:45Z</time></trkpt><trkpt lat="40.65872369011525" lon="9.347761203104723"><ele>576.5</ele><time>2026-05-01T14:45:46Z</time></trkpt><trkpt lat="40.658859621467656" lon="9.347695876420811"><ele>577.0</ele><time>2026-05-01T14:45:47Z</time></trkpt><trkpt lat="40.65900594564918" lon="9.347743226150362"><ele>577.5</ele><time>2026-05-01T14:45:48Z</time></trkpt><trkpt lat="40.659140529642045" lon="9.347825006906547"><ele>578.0</ele><time>2026-05-01T14:45:49Z</time></trkpt><trkpt lat="40.659314825557445" lon="9.347888684344708"><ele>577.6666666666666</ele><time>2026-05-01T14:45:50Z</time></trkpt><trkpt lat="40.659480327508604" lon="9.347956365874934"><ele>577.3333333333334</ele><time>2026-05-01T14:45:51Z</time></trkpt><trkpt lat="40.65962972010504" lon="9.347970531647048"><ele>577.0</ele><time>2026-05-01T14:45:52Z</time></trkpt><trkpt lat="40.6597728988483" lon="9.34795346250914"><ele>577.0</ele><time>2026-05-01T14:45:53Z</time></trkpt><trkpt lat="40.65992035771521" lon="9.347945503133635"><ele>577.0</ele><time>2026-05-01T14:45:54Z</time></trkpt><trkpt lat="40.66005685542309" lon="9.347921364832725"><ele>577.0</ele><time>2026-05-01T14:45:55Z</time></trkpt><trkpt lat="40.66019053757747" lon="9.34784750098814"><ele>577.0</ele><time>2026-05-01T14:45:56Z</time></trkpt><trkpt lat="40.66029360418105" lon="9.347686682416525"><ele>574.0</ele><time>2026-05-01T14:45:57Z</time></trkpt><trkpt lat="40.66039302074676" lon="9.347506176520936"><ele>571.0</ele><time>2026-05-01T14:45:58Z</time></trkpt><trkpt lat="40.66046897649598" lon="9.34731618609325"><ele>568.0</ele><time>2026-05-01T14:45:59Z</time></trkpt><trkpt lat="40.6604934884233" lon="9.347114847271682"><ele>568.0</ele><time>2026-05-01T14:46:00Z</time></trkpt><trkpt lat="40.660464796392695" lon="9.346915006102616"><ele>568.0</ele><time>2026-05-01T14:46:01Z</time></trkpt><trkpt lat="40.66045735113856" lon="9.346740457593608"><ele>568.0</ele><time>2026-05-01T14:46:02Z</time></trkpt><trkpt lat="40.660527378923824" lon="9.346631288717182"><ele>568.0</ele><time>2026-05-01T14:46:03Z</time></trkpt><trkpt lat="40.66059195314197" lon="9.346552867697206"><ele>568.0</ele><time>2026-05-01T14:46:04Z</time></trkpt><trkpt lat="40.660734830426655" lon="9.346569579191517"><ele>568.0</ele><time>2026-05-01T14:46:05Z</time></trkpt><trkpt lat="40.66083310719826" lon="9.346688282509314"><ele>568.0</ele><time>2026-05-01T14:46:06Z</time></trkpt><trkpt lat="40.660951042952924" lon="9.346785794706141"><ele>568.0</ele><time>2026-05-01T14:46:07Z</time></trkpt><trkpt lat="40.66108203388958" lon="9.346886672533834"><ele>567.0</ele><time>2026-05-01T14:46:08Z</time></trkpt><trkpt lat="40.66122357352396" lon="9.347014505274803"><ele>566.0</ele><time>2026-05-01T14:46:09Z</time></trkpt><trkpt lat="40.66137739719282" lon="9.347140754662385"><ele>565.0</ele><time>2026-05-01T14:46:10Z</time></trkpt><trkpt lat="40.66154433426077" lon="9.347273330260217"><ele>565.0</ele><time>2026-05-01T14:46:11Z</time></trkpt><trkpt lat="40.66172612053724" lon="9.347391109255549"><ele>565.0</ele><time>2026-05-01T14:46:12Z</time></trkpt><trkpt lat="40.66193077965039" lon="9.347467039813479"><ele>565.0</ele><time>2026-05-01T14:46:13Z</time></trkpt><trkpt lat="40.66215655233919" lon="9.347504057927946"><ele>567.6666666666667</ele><time>2026-05-01T14:46:14Z</time></trkpt><trkpt lat="40.66237898886818" lon="9.347530413811109"><ele>570.3333333333334</ele><time>2026-05-01T14:46:15Z</time></trkpt><trkpt lat="40.662571992233396" lon="9.347625459576589"><ele>573.0</ele><time>2026-05-01T14:46:16Z</time></trkpt><trkpt lat="40.66275185835486" lon="9.34771376004048"><ele>576.3333333333334</ele><time>2026-05-01T14:46:17Z</time></trkpt><trkpt lat="40.66291279291427" lon="9.34784357409202"><ele>579.6666666666667</ele><time>2026-05-01T14:46:18Z</time></trkpt><trkpt lat="40.66306829118753" lon="9.347948423819828"><ele>583.0</ele><time>2026-05-01T14:46:19Z</time></trkpt><trkpt lat="40.663228568687856" lon="9.348009045128128"><ele>582.6666666666667</ele><time>2026-05-01T14:46:20Z</time></trkpt><trkpt lat="40.66338909669709" lon="9.34807351875246"><ele>582.3333333333334</ele><time>2026-05-01T14:46:21Z</time></trkpt><trkpt lat="40.663526601575725" lon="9.348203455767678"><ele>582.0</ele><time>2026-05-01T14:46:22Z</time></trkpt><trkpt lat="40.66364373305699" lon="9.348381685366691"><ele>582.0</ele><time>2026-05-01T14:46:23Z</time></trkpt><trkpt lat="40.6637888145299" lon="9.348529288963299"><ele>582.0</ele><time>2026-05-01T14:46:24Z</time></trkpt><trkpt lat="40.66393362071706" lon="9.34869193983242"><ele>582.0</ele><time>2026-05-01T14:46:25Z</time></trkpt><trkpt lat="40.66445024062401" lon="9.348926196656489"><ele>579.0</ele><time>2026-05-01T14:46:28Z</time></trkpt><trkpt lat="40.66495782152092" lon="9.349369490321749"><ele>579.0</ele><time>2026-05-01T14:46:32Z</time></trkpt><trkpt lat="40.6651360086991" lon="9.349379953646844"><ele>579.0</ele><time>2026-05-01T14:46:33Z</time></trkpt><trkpt lat="40.665321686224864" lon="9.349419984186662"><ele>579.0</ele><time>2026-05-01T14:46:34Z</time></trkpt><trkpt lat="40.665480274554405" lon="9.349559782199297"><ele>578.0</ele><time>2026-05-01T14:46:35Z</time></trkpt><trkpt lat="40.6656634677874" lon="9.349648162523678"><ele>577.0</ele><time>2026-05-01T14:46:36Z</time></trkpt><trkpt lat="40.66583042595777" lon="9.349798039367682"><ele>576.0</ele><time>2026-05-01T14:46:37Z</time></trkpt><trkpt lat="40.66600542079378" lon="9.349961898883741"><ele>584.0</ele><time>2026-05-01T14:46:38Z</time></trkpt><trkpt lat="40.66619177262008" lon="9.35011677949169"><ele>592.0</ele><time>2026-05-01T14:46:39Z</time></trkpt><trkpt lat="40.66635331006152" lon="9.35026831125523"><ele>600.0</ele><time>2026-05-01T14:46:40Z</time></trkpt><trkpt lat="40.66651181894559" lon="9.350443343827616"><ele>598.0</ele><time>2026-05-01T14:46:41Z</time></trkpt><trkpt lat="40.666671618288085" lon="9.35062349458182"><ele>596.0</ele><time>2026-05-01T14:46:42Z</time></trkpt><trkpt lat="40.666827394153145" lon="9.350759795494294"><ele>594.0</ele><time>2026-05-01T14:46:43Z</time></trkpt><trkpt lat="40.6669906979084" lon="9.350898641891053"><ele>594.0</ele><time>2026-05-01T14:46:44Z</time></trkpt><trkpt lat="40.667167498957" lon="9.351004696207253"><ele>594.0</ele><time>2026-05-01T14:46:45Z</time></trkpt><trkpt lat="40.66735722767252" lon="9.351061278359458"><ele>594.0</ele><time>2026-05-01T14:46:46Z</time></trkpt><trkpt lat="40.66749927884138" lon="9.351158576187958"><ele>594.0</ele><time>2026-05-01T14:46:47Z</time></trkpt><trkpt lat="40.667585673326535" lon="9.351292867195111"><ele>594.0</ele><time>2026-05-01T14:46:48Z</time></trkpt><trkpt lat="40.667654702256534" lon="9.351475341482946"><ele>594.0</ele><time>2026-05-01T14:46:49Z</time></trkpt><trkpt lat="40.66776576353004" lon="9.35160668123738"><ele>594.0</ele><time>2026-05-01T14:46:50Z</time></trkpt><trkpt lat="40.667914724823284" lon="9.351693531492309"><ele>591.6666666666666</ele><time>2026-05-01T14:46:51Z</time></trkpt><trkpt lat="40.66808055349717" lon="9.351802283351228"><ele>589.3333333333333</ele><time>2026-05-01T14:46:52Z</time></trkpt><trkpt lat="40.66819342940891" lon="9.351984513075639"><ele>587.0</ele><time>2026-05-01T14:46:53Z</time></trkpt><trkpt lat="40.66830344136177" lon="9.35213912091135"><ele>587.25</ele><time>2026-05-01T14:46:54Z</time></trkpt><trkpt lat="40.66841548960711" lon="9.35222083459353"><ele>587.5</ele><time>2026-05-01T14:46:55Z</time></trkpt><trkpt lat="40.668550114210255" lon="9.352266654497315"><ele>587.75</ele><time>2026-05-01T14:46:56Z</time></trkpt><trkpt lat="40.668709420057425" lon="9.352258967076239"><ele>588.0</ele><time>2026-05-01T14:46:57Z</time></trkpt><trkpt lat="40.6689262493397" lon="9.35217646277193"><ele>588.0</ele><time>2026-05-01T14:46:58Z</time></trkpt><trkpt lat="40.66911796178595" lon="9.352128258594828"><ele>588.0</ele><time>2026-05-01T14:46:59Z</time></trkpt><trkpt lat="40.66929337357711" lon="9.352143801586104"><ele>588.0</ele><time>2026-05-01T14:47:00Z</time></trkpt><trkpt lat="40.6694393649226" lon="9.352238090546189"><ele>586.0</ele><time>2026-05-01T14:47:01Z</time></trkpt><trkpt lat="40.66957011259847" lon="9.35233786147499"><ele>584.0</ele><time>2026-05-01T14:47:02Z</time></trkpt><trkpt lat="40.669718620458234" lon="9.352453880343521"><ele>582.0</ele><time>2026-05-01T14:47:03Z</time></trkpt><trkpt lat="40.669850976152794" lon="9.352578412128596"><ele>582.0</ele><time>2026-05-01T14:47:04Z</time></trkpt><trkpt lat="40.669935631326595" lon="9.352738659886269"><ele>582.0</ele><time>2026-05-01T14:47:05Z</time></trkpt><trkpt lat="40.66998466655881" lon="9.352935069959582"><ele>582.0</ele><time>2026-05-01T14:47:06Z</time></trkpt><trkpt lat="40.66999556215126" lon="9.353163415258026"><ele>582.6666666666666</ele><time>2026-05-01T14:47:07Z</time></trkpt><trkpt lat="40.670010527774714" lon="9.353432709699588"><ele>583.3333333333333</ele><time>2026-05-01T14:47:08Z</time></trkpt><trkpt lat="40.67005854728518" lon="9.353679231954237"><ele>584.0</ele><time>2026-05-01T14:47:09Z</time></trkpt><trkpt lat="40.67014641589216" lon="9.353941194408131"><ele>584.0</ele><time>2026-05-01T14:47:10Z</time></trkpt><trkpt lat="40.67023425898775" lon="9.354232044831939"><ele>584.0</ele><time>2026-05-01T14:47:11Z</time></trkpt><trkpt lat="40.67031806933402" lon="9.354528617105224"><ele>589.0</ele><time>2026-05-01T14:47:12Z</time></trkpt><trkpt lat="40.67038889869771" lon="9.354814884597351"><ele>594.0</ele><time>2026-05-01T14:47:13Z</time></trkpt><trkpt lat="40.67046546237951" lon="9.355092501023197"><ele>594.0</ele><time>2026-05-01T14:47:14Z</time></trkpt><trkpt lat="40.67054950918869" lon="9.355342202492666"><ele>594.0</ele><time>2026-05-01T14:47:15Z</time></trkpt><trkpt lat="40.67066231449193" lon="9.355576816323895"><ele>594.0</ele><time>2026-05-01T14:47:16Z</time></trkpt><trkpt lat="40.67080930882472" lon="9.355805780394608"><ele>593.5</ele><time>2026-05-01T14:47:17Z</time></trkpt><trkpt lat="40.67098724803197" lon="9.355998235188727"><ele>593.0</ele><time>2026-05-01T14:47:18Z</time></trkpt><trkpt lat="40.67116669353511" lon="9.356179133311127"><ele>593.3333333333333</ele><time>2026-05-01T14:47:19Z</time></trkpt><trkpt lat="40.6713209900021" lon="9.356321162553302"><ele>593.6666666666666</ele><time>2026-05-01T14:47:20Z</time></trkpt><trkpt lat="40.67147281662" lon="9.356403597536561"><ele>594.0</ele><time>2026-05-01T14:47:21Z</time></trkpt><trkpt lat="40.671650968632136" lon="9.356428682353167"><ele>594.0</ele><time>2026-05-01T14:47:22Z</time></trkpt><trkpt lat="40.671853321939345" lon="9.356414506603535"><ele>594.0</ele><time>2026-05-01T14:47:23Z</time></trkpt><trkpt lat="40.672064338175865" lon="9.356443305169952"><ele>594.0</ele><time>2026-05-01T14:47:24Z</time></trkpt><trkpt lat="40.672303215380175" lon="9.356462086940546"><ele>593.5</ele><time>2026-05-01T14:47:25Z</time></trkpt><trkpt lat="40.67256414190436" lon="9.356483761613294"><ele>593.0</ele><time>2026-05-01T14:47:26Z</time></trkpt><trkpt lat="40.67283844216623" lon="9.356486222108645"><ele>591.5</ele><time>2026-05-01T14:47:27Z</time></trkpt><trkpt lat="40.67312549560144" lon="9.356515642280085"><ele>590.0</ele><time>2026-05-01T14:47:28Z</time></trkpt><trkpt lat="40.67341323038474" lon="9.35654324589009"><ele>590.0</ele><time>2026-05-01T14:47:29Z</time></trkpt><trkpt lat="40.67369746150806" lon="9.356560381745957"><ele>590.0</ele><time>2026-05-01T14:47:30Z</time></trkpt><trkpt lat="40.6739261437225" lon="9.356584661577065"><ele>590.0</ele><time>2026-05-01T14:47:31Z</time></trkpt><trkpt lat="40.67409889921231" lon="9.356603479285411"><ele>590.0</ele><time>2026-05-01T14:47:32Z</time></trkpt><trkpt lat="40.674227177291" lon="9.356663794655006"><ele>590.0</ele><time>2026-05-01T14:47:33Z</time></trkpt><trkpt lat="40.67429827364217" lon="9.35679407614901"><ele>590.0</ele><time>2026-05-01T14:47:34Z</time></trkpt><trkpt lat="40.67434990380959" lon="9.356969351512145"><ele>590.0</ele><time>2026-05-01T14:47:35Z</time></trkpt><trkpt lat="40.67442800876945" lon="9.357189246262942"><ele>590.0</ele><time>2026-05-01T14:47:36Z</time></trkpt><trkpt lat="40.67449518179662" lon="9.35744586447258"><ele>590.0</ele><time>2026-05-01T14:47:37Z</time></trkpt><trkpt lat="40.674570927130965" lon="9.357720928311908"><ele>591.0</ele><time>2026-05-01T14:47:38Z</time></trkpt><trkpt lat="40.67465356427014" lon="9.3580088060033"><ele>592.0</ele><time>2026-05-01T14:47:39Z</time></trkpt><trkpt lat="40.67473647079585" lon="9.358294000092245"><ele>592.0</ele><time>2026-05-01T14:47:40Z</time></trkpt><trkpt lat="40.67482452740435" lon="9.358545716885127"><ele>592.0</ele><time>2026-05-01T14:47:41Z</time></trkpt><trkpt lat="40.67493096558965" lon="9.358751517758144"><ele>592.0</ele><time>2026-05-01T14:47:42Z</time></trkpt><trkpt lat="40.675044523454176" lon="9.358926126866907"><ele>591.6666666666667</ele><time>2026-05-01T14:47:43Z</time></trkpt><trkpt lat="40.67519974279037" lon="9.359101475756317"><ele>591.3333333333334</ele><time>2026-05-01T14:47:44Z</time></trkpt><trkpt lat="40.67539897375659" lon="9.35925952559767"><ele>591.0</ele><time>2026-05-01T14:47:45Z</time></trkpt><trkpt lat="40.675564971419234" lon="9.359407924860236"><ele>590.0</ele><time>2026-05-01T14:47:46Z</time></trkpt><trkpt lat="40.675717650333254" lon="9.359533384666006"><ele>589.0</ele><time>2026-05-01T14:47:47Z</time></trkpt><trkpt lat="40.67588295191261" lon="9.359600912278092"><ele>588.0</ele><time>2026-05-01T14:47:48Z</time></trkpt><trkpt lat="40.67606945810166" lon="9.35959842680124"><ele>586.3333333333334</ele><time>2026-05-01T14:47:49Z</time></trkpt><trkpt lat="40.67625658190997" lon="9.359485251732627"><ele>584.6666666666667</ele><time>2026-05-01T14:47:50Z</time></trkpt><trkpt lat="40.67643385136373" lon="9.359328579780222"><ele>583.0</ele><time>2026-05-01T14:47:51Z</time></trkpt><trkpt lat="40.676605269292814" lon="9.35910328603179"><ele>584.5</ele><time>2026-05-01T14:47:52Z</time></trkpt><trkpt lat="40.676804048858784" lon="9.358860175621638"><ele>586.0</ele><time>2026-05-01T14:47:53Z</time></trkpt><trkpt lat="40.677030782706304" lon="9.35863311269275"><ele>580.0</ele><time>2026-05-01T14:47:54Z</time></trkpt><trkpt lat="40.677265096898" lon="9.358394088092563"><ele>574.0</ele><time>2026-05-01T14:47:55Z</time></trkpt><trkpt lat="40.67747747463289" lon="9.358177370239869"><ele>573.0</ele><time>2026-05-01T14:47:56Z</time></trkpt><trkpt lat="40.67767344095793" lon="9.357977547414148"><ele>572.0</ele><time>2026-05-01T14:47:57Z</time></trkpt><trkpt lat="40.67786280630331" lon="9.35778239048574"><ele>572.0</ele><time>2026-05-01T14:47:58Z</time></trkpt><trkpt lat="40.67803539002442" lon="9.357599920368619"><ele>572.0</ele><time>2026-05-01T14:47:59Z</time></trkpt><trkpt lat="40.67819692972663" lon="9.357429958952938"><ele>572.0</ele><time>2026-05-01T14:48:00Z</time></trkpt><trkpt lat="40.67835676111359" lon="9.357275309254135"><ele>571.6666666666666</ele><time>2026-05-01T14:48:01Z</time></trkpt><trkpt lat="40.67852581191674" lon="9.357159243980286"><ele>571.3333333333334</ele><time>2026-05-01T14:48:02Z</time></trkpt><trkpt lat="40.678715334316635" lon="9.357121126302777"><ele>571.0</ele><time>2026-05-01T14:48:03Z</time></trkpt><trkpt lat="40.67889749434396" lon="9.357154083534088"><ele>569.0</ele><time>2026-05-01T14:48:04Z</time></trkpt><trkpt lat="40.67910031254857" lon="9.357237080366911"><ele>567.0</ele><time>2026-05-01T14:48:05Z</time></trkpt><trkpt lat="40.67932908902291" lon="9.357332834673743"><ele>569.5</ele><time>2026-05-01T14:48:06Z</time></trkpt><trkpt lat="40.679561041217916" lon="9.357462431661853"><ele>572.0</ele><time>2026-05-01T14:48:07Z</time></trkpt><trkpt lat="40.679800082527194" lon="9.357591639650783"><ele>572.0</ele><time>2026-05-01T14:48:08Z</time></trkpt><trkpt lat="40.68003151110308" lon="9.357712324242458"><ele>572.0</ele><time>2026-05-01T14:48:09Z</time></trkpt><trkpt lat="40.680231246561995" lon="9.357808824539644"><ele>573.25</ele><time>2026-05-01T14:48:10Z</time></trkpt><trkpt lat="40.680411934176675" lon="9.357903091439056"><ele>574.5</ele><time>2026-05-01T14:48:11Z</time></trkpt><trkpt lat="40.68054554456096" lon="9.357981708095862"><ele>575.75</ele><time>2026-05-01T14:48:12Z</time></trkpt><trkpt lat="40.68062587737095" lon="9.358077755472356"><ele>577.0</ele><time>2026-05-01T14:48:13Z</time></trkpt><trkpt lat="40.68070052890765" lon="9.358132576122808"><ele>577.6666666666667</ele><time>2026-05-01T14:48:14Z</time></trkpt><trkpt lat="40.68068429430427" lon="9.3583801407738"><ele>578.3333333333334</ele><time>2026-05-01T14:48:15Z</time></trkpt><trkpt lat="40.68067180320003" lon="9.358570319089477"><ele>579.0</ele><time>2026-05-01T14:48:16Z</time></trkpt><trkpt lat="40.68066454696655" lon="9.358769222472358"><ele>578.6666666666666</ele><time>2026-05-01T14:48:17Z</time></trkpt><trkpt lat="40.68069113842901" lon="9.35898731241605"><ele>578.3333333333333</ele><time>2026-05-01T14:48:18Z</time></trkpt><trkpt lat="40.68076010358199" lon="9.359173963293989"><ele>578.0</ele><time>2026-05-01T14:48:19Z</time></trkpt><trkpt lat="40.68088798003563" lon="9.359302942989604"><ele>578.0</ele><time>2026-05-01T14:48:20Z</time></trkpt><trkpt lat="40.681064260421465" lon="9.359416891126225"><ele>578.0</ele><time>2026-05-01T14:48:21Z</time></trkpt><trkpt lat="40.68124502964176" lon="9.359542064755452"><ele>578.0</ele><time>2026-05-01T14:48:22Z</time></trkpt><trkpt lat="40.681404001298986" lon="9.359692934343437"><ele>579.3333333333333</ele><time>2026-05-01T14:48:23Z</time></trkpt><trkpt lat="40.68152122879189" lon="9.359881136852177"><ele>580.6666666666666</ele><time>2026-05-01T14:48:24Z</time></trkpt><trkpt lat="40.68160958079061" lon="9.360054926448809"><ele>582.0</ele><time>2026-05-01T14:48:25Z</time></trkpt><trkpt lat="40.68171040189629" lon="9.360178116563286"><ele>582.0</ele><time>2026-05-01T14:48:26Z</time></trkpt><trkpt lat="40.68181361345134" lon="9.36023716375719"><ele>582.0</ele><time>2026-05-01T14:48:27Z</time></trkpt><trkpt lat="40.68192521773429" lon="9.360199173892315"><ele>582.0</ele><time>2026-05-01T14:48:28Z</time></trkpt><trkpt lat="40.68206695373068" lon="9.360082570591633"><ele>582.0</ele><time>2026-05-01T14:48:29Z</time></trkpt><trkpt lat="40.68220138838245" lon="9.359937226123197"><ele>582.3333333333334</ele><time>2026-05-01T14:48:30Z</time></trkpt><trkpt lat="40.68235750716294" lon="9.359794962087694"><ele>582.6666666666667</ele><time>2026-05-01T14:48:31Z</time></trkpt><trkpt lat="40.68250575812151" lon="9.359680178594305"><ele>583.0</ele><time>2026-05-01T14:48:32Z</time></trkpt><trkpt lat="40.68260469341059" lon="9.359549611665793"><ele>585.5</ele><time>2026-05-01T14:48:33Z</time></trkpt><trkpt lat="40.68264933082073" lon="9.359371650223064"><ele>588.0</ele><time>2026-05-01T14:48:34Z</time></trkpt><trkpt lat="40.68267452436059" lon="9.359187062166992"><ele>590.5</ele><time>2026-05-01T14:48:35Z</time></trkpt><trkpt lat="40.682732504203585" lon="9.359057826670819"><ele>593.0</ele><time>2026-05-01T14:48:36Z</time></trkpt><trkpt lat="40.68282699914841" lon="9.358945237933085"><ele>597.25</ele><time>2026-05-01T14:48:37Z</time></trkpt><trkpt lat="40.682924910163216" lon="9.358816946796619"><ele>601.5</ele><time>2026-05-01T14:48:38Z</time></trkpt><trkpt lat="40.68301478831629" lon="9.35869614018643"><ele>605.75</ele><time>2026-05-01T14:48:39Z</time></trkpt><trkpt lat="40.68311677485965" lon="9.358663266779141"><ele>610.0</ele><time>2026-05-01T14:48:40Z</time></trkpt><trkpt lat="40.68320752524418" lon="9.35872460984647"><ele>610.0</ele><time>2026-05-01T14:48:41Z</time></trkpt><trkpt lat="40.683324478534416" lon="9.358845391627359"><ele>610.0</ele><time>2026-05-01T14:48:42Z</time></trkpt><trkpt lat="40.68339878131624" lon="9.359048062932722"><ele>610.0</ele><time>2026-05-01T14:48:43Z</time></trkpt><trkpt lat="40.6834640647275" lon="9.359267683714949"><ele>607.6666666666667</ele><time>2026-05-01T14:48:44Z</time></trkpt><trkpt lat="40.68352181238828" lon="9.359471068148766"><ele>605.3333333333334</ele><time>2026-05-01T14:48:45Z</time></trkpt><trkpt lat="40.6835937753482" lon="9.359678856348781"><ele>603.0</ele><time>2026-05-01T14:48:46Z</time></trkpt><trkpt lat="40.68367102965144" lon="9.359853684696462"><ele>603.0</ele><time>2026-05-01T14:48:47Z</time></trkpt><trkpt lat="40.68376315645623" lon="9.359974421322786"><ele>603.0</ele><time>2026-05-01T14:48:48Z</time></trkpt><trkpt lat="40.68387402339493" lon="9.360021396666893"><ele>603.0</ele><time>2026-05-01T14:48:49Z</time></trkpt><trkpt lat="40.683988597636976" lon="9.360042912814082"><ele>603.0</ele><time>2026-05-01T14:48:50Z</time></trkpt><trkpt lat="40.684105530161325" lon="9.360080105557534"><ele>603.0</ele><time>2026-05-01T14:48:51Z</time></trkpt><trkpt lat="40.68421173933478" lon="9.360152068605785"><ele>603.0</ele><time>2026-05-01T14:48:52Z</time></trkpt><trkpt lat="40.68428408615612" lon="9.360284798115657"><ele>603.0</ele><time>2026-05-01T14:48:53Z</time></trkpt><trkpt lat="40.68436926274497" lon="9.3604768960256"><ele>603.0</ele><time>2026-05-01T14:48:54Z</time></trkpt><trkpt lat="40.68448650627827" lon="9.360642588196349"><ele>606.0</ele><time>2026-05-01T14:48:55Z</time></trkpt><trkpt lat="40.684628677396944" lon="9.360809812264621"><ele>609.0</ele><time>2026-05-01T14:48:56Z</time></trkpt><trkpt lat="40.68478881406473" lon="9.360982940025293"><ele>612.0</ele><time>2026-05-01T14:48:57Z</time></trkpt><trkpt lat="40.684941663605684" lon="9.361154802739478"><ele>612.0</ele><time>2026-05-01T14:48:58Z</time></trkpt><trkpt lat="40.6850707548486" lon="9.361326320288796"><ele>612.0</ele><time>2026-05-01T14:48:59Z</time></trkpt><trkpt lat="40.68516340403598" lon="9.361509672642017"><ele>612.0</ele><time>2026-05-01T14:49:00Z</time></trkpt><trkpt lat="40.68521571148066" lon="9.36171222884577"><ele>615.6666666666666</ele><time>2026-05-01T14:49:01Z</time></trkpt><trkpt lat="40.685287305335535" lon="9.361892715545874"><ele>619.3333333333333</ele><time>2026-05-01T14:49:02Z</time></trkpt><trkpt lat="40.685404468446734" lon="9.362008920869611"><ele>623.0</ele><time>2026-05-01T14:49:03Z</time></trkpt><trkpt lat="40.68555015754024" lon="9.36205893553829"><ele>623.0</ele><time>2026-05-01T14:49:04Z</time></trkpt><trkpt lat="40.685688413458024" lon="9.36215879134711"><ele>623.0</ele><time>2026-05-01T14:49:05Z</time></trkpt><trkpt lat="40.68573927320301" lon="9.362334764779924"><ele>623.0</ele><time>2026-05-01T14:49:06Z</time></trkpt><trkpt lat="40.685755989907015" lon="9.36255452052353"><ele>619.6666666666666</ele><time>2026-05-01T14:49:07Z</time></trkpt><trkpt lat="40.6857697324621" lon="9.36278219819238"><ele>616.3333333333334</ele><time>2026-05-01T14:49:08Z</time></trkpt><trkpt lat="40.685803829391226" lon="9.363003290607523"><ele>613.0</ele><time>2026-05-01T14:49:09Z</time></trkpt><trkpt lat="40.68583444345087" lon="9.36321655796521"><ele>612.6666666666667</ele><time>2026-05-01T14:49:10Z</time></trkpt><trkpt lat="40.685899056893014" lon="9.363384175996874"><ele>612.3333333333334</ele><time>2026-05-01T14:49:11Z</time></trkpt><trkpt lat="40.68602651607256" lon="9.363506535191016"><ele>612.0</ele><time>2026-05-01T14:49:12Z</time></trkpt><trkpt lat="40.68619668020407" lon="9.36361373496324"><ele>614.5</ele><time>2026-05-01T14:49:13Z</time></trkpt><trkpt lat="40.6864070040751" lon="9.363733108407224"><ele>617.0</ele><time>2026-05-01T14:49:14Z</time></trkpt><trkpt lat="40.68662467392741" lon="9.363868305915892"><ele>612.6666666666666</ele><time>2026-05-01T14:49:15Z</time></trkpt><trkpt lat="40.68680647439747" lon="9.363985492032208"><ele>608.3333333333334</ele><time>2026-05-01T14:49:16Z</time></trkpt><trkpt lat="40.6869491290254" lon="9.364060560421247"><ele>604.0</ele><time>2026-05-01T14:49:17Z</time></trkpt><trkpt lat="40.687092111296444" lon="9.36407697378886"><ele>604.0</ele><time>2026-05-01T14:49:18Z</time></trkpt><trkpt lat="40.68725093692407" lon="9.364043058870386"><ele>604.0</ele><time>2026-05-01T14:49:19Z</time></trkpt><trkpt lat="40.6873850070801" lon="9.36399996949282"><ele>604.0</ele><time>2026-05-01T14:49:20Z</time></trkpt><trkpt lat="40.68749032881782" lon="9.364020747855196"><ele>604.0</ele><time>2026-05-01T14:49:21Z</time></trkpt><trkpt lat="40.68756420699564" lon="9.364142689652686"><ele>604.0</ele><time>2026-05-01T14:49:22Z</time></trkpt><trkpt lat="40.687570517653505" lon="9.364354690738843"><ele>604.0</ele><time>2026-05-01T14:49:23Z</time></trkpt><trkpt lat="40.6875835102087" lon="9.364575579044542"><ele>604.0</ele><time>2026-05-01T14:49:24Z</time></trkpt><trkpt lat="40.68758256338185" lon="9.364819423855609"><ele>601.6666666666667</ele><time>2026-05-01T14:49:25Z</time></trkpt><trkpt lat="40.68758326340772" lon="9.365103869208529"><ele>599.3333333333334</ele><time>2026-05-01T14:49:26Z</time></trkpt><trkpt lat="40.687574580140364" lon="9.365380981172992"><ele>597.0</ele><time>2026-05-01T14:49:27Z</time></trkpt><trkpt lat="40.6875415940931" lon="9.365619073986563"><ele>596.0</ele><time>2026-05-01T14:49:28Z</time></trkpt><trkpt lat="40.68752710035215" lon="9.365828570263975"><ele>595.0</ele><time>2026-05-01T14:49:29Z</time></trkpt><trkpt lat="40.68754868626191" lon="9.366019440282377"><ele>594.0</ele><time>2026-05-01T14:49:30Z</time></trkpt><trkpt lat="40.687635777638164" lon="9.36620529734047"><ele>592.3333333333334</ele><time>2026-05-01T14:49:31Z</time></trkpt><trkpt lat="40.68778368339161" lon="9.366308395880331"><ele>590.6666666666667</ele><time>2026-05-01T14:49:32Z</time></trkpt><trkpt lat="40.68797314849121" lon="9.366390935273644"><ele>589.0</ele><time>2026-05-01T14:49:33Z</time></trkpt><trkpt lat="40.688156069356204" lon="9.366476329020667"><ele>589.0</ele><time>2026-05-01T14:49:34Z</time></trkpt><trkpt lat="40.68830976724164" lon="9.366563427627478"><ele>589.0</ele><time>2026-05-01T14:49:35Z</time></trkpt><trkpt lat="40.68843759012406" lon="9.366677291517327"><ele>589.0</ele><time>2026-05-01T14:49:36Z</time></trkpt><trkpt lat="40.688531303858966" lon="9.366865577631991"><ele>593.6666666666667</ele><time>2026-05-01T14:49:37Z</time></trkpt><trkpt lat="40.688598083043054" lon="9.367133869844439"><ele>598.3333333333334</ele><time>2026-05-01T14:49:38Z</time></trkpt><trkpt lat="40.68865603410862" lon="9.367423391608659"><ele>603.0</ele><time>2026-05-01T14:49:39Z</time></trkpt><trkpt lat="40.688723978070875" lon="9.367707186309877"><ele>603.0</ele><time>2026-05-01T14:49:40Z</time></trkpt><trkpt lat="40.68877195515823" lon="9.368024158609986"><ele>603.0</ele><time>2026-05-01T14:49:41Z</time></trkpt><trkpt lat="40.68881731700644" lon="9.368338271839507"><ele>601.6666666666666</ele><time>2026-05-01T14:49:42Z</time></trkpt><trkpt lat="40.6888813805037" lon="9.368625846672321"><ele>600.3333333333333</ele><time>2026-05-01T14:49:43Z</time></trkpt><trkpt lat="40.688926371056986" lon="9.368894263962154"><ele>599.0</ele><time>2026-05-01T14:49:44Z</time></trkpt><trkpt lat="40.68897380967349" lon="9.36914406912178"><ele>598.6666666666666</ele><time>2026-05-01T14:49:45Z</time></trkpt><trkpt lat="40.689035142588814" lon="9.369369095624984"><ele>598.3333333333334</ele><time>2026-05-01T14:49:46Z</time></trkpt><trkpt lat="40.689127606024115" lon="9.369570526208513"><ele>598.0</ele><time>2026-05-01T14:49:47Z</time></trkpt><trkpt lat="40.68925709825566" lon="9.36976173920681"><ele>596.6666666666667</ele><time>2026-05-01T14:49:48Z</time></trkpt><trkpt lat="40.689422538888195" lon="9.369913376299701"><ele>595.3333333333334</ele><time>2026-05-01T14:49:49Z</time></trkpt><trkpt lat="40.68961738705653" lon="9.370023738214124"><ele>594.0</ele><time>2026-05-01T14:49:50Z</time></trkpt><trkpt lat="40.68983887370505" lon="9.370113657852372"><ele>599.0</ele><time>2026-05-01T14:49:51Z</time></trkpt><trkpt lat="40.69005850774601" lon="9.370244474418115"><ele>604.0</ele><time>2026-05-01T14:49:52Z</time></trkpt><trkpt lat="40.69025951342142" lon="9.370442754206636"><ele>605.5</ele><time>2026-05-01T14:49:53Z</time></trkpt><trkpt lat="40.69042561908366" lon="9.370683041895466"><ele>607.0</ele><time>2026-05-01T14:49:54Z</time></trkpt><trkpt lat="40.69056336091217" lon="9.370992768908993"><ele>607.0</ele><time>2026-05-01T14:49:55Z</time></trkpt><trkpt lat="40.69069823473387" lon="9.371309035186835"><ele>607.0</ele><time>2026-05-01T14:49:56Z</time></trkpt><trkpt lat="40.690810526765105" lon="9.371585066936957"><ele>607.0</ele><time>2026-05-01T14:49:57Z</time></trkpt><trkpt lat="40.69094309754906" lon="9.37182899825241"><ele>607.0</ele><time>2026-05-01T14:49:58Z</time></trkpt><trkpt lat="40.69109768465093" lon="9.372013656675453"><ele>607.0</ele><time>2026-05-01T14:49:59Z</time></trkpt><trkpt lat="40.691280181159975" lon="9.372156355469695"><ele>608.0</ele><time>2026-05-01T14:50:00Z</time></trkpt><trkpt lat="40.69147596491428" lon="9.372264209955938"><ele>609.0</ele><time>2026-05-01T14:50:01Z</time></trkpt><trkpt lat="40.691701358271345" lon="9.372340539968128"><ele>610.0</ele><time>2026-05-01T14:50:02Z</time></trkpt><trkpt lat="40.69193447004629" lon="9.372408358680357"><ele>610.0</ele><time>2026-05-01T14:50:03Z</time></trkpt><trkpt lat="40.69214022001839" lon="9.372509134293995"><ele>610.0</ele><time>2026-05-01T14:50:04Z</time></trkpt><trkpt lat="40.69233308885736" lon="9.372673702370554"><ele>610.0</ele><time>2026-05-01T14:50:05Z</time></trkpt><trkpt lat="40.692509878523886" lon="9.372894148080638"><ele>607.0</ele><time>2026-05-01T14:50:06Z</time></trkpt><trkpt lat="40.69267848504835" lon="9.37315213976199"><ele>604.0</ele><time>2026-05-01T14:50:07Z</time></trkpt><trkpt lat="40.692841419756135" lon="9.373415122540385"><ele>611.0</ele><time>2026-05-01T14:50:08Z</time></trkpt><trkpt lat="40.69302223588413" lon="9.373641109167048"><ele>618.0</ele><time>2026-05-01T14:50:09Z</time></trkpt><trkpt lat="40.693213087706184" lon="9.373834703073301"><ele>618.5</ele><time>2026-05-01T14:50:10Z</time></trkpt><trkpt lat="40.693415610276425" lon="9.373987380229652"><ele>619.0</ele><time>2026-05-01T14:50:11Z</time></trkpt><trkpt lat="40.69361276393243" lon="9.374106095495799"><ele>619.0</ele><time>2026-05-01T14:50:12Z</time></trkpt><trkpt lat="40.69380981367505" lon="9.374207447816147"><ele>619.0</ele><time>2026-05-01T14:50:13Z</time></trkpt><trkpt lat="40.69412529080541" lon="9.374196969870882"><ele>619.0</ele><time>2026-05-01T14:50:14Z</time></trkpt><trkpt lat="40.694379216933946" lon="9.3741773767131"><ele>619.0</ele><time>2026-05-01T14:50:15Z</time></trkpt><trkpt lat="40.694633799932774" lon="9.374112363761707"><ele>620.5</ele><time>2026-05-01T14:50:16Z</time></trkpt><trkpt lat="40.69488845415049" lon="9.373998868595026"><ele>622.0</ele><time>2026-05-01T14:50:17Z</time></trkpt><trkpt lat="40.695133903392616" lon="9.373840709322703"><ele>624.5</ele><time>2026-05-01T14:50:18Z</time></trkpt><trkpt lat="40.695362684092686" lon="9.373644483234413"><ele>627.0</ele><time>2026-05-01T14:50:19Z</time></trkpt><trkpt lat="40.69555305542345" lon="9.37343529836589"><ele>627.0</ele><time>2026-05-01T14:50:20Z</time></trkpt><trkpt lat="40.69572368459228" lon="9.373237930399936"><ele>627.0</ele><time>2026-05-01T14:50:21Z</time></trkpt><trkpt lat="40.69590077084356" lon="9.373079442867917"><ele>627.0</ele><time>2026-05-01T14:50:22Z</time></trkpt><trkpt lat="40.69608073123173" lon="9.37299054624966"><ele>629.6666666666666</ele><time>2026-05-01T14:50:23Z</time></trkpt><trkpt lat="40.69625061876541" lon="9.372966246463942"><ele>632.3333333333333</ele><time>2026-05-01T14:50:24Z</time></trkpt><trkpt lat="40.696421171886946" lon="9.373010038070289"><ele>635.0</ele><time>2026-05-01T14:50:25Z</time></trkpt><trkpt lat="40.69659452821917" lon="9.373112549686095"><ele>635.0</ele><time>2026-05-01T14:50:26Z</time></trkpt><trkpt lat="40.69675421679379" lon="9.373270074179212"><ele>635.0</ele><time>2026-05-01T14:50:27Z</time></trkpt><trkpt lat="40.696895459220876" lon="9.373483855000922"><ele>635.0</ele><time>2026-05-01T14:50:28Z</time></trkpt><trkpt lat="40.69701765250916" lon="9.373721201291477"><ele>638.0</ele><time>2026-05-01T14:50:29Z</time></trkpt><trkpt lat="40.697122028782225" lon="9.373932189448388"><ele>641.0</ele><time>2026-05-01T14:50:30Z</time></trkpt><trkpt lat="40.6972393338614" lon="9.374136811369755"><ele>644.0</ele><time>2026-05-01T14:50:31Z</time></trkpt><trkpt lat="40.69738157334352" lon="9.374293101085813"><ele>644.0</ele><time>2026-05-01T14:50:32Z</time></trkpt><trkpt lat="40.697577635456376" lon="9.374372384449877"><ele>644.0</ele><time>2026-05-01T14:50:33Z</time></trkpt><trkpt lat="40.69776589949065" lon="9.374446784494872"><ele>644.0</ele><time>2026-05-01T14:50:34Z</time></trkpt><trkpt lat="40.69793008972475" lon="9.374501019056774"><ele>646.0</ele><time>2026-05-01T14:50:35Z</time></trkpt><trkpt lat="40.69810925135686" lon="9.374507337095183"><ele>648.0</ele><time>2026-05-01T14:50:36Z</time></trkpt><trkpt lat="40.69829050210436" lon="9.3744394757588"><ele>650.0</ele><time>2026-05-01T14:50:37Z</time></trkpt><trkpt lat="40.69846700676383" lon="9.37431520570476"><ele>652.3333333333333</ele><time>2026-05-01T14:50:38Z</time></trkpt><trkpt lat="40.698637259886866" lon="9.37418523398165"><ele>654.6666666666666</ele><time>2026-05-01T14:50:39Z</time></trkpt><trkpt lat="40.6988293122799" lon="9.374115377135993"><ele>657.0</ele><time>2026-05-01T14:50:40Z</time></trkpt><trkpt lat="40.69903995184184" lon="9.37418931472899"><ele>657.0</ele><time>2026-05-01T14:50:41Z</time></trkpt><trkpt lat="40.69925657330382" lon="9.374235224763368"><ele>657.0</ele><time>2026-05-01T14:50:42Z</time></trkpt><trkpt lat="40.69948059358508" lon="9.374278035359067"><ele>657.0</ele><time>2026-05-01T14:50:43Z</time></trkpt><trkpt lat="40.699714588421266" lon="9.374327625111912"><ele>658.5</ele><time>2026-05-01T14:50:44Z</time></trkpt><trkpt lat="40.699957444536935" lon="9.374409340458582"><ele>660.0</ele><time>2026-05-01T14:50:45Z</time></trkpt><trkpt lat="40.70018608024189" lon="9.374447280505988"><ele>661.0</ele><time>2026-05-01T14:50:46Z</time></trkpt><trkpt lat="40.70037923245523" lon="9.37446435219247"><ele>662.0</ele><time>2026-05-01T14:50:47Z</time></trkpt><trkpt lat="40.70052770033421" lon="9.374441814237121"><ele>663.0</ele><time>2026-05-01T14:50:48Z</time></trkpt><trkpt lat="40.70065990680575" lon="9.374351545026876"><ele>663.0</ele><time>2026-05-01T14:50:49Z</time></trkpt><trkpt lat="40.70074536871756" lon="9.374171825461108"><ele>663.0</ele><time>2026-05-01T14:50:50Z</time></trkpt><trkpt lat="40.700840017847234" lon="9.373957153733935"><ele>663.0</ele><time>2026-05-01T14:50:51Z</time></trkpt><trkpt lat="40.70095907992151" lon="9.37374232510834"><ele>661.0</ele><time>2026-05-01T14:50:52Z</time></trkpt><trkpt lat="40.701112414051714" lon="9.373664867232744"><ele>659.0</ele><time>2026-05-01T14:50:53Z</time></trkpt><trkpt lat="40.70129622761672" lon="9.373644032018449"><ele>657.0</ele><time>2026-05-01T14:50:54Z</time></trkpt><trkpt lat="40.70152596148093" lon="9.373656595796481"><ele>657.0</ele><time>2026-05-01T14:50:55Z</time></trkpt><trkpt lat="40.70176194357017" lon="9.373651145880315"><ele>657.0</ele><time>2026-05-01T14:50:56Z</time></trkpt><trkpt lat="40.70197834804966" lon="9.373641888255108"><ele>657.0</ele><time>2026-05-01T14:50:57Z</time></trkpt><trkpt lat="40.702163295716694" lon="9.373543268460345"><ele>657.0</ele><time>2026-05-01T14:50:58Z</time></trkpt><trkpt lat="40.702345865619215" lon="9.373399611399577"><ele>657.0</ele><time>2026-05-01T14:50:59Z</time></trkpt><trkpt lat="40.702520557306066" lon="9.373201620150802"><ele>654.5</ele><time>2026-05-01T14:51:00Z</time></trkpt><trkpt lat="40.702687402751984" lon="9.372977398786244"><ele>652.0</ele><time>2026-05-01T14:51:01Z</time></trkpt><trkpt lat="40.70284469205589" lon="9.372778781937283"><ele>652.0</ele><time>2026-05-01T14:51:02Z</time></trkpt><trkpt lat="40.702979382192304" lon="9.372550001613227"><ele>652.0</ele><time>2026-05-01T14:51:03Z</time></trkpt><trkpt lat="40.703089157346795" lon="9.372321127775917"><ele>652.0</ele><time>2026-05-01T14:51:04Z</time></trkpt><trkpt lat="40.70319988770333" lon="9.372131170719191"><ele>649.0</ele><time>2026-05-01T14:51:05Z</time></trkpt><trkpt lat="40.70331363041399" lon="9.371975183823274"><ele>646.0</ele><time>2026-05-01T14:51:06Z</time></trkpt><trkpt lat="40.703465213584025" lon="9.37186103664392"><ele>643.0</ele><time>2026-05-01T14:51:07Z</time></trkpt><trkpt lat="40.70366619006236" lon="9.371778601260035"><ele>642.0</ele><time>2026-05-01T14:51:08Z</time></trkpt><trkpt lat="40.703891208902256" lon="9.37169586813683"><ele>641.0</ele><time>2026-05-01T14:51:09Z</time></trkpt><trkpt lat="40.70411606148799" lon="9.371599518615922"><ele>641.0</ele><time>2026-05-01T14:51:10Z</time></trkpt><trkpt lat="40.704350774194296" lon="9.37149821888178"><ele>641.0</ele><time>2026-05-01T14:51:11Z</time></trkpt><trkpt lat="40.70458983915895" lon="9.371401548793491"><ele>635.0</ele><time>2026-05-01T14:51:12Z</time></trkpt><trkpt lat="40.70483699579345" lon="9.371329864692282"><ele>629.0</ele><time>2026-05-01T14:51:13Z</time></trkpt><trkpt lat="40.70509455603323" lon="9.371293177548544"><ele>627.5</ele><time>2026-05-01T14:51:14Z</time></trkpt><trkpt lat="40.7053359792972" lon="9.37127428021782"><ele>626.0</ele><time>2026-05-01T14:51:15Z</time></trkpt><trkpt lat="40.705566896527216" lon="9.371263511785399"><ele>626.0</ele><time>2026-05-01T14:51:16Z</time></trkpt><trkpt lat="40.70580621084574" lon="9.371280949017805"><ele>626.0</ele><time>2026-05-01T14:51:17Z</time></trkpt><trkpt lat="40.706048535907115" lon="9.37134511305278"><ele>626.5</ele><time>2026-05-01T14:51:18Z</time></trkpt><trkpt lat="40.70628355124613" lon="9.371421026737766"><ele>627.0</ele><time>2026-05-01T14:51:19Z</time></trkpt><trkpt lat="40.70650186721826" lon="9.371476699772337"><ele>627.0</ele><time>2026-05-01T14:51:20Z</time></trkpt><trkpt lat="40.70672816065014" lon="9.371523491144918"><ele>627.0</ele><time>2026-05-01T14:51:21Z</time></trkpt><trkpt lat="40.706976164632586" lon="9.37153455394835"><ele>625.0</ele><time>2026-05-01T14:51:22Z</time></trkpt><trkpt lat="40.70724156864189" lon="9.371511244443614"><ele>623.0</ele><time>2026-05-01T14:51:23Z</time></trkpt><trkpt lat="40.70749956123185" lon="9.371489509408516"><ele>623.0</ele><time>2026-05-01T14:51:24Z</time></trkpt><trkpt lat="40.70773697016021" lon="9.371478385952095"><ele>623.0</ele><time>2026-05-01T14:51:25Z</time></trkpt><trkpt lat="40.70795717293711" lon="9.371468560804216"><ele>622.0</ele><time>2026-05-01T14:51:26Z</time></trkpt><trkpt lat="40.70816183972066" lon="9.371442769211136"><ele>621.0</ele><time>2026-05-01T14:51:27Z</time></trkpt><trkpt lat="40.708371762734124" lon="9.371423562866104"><ele>620.0</ele><time>2026-05-01T14:51:28Z</time></trkpt><trkpt lat="40.7085659703998" lon="9.371392631531508"><ele>619.6666666666666</ele><time>2026-05-01T14:51:29Z</time></trkpt><trkpt lat="40.70876861639118" lon="9.371361714054203"><ele>619.3333333333334</ele><time>2026-05-01T14:51:30Z</time></trkpt><trkpt lat="40.708972823971635" lon="9.371325772510984"><ele>619.0</ele><time>2026-05-01T14:51:31Z</time></trkpt><trkpt lat="40.70917403982301" lon="9.371296370844478"><ele>619.0</ele><time>2026-05-01T14:51:32Z</time></trkpt><trkpt lat="40.70938706898639" lon="9.371265989824781"><ele>619.0</ele><time>2026-05-01T14:51:33Z</time></trkpt><trkpt lat="40.709584128073615" lon="9.37125521369557"><ele>619.0</ele><time>2026-05-01T14:51:34Z</time></trkpt><trkpt lat="40.7097624952014" lon="9.371282219941545"><ele>616.0</ele><time>2026-05-01T14:51:35Z</time></trkpt><trkpt lat="40.7099266448466" lon="9.37139239973013"><ele>613.0</ele><time>2026-05-01T14:51:36Z</time></trkpt><trkpt lat="40.71007580495323" lon="9.37153652285137"><ele>610.0</ele><time>2026-05-01T14:51:37Z</time></trkpt><trkpt lat="40.71021064220489" lon="9.371683901799921"><ele>608.3333333333334</ele><time>2026-05-01T14:51:38Z</time></trkpt><trkpt lat="40.71034995576047" lon="9.371794858822367"><ele>606.6666666666666</ele><time>2026-05-01T14:51:39Z</time></trkpt><trkpt lat="40.71049992659744" lon="9.371846632619112"><ele>605.0</ele><time>2026-05-01T14:51:40Z</time></trkpt><trkpt lat="40.71066032969448" lon="9.371767940250791"><ele>605.0</ele><time>2026-05-01T14:51:41Z</time></trkpt><trkpt lat="40.71080778045324" lon="9.371627001134499"><ele>605.0</ele><time>2026-05-01T14:51:42Z</time></trkpt><trkpt lat="40.71096488328889" lon="9.371464985203794"><ele>605.0</ele><time>2026-05-01T14:51:43Z</time></trkpt><trkpt lat="40.71115616158285" lon="9.371314051346433"><ele>605.3333333333333</ele><time>2026-05-01T14:51:44Z</time></trkpt><trkpt lat="40.711346409845405" lon="9.371213266229486"><ele>605.6666666666666</ele><time>2026-05-01T14:51:45Z</time></trkpt><trkpt lat="40.711529442643425" lon="9.371159859765909"><ele>606.0</ele><time>2026-05-01T14:51:46Z</time></trkpt><trkpt lat="40.71171136244966" lon="9.371043750626075"><ele>606.0</ele><time>2026-05-01T14:51:47Z</time></trkpt><trkpt lat="40.711889986339806" lon="9.370877062550916"><ele>606.0</ele><time>2026-05-01T14:51:48Z</time></trkpt><trkpt lat="40.71206891905433" lon="9.370688533529533"><ele>606.0</ele><time>2026-05-01T14:51:49Z</time></trkpt><trkpt lat="40.712264651847725" lon="9.37052830067456"><ele>603.0</ele><time>2026-05-01T14:51:50Z</time></trkpt><trkpt lat="40.71246943899233" lon="9.3704006418641"><ele>600.0</ele><time>2026-05-01T14:51:51Z</time></trkpt><trkpt lat="40.71266300464475" lon="9.370298041404208"><ele>597.0</ele><time>2026-05-01T14:51:52Z</time></trkpt><trkpt lat="40.71283202943908" lon="9.370174662730186"><ele>593.0</ele><time>2026-05-01T14:51:53Z</time></trkpt><trkpt lat="40.712966340745666" lon="9.370013227082184"><ele>589.0</ele><time>2026-05-01T14:51:54Z</time></trkpt><trkpt lat="40.71306683492712" lon="9.369780789224519"><ele>585.0</ele><time>2026-05-01T14:51:55Z</time></trkpt><trkpt lat="40.71315083459179" lon="9.369499823509587"><ele>585.0</ele><time>2026-05-01T14:51:56Z</time></trkpt><trkpt lat="40.71324818871156" lon="9.369224071497536"><ele>585.0</ele><time>2026-05-01T14:51:57Z</time></trkpt><trkpt lat="40.713356911601274" lon="9.368982842096088"><ele>585.0</ele><time>2026-05-01T14:51:58Z</time></trkpt><trkpt lat="40.71344814164298" lon="9.368797613481213"><ele>586.25</ele><time>2026-05-01T14:51:59Z</time></trkpt><trkpt lat="40.71354909208893" lon="9.368683679392062"><ele>587.5</ele><time>2026-05-01T14:52:00Z</time></trkpt><trkpt lat="40.713679986210366" lon="9.368630858116138"><ele>588.75</ele><time>2026-05-01T14:52:01Z</time></trkpt><trkpt lat="40.71383559391222" lon="9.368663786556834"><ele>590.0</ele><time>2026-05-01T14:52:02Z</time></trkpt><trkpt lat="40.71397064033114" lon="9.368737052258314"><ele>590.0</ele><time>2026-05-01T14:52:03Z</time></trkpt><trkpt lat="40.71410537218879" lon="9.368835395450132"><ele>590.0</ele><time>2026-05-01T14:52:04Z</time></trkpt><trkpt lat="40.71427352903148" lon="9.368838845744204"><ele>590.0</ele><time>2026-05-01T14:52:05Z</time></trkpt><trkpt lat="40.714449715551496" lon="9.368783906730481"><ele>586.6666666666666</ele><time>2026-05-01T14:52:06Z</time></trkpt><trkpt lat="40.71465639785368" lon="9.368679376227437"><ele>583.3333333333334</ele><time>2026-05-01T14:52:07Z</time></trkpt><trkpt lat="40.71485601276058" lon="9.3685973372496"><ele>580.0</ele><time>2026-05-01T14:52:08Z</time></trkpt><trkpt lat="40.71503660608848" lon="9.368519465608983"><ele>580.0</ele><time>2026-05-01T14:52:09Z</time></trkpt><trkpt lat="40.71519412658146" lon="9.368416606709905"><ele>580.0</ele><time>2026-05-01T14:52:10Z</time></trkpt><trkpt lat="40.715324323636764" lon="9.368275887967751"><ele>580.0</ele><time>2026-05-01T14:52:11Z</time></trkpt><trkpt lat="40.71542391728896" lon="9.368079056472371"><ele>577.6666666666667</ele><time>2026-05-01T14:52:12Z</time></trkpt><trkpt lat="40.71547369323148" lon="9.367820569210485"><ele>575.3333333333334</ele><time>2026-05-01T14:52:13Z</time></trkpt><trkpt lat="40.71548114344744" lon="9.367539934039698"><ele>573.0</ele><time>2026-05-01T14:52:14Z</time></trkpt><trkpt lat="40.715439984816655" lon="9.367261514229337"><ele>572.6666666666666</ele><time>2026-05-01T14:52:15Z</time></trkpt><trkpt lat="40.71535896265898" lon="9.366998135176484"><ele>572.3333333333333</ele><time>2026-05-01T14:52:16Z</time></trkpt><trkpt lat="40.715295494347224" lon="9.366773634398045"><ele>572.0</ele><time>2026-05-01T14:52:17Z</time></trkpt><trkpt lat="40.71526940983012" lon="9.366598732270843"><ele>572.0</ele><time>2026-05-01T14:52:18Z</time></trkpt><trkpt lat="40.71529907074288" lon="9.366453982764208"><ele>572.0</ele><time>2026-05-01T14:52:19Z</time></trkpt><trkpt lat="40.71539691136683" lon="9.36632940364311"><ele>572.0</ele><time>2026-05-01T14:52:20Z</time></trkpt><trkpt lat="40.71554881954736" lon="9.366266375626928"><ele>572.0</ele><time>2026-05-01T14:52:21Z</time></trkpt><trkpt lat="40.71570834056005" lon="9.36621914256898"><ele>572.6666666666666</ele><time>2026-05-01T14:52:22Z</time></trkpt><trkpt lat="40.715843716653765" lon="9.366129826456275"><ele>573.3333333333334</ele><time>2026-05-01T14:52:23Z</time></trkpt><trkpt lat="40.715922606108315" lon="9.365963878713654"><ele>574.0</ele><time>2026-05-01T14:52:24Z</time></trkpt><trkpt lat="40.71593695992618" lon="9.365748845423134"><ele>573.3333333333334</ele><time>2026-05-01T14:52:25Z</time></trkpt><trkpt lat="40.71593671712849" lon="9.365507887376717"><ele>572.6666666666666</ele><time>2026-05-01T14:52:26Z</time></trkpt><trkpt lat="40.71595324276004" lon="9.365240879751298"><ele>572.0</ele><time>2026-05-01T14:52:27Z</time></trkpt><trkpt lat="40.71599668150603" lon="9.364986116926453"><ele>572.0</ele><time>2026-05-01T14:52:28Z</time></trkpt><trkpt lat="40.716062159456406" lon="9.364759698446377"><ele>572.0</ele><time>2026-05-01T14:52:29Z</time></trkpt><trkpt lat="40.716148270205835" lon="9.364598565568402"><ele>572.0</ele><time>2026-05-01T14:52:30Z</time></trkpt><trkpt lat="40.716244366787855" lon="9.364514207282689"><ele>572.0</ele><time>2026-05-01T14:52:31Z</time></trkpt><trkpt lat="40.71637263309295" lon="9.364487090020495"><ele>572.6666666666666</ele><time>2026-05-01T14:52:32Z</time></trkpt><trkpt lat="40.716549001746124" lon="9.364488366977904"><ele>573.3333333333334</ele><time>2026-05-01T14:52:33Z</time></trkpt><trkpt lat="40.716743243521975" lon="9.36452215053136"><ele>574.0</ele><time>2026-05-01T14:52:34Z</time></trkpt><trkpt lat="40.71689565436764" lon="9.364492316094655"><ele>576.6666666666667</ele><time>2026-05-01T14:52:35Z</time></trkpt><trkpt lat="40.717007124455314" lon="9.364346875807907"><ele>579.3333333333334</ele><time>2026-05-01T14:52:36Z</time></trkpt><trkpt lat="40.717067207867856" lon="9.364125252451585"><ele>582.0</ele><time>2026-05-01T14:52:37Z</time></trkpt><trkpt lat="40.71713961345789" lon="9.363870644453948"><ele>580.3333333333334</ele><time>2026-05-01T14:52:38Z</time></trkpt><trkpt lat="40.7172452742156" lon="9.363633616525336"><ele>578.6666666666667</ele><time>2026-05-01T14:52:39Z</time></trkpt><trkpt lat="40.71736388180464" lon="9.363421745913314"><ele>577.0</ele><time>2026-05-01T14:52:40Z</time></trkpt><trkpt lat="40.71746560962844" lon="9.363235374769937"><ele>577.0</ele><time>2026-05-01T14:52:41Z</time></trkpt><trkpt lat="40.717558181914825" lon="9.363059679737582"><ele>577.0</ele><time>2026-05-01T14:52:42Z</time></trkpt><trkpt lat="40.717650153884854" lon="9.36289176910637"><ele>577.0</ele><time>2026-05-01T14:52:43Z</time></trkpt><trkpt lat="40.717770200134204" lon="9.362760145016383"><ele>575.6666666666667</ele><time>2026-05-01T14:52:44Z</time></trkpt><trkpt lat="40.717944558738836" lon="9.362689067076142"><ele>574.3333333333334</ele><time>2026-05-01T14:52:45Z</time></trkpt><trkpt lat="40.718142209094324" lon="9.362669445147958"><ele>573.0</ele><time>2026-05-01T14:52:46Z</time></trkpt><trkpt lat="40.71833399061008" lon="9.36270797416657"><ele>573.0</ele><time>2026-05-01T14:52:47Z</time></trkpt><trkpt lat="40.71849477092592" lon="9.362782183604459"><ele>573.0</ele><time>2026-05-01T14:52:48Z</time></trkpt><trkpt lat="40.71862764975662" lon="9.362845827298274"><ele>573.0</ele><time>2026-05-01T14:52:49Z</time></trkpt><trkpt lat="40.71872346922604" lon="9.36281402581915"><ele>573.0</ele><time>2026-05-01T14:52:50Z</time></trkpt><trkpt lat="40.718831160911606" lon="9.362657798105216"><ele>575.0</ele><time>2026-05-01T14:52:51Z</time></trkpt><trkpt lat="40.71892314065256" lon="9.362439754642004"><ele>577.0</ele><time>2026-05-01T14:52:52Z</time></trkpt><trkpt lat="40.71900569949334" lon="9.362302725481573"><ele>579.0</ele><time>2026-05-01T14:52:53Z</time></trkpt><trkpt lat="40.719118958259365" lon="9.362224311249008"><ele>579.0</ele><time>2026-05-01T14:52:54Z</time></trkpt><trkpt lat="40.71926992251029" lon="9.362249459466641"><ele>579.0</ele><time>2026-05-01T14:52:55Z</time></trkpt><trkpt lat="40.719433746103384" lon="9.362308373692725"><ele>579.0</ele><time>2026-05-01T14:52:56Z</time></trkpt><trkpt lat="40.71959148476444" lon="9.362387788739344"><ele>580.0</ele><time>2026-05-01T14:52:57Z</time></trkpt><trkpt lat="40.71973238939189" lon="9.362392953963397"><ele>581.0</ele><time>2026-05-01T14:52:58Z</time></trkpt><trkpt lat="40.71987255930296" lon="9.3622852223929"><ele>582.0</ele><time>2026-05-01T14:52:59Z</time></trkpt><trkpt lat="40.72000353202157" lon="9.362083606673652"><ele>579.0</ele><time>2026-05-01T14:53:00Z</time></trkpt><trkpt lat="40.720126358946885" lon="9.361891777693344"><ele>576.0</ele><time>2026-05-01T14:53:01Z</time></trkpt><trkpt lat="40.720258641862166" lon="9.361739341920659"><ele>573.0</ele><time>2026-05-01T14:53:02Z</time></trkpt><trkpt lat="40.72039487082074" lon="9.36163349745238"><ele>573.0</ele><time>2026-05-01T14:53:03Z</time></trkpt><trkpt lat="40.720553627416116" lon="9.361585736747289"><ele>573.0</ele><time>2026-05-01T14:53:04Z</time></trkpt><trkpt lat="40.72074083527354" lon="9.361584665612398"><ele>573.0</ele><time>2026-05-01T14:53:05Z</time></trkpt><trkpt lat="40.720909752640324" lon="9.361602197785086"><ele>570.25</ele><time>2026-05-01T14:53:06Z</time></trkpt><trkpt lat="40.721066485858586" lon="9.361614016455022"><ele>567.5</ele><time>2026-05-01T14:53:07Z</time></trkpt><trkpt lat="40.72120341885108" lon="9.36163676306128"><ele>564.75</ele><time>2026-05-01T14:53:08Z</time></trkpt><trkpt lat="40.72129178700429" lon="9.361717034003995"><ele>562.0</ele><time>2026-05-01T14:53:09Z</time></trkpt><trkpt lat="40.721341575834366" lon="9.361841885269296"><ele>562.0</ele><time>2026-05-01T14:53:10Z</time></trkpt><trkpt lat="40.72136258750689" lon="9.3620338547233"><ele>562.0</ele><time>2026-05-01T14:53:11Z</time></trkpt><trkpt lat="40.721387361165625" lon="9.36224270003171"><ele>562.0</ele><time>2026-05-01T14:53:12Z</time></trkpt><trkpt lat="40.72141126054677" lon="9.36241856941901"><ele>562.0</ele><time>2026-05-01T14:53:13Z</time></trkpt><trkpt lat="40.721459808894416" lon="9.362550445901679"><ele>563.25</ele><time>2026-05-01T14:53:14Z</time></trkpt><trkpt lat="40.72158345830793" lon="9.362612760495761"><ele>564.5</ele><time>2026-05-01T14:53:15Z</time></trkpt><trkpt lat="40.7216992135749" lon="9.362583221136866"><ele>565.75</ele><time>2026-05-01T14:53:16Z</time></trkpt><trkpt lat="40.72178668031119" lon="9.362473733730724"><ele>567.0</ele><time>2026-05-01T14:53:17Z</time></trkpt><trkpt lat="40.72184118645578" lon="9.36231956896906"><ele>565.3333333333334</ele><time>2026-05-01T14:53:18Z</time></trkpt><trkpt lat="40.72188652517654" lon="9.362121704130566"><ele>563.6666666666667</ele><time>2026-05-01T14:53:19Z</time></trkpt><trkpt lat="40.72197875377051" lon="9.361952703937558"><ele>562.0</ele><time>2026-05-01T14:53:20Z</time></trkpt><trkpt lat="40.72210746566702" lon="9.36180665244893"><ele>561.25</ele><time>2026-05-01T14:53:21Z</time></trkpt><trkpt lat="40.722244543529065" lon="9.361692355222107"><ele>560.5</ele><time>2026-05-01T14:53:22Z</time></trkpt><trkpt lat="40.72237504982919" lon="9.361593962562564"><ele>559.75</ele><time>2026-05-01T14:53:23Z</time></trkpt><trkpt lat="40.722494869607814" lon="9.36152034293704"><ele>559.0</ele><time>2026-05-01T14:53:24Z</time></trkpt><trkpt lat="40.722637910152045" lon="9.361529468122528"><ele>555.6666666666667</ele><time>2026-05-01T14:53:25Z</time></trkpt><trkpt lat="40.72280690810521" lon="9.361593311835291"><ele>552.3333333333334</ele><time>2026-05-01T14:53:26Z</time></trkpt><trkpt lat="40.722993524475264" lon="9.361682695352899"><ele>549.0</ele><time>2026-05-01T14:53:27Z</time></trkpt><trkpt lat="40.72317506480709" lon="9.361820387076502"><ele>549.0</ele><time>2026-05-01T14:53:28Z</time></trkpt><trkpt lat="40.723306197861824" lon="9.361965769790599"><ele>549.0</ele><time>2026-05-01T14:53:29Z</time></trkpt><trkpt lat="40.72342360720687" lon="9.362139063507932"><ele>549.0</ele><time>2026-05-01T14:53:30Z</time></trkpt><trkpt lat="40.72351975712047" lon="9.362291506660874"><ele>549.75</ele><time>2026-05-01T14:53:31Z</time></trkpt><trkpt lat="40.723617846841236" lon="9.362407527503704"><ele>550.5</ele><time>2026-05-01T14:53:32Z</time></trkpt><trkpt lat="40.723783704622065" lon="9.36233783241016"><ele>551.25</ele><time>2026-05-01T14:53:33Z</time></trkpt><trkpt lat="40.72389400772853" lon="9.36226111777736"><ele>552.0</ele><time>2026-05-01T14:53:34Z</time></trkpt><trkpt lat="40.723980171568854" lon="9.362127121884647"><ele>552.0</ele><time>2026-05-01T14:53:35Z</time></trkpt><trkpt lat="40.72401312027894" lon="9.361942578997905"><ele>552.0</ele><time>2026-05-01T14:53:36Z</time></trkpt><trkpt lat="40.723995344523" lon="9.361732478997276"><ele>552.0</ele><time>2026-05-01T14:53:37Z</time></trkpt><trkpt lat="40.723941139746294" lon="9.361535873254645"><ele>549.0</ele><time>2026-05-01T14:53:38Z</time></trkpt><trkpt lat="40.72388807401509" lon="9.361362499740334"><ele>546.0</ele><time>2026-05-01T14:53:39Z</time></trkpt><trkpt lat="40.723877920723126" lon="9.361181050420841"><ele>543.0</ele><time>2026-05-01T14:53:40Z</time></trkpt><trkpt lat="40.72391712368817" lon="9.36101947717501"><ele>540.0</ele><time>2026-05-01T14:53:41Z</time></trkpt><trkpt lat="40.72400090201282" lon="9.360898453120623"><ele>540.0</ele><time>2026-05-01T14:53:42Z</time></trkpt><trkpt lat="40.72412734487251" lon="9.360835246988195"><ele>540.0</ele><time>2026-05-01T14:53:43Z</time></trkpt><trkpt lat="40.7242766087871" lon="9.360845073116518"><ele>540.0</ele><time>2026-05-01T14:53:44Z</time></trkpt><trkpt lat="40.72440508326251" lon="9.360857224795271"><ele>540.0</ele><time>2026-05-01T14:53:45Z</time></trkpt><trkpt lat="40.72460730183649" lon="9.36094057514948"><ele>534.0</ele><time>2026-05-01T14:53:46Z</time></trkpt><trkpt lat="40.72482960132288" lon="9.361033995084755"><ele>528.0</ele><time>2026-05-01T14:53:47Z</time></trkpt><trkpt lat="40.72506902192096" lon="9.361162849918566"><ele>524.5</ele><time>2026-05-01T14:53:48Z</time></trkpt><trkpt lat="40.72532522951297" lon="9.361283686578545"><ele>521.0</ele><time>2026-05-01T14:53:49Z</time></trkpt><trkpt lat="40.72561278221781" lon="9.361379540930532"><ele>526.5</ele><time>2026-05-01T14:53:50Z</time></trkpt><trkpt lat="40.7259138541569" lon="9.36145798569247"><ele>532.0</ele><time>2026-05-01T14:53:51Z</time></trkpt><trkpt lat="40.72618996261119" lon="9.361513278113417"><ele>532.0</ele><time>2026-05-01T14:53:52Z</time></trkpt><trkpt lat="40.72645378720456" lon="9.361559437792689"><ele>532.0</ele><time>2026-05-01T14:53:53Z</time></trkpt><trkpt lat="40.726699941960746" lon="9.361578867054405"><ele>529.0</ele><time>2026-05-01T14:53:54Z</time></trkpt><trkpt lat="40.72691478961309" lon="9.36154797448704"><ele>526.0</ele><time>2026-05-01T14:53:55Z</time></trkpt><trkpt lat="40.72711743256919" lon="9.361530633562388"><ele>523.0</ele><time>2026-05-01T14:53:56Z</time></trkpt><trkpt lat="40.72729810093522" lon="9.36157139633462"><ele>523.0</ele><time>2026-05-01T14:53:57Z</time></trkpt><trkpt lat="40.72746127236804" lon="9.361674064452007"><ele>523.0</ele><time>2026-05-01T14:53:58Z</time></trkpt><trkpt lat="40.727596137890295" lon="9.361831071988055"><ele>523.0</ele><time>2026-05-01T14:53:59Z</time></trkpt><trkpt lat="40.727713961897614" lon="9.361977765090879"><ele>521.3333333333334</ele><time>2026-05-01T14:54:00Z</time></trkpt><trkpt lat="40.727851140173485" lon="9.36206690736769"><ele>519.6666666666666</ele><time>2026-05-01T14:54:01Z</time></trkpt><trkpt lat="40.72802762806801" lon="9.362022301954076"><ele>518.0</ele><time>2026-05-01T14:54:02Z</time></trkpt><trkpt lat="40.72822135031104" lon="9.362006129660232"><ele>518.0</ele><time>2026-05-01T14:54:03Z</time></trkpt><trkpt lat="40.728430023912395" lon="9.362026955866394"><ele>518.0</ele><time>2026-05-01T14:54:04Z</time></trkpt><trkpt lat="40.72863803369426" lon="9.36201494531991"><ele>518.0</ele><time>2026-05-01T14:54:05Z</time></trkpt><trkpt lat="40.72885543429953" lon="9.361948074756592"><ele>517.0</ele><time>2026-05-01T14:54:06Z</time></trkpt><trkpt lat="40.72906654731741" lon="9.36180423709922"><ele>516.0</ele><time>2026-05-01T14:54:07Z</time></trkpt><trkpt lat="40.72924806984205" lon="9.361651211889725"><ele>515.6666666666666</ele><time>2026-05-01T14:54:08Z</time></trkpt><trkpt lat="40.729441694818135" lon="9.36159260156991"><ele>515.3333333333333</ele><time>2026-05-01T14:54:09Z</time></trkpt><trkpt lat="40.72964728068272" lon="9.361599597769017"><ele>515.0</ele><time>2026-05-01T14:54:10Z</time></trkpt><trkpt lat="40.729847872798885" lon="9.36161299924975"><ele>515.0</ele><time>2026-05-01T14:54:11Z</time></trkpt><trkpt lat="40.73003875488381" lon="9.361619560918419"><ele>515.0</ele><time>2026-05-01T14:54:12Z</time></trkpt><trkpt lat="40.73023796622276" lon="9.361676846662792"><ele>515.0</ele><time>2026-05-01T14:54:13Z</time></trkpt><trkpt lat="40.73045092845678" lon="9.361820772499817"><ele>514.5</ele><time>2026-05-01T14:54:14Z</time></trkpt><trkpt lat="40.730680648961055" lon="9.361974525348888"><ele>514.0</ele><time>2026-05-01T14:54:15Z</time></trkpt><trkpt lat="40.73091276114733" lon="9.36210265307607"><ele>511.6666666666667</ele><time>2026-05-01T14:54:16Z</time></trkpt><trkpt lat="40.73112897423897" lon="9.362185089361068"><ele>509.33333333333337</ele><time>2026-05-01T14:54:17Z</time></trkpt><trkpt lat="40.73132542896456" lon="9.36225172390221"><ele>507.0</ele><time>2026-05-01T14:54:18Z</time></trkpt><trkpt lat="40.73151957361621" lon="9.36236457526803"><ele>507.0</ele><time>2026-05-01T14:54:19Z</time></trkpt><trkpt lat="40.73169271211024" lon="9.362518132986843"><ele>507.0</ele><time>2026-05-01T14:54:20Z</time></trkpt><trkpt lat="40.73183895660139" lon="9.362695092476446"><ele>507.0</ele><time>2026-05-01T14:54:21Z</time></trkpt><trkpt lat="40.73195533907392" lon="9.362848654745584"><ele>506.75</ele><time>2026-05-01T14:54:22Z</time></trkpt><trkpt lat="40.73202404711555" lon="9.363013508569168"><ele>506.5</ele><time>2026-05-01T14:54:23Z</time></trkpt><trkpt lat="40.73205297981772" lon="9.363195889729397"><ele>506.25</ele><time>2026-05-01T14:54:24Z</time></trkpt><trkpt lat="40.73209725325216" lon="9.363342919570155"><ele>506.0</ele><time>2026-05-01T14:54:25Z</time></trkpt><trkpt lat="40.73219314040819" lon="9.363427509991505"><ele>506.0</ele><time>2026-05-01T14:54:26Z</time></trkpt><trkpt lat="40.73232455476939" lon="9.363401828249444"><ele>506.0</ele><time>2026-05-01T14:54:27Z</time></trkpt><trkpt lat="40.73241332412676" lon="9.363303240881223"><ele>506.0</ele><time>2026-05-01T14:54:28Z</time></trkpt><trkpt lat="40.73244967944402" lon="9.363121066500671"><ele>506.0</ele><time>2026-05-01T14:54:29Z</time></trkpt><trkpt lat="40.73245506126503" lon="9.36290950851147"><ele>504.66666666666663</ele><time>2026-05-01T14:54:30Z</time></trkpt><trkpt lat="40.73246777952419" lon="9.362667482881108"><ele>503.33333333333337</ele><time>2026-05-01T14:54:31Z</time></trkpt><trkpt lat="40.73245973553459" lon="9.362400874859768"><ele>502.0</ele><time>2026-05-01T14:54:32Z</time></trkpt><trkpt lat="40.73239378514176" lon="9.362131023390392"><ele>500.6666666666667</ele><time>2026-05-01T14:54:33Z</time></trkpt><trkpt lat="40.732308621208276" lon="9.361885931339952"><ele>499.33333333333337</ele><time>2026-05-01T14:54:34Z</time></trkpt><trkpt lat="40.73223823184748" lon="9.361685198947091"><ele>498.0</ele><time>2026-05-01T14:54:35Z</time></trkpt><trkpt lat="40.732192769615914" lon="9.36151966030332"><ele>498.0</ele><time>2026-05-01T14:54:36Z</time></trkpt><trkpt lat="40.73218541093215" lon="9.361383478867713"><ele>498.0</ele><time>2026-05-01T14:54:37Z</time></trkpt><trkpt lat="40.73224308261079" lon="9.361277618373297"><ele>498.0</ele><time>2026-05-01T14:54:38Z</time></trkpt><trkpt lat="40.7323527898764" lon="9.361218757711411"><ele>498.0</ele><time>2026-05-01T14:54:39Z</time></trkpt><trkpt lat="40.73250491537765" lon="9.361202656713512"><ele>495.66666666666663</ele><time>2026-05-01T14:54:40Z</time></trkpt><trkpt lat="40.73268901137677" lon="9.361227150108359"><ele>493.3333333333333</ele><time>2026-05-01T14:54:41Z</time></trkpt><trkpt lat="40.73288061069988" lon="9.361268064330897"><ele>491.0</ele><time>2026-05-01T14:54:42Z</time></trkpt><trkpt lat="40.73306107703092" lon="9.36130808602736"><ele>489.66666666666663</ele><time>2026-05-01T14:54:43Z</time></trkpt><trkpt lat="40.733236920030016" lon="9.361298348061519"><ele>488.33333333333337</ele><time>2026-05-01T14:54:44Z</time></trkpt><trkpt lat="40.73340074485544" lon="9.36121159486954"><ele>487.0</ele><time>2026-05-01T14:54:45Z</time></trkpt><trkpt lat="40.733579530340684" lon="9.361000178026867"><ele>493.5</ele><time>2026-05-01T14:54:46Z</time></trkpt><trkpt lat="40.73376610700727" lon="9.360811251691022"><ele>500.0</ele><time>2026-05-01T14:54:47Z</time></trkpt><trkpt lat="40.733938326177864" lon="9.360639509410248"><ele>494.66666666666663</ele><time>2026-05-01T14:54:48Z</time></trkpt><trkpt lat="40.73407243264269" lon="9.360431845473222"><ele>489.33333333333337</ele><time>2026-05-01T14:54:49Z</time></trkpt><trkpt lat="40.734193081536" lon="9.360231718563462"><ele>484.0</ele><time>2026-05-01T14:54:50Z</time></trkpt><trkpt lat="40.7343239826998" lon="9.360049527850848"><ele>487.33333333333337</ele><time>2026-05-01T14:54:51Z</time></trkpt><trkpt lat="40.734499376832" lon="9.359934803549802"><ele>490.66666666666663</ele><time>2026-05-01T14:54:52Z</time></trkpt><trkpt lat="40.73470799722685" lon="9.359862817985888"><ele>494.0</ele><time>2026-05-01T14:54:53Z</time></trkpt><trkpt lat="40.73494119802176" lon="9.359794652544768"><ele>486.5</ele><time>2026-05-01T14:54:54Z</time></trkpt><trkpt lat="40.73516219054777" lon="9.359681966110456"><ele>479.0</ele><time>2026-05-01T14:54:55Z</time></trkpt><trkpt lat="40.73535781323759" lon="9.359559244121046"><ele>479.0</ele><time>2026-05-01T14:54:56Z</time></trkpt><trkpt lat="40.735542169582025" lon="9.359464568979728"><ele>479.0</ele><time>2026-05-01T14:54:57Z</time></trkpt><trkpt lat="40.735703822626284" lon="9.359403933261202"><ele>479.0</ele><time>2026-05-01T14:54:58Z</time></trkpt><trkpt lat="40.73588732891997" lon="9.3593870609526"><ele>478.0</ele><time>2026-05-01T14:54:59Z</time></trkpt><trkpt lat="40.73609081958649" lon="9.359420902125834"><ele>477.0</ele><time>2026-05-01T14:55:00Z</time></trkpt><trkpt lat="40.7363052274578" lon="9.359502098382016"><ele>476.0</ele><time>2026-05-01T14:55:01Z</time></trkpt><trkpt lat="40.73650309510354" lon="9.359604012468376"><ele>477.0</ele><time>2026-05-01T14:55:02Z</time></trkpt><trkpt lat="40.73667121366225" lon="9.359738650290153"><ele>478.0</ele><time>2026-05-01T14:55:03Z</time></trkpt><trkpt lat="40.73680558517661" lon="9.359904687755275"><ele>479.0</ele><time>2026-05-01T14:55:04Z</time></trkpt><trkpt lat="40.73691554165496" lon="9.36012097555094"><ele>479.0</ele><time>2026-05-01T14:55:05Z</time></trkpt><trkpt lat="40.737024368502276" lon="9.360364107667976"><ele>479.0</ele><time>2026-05-01T14:55:06Z</time></trkpt><trkpt lat="40.73714235707439" lon="9.360625360146532"><ele>479.0</ele><time>2026-05-01T14:55:07Z</time></trkpt><trkpt lat="40.73726247050363" lon="9.3608763839125"><ele>480.66666666666663</ele><time>2026-05-01T14:55:08Z</time></trkpt><trkpt lat="40.737381916277826" lon="9.361097894484814"><ele>482.33333333333337</ele><time>2026-05-01T14:55:09Z</time></trkpt><trkpt lat="40.73753066073926" lon="9.361296748354473"><ele>484.0</ele><time>2026-05-01T14:55:10Z</time></trkpt><trkpt lat="40.737716603634475" lon="9.361473494913993"><ele>484.6666666666667</ele><time>2026-05-01T14:55:11Z</time></trkpt><trkpt lat="40.7379145495899" lon="9.361592663575445"><ele>485.33333333333337</ele><time>2026-05-01T14:55:12Z</time></trkpt><trkpt lat="40.73810021309389" lon="9.361703501296759"><ele>486.0</ele><time>2026-05-01T14:55:13Z</time></trkpt><trkpt lat="40.738249269491774" lon="9.361872585795213"><ele>486.0</ele><time>2026-05-01T14:55:14Z</time></trkpt><trkpt lat="40.7383853665458" lon="9.362093184785227"><ele>486.0</ele><time>2026-05-01T14:55:15Z</time></trkpt><trkpt lat="40.73849732968946" lon="9.3623579012971"><ele>486.0</ele><time>2026-05-01T14:55:16Z</time></trkpt><trkpt lat="40.73860105876353" lon="9.362636114472295"><ele>485.5</ele><time>2026-05-01T14:55:17Z</time></trkpt><trkpt lat="40.738717661269234" lon="9.362929415880382"><ele>485.0</ele><time>2026-05-01T14:55:18Z</time></trkpt><trkpt lat="40.73883161399666" lon="9.363220973262246"><ele>481.5</ele><time>2026-05-01T14:55:19Z</time></trkpt><trkpt lat="40.73895686676024" lon="9.363511562224504"><ele>478.0</ele><time>2026-05-01T14:55:20Z</time></trkpt><trkpt lat="40.739093098854646" lon="9.36379996612853"><ele>474.5</ele><time>2026-05-01T14:55:21Z</time></trkpt><trkpt lat="40.73924570484706" lon="9.364079730277542"><ele>471.0</ele><time>2026-05-01T14:55:22Z</time></trkpt><trkpt lat="40.739406001716354" lon="9.364351438940105"><ele>470.5</ele><time>2026-05-01T14:55:23Z</time></trkpt><trkpt lat="40.739570529509386" lon="9.364625626785958"><ele>470.0</ele><time>2026-05-01T14:55:24Z</time></trkpt><trkpt lat="40.739737820132596" lon="9.364896742324518"><ele>469.5</ele><time>2026-05-01T14:55:25Z</time></trkpt><trkpt lat="40.73989334211294" lon="9.365155184589904"><ele>469.0</ele><time>2026-05-01T14:55:26Z</time></trkpt><trkpt lat="40.740048935011146" lon="9.365381563851356"><ele>467.0</ele><time>2026-05-01T14:55:27Z</time></trkpt><trkpt lat="40.740222788957915" lon="9.36557199330436"><ele>465.0</ele><time>2026-05-01T14:55:28Z</time></trkpt><trkpt lat="40.7404185732655" lon="9.365722514955623"><ele>465.0</ele><time>2026-05-01T14:55:29Z</time></trkpt><trkpt lat="40.740627029566824" lon="9.365825280257676"><ele>465.0</ele><time>2026-05-01T14:55:30Z</time></trkpt><trkpt lat="40.740841903645446" lon="9.365869014697001"><ele>465.0</ele><time>2026-05-01T14:55:31Z</time></trkpt><trkpt lat="40.741094953308206" lon="9.365876030943948"><ele>465.5</ele><time>2026-05-01T14:55:32Z</time></trkpt><trkpt lat="40.74135257898006" lon="9.365859588341836"><ele>466.0</ele><time>2026-05-01T14:55:33Z</time></trkpt><trkpt lat="40.741615503149816" lon="9.365862986394182"><ele>466.0</ele><time>2026-05-01T14:55:34Z</time></trkpt><trkpt lat="40.74187607836113" lon="9.365880486429283"><ele>466.0</ele><time>2026-05-01T14:55:35Z</time></trkpt><trkpt lat="40.742127278075145" lon="9.365896407295345"><ele>468.0</ele><time>2026-05-01T14:55:36Z</time></trkpt><trkpt lat="40.742363120463544" lon="9.365920415390192"><ele>470.0</ele><time>2026-05-01T14:55:37Z</time></trkpt><trkpt lat="40.74258868704498" lon="9.365929856717885"><ele>469.3333333333333</ele><time>2026-05-01T14:55:38Z</time></trkpt><trkpt lat="40.74280953002901" lon="9.365932428473643"><ele>468.66666666666663</ele><time>2026-05-01T14:55:39Z</time></trkpt><trkpt lat="40.743030740998236" lon="9.365938223931844"><ele>468.0</ele><time>2026-05-01T14:55:40Z</time></trkpt><trkpt lat="40.74325143524442" lon="9.365946607364199"><ele>468.0</ele><time>2026-05-01T14:55:41Z</time></trkpt><trkpt lat="40.743471454895705" lon="9.365957114156263"><ele>468.0</ele><time>2026-05-01T14:55:42Z</time></trkpt><trkpt lat="40.74369089182154" lon="9.365961338074417"><ele>468.0</ele><time>2026-05-01T14:55:43Z</time></trkpt><trkpt lat="40.7439096123383" lon="9.365972838767522"><ele>467.33333333333337</ele><time>2026-05-01T14:55:44Z</time></trkpt><trkpt lat="40.74411655303353" lon="9.365990262746086"><ele>466.6666666666667</ele><time>2026-05-01T14:55:45Z</time></trkpt><trkpt lat="40.744294129645695" lon="9.365993391109006"><ele>466.0</ele><time>2026-05-01T14:55:46Z</time></trkpt><trkpt lat="40.7444630980909" lon="9.36599762704927"><ele>469.0</ele><time>2026-05-01T14:55:47Z</time></trkpt><trkpt lat="40.74462133812081" lon="9.366000943483435"><ele>472.0</ele><time>2026-05-01T14:55:48Z</time></trkpt><trkpt lat="40.74477336245964" lon="9.366005503906637"><ele>475.0</ele><time>2026-05-01T14:55:49Z</time></trkpt><trkpt lat="40.744933485562676" lon="9.366008245200954"><ele>475.0</ele><time>2026-05-01T14:55:50Z</time></trkpt><trkpt lat="40.74510027292459" lon="9.366020873829138"><ele>475.0</ele><time>2026-05-01T14:55:51Z</time></trkpt><trkpt lat="40.74526356470125" lon="9.366046139200359"><ele>475.0</ele><time>2026-05-01T14:55:52Z</time></trkpt><trkpt lat="40.74546107174157" lon="9.366119259295216"><ele>475.0</ele><time>2026-05-01T14:55:53Z</time></trkpt><trkpt lat="40.74565376390794" lon="9.366239890738067"><ele>475.0</ele><time>2026-05-01T14:55:54Z</time></trkpt><trkpt lat="40.7458399505517" lon="9.366421444392143"><ele>475.0</ele><time>2026-05-01T14:55:55Z</time></trkpt><trkpt lat="40.746013080522836" lon="9.366653405076939"><ele>480.0</ele><time>2026-05-01T14:55:56Z</time></trkpt><trkpt lat="40.746193633591226" lon="9.36689081006808"><ele>485.0</ele><time>2026-05-01T14:55:57Z</time></trkpt><trkpt lat="40.74635800033459" lon="9.367149510025271"><ele>483.5</ele><time>2026-05-01T14:55:58Z</time></trkpt><trkpt lat="40.74650573281759" lon="9.367405492658705"><ele>482.0</ele><time>2026-05-01T14:55:59Z</time></trkpt><trkpt lat="40.74662853440583" lon="9.367629699067322"><ele>482.0</ele><time>2026-05-01T14:56:00Z</time></trkpt><trkpt lat="40.746745242750855" lon="9.367839008019642"><ele>482.0</ele><time>2026-05-01T14:56:01Z</time></trkpt><trkpt lat="40.746860838160515" lon="9.368035947562587"><ele>482.0</ele><time>2026-05-01T14:56:02Z</time></trkpt><trkpt lat="40.74698391102826" lon="9.368225391585844"><ele>486.0</ele><time>2026-05-01T14:56:03Z</time></trkpt><trkpt lat="40.7471237464874" lon="9.368406468012973"><ele>490.0</ele><time>2026-05-01T14:56:04Z</time></trkpt><trkpt lat="40.747280436814094" lon="9.368576716079625"><ele>494.0</ele><time>2026-05-01T14:56:05Z</time></trkpt><trkpt lat="40.747433853859754" lon="9.368735819854377"><ele>493.0</ele><time>2026-05-01T14:56:06Z</time></trkpt><trkpt lat="40.74758476819004" lon="9.368877386228764"><ele>492.0</ele><time>2026-05-01T14:56:07Z</time></trkpt><trkpt lat="40.74775367640975" lon="9.368982400517678"><ele>491.0</ele><time>2026-05-01T14:56:08Z</time></trkpt><trkpt lat="40.74794487228688" lon="9.36902127210625"><ele>491.0</ele><time>2026-05-01T14:56:09Z</time></trkpt><trkpt lat="40.748149055532586" lon="9.36903511353183"><ele>491.0</ele><time>2026-05-01T14:56:10Z</time></trkpt><trkpt lat="40.748352663425266" lon="9.369074478823546"><ele>491.0</ele><time>2026-05-01T14:56:11Z</time></trkpt><trkpt lat="40.74854828155071" lon="9.369139843658763"><ele>498.0</ele><time>2026-05-01T14:56:12Z</time></trkpt><trkpt lat="40.74876323426374" lon="9.36924144357023"><ele>505.0</ele><time>2026-05-01T14:56:13Z</time></trkpt><trkpt lat="40.74897351758912" lon="9.36935357182871"><ele>505.0</ele><time>2026-05-01T14:56:14Z</time></trkpt><trkpt lat="40.74918039961524" lon="9.369489743965563"><ele>505.0</ele><time>2026-05-01T14:56:15Z</time></trkpt><trkpt lat="40.74936551674562" lon="9.36962502014759"><ele>505.0</ele><time>2026-05-01T14:56:16Z</time></trkpt><trkpt lat="40.74950277597988" lon="9.369771878071107"><ele>503.0</ele><time>2026-05-01T14:56:17Z</time></trkpt><trkpt lat="40.74960675991202" lon="9.369910116254147"><ele>501.0</ele><time>2026-05-01T14:56:18Z</time></trkpt><trkpt lat="40.749719431281406" lon="9.369992255875934"><ele>499.0</ele><time>2026-05-01T14:56:19Z</time></trkpt><trkpt lat="40.74987584281693" lon="9.369994912130792"><ele>497.0</ele><time>2026-05-01T14:56:20Z</time></trkpt><trkpt lat="40.75004941238049" lon="9.369994480262148"><ele>496.3333333333333</ele><time>2026-05-01T14:56:21Z</time></trkpt><trkpt lat="40.75021284512324" lon="9.369979220358015"><ele>495.66666666666663</ele><time>2026-05-01T14:56:22Z</time></trkpt><trkpt lat="40.750385007066434" lon="9.369891632056346"><ele>495.0</ele><time>2026-05-01T14:56:23Z</time></trkpt><trkpt lat="40.75055191407092" lon="9.36976302844916"><ele>498.0</ele><time>2026-05-01T14:56:24Z</time></trkpt><trkpt lat="40.750723099189635" lon="9.369620756343485"><ele>501.0</ele><time>2026-05-01T14:56:25Z</time></trkpt><trkpt lat="40.75089691002797" lon="9.369471816722323"><ele>504.0</ele><time>2026-05-01T14:56:26Z</time></trkpt><trkpt lat="40.75105963046769" lon="9.369333511098425"><ele>504.0</ele><time>2026-05-01T14:56:27Z</time></trkpt><trkpt lat="40.75120820178387" lon="9.36919184012861"><ele>504.0</ele><time>2026-05-01T14:56:28Z</time></trkpt><trkpt lat="40.75134183130683" lon="9.36901892980038"><ele>504.0</ele><time>2026-05-01T14:56:29Z</time></trkpt><trkpt lat="40.75145027065175" lon="9.368816377545851"><ele>505.0</ele><time>2026-05-01T14:56:30Z</time></trkpt><trkpt lat="40.751560293385175" lon="9.368631846646402"><ele>506.0</ele><time>2026-05-01T14:56:31Z</time></trkpt><trkpt lat="40.75171441323487" lon="9.368478270220375"><ele>507.0</ele><time>2026-05-01T14:56:32Z</time></trkpt><trkpt lat="40.75191293633062" lon="9.368342853992207"><ele>507.0</ele><time>2026-05-01T14:56:33Z</time></trkpt><trkpt lat="40.75208899632945" lon="9.368213603824957"><ele>507.0</ele><time>2026-05-01T14:56:34Z</time></trkpt><trkpt lat="40.752303804213305" lon="9.368071008277644"><ele>507.0</ele><time>2026-05-01T14:56:35Z</time></trkpt><trkpt lat="40.75252230602017" lon="9.367932361502923"><ele>513.0</ele><time>2026-05-01T14:56:36Z</time></trkpt><trkpt lat="40.752753337769654" lon="9.367826146398532"><ele>519.0</ele><time>2026-05-01T14:56:37Z</time></trkpt><trkpt lat="40.75298417680788" lon="9.367780467102303"><ele>519.0</ele><time>2026-05-01T14:56:38Z</time></trkpt><trkpt lat="40.75321927376249" lon="9.367747927691026"><ele>519.0</ele><time>2026-05-01T14:56:39Z</time></trkpt><trkpt lat="40.75344588558125" lon="9.367716597934537"><ele>518.0</ele><time>2026-05-01T14:56:40Z</time></trkpt><trkpt lat="40.753657958393624" lon="9.367686518798479"><ele>517.0</ele><time>2026-05-01T14:56:41Z</time></trkpt><trkpt lat="40.75384336508025" lon="9.36765398764938"><ele>516.0</ele><time>2026-05-01T14:56:42Z</time></trkpt><trkpt lat="40.75400574142431" lon="9.367591800691294"><ele>516.0</ele><time>2026-05-01T14:56:43Z</time></trkpt><trkpt lat="40.75416023778162" lon="9.36745642827321"><ele>516.0</ele><time>2026-05-01T14:56:44Z</time></trkpt><trkpt lat="40.75430824742337" lon="9.367291587930556"><ele>516.0</ele><time>2026-05-01T14:56:45Z</time></trkpt><trkpt lat="40.75446979211619" lon="9.36713727855755"><ele>518.0</ele><time>2026-05-01T14:56:46Z</time></trkpt><trkpt lat="40.75465575120411" lon="9.367033857573906"><ele>520.0</ele><time>2026-05-01T14:56:47Z</time></trkpt><trkpt lat="40.7548649283579" lon="9.366953252038552"><ele>522.0</ele><time>2026-05-01T14:56:48Z</time></trkpt><trkpt lat="40.755071091424625" lon="9.366866241707235"><ele>522.0</ele><time>2026-05-01T14:56:49Z</time></trkpt><trkpt lat="40.75527990867025" lon="9.366779847206722"><ele>522.0</ele><time>2026-05-01T14:56:50Z</time></trkpt><trkpt lat="40.75548171801045" lon="9.366699581616288"><ele>522.0</ele><time>2026-05-01T14:56:51Z</time></trkpt><trkpt lat="40.75566446025099" lon="9.3666188839484"><ele>522.0</ele><time>2026-05-01T14:56:52Z</time></trkpt><trkpt lat="40.75583184181965" lon="9.366517314536166"><ele>522.0</ele><time>2026-05-01T14:56:53Z</time></trkpt><trkpt lat="40.75598196145682" lon="9.366393866215859"><ele>522.0</ele><time>2026-05-01T14:56:54Z</time></trkpt><trkpt lat="40.75611407472378" lon="9.36629800349357"><ele>522.25</ele><time>2026-05-01T14:56:55Z</time></trkpt><trkpt lat="40.75625381901621" lon="9.366269649829922"><ele>522.5</ele><time>2026-05-01T14:56:56Z</time></trkpt><trkpt lat="40.756381344426615" lon="9.36630980785835"><ele>522.75</ele><time>2026-05-01T14:56:57Z</time></trkpt><trkpt lat="40.756527789734726" lon="9.366412471965058"><ele>523.0</ele><time>2026-05-01T14:56:58Z</time></trkpt><trkpt lat="40.75669386289725" lon="9.366543570730988"><ele>525.0</ele><time>2026-05-01T14:56:59Z</time></trkpt><trkpt lat="40.75687658695536" lon="9.366665519858811"><ele>527.0</ele><time>2026-05-01T14:57:00Z</time></trkpt><trkpt lat="40.757060454215555" lon="9.366770997056113"><ele>529.0</ele><time>2026-05-01T14:57:01Z</time></trkpt><trkpt lat="40.757226724044614" lon="9.366839887244742"><ele>529.0</ele><time>2026-05-01T14:57:02Z</time></trkpt><trkpt lat="40.75740450283709" lon="9.366856754088266"><ele>529.0</ele><time>2026-05-01T14:57:03Z</time></trkpt><trkpt lat="40.757516051991146" lon="9.366942517692538"><ele>529.0</ele><time>2026-05-01T14:57:04Z</time></trkpt><trkpt lat="40.757707139794945" lon="9.366863956714099"><ele>530.0</ele><time>2026-05-01T14:57:05Z</time></trkpt><trkpt lat="40.757911451093086" lon="9.366785823063578"><ele>531.0</ele><time>2026-05-01T14:57:06Z</time></trkpt><trkpt lat="40.758126159245684" lon="9.366748578286868"><ele>532.0</ele><time>2026-05-01T14:57:07Z</time></trkpt><trkpt lat="40.75831804408362" lon="9.366758454988856"><ele>532.0</ele><time>2026-05-01T14:57:08Z</time></trkpt><trkpt lat="40.75848777463872" lon="9.3667749230654"><ele>532.0</ele><time>2026-05-01T14:57:09Z</time></trkpt><trkpt lat="40.75864830619927" lon="9.366748383952233"><ele>532.0</ele><time>2026-05-01T14:57:10Z</time></trkpt><trkpt lat="40.75879423470525" lon="9.366641658875187"><ele>533.6666666666667</ele><time>2026-05-01T14:57:11Z</time></trkpt><trkpt lat="40.75893354560917" lon="9.366476782927483"><ele>535.3333333333334</ele><time>2026-05-01T14:57:12Z</time></trkpt><trkpt lat="40.75908384625784" lon="9.366329158592364"><ele>537.0</ele><time>2026-05-01T14:57:13Z</time></trkpt><trkpt lat="40.759237099357556" lon="9.366252482172385"><ele>537.6666666666666</ele><time>2026-05-01T14:57:14Z</time></trkpt><trkpt lat="40.75943728805593" lon="9.36623487767964"><ele>538.3333333333333</ele><time>2026-05-01T14:57:15Z</time></trkpt><trkpt lat="40.759637163487476" lon="9.36622801850317"><ele>539.0</ele><time>2026-05-01T14:57:16Z</time></trkpt><trkpt lat="40.75982829730024" lon="9.36622177516965"><ele>539.0</ele><time>2026-05-01T14:57:17Z</time></trkpt><trkpt lat="40.76000237459797" lon="9.36620868546756"><ele>539.0</ele><time>2026-05-01T14:57:18Z</time></trkpt><trkpt lat="40.760158936786276" lon="9.366180814363595"><ele>539.0</ele><time>2026-05-01T14:57:19Z</time></trkpt><trkpt lat="40.76032148102913" lon="9.366097274948949"><ele>537.0</ele><time>2026-05-01T14:57:20Z</time></trkpt><trkpt lat="40.76048943748625" lon="9.365959141895082"><ele>535.0</ele><time>2026-05-01T14:57:21Z</time></trkpt><trkpt lat="40.760643409141636" lon="9.365808057227344"><ele>533.0</ele><time>2026-05-01T14:57:22Z</time></trkpt><trkpt lat="40.76078795409155" lon="9.365676252133797"><ele>533.0</ele><time>2026-05-01T14:57:23Z</time></trkpt><trkpt lat="40.76093038371778" lon="9.365566770329414"><ele>533.0</ele><time>2026-05-01T14:57:24Z</time></trkpt><trkpt lat="40.76107967785272" lon="9.365501007773592"><ele>533.0</ele><time>2026-05-01T14:57:25Z</time></trkpt><trkpt lat="40.76123405750714" lon="9.365503222260454"><ele>531.6666666666666</ele><time>2026-05-01T14:57:26Z</time></trkpt><trkpt lat="40.76137835078979" lon="9.365605792867182"><ele>530.3333333333334</ele><time>2026-05-01T14:57:27Z</time></trkpt><trkpt lat="40.761543652585374" lon="9.365753652908667"><ele>529.0</ele><time>2026-05-01T14:57:28Z</time></trkpt><trkpt lat="40.761722712508394" lon="9.365906126202553"><ele>528.0</ele><time>2026-05-01T14:57:29Z</time></trkpt><trkpt lat="40.761892879551176" lon="9.366045364989867"><ele>527.0</ele><time>2026-05-01T14:57:30Z</time></trkpt><trkpt lat="40.762054243657985" lon="9.366165825302009"><ele>526.0</ele><time>2026-05-01T14:57:31Z</time></trkpt><trkpt lat="40.76221889602618" lon="9.366268346943738"><ele>526.0</ele><time>2026-05-01T14:57:32Z</time></trkpt><trkpt lat="40.762396932102824" lon="9.366291453056693"><ele>526.0</ele><time>2026-05-01T14:57:33Z</time></trkpt><trkpt lat="40.7625947709492" lon="9.366242783982369"><ele>526.0</ele><time>2026-05-01T14:57:34Z</time></trkpt><trkpt lat="40.762827133148484" lon="9.366146640154357"><ele>525.0</ele><time>2026-05-01T14:57:35Z</time></trkpt><trkpt lat="40.76303099392847" lon="9.366058747547198"><ele>524.0</ele><time>2026-05-01T14:57:36Z</time></trkpt><trkpt lat="40.7632148548997" lon="9.365987710901624"><ele>523.0</ele><time>2026-05-01T14:57:37Z</time></trkpt><trkpt lat="40.76338648794419" lon="9.365878060900647"><ele>523.6666666666667</ele><time>2026-05-01T14:57:38Z</time></trkpt><trkpt lat="40.76354661511048" lon="9.365708109996856"><ele>524.3333333333334</ele><time>2026-05-01T14:57:39Z</time></trkpt><trkpt lat="40.763695127603945" lon="9.365528235213795"><ele>525.0</ele><time>2026-05-01T14:57:40Z</time></trkpt><trkpt lat="40.76382467581354" lon="9.365403276541175"><ele>525.0</ele><time>2026-05-01T14:57:41Z</time></trkpt><trkpt lat="40.76393865911552" lon="9.36533410363252"><ele>525.0</ele><time>2026-05-01T14:57:42Z</time></trkpt><trkpt lat="40.76406368066679" lon="9.365383230902987"><ele>525.0</ele><time>2026-05-01T14:57:43Z</time></trkpt><trkpt lat="40.76423370641243" lon="9.365495136635655"><ele>525.0</ele><time>2026-05-01T14:57:44Z</time></trkpt><trkpt lat="40.76440332872092" lon="9.365631741274322"><ele>523.0</ele><time>2026-05-01T14:57:45Z</time></trkpt><trkpt lat="40.76454200587228" lon="9.365802785795731"><ele>521.0</ele><time>2026-05-01T14:57:46Z</time></trkpt><trkpt lat="40.76464613550083" lon="9.36592111279435"><ele>519.0</ele><time>2026-05-01T14:57:47Z</time></trkpt><trkpt lat="40.764745251490034" lon="9.366010580296452"><ele>517.0</ele><time>2026-05-01T14:57:48Z</time></trkpt><trkpt lat="40.76486178365722" lon="9.366053461935735"><ele>517.0</ele><time>2026-05-01T14:57:49Z</time></trkpt><trkpt lat="40.76500844389554" lon="9.365975844690318"><ele>517.0</ele><time>2026-05-01T14:57:50Z</time></trkpt><trkpt lat="40.76519690069182" lon="9.365842010694768"><ele>517.0</ele><time>2026-05-01T14:57:51Z</time></trkpt><trkpt lat="40.76538969667356" lon="9.365707929146318"><ele>516.6666666666667</ele><time>2026-05-01T14:57:52Z</time></trkpt><trkpt lat="40.765540188570654" lon="9.36561865883083"><ele>516.3333333333334</ele><time>2026-05-01T14:57:53Z</time></trkpt><trkpt lat="40.76568625425049" lon="9.365590656365507"><ele>516.0</ele><time>2026-05-01T14:57:54Z</time></trkpt><trkpt lat="40.76582901017276" lon="9.365654898028907"><ele>516.0</ele><time>2026-05-01T14:57:55Z</time></trkpt><trkpt lat="40.76598432096206" lon="9.365755577990422"><ele>516.0</ele><time>2026-05-01T14:57:56Z</time></trkpt><trkpt lat="40.76616638753175" lon="9.365866403093698"><ele>516.0</ele><time>2026-05-01T14:57:57Z</time></trkpt><trkpt lat="40.76637112850385" lon="9.36598501292069"><ele>517.5</ele><time>2026-05-01T14:57:58Z</time></trkpt><trkpt lat="40.76658559619314" lon="9.366083915850542"><ele>519.0</ele><time>2026-05-01T14:57:59Z</time></trkpt><trkpt lat="40.76681772976648" lon="9.366136964082612"><ele>521.5</ele><time>2026-05-01T14:58:00Z</time></trkpt><trkpt lat="40.76705890272672" lon="9.366171046630734"><ele>524.0</ele><time>2026-05-01T14:58:01Z</time></trkpt><trkpt lat="40.76731156569303" lon="9.366227472143136"><ele>524.0</ele><time>2026-05-01T14:58:02Z</time></trkpt><trkpt lat="40.76757424060734" lon="9.366320522920148"><ele>524.0</ele><time>2026-05-01T14:58:03Z</time></trkpt><trkpt lat="40.76784601318687" lon="9.366411923836583"><ele>518.5</ele><time>2026-05-01T14:58:04Z</time></trkpt><trkpt lat="40.768101702253546" lon="9.366494312840382"><ele>513.0</ele><time>2026-05-01T14:58:05Z</time></trkpt><trkpt lat="40.76833164364458" lon="9.3665655855781"><ele>517.0</ele><time>2026-05-01T14:58:06Z</time></trkpt><trkpt lat="40.768543654348704" lon="9.366630080866367"><ele>521.0</ele><time>2026-05-01T14:58:07Z</time></trkpt><trkpt lat="40.76870656756746" lon="9.36669277163932"><ele>525.0</ele><time>2026-05-01T14:58:08Z</time></trkpt><trkpt lat="40.76885239052036" lon="9.366794895069852"><ele>525.0</ele><time>2026-05-01T14:58:09Z</time></trkpt><trkpt lat="40.76900887281589" lon="9.36697278885962"><ele>525.0</ele><time>2026-05-01T14:58:10Z</time></trkpt><trkpt lat="40.76916427725389" lon="9.367151779456046"><ele>525.0</ele><time>2026-05-01T14:58:11Z</time></trkpt><trkpt lat="40.76933454038193" lon="9.367280830609142"><ele>518.0</ele><time>2026-05-01T14:58:12Z</time></trkpt><trkpt lat="40.769542991175825" lon="9.367362993062759"><ele>511.0</ele><time>2026-05-01T14:58:13Z</time></trkpt><trkpt lat="40.769786646284395" lon="9.36741841785721"><ele>511.0</ele><time>2026-05-01T14:58:14Z</time></trkpt><trkpt lat="40.770026907239384" lon="9.367468821516004"><ele>511.0</ele><time>2026-05-01T14:58:15Z</time></trkpt><trkpt lat="40.770243503904645" lon="9.36752772431887"><ele>512.0</ele><time>2026-05-01T14:58:16Z</time></trkpt><trkpt lat="40.77045751155696" lon="9.367593653389063"><ele>513.0</ele><time>2026-05-01T14:58:17Z</time></trkpt><trkpt lat="40.770671312995546" lon="9.367692619896834"><ele>514.0</ele><time>2026-05-01T14:58:18Z</time></trkpt><trkpt lat="40.770893471580955" lon="9.367751417001806"><ele>516.0</ele><time>2026-05-01T14:58:19Z</time></trkpt><trkpt lat="40.771134926610095" lon="9.367815179544072"><ele>518.0</ele><time>2026-05-01T14:58:20Z</time></trkpt><trkpt lat="40.771367721571664" lon="9.36792135430444"><ele>518.0</ele><time>2026-05-01T14:58:21Z</time></trkpt><trkpt lat="40.77157994701379" lon="9.368005007900567"><ele>518.0</ele><time>2026-05-01T14:58:22Z</time></trkpt><trkpt lat="40.77177227770758" lon="9.368067475374833"><ele>518.0</ele><time>2026-05-01T14:58:23Z</time></trkpt><trkpt lat="40.771922671680116" lon="9.368166643770943"><ele>516.3333333333333</ele><time>2026-05-01T14:58:24Z</time></trkpt><trkpt lat="40.77206125174508" lon="9.368332622875892"><ele>514.6666666666666</ele><time>2026-05-01T14:58:25Z</time></trkpt><trkpt lat="40.77222487928141" lon="9.368501170322766"><ele>513.0</ele><time>2026-05-01T14:58:26Z</time></trkpt><trkpt lat="40.772415606626424" lon="9.368649887919597"><ele>513.0</ele><time>2026-05-01T14:58:27Z</time></trkpt><trkpt lat="40.77259275869681" lon="9.368815664726208"><ele>513.0</ele><time>2026-05-01T14:58:28Z</time></trkpt><trkpt lat="40.77273529453404" lon="9.369023023166777"><ele>513.0</ele><time>2026-05-01T14:58:29Z</time></trkpt><trkpt lat="40.77285466301247" lon="9.369230884555861"><ele>513.3333333333334</ele><time>2026-05-01T14:58:30Z</time></trkpt><trkpt lat="40.77299464915432" lon="9.369413587683256"><ele>513.6666666666667</ele><time>2026-05-01T14:58:31Z</time></trkpt><trkpt lat="40.77317951991615" lon="9.369560719228328"><ele>514.0</ele><time>2026-05-01T14:58:32Z</time></trkpt><trkpt lat="40.77338491635974" lon="9.369701717988518"><ele>510.33333333333337</ele><time>2026-05-01T14:58:33Z</time></trkpt><trkpt lat="40.773575663356056" lon="9.369829892052486"><ele>506.66666666666663</ele><time>2026-05-01T14:58:34Z</time></trkpt><trkpt lat="40.77376031483784" lon="9.369932075474779"><ele>503.0</ele><time>2026-05-01T14:58:35Z</time></trkpt><trkpt lat="40.77397410984291" lon="9.36999671165203"><ele>503.0</ele><time>2026-05-01T14:58:36Z</time></trkpt><trkpt lat="40.774203772950784" lon="9.370040648722846"><ele>503.0</ele><time>2026-05-01T14:58:37Z</time></trkpt><trkpt lat="40.77442343068126" lon="9.370067030222948"><ele>502.0</ele><time>2026-05-01T14:58:38Z</time></trkpt><trkpt lat="40.774627360840555" lon="9.370086135533198"><ele>501.0</ele><time>2026-05-01T14:58:39Z</time></trkpt><trkpt lat="40.774836081391726" lon="9.370068146980604"><ele>500.0</ele><time>2026-05-01T14:58:40Z</time></trkpt><trkpt lat="40.77505106518218" lon="9.370008633005455"><ele>497.0</ele><time>2026-05-01T14:58:41Z</time></trkpt><trkpt lat="40.775287259275125" lon="9.369896832360357"><ele>494.0</ele><time>2026-05-01T14:58:42Z</time></trkpt><trkpt lat="40.77551956493113" lon="9.369793639196486"><ele>494.0</ele><time>2026-05-01T14:58:43Z</time></trkpt><trkpt lat="40.77575393707211" lon="9.369703707726977"><ele>494.0</ele><time>2026-05-01T14:58:44Z</time></trkpt><trkpt lat="40.77597137027146" lon="9.369618958305237"><ele>493.0</ele><time>2026-05-01T14:58:45Z</time></trkpt><trkpt lat="40.776181062933944" lon="9.369534485689776"><ele>492.0</ele><time>2026-05-01T14:58:46Z</time></trkpt><trkpt lat="40.77640576540861" lon="9.369444530559141"><ele>492.0</ele><time>2026-05-01T14:58:47Z</time></trkpt><trkpt lat="40.776644394940895" lon="9.369351949846338"><ele>492.0</ele><time>2026-05-01T14:58:48Z</time></trkpt><trkpt lat="40.77688607907621" lon="9.369256984709857"><ele>491.0</ele><time>2026-05-01T14:58:49Z</time></trkpt><trkpt lat="40.777129378940245" lon="9.369164621694244"><ele>490.0</ele><time>2026-05-01T14:58:50Z</time></trkpt><trkpt lat="40.777372620557536" lon="9.369069591037226"><ele>490.0</ele><time>2026-05-01T14:58:51Z</time></trkpt><trkpt lat="40.7776157440661" lon="9.368972025487993"><ele>490.0</ele><time>2026-05-01T14:58:52Z</time></trkpt><trkpt lat="40.77786054596119" lon="9.36887878471153"><ele>491.5</ele><time>2026-05-01T14:58:53Z</time></trkpt><trkpt lat="40.77809576915231" lon="9.368790999543437"><ele>493.0</ele><time>2026-05-01T14:58:54Z</time></trkpt><trkpt lat="40.77831092012256" lon="9.368709991738795"><ele>492.0</ele><time>2026-05-01T14:58:55Z</time></trkpt><trkpt lat="40.77851859478171" lon="9.368630853109948"><ele>491.0</ele><time>2026-05-01T14:58:56Z</time></trkpt><trkpt lat="40.77873193426653" lon="9.36854839360883"><ele>490.0</ele><time>2026-05-01T14:58:57Z</time></trkpt><trkpt lat="40.778946642827904" lon="9.368466752549695"><ele>490.0</ele><time>2026-05-01T14:58:58Z</time></trkpt><trkpt lat="40.77916275814613" lon="9.368386401718043"><ele>490.0</ele><time>2026-05-01T14:58:59Z</time></trkpt><trkpt lat="40.77936802985146" lon="9.368307239049502"><ele>490.0</ele><time>2026-05-01T14:59:00Z</time></trkpt><trkpt lat="40.77956084617511" lon="9.36823254112244"><ele>489.6666666666667</ele><time>2026-05-01T14:59:01Z</time></trkpt><trkpt lat="40.779735658580485" lon="9.36814590195767"><ele>489.33333333333337</ele><time>2026-05-01T14:59:02Z</time></trkpt><trkpt lat="40.779900717924384" lon="9.368011503814689"><ele>489.0</ele><time>2026-05-01T14:59:03Z</time></trkpt><trkpt lat="40.78006314088216" lon="9.367807091110102"><ele>491.0</ele><time>2026-05-01T14:59:04Z</time></trkpt><trkpt lat="40.78023469840534" lon="9.367543543698813"><ele>493.0</ele><time>2026-05-01T14:59:05Z</time></trkpt><trkpt lat="40.78040671905296" lon="9.367270951122093"><ele>492.6666666666667</ele><time>2026-05-01T14:59:06Z</time></trkpt><trkpt lat="40.780561880150856" lon="9.367048283917487"><ele>492.33333333333337</ele><time>2026-05-01T14:59:07Z</time></trkpt><trkpt lat="40.780692790893504" lon="9.366903732398347"><ele>492.0</ele><time>2026-05-01T14:59:08Z</time></trkpt><trkpt lat="40.780838632312474" lon="9.366828724225476"><ele>493.0</ele><time>2026-05-01T14:59:09Z</time></trkpt><trkpt lat="40.78103106650129" lon="9.36680703925783"><ele>494.0</ele><time>2026-05-01T14:59:10Z</time></trkpt><trkpt lat="40.78126092913193" lon="9.366803392169333"><ele>495.0</ele><time>2026-05-01T14:59:11Z</time></trkpt><trkpt lat="40.78150129826567" lon="9.366782187594902"><ele>495.0</ele><time>2026-05-01T14:59:12Z</time></trkpt><trkpt lat="40.781726645368785" lon="9.366757070319817"><ele>495.0</ele><time>2026-05-01T14:59:13Z</time></trkpt><trkpt lat="40.781909537214574" lon="9.366714645498925"><ele>495.0</ele><time>2026-05-01T14:59:14Z</time></trkpt><trkpt lat="40.78205347460847" lon="9.36661806807415"><ele>497.0</ele><time>2026-05-01T14:59:15Z</time></trkpt><trkpt lat="40.782159813583114" lon="9.366442412035207"><ele>499.0</ele><time>2026-05-01T14:59:16Z</time></trkpt><trkpt lat="40.7822669612755" lon="9.366202483184376"><ele>501.0</ele><time>2026-05-01T14:59:17Z</time></trkpt><trkpt lat="40.782379541555926" lon="9.365948415038687"><ele>501.0</ele><time>2026-05-01T14:59:18Z</time></trkpt><trkpt lat="40.7824731812632" lon="9.365786591321717"><ele>501.0</ele><time>2026-05-01T14:59:19Z</time></trkpt><trkpt lat="40.78256759130335" lon="9.36573512002579"><ele>501.0</ele><time>2026-05-01T14:59:20Z</time></trkpt><trkpt lat="40.78269709461522" lon="9.3657439502181"><ele>501.0</ele><time>2026-05-01T14:59:21Z</time></trkpt><trkpt lat="40.7828378073606" lon="9.365820618846922"><ele>501.33333333333337</ele><time>2026-05-01T14:59:22Z</time></trkpt><trkpt lat="40.782989128469985" lon="9.365975425609719"><ele>501.6666666666667</ele><time>2026-05-01T14:59:23Z</time></trkpt><trkpt lat="40.7831490791061" lon="9.366150346839476"><ele>502.0</ele><time>2026-05-01T14:59:24Z</time></trkpt><trkpt lat="40.783330292154155" lon="9.36633354246042"><ele>504.0</ele><time>2026-05-01T14:59:25Z</time></trkpt><trkpt lat="40.783514123998415" lon="9.366471846924398"><ele>506.0</ele><time>2026-05-01T14:59:26Z</time></trkpt><trkpt lat="40.78370726408492" lon="9.366548054542434"><ele>508.0</ele><time>2026-05-01T14:59:27Z</time></trkpt><trkpt lat="40.78391685274909" lon="9.36653547252277"><ele>508.0</ele><time>2026-05-01T14:59:28Z</time></trkpt><trkpt lat="40.78415209624839" lon="9.366502691308707"><ele>508.0</ele><time>2026-05-01T14:59:29Z</time></trkpt><trkpt lat="40.784369547693586" lon="9.366455015289233"><ele>507.33333333333337</ele><time>2026-05-01T14:59:30Z</time></trkpt><trkpt lat="40.78452519257177" lon="9.366417751101498"><ele>506.66666666666663</ele><time>2026-05-01T14:59:31Z</time></trkpt><trkpt lat="40.78465562535277" lon="9.366344105418206"><ele>506.0</ele><time>2026-05-01T14:59:32Z</time></trkpt><trkpt lat="40.78476087406053" lon="9.366172647247724"><ele>505.66666666666663</ele><time>2026-05-01T14:59:33Z</time></trkpt><trkpt lat="40.784845037270316" lon="9.365917636025781"><ele>505.33333333333337</ele><time>2026-05-01T14:59:34Z</time></trkpt><trkpt lat="40.784916455608" lon="9.365650890201131"><ele>505.0</ele><time>2026-05-01T14:59:35Z</time></trkpt><trkpt lat="40.78495712587782" lon="9.36537565819795"><ele>507.0</ele><time>2026-05-01T14:59:36Z</time></trkpt><trkpt lat="40.78495449833703" lon="9.365066890100309"><ele>509.0</ele><time>2026-05-01T14:59:37Z</time></trkpt><trkpt lat="40.78491076012014" lon="9.364781070251164"><ele>510.0</ele><time>2026-05-01T14:59:38Z</time></trkpt><trkpt lat="40.784887923014146" lon="9.364539190528903"><ele>511.0</ele><time>2026-05-01T14:59:39Z</time></trkpt><trkpt lat="40.78490952341948" lon="9.364329930504503"><ele>512.0</ele><time>2026-05-01T14:59:40Z</time></trkpt><trkpt lat="40.784985811308935" lon="9.36418178957683"><ele>512.0</ele><time>2026-05-01T14:59:41Z</time></trkpt><trkpt lat="40.785066320957704" lon="9.364055380418096"><ele>512.0</ele><time>2026-05-01T14:59:42Z</time></trkpt><trkpt lat="40.78506504675257" lon="9.363883511901495"><ele>512.0</ele><time>2026-05-01T14:59:43Z</time></trkpt><trkpt lat="40.78498175716036" lon="9.363724143274199"><ele>512.0</ele><time>2026-05-01T14:59:44Z</time></trkpt><trkpt lat="40.78486135893779" lon="9.363561076777327"><ele>514.0</ele><time>2026-05-01T14:59:45Z</time></trkpt><trkpt lat="40.78476826762923" lon="9.363402597522853"><ele>516.0</ele><time>2026-05-01T14:59:46Z</time></trkpt><trkpt lat="40.784728137794545" lon="9.363192430347272"><ele>518.0</ele><time>2026-05-01T14:59:47Z</time></trkpt><trkpt lat="40.78471830319214" lon="9.362917096001528"><ele>518.6666666666666</ele><time>2026-05-01T14:59:48Z</time></trkpt><trkpt lat="40.78474204604872" lon="9.3626330304108"><ele>519.3333333333334</ele><time>2026-05-01T14:59:49Z</time></trkpt><trkpt lat="40.78474863654819" lon="9.362372789330275"><ele>520.0</ele><time>2026-05-01T14:59:50Z</time></trkpt><trkpt lat="40.78474772097685" lon="9.362085911671354"><ele>520.5</ele><time>2026-05-01T14:59:51Z</time></trkpt><trkpt lat="40.78473136057712" lon="9.361787447422095"><ele>521.0</ele><time>2026-05-01T14:59:52Z</time></trkpt><trkpt lat="40.784693705253424" lon="9.36146966032193"><ele>522.0</ele><time>2026-05-01T14:59:53Z</time></trkpt><trkpt lat="40.78465746294101" lon="9.36116801627495"><ele>523.0</ele><time>2026-05-01T14:59:54Z</time></trkpt><trkpt lat="40.784627729717606" lon="9.360896906303942"><ele>524.0</ele><time>2026-05-01T14:59:55Z</time></trkpt><trkpt lat="40.78460064507215" lon="9.360645772193834"><ele>525.3333333333333</ele><time>2026-05-01T14:59:56Z</time></trkpt><trkpt lat="40.78459022185492" lon="9.360407282800779"><ele>526.6666666666666</ele><time>2026-05-01T14:59:57Z</time></trkpt><trkpt lat="40.784623769725656" lon="9.360165451297103"><ele>528.0</ele><time>2026-05-01T14:59:58Z</time></trkpt><trkpt lat="40.784722175567715" lon="9.359926370189868"><ele>528.0</ele><time>2026-05-01T14:59:59Z</time></trkpt><trkpt lat="40.78482703355508" lon="9.35973392419205"><ele>528.0</ele><time>2026-05-01T15:00:00Z</time></trkpt><trkpt lat="40.7849188029752" lon="9.359613905778206"><ele>528.0</ele><time>2026-05-01T15:00:01Z</time></trkpt><trkpt lat="40.785046108871434" lon="9.359556701457334"><ele>528.0</ele><time>2026-05-01T15:00:02Z</time></trkpt><trkpt lat="40.78519464965628" lon="9.359559978985947"><ele>530.3333333333334</ele><time>2026-05-01T15:00:03Z</time></trkpt><trkpt lat="40.785346807109235" lon="9.359629159928561"><ele>532.6666666666667</ele><time>2026-05-01T15:00:04Z</time></trkpt><trkpt lat="40.78550631648645" lon="9.359747055176104"><ele>535.0</ele><time>2026-05-01T15:00:05Z</time></trkpt><trkpt lat="40.7856776712395" lon="9.359933283841258"><ele>535.0</ele><time>2026-05-01T15:00:06Z</time></trkpt><trkpt lat="40.78585742495939" lon="9.360117871454936"><ele>535.0</ele><time>2026-05-01T15:00:07Z</time></trkpt><trkpt lat="40.786022174680376" lon="9.360278763848306"><ele>535.0</ele><time>2026-05-01T15:00:08Z</time></trkpt><trkpt lat="40.78619465866784" lon="9.36038694192694"><ele>535.3333333333334</ele><time>2026-05-01T15:00:09Z</time></trkpt><trkpt lat="40.78638407875183" lon="9.36047142368186"><ele>535.6666666666666</ele><time>2026-05-01T15:00:10Z</time></trkpt><trkpt lat="40.786587377386226" lon="9.360534317073274"><ele>536.0</ele><time>2026-05-01T15:00:11Z</time></trkpt><trkpt lat="40.78679149471924" lon="9.360595500021775"><ele>537.6666666666666</ele><time>2026-05-01T15:00:12Z</time></trkpt><trkpt lat="40.786993347398116" lon="9.360629793188524"><ele>539.3333333333334</ele><time>2026-05-01T15:00:13Z</time></trkpt><trkpt lat="40.787196453816016" lon="9.360618191495046"><ele>541.0</ele><time>2026-05-01T15:00:14Z</time></trkpt><trkpt lat="40.78737398633262" lon="9.360581105154495"><ele>541.0</ele><time>2026-05-01T15:00:15Z</time></trkpt><trkpt lat="40.78754684307123" lon="9.360555252875233"><ele>541.0</ele><time>2026-05-01T15:00:16Z</time></trkpt><trkpt lat="40.78771425130628" lon="9.360537111962742"><ele>541.0</ele><time>2026-05-01T15:00:17Z</time></trkpt><trkpt lat="40.787871008548684" lon="9.360505700229115"><ele>538.6666666666667</ele><time>2026-05-01T15:00:18Z</time></trkpt><trkpt lat="40.78802082003012" lon="9.360457882379922"><ele>536.3333333333334</ele><time>2026-05-01T15:00:19Z</time></trkpt><trkpt lat="40.78816026366575" lon="9.360352677980934"><ele>534.0</ele><time>2026-05-01T15:00:20Z</time></trkpt><trkpt lat="40.78827351608091" lon="9.360165241704706"><ele>534.0</ele><time>2026-05-01T15:00:21Z</time></trkpt><trkpt lat="40.78837968056398" lon="9.359934792039423"><ele>534.0</ele><time>2026-05-01T15:00:22Z</time></trkpt><trkpt lat="40.78851010761539" lon="9.359690454180315"><ele>534.0</ele><time>2026-05-01T15:00:23Z</time></trkpt><trkpt lat="40.788658996976245" lon="9.359421152142437"><ele>533.5</ele><time>2026-05-01T15:00:24Z</time></trkpt><trkpt lat="40.78881008969913" lon="9.359138867616789"><ele>533.0</ele><time>2026-05-01T15:00:25Z</time></trkpt><trkpt lat="40.78893365718819" lon="9.358850425215202"><ele>534.0</ele><time>2026-05-01T15:00:26Z</time></trkpt><trkpt lat="40.78908799417638" lon="9.35855329331909"><ele>535.0</ele><time>2026-05-01T15:00:27Z</time></trkpt><trkpt lat="40.789244633443616" lon="9.358253056755096"><ele>536.5</ele><time>2026-05-01T15:00:28Z</time></trkpt><trkpt lat="40.78940079533924" lon="9.357946196513115"><ele>538.0</ele><time>2026-05-01T15:00:29Z</time></trkpt><trkpt lat="40.78955153576421" lon="9.357643649689198"><ele>538.0</ele><time>2026-05-01T15:00:30Z</time></trkpt><trkpt lat="40.78969219914365" lon="9.357366083976013"><ele>538.0</ele><time>2026-05-01T15:00:31Z</time></trkpt><trkpt lat="40.7898479308917" lon="9.357105809236986"><ele>538.3333333333334</ele><time>2026-05-01T15:00:32Z</time></trkpt><trkpt lat="40.78998247523456" lon="9.35685719724117"><ele>538.6666666666666</ele><time>2026-05-01T15:00:33Z</time></trkpt><trkpt lat="40.79010340092815" lon="9.356632059266353"><ele>539.0</ele><time>2026-05-01T15:00:34Z</time></trkpt><trkpt lat="40.79021516907076" lon="9.356402704043825"><ele>541.3333333333333</ele><time>2026-05-01T15:00:35Z</time></trkpt><trkpt lat="40.79033354724794" lon="9.35617911624359"><ele>543.6666666666666</ele><time>2026-05-01T15:00:36Z</time></trkpt><trkpt lat="40.7904465486025" lon="9.355945340308422"><ele>546.0</ele><time>2026-05-01T15:00:37Z</time></trkpt><trkpt lat="40.79053468612318" lon="9.355688274099109"><ele>547.5</ele><time>2026-05-01T15:00:38Z</time></trkpt><trkpt lat="40.79059542465323" lon="9.35539899617839"><ele>549.0</ele><time>2026-05-01T15:00:39Z</time></trkpt><trkpt lat="40.790642048304036" lon="9.35509232822463"><ele>549.0</ele><time>2026-05-01T15:00:40Z</time></trkpt><trkpt lat="40.79069653071705" lon="9.354775700673256"><ele>549.0</ele><time>2026-05-01T15:00:41Z</time></trkpt><trkpt lat="40.79076916332391" lon="9.35445890322217"><ele>550.0</ele><time>2026-05-01T15:00:42Z</time></trkpt><trkpt lat="40.790853109793716" lon="9.354147535946973"><ele>551.0</ele><time>2026-05-01T15:00:43Z</time></trkpt><trkpt lat="40.79091618478911" lon="9.353822927186076"><ele>552.5</ele><time>2026-05-01T15:00:44Z</time></trkpt><trkpt lat="40.790972258345874" lon="9.35351118448892"><ele>554.0</ele><time>2026-05-01T15:00:45Z</time></trkpt><trkpt lat="40.79102256767885" lon="9.353231128297379"><ele>553.3333333333333</ele><time>2026-05-01T15:00:46Z</time></trkpt><trkpt lat="40.791080851585164" lon="9.352993659830965"><ele>552.6666666666666</ele><time>2026-05-01T15:00:47Z</time></trkpt><trkpt lat="40.79112788486161" lon="9.352776164374617"><ele>552.0</ele><time>2026-05-01T15:00:48Z</time></trkpt><trkpt lat="40.791222622043556" lon="9.352604871395702"><ele>552.0</ele><time>2026-05-01T15:00:49Z</time></trkpt><trkpt lat="40.79134812133632" lon="9.352493862412238"><ele>552.0</ele><time>2026-05-01T15:00:50Z</time></trkpt><trkpt lat="40.79149949945173" lon="9.352431185166145"><ele>552.0</ele><time>2026-05-01T15:00:51Z</time></trkpt><trkpt lat="40.79168184819784" lon="9.352422553267631"><ele>551.6666666666666</ele><time>2026-05-01T15:00:52Z</time></trkpt><trkpt lat="40.79186949948799" lon="9.352429322168145"><ele>551.3333333333333</ele><time>2026-05-01T15:00:53Z</time></trkpt><trkpt lat="40.792049648864264" lon="9.352387178815494"><ele>551.0</ele><time>2026-05-01T15:00:54Z</time></trkpt><trkpt lat="40.79222240961271" lon="9.352264833729016"><ele>548.6666666666666</ele><time>2026-05-01T15:00:55Z</time></trkpt><trkpt lat="40.79237322015166" lon="9.352100968308857"><ele>546.3333333333334</ele><time>2026-05-01T15:00:56Z</time></trkpt><trkpt lat="40.79249865604793" lon="9.351881392476027"><ele>544.0</ele><time>2026-05-01T15:00:57Z</time></trkpt><trkpt lat="40.79262311272635" lon="9.35166525255847"><ele>545.0</ele><time>2026-05-01T15:00:58Z</time></trkpt><trkpt lat="40.792760548036775" lon="9.351495570860276"><ele>546.0</ele><time>2026-05-01T15:00:59Z</time></trkpt><trkpt lat="40.79285706189341" lon="9.351323052261241"><ele>547.0</ele><time>2026-05-01T15:01:00Z</time></trkpt><trkpt lat="40.79290515242757" lon="9.351120845269698"><ele>545.5</ele><time>2026-05-01T15:01:01Z</time></trkpt><trkpt lat="40.79292811630229" lon="9.350922224943607"><ele>544.0</ele><time>2026-05-01T15:01:02Z</time></trkpt><trkpt lat="40.79298637280661" lon="9.350780332715402"><ele>542.5</ele><time>2026-05-01T15:01:03Z</time></trkpt><trkpt lat="40.79308273458434" lon="9.350695631498166"><ele>541.0</ele><time>2026-05-01T15:01:04Z</time></trkpt><trkpt lat="40.7932111250706" lon="9.35066852103918"><ele>541.0</ele><time>2026-05-01T15:01:05Z</time></trkpt><trkpt lat="40.7933671936255" lon="9.350699888371093"><ele>541.0</ele><time>2026-05-01T15:01:06Z</time></trkpt><trkpt lat="40.793552394584715" lon="9.350769103952173"><ele>541.0</ele><time>2026-05-01T15:01:07Z</time></trkpt><trkpt lat="40.793710692608535" lon="9.350836196506918"><ele>540.0</ele><time>2026-05-01T15:01:08Z</time></trkpt><trkpt lat="40.79383300230122" lon="9.350856736165815"><ele>539.0</ele><time>2026-05-01T15:01:09Z</time></trkpt><trkpt lat="40.79394468240613" lon="9.350805805556892"><ele>538.0</ele><time>2026-05-01T15:01:10Z</time></trkpt><trkpt lat="40.79406538140969" lon="9.350643749079463"><ele>537.0</ele><time>2026-05-01T15:01:11Z</time></trkpt><trkpt lat="40.79418803696672" lon="9.35042403418094"><ele>535.6666666666666</ele><time>2026-05-01T15:01:12Z</time></trkpt><trkpt lat="40.794281883899835" lon="9.35019565940869"><ele>534.3333333333333</ele><time>2026-05-01T15:01:13Z</time></trkpt><trkpt lat="40.794384535386754" lon="9.349938653579823"><ele>533.0</ele><time>2026-05-01T15:01:14Z</time></trkpt><trkpt lat="40.79448863003663" lon="9.349702690599605"><ele>532.0</ele><time>2026-05-01T15:01:15Z</time></trkpt><trkpt lat="40.79458259275248" lon="9.349488108067217"><ele>531.0</ele><time>2026-05-01T15:01:16Z</time></trkpt><trkpt lat="40.79467045982202" lon="9.34933464614677"><ele>530.0</ele><time>2026-05-01T15:01:17Z</time></trkpt><trkpt lat="40.794793476900104" lon="9.349230824414896"><ele>530.0</ele><time>2026-05-01T15:01:18Z</time></trkpt><trkpt lat="40.794966639501666" lon="9.349186658726216"><ele>530.0</ele><time>2026-05-01T15:01:19Z</time></trkpt><trkpt lat="40.79516014514427" lon="9.34917206578726"><ele>530.0</ele><time>2026-05-01T15:01:20Z</time></trkpt><trkpt lat="40.79531868880461" lon="9.349197352886673"><ele>529.25</ele><time>2026-05-01T15:01:21Z</time></trkpt><trkpt lat="40.79543463228753" lon="9.34926925200366"><ele>528.5</ele><time>2026-05-01T15:01:22Z</time></trkpt><trkpt lat="40.795519817992194" lon="9.349415230360348"><ele>527.75</ele><time>2026-05-01T15:01:23Z</time></trkpt><trkpt lat="40.79561139814975" lon="9.349588754084111"><ele>527.0</ele><time>2026-05-01T15:01:24Z</time></trkpt><trkpt lat="40.79570796999267" lon="9.34968917505634"><ele>527.0</ele><time>2026-05-01T15:01:25Z</time></trkpt><trkpt lat="40.79582806193236" lon="9.349709307019026"><ele>527.0</ele><time>2026-05-01T15:01:26Z</time></trkpt><trkpt lat="40.795969262042554" lon="9.349634439517743"><ele>527.0</ele><time>2026-05-01T15:01:27Z</time></trkpt><trkpt lat="40.79611544904749" lon="9.349525143122348"><ele>527.0</ele><time>2026-05-01T15:01:28Z</time></trkpt><trkpt lat="40.79626095138912" lon="9.349404539161734"><ele>522.3333333333333</ele><time>2026-05-01T15:01:29Z</time></trkpt><trkpt lat="40.79637852405983" lon="9.34927928086794"><ele>517.6666666666666</ele><time>2026-05-01T15:01:30Z</time></trkpt><trkpt lat="40.796463782191815" lon="9.349074314076992"><ele>513.0</ele><time>2026-05-01T15:01:31Z</time></trkpt><trkpt lat="40.79652911074095" lon="9.348851093298537"><ele>513.0</ele><time>2026-05-01T15:01:32Z</time></trkpt><trkpt lat="40.79657964285981" lon="9.348645312869575"><ele>513.0</ele><time>2026-05-01T15:01:33Z</time></trkpt><trkpt lat="40.7966094056287" lon="9.348439113664057"><ele>513.0</ele><time>2026-05-01T15:01:34Z</time></trkpt><trkpt lat="40.79662862508984" lon="9.348247298023733"><ele>513.0</ele><time>2026-05-01T15:01:35Z</time></trkpt><trkpt lat="40.79664903500187" lon="9.348090554329588"><ele>513.0</ele><time>2026-05-01T15:01:36Z</time></trkpt><trkpt lat="40.79663385514723" lon="9.347934421041202"><ele>513.0</ele><time>2026-05-01T15:01:37Z</time></trkpt><trkpt lat="40.79654704395448" lon="9.347770912609537"><ele>513.0</ele><time>2026-05-01T15:01:38Z</time></trkpt><trkpt lat="40.79641983889287" lon="9.347614714003063"><ele>511.0</ele><time>2026-05-01T15:01:39Z</time></trkpt><trkpt lat="40.796315802782786" lon="9.347416157926466"><ele>509.0</ele><time>2026-05-01T15:01:40Z</time></trkpt><trkpt lat="40.79621022781178" lon="9.347194493006098"><ele>507.0</ele><time>2026-05-01T15:01:41Z</time></trkpt><trkpt lat="40.79610255021656" lon="9.347003521878133"><ele>506.0</ele><time>2026-05-01T15:01:42Z</time></trkpt><trkpt lat="40.79600364429594" lon="9.346833458911934"><ele>505.0</ele><time>2026-05-01T15:01:43Z</time></trkpt><trkpt lat="40.795874248123184" lon="9.346725138334747"><ele>504.0</ele><time>2026-05-01T15:01:44Z</time></trkpt><trkpt lat="40.795706263347256" lon="9.346687702509385"><ele>504.0</ele><time>2026-05-01T15:01:45Z</time></trkpt><trkpt lat="40.79551574730978" lon="9.346699050147222"><ele>504.0</ele><time>2026-05-01T15:01:46Z</time></trkpt><trkpt lat="40.79530996166268" lon="9.346695512959302"><ele>504.0</ele><time>2026-05-01T15:01:47Z</time></trkpt><trkpt lat="40.79512843690654" lon="9.346683393176635"><ele>504.0</ele><time>2026-05-01T15:01:48Z</time></trkpt><trkpt lat="40.7949479903042" lon="9.346686604014275"><ele>504.0</ele><time>2026-05-01T15:01:49Z</time></trkpt><trkpt lat="40.79478828375937" lon="9.346720597552938"><ele>504.0</ele><time>2026-05-01T15:01:50Z</time></trkpt><trkpt lat="40.79466933921475" lon="9.346755620168864"><ele>504.0</ele><time>2026-05-01T15:01:51Z</time></trkpt><trkpt lat="40.79457031304905" lon="9.346748512607597"><ele>504.0</ele><time>2026-05-01T15:01:52Z</time></trkpt><trkpt lat="40.794491538940015" lon="9.346676671161786"><ele>504.0</ele><time>2026-05-01T15:01:53Z</time></trkpt><trkpt lat="40.79444021996901" lon="9.346558604084649"><ele>504.0</ele><time>2026-05-01T15:01:54Z</time></trkpt><trkpt lat="40.794437111262475" lon="9.346410642117794"><ele>504.0</ele><time>2026-05-01T15:01:55Z</time></trkpt><trkpt lat="40.79448377757184" lon="9.346217937025166"><ele>501.33333333333337</ele><time>2026-05-01T15:01:56Z</time></trkpt><trkpt lat="40.794571484860285" lon="9.346022994571166"><ele>498.6666666666667</ele><time>2026-05-01T15:01:57Z</time></trkpt><trkpt lat="40.794723697506086" lon="9.34584601559739"><ele>496.0</ele><time>2026-05-01T15:01:58Z</time></trkpt><trkpt lat="40.79491691672978" lon="9.345661944016431"><ele>496.33333333333337</ele><time>2026-05-01T15:01:59Z</time></trkpt><trkpt lat="40.795100000678985" lon="9.345504784578624"><ele>496.66666666666663</ele><time>2026-05-01T15:02:00Z</time></trkpt><trkpt lat="40.79527396100716" lon="9.345362808192686"><ele>497.0</ele><time>2026-05-01T15:02:01Z</time></trkpt><trkpt lat="40.795456978725824" lon="9.34523189209586"><ele>495.66666666666663</ele><time>2026-05-01T15:02:02Z</time></trkpt><trkpt lat="40.795651091480515" lon="9.345154270448091"><ele>494.33333333333337</ele><time>2026-05-01T15:02:03Z</time></trkpt><trkpt lat="40.795863946451504" lon="9.345092448852762"><ele>493.0</ele><time>2026-05-01T15:02:04Z</time></trkpt><trkpt lat="40.79605904719933" lon="9.345032912006229"><ele>492.0</ele><time>2026-05-01T15:02:05Z</time></trkpt><trkpt lat="40.7962381944174" lon="9.344989049270275"><ele>491.0</ele><time>2026-05-01T15:02:06Z</time></trkpt><trkpt lat="40.79641437490735" lon="9.344968849987906"><ele>490.0</ele><time>2026-05-01T15:02:07Z</time></trkpt><trkpt lat="40.79658572904116" lon="9.344990480067349"><ele>490.0</ele><time>2026-05-01T15:02:08Z</time></trkpt><trkpt lat="40.79673891236745" lon="9.345073874859107"><ele>490.0</ele><time>2026-05-01T15:02:09Z</time></trkpt><trkpt lat="40.79689526710957" lon="9.345207697509004"><ele>490.0</ele><time>2026-05-01T15:02:10Z</time></trkpt><trkpt lat="40.797049561477266" lon="9.34536506544982"><ele>488.33333333333337</ele><time>2026-05-01T15:02:11Z</time></trkpt><trkpt lat="40.797204359082876" lon="9.345544311555097"><ele>486.66666666666663</ele><time>2026-05-01T15:02:12Z</time></trkpt><trkpt lat="40.79735275848048" lon="9.345765007934137"><ele>485.0</ele><time>2026-05-01T15:02:13Z</time></trkpt><trkpt lat="40.797506471496945" lon="9.346000906507113"><ele>482.5</ele><time>2026-05-01T15:02:14Z</time></trkpt><trkpt lat="40.79767075987967" lon="9.346238371264597"><ele>480.0</ele><time>2026-05-01T15:02:15Z</time></trkpt><trkpt lat="40.79781748054925" lon="9.346460764148482"><ele>479.0</ele><time>2026-05-01T15:02:16Z</time></trkpt><trkpt lat="40.79796498657857" lon="9.346665868723466"><ele>478.0</ele><time>2026-05-01T15:02:17Z</time></trkpt><trkpt lat="40.79810796506149" lon="9.34685418203392"><ele>477.0</ele><time>2026-05-01T15:02:18Z</time></trkpt><trkpt lat="40.7982306313108" lon="9.346995716108422"><ele>477.0</ele><time>2026-05-01T15:02:19Z</time></trkpt><trkpt lat="40.7983338574969" lon="9.347085490944632"><ele>477.0</ele><time>2026-05-01T15:02:20Z</time></trkpt><trkpt lat="40.798462868160215" lon="9.34712235769309"><ele>477.0</ele><time>2026-05-01T15:02:21Z</time></trkpt><trkpt lat="40.798604617820814" lon="9.347093270003466"><ele>477.0</ele><time>2026-05-01T15:02:22Z</time></trkpt><trkpt lat="40.79878036424117" lon="9.34699923456768"><ele>474.33333333333337</ele><time>2026-05-01T15:02:23Z</time></trkpt><trkpt lat="40.798970192706555" lon="9.346886152757433"><ele>471.6666666666667</ele><time>2026-05-01T15:02:24Z</time></trkpt><trkpt lat="40.79916262053343" lon="9.3467626313959"><ele>469.0</ele><time>2026-05-01T15:02:25Z</time></trkpt><trkpt lat="40.79932623220139" lon="9.346696230661816"><ele>466.6666666666667</ele><time>2026-05-01T15:02:26Z</time></trkpt><trkpt lat="40.79948263266397" lon="9.346702599467925"><ele>464.33333333333337</ele><time>2026-05-01T15:02:27Z</time></trkpt><trkpt lat="40.79965619203815" lon="9.346760755910804"><ele>462.0</ele><time>2026-05-01T15:02:28Z</time></trkpt><trkpt lat="40.79983557472007" lon="9.346765485494938"><ele>462.0</ele><time>2026-05-01T15:02:29Z</time></trkpt><trkpt lat="40.79996813710645" lon="9.346734307403718"><ele>462.0</ele><time>2026-05-01T15:02:30Z</time></trkpt><trkpt lat="40.800066004710615" lon="9.346678406142171"><ele>462.0</ele><time>2026-05-01T15:02:31Z</time></trkpt><trkpt lat="40.80014386082561" lon="9.34654663306113"><ele>462.0</ele><time>2026-05-01T15:02:32Z</time></trkpt><trkpt lat="40.80016994952631" lon="9.346398604240239"><ele>462.33333333333337</ele><time>2026-05-01T15:02:33Z</time></trkpt><trkpt lat="40.80015644774977" lon="9.346185483088535"><ele>462.6666666666667</ele><time>2026-05-01T15:02:34Z</time></trkpt><trkpt lat="40.80012258785509" lon="9.34593377420017"><ele>463.0</ele><time>2026-05-01T15:02:35Z</time></trkpt><trkpt lat="40.80010652318065" lon="9.345673523267633"><ele>460.33333333333337</ele><time>2026-05-01T15:02:36Z</time></trkpt><trkpt lat="40.8000912358887" lon="9.345447165119158"><ele>457.66666666666663</ele><time>2026-05-01T15:02:37Z</time></trkpt><trkpt lat="40.80006664292869" lon="9.345232994768212"><ele>455.0</ele><time>2026-05-01T15:02:38Z</time></trkpt><trkpt lat="40.80004247082689" lon="9.345029382195454"><ele>455.0</ele><time>2026-05-01T15:02:39Z</time></trkpt><trkpt lat="40.799942614402276" lon="9.34485699022708"><ele>455.0</ele><time>2026-05-01T15:02:40Z</time></trkpt><trkpt lat="40.799805560999275" lon="9.34473053288213"><ele>455.0</ele><time>2026-05-01T15:02:41Z</time></trkpt><trkpt lat="40.7997082987236" lon="9.34462232678019"><ele>455.4</ele><time>2026-05-01T15:02:42Z</time></trkpt><trkpt lat="40.79967593837632" lon="9.344530935779007"><ele>455.8</ele><time>2026-05-01T15:02:43Z</time></trkpt><trkpt lat="40.79968302166727" lon="9.344414033688679"><ele>456.20000000000005</ele><time>2026-05-01T15:02:44Z</time></trkpt><trkpt lat="40.79976582926517" lon="9.34429351052999"><ele>456.6</ele><time>2026-05-01T15:02:45Z</time></trkpt><trkpt lat="40.79989369072196" lon="9.344209884349459"><ele>457.0</ele><time>2026-05-01T15:02:46Z</time></trkpt><trkpt lat="40.800046017214754" lon="9.344131691601538"><ele>450.33333333333337</ele><time>2026-05-01T15:02:47Z</time></trkpt><trkpt lat="40.80020992289516" lon="9.344163747532265"><ele>443.66666666666663</ele><time>2026-05-01T15:02:48Z</time></trkpt><trkpt lat="40.8003540173345" lon="9.344150489549325"><ele>437.0</ele><time>2026-05-01T15:02:49Z</time></trkpt><trkpt lat="40.80049422171406" lon="9.344034594153124"><ele>437.0</ele><time>2026-05-01T15:02:50Z</time></trkpt><trkpt lat="40.8006396305512" lon="9.343919299900275"><ele>437.0</ele><time>2026-05-01T15:02:51Z</time></trkpt><trkpt lat="40.80082362943837" lon="9.343854585588332"><ele>437.0</ele><time>2026-05-01T15:02:52Z</time></trkpt><trkpt lat="40.801012954579164" lon="9.343719299536442"><ele>440.0</ele><time>2026-05-01T15:02:53Z</time></trkpt><trkpt lat="40.80120152748913" lon="9.34357718367707"><ele>443.0</ele><time>2026-05-01T15:02:54Z</time></trkpt><trkpt lat="40.801411413028724" lon="9.343489864088745"><ele>446.0</ele><time>2026-05-01T15:02:55Z</time></trkpt><trkpt lat="40.80161090356765" lon="9.343421540506068"><ele>446.0</ele><time>2026-05-01T15:02:56Z</time></trkpt><trkpt lat="40.801808842546954" lon="9.343342216590885"><ele>446.0</ele><time>2026-05-01T15:02:57Z</time></trkpt><trkpt lat="40.80198519949855" lon="9.343295906571113"><ele>446.0</ele><time>2026-05-01T15:02:58Z</time></trkpt><trkpt lat="40.80214747851046" lon="9.343310031313045"><ele>442.0</ele><time>2026-05-01T15:02:59Z</time></trkpt><trkpt lat="40.80229553420998" lon="9.343316707406682"><ele>438.0</ele><time>2026-05-01T15:03:00Z</time></trkpt><trkpt lat="40.802428830823644" lon="9.343250226155082"><ele>434.0</ele><time>2026-05-01T15:03:01Z</time></trkpt><trkpt lat="40.802567491816006" lon="9.343157239259472"><ele>430.0</ele><time>2026-05-01T15:03:02Z</time></trkpt><trkpt lat="40.80271874955795" lon="9.343127103795286"><ele>427.25</ele><time>2026-05-01T15:03:03Z</time></trkpt><trkpt lat="40.80283265687971" lon="9.343061656810463"><ele>424.5</ele><time>2026-05-01T15:03:04Z</time></trkpt><trkpt lat="40.80291988670842" lon="9.342923628445025"><ele>421.75</ele><time>2026-05-01T15:03:05Z</time></trkpt><trkpt lat="40.802998053017454" lon="9.342726002787982"><ele>419.0</ele><time>2026-05-01T15:03:06Z</time></trkpt><trkpt lat="40.80307768404222" lon="9.342491738340668"><ele>419.0</ele><time>2026-05-01T15:03:07Z</time></trkpt><trkpt lat="40.8031736861925" lon="9.342232382328849"><ele>419.0</ele><time>2026-05-01T15:03:08Z</time></trkpt><trkpt lat="40.80329234752321" lon="9.341959445761745"><ele>420.0</ele><time>2026-05-01T15:03:09Z</time></trkpt><trkpt lat="40.803373686717784" lon="9.34170426400697"><ele>421.0</ele><time>2026-05-01T15:03:10Z</time></trkpt><trkpt lat="40.80342387231426" lon="9.341471625018926"><ele>422.0</ele><time>2026-05-01T15:03:11Z</time></trkpt><trkpt lat="40.80351372439853" lon="9.341279608632306"><ele>422.0</ele><time>2026-05-01T15:03:12Z</time></trkpt><trkpt lat="40.80362862966364" lon="9.34112159091444"><ele>422.0</ele><time>2026-05-01T15:03:13Z</time></trkpt><trkpt lat="40.803736572040314" lon="9.341018652743124"><ele>422.0</ele><time>2026-05-01T15:03:14Z</time></trkpt><trkpt lat="40.80384644621156" lon="9.341007464380855"><ele>422.0</ele><time>2026-05-01T15:03:15Z</time></trkpt><trkpt lat="40.80394903431456" lon="9.341026555335393"><ele>422.0</ele><time>2026-05-01T15:03:16Z</time></trkpt><trkpt lat="40.804028336588985" lon="9.341158051583891"><ele>422.0</ele><time>2026-05-01T15:03:17Z</time></trkpt><trkpt lat="40.80412564081532" lon="9.341281904791186"><ele>422.0</ele><time>2026-05-01T15:03:18Z</time></trkpt><trkpt lat="40.804204997149384" lon="9.341375719684748"><ele>422.0</ele><time>2026-05-01T15:03:19Z</time></trkpt><trkpt lat="40.80429343905433" lon="9.34138471036522"><ele>417.25</ele><time>2026-05-01T15:03:20Z</time></trkpt><trkpt lat="40.80440597503115" lon="9.341361978387763"><ele>412.5</ele><time>2026-05-01T15:03:21Z</time></trkpt><trkpt lat="40.80453432501111" lon="9.341229229562021"><ele>407.75</ele><time>2026-05-01T15:03:22Z</time></trkpt><trkpt lat="40.80463394720551" lon="9.341127839655636"><ele>403.0</ele><time>2026-05-01T15:03:23Z</time></trkpt><trkpt lat="40.80481282635834" lon="9.340873476612746"><ele>403.0</ele><time>2026-05-01T15:03:24Z</time></trkpt><trkpt lat="40.80487131993088" lon="9.340681310452142"><ele>403.0</ele><time>2026-05-01T15:03:25Z</time></trkpt><trkpt lat="40.80486893758017" lon="9.340469766155788"><ele>403.0</ele><time>2026-05-01T15:03:26Z</time></trkpt><trkpt lat="40.80481995692181" lon="9.34024105894809"><ele>400.33333333333337</ele><time>2026-05-01T15:03:27Z</time></trkpt><trkpt lat="40.804730013249156" lon="9.340024185311664"><ele>397.66666666666663</ele><time>2026-05-01T15:03:28Z</time></trkpt><trkpt lat="40.80464015478094" lon="9.339739467726318"><ele>395.0</ele><time>2026-05-01T15:03:29Z</time></trkpt><trkpt lat="40.80457932189019" lon="9.339439441429084"><ele>391.0</ele><time>2026-05-01T15:03:30Z</time></trkpt><trkpt lat="40.80454290168181" lon="9.339147033390672"><ele>387.0</ele><time>2026-05-01T15:03:31Z</time></trkpt><trkpt lat="40.80449174237403" lon="9.338867098162249"><ele>383.0</ele><time>2026-05-01T15:03:32Z</time></trkpt><trkpt lat="40.80442017348289" lon="9.338599528717566"><ele>379.6666666666667</ele><time>2026-05-01T15:03:33Z</time></trkpt><trkpt lat="40.8043312379312" lon="9.338346159569879"><ele>376.3333333333333</ele><time>2026-05-01T15:03:34Z</time></trkpt><trkpt lat="40.80427114388272" lon="9.338087914858853"><ele>373.0</ele><time>2026-05-01T15:03:35Z</time></trkpt><trkpt lat="40.804241344416084" lon="9.33785357711865"><ele>380.0</ele><time>2026-05-01T15:03:36Z</time></trkpt><trkpt lat="40.80418266974145" lon="9.337621127293392"><ele>387.0</ele><time>2026-05-01T15:03:37Z</time></trkpt><trkpt lat="40.804126133360974" lon="9.337448002319753"><ele>394.0</ele><time>2026-05-01T15:03:38Z</time></trkpt><trkpt lat="40.80400552881542" lon="9.337345390947622"><ele>394.0</ele><time>2026-05-01T15:03:39Z</time></trkpt><trkpt lat="40.803870825408964" lon="9.337225981150615"><ele>394.0</ele><time>2026-05-01T15:03:40Z</time></trkpt><trkpt lat="40.8037468375996" lon="9.337090374245419"><ele>394.0</ele><time>2026-05-01T15:03:41Z</time></trkpt><trkpt lat="40.803698665006735" lon="9.336981512021651"><ele>394.0</ele><time>2026-05-01T15:03:42Z</time></trkpt><trkpt lat="40.8037091836467" lon="9.336866981480318"><ele>393.25</ele><time>2026-05-01T15:03:43Z</time></trkpt><trkpt lat="40.803765547435844" lon="9.336775411649942"><ele>392.5</ele><time>2026-05-01T15:03:44Z</time></trkpt><trkpt lat="40.8038471155638" lon="9.336668333335009"><ele>391.75</ele><time>2026-05-01T15:03:45Z</time></trkpt><trkpt lat="40.80395812541402" lon="9.336490793431844"><ele>391.0</ele><time>2026-05-01T15:03:46Z</time></trkpt><trkpt lat="40.80407684897387" lon="9.336298671138554"><ele>391.0</ele><time>2026-05-01T15:03:47Z</time></trkpt><trkpt lat="40.804187920266635" lon="9.336113756531383"><ele>391.0</ele><time>2026-05-01T15:03:48Z</time></trkpt><trkpt lat="40.804289940801574" lon="9.335943433277926"><ele>391.0</ele><time>2026-05-01T15:03:49Z</time></trkpt><trkpt lat="40.80435633325053" lon="9.335776682141574"><ele>388.6666666666667</ele><time>2026-05-01T15:03:50Z</time></trkpt><trkpt lat="40.804389981822744" lon="9.335604575870832"><ele>386.33333333333337</ele><time>2026-05-01T15:03:51Z</time></trkpt><trkpt lat="40.80436154932116" lon="9.335390469510548"><ele>384.0</ele><time>2026-05-01T15:03:52Z</time></trkpt><trkpt lat="40.80429087454556" lon="9.335159568197069"><ele>384.0</ele><time>2026-05-01T15:03:53Z</time></trkpt><trkpt lat="40.80418470793437" lon="9.334889377721877"><ele>384.0</ele><time>2026-05-01T15:03:54Z</time></trkpt><trkpt lat="40.80417801017171" lon="9.334633369400219"><ele>384.0</ele><time>2026-05-01T15:03:55Z</time></trkpt><trkpt lat="40.80416701365402" lon="9.334400521381882"><ele>380.6666666666667</ele><time>2026-05-01T15:03:56Z</time></trkpt><trkpt lat="40.80414126334636" lon="9.334211605303317"><ele>377.33333333333337</ele><time>2026-05-01T15:03:57Z</time></trkpt><trkpt lat="40.804058065525574" lon="9.334028639182867"><ele>374.0</ele><time>2026-05-01T15:03:58Z</time></trkpt><trkpt lat="40.80390101694634" lon="9.333871127420222"><ele>372.33333333333337</ele><time>2026-05-01T15:03:59Z</time></trkpt><trkpt lat="40.8037114036023" lon="9.333743969594474"><ele>370.6666666666667</ele><time>2026-05-01T15:04:00Z</time></trkpt><trkpt lat="40.80349985521837" lon="9.333626375291667"><ele>369.0</ele><time>2026-05-01T15:04:01Z</time></trkpt><trkpt lat="40.80334058024482" lon="9.333434904376034"><ele>369.0</ele><time>2026-05-01T15:04:02Z</time></trkpt><trkpt lat="40.80315983026657" lon="9.333232014524077"><ele>369.0</ele><time>2026-05-01T15:04:03Z</time></trkpt><trkpt lat="40.80299297428236" lon="9.333039041360216"><ele>370.0</ele><time>2026-05-01T15:04:04Z</time></trkpt><trkpt lat="40.80284786188558" lon="9.33287298014156"><ele>371.0</ele><time>2026-05-01T15:04:05Z</time></trkpt><trkpt lat="40.80273011653969" lon="9.332714267753369"><ele>372.0</ele><time>2026-05-01T15:04:06Z</time></trkpt><trkpt lat="40.802638334485536" lon="9.332527678638563"><ele>372.0</ele><time>2026-05-01T15:04:07Z</time></trkpt><trkpt lat="40.802564037518174" lon="9.332306197505588"><ele>372.0</ele><time>2026-05-01T15:04:08Z</time></trkpt><trkpt lat="40.80246014723532" lon="9.332116252452336"><ele>372.0</ele><time>2026-05-01T15:04:09Z</time></trkpt><trkpt lat="40.802315278519366" lon="9.331938846330452"><ele>370.0</ele><time>2026-05-01T15:04:10Z</time></trkpt><trkpt lat="40.80213961695525" lon="9.3317718140258"><ele>368.0</ele><time>2026-05-01T15:04:11Z</time></trkpt><trkpt lat="40.801985343178934" lon="9.331600803287817"><ele>366.0</ele><time>2026-05-01T15:04:12Z</time></trkpt><trkpt lat="40.80180825541273" lon="9.331469889127773"><ele>361.6666666666667</ele><time>2026-05-01T15:04:13Z</time></trkpt><trkpt lat="40.801638431022106" lon="9.331365121055901"><ele>357.33333333333337</ele><time>2026-05-01T15:04:14Z</time></trkpt><trkpt lat="40.80149843413523" lon="9.33127917802397"><ele>353.0</ele><time>2026-05-01T15:04:15Z</time></trkpt><trkpt lat="40.80139332995438" lon="9.331205287052793"><ele>353.0</ele><time>2026-05-01T15:04:16Z</time></trkpt><trkpt lat="40.80133098080165" lon="9.331127309897221"><ele>353.0</ele><time>2026-05-01T15:04:17Z</time></trkpt><trkpt lat="40.801293278008245" lon="9.331004928086465"><ele>353.0</ele><time>2026-05-01T15:04:18Z</time></trkpt><trkpt lat="40.80133647865461" lon="9.330847083857565"><ele>353.0</ele><time>2026-05-01T15:04:19Z</time></trkpt><trkpt lat="40.801449406314994" lon="9.330732303525078"><ele>353.0</ele><time>2026-05-01T15:04:20Z</time></trkpt><trkpt lat="40.80158381495749" lon="9.330587209425902"><ele>353.0</ele><time>2026-05-01T15:04:21Z</time></trkpt><trkpt lat="40.80173009731199" lon="9.330433613344796"><ele>353.0</ele><time>2026-05-01T15:04:22Z</time></trkpt><trkpt lat="40.80189837211989" lon="9.330253911183002"><ele>349.6666666666667</ele><time>2026-05-01T15:04:23Z</time></trkpt><trkpt lat="40.80205008138305" lon="9.330076585223477"><ele>346.3333333333333</ele><time>2026-05-01T15:04:24Z</time></trkpt><trkpt lat="40.80216889370348" lon="9.329883712530922"><ele>343.0</ele><time>2026-05-01T15:04:25Z</time></trkpt><trkpt lat="40.80225678116787" lon="9.329641028157372"><ele>343.0</ele><time>2026-05-01T15:04:26Z</time></trkpt><trkpt lat="40.80232406473251" lon="9.329383182206096"><ele>343.0</ele><time>2026-05-01T15:04:27Z</time></trkpt><trkpt lat="40.80238754015432" lon="9.329139504263063"><ele>343.0</ele><time>2026-05-01T15:04:28Z</time></trkpt><trkpt lat="40.80244634530584" lon="9.328913755165756"><ele>346.0</ele><time>2026-05-01T15:04:29Z</time></trkpt><trkpt lat="40.80250421589652" lon="9.328695596911782"><ele>349.0</ele><time>2026-05-01T15:04:30Z</time></trkpt><trkpt lat="40.80256984228536" lon="9.328484480249651"><ele>352.0</ele><time>2026-05-01T15:04:31Z</time></trkpt><trkpt lat="40.80265210602564" lon="9.328324627636851"><ele>347.5</ele><time>2026-05-01T15:04:32Z</time></trkpt><trkpt lat="40.80276552015698" lon="9.328224878491156"><ele>343.0</ele><time>2026-05-01T15:04:33Z</time></trkpt><trkpt lat="40.80291706039876" lon="9.328184074803458"><ele>338.5</ele><time>2026-05-01T15:04:34Z</time></trkpt><trkpt lat="40.80305015300438" lon="9.328196931237667"><ele>334.0</ele><time>2026-05-01T15:04:35Z</time></trkpt><trkpt lat="40.80321146871091" lon="9.328209154964162"><ele>334.0</ele><time>2026-05-01T15:04:36Z</time></trkpt><trkpt lat="40.80336552213235" lon="9.32822338855647"><ele>334.0</ele><time>2026-05-01T15:04:37Z</time></trkpt><trkpt lat="40.80349335849316" lon="9.328217650148495"><ele>334.0</ele><time>2026-05-01T15:04:38Z</time></trkpt><trkpt lat="40.803608452668584" lon="9.328157121168932"><ele>334.0</ele><time>2026-05-01T15:04:39Z</time></trkpt><trkpt lat="40.80367814594231" lon="9.327981221952832"><ele>329.0</ele><time>2026-05-01T15:04:40Z</time></trkpt><trkpt lat="40.80372547488759" lon="9.327780846252724"><ele>324.0</ele><time>2026-05-01T15:04:41Z</time></trkpt><trkpt lat="40.803735058757276" lon="9.32756075628523"><ele>319.0</ele><time>2026-05-01T15:04:42Z</time></trkpt><trkpt lat="40.803727278066496" lon="9.327327897861828"><ele>319.0</ele><time>2026-05-01T15:04:43Z</time></trkpt><trkpt lat="40.80372819453716" lon="9.327128166016433"><ele>319.0</ele><time>2026-05-01T15:04:44Z</time></trkpt><trkpt lat="40.80375579047609" lon="9.326950754218045"><ele>319.0</ele><time>2026-05-01T15:04:45Z</time></trkpt><trkpt lat="40.803810475624786" lon="9.326775170003613"><ele>319.0</ele><time>2026-05-01T15:04:46Z</time></trkpt><trkpt lat="40.80390538903431" lon="9.326627941118357"><ele>319.0</ele><time>2026-05-01T15:04:47Z</time></trkpt><trkpt lat="40.80402842676959" lon="9.326528949765839"><ele>319.0</ele><time>2026-05-01T15:04:48Z</time></trkpt><trkpt lat="40.804152528416445" lon="9.326435864559013"><ele>319.0</ele><time>2026-05-01T15:04:49Z</time></trkpt><trkpt lat="40.804247240626644" lon="9.32634114906188"><ele>319.0</ele><time>2026-05-01T15:04:50Z</time></trkpt><trkpt lat="40.80432628683404" lon="9.326260940742578"><ele>319.25</ele><time>2026-05-01T15:04:51Z</time></trkpt><trkpt lat="40.80438401601546" lon="9.326162042010534"><ele>319.5</ele><time>2026-05-01T15:04:52Z</time></trkpt><trkpt lat="40.80440857921372" lon="9.326030328590083"><ele>319.75</ele><time>2026-05-01T15:04:53Z</time></trkpt><trkpt lat="40.80429904283011" lon="9.325877580036963"><ele>320.0</ele><time>2026-05-01T15:04:54Z</time></trkpt><trkpt lat="40.804203039182816" lon="9.3257913436868"><ele>320.0</ele><time>2026-05-01T15:04:55Z</time></trkpt><trkpt lat="40.80410286190514" lon="9.325730545792725"><ele>320.0</ele><time>2026-05-01T15:04:56Z</time></trkpt><trkpt lat="40.80403254183802" lon="9.32562884449582"><ele>320.0</ele><time>2026-05-01T15:04:57Z</time></trkpt><trkpt lat="40.803955226362554" lon="9.32553862110389"><ele>320.0</ele><time>2026-05-01T15:04:58Z</time></trkpt><trkpt lat="40.803980319225325" lon="9.32539689855544"><ele>320.0</ele><time>2026-05-01T15:04:59Z</time></trkpt><trkpt lat="40.80399422743927" lon="9.32528950253637"><ele>319.4</ele><time>2026-05-01T15:05:00Z</time></trkpt><trkpt lat="40.804022652102205" lon="9.325207484653262"><ele>318.8</ele><time>2026-05-01T15:05:01Z</time></trkpt><trkpt lat="40.804101385192595" lon="9.325142274320108"><ele>318.2</ele><time>2026-05-01T15:05:04Z</time></trkpt><trkpt lat="40.80418446141699" lon="9.325148157362001"><ele>317.6</ele><time>2026-05-01T15:05:06Z</time></trkpt><trkpt lat="40.804297620075104" lon="9.325078291850344"><ele>317.0</ele><time>2026-05-01T15:05:08Z</time></trkpt><trkpt lat="40.80435574781412" lon="9.324991528737655"><ele>314.6666666666667</ele><time>2026-05-01T15:05:09Z</time></trkpt><trkpt lat="40.80440858850751" lon="9.324887207259074"><ele>312.33333333333337</ele><time>2026-05-01T15:05:10Z</time></trkpt><trkpt lat="40.80445484000645" lon="9.324799883523887"><ele>310.0</ele><time>2026-05-01T15:05:11Z</time></trkpt><trkpt lat="40.80448840609599" lon="9.324727121460104"><ele>307.6666666666667</ele><time>2026-05-01T15:05:12Z</time></trkpt><trkpt lat="40.80453058930696" lon="9.324633610251631"><ele>305.3333333333333</ele><time>2026-05-01T15:05:15Z</time></trkpt><trkpt lat="40.80456468720686" lon="9.324554949115635"><ele>303.0</ele><time>2026-05-01T15:05:17Z</time></trkpt><trkpt lat="40.804606880865464" lon="9.3244416500274"><ele>302.6</ele><time>2026-05-01T15:05:19Z</time></trkpt><trkpt lat="40.80468390934814" lon="9.32432123683089"><ele>302.20000000000005</ele><time>2026-05-01T15:05:21Z</time></trkpt><trkpt lat="40.80475300906707" lon="9.324299048136242"><ele>301.8</ele><time>2026-05-01T15:05:22Z</time></trkpt><trkpt lat="40.80484118135456" lon="9.324206900601448"><ele>301.40000000000003</ele><time>2026-05-01T15:05:24Z</time></trkpt><trkpt lat="40.80495171108644" lon="9.32418868696392"><ele>301.0</ele><time>2026-05-01T15:05:26Z</time></trkpt><trkpt lat="40.80506221622531" lon="9.324206995396798"><ele>299.2</ele><time>2026-05-01T15:05:28Z</time></trkpt><trkpt lat="40.8051629826028" lon="9.324275725366707"><ele>297.40000000000003</ele><time>2026-05-01T15:05:30Z</time></trkpt><trkpt lat="40.80523754948532" lon="9.32435441949175"><ele>295.6</ele><time>2026-05-01T15:05:32Z</time></trkpt><trkpt lat="40.805356446924016" lon="9.324262959628843"><ele>293.8</ele><time>2026-05-01T15:05:34Z</time></trkpt><trkpt lat="40.805405729789534" lon="9.32417378083172"><ele>292.0</ele><time>2026-05-01T15:05:36Z</time></trkpt><trkpt lat="40.80544419650692" lon="9.324093374053822"><ele>292.0</ele><time>2026-05-01T15:05:39Z</time></trkpt><trkpt lat="40.805585783377744" lon="9.324196437471695"><ele>292.0</ele><time>2026-05-01T15:05:43Z</time></trkpt><trkpt lat="40.805670135418374" lon="9.324305634481698"><ele>292.0</ele><time>2026-05-01T15:05:44Z</time></trkpt><trkpt lat="40.8057545032939" lon="9.324410764503586"><ele>292.0</ele><time>2026-05-01T15:05:45Z</time></trkpt><trkpt lat="40.80585432638769" lon="9.324512408282319"><ele>292.0</ele><time>2026-05-01T15:05:46Z</time></trkpt><trkpt lat="40.80595813506422" lon="9.324613631306754"><ele>292.0</ele><time>2026-05-01T15:05:47Z</time></trkpt><trkpt lat="40.80605485009934" lon="9.324711006194923"><ele>292.0</ele><time>2026-05-01T15:05:48Z</time></trkpt><trkpt lat="40.806139873197196" lon="9.324783196339853"><ele>292.0</ele><time>2026-05-01T15:05:49Z</time></trkpt><trkpt lat="40.80621309109689" lon="9.324844247081714"><ele>292.0</ele><time>2026-05-01T15:05:50Z</time></trkpt><trkpt lat="40.806289745913936" lon="9.32490740537297"><ele>292.0</ele><time>2026-05-01T15:05:51Z</time></trkpt><trkpt lat="40.80635510899796" lon="9.324976411829075"><ele>292.0</ele><time>2026-05-01T15:05:52Z</time></trkpt><trkpt lat="40.80642819495555" lon="9.325042530841577"><ele>292.0</ele><time>2026-05-01T15:05:53Z</time></trkpt><trkpt lat="40.80650519475042" lon="9.325109020416898"><ele>292.0</ele><time>2026-05-01T15:05:54Z</time></trkpt><trkpt lat="40.80657998275985" lon="9.32516808424433"><ele>292.0</ele><time>2026-05-01T15:05:55Z</time></trkpt><trkpt lat="40.80665937498798" lon="9.325238434462177"><ele>292.0</ele><time>2026-05-01T15:05:56Z</time></trkpt><trkpt lat="40.806742537767455" lon="9.325307906174578"><ele>291.4</ele><time>2026-05-01T15:05:57Z</time></trkpt><trkpt lat="40.80683000872637" lon="9.325367408574452"><ele>290.79999999999995</ele><time>2026-05-01T15:05:58Z</time></trkpt><trkpt lat="40.806914832670216" lon="9.32543337092146"><ele>290.2</ele><time>2026-05-01T15:05:59Z</time></trkpt><trkpt lat="40.8070072229399" lon="9.325503814705662"><ele>289.59999999999997</ele><time>2026-05-01T15:06:00Z</time></trkpt><trkpt lat="40.80710915732335" lon="9.325544852568507"><ele>289.0</ele><time>2026-05-01T15:06:01Z</time></trkpt><trkpt lat="40.807215578163536" lon="9.325587978370343"><ele>289.0</ele><time>2026-05-01T15:06:02Z</time></trkpt><trkpt lat="40.80733243666597" lon="9.325596948727544"><ele>289.0</ele><time>2026-05-01T15:06:03Z</time></trkpt><trkpt lat="40.807443570641375" lon="9.325630455748957"><ele>289.0</ele><time>2026-05-01T15:06:04Z</time></trkpt><trkpt lat="40.80757896867158" lon="9.325589382589289"><ele>289.0</ele><time>2026-05-01T15:06:05Z</time></trkpt><trkpt lat="40.80773580999994" lon="9.325577373698845"><ele>288.25</ele><time>2026-05-01T15:06:06Z</time></trkpt><trkpt lat="40.80789356519415" lon="9.325524372186464"><ele>287.5</ele><time>2026-05-01T15:06:07Z</time></trkpt><trkpt lat="40.80803894410687" lon="9.325477586376007"><ele>286.75</ele><time>2026-05-01T15:06:09Z</time></trkpt><trkpt lat="40.80812728676194" lon="9.325408156845993"><ele>286.0</ele><time>2026-05-01T15:06:10Z</time></trkpt><trkpt lat="40.808212402952044" lon="9.32531755094469"><ele>286.0</ele><time>2026-05-01T15:06:11Z</time></trkpt><trkpt lat="40.80830089299611" lon="9.32521883290401"><ele>286.0</ele><time>2026-05-01T15:06:12Z</time></trkpt><trkpt lat="40.80839110923353" lon="9.325118998879242"><ele>286.0</ele><time>2026-05-01T15:06:13Z</time></trkpt><trkpt lat="40.808484278455616" lon="9.32502032290285"><ele>286.0</ele><time>2026-05-01T15:06:14Z</time></trkpt><trkpt lat="40.80858859764711" lon="9.324924775184735"><ele>286.0</ele><time>2026-05-01T15:06:15Z</time></trkpt><trkpt lat="40.80868900199578" lon="9.324823494083242"><ele>286.0</ele><time>2026-05-01T15:06:16Z</time></trkpt><trkpt lat="40.80878936991466" lon="9.324727023223222"><ele>286.0</ele><time>2026-05-01T15:06:17Z</time></trkpt><trkpt lat="40.8088905004788" lon="9.324626195812337"><ele>286.0</ele><time>2026-05-01T15:06:18Z</time></trkpt><trkpt lat="40.80899092301424" lon="9.324526591582364"><ele>286.0</ele><time>2026-05-01T15:06:19Z</time></trkpt><trkpt lat="40.80909301716364" lon="9.3244260406138"><ele>286.0</ele><time>2026-05-01T15:06:20Z</time></trkpt><trkpt lat="40.80919678576111" lon="9.324331507211623"><ele>286.0</ele><time>2026-05-01T15:06:21Z</time></trkpt><trkpt lat="40.80929518865765" lon="9.324235833285975"><ele>286.0</ele><time>2026-05-01T15:06:22Z</time></trkpt><trkpt lat="40.809397033307846" lon="9.324139173211305"><ele>286.0</ele><time>2026-05-01T15:06:23Z</time></trkpt><trkpt lat="40.80950025683568" lon="9.324041211662278"><ele>286.0</ele><time>2026-05-01T15:06:24Z</time></trkpt><trkpt lat="40.80960307443299" lon="9.323937257387273"><ele>286.0</ele><time>2026-05-01T15:06:25Z</time></trkpt><trkpt lat="40.809711276204354" lon="9.323835228639691"><ele>286.0</ele><time>2026-05-01T15:06:26Z</time></trkpt><trkpt lat="40.80982483297617" lon="9.323734614826863"><ele>286.0</ele><time>2026-05-01T15:06:27Z</time></trkpt><trkpt lat="40.80993009724048" lon="9.323630849945845"><ele>286.0</ele><time>2026-05-01T15:06:28Z</time></trkpt><trkpt lat="40.81003913973009" lon="9.323514181579704"><ele>286.0</ele><time>2026-05-01T15:06:29Z</time></trkpt><trkpt lat="40.81015920265057" lon="9.323422367456537"><ele>286.0</ele><time>2026-05-01T15:06:30Z</time></trkpt><trkpt lat="40.81029487580393" lon="9.323290754635593"><ele>286.66666666666663</ele><time>2026-05-01T15:06:31Z</time></trkpt><trkpt lat="40.81043415946957" lon="9.323185857378311"><ele>287.3333333333333</ele><time>2026-05-01T15:06:32Z</time></trkpt><trkpt lat="40.81053884742566" lon="9.323058818322155"><ele>288.0</ele><time>2026-05-01T15:06:33Z</time></trkpt><trkpt lat="40.81065817592579" lon="9.322937004742915"><ele>288.0</ele><time>2026-05-01T15:06:34Z</time></trkpt><trkpt lat="40.81078074682342" lon="9.32282129795757"><ele>288.0</ele><time>2026-05-01T15:06:35Z</time></trkpt><trkpt lat="40.81091685189565" lon="9.322705688081781"><ele>288.0</ele><time>2026-05-01T15:06:36Z</time></trkpt><trkpt lat="40.81104799850448" lon="9.322582449690508"><ele>288.0</ele><time>2026-05-01T15:06:37Z</time></trkpt><trkpt lat="40.811191288041826" lon="9.322435382195682"><ele>288.0</ele><time>2026-05-01T15:06:38Z</time></trkpt><trkpt lat="40.81133399514805" lon="9.32228969519626"><ele>288.0</ele><time>2026-05-01T15:06:39Z</time></trkpt><trkpt lat="40.811488032601865" lon="9.32213597107083"><ele>288.0</ele><time>2026-05-01T15:06:40Z</time></trkpt><trkpt lat="40.81166416758167" lon="9.321971650625947"><ele>288.0</ele><time>2026-05-01T15:06:41Z</time></trkpt><trkpt lat="40.81184953044604" lon="9.32180403894987"><ele>288.0</ele><time>2026-05-01T15:06:42Z</time></trkpt><trkpt lat="40.812042308727705" lon="9.3216206188309"><ele>288.5</ele><time>2026-05-01T15:06:43Z</time></trkpt><trkpt lat="40.81224273206084" lon="9.321431882647193"><ele>289.0</ele><time>2026-05-01T15:06:44Z</time></trkpt><trkpt lat="40.81244902504221" lon="9.321232555334369"><ele>289.0</ele><time>2026-05-01T15:06:45Z</time></trkpt><trkpt lat="40.8126466945599" lon="9.321034679518155"><ele>289.0</ele><time>2026-05-01T15:06:46Z</time></trkpt><trkpt lat="40.812835372051005" lon="9.320866268340373"><ele>289.3333333333333</ele><time>2026-05-01T15:06:47Z</time></trkpt><trkpt lat="40.81301677026994" lon="9.320694786428012"><ele>289.6666666666667</ele><time>2026-05-01T15:06:48Z</time></trkpt><trkpt lat="40.81317118147936" lon="9.320533486340551"><ele>290.0</ele><time>2026-05-01T15:06:49Z</time></trkpt><trkpt lat="40.813332065543904" lon="9.320376642447377"><ele>291.33333333333337</ele><time>2026-05-01T15:06:50Z</time></trkpt><trkpt lat="40.813496120644416" lon="9.320284909654923"><ele>292.6666666666667</ele><time>2026-05-01T15:06:51Z</time></trkpt><trkpt lat="40.8136649767678" lon="9.320265015251485"><ele>294.0</ele><time>2026-05-01T15:06:52Z</time></trkpt><trkpt lat="40.813824044997425" lon="9.320342078211873"><ele>294.0</ele><time>2026-05-01T15:06:53Z</time></trkpt><trkpt lat="40.813989199842986" lon="9.320437971127605"><ele>294.0</ele><time>2026-05-01T15:06:54Z</time></trkpt><trkpt lat="40.81415297646854" lon="9.32057976803034"><ele>294.0</ele><time>2026-05-01T15:06:55Z</time></trkpt><trkpt lat="40.814325380543195" lon="9.320749507540048"><ele>294.5</ele><time>2026-05-01T15:06:56Z</time></trkpt><trkpt lat="40.81451150453908" lon="9.3209092941029"><ele>295.0</ele><time>2026-05-01T15:06:57Z</time></trkpt><trkpt lat="40.81469349215683" lon="9.321094817760091"><ele>295.0</ele><time>2026-05-01T15:06:58Z</time></trkpt><trkpt lat="40.814868923817116" lon="9.321276259702966"><ele>295.0</ele><time>2026-05-01T15:06:59Z</time></trkpt><trkpt lat="40.815030704989255" lon="9.321439160449517"><ele>295.0</ele><time>2026-05-01T15:07:00Z</time></trkpt><trkpt lat="40.81517575371997" lon="9.321585064110067"><ele>297.0</ele><time>2026-05-01T15:07:01Z</time></trkpt><trkpt lat="40.8153110778488" lon="9.321710085588997"><ele>299.0</ele><time>2026-05-01T15:07:02Z</time></trkpt><trkpt lat="40.81545951580529" lon="9.32179254828491"><ele>301.0</ele><time>2026-05-01T15:07:03Z</time></trkpt><trkpt lat="40.81561997918618" lon="9.321800094597535"><ele>301.0</ele><time>2026-05-01T15:07:04Z</time></trkpt><trkpt lat="40.81577412688176" lon="9.321720425748175"><ele>301.0</ele><time>2026-05-01T15:07:05Z</time></trkpt><trkpt lat="40.81592475793132" lon="9.321583538636586"><ele>301.0</ele><time>2026-05-01T15:07:06Z</time></trkpt><trkpt lat="40.816069183657" lon="9.321395351568272"><ele>304.0</ele><time>2026-05-01T15:07:07Z</time></trkpt><trkpt lat="40.816192772094524" lon="9.321188881593176"><ele>307.0</ele><time>2026-05-01T15:07:08Z</time></trkpt><trkpt lat="40.8162753072967" lon="9.320990963515248"><ele>310.0</ele><time>2026-05-01T15:07:09Z</time></trkpt><trkpt lat="40.81631376715057" lon="9.320792236837516"><ele>310.0</ele><time>2026-05-01T15:07:10Z</time></trkpt><trkpt lat="40.81628085014553" lon="9.32058598518502"><ele>310.0</ele><time>2026-05-01T15:07:11Z</time></trkpt><trkpt lat="40.81620283424721" lon="9.320400082697596"><ele>310.0</ele><time>2026-05-01T15:07:12Z</time></trkpt><trkpt lat="40.816102062471515" lon="9.320241585012942"><ele>311.25</ele><time>2026-05-01T15:07:13Z</time></trkpt><trkpt lat="40.81605099158582" lon="9.320073707321399"><ele>312.5</ele><time>2026-05-01T15:07:14Z</time></trkpt><trkpt lat="40.81603104971979" lon="9.319889369152103"><ele>313.75</ele><time>2026-05-01T15:07:15Z</time></trkpt><trkpt lat="40.8160568402682" lon="9.319681712124007"><ele>315.0</ele><time>2026-05-01T15:07:16Z</time></trkpt><trkpt lat="40.81611299656455" lon="9.319472830752263"><ele>315.0</ele><time>2026-05-01T15:07:17Z</time></trkpt><trkpt lat="40.816196181802695" lon="9.319267727617344"><ele>315.0</ele><time>2026-05-01T15:07:18Z</time></trkpt><trkpt lat="40.81629384878219" lon="9.319069263345252"><ele>315.0</ele><time>2026-05-01T15:07:19Z</time></trkpt><trkpt lat="40.81640648094787" lon="9.31890028272781"><ele>314.3333333333333</ele><time>2026-05-01T15:07:20Z</time></trkpt><trkpt lat="40.816533680882785" lon="9.318784879916672"><ele>313.66666666666663</ele><time>2026-05-01T15:07:21Z</time></trkpt><trkpt lat="40.816689336710695" lon="9.318723824575798"><ele>313.0</ele><time>2026-05-01T15:07:22Z</time></trkpt><trkpt lat="40.81686761758753" lon="9.318705671380933"><ele>315.66666666666663</ele><time>2026-05-01T15:07:23Z</time></trkpt><trkpt lat="40.81706194921793" lon="9.318683568438127"><ele>318.3333333333333</ele><time>2026-05-01T15:07:24Z</time></trkpt><trkpt lat="40.817252013906725" lon="9.318716379015743"><ele>321.0</ele><time>2026-05-01T15:07:25Z</time></trkpt><trkpt lat="40.817435645819444" lon="9.3187584814391"><ele>321.0</ele><time>2026-05-01T15:07:26Z</time></trkpt><trkpt lat="40.817608898712116" lon="9.318772731125643"><ele>321.0</ele><time>2026-05-01T15:07:27Z</time></trkpt><trkpt lat="40.817780434337045" lon="9.318784338762317"><ele>321.0</ele><time>2026-05-01T15:07:28Z</time></trkpt><trkpt lat="40.81794412431133" lon="9.318773151231124"><ele>321.0</ele><time>2026-05-01T15:07:29Z</time></trkpt><trkpt lat="40.81810219961061" lon="9.31878120717341"><ele>321.0</ele><time>2026-05-01T15:07:30Z</time></trkpt><trkpt lat="40.818261746836136" lon="9.318793115261538"><ele>321.0</ele><time>2026-05-01T15:07:31Z</time></trkpt><trkpt lat="40.81842392787891" lon="9.31879813006019"><ele>320.3333333333333</ele><time>2026-05-01T15:07:32Z</time></trkpt><trkpt lat="40.818583848008565" lon="9.31880775430143"><ele>319.66666666666663</ele><time>2026-05-01T15:07:33Z</time></trkpt><trkpt lat="40.81873789903609" lon="9.318815525969436"><ele>319.0</ele><time>2026-05-01T15:07:34Z</time></trkpt><trkpt lat="40.81888940003021" lon="9.3188196544364"><ele>319.0</ele><time>2026-05-01T15:07:35Z</time></trkpt><trkpt lat="40.81904254947139" lon="9.318827169029513"><ele>319.0</ele><time>2026-05-01T15:07:36Z</time></trkpt><trkpt lat="40.81920012069745" lon="9.318838440697677"><ele>319.0</ele><time>2026-05-01T15:07:37Z</time></trkpt><trkpt lat="40.81936410175859" lon="9.318849650693368"><ele>318.3333333333333</ele><time>2026-05-01T15:07:38Z</time></trkpt><trkpt lat="40.81953463504049" lon="9.318868798553352"><ele>317.6666666666667</ele><time>2026-05-01T15:07:39Z</time></trkpt><trkpt lat="40.81971103145194" lon="9.318911264207973"><ele>317.0</ele><time>2026-05-01T15:07:40Z</time></trkpt><trkpt lat="40.819893072422275" lon="9.31898242544023"><ele>317.33333333333337</ele><time>2026-05-01T15:07:41Z</time></trkpt><trkpt lat="40.82008070588427" lon="9.319067856838467"><ele>317.6666666666667</ele><time>2026-05-01T15:07:42Z</time></trkpt><trkpt lat="40.820277928900424" lon="9.319155730811985"><ele>318.0</ele><time>2026-05-01T15:07:43Z</time></trkpt><trkpt lat="40.82047764655567" lon="9.319243217185724"><ele>318.0</ele><time>2026-05-01T15:07:44Z</time></trkpt><trkpt lat="40.82067935742306" lon="9.319324641283155"><ele>318.0</ele><time>2026-05-01T15:07:45Z</time></trkpt><trkpt lat="40.82086792820449" lon="9.319398360318196"><ele>318.0</ele><time>2026-05-01T15:07:46Z</time></trkpt><trkpt lat="40.82104699983197" lon="9.319467172416356"><ele>316.6666666666667</ele><time>2026-05-01T15:07:47Z</time></trkpt><trkpt lat="40.82123398610016" lon="9.319514795338117"><ele>315.33333333333337</ele><time>2026-05-01T15:07:48Z</time></trkpt><trkpt lat="40.82143066690982" lon="9.319507656330723"><ele>314.0</ele><time>2026-05-01T15:07:49Z</time></trkpt><trkpt lat="40.82162547313145" lon="9.31944465198874"><ele>312.6666666666667</ele><time>2026-05-01T15:07:50Z</time></trkpt><trkpt lat="40.8218223111373" lon="9.319353709108778"><ele>311.3333333333333</ele><time>2026-05-01T15:07:51Z</time></trkpt><trkpt lat="40.822021115749955" lon="9.319255946824846"><ele>310.0</ele><time>2026-05-01T15:07:52Z</time></trkpt><trkpt lat="40.82222217868737" lon="9.31915786598734"><ele>310.0</ele><time>2026-05-01T15:07:53Z</time></trkpt><trkpt lat="40.82242793398242" lon="9.319064780409862"><ele>310.0</ele><time>2026-05-01T15:07:54Z</time></trkpt><trkpt lat="40.822635871971855" lon="9.3189769280799"><ele>310.0</ele><time>2026-05-01T15:07:55Z</time></trkpt><trkpt lat="40.82284572396247" lon="9.31888376993335"><ele>308.0</ele><time>2026-05-01T15:07:56Z</time></trkpt><trkpt lat="40.82304938666321" lon="9.318786967370766"><ele>306.0</ele><time>2026-05-01T15:07:57Z</time></trkpt><trkpt lat="40.823235758580886" lon="9.318698118062697"><ele>304.0</ele><time>2026-05-01T15:07:58Z</time></trkpt><trkpt lat="40.82340483500362" lon="9.318630403930024"><ele>301.75</ele><time>2026-05-01T15:07:59Z</time></trkpt><trkpt lat="40.82355339259252" lon="9.318598958991412"><ele>299.5</ele><time>2026-05-01T15:08:00Z</time></trkpt><trkpt lat="40.823694975435856" lon="9.318617907478178"><ele>297.25</ele><time>2026-05-01T15:08:01Z</time></trkpt><trkpt lat="40.82380935895155" lon="9.31871675407243"><ele>295.0</ele><time>2026-05-01T15:08:02Z</time></trkpt><trkpt lat="40.82388993242961" lon="9.31885504340116"><ele>296.66666666666663</ele><time>2026-05-01T15:08:03Z</time></trkpt><trkpt lat="40.823961105730646" lon="9.31904322606805"><ele>298.3333333333333</ele><time>2026-05-01T15:08:04Z</time></trkpt><trkpt lat="40.82404385054983" lon="9.319263594717459"><ele>300.0</ele><time>2026-05-01T15:08:05Z</time></trkpt><trkpt lat="40.82412476890872" lon="9.319522674027771"><ele>299.6666666666667</ele><time>2026-05-01T15:08:06Z</time></trkpt><trkpt lat="40.824216428862194" lon="9.319790684872359"><ele>299.33333333333337</ele><time>2026-05-01T15:08:07Z</time></trkpt><trkpt lat="40.824304769826846" lon="9.320045727647496"><ele>299.0</ele><time>2026-05-01T15:08:08Z</time></trkpt><trkpt lat="40.82438090107135" lon="9.320279078985868"><ele>296.33333333333337</ele><time>2026-05-01T15:08:09Z</time></trkpt><trkpt lat="40.82444679528566" lon="9.320499468772924"><ele>293.6666666666667</ele><time>2026-05-01T15:08:10Z</time></trkpt><trkpt lat="40.82450573368641" lon="9.320711320024516"><ele>291.0</ele><time>2026-05-01T15:08:11Z</time></trkpt><trkpt lat="40.82455731219023" lon="9.320909597014351"><ele>291.0</ele><time>2026-05-01T15:08:12Z</time></trkpt><trkpt lat="40.824606007306" lon="9.321108955923906"><ele>291.0</ele><time>2026-05-01T15:08:13Z</time></trkpt><trkpt lat="40.82464340321234" lon="9.321315531318627"><ele>291.0</ele><time>2026-05-01T15:08:14Z</time></trkpt><trkpt lat="40.82467880482497" lon="9.321496732777874"><ele>291.5</ele><time>2026-05-01T15:08:15Z</time></trkpt><trkpt lat="40.82470855457159" lon="9.321673666026344"><ele>292.0</ele><time>2026-05-01T15:08:16Z</time></trkpt><trkpt lat="40.82474310996875" lon="9.321837553881496"><ele>292.5</ele><time>2026-05-01T15:08:17Z</time></trkpt><trkpt lat="40.82477288316963" lon="9.321995464720437"><ele>293.0</ele><time>2026-05-01T15:08:18Z</time></trkpt><trkpt lat="40.82478792795211" lon="9.322144974668342"><ele>293.2</ele><time>2026-05-01T15:08:19Z</time></trkpt><trkpt lat="40.82476571353848" lon="9.322276867103355"><ele>293.4</ele><time>2026-05-01T15:08:20Z</time></trkpt><trkpt lat="40.82473848887133" lon="9.322417203249275"><ele>293.59999999999997</ele><time>2026-05-01T15:08:21Z</time></trkpt><trkpt lat="40.824766383990536" lon="9.322527506208731"><ele>293.8</ele><time>2026-05-01T15:08:22Z</time></trkpt><trkpt lat="40.82483112762105" lon="9.322645766514755"><ele>294.0</ele><time>2026-05-01T15:08:23Z</time></trkpt><trkpt lat="40.82492021865197" lon="9.322681781773012"><ele>294.0</ele><time>2026-05-01T15:08:24Z</time></trkpt><trkpt lat="40.8250216443079" lon="9.322654633229392"><ele>294.0</ele><time>2026-05-01T15:08:25Z</time></trkpt><trkpt lat="40.825107435933774" lon="9.322565149189035"><ele>294.0</ele><time>2026-05-01T15:08:26Z</time></trkpt><trkpt lat="40.82517465293033" lon="9.322438376561937"><ele>294.0</ele><time>2026-05-01T15:08:27Z</time></trkpt><trkpt lat="40.82526627635691" lon="9.322335590859051"><ele>293.0</ele><time>2026-05-01T15:08:28Z</time></trkpt><trkpt lat="40.825400015653145" lon="9.32227693074241"><ele>292.0</ele><time>2026-05-01T15:08:29Z</time></trkpt><trkpt lat="40.82557335847454" lon="9.322230400062468"><ele>291.0</ele><time>2026-05-01T15:08:30Z</time></trkpt><trkpt lat="40.825743052848516" lon="9.32214675501941"><ele>289.6666666666667</ele><time>2026-05-01T15:08:31Z</time></trkpt><trkpt lat="40.82591758110626" lon="9.322070784431334"><ele>288.33333333333337</ele><time>2026-05-01T15:08:32Z</time></trkpt><trkpt lat="40.8261050436862" lon="9.321986718268558"><ele>287.0</ele><time>2026-05-01T15:08:33Z</time></trkpt><trkpt lat="40.826299706128815" lon="9.321919774873994"><ele>286.6666666666667</ele><time>2026-05-01T15:08:34Z</time></trkpt><trkpt lat="40.82646704462943" lon="9.32184528701853"><ele>286.3333333333333</ele><time>2026-05-01T15:08:35Z</time></trkpt><trkpt lat="40.826613703590496" lon="9.321753670360902"><ele>286.0</ele><time>2026-05-01T15:08:36Z</time></trkpt><trkpt lat="40.82673140205373" lon="9.321643545752252"><ele>286.0</ele><time>2026-05-01T15:08:37Z</time></trkpt><trkpt lat="40.82683457663923" lon="9.321524970681047"><ele>286.0</ele><time>2026-05-01T15:08:38Z</time></trkpt><trkpt lat="40.82692682635251" lon="9.32142017548967"><ele>286.0</ele><time>2026-05-01T15:08:39Z</time></trkpt><trkpt lat="40.82701800611763" lon="9.321323184666344"><ele>286.0</ele><time>2026-05-01T15:08:40Z</time></trkpt><trkpt lat="40.82712578586867" lon="9.32126539620015"><ele>286.0</ele><time>2026-05-01T15:08:41Z</time></trkpt><trkpt lat="40.827247566361976" lon="9.32119823111204"><ele>286.0</ele><time>2026-05-01T15:08:42Z</time></trkpt><trkpt lat="40.82737648678217" lon="9.321126291266658"><ele>286.0</ele><time>2026-05-01T15:08:43Z</time></trkpt><trkpt lat="40.82752569400641" lon="9.321073946988431"><ele>286.0</ele><time>2026-05-01T15:08:44Z</time></trkpt><trkpt lat="40.82768929737236" lon="9.321026789579774"><ele>287.3333333333333</ele><time>2026-05-01T15:08:45Z</time></trkpt><trkpt lat="40.82786565267996" lon="9.320972105014713"><ele>288.6666666666667</ele><time>2026-05-01T15:08:46Z</time></trkpt><trkpt lat="40.82803869018442" lon="9.320919864844294"><ele>290.0</ele><time>2026-05-01T15:08:47Z</time></trkpt><trkpt lat="40.82820482702053" lon="9.320871285735336"><ele>290.0</ele><time>2026-05-01T15:08:48Z</time></trkpt><trkpt lat="40.82835546873166" lon="9.320824616532256"><ele>290.0</ele><time>2026-05-01T15:08:49Z</time></trkpt><trkpt lat="40.82849186573203" lon="9.32078104740348"><ele>290.0</ele><time>2026-05-01T15:08:50Z</time></trkpt><trkpt lat="40.828618930608926" lon="9.320744789707438"><ele>290.0</ele><time>2026-05-01T15:08:51Z</time></trkpt><trkpt lat="40.828736912751616" lon="9.320718854273721"><ele>290.5</ele><time>2026-05-01T15:08:52Z</time></trkpt><trkpt lat="40.82885284457699" lon="9.320695893524945"><ele>291.0</ele><time>2026-05-01T15:08:53Z</time></trkpt><trkpt lat="40.82897133498548" lon="9.32068325111626"><ele>291.5</ele><time>2026-05-01T15:08:54Z</time></trkpt><trkpt lat="40.8291219102454" lon="9.320586926974682"><ele>292.0</ele><time>2026-05-01T15:08:55Z</time></trkpt><trkpt lat="40.82926605984032" lon="9.320550175811094"><ele>292.66666666666663</ele><time>2026-05-01T15:08:56Z</time></trkpt><trkpt lat="40.829416105125766" lon="9.320512020665875"><ele>293.3333333333333</ele><time>2026-05-01T15:08:57Z</time></trkpt><trkpt lat="40.829576608443006" lon="9.320511546869094"><ele>294.0</ele><time>2026-05-01T15:08:58Z</time></trkpt><trkpt lat="40.82974130679471" lon="9.320517576001324"><ele>294.0</ele><time>2026-05-01T15:08:59Z</time></trkpt><trkpt lat="40.82991556699546" lon="9.320533231618002"><ele>294.0</ele><time>2026-05-01T15:09:00Z</time></trkpt><trkpt lat="40.830094195705705" lon="9.320547785608372"><ele>294.0</ele><time>2026-05-01T15:09:01Z</time></trkpt><trkpt lat="40.83026332919535" lon="9.320536863685856"><ele>293.6666666666667</ele><time>2026-05-01T15:09:02Z</time></trkpt><trkpt lat="40.83041983311183" lon="9.320512856926117"><ele>293.33333333333337</ele><time>2026-05-01T15:09:03Z</time></trkpt><trkpt lat="40.83057140922393" lon="9.32045293888433"><ele>293.0</ele><time>2026-05-01T15:09:04Z</time></trkpt><trkpt lat="40.83069831043572" lon="9.320328949290221"><ele>293.0</ele><time>2026-05-01T15:09:05Z</time></trkpt><trkpt lat="40.83081834138333" lon="9.320161632909652"><ele>293.0</ele><time>2026-05-01T15:09:06Z</time></trkpt><trkpt lat="40.83094145403776" lon="9.319959552425242"><ele>293.0</ele><time>2026-05-01T15:09:07Z</time></trkpt><trkpt lat="40.831065473985326" lon="9.319738555063275"><ele>293.33333333333337</ele><time>2026-05-01T15:09:08Z</time></trkpt><trkpt lat="40.83119932211666" lon="9.31951152111668"><ele>293.6666666666667</ele><time>2026-05-01T15:09:09Z</time></trkpt><trkpt lat="40.83134298629852" lon="9.319275169955727"><ele>294.0</ele><time>2026-05-01T15:09:10Z</time></trkpt><trkpt lat="40.83149374138701" lon="9.319035488727263"><ele>295.0</ele><time>2026-05-01T15:09:11Z</time></trkpt><trkpt lat="40.83164457423828" lon="9.318791914148266"><ele>296.0</ele><time>2026-05-01T15:09:12Z</time></trkpt><trkpt lat="40.83179558957533" lon="9.318552379336325"><ele>298.5</ele><time>2026-05-01T15:09:13Z</time></trkpt><trkpt lat="40.83194714670783" lon="9.318305979703272"><ele>301.0</ele><time>2026-05-01T15:09:14Z</time></trkpt><trkpt lat="40.832109695711374" lon="9.318057290062711"><ele>301.0</ele><time>2026-05-01T15:09:15Z</time></trkpt><trkpt lat="40.83226656797224" lon="9.317796117227257"><ele>301.0</ele><time>2026-05-01T15:09:16Z</time></trkpt><trkpt lat="40.83244132825385" lon="9.317507124896107"><ele>301.0</ele><time>2026-05-01T15:09:17Z</time></trkpt><trkpt lat="40.83260510624897" lon="9.317247347341462"><ele>301.0</ele><time>2026-05-01T15:09:18Z</time></trkpt><trkpt lat="40.83277225447617" lon="9.316983699938271"><ele>303.0</ele><time>2026-05-01T15:09:19Z</time></trkpt><trkpt lat="40.83293780254538" lon="9.316728680144937"><ele>305.0</ele><time>2026-05-01T15:09:20Z</time></trkpt><trkpt lat="40.83310217542091" lon="9.316480732752817"><ele>307.0</ele><time>2026-05-01T15:09:21Z</time></trkpt><trkpt lat="40.83325268350844" lon="9.316239415508687"><ele>309.0</ele><time>2026-05-01T15:09:22Z</time></trkpt><trkpt lat="40.83339990456083" lon="9.316011445226069"><ele>310.5</ele><time>2026-05-01T15:09:23Z</time></trkpt><trkpt lat="40.8335449974195" lon="9.315778029986083"><ele>312.0</ele><time>2026-05-01T15:09:24Z</time></trkpt><trkpt lat="40.83369508152873" lon="9.315537015576977"><ele>312.5</ele><time>2026-05-01T15:09:25Z</time></trkpt><trkpt lat="40.833846489611176" lon="9.315299135455364"><ele>313.0</ele><time>2026-05-01T15:09:26Z</time></trkpt><trkpt lat="40.8339984099297" lon="9.315062423282447"><ele>313.0</ele><time>2026-05-01T15:09:27Z</time></trkpt><trkpt lat="40.83415243499361" lon="9.314826478994647"><ele>313.0</ele><time>2026-05-01T15:09:28Z</time></trkpt><trkpt lat="40.83430113423585" lon="9.314590364905415"><ele>316.0</ele><time>2026-05-01T15:09:29Z</time></trkpt><trkpt lat="40.83445887805557" lon="9.31435759398604"><ele>319.0</ele><time>2026-05-01T15:09:30Z</time></trkpt><trkpt lat="40.83460194998148" lon="9.314116544380084"><ele>318.0</ele><time>2026-05-01T15:09:31Z</time></trkpt><trkpt lat="40.834747123890445" lon="9.313886180253144"><ele>317.0</ele><time>2026-05-01T15:09:32Z</time></trkpt><trkpt lat="40.834876089969214" lon="9.313679862809215"><ele>316.0</ele><time>2026-05-01T15:09:33Z</time></trkpt><trkpt lat="40.835016133236074" lon="9.313525808201458"><ele>317.0</ele><time>2026-05-01T15:09:34Z</time></trkpt><trkpt lat="40.8351677326385" lon="9.313423658481229"><ele>318.0</ele><time>2026-05-01T15:09:35Z</time></trkpt><trkpt lat="40.8353193727129" lon="9.313350640304902"><ele>319.0</ele><time>2026-05-01T15:09:36Z</time></trkpt><trkpt lat="40.83548390608758" lon="9.313390658438164"><ele>319.0</ele><time>2026-05-01T15:09:37Z</time></trkpt><trkpt lat="40.835647220284656" lon="9.31344982502535"><ele>319.0</ele><time>2026-05-01T15:09:38Z</time></trkpt><trkpt lat="40.83579570745675" lon="9.313581500424366"><ele>319.0</ele><time>2026-05-01T15:09:39Z</time></trkpt><trkpt lat="40.8359423186595" lon="9.313760035160474"><ele>320.66666666666663</ele><time>2026-05-01T15:09:40Z</time></trkpt><trkpt lat="40.836079622007624" lon="9.313964457842399"><ele>322.3333333333333</ele><time>2026-05-01T15:09:41Z</time></trkpt><trkpt lat="40.83623664177721" lon="9.314166034636107"><ele>324.0</ele><time>2026-05-01T15:09:42Z</time></trkpt><trkpt lat="40.836398216782705" lon="9.314374512320873"><ele>324.0</ele><time>2026-05-01T15:09:43Z</time></trkpt><trkpt lat="40.836546348526895" lon="9.314561559730485"><ele>324.0</ele><time>2026-05-01T15:09:44Z</time></trkpt><trkpt lat="40.836681556638204" lon="9.314734031599768"><ele>324.0</ele><time>2026-05-01T15:09:45Z</time></trkpt><trkpt lat="40.83681096362366" lon="9.314897383330464"><ele>324.3333333333333</ele><time>2026-05-01T15:09:46Z</time></trkpt><trkpt lat="40.836946442442446" lon="9.315069984500528"><ele>324.66666666666663</ele><time>2026-05-01T15:09:47Z</time></trkpt><trkpt lat="40.83708475570665" lon="9.315238094249962"><ele>325.0</ele><time>2026-05-01T15:09:48Z</time></trkpt><trkpt lat="40.837227808504316" lon="9.315429353376736"><ele>325.3333333333333</ele><time>2026-05-01T15:09:49Z</time></trkpt><trkpt lat="40.83737504144114" lon="9.31561762259373"><ele>325.6666666666667</ele><time>2026-05-01T15:09:50Z</time></trkpt><trkpt lat="40.83752985277434" lon="9.315791128187838"><ele>326.0</ele><time>2026-05-01T15:09:51Z</time></trkpt><trkpt lat="40.83768296641063" lon="9.31592879777769"><ele>326.6666666666667</ele><time>2026-05-01T15:09:52Z</time></trkpt><trkpt lat="40.83784846964824" lon="9.316050352914669"><ele>327.3333333333333</ele><time>2026-05-01T15:09:53Z</time></trkpt><trkpt lat="40.83801007394575" lon="9.316183095488897"><ele>328.0</ele><time>2026-05-01T15:09:54Z</time></trkpt><trkpt lat="40.838230501911596" lon="9.316169455337075"><ele>328.0</ele><time>2026-05-01T15:09:55Z</time></trkpt><trkpt lat="40.838401614850596" lon="9.316208820213511"><ele>328.0</ele><time>2026-05-01T15:09:56Z</time></trkpt><trkpt lat="40.83855488259925" lon="9.316216582116134"><ele>328.0</ele><time>2026-05-01T15:09:57Z</time></trkpt><trkpt lat="40.838701393036125" lon="9.316157007463795"><ele>330.66666666666663</ele><time>2026-05-01T15:09:58Z</time></trkpt><trkpt lat="40.83883833474244" lon="9.316022074359209"><ele>333.3333333333333</ele><time>2026-05-01T15:09:59Z</time></trkpt><trkpt lat="40.838955593470246" lon="9.315840202622041"><ele>336.0</ele><time>2026-05-01T15:10:00Z</time></trkpt><trkpt lat="40.83906646571805" lon="9.315670564833603"><ele>336.0</ele><time>2026-05-01T15:10:01Z</time></trkpt><trkpt lat="40.8391747996422" lon="9.315573698161698"><ele>336.0</ele><time>2026-05-01T15:10:02Z</time></trkpt><trkpt lat="40.839301654276895" lon="9.315555504751522"><ele>336.0</ele><time>2026-05-01T15:10:03Z</time></trkpt><trkpt lat="40.83944106945515" lon="9.315616931929872"><ele>336.0</ele><time>2026-05-01T15:10:04Z</time></trkpt><trkpt lat="40.83961446757101" lon="9.315711736955539"><ele>338.3333333333333</ele><time>2026-05-01T15:10:05Z</time></trkpt><trkpt lat="40.83978210365761" lon="9.315795174106356"><ele>340.66666666666663</ele><time>2026-05-01T15:10:06Z</time></trkpt><trkpt lat="40.839953207264394" lon="9.315823623956405"><ele>343.0</ele><time>2026-05-01T15:10:07Z</time></trkpt><trkpt lat="40.840127557203054" lon="9.315833134217899"><ele>343.3333333333333</ele><time>2026-05-01T15:10:08Z</time></trkpt><trkpt lat="40.84029592052311" lon="9.315901170456263"><ele>343.6666666666667</ele><time>2026-05-01T15:10:09Z</time></trkpt><trkpt lat="40.84047354544879" lon="9.316016089599305"><ele>344.0</ele><time>2026-05-01T15:10:10Z</time></trkpt><trkpt lat="40.840658031797474" lon="9.316133078305851"><ele>344.0</ele><time>2026-05-01T15:10:11Z</time></trkpt><trkpt lat="40.840840445051235" lon="9.316239528127987"><ele>344.0</ele><time>2026-05-01T15:10:12Z</time></trkpt><trkpt lat="40.84105591144748" lon="9.31636096486026"><ele>344.0</ele><time>2026-05-01T15:10:13Z</time></trkpt><trkpt lat="40.8412521661578" lon="9.316474013758272"><ele>347.0</ele><time>2026-05-01T15:10:14Z</time></trkpt><trkpt lat="40.841458437820556" lon="9.316597080851132"><ele>350.0</ele><time>2026-05-01T15:10:15Z</time></trkpt><trkpt lat="40.84167202833162" lon="9.316722505104886"><ele>350.5</ele><time>2026-05-01T15:10:16Z</time></trkpt><trkpt lat="40.84188433153652" lon="9.316846226333874"><ele>351.0</ele><time>2026-05-01T15:10:17Z</time></trkpt><trkpt lat="40.84209821542245" lon="9.316959983377977"><ele>351.0</ele><time>2026-05-01T15:10:18Z</time></trkpt><trkpt lat="40.842321801630774" lon="9.317038460007419"><ele>351.0</ele><time>2026-05-01T15:10:19Z</time></trkpt><trkpt lat="40.842557757965224" lon="9.317069970306859"><ele>351.5</ele><time>2026-05-01T15:10:20Z</time></trkpt><trkpt lat="40.84279729145966" lon="9.317075909366627"><ele>352.0</ele><time>2026-05-01T15:10:21Z</time></trkpt><trkpt lat="40.843028014464885" lon="9.317099501984385"><ele>352.0</ele><time>2026-05-01T15:10:22Z</time></trkpt><trkpt lat="40.84325454382757" lon="9.317129448207991"><ele>352.0</ele><time>2026-05-01T15:10:23Z</time></trkpt><trkpt lat="40.84347551861548" lon="9.317158757100282"><ele>353.0</ele><time>2026-05-01T15:10:24Z</time></trkpt><trkpt lat="40.84368752977023" lon="9.317185832637334"><ele>354.0</ele><time>2026-05-01T15:10:25Z</time></trkpt><trkpt lat="40.843883594879614" lon="9.317206574162274"><ele>355.0</ele><time>2026-05-01T15:10:26Z</time></trkpt><trkpt lat="40.84406769345098" lon="9.317229715949315"><ele>356.3333333333333</ele><time>2026-05-01T15:10:27Z</time></trkpt><trkpt lat="40.84425251981866" lon="9.317252411126171"><ele>357.6666666666667</ele><time>2026-05-01T15:10:28Z</time></trkpt><trkpt lat="40.8444480699314" lon="9.31727541497157"><ele>359.0</ele><time>2026-05-01T15:10:29Z</time></trkpt><trkpt lat="40.84464953353515" lon="9.31727877049597"><ele>359.0</ele><time>2026-05-01T15:10:30Z</time></trkpt><trkpt lat="40.84485942673689" lon="9.317255197700858"><ele>359.0</ele><time>2026-05-01T15:10:31Z</time></trkpt><trkpt lat="40.845076033537076" lon="9.317221057848029"><ele>359.0</ele><time>2026-05-01T15:10:32Z</time></trkpt><trkpt lat="40.845291465314155" lon="9.317181490713093"><ele>359.6666666666667</ele><time>2026-05-01T15:10:33Z</time></trkpt><trkpt lat="40.845494950199516" lon="9.31714661143427"><ele>360.3333333333333</ele><time>2026-05-01T15:10:34Z</time></trkpt><trkpt lat="40.84569165628452" lon="9.317115730273837"><ele>361.0</ele><time>2026-05-01T15:10:35Z</time></trkpt><trkpt lat="40.84587120500922" lon="9.317111954907205"><ele>361.0</ele><time>2026-05-01T15:10:36Z</time></trkpt><trkpt lat="40.84604184118191" lon="9.31718366191945"><ele>361.0</ele><time>2026-05-01T15:10:37Z</time></trkpt><trkpt lat="40.8461914267758" lon="9.317288848414854"><ele>361.0</ele><time>2026-05-01T15:10:38Z</time></trkpt><trkpt lat="40.846335040417436" lon="9.317455734305645"><ele>362.3333333333333</ele><time>2026-05-01T15:10:39Z</time></trkpt><trkpt lat="40.84647630564251" lon="9.317628072553326"><ele>363.6666666666667</ele><time>2026-05-01T15:10:40Z</time></trkpt><trkpt lat="40.84658364694731" lon="9.317835976344398"><ele>365.0</ele><time>2026-05-01T15:10:41Z</time></trkpt><trkpt lat="40.84666766760807" lon="9.318055332611577"><ele>365.6666666666667</ele><time>2026-05-01T15:10:42Z</time></trkpt><trkpt lat="40.846733375532736" lon="9.318286844683055"><ele>366.3333333333333</ele><time>2026-05-01T15:10:43Z</time></trkpt><trkpt lat="40.846818528324405" lon="9.318473761321396"><ele>367.0</ele><time>2026-05-01T15:10:44Z</time></trkpt><trkpt lat="40.84690022211633" lon="9.318661523044394"><ele>367.0</ele><time>2026-05-01T15:10:45Z</time></trkpt><trkpt lat="40.84701185828387" lon="9.318833566387378"><ele>367.0</ele><time>2026-05-01T15:10:46Z</time></trkpt><trkpt lat="40.847156319812555" lon="9.318981160495616"><ele>367.0</ele><time>2026-05-01T15:10:47Z</time></trkpt><trkpt lat="40.84734139895183" lon="9.319071883448041"><ele>367.3333333333333</ele><time>2026-05-01T15:10:48Z</time></trkpt><trkpt lat="40.84753981069528" lon="9.319150477202841"><ele>367.6666666666667</ele><time>2026-05-01T15:10:49Z</time></trkpt><trkpt lat="40.84774008319669" lon="9.319227742926914"><ele>368.0</ele><time>2026-05-01T15:10:50Z</time></trkpt><trkpt lat="40.8479381867686" lon="9.319324810835365"><ele>368.6666666666667</ele><time>2026-05-01T15:10:51Z</time></trkpt><trkpt lat="40.84813781445666" lon="9.319423866298113"><ele>369.3333333333333</ele><time>2026-05-01T15:10:52Z</time></trkpt><trkpt lat="40.84832789861396" lon="9.319521485497669"><ele>370.0</ele><time>2026-05-01T15:10:53Z</time></trkpt><trkpt lat="40.84850383575812" lon="9.3196095375641"><ele>370.3333333333333</ele><time>2026-05-01T15:10:54Z</time></trkpt><trkpt lat="40.848668292528735" lon="9.319694836866677"><ele>370.6666666666667</ele><time>2026-05-01T15:10:55Z</time></trkpt><trkpt lat="40.84881875874044" lon="9.319764901446463"><ele>371.0</ele><time>2026-05-01T15:10:56Z</time></trkpt><trkpt lat="40.848960828001466" lon="9.319836135762339"><ele>370.5</ele><time>2026-05-01T15:10:57Z</time></trkpt><trkpt lat="40.84910000743916" lon="9.319906255972983"><ele>370.0</ele><time>2026-05-01T15:10:58Z</time></trkpt><trkpt lat="40.84923669885722" lon="9.319972395878674"><ele>369.5</ele><time>2026-05-01T15:10:59Z</time></trkpt><trkpt lat="40.849374408063525" lon="9.320033015558849"><ele>369.0</ele><time>2026-05-01T15:11:00Z</time></trkpt><trkpt lat="40.849517108370016" lon="9.320096649894182"><ele>368.3333333333333</ele><time>2026-05-01T15:11:01Z</time></trkpt><trkpt lat="40.84966156233729" lon="9.320166019720391"><ele>367.66666666666663</ele><time>2026-05-01T15:11:02Z</time></trkpt><trkpt lat="40.84980988004628" lon="9.320245757411923"><ele>367.0</ele><time>2026-05-01T15:11:03Z</time></trkpt><trkpt lat="40.849966199624845" lon="9.320314125734795"><ele>367.0</ele><time>2026-05-01T15:11:04Z</time></trkpt><trkpt lat="40.85012360405825" lon="9.32038943874516"><ele>367.0</ele><time>2026-05-01T15:11:05Z</time></trkpt><trkpt lat="40.85028371539226" lon="9.320467891170228"><ele>367.0</ele><time>2026-05-01T15:11:06Z</time></trkpt><trkpt lat="40.850446190695344" lon="9.320549220537465"><ele>365.3333333333333</ele><time>2026-05-01T15:11:07Z</time></trkpt><trkpt lat="40.85061059187594" lon="9.32063808180963"><ele>363.6666666666667</ele><time>2026-05-01T15:11:08Z</time></trkpt><trkpt lat="40.85077551422237" lon="9.3207326903665"><ele>362.0</ele><time>2026-05-01T15:11:09Z</time></trkpt><trkpt lat="40.85093872787997" lon="9.320838785946293"><ele>362.33333333333337</ele><time>2026-05-01T15:11:10Z</time></trkpt><trkpt lat="40.85109305555056" lon="9.320956958741009"><ele>362.6666666666667</ele><time>2026-05-01T15:11:11Z</time></trkpt><trkpt lat="40.8512308922001" lon="9.3210870848084"><ele>363.0</ele><time>2026-05-01T15:11:12Z</time></trkpt><trkpt lat="40.85135440983385" lon="9.321196597601377"><ele>363.0</ele><time>2026-05-01T15:11:13Z</time></trkpt><trkpt lat="40.85146071112783" lon="9.32128084960683"><ele>363.0</ele><time>2026-05-01T15:11:14Z</time></trkpt><trkpt lat="40.85154215925913" lon="9.321345013790918"><ele>363.0</ele><time>2026-05-01T15:11:15Z</time></trkpt><trkpt lat="40.851607000778166" lon="9.321384920754552"><ele>363.0</ele><time>2026-05-01T15:11:16Z</time></trkpt><trkpt lat="40.85167776305953" lon="9.321457268324576"><ele>363.0</ele><time>2026-05-01T15:11:18Z</time></trkpt><trkpt lat="40.85175236705185" lon="9.321256345738355"><ele>363.0</ele><time>2026-05-01T15:11:20Z</time></trkpt><trkpt lat="40.851762151253965" lon="9.321140169519255"><ele>363.0</ele><time>2026-05-01T15:11:21Z</time></trkpt><trkpt lat="40.85177382033634" lon="9.32099825933988"><ele>363.0</ele><time>2026-05-01T15:11:22Z</time></trkpt><trkpt lat="40.85178880350864" lon="9.320836827976262"><ele>363.0</ele><time>2026-05-01T15:11:23Z</time></trkpt><trkpt lat="40.85180242661233" lon="9.320671968647185"><ele>363.0</ele><time>2026-05-01T15:11:24Z</time></trkpt><trkpt lat="40.85182374035896" lon="9.32049423165746"><ele>363.3333333333333</ele><time>2026-05-01T15:11:25Z</time></trkpt><trkpt lat="40.851854818116536" lon="9.32030195204993"><ele>363.66666666666663</ele><time>2026-05-01T15:11:26Z</time></trkpt><trkpt lat="40.85190581232214" lon="9.320099871866285"><ele>364.0</ele><time>2026-05-01T15:11:27Z</time></trkpt><trkpt lat="40.851914357401846" lon="9.319877830632949"><ele>364.0</ele><time>2026-05-01T15:11:28Z</time></trkpt><trkpt lat="40.851899325578074" lon="9.319771286561357"><ele>364.0</ele><time>2026-05-01T15:11:29Z</time></trkpt><trkpt lat="40.85191840172443" lon="9.319593315927845"><ele>364.0</ele><time>2026-05-01T15:11:30Z</time></trkpt><trkpt lat="40.85193729182751" lon="9.319408990180538"><ele>364.0</ele><time>2026-05-01T15:11:31Z</time></trkpt><trkpt lat="40.851955792695975" lon="9.31921455162693"><ele>364.0</ele><time>2026-05-01T15:11:32Z</time></trkpt><trkpt lat="40.851973706469856" lon="9.319036154808263"><ele>364.0</ele><time>2026-05-01T15:11:33Z</time></trkpt><trkpt lat="40.85199278270982" lon="9.318841320826374"><ele>364.0</ele><time>2026-05-01T15:11:34Z</time></trkpt><trkpt lat="40.85200386206793" lon="9.318642658689976"><ele>364.0</ele><time>2026-05-01T15:11:35Z</time></trkpt><trkpt lat="40.85204167263597" lon="9.318423611377835"><ele>364.3333333333333</ele><time>2026-05-01T15:11:36Z</time></trkpt><trkpt lat="40.85205013668966" lon="9.318188819455353"><ele>364.6666666666667</ele><time>2026-05-01T15:11:37Z</time></trkpt><trkpt lat="40.85207979087492" lon="9.317949583969598"><ele>365.0</ele><time>2026-05-01T15:11:38Z</time></trkpt><trkpt lat="40.85210912649051" lon="9.317763623936676"><ele>365.33333333333337</ele><time>2026-05-01T15:11:39Z</time></trkpt><trkpt lat="40.852128695891345" lon="9.31754090411082"><ele>365.6666666666667</ele><time>2026-05-01T15:11:40Z</time></trkpt><trkpt lat="40.85214380328774" lon="9.317341072741414"><ele>366.0</ele><time>2026-05-01T15:11:41Z</time></trkpt><trkpt lat="40.8521642444894" lon="9.317141046892525"><ele>366.3333333333333</ele><time>2026-05-01T15:11:42Z</time></trkpt><trkpt lat="40.85218383788442" lon="9.316933716444323"><ele>366.66666666666663</ele><time>2026-05-01T15:11:43Z</time></trkpt><trkpt lat="40.85222036852784" lon="9.31673535049125"><ele>367.0</ele><time>2026-05-01T15:11:44Z</time></trkpt><trkpt lat="40.852244432282106" lon="9.316522852534046"><ele>367.0</ele><time>2026-05-01T15:11:45Z</time></trkpt><trkpt lat="40.852269030352396" lon="9.3163070439273"><ele>367.0</ele><time>2026-05-01T15:11:46Z</time></trkpt><trkpt lat="40.852292272074955" lon="9.316089708410662"><ele>367.0</ele><time>2026-05-01T15:11:47Z</time></trkpt><trkpt lat="40.85229324917635" lon="9.3158772627958"><ele>367.0</ele><time>2026-05-01T15:11:48Z</time></trkpt><trkpt lat="40.852307794533175" lon="9.315663315585224"><ele>367.0</ele><time>2026-05-01T15:11:49Z</time></trkpt><trkpt lat="40.85231977663879" lon="9.315452222575482"><ele>367.0</ele><time>2026-05-01T15:11:50Z</time></trkpt><trkpt lat="40.85234238448805" lon="9.315270652813927"><ele>367.5</ele><time>2026-05-01T15:11:51Z</time></trkpt><trkpt lat="40.85234437247606" lon="9.315103489932868"><ele>368.0</ele><time>2026-05-01T15:11:52Z</time></trkpt><trkpt lat="40.85235992847558" lon="9.31493927434722"><ele>368.5</ele><time>2026-05-01T15:11:53Z</time></trkpt><trkpt lat="40.85238340711017" lon="9.314785651383461"><ele>369.0</ele><time>2026-05-01T15:11:54Z</time></trkpt><trkpt lat="40.85239284408201" lon="9.314629861428612"><ele>369.2</ele><time>2026-05-01T15:11:55Z</time></trkpt><trkpt lat="40.85239905924336" lon="9.314496111711913"><ele>369.4</ele><time>2026-05-01T15:11:56Z</time></trkpt><trkpt lat="40.85238391976808" lon="9.31437477365129"><ele>369.6</ele><time>2026-05-01T15:11:57Z</time></trkpt><trkpt lat="40.85234899403144" lon="9.31427207519238"><ele>369.8</ele><time>2026-05-01T15:11:58Z</time></trkpt><trkpt lat="40.852243805907186" lon="9.314254108673362"><ele>370.0</ele><time>2026-05-01T15:11:59Z</time></trkpt><trkpt lat="40.85214018405119" lon="9.314238017120296"><ele>370.0</ele><time>2026-05-01T15:12:00Z</time></trkpt><trkpt lat="40.852046308594055" lon="9.314181748262289"><ele>370.0</ele><time>2026-05-01T15:12:01Z</time></trkpt><trkpt lat="40.8519651687639" lon="9.314129596966476"><ele>370.0</ele><time>2026-05-01T15:12:02Z</time></trkpt><trkpt lat="40.851920724819344" lon="9.314051757735168"><ele>370.0</ele><time>2026-05-01T15:12:03Z</time></trkpt><trkpt lat="40.85190984465601" lon="9.31394897775068"><ele>370.0</ele><time>2026-05-01T15:12:04Z</time></trkpt><trkpt lat="40.8519122816996" lon="9.313785537080511"><ele>370.0</ele><time>2026-05-01T15:12:05Z</time></trkpt><trkpt lat="40.8518873702131" lon="9.313587664293884"><ele>370.0</ele><time>2026-05-01T15:12:06Z</time></trkpt><trkpt lat="40.85187714690863" lon="9.313374041554603"><ele>370.0</ele><time>2026-05-01T15:12:07Z</time></trkpt><trkpt lat="40.851864915738005" lon="9.313154405969236"><ele>371.0</ele><time>2026-05-01T15:12:08Z</time></trkpt><trkpt lat="40.85185024352515" lon="9.312925265800779"><ele>372.0</ele><time>2026-05-01T15:12:09Z</time></trkpt><trkpt lat="40.85182693689414" lon="9.31271567925669"><ele>373.0</ele><time>2026-05-01T15:12:10Z</time></trkpt><trkpt lat="40.85182854178101" lon="9.312520315504436"><ele>373.0</ele><time>2026-05-01T15:12:11Z</time></trkpt><trkpt lat="40.851800642645756" lon="9.3123321937094"><ele>373.0</ele><time>2026-05-01T15:12:12Z</time></trkpt><trkpt lat="40.8517858039942" lon="9.31215037517957"><ele>373.0</ele><time>2026-05-01T15:12:13Z</time></trkpt><trkpt lat="40.8517677560661" lon="9.311972920785777"><ele>373.0</ele><time>2026-05-01T15:12:14Z</time></trkpt><trkpt lat="40.851782886029476" lon="9.311819628385217"><ele>374.0</ele><time>2026-05-01T15:12:15Z</time></trkpt><trkpt lat="40.85182124026318" lon="9.311689256096003"><ele>375.0</ele><time>2026-05-01T15:12:16Z</time></trkpt><trkpt lat="40.851858486593585" lon="9.31156896055447"><ele>376.0</ele><time>2026-05-01T15:12:17Z</time></trkpt><trkpt lat="40.85188403851265" lon="9.311430836889926"><ele>377.0</ele><time>2026-05-01T15:12:18Z</time></trkpt><trkpt lat="40.85192771015289" lon="9.311283858359445"><ele>378.0</ele><time>2026-05-01T15:12:19Z</time></trkpt><trkpt lat="40.85196292747958" lon="9.311122723316522"><ele>378.75</ele><time>2026-05-01T15:12:20Z</time></trkpt><trkpt lat="40.851987041679166" lon="9.310948387677477"><ele>379.5</ele><time>2026-05-01T15:12:21Z</time></trkpt><trkpt lat="40.85199977740153" lon="9.310774753566314"><ele>380.25</ele><time>2026-05-01T15:12:22Z</time></trkpt><trkpt lat="40.85201795799164" lon="9.31060062432104"><ele>381.0</ele><time>2026-05-01T15:12:23Z</time></trkpt><trkpt lat="40.8519945966098" lon="9.310424781036618"><ele>381.3333333333333</ele><time>2026-05-01T15:12:24Z</time></trkpt><trkpt lat="40.85196251834419" lon="9.31023265408034"><ele>381.66666666666663</ele><time>2026-05-01T15:12:25Z</time></trkpt><trkpt lat="40.85191040361359" lon="9.310025442439418"><ele>382.0</ele><time>2026-05-01T15:12:26Z</time></trkpt><trkpt lat="40.851843920162935" lon="9.309807418850706"><ele>383.0</ele><time>2026-05-01T15:12:27Z</time></trkpt><trkpt lat="40.85178993668272" lon="9.309572271276627"><ele>384.0</ele><time>2026-05-01T15:12:28Z</time></trkpt><trkpt lat="40.85171804174026" lon="9.30934299730366"><ele>385.0</ele><time>2026-05-01T15:12:29Z</time></trkpt><trkpt lat="40.851644914853516" lon="9.309114902180628"><ele>385.33333333333337</ele><time>2026-05-01T15:12:30Z</time></trkpt><trkpt lat="40.85157440540968" lon="9.308889902551647"><ele>385.66666666666663</ele><time>2026-05-01T15:12:31Z</time></trkpt><trkpt lat="40.851509270548" lon="9.308665376515828"><ele>386.0</ele><time>2026-05-01T15:12:32Z</time></trkpt><trkpt lat="40.851444544422684" lon="9.30843795403024"><ele>386.0</ele><time>2026-05-01T15:12:33Z</time></trkpt><trkpt lat="40.85137737084812" lon="9.308203721456387"><ele>386.0</ele><time>2026-05-01T15:12:34Z</time></trkpt><trkpt lat="40.8513093730069" lon="9.307974469401122"><ele>386.0</ele><time>2026-05-01T15:12:35Z</time></trkpt><trkpt lat="40.85124432545809" lon="9.307762222589774"><ele>386.0</ele><time>2026-05-01T15:12:36Z</time></trkpt><trkpt lat="40.85118366886859" lon="9.307585035115498"><ele>386.0</ele><time>2026-05-01T15:12:37Z</time></trkpt><trkpt lat="40.85112573926374" lon="9.307451841963708"><ele>386.0</ele><time>2026-05-01T15:12:38Z</time></trkpt><trkpt lat="40.851034894819485" lon="9.307379675880759"><ele>386.0</ele><time>2026-05-01T15:12:39Z</time></trkpt><trkpt lat="40.85093282853157" lon="9.307332279998102"><ele>386.25</ele><time>2026-05-01T15:12:40Z</time></trkpt><trkpt lat="40.85083324633102" lon="9.307266867664229"><ele>386.5</ele><time>2026-05-01T15:12:41Z</time></trkpt><trkpt lat="40.850822012626004" lon="9.307133316940218"><ele>386.75</ele><time>2026-05-01T15:12:42Z</time></trkpt><trkpt lat="40.85083158646848" lon="9.306984015033292"><ele>387.0</ele><time>2026-05-01T15:12:43Z</time></trkpt><trkpt lat="40.850827504461236" lon="9.30680508421624"><ele>387.0</ele><time>2026-05-01T15:12:44Z</time></trkpt><trkpt lat="40.85082083104239" lon="9.30659250849914"><ele>387.0</ele><time>2026-05-01T15:12:45Z</time></trkpt><trkpt lat="40.85083438376951" lon="9.306377501631845"><ele>387.0</ele><time>2026-05-01T15:12:46Z</time></trkpt><trkpt lat="40.850867606016" lon="9.306184747038754"><ele>386.75</ele><time>2026-05-01T15:12:47Z</time></trkpt><trkpt lat="40.850904498502906" lon="9.30598691549746"><ele>386.5</ele><time>2026-05-01T15:12:48Z</time></trkpt><trkpt lat="40.850940541295756" lon="9.305818438405948"><ele>386.25</ele><time>2026-05-01T15:12:49Z</time></trkpt><trkpt lat="40.851010179146236" lon="9.305642222021891"><ele>386.0</ele><time>2026-05-01T15:12:50Z</time></trkpt><trkpt lat="40.8510834535511" lon="9.305461174752313"><ele>386.66666666666663</ele><time>2026-05-01T15:12:51Z</time></trkpt><trkpt lat="40.85115460257935" lon="9.305274923419958"><ele>387.33333333333337</ele><time>2026-05-01T15:12:52Z</time></trkpt><trkpt lat="40.85122572495404" lon="9.305091818726165"><ele>388.0</ele><time>2026-05-01T15:12:53Z</time></trkpt><trkpt lat="40.85129922805217" lon="9.30490013039189"><ele>388.6666666666667</ele><time>2026-05-01T15:12:54Z</time></trkpt><trkpt lat="40.8513794729969" lon="9.304704006766132"><ele>389.33333333333337</ele><time>2026-05-01T15:12:55Z</time></trkpt><trkpt lat="40.85146419852732" lon="9.304506560590143"><ele>390.0</ele><time>2026-05-01T15:12:56Z</time></trkpt><trkpt lat="40.851548667012" lon="9.304305371996966"><ele>390.0</ele><time>2026-05-01T15:12:57Z</time></trkpt><trkpt lat="40.85162937829196" lon="9.304100616621817"><ele>390.0</ele><time>2026-05-01T15:12:58Z</time></trkpt><trkpt lat="40.85170644539232" lon="9.303894862027372"><ele>390.0</ele><time>2026-05-01T15:12:59Z</time></trkpt><trkpt lat="40.85177720460671" lon="9.303709242283734"><ele>391.33333333333337</ele><time>2026-05-01T15:13:00Z</time></trkpt><trkpt lat="40.85184875385346" lon="9.30353777798079"><ele>392.6666666666667</ele><time>2026-05-01T15:13:01Z</time></trkpt><trkpt lat="40.85192145394029" lon="9.303362929415746"><ele>394.0</ele><time>2026-05-01T15:13:02Z</time></trkpt><trkpt lat="40.851997873029795" lon="9.303186108673888"><ele>395.0</ele><time>2026-05-01T15:13:03Z</time></trkpt><trkpt lat="40.85208561422365" lon="9.30302196410191"><ele>396.0</ele><time>2026-05-01T15:13:04Z</time></trkpt><trkpt lat="40.85218118585769" lon="9.30289598839977"><ele>397.0</ele><time>2026-05-01T15:13:05Z</time></trkpt><trkpt lat="40.852303420110154" lon="9.302842345121801"><ele>398.0</ele><time>2026-05-01T15:13:06Z</time></trkpt><trkpt lat="40.8524374654852" lon="9.30277563860342"><ele>398.0</ele><time>2026-05-01T15:13:07Z</time></trkpt><trkpt lat="40.85257774233087" lon="9.302689101505017"><ele>398.0</ele><time>2026-05-01T15:13:08Z</time></trkpt><trkpt lat="40.85273190406149" lon="9.302631047636366"><ele>398.0</ele><time>2026-05-01T15:13:09Z</time></trkpt><trkpt lat="40.852868813675805" lon="9.302572782302084"><ele>398.5</ele><time>2026-05-01T15:13:10Z</time></trkpt><trkpt lat="40.852991647747544" lon="9.302520358994819"><ele>399.0</ele><time>2026-05-01T15:13:11Z</time></trkpt><trkpt lat="40.85312653433449" lon="9.302470536307855"><ele>399.5</ele><time>2026-05-01T15:13:12Z</time></trkpt><trkpt lat="40.853258615815456" lon="9.302433135367634"><ele>400.0</ele><time>2026-05-01T15:13:13Z</time></trkpt><trkpt lat="40.853378852449985" lon="9.302398457439406"><ele>399.4</ele><time>2026-05-01T15:13:14Z</time></trkpt><trkpt lat="40.85347560381007" lon="9.302349400041704"><ele>398.8</ele><time>2026-05-01T15:13:15Z</time></trkpt><trkpt lat="40.853537600059184" lon="9.302274179864144"><ele>398.20000000000005</ele><time>2026-05-01T15:13:16Z</time></trkpt><trkpt lat="40.85355989833428" lon="9.30217204023096"><ele>397.6</ele><time>2026-05-01T15:13:17Z</time></trkpt><trkpt lat="40.85356332351494" lon="9.302041591620599"><ele>397.0</ele><time>2026-05-01T15:13:18Z</time></trkpt><trkpt lat="40.853553021285734" lon="9.301893591639534"><ele>399.25</ele><time>2026-05-01T15:13:19Z</time></trkpt><trkpt lat="40.8535809528249" lon="9.301724424847222"><ele>401.5</ele><time>2026-05-01T15:13:20Z</time></trkpt><trkpt lat="40.85358016020245" lon="9.301542537695665"><ele>403.75</ele><time>2026-05-01T15:13:21Z</time></trkpt><trkpt lat="40.8536090086406" lon="9.301343910810433"><ele>406.0</ele><time>2026-05-01T15:13:22Z</time></trkpt><trkpt lat="40.85361978638783" lon="9.301118886466082"><ele>408.0</ele><time>2026-05-01T15:13:23Z</time></trkpt><trkpt lat="40.85363706567726" lon="9.300890480713793"><ele>410.0</ele><time>2026-05-01T15:13:24Z</time></trkpt><trkpt lat="40.85366951926271" lon="9.30068369840831"><ele>412.0</ele><time>2026-05-01T15:13:25Z</time></trkpt><trkpt lat="40.85367385511017" lon="9.300525715589313"><ele>413.0</ele><time>2026-05-01T15:13:26Z</time></trkpt><trkpt lat="40.85366722421719" lon="9.300364788454571"><ele>414.0</ele><time>2026-05-01T15:13:27Z</time></trkpt><trkpt lat="40.85365210755243" lon="9.30019608609374"><ele>415.0</ele><time>2026-05-01T15:13:28Z</time></trkpt><trkpt lat="40.85363797521925" lon="9.300029972456775"><ele>416.0</ele><time>2026-05-01T15:13:29Z</time></trkpt><trkpt lat="40.85363211028522" lon="9.299853124008626"><ele>418.0</ele><time>2026-05-01T15:13:30Z</time></trkpt><trkpt lat="40.8536234990123" lon="9.299672176731203"><ele>420.0</ele><time>2026-05-01T15:13:31Z</time></trkpt><trkpt lat="40.85362288890729" lon="9.299500179259859"><ele>422.0</ele><time>2026-05-01T15:13:32Z</time></trkpt><trkpt lat="40.85361581273144" lon="9.299335161068695"><ele>424.0</ele><time>2026-05-01T15:13:33Z</time></trkpt><trkpt lat="40.85360779830512" lon="9.299162982466902"><ele>424.0</ele><time>2026-05-01T15:13:34Z</time></trkpt><trkpt lat="40.853598107875854" lon="9.29898578063831"><ele>424.0</ele><time>2026-05-01T15:13:35Z</time></trkpt><trkpt lat="40.85358574240889" lon="9.29880529812131"><ele>424.0</ele><time>2026-05-01T15:13:36Z</time></trkpt><trkpt lat="40.853565409554584" lon="9.298644815397564"><ele>424.0</ele><time>2026-05-01T15:13:37Z</time></trkpt><trkpt lat="40.85356345069182" lon="9.298469463792152"><ele>424.25</ele><time>2026-05-01T15:13:38Z</time></trkpt><trkpt lat="40.85357031514395" lon="9.29829499143407"><ele>424.5</ele><time>2026-05-01T15:13:39Z</time></trkpt><trkpt lat="40.85356618606677" lon="9.29812663960768"><ele>424.75</ele><time>2026-05-01T15:13:40Z</time></trkpt><trkpt lat="40.853562159116514" lon="9.297959885001948"><ele>425.0</ele><time>2026-05-01T15:13:41Z</time></trkpt><trkpt lat="40.85355787746498" lon="9.297779791632857"><ele>425.0</ele><time>2026-05-01T15:13:42Z</time></trkpt><trkpt lat="40.85355205026556" lon="9.297594976173205"><ele>425.0</ele><time>2026-05-01T15:13:43Z</time></trkpt><trkpt lat="40.853545291746656" lon="9.297412693464892"><ele>425.0</ele><time>2026-05-01T15:13:44Z</time></trkpt><trkpt lat="40.85353851976481" lon="9.297230047670622"><ele>425.0</ele><time>2026-05-01T15:13:45Z</time></trkpt><trkpt lat="40.85353216781828" lon="9.297058730672685"><ele>426.25</ele><time>2026-05-01T15:13:46Z</time></trkpt><trkpt lat="40.85352669443117" lon="9.296867953425885"><ele>427.5</ele><time>2026-05-01T15:13:47Z</time></trkpt><trkpt lat="40.853524557872255" lon="9.296694275694994"><ele>428.75</ele><time>2026-05-01T15:13:48Z</time></trkpt><trkpt lat="40.85352649189063" lon="9.29652626399968"><ele>430.0</ele><time>2026-05-01T15:13:49Z</time></trkpt><trkpt lat="40.85355409527187" lon="9.29637224600684"><ele>431.25</ele><time>2026-05-01T15:13:50Z</time></trkpt><trkpt lat="40.85358110493304" lon="9.296195480798424"><ele>432.5</ele><time>2026-05-01T15:13:51Z</time></trkpt><trkpt lat="40.85360957531836" lon="9.296033039285824"><ele>433.75</ele><time>2026-05-01T15:13:52Z</time></trkpt><trkpt lat="40.85366451641099" lon="9.295868451552472"><ele>435.0</ele><time>2026-05-01T15:13:53Z</time></trkpt><trkpt lat="40.85371797504939" lon="9.29572030627436"><ele>435.25</ele><time>2026-05-01T15:13:54Z</time></trkpt><trkpt lat="40.853774237823224" lon="9.295576748905322"><ele>435.5</ele><time>2026-05-01T15:13:55Z</time></trkpt><trkpt lat="40.853833241184056" lon="9.295436031099914"><ele>435.75</ele><time>2026-05-01T15:13:56Z</time></trkpt><trkpt lat="40.853880382883936" lon="9.2952962489784"><ele>436.0</ele><time>2026-05-01T15:13:57Z</time></trkpt><trkpt lat="40.853926374300585" lon="9.295157587303791"><ele>436.0</ele><time>2026-05-01T15:13:58Z</time></trkpt><trkpt lat="40.85397278659767" lon="9.295030755152764"><ele>436.0</ele><time>2026-05-01T15:13:59Z</time></trkpt><trkpt lat="40.854014221862535" lon="9.294874254075806"><ele>436.0</ele><time>2026-05-01T15:14:00Z</time></trkpt><trkpt lat="40.85405059770081" lon="9.294720465231073"><ele>436.0</ele><time>2026-05-01T15:14:01Z</time></trkpt><trkpt lat="40.85407405542267" lon="9.294642161522694"><ele>436.0</ele><time>2026-05-01T15:14:02Z</time></trkpt><trkpt lat="40.854103003538484" lon="9.29453791252253"><ele>437.25</ele><time>2026-05-01T15:14:03Z</time></trkpt><trkpt lat="40.85414104080015" lon="9.294408780746322"><ele>438.5</ele><time>2026-05-01T15:14:04Z</time></trkpt><trkpt lat="40.85418669191939" lon="9.294259589641173"><ele>439.75</ele><time>2026-05-01T15:14:05Z</time></trkpt><trkpt lat="40.854232095481336" lon="9.294108675956382"><ele>441.0</ele><time>2026-05-01T15:14:06Z</time></trkpt><trkpt lat="40.854339892757594" lon="9.29399552638016"><ele>441.0</ele><time>2026-05-01T15:14:08Z</time></trkpt><trkpt lat="40.854448319921005" lon="9.293932309256443"><ele>441.0</ele><time>2026-05-01T15:14:09Z</time></trkpt><trkpt lat="40.854576316463195" lon="9.29385612639792"><ele>441.0</ele><time>2026-05-01T15:14:10Z</time></trkpt><trkpt lat="40.85471261252061" lon="9.293768471391552"><ele>441.0</ele><time>2026-05-01T15:14:11Z</time></trkpt><trkpt lat="40.85485030294928" lon="9.293695971794454"><ele>441.25</ele><time>2026-05-01T15:14:12Z</time></trkpt><trkpt lat="40.85495232741218" lon="9.293652214997175"><ele>441.5</ele><time>2026-05-01T15:14:13Z</time></trkpt><trkpt lat="40.855077771793866" lon="9.293594672628792"><ele>441.75</ele><time>2026-05-01T15:14:14Z</time></trkpt><trkpt lat="40.855204133712405" lon="9.293564702922453"><ele>442.0</ele><time>2026-05-01T15:14:15Z</time></trkpt><trkpt lat="40.85528794790431" lon="9.293535342336659"><ele>442.0</ele><time>2026-05-01T15:14:16Z</time></trkpt><trkpt lat="40.855365055039655" lon="9.293437108906579"><ele>442.0</ele><time>2026-05-01T15:14:17Z</time></trkpt><trkpt lat="40.85541741042275" lon="9.29329760983966"><ele>442.0</ele><time>2026-05-01T15:14:18Z</time></trkpt><trkpt lat="40.85548804875038" lon="9.293163995421663"><ele>442.0</ele><time>2026-05-01T15:14:19Z</time></trkpt><trkpt lat="40.855579261382765" lon="9.293058048877713"><ele>441.75</ele><time>2026-05-01T15:14:20Z</time></trkpt><trkpt lat="40.855673731249055" lon="9.29294097424788"><ele>441.5</ele><time>2026-05-01T15:14:21Z</time></trkpt><trkpt lat="40.85576921505607" lon="9.292826511061701"><ele>441.25</ele><time>2026-05-01T15:14:22Z</time></trkpt><trkpt lat="40.85587574863878" lon="9.29270721771529"><ele>441.0</ele><time>2026-05-01T15:14:23Z</time></trkpt><trkpt lat="40.85598295150432" lon="9.29259571758015"><ele>440.0</ele><time>2026-05-01T15:14:24Z</time></trkpt><trkpt lat="40.85609596661648" lon="9.292492735817177"><ele>439.0</ele><time>2026-05-01T15:14:25Z</time></trkpt><trkpt lat="40.85621959619979" lon="9.292391079586881"><ele>438.0</ele><time>2026-05-01T15:14:26Z</time></trkpt><trkpt lat="40.85634323874042" lon="9.292289558592127"><ele>437.0</ele><time>2026-05-01T15:14:27Z</time></trkpt><trkpt lat="40.856470650304" lon="9.29218625639011"><ele>436.25</ele><time>2026-05-01T15:14:28Z</time></trkpt><trkpt lat="40.85658237749404" lon="9.292071854984734"><ele>435.5</ele><time>2026-05-01T15:14:29Z</time></trkpt><trkpt lat="40.85670833645293" lon="9.291990184054548"><ele>434.75</ele><time>2026-05-01T15:14:30Z</time></trkpt><trkpt lat="40.85683367904703" lon="9.291911426199555"><ele>434.0</ele><time>2026-05-01T15:14:31Z</time></trkpt><trkpt lat="40.856957711102204" lon="9.291830285429633"><ele>433.75</ele><time>2026-05-01T15:14:32Z</time></trkpt><trkpt lat="40.85706453687378" lon="9.291736684495348"><ele>433.5</ele><time>2026-05-01T15:14:33Z</time></trkpt><trkpt lat="40.857160049354576" lon="9.291657724964505"><ele>433.25</ele><time>2026-05-01T15:14:34Z</time></trkpt><trkpt lat="40.8572584232157" lon="9.291575453598886"><ele>433.0</ele><time>2026-05-01T15:14:35Z</time></trkpt><trkpt lat="40.85736597399468" lon="9.29148550747698"><ele>433.25</ele><time>2026-05-01T15:14:36Z</time></trkpt><trkpt lat="40.85747123981747" lon="9.291397472622476"><ele>433.5</ele><time>2026-05-01T15:14:37Z</time></trkpt><trkpt lat="40.85758590535167" lon="9.291305079913895"><ele>433.75</ele><time>2026-05-01T15:14:38Z</time></trkpt><trkpt lat="40.857709131746546" lon="9.291232571755854"><ele>434.0</ele><time>2026-05-01T15:14:39Z</time></trkpt><trkpt lat="40.85783571713805" lon="9.291171610599"><ele>433.5</ele><time>2026-05-01T15:14:40Z</time></trkpt><trkpt lat="40.85797102951474" lon="9.291111371582776"><ele>433.0</ele><time>2026-05-01T15:14:41Z</time></trkpt><trkpt lat="40.85810642872249" lon="9.291053868288177"><ele>432.5</ele><time>2026-05-01T15:14:42Z</time></trkpt><trkpt lat="40.858242746750676" lon="9.290995885428709"><ele>432.0</ele><time>2026-05-01T15:14:43Z</time></trkpt><trkpt lat="40.85838212602339" lon="9.290944698606959"><ele>433.0</ele><time>2026-05-01T15:14:44Z</time></trkpt><trkpt lat="40.858529622266104" lon="9.290921136139788"><ele>434.0</ele><time>2026-05-01T15:14:45Z</time></trkpt><trkpt lat="40.858671618223184" lon="9.290890328860128"><ele>435.0</ele><time>2026-05-01T15:14:46Z</time></trkpt><trkpt lat="40.85880472065639" lon="9.290853013798769"><ele>436.0</ele><time>2026-05-01T15:14:47Z</time></trkpt><trkpt lat="40.858914744689514" lon="9.290833869886425"><ele>436.0</ele><time>2026-05-01T15:14:48Z</time></trkpt><trkpt lat="40.85900738497656" lon="9.2907976655426"><ele>436.0</ele><time>2026-05-01T15:14:49Z</time></trkpt><trkpt lat="40.85908794285701" lon="9.290736637864452"><ele>436.0</ele><time>2026-05-01T15:14:50Z</time></trkpt><trkpt lat="40.85913499074089" lon="9.290590705912516"><ele>436.0</ele><time>2026-05-01T15:14:51Z</time></trkpt><trkpt lat="40.859179845689916" lon="9.290429345307848"><ele>436.0</ele><time>2026-05-01T15:14:52Z</time></trkpt><trkpt lat="40.85918936333984" lon="9.29022793755905"><ele>436.6666666666667</ele><time>2026-05-01T15:14:53Z</time></trkpt><trkpt lat="40.85918754161184" lon="9.2900092389724"><ele>437.33333333333337</ele><time>2026-05-01T15:14:54Z</time></trkpt><trkpt lat="40.859187992398724" lon="9.289789877491003"><ele>438.0</ele><time>2026-05-01T15:14:55Z</time></trkpt><trkpt lat="40.85918988679481" lon="9.289569406625516"><ele>438.33333333333337</ele><time>2026-05-01T15:14:56Z</time></trkpt><trkpt lat="40.85919306538437" lon="9.289347165371245"><ele>438.6666666666667</ele><time>2026-05-01T15:14:57Z</time></trkpt><trkpt lat="40.85919866251753" lon="9.289141938170005"><ele>439.0</ele><time>2026-05-01T15:14:58Z</time></trkpt><trkpt lat="40.85920629420377" lon="9.288945507672627"><ele>439.25</ele><time>2026-05-01T15:14:59Z</time></trkpt><trkpt lat="40.85921426946908" lon="9.288791867066474"><ele>439.5</ele><time>2026-05-01T15:15:00Z</time></trkpt><trkpt lat="40.85923381333852" lon="9.288624245761786"><ele>439.75</ele><time>2026-05-01T15:15:01Z</time></trkpt><trkpt lat="40.85927325978255" lon="9.288452329664445"><ele>440.0</ele><time>2026-05-01T15:15:02Z</time></trkpt><trkpt lat="40.85932542316713" lon="9.288287617217541"><ele>443.3333333333333</ele><time>2026-05-01T15:15:03Z</time></trkpt><trkpt lat="40.85939749555018" lon="9.288102004650067"><ele>446.66666666666663</ele><time>2026-05-01T15:15:04Z</time></trkpt><trkpt lat="40.85947829616846" lon="9.287907694875535"><ele>450.0</ele><time>2026-05-01T15:15:05Z</time></trkpt><trkpt lat="40.8595595263014" lon="9.28772184659694"><ele>450.25</ele><time>2026-05-01T15:15:06Z</time></trkpt><trkpt lat="40.859655180794526" lon="9.287553827745533"><ele>450.5</ele><time>2026-05-01T15:15:07Z</time></trkpt><trkpt lat="40.85972309610893" lon="9.287378722422424"><ele>450.75</ele><time>2026-05-01T15:15:08Z</time></trkpt><trkpt lat="40.85979860285552" lon="9.287224614301053"><ele>451.0</ele><time>2026-05-01T15:15:09Z</time></trkpt><trkpt lat="40.85988726479271" lon="9.287099149701675"><ele>450.25</ele><time>2026-05-01T15:15:10Z</time></trkpt><trkpt lat="40.86000787460969" lon="9.28698869073563"><ele>449.5</ele><time>2026-05-01T15:15:11Z</time></trkpt><trkpt lat="40.86012561675598" lon="9.286880560965326"><ele>448.75</ele><time>2026-05-01T15:15:12Z</time></trkpt><trkpt lat="40.86020131628885" lon="9.28675014164371"><ele>448.0</ele><time>2026-05-01T15:15:13Z</time></trkpt><trkpt lat="40.86027276176742" lon="9.286574631073877"><ele>450.33333333333337</ele><time>2026-05-01T15:15:14Z</time></trkpt><trkpt lat="40.86035561249343" lon="9.286411324400508"><ele>452.66666666666663</ele><time>2026-05-01T15:15:15Z</time></trkpt><trkpt lat="40.860451265311916" lon="9.286252578353626"><ele>455.0</ele><time>2026-05-01T15:15:16Z</time></trkpt><trkpt lat="40.86056144398591" lon="9.286119109560852"><ele>455.0</ele><time>2026-05-01T15:15:17Z</time></trkpt><trkpt lat="40.860664992060066" lon="9.286009736413968"><ele>455.0</ele><time>2026-05-01T15:15:18Z</time></trkpt><trkpt lat="40.860795823182414" lon="9.285889893232769"><ele>455.0</ele><time>2026-05-01T15:15:19Z</time></trkpt><trkpt lat="40.86092616172225" lon="9.28576601947463"><ele>456.8</ele><time>2026-05-01T15:15:20Z</time></trkpt><trkpt lat="40.8610354967478" lon="9.285692608722112"><ele>458.6</ele><time>2026-05-01T15:15:21Z</time></trkpt><trkpt lat="40.86112101687608" lon="9.28561892281889"><ele>460.4</ele><time>2026-05-01T15:15:22Z</time></trkpt><trkpt lat="40.86115902012047" lon="9.285533551965322"><ele>462.2</ele><time>2026-05-01T15:15:23Z</time></trkpt><trkpt lat="40.8611989792469" lon="9.28541390441637"><ele>464.0</ele><time>2026-05-01T15:15:24Z</time></trkpt><trkpt lat="40.861241486061836" lon="9.285255635733849"><ele>464.3333333333333</ele><time>2026-05-01T15:15:25Z</time></trkpt><trkpt lat="40.86129626152804" lon="9.285071128952984"><ele>464.66666666666663</ele><time>2026-05-01T15:15:26Z</time></trkpt><trkpt lat="40.8613582467466" lon="9.284836402326768"><ele>465.0</ele><time>2026-05-01T15:15:27Z</time></trkpt><trkpt lat="40.86142704827334" lon="9.284619266069955"><ele>465.66666666666663</ele><time>2026-05-01T15:15:28Z</time></trkpt><trkpt lat="40.86150395832593" lon="9.284409425783782"><ele>466.3333333333333</ele><time>2026-05-01T15:15:29Z</time></trkpt><trkpt lat="40.86158605707578" lon="9.284225021922282"><ele>467.0</ele><time>2026-05-01T15:15:30Z</time></trkpt><trkpt lat="40.86168979986079" lon="9.284035494783735"><ele>469.0</ele><time>2026-05-01T15:15:31Z</time></trkpt><trkpt lat="40.86180863351989" lon="9.283846259950282"><ele>471.0</ele><time>2026-05-01T15:15:32Z</time></trkpt><trkpt lat="40.861910086932525" lon="9.283683034161452"><ele>473.0</ele><time>2026-05-01T15:15:33Z</time></trkpt><trkpt lat="40.86199465242495" lon="9.283532400569959"><ele>473.0</ele><time>2026-05-01T15:15:34Z</time></trkpt><trkpt lat="40.862079477078886" lon="9.283394477832543"><ele>473.0</ele><time>2026-05-01T15:15:35Z</time></trkpt><trkpt lat="40.86215346083785" lon="9.28326357265386"><ele>473.0</ele><time>2026-05-01T15:15:36Z</time></trkpt><trkpt lat="40.86223303220129" lon="9.283134974351398"><ele>473.0</ele><time>2026-05-01T15:15:37Z</time></trkpt><trkpt lat="40.86231018521061" lon="9.283010284440792"><ele>473.75</ele><time>2026-05-01T15:15:38Z</time></trkpt><trkpt lat="40.86250884611833" lon="9.282999712052266"><ele>474.5</ele><time>2026-05-01T15:15:39Z</time></trkpt><trkpt lat="40.86262205614997" lon="9.282928899243045"><ele>475.25</ele><time>2026-05-01T15:15:40Z</time></trkpt><trkpt lat="40.862714029192105" lon="9.282847056911535"><ele>476.0</ele><time>2026-05-01T15:15:41Z</time></trkpt><trkpt lat="40.86277134371156" lon="9.282732732686302"><ele>477.5</ele><time>2026-05-01T15:15:42Z</time></trkpt><trkpt lat="40.86280759837871" lon="9.282596425307018"><ele>479.0</ele><time>2026-05-01T15:15:43Z</time></trkpt><trkpt lat="40.86283260916254" lon="9.282432660021074"><ele>480.5</ele><time>2026-05-01T15:15:44Z</time></trkpt><trkpt lat="40.862853269535826" lon="9.282260813173485"><ele>482.0</ele><time>2026-05-01T15:15:45Z</time></trkpt><trkpt lat="40.862884845746265" lon="9.282127086845803"><ele>482.75</ele><time>2026-05-01T15:15:46Z</time></trkpt><trkpt lat="40.86295014308199" lon="9.28202227632512"><ele>483.5</ele><time>2026-05-01T15:15:47Z</time></trkpt><trkpt lat="40.8630500727115" lon="9.281988053082012"><ele>484.25</ele><time>2026-05-01T15:15:48Z</time></trkpt><trkpt lat="40.8631687189724" lon="9.28198991672332"><ele>485.0</ele><time>2026-05-01T15:15:49Z</time></trkpt><trkpt lat="40.86329735629943" lon="9.281993518663478"><ele>485.0</ele><time>2026-05-01T15:15:50Z</time></trkpt><trkpt lat="40.863401000045606" lon="9.28195766741425"><ele>485.0</ele><time>2026-05-01T15:15:51Z</time></trkpt><trkpt lat="40.86349608237388" lon="9.281860080737758"><ele>485.0</ele><time>2026-05-01T15:15:52Z</time></trkpt><trkpt lat="40.86359603230125" lon="9.281738012732507"><ele>485.0</ele><time>2026-05-01T15:15:53Z</time></trkpt><trkpt lat="40.86371139852532" lon="9.281593406825763"><ele>487.3333333333333</ele><time>2026-05-01T15:15:54Z</time></trkpt><trkpt lat="40.86384231143315" lon="9.281435072185284"><ele>489.66666666666663</ele><time>2026-05-01T15:15:55Z</time></trkpt><trkpt lat="40.86398001056852" lon="9.281295358200847"><ele>492.0</ele><time>2026-05-01T15:15:56Z</time></trkpt><trkpt lat="40.86410415665073" lon="9.28116271669691"><ele>493.0</ele><time>2026-05-01T15:15:57Z</time></trkpt><trkpt lat="40.864239347662654" lon="9.281075285120322"><ele>494.0</ele><time>2026-05-01T15:15:58Z</time></trkpt><trkpt lat="40.86437249218071" lon="9.281025022340655"><ele>495.0</ele><time>2026-05-01T15:15:59Z</time></trkpt><trkpt lat="40.86450304198143" lon="9.280982872301607"><ele>496.0</ele><time>2026-05-01T15:16:00Z</time></trkpt><trkpt lat="40.86458198207746" lon="9.280888404279452"><ele>497.5</ele><time>2026-05-01T15:16:01Z</time></trkpt><trkpt lat="40.86467137996727" lon="9.280775313239403"><ele>499.0</ele><time>2026-05-01T15:16:02Z</time></trkpt><trkpt lat="40.864745067253395" lon="9.280625782304543"><ele>500.5</ele><time>2026-05-01T15:16:03Z</time></trkpt><trkpt lat="40.86482444985367" lon="9.280462276115568"><ele>502.0</ele><time>2026-05-01T15:16:04Z</time></trkpt><trkpt lat="40.86490454311611" lon="9.280341107456165"><ele>504.0</ele><time>2026-05-01T15:16:05Z</time></trkpt><trkpt lat="40.86499122001728" lon="9.280267938055129"><ele>506.0</ele><time>2026-05-01T15:16:06Z</time></trkpt><trkpt lat="40.865093691806265" lon="9.28023019686901"><ele>508.0</ele><time>2026-05-01T15:16:07Z</time></trkpt><trkpt lat="40.86523594038265" lon="9.280174343800272"><ele>510.0</ele><time>2026-05-01T15:16:08Z</time></trkpt><trkpt lat="40.86541609775545" lon="9.280088872121146"><ele>510.66666666666663</ele><time>2026-05-01T15:16:09Z</time></trkpt><trkpt lat="40.8655797468306" lon="9.28001264316386"><ele>511.3333333333333</ele><time>2026-05-01T15:16:10Z</time></trkpt><trkpt lat="40.86573787939585" lon="9.279935012658582"><ele>512.0</ele><time>2026-05-01T15:16:11Z</time></trkpt><trkpt lat="40.86587273168681" lon="9.279803933746214"><ele>514.0</ele><time>2026-05-01T15:16:12Z</time></trkpt><trkpt lat="40.865993272733874" lon="9.279644579534466"><ele>516.0</ele><time>2026-05-01T15:16:13Z</time></trkpt><trkpt lat="40.86610705425109" lon="9.279493548281621"><ele>518.0</ele><time>2026-05-01T15:16:14Z</time></trkpt><trkpt lat="40.86621565461502" lon="9.279340450168636"><ele>518.0</ele><time>2026-05-01T15:16:15Z</time></trkpt><trkpt lat="40.8662967322621" lon="9.279155019093928"><ele>518.0</ele><time>2026-05-01T15:16:16Z</time></trkpt><trkpt lat="40.86634127487151" lon="9.278939463992348"><ele>518.0</ele><time>2026-05-01T15:16:17Z</time></trkpt><trkpt lat="40.86637770086177" lon="9.278766399120384"><ele>519.1999999999999</ele><time>2026-05-01T15:16:18Z</time></trkpt><trkpt lat="40.866412189514904" lon="9.278657858753434"><ele>520.4</ele><time>2026-05-01T15:16:19Z</time></trkpt><trkpt lat="40.866450638617266" lon="9.2785762025796"><ele>521.5999999999999</ele><time>2026-05-01T15:16:20Z</time></trkpt><trkpt lat="40.86659041709972" lon="9.278498749397691"><ele>522.8</ele><time>2026-05-01T15:16:22Z</time></trkpt><trkpt lat="40.86670230519099" lon="9.278427530279965"><ele>524.0</ele><time>2026-05-01T15:16:23Z</time></trkpt><trkpt lat="40.866785278309955" lon="9.278317750917035"><ele>524.25</ele><time>2026-05-01T15:16:24Z</time></trkpt><trkpt lat="40.86682997285903" lon="9.278151172230885"><ele>524.5</ele><time>2026-05-01T15:16:25Z</time></trkpt><trkpt lat="40.86689074795397" lon="9.277995854273545"><ele>524.75</ele><time>2026-05-01T15:16:26Z</time></trkpt><trkpt lat="40.86695275030401" lon="9.27783161269407"><ele>525.0</ele><time>2026-05-01T15:16:27Z</time></trkpt><trkpt lat="40.86700186568279" lon="9.277724391631537"><ele>526.0</ele><time>2026-05-01T15:16:28Z</time></trkpt><trkpt lat="40.867066960570654" lon="9.277609674065756"><ele>527.0</ele><time>2026-05-01T15:16:29Z</time></trkpt><trkpt lat="40.867158178371355" lon="9.277484937596945"><ele>528.0</ele><time>2026-05-01T15:16:30Z</time></trkpt><trkpt lat="40.86723980909736" lon="9.277390893500144"><ele>529.0</ele><time>2026-05-01T15:16:31Z</time></trkpt><trkpt lat="40.86732464943612" lon="9.277352542481283"><ele>530.0</ele><time>2026-05-01T15:16:32Z</time></trkpt><trkpt lat="40.867424675866424" lon="9.277322474165388"><ele>530.0</ele><time>2026-05-01T15:16:33Z</time></trkpt><trkpt lat="40.86754011008232" lon="9.277294384137546"><ele>530.0</ele><time>2026-05-01T15:16:34Z</time></trkpt><trkpt lat="40.86765786700604" lon="9.277259769758329"><ele>530.0</ele><time>2026-05-01T15:16:35Z</time></trkpt><trkpt lat="40.86774929075589" lon="9.277160098360245"><ele>530.0</ele><time>2026-05-01T15:16:36Z</time></trkpt><trkpt lat="40.86782879616201" lon="9.277062905145238"><ele>530.0</ele><time>2026-05-01T15:16:37Z</time></trkpt><trkpt lat="40.86792304961443" lon="9.277029357280977"><ele>530.0</ele><time>2026-05-01T15:16:38Z</time></trkpt><trkpt lat="40.86803367267788" lon="9.27704115352745"><ele>530.0</ele><time>2026-05-01T15:16:39Z</time></trkpt><trkpt lat="40.8681477485332" lon="9.277000498334974"><ele>530.0</ele><time>2026-05-01T15:16:40Z</time></trkpt><trkpt lat="40.868256550049274" lon="9.276932146101922"><ele>530.0</ele><time>2026-05-01T15:16:41Z</time></trkpt><trkpt lat="40.86834629283715" lon="9.276833669410621"><ele>530.0</ele><time>2026-05-01T15:16:42Z</time></trkpt><trkpt lat="40.868426305996316" lon="9.276742013525242"><ele>530.0</ele><time>2026-05-01T15:16:43Z</time></trkpt><trkpt lat="40.86847566685961" lon="9.27663483169088"><ele>530.0</ele><time>2026-05-01T15:16:44Z</time></trkpt><trkpt lat="40.868511009458395" lon="9.27651312866305"><ele>530.0</ele><time>2026-05-01T15:16:45Z</time></trkpt><trkpt lat="40.86854315391104" lon="9.27638744675536"><ele>530.0</ele><time>2026-05-01T15:16:46Z</time></trkpt><trkpt lat="40.86858305889445" lon="9.276259548761534"><ele>531.6</ele><time>2026-05-01T15:16:47Z</time></trkpt><trkpt lat="40.86862558798435" lon="9.276136113911594"><ele>533.2</ele><time>2026-05-01T15:16:48Z</time></trkpt><trkpt lat="40.86866555633851" lon="9.276020467067259"><ele>534.8</ele><time>2026-05-01T15:16:49Z</time></trkpt><trkpt lat="40.8687015968841" lon="9.275913916075766"><ele>536.4</ele><time>2026-05-01T15:16:50Z</time></trkpt><trkpt lat="40.868733639209566" lon="9.275809936279158"><ele>538.0</ele><time>2026-05-01T15:16:51Z</time></trkpt><trkpt lat="40.86873478621916" lon="9.275679528563328"><ele>535.5</ele><time>2026-05-01T15:16:52Z</time></trkpt><trkpt lat="40.86874565758817" lon="9.275536190339752"><ele>533.0</ele><time>2026-05-01T15:16:53Z</time></trkpt><trkpt lat="40.86874112326188" lon="9.275371622266581"><ele>530.5</ele><time>2026-05-01T15:16:54Z</time></trkpt><trkpt lat="40.8687368691564" lon="9.275200981387252"><ele>528.0</ele><time>2026-05-01T15:16:55Z</time></trkpt><trkpt lat="40.868732459205845" lon="9.275038172706214"><ele>528.0</ele><time>2026-05-01T15:16:56Z</time></trkpt><trkpt lat="40.868754064263975" lon="9.274881165967484"><ele>528.0</ele><time>2026-05-01T15:16:57Z</time></trkpt><trkpt lat="40.86876934059301" lon="9.274720358171761"><ele>528.0</ele><time>2026-05-01T15:16:58Z</time></trkpt><trkpt lat="40.86881158490851" lon="9.274564922931928"><ele>528.0</ele><time>2026-05-01T15:16:59Z</time></trkpt><trkpt lat="40.86884533950655" lon="9.274413354804956"><ele>526.8</ele><time>2026-05-01T15:17:00Z</time></trkpt><trkpt lat="40.8688759480693" lon="9.27426779015564"><ele>525.5999999999999</ele><time>2026-05-01T15:17:01Z</time></trkpt><trkpt lat="40.86890958365088" lon="9.274129737362044"><ele>524.4000000000001</ele><time>2026-05-01T15:17:02Z</time></trkpt><trkpt lat="40.86894052385437" lon="9.274018660611759"><ele>523.2</ele><time>2026-05-01T15:17:03Z</time></trkpt><trkpt lat="40.86902870314164" lon="9.273965096162268"><ele>522.0</ele><time>2026-05-01T15:17:04Z</time></trkpt><trkpt lat="40.86912393341975" lon="9.273868146939666"><ele>521.5</ele><time>2026-05-01T15:17:05Z</time></trkpt><trkpt lat="40.869233194722824" lon="9.273792655667963"><ele>521.0</ele><time>2026-05-01T15:17:06Z</time></trkpt><trkpt lat="40.869310974332045" lon="9.273683770689187"><ele>520.5</ele><time>2026-05-01T15:17:07Z</time></trkpt><trkpt lat="40.86936238969962" lon="9.273541478156732"><ele>520.0</ele><time>2026-05-01T15:17:08Z</time></trkpt><trkpt lat="40.86939562891986" lon="9.273383555723532"><ele>520.0</ele><time>2026-05-01T15:17:09Z</time></trkpt><trkpt lat="40.869413774492806" lon="9.273198447353833"><ele>520.0</ele><time>2026-05-01T15:17:10Z</time></trkpt><trkpt lat="40.869432161003566" lon="9.272999641708887"><ele>520.0</ele><time>2026-05-01T15:17:11Z</time></trkpt><trkpt lat="40.86943891823455" lon="9.272816196012124"><ele>520.0</ele><time>2026-05-01T15:17:12Z</time></trkpt><trkpt lat="40.86943854018937" lon="9.272653982833308"><ele>519.2</ele><time>2026-05-01T15:17:13Z</time></trkpt><trkpt lat="40.86946520108987" lon="9.272499424757042"><ele>518.4</ele><time>2026-05-01T15:17:14Z</time></trkpt><trkpt lat="40.86948874701233" lon="9.272373912598342"><ele>517.6</ele><time>2026-05-01T15:17:15Z</time></trkpt><trkpt lat="40.86955968597806" lon="9.272274122294547"><ele>516.8</ele><time>2026-05-01T15:17:16Z</time></trkpt><trkpt lat="40.86958279023698" lon="9.272131984523668"><ele>516.0</ele><time>2026-05-01T15:17:17Z</time></trkpt><trkpt lat="40.86962468805783" lon="9.271989064025965"><ele>514.6666666666666</ele><time>2026-05-01T15:17:18Z</time></trkpt><trkpt lat="40.8698981191562" lon="9.271931415015855"><ele>513.3333333333333</ele><time>2026-05-01T15:17:19Z</time></trkpt><trkpt lat="40.87001437452338" lon="9.271792824351266"><ele>512.0</ele><time>2026-05-01T15:17:20Z</time></trkpt><trkpt lat="40.87011183179584" lon="9.271670217965813"><ele>512.0</ele><time>2026-05-01T15:17:21Z</time></trkpt><trkpt lat="40.87020695523342" lon="9.271561578867631"><ele>512.0</ele><time>2026-05-01T15:17:22Z</time></trkpt><trkpt lat="40.87030224294342" lon="9.271451865341824"><ele>512.0</ele><time>2026-05-01T15:17:23Z</time></trkpt><trkpt lat="40.870413023429094" lon="9.271342763384746"><ele>512.0</ele><time>2026-05-01T15:17:24Z</time></trkpt><trkpt lat="40.8705329162917" lon="9.271235482128136"><ele>511.3333333333333</ele><time>2026-05-01T15:17:25Z</time></trkpt><trkpt lat="40.8706643325669" lon="9.27113062043353"><ele>510.66666666666663</ele><time>2026-05-01T15:17:26Z</time></trkpt><trkpt lat="40.87080010641202" lon="9.271012564032727"><ele>510.0</ele><time>2026-05-01T15:17:27Z</time></trkpt><trkpt lat="40.87093917980538" lon="9.270882584784772"><ele>510.33333333333337</ele><time>2026-05-01T15:17:28Z</time></trkpt><trkpt lat="40.87107279481581" lon="9.270730599648932"><ele>510.6666666666667</ele><time>2026-05-01T15:17:29Z</time></trkpt><trkpt lat="40.871205144721756" lon="9.270562989749832"><ele>511.0</ele><time>2026-05-01T15:17:30Z</time></trkpt><trkpt lat="40.87134109435288" lon="9.270386968578759"><ele>511.33333333333337</ele><time>2026-05-01T15:17:31Z</time></trkpt><trkpt lat="40.871469135876474" lon="9.270215521057589"><ele>511.66666666666663</ele><time>2026-05-01T15:17:32Z</time></trkpt><trkpt lat="40.871587679348664" lon="9.27005195711125"><ele>512.0</ele><time>2026-05-01T15:17:33Z</time></trkpt><trkpt lat="40.87170325519093" lon="9.269869796639016"><ele>512.6666666666666</ele><time>2026-05-01T15:17:34Z</time></trkpt><trkpt lat="40.871815166374" lon="9.269670923585318"><ele>513.3333333333334</ele><time>2026-05-01T15:17:35Z</time></trkpt><trkpt lat="40.87191366292227" lon="9.26947319531326"><ele>514.0</ele><time>2026-05-01T15:17:36Z</time></trkpt><trkpt lat="40.87199588058" lon="9.269287559913913"><ele>514.0</ele><time>2026-05-01T15:17:37Z</time></trkpt><trkpt lat="40.87207252981947" lon="9.269116763624641"><ele>514.0</ele><time>2026-05-01T15:17:38Z</time></trkpt><trkpt lat="40.8721520475724" lon="9.268966196620838"><ele>514.0</ele><time>2026-05-01T15:17:39Z</time></trkpt><trkpt lat="40.87222656115223" lon="9.268828501780378"><ele>514.0</ele><time>2026-05-01T15:17:40Z</time></trkpt><trkpt lat="40.8722994739792" lon="9.26868996014844"><ele>514.0</ele><time>2026-05-01T15:17:41Z</time></trkpt><trkpt lat="40.872352294064534" lon="9.26853722323951"><ele>514.0</ele><time>2026-05-01T15:17:42Z</time></trkpt><trkpt lat="40.872390973730965" lon="9.268371716366106"><ele>514.0</ele><time>2026-05-01T15:17:43Z</time></trkpt><trkpt lat="40.8724337542716" lon="9.268170581896841"><ele>514.0</ele><time>2026-05-01T15:17:44Z</time></trkpt><trkpt lat="40.87247278543921" lon="9.267961571894595"><ele>514.0</ele><time>2026-05-01T15:17:45Z</time></trkpt><trkpt lat="40.87251776249801" lon="9.267746694347831"><ele>514.0</ele><time>2026-05-01T15:17:46Z</time></trkpt><trkpt lat="40.87256570054682" lon="9.267535485788258"><ele>514.0</ele><time>2026-05-01T15:17:47Z</time></trkpt><trkpt lat="40.87261459847298" lon="9.267318815454079"><ele>515.6666666666667</ele><time>2026-05-01T15:17:48Z</time></trkpt><trkpt lat="40.872662617174434" lon="9.267101735481436"><ele>517.3333333333334</ele><time>2026-05-01T15:17:49Z</time></trkpt><trkpt lat="40.872711498830014" lon="9.26688288623386"><ele>519.0</ele><time>2026-05-01T15:17:50Z</time></trkpt><trkpt lat="40.87275914130347" lon="9.26667037870037"><ele>519.0</ele><time>2026-05-01T15:17:51Z</time></trkpt><trkpt lat="40.8728026407668" lon="9.266467079768184"><ele>519.0</ele><time>2026-05-01T15:17:52Z</time></trkpt><trkpt lat="40.8728469573604" lon="9.266282061843684"><ele>519.0</ele><time>2026-05-01T15:17:53Z</time></trkpt><trkpt lat="40.87288244755593" lon="9.26611959824068"><ele>519.0</ele><time>2026-05-01T15:17:54Z</time></trkpt><trkpt lat="40.87290324787387" lon="9.265961105213945"><ele>519.2</ele><time>2026-05-01T15:17:55Z</time></trkpt><trkpt lat="40.87290337489113" lon="9.265799065414834"><ele>519.4</ele><time>2026-05-01T15:17:56Z</time></trkpt><trkpt lat="40.872884292828346" lon="9.265665521706094"><ele>519.6</ele><time>2026-05-01T15:17:57Z</time></trkpt><trkpt lat="40.87286152733446" lon="9.265540527696475"><ele>519.8</ele><time>2026-05-01T15:17:58Z</time></trkpt><trkpt lat="40.87283730219233" lon="9.265429868840146"><ele>520.0</ele><time>2026-05-01T15:17:59Z</time></trkpt><trkpt lat="40.87281127145046" lon="9.265324652039554"><ele>520.3333333333334</ele><time>2026-05-01T15:18:00Z</time></trkpt><trkpt lat="40.872778224825126" lon="9.26522727717879"><ele>520.6666666666667</ele><time>2026-05-01T15:18:01Z</time></trkpt><trkpt lat="40.872752258185365" lon="9.265135659534128"><ele>521.0</ele><time>2026-05-01T15:18:02Z</time></trkpt><trkpt lat="40.87273347778658" lon="9.265040504722032"><ele>521.3333333333334</ele><time>2026-05-01T15:18:03Z</time></trkpt><trkpt lat="40.87272484282496" lon="9.26494501424014"><ele>521.6666666666666</ele><time>2026-05-01T15:18:04Z</time></trkpt><trkpt lat="40.87270895547908" lon="9.264836082202853"><ele>522.0</ele><time>2026-05-01T15:18:05Z</time></trkpt><trkpt lat="40.87269362717816" lon="9.264736895929525"><ele>522.4</ele><time>2026-05-01T15:18:06Z</time></trkpt><trkpt lat="40.872673803275546" lon="9.264613838038386"><ele>522.8000000000001</ele><time>2026-05-01T15:18:07Z</time></trkpt><trkpt lat="40.87264672047801" lon="9.264489020767932"><ele>523.2</ele><time>2026-05-01T15:18:08Z</time></trkpt><trkpt lat="40.87261657289313" lon="9.264347535196773"><ele>523.6</ele><time>2026-05-01T15:18:09Z</time></trkpt><trkpt lat="40.872576051008636" lon="9.26419291947852"><ele>524.0</ele><time>2026-05-01T15:18:10Z</time></trkpt><trkpt lat="40.872533486874474" lon="9.2640500276526"><ele>523.2</ele><time>2026-05-01T15:18:11Z</time></trkpt><trkpt lat="40.872496668369145" lon="9.263933205462996"><ele>522.4</ele><time>2026-05-01T15:18:12Z</time></trkpt><trkpt lat="40.87247231757879" lon="9.26382143379296"><ele>521.6</ele><time>2026-05-01T15:18:13Z</time></trkpt><trkpt lat="40.87246139304096" lon="9.263705682360861"><ele>520.8</ele><time>2026-05-01T15:18:14Z</time></trkpt><trkpt lat="40.872438880352696" lon="9.263563343725082"><ele>520.0</ele><time>2026-05-01T15:18:15Z</time></trkpt><trkpt lat="40.8724264599138" lon="9.26341964165459"><ele>520.0</ele><time>2026-05-01T15:18:16Z</time></trkpt><trkpt lat="40.87240261498387" lon="9.263266398997166"><ele>520.0</ele><time>2026-05-01T15:18:17Z</time></trkpt><trkpt lat="40.87240403705613" lon="9.263085205644812"><ele>520.0</ele><time>2026-05-01T15:18:18Z</time></trkpt><trkpt lat="40.872399109870216" lon="9.262911170768668"><ele>520.0</ele><time>2026-05-01T15:18:19Z</time></trkpt><trkpt lat="40.87239622334124" lon="9.262745659967255"><ele>520.0</ele><time>2026-05-01T15:18:20Z</time></trkpt><trkpt lat="40.87239163359057" lon="9.262590090829312"><ele>520.0</ele><time>2026-05-01T15:18:21Z</time></trkpt><trkpt lat="40.87236604322212" lon="9.262412700081034"><ele>520.0</ele><time>2026-05-01T15:18:22Z</time></trkpt><trkpt lat="40.872348017218684" lon="9.26224893334649"><ele>520.0</ele><time>2026-05-01T15:18:23Z</time></trkpt><trkpt lat="40.872307066688485" lon="9.26210653185797"><ele>520.0</ele><time>2026-05-01T15:18:24Z</time></trkpt><trkpt lat="40.87226486566694" lon="9.261959092610306"><ele>520.0</ele><time>2026-05-01T15:18:25Z</time></trkpt><trkpt lat="40.872222646088176" lon="9.261782395143019"><ele>520.0</ele><time>2026-05-01T15:18:26Z</time></trkpt><trkpt lat="40.87218202724559" lon="9.261654530024504"><ele>520.0</ele><time>2026-05-01T15:18:27Z</time></trkpt><trkpt lat="40.87216953177541" lon="9.261507582458096"><ele>519.25</ele><time>2026-05-01T15:18:28Z</time></trkpt><trkpt lat="40.872177053617136" lon="9.261360475039082"><ele>518.5</ele><time>2026-05-01T15:18:29Z</time></trkpt><trkpt lat="40.87219643852566" lon="9.261200090246184"><ele>517.75</ele><time>2026-05-01T15:18:30Z</time></trkpt><trkpt lat="40.87222041347856" lon="9.261034286296338"><ele>517.0</ele><time>2026-05-01T15:18:31Z</time></trkpt><trkpt lat="40.872248383147124" lon="9.260862103929865"><ele>517.0</ele><time>2026-05-01T15:18:32Z</time></trkpt><trkpt lat="40.87227957112148" lon="9.260690674108462"><ele>517.0</ele><time>2026-05-01T15:18:33Z</time></trkpt><trkpt lat="40.87230664410452" lon="9.260533478964831"><ele>517.0</ele><time>2026-05-01T15:18:34Z</time></trkpt><trkpt lat="40.87233563408743" lon="9.260391047526184"><ele>517.0</ele><time>2026-05-01T15:18:35Z</time></trkpt><trkpt lat="40.87237271242589" lon="9.260258625006442"><ele>516.6</ele><time>2026-05-01T15:18:36Z</time></trkpt><trkpt lat="40.87241154231717" lon="9.260150137353385"><ele>516.2</ele><time>2026-05-01T15:18:37Z</time></trkpt><trkpt lat="40.87244888207202" lon="9.260058390939342"><ele>515.8</ele><time>2026-05-01T15:18:38Z</time></trkpt><trkpt lat="40.872500486462684" lon="9.25992213609959"><ele>515.4</ele><time>2026-05-01T15:18:40Z</time></trkpt><trkpt lat="40.872539889444795" lon="9.259825274231495"><ele>515.0</ele><time>2026-05-01T15:18:42Z</time></trkpt><trkpt lat="40.872562323834494" lon="9.259715668533696"><ele>514.6</ele><time>2026-05-01T15:18:45Z</time></trkpt><trkpt lat="40.872610442070894" lon="9.259605227987752"><ele>514.2</ele><time>2026-05-01T15:18:47Z</time></trkpt><trkpt lat="40.872672704314155" lon="9.259535156316636"><ele>513.8</ele><time>2026-05-01T15:18:48Z</time></trkpt><trkpt lat="40.87275969446204" lon="9.259456992887136"><ele>513.4</ele><time>2026-05-01T15:18:49Z</time></trkpt><trkpt lat="40.87285465329774" lon="9.259353527182213"><ele>513.0</ele><time>2026-05-01T15:18:50Z</time></trkpt><trkpt lat="40.872947460959644" lon="9.25922214120417"><ele>513.0</ele><time>2026-05-01T15:18:51Z</time></trkpt><trkpt lat="40.8730485903968" lon="9.259080025056893"><ele>513.0</ele><time>2026-05-01T15:18:52Z</time></trkpt><trkpt lat="40.87314736350611" lon="9.258919278034243"><ele>513.0</ele><time>2026-05-01T15:18:53Z</time></trkpt><trkpt lat="40.87325073879263" lon="9.258752760400581"><ele>513.3333333333334</ele><time>2026-05-01T15:18:54Z</time></trkpt><trkpt lat="40.87335334393724" lon="9.258576506378342"><ele>513.6666666666667</ele><time>2026-05-01T15:18:55Z</time></trkpt><trkpt lat="40.87345410395991" lon="9.258397506754996"><ele>514.0</ele><time>2026-05-01T15:18:56Z</time></trkpt><trkpt lat="40.87355235140907" lon="9.258214494804333"><ele>511.6666666666667</ele><time>2026-05-01T15:18:57Z</time></trkpt><trkpt lat="40.873651586667975" lon="9.258030182844214"><ele>509.33333333333337</ele><time>2026-05-01T15:18:58Z</time></trkpt><trkpt lat="40.87374513105478" lon="9.257857108637126"><ele>507.0</ele><time>2026-05-01T15:18:59Z</time></trkpt><trkpt lat="40.87383090291738" lon="9.257697349320159"><ele>507.0</ele><time>2026-05-01T15:19:00Z</time></trkpt><trkpt lat="40.8739103304624" lon="9.257540997430212"><ele>507.0</ele><time>2026-05-01T15:19:01Z</time></trkpt><trkpt lat="40.87398708607882" lon="9.257398056542627"><ele>507.0</ele><time>2026-05-01T15:19:02Z</time></trkpt><trkpt lat="40.874067559489795" lon="9.257250212366676"><ele>507.0</ele><time>2026-05-01T15:19:03Z</time></trkpt><trkpt lat="40.87414875603778" lon="9.257095394386962"><ele>507.5</ele><time>2026-05-01T15:19:04Z</time></trkpt><trkpt lat="40.874230180933615" lon="9.256937769658185"><ele>508.0</ele><time>2026-05-01T15:19:05Z</time></trkpt><trkpt lat="40.874310816816646" lon="9.256783097327318"><ele>508.5</ele><time>2026-05-01T15:19:06Z</time></trkpt><trkpt lat="40.87438172552361" lon="9.256619546056578"><ele>509.0</ele><time>2026-05-01T15:19:07Z</time></trkpt><trkpt lat="40.87444569575113" lon="9.25643582978012"><ele>509.0</ele><time>2026-05-01T15:19:08Z</time></trkpt><trkpt lat="40.8744964276077" lon="9.256249854767411"><ele>509.0</ele><time>2026-05-01T15:19:09Z</time></trkpt><trkpt lat="40.87454743057418" lon="9.256078932888332"><ele>509.0</ele><time>2026-05-01T15:19:10Z</time></trkpt><trkpt lat="40.87461739176348" lon="9.255920928812209"><ele>509.0</ele><time>2026-05-01T15:19:11Z</time></trkpt><trkpt lat="40.87470895133777" lon="9.25580784849632"><ele>509.0</ele><time>2026-05-01T15:19:12Z</time></trkpt><trkpt lat="40.874816296707074" lon="9.255770642453678"><ele>509.0</ele><time>2026-05-01T15:19:13Z</time></trkpt><trkpt lat="40.87492298980638" lon="9.255782197573673"><ele>509.0</ele><time>2026-05-01T15:19:14Z</time></trkpt><trkpt lat="40.87502802233276" lon="9.255877633693203"><ele>509.0</ele><time>2026-05-01T15:19:15Z</time></trkpt><trkpt lat="40.87509638065306" lon="9.255995326326676"><ele>507.25</ele><time>2026-05-01T15:19:16Z</time></trkpt><trkpt lat="40.875116407367244" lon="9.2561563357379"><ele>505.5</ele><time>2026-05-01T15:19:17Z</time></trkpt><trkpt lat="40.875107216133756" lon="9.25634040396072"><ele>503.75</ele><time>2026-05-01T15:19:18Z</time></trkpt><trkpt lat="40.87508250710022" lon="9.256557154258225"><ele>502.0</ele><time>2026-05-01T15:19:19Z</time></trkpt><trkpt lat="40.87507621819461" lon="9.256765315758146"><ele>501.75</ele><time>2026-05-01T15:19:20Z</time></trkpt><trkpt lat="40.875086447642495" lon="9.256959614454168"><ele>501.5</ele><time>2026-05-01T15:19:21Z</time></trkpt><trkpt lat="40.87511426261621" lon="9.257150475718019"><ele>501.25</ele><time>2026-05-01T15:19:22Z</time></trkpt><trkpt lat="40.87516022540405" lon="9.257306834324533"><ele>501.0</ele><time>2026-05-01T15:19:23Z</time></trkpt><trkpt lat="40.87524167761759" lon="9.257442327469905"><ele>495.5</ele><time>2026-05-01T15:19:24Z</time></trkpt><trkpt lat="40.875340087793894" lon="9.257521885033796"><ele>490.0</ele><time>2026-05-01T15:19:25Z</time></trkpt><trkpt lat="40.8754961831766" lon="9.257581466898463"><ele>484.5</ele><time>2026-05-01T15:19:26Z</time></trkpt><trkpt lat="40.87563459366011" lon="9.257575292993751"><ele>479.0</ele><time>2026-05-01T15:19:27Z</time></trkpt><trkpt lat="40.875783951841896" lon="9.257563871697133"><ele>479.0</ele><time>2026-05-01T15:19:28Z</time></trkpt><trkpt lat="40.87592405545629" lon="9.257509561179143"><ele>479.0</ele><time>2026-05-01T15:19:29Z</time></trkpt><trkpt lat="40.87603674925386" lon="9.257388993411068"><ele>479.0</ele><time>2026-05-01T15:19:30Z</time></trkpt><trkpt lat="40.87612574743231" lon="9.25721139206496"><ele>478.66666666666663</ele><time>2026-05-01T15:19:31Z</time></trkpt><trkpt lat="40.876220121030585" lon="9.257022374208388"><ele>478.33333333333337</ele><time>2026-05-01T15:19:32Z</time></trkpt><trkpt lat="40.876295407965486" lon="9.256847027978994"><ele>478.0</ele><time>2026-05-01T15:19:33Z</time></trkpt><trkpt lat="40.87640941820879" lon="9.256741534240218"><ele>478.0</ele><time>2026-05-01T15:19:34Z</time></trkpt><trkpt lat="40.87654146368516" lon="9.25671581698836"><ele>478.0</ele><time>2026-05-01T15:19:35Z</time></trkpt><trkpt lat="40.87666617891153" lon="9.256725063285703"><ele>478.0</ele><time>2026-05-01T15:19:36Z</time></trkpt><trkpt lat="40.87682986982343" lon="9.256741036903477"><ele>478.0</ele><time>2026-05-01T15:19:37Z</time></trkpt><trkpt lat="40.877008119810256" lon="9.256757551016227"><ele>473.0</ele><time>2026-05-01T15:19:38Z</time></trkpt><trkpt lat="40.877191245849794" lon="9.25676218308286"><ele>468.0</ele><time>2026-05-01T15:19:39Z</time></trkpt><trkpt lat="40.87736568632953" lon="9.256787364120376"><ele>463.0</ele><time>2026-05-01T15:19:40Z</time></trkpt><trkpt lat="40.877530152338394" lon="9.256816484743915"><ele>458.5</ele><time>2026-05-01T15:19:41Z</time></trkpt><trkpt lat="40.877673363292054" lon="9.256818329674285"><ele>454.0</ele><time>2026-05-01T15:19:42Z</time></trkpt><trkpt lat="40.87781070157618" lon="9.25677004004399"><ele>449.5</ele><time>2026-05-01T15:19:43Z</time></trkpt><trkpt lat="40.877906884927555" lon="9.256621241351858"><ele>445.0</ele><time>2026-05-01T15:19:44Z</time></trkpt><trkpt lat="40.87798723726499" lon="9.25645883824157"><ele>447.0</ele><time>2026-05-01T15:19:45Z</time></trkpt><trkpt lat="40.87801614437063" lon="9.25627789541787"><ele>449.0</ele><time>2026-05-01T15:19:46Z</time></trkpt><trkpt lat="40.87802423237661" lon="9.256056359951806"><ele>451.0</ele><time>2026-05-01T15:19:47Z</time></trkpt><trkpt lat="40.87803227756706" lon="9.255798294313808"><ele>452.0</ele><time>2026-05-01T15:19:48Z</time></trkpt><trkpt lat="40.87809045204857" lon="9.255619045450947"><ele>453.0</ele><time>2026-05-01T15:19:49Z</time></trkpt><trkpt lat="40.87818731197543" lon="9.255494782993209"><ele>454.0</ele><time>2026-05-01T15:19:50Z</time></trkpt><trkpt lat="40.87829196626706" lon="9.255374230595013"><ele>455.0</ele><time>2026-05-01T15:19:51Z</time></trkpt><trkpt lat="40.87837931547398" lon="9.255267360163456"><ele>458.2</ele><time>2026-05-01T15:19:52Z</time></trkpt><trkpt lat="40.87846311805125" lon="9.25523674386588"><ele>461.4</ele><time>2026-05-01T15:19:53Z</time></trkpt><trkpt lat="40.87854736786262" lon="9.255254625561134"><ele>464.6</ele><time>2026-05-01T15:19:54Z</time></trkpt><trkpt lat="40.878637248060706" lon="9.255327119046873"><ele>467.8</ele><time>2026-05-01T15:19:55Z</time></trkpt><trkpt lat="40.87868360122045" lon="9.255470017962024"><ele>471.0</ele><time>2026-05-01T15:19:56Z</time></trkpt><trkpt lat="40.87871952821167" lon="9.255636653898547"><ele>471.0</ele><time>2026-05-01T15:19:57Z</time></trkpt><trkpt lat="40.8787702471345" lon="9.25584860102979"><ele>471.0</ele><time>2026-05-01T15:19:58Z</time></trkpt><trkpt lat="40.8788387500417" lon="9.256077626103616"><ele>471.0</ele><time>2026-05-01T15:19:59Z</time></trkpt><trkpt lat="40.87891056579187" lon="9.256320967053105"><ele>468.66666666666663</ele><time>2026-05-01T15:20:00Z</time></trkpt><trkpt lat="40.87898754808838" lon="9.256568030378931"><ele>466.3333333333333</ele><time>2026-05-01T15:20:01Z</time></trkpt><trkpt lat="40.8790679021337" lon="9.256816527188684"><ele>464.0</ele><time>2026-05-01T15:20:02Z</time></trkpt><trkpt lat="40.87914495646525" lon="9.257053326691407"><ele>464.0</ele><time>2026-05-01T15:20:03Z</time></trkpt><trkpt lat="40.87921414574081" lon="9.257270347447188"><ele>464.0</ele><time>2026-05-01T15:20:04Z</time></trkpt><trkpt lat="40.8792727736179" lon="9.257456705098415"><ele>464.0</ele><time>2026-05-01T15:20:05Z</time></trkpt><trkpt lat="40.87932760818355" lon="9.257645591809515"><ele>465.25</ele><time>2026-05-01T15:20:06Z</time></trkpt><trkpt lat="40.87933465415738" lon="9.257841151132531"><ele>466.5</ele><time>2026-05-01T15:20:07Z</time></trkpt><trkpt lat="40.87934667445786" lon="9.258028455807633"><ele>467.75</ele><time>2026-05-01T15:20:08Z</time></trkpt><trkpt lat="40.87938426056603" lon="9.258187209938896"><ele>469.0</ele><time>2026-05-01T15:20:09Z</time></trkpt><trkpt lat="40.879444503204624" lon="9.258321562863111"><ele>469.0</ele><time>2026-05-01T15:20:10Z</time></trkpt><trkpt lat="40.87954919155341" lon="9.258423399571033"><ele>469.0</ele><time>2026-05-01T15:20:11Z</time></trkpt><trkpt lat="40.87969054577474" lon="9.258463062211646"><ele>469.0</ele><time>2026-05-01T15:20:12Z</time></trkpt><trkpt lat="40.8798303290389" lon="9.258436148927636"><ele>469.0</ele><time>2026-05-01T15:20:13Z</time></trkpt><trkpt lat="40.87994057267838" lon="9.258321865307824"><ele>469.0</ele><time>2026-05-01T15:20:14Z</time></trkpt><trkpt lat="40.880011971771985" lon="9.258184445854129"><ele>469.0</ele><time>2026-05-01T15:20:15Z</time></trkpt><trkpt lat="40.88002608036268" lon="9.258005660500785"><ele>469.0</ele><time>2026-05-01T15:20:16Z</time></trkpt><trkpt lat="40.87999865727853" lon="9.257817923487133"><ele>469.0</ele><time>2026-05-01T15:20:17Z</time></trkpt><trkpt lat="40.879905179487956" lon="9.257632728116862"><ele>471.5</ele><time>2026-05-01T15:20:18Z</time></trkpt><trkpt lat="40.879813422688876" lon="9.257463206515743"><ele>474.0</ele><time>2026-05-01T15:20:19Z</time></trkpt><trkpt lat="40.879791609886595" lon="9.257304040363309"><ele>476.5</ele><time>2026-05-01T15:20:20Z</time></trkpt><trkpt lat="40.87979386128923" lon="9.257128682799557"><ele>479.0</ele><time>2026-05-01T15:20:21Z</time></trkpt><trkpt lat="40.879830578171145" lon="9.256928509150603"><ele>481.75</ele><time>2026-05-01T15:20:22Z</time></trkpt><trkpt lat="40.879837121859154" lon="9.256732867770237"><ele>484.5</ele><time>2026-05-01T15:20:23Z</time></trkpt><trkpt lat="40.8797776441799" lon="9.256556228310336"><ele>487.25</ele><time>2026-05-01T15:20:24Z</time></trkpt><trkpt lat="40.879674742469234" lon="9.256406938725975"><ele>490.0</ele><time>2026-05-01T15:20:25Z</time></trkpt><trkpt lat="40.87959158143132" lon="9.256263312153045"><ele>492.2</ele><time>2026-05-01T15:20:26Z</time></trkpt><trkpt lat="40.879545616892635" lon="9.256138501846243"><ele>494.4</ele><time>2026-05-01T15:20:27Z</time></trkpt><trkpt lat="40.879526577613" lon="9.256015322371056"><ele>496.6</ele><time>2026-05-01T15:20:28Z</time></trkpt><trkpt lat="40.87956242069045" lon="9.255901930830436"><ele>498.8</ele><time>2026-05-01T15:20:29Z</time></trkpt><trkpt lat="40.87964274385303" lon="9.255819027206442"><ele>501.0</ele><time>2026-05-01T15:20:30Z</time></trkpt><trkpt lat="40.87974073301105" lon="9.25579457138741"><ele>501.0</ele><time>2026-05-01T15:20:31Z</time></trkpt><trkpt lat="40.87983849921861" lon="9.255849351142606"><ele>501.0</ele><time>2026-05-01T15:20:32Z</time></trkpt><trkpt lat="40.87990952361247" lon="9.255958254569965"><ele>501.0</ele><time>2026-05-01T15:20:33Z</time></trkpt><trkpt lat="40.879890135492474" lon="9.256134780551807"><ele>501.0</ele><time>2026-05-01T15:20:34Z</time></trkpt><trkpt lat="40.87992850777326" lon="9.256320614519566"><ele>500.25</ele><time>2026-05-01T15:20:35Z</time></trkpt><trkpt lat="40.879998981352806" lon="9.256480939114455"><ele>499.5</ele><time>2026-05-01T15:20:36Z</time></trkpt><trkpt lat="40.88010448849091" lon="9.256607812048536"><ele>498.75</ele><time>2026-05-01T15:20:37Z</time></trkpt><trkpt lat="40.88021818549304" lon="9.25673518439204"><ele>498.0</ele><time>2026-05-01T15:20:38Z</time></trkpt><trkpt lat="40.88032852227169" lon="9.256830066250222"><ele>498.0</ele><time>2026-05-01T15:20:39Z</time></trkpt><trkpt lat="40.880465957502985" lon="9.2568609635516"><ele>498.0</ele><time>2026-05-01T15:20:40Z</time></trkpt><trkpt lat="40.88060599701689" lon="9.25683391179704"><ele>498.0</ele><time>2026-05-01T15:20:41Z</time></trkpt><trkpt lat="40.880727969681" lon="9.256719247521081"><ele>498.0</ele><time>2026-05-01T15:20:42Z</time></trkpt><trkpt lat="40.88082703048283" lon="9.256542825824779"><ele>503.33333333333337</ele><time>2026-05-01T15:20:43Z</time></trkpt><trkpt lat="40.880900061514566" lon="9.256339065322951"><ele>508.6666666666667</ele><time>2026-05-01T15:20:44Z</time></trkpt><trkpt lat="40.880979915548785" lon="9.256116485401414"><ele>514.0</ele><time>2026-05-01T15:20:45Z</time></trkpt><trkpt lat="40.88106721559153" lon="9.25590505023912"><ele>514.5</ele><time>2026-05-01T15:20:46Z</time></trkpt><trkpt lat="40.88115486407666" lon="9.255721485441246"><ele>515.0</ele><time>2026-05-01T15:20:47Z</time></trkpt><trkpt lat="40.881237713278466" lon="9.255574865501002"><ele>515.5</ele><time>2026-05-01T15:20:48Z</time></trkpt><trkpt lat="40.88132489223366" lon="9.255490009476311"><ele>516.0</ele><time>2026-05-01T15:20:49Z</time></trkpt><trkpt lat="40.881413956166085" lon="9.255432200211406"><ele>518.4</ele><time>2026-05-01T15:20:50Z</time></trkpt><trkpt lat="40.8814911173502" lon="9.255395601696481"><ele>520.8</ele><time>2026-05-01T15:20:51Z</time></trkpt><trkpt lat="40.88155921251992" lon="9.255385993170632"><ele>523.1999999999999</ele><time>2026-05-01T15:20:53Z</time></trkpt><trkpt lat="40.881629271502796" lon="9.255342642370042"><ele>525.6</ele><time>2026-05-01T15:21:01Z</time></trkpt><trkpt lat="40.88168680697498" lon="9.255175561491205"><ele>528.0</ele><time>2026-05-01T15:21:04Z</time></trkpt><trkpt lat="40.88164259002328" lon="9.255026859306607"><ele>528.0</ele><time>2026-05-01T15:21:05Z</time></trkpt><trkpt lat="40.881564210998995" lon="9.254864431401503"><ele>528.0</ele><time>2026-05-01T15:21:06Z</time></trkpt><trkpt lat="40.881509696793685" lon="9.254655350413614"><ele>528.0</ele><time>2026-05-01T15:21:07Z</time></trkpt><trkpt lat="40.88141724268725" lon="9.254465754795516"><ele>530.0</ele><time>2026-05-01T15:21:08Z</time></trkpt><trkpt lat="40.88133530956971" lon="9.25425264947533"><ele>532.0</ele><time>2026-05-01T15:21:09Z</time></trkpt><trkpt lat="40.88125809221409" lon="9.254058289439723"><ele>534.0</ele><time>2026-05-01T15:21:10Z</time></trkpt><trkpt lat="40.88123023872331" lon="9.253874193714815"><ele>534.6666666666666</ele><time>2026-05-01T15:21:11Z</time></trkpt><trkpt lat="40.88123474876601" lon="9.253683856681073"><ele>535.3333333333333</ele><time>2026-05-01T15:21:12Z</time></trkpt><trkpt lat="40.88129891265035" lon="9.253495943613949"><ele>536.0</ele><time>2026-05-01T15:21:13Z</time></trkpt><trkpt lat="40.88139541953475" lon="9.253310210941219"><ele>534.3333333333333</ele><time>2026-05-01T15:21:14Z</time></trkpt><trkpt lat="40.88151157323258" lon="9.253095284688479"><ele>532.6666666666666</ele><time>2026-05-01T15:21:15Z</time></trkpt><trkpt lat="40.88161708385484" lon="9.252858992023011"><ele>531.0</ele><time>2026-05-01T15:21:16Z</time></trkpt><trkpt lat="40.8817354627354" lon="9.252613451971602"><ele>538.0</ele><time>2026-05-01T15:21:17Z</time></trkpt><trkpt lat="40.881837102839874" lon="9.252354914344359"><ele>545.0</ele><time>2026-05-01T15:21:18Z</time></trkpt><trkpt lat="40.881926006409174" lon="9.252111464757638"><ele>552.0</ele><time>2026-05-01T15:21:19Z</time></trkpt><trkpt lat="40.882046528821334" lon="9.251884964888855"><ele>552.0</ele><time>2026-05-01T15:21:20Z</time></trkpt><trkpt lat="40.88218151523095" lon="9.25165470622441"><ele>552.0</ele><time>2026-05-01T15:21:21Z</time></trkpt><trkpt lat="40.88233614045149" lon="9.251412733370485"><ele>553.5</ele><time>2026-05-01T15:21:22Z</time></trkpt><trkpt lat="40.88252404616837" lon="9.251196380116303"><ele>555.0</ele><time>2026-05-01T15:21:23Z</time></trkpt><trkpt lat="40.88272274536016" lon="9.250978621445753"><ele>555.0</ele><time>2026-05-01T15:21:24Z</time></trkpt><trkpt lat="40.88290443737355" lon="9.250776039158387"><ele>555.0</ele><time>2026-05-01T15:21:25Z</time></trkpt><trkpt lat="40.883066919530116" lon="9.250591504274297"><ele>553.3333333333334</ele><time>2026-05-01T15:21:26Z</time></trkpt><trkpt lat="40.883232070106594" lon="9.250467297664176"><ele>551.6666666666667</ele><time>2026-05-01T15:21:27Z</time></trkpt><trkpt lat="40.88339896788564" lon="9.250396715322397"><ele>550.0</ele><time>2026-05-01T15:21:28Z</time></trkpt><trkpt lat="40.88358787057011" lon="9.25037886517795"><ele>550.0</ele><time>2026-05-01T15:21:29Z</time></trkpt><trkpt lat="40.883804703501156" lon="9.250355973292363"><ele>550.0</ele><time>2026-05-01T15:21:30Z</time></trkpt><trkpt lat="40.88403397149286" lon="9.250337182802667"><ele>550.0</ele><time>2026-05-01T15:21:31Z</time></trkpt><trkpt lat="40.88422804306125" lon="9.25031875386032"><ele>549.0</ele><time>2026-05-01T15:21:32Z</time></trkpt><trkpt lat="40.88439820552499" lon="9.250295264176186"><ele>548.0</ele><time>2026-05-01T15:21:33Z</time></trkpt><trkpt lat="40.88455586601078" lon="9.250289746514966"><ele>547.0</ele><time>2026-05-01T15:21:34Z</time></trkpt><trkpt lat="40.88469694705726" lon="9.250368702304051"><ele>547.0</ele><time>2026-05-01T15:21:35Z</time></trkpt><trkpt lat="40.884825088420904" lon="9.250507224887969"><ele>547.0</ele><time>2026-05-01T15:21:36Z</time></trkpt><trkpt lat="40.88497551411661" lon="9.250660169639733"><ele>547.0</ele><time>2026-05-01T15:21:37Z</time></trkpt><trkpt lat="40.88511565197133" lon="9.250848945240513"><ele>551.0</ele><time>2026-05-01T15:21:38Z</time></trkpt><trkpt lat="40.88525464993" lon="9.2510337110996"><ele>555.0</ele><time>2026-05-01T15:21:39Z</time></trkpt><trkpt lat="40.88537488642638" lon="9.25116967614015"><ele>559.0</ele><time>2026-05-01T15:21:40Z</time></trkpt><trkpt lat="40.885495137449446" lon="9.251216880967881"><ele>559.0</ele><time>2026-05-01T15:21:41Z</time></trkpt><trkpt lat="40.88561418194441" lon="9.251181784352315"><ele>559.0</ele><time>2026-05-01T15:21:42Z</time></trkpt><trkpt lat="40.885728326028406" lon="9.251068535214353"><ele>559.0</ele><time>2026-05-01T15:21:43Z</time></trkpt><trkpt lat="40.88580482587676" lon="9.250903849552335"><ele>559.0</ele><time>2026-05-01T15:21:44Z</time></trkpt><trkpt lat="40.88587128221906" lon="9.250672221422583"><ele>564.0</ele><time>2026-05-01T15:21:45Z</time></trkpt><trkpt lat="40.88594767346135" lon="9.250415613658767"><ele>569.0</ele><time>2026-05-01T15:21:46Z</time></trkpt><trkpt lat="40.88604492546079" lon="9.250142002745147"><ele>574.0</ele><time>2026-05-01T15:21:47Z</time></trkpt><trkpt lat="40.8861513695027" lon="9.249870614281804"><ele>571.0</ele><time>2026-05-01T15:21:48Z</time></trkpt><trkpt lat="40.88626123258279" lon="9.24957661198796"><ele>568.0</ele><time>2026-05-01T15:21:49Z</time></trkpt><trkpt lat="40.886374995473524" lon="9.24926003448916"><ele>564.5</ele><time>2026-05-01T15:21:50Z</time></trkpt><trkpt lat="40.88651390637035" lon="9.248957260267925"><ele>561.0</ele><time>2026-05-01T15:21:51Z</time></trkpt><trkpt lat="40.88666958396" lon="9.248665431885687"><ele>571.5</ele><time>2026-05-01T15:21:52Z</time></trkpt><trkpt lat="40.88680164022358" lon="9.248400222047463"><ele>582.0</ele><time>2026-05-01T15:21:53Z</time></trkpt><trkpt lat="40.886939186102964" lon="9.24817042530745"><ele>580.0</ele><time>2026-05-01T15:21:54Z</time></trkpt><trkpt lat="40.8870618914308" lon="9.247936385310997"><ele>578.0</ele><time>2026-05-01T15:21:55Z</time></trkpt><trkpt lat="40.88718560976642" lon="9.247685374391372"><ele>576.0</ele><time>2026-05-01T15:21:56Z</time></trkpt><trkpt lat="40.88736264296116" lon="9.247464997353458"><ele>575.5</ele><time>2026-05-01T15:21:57Z</time></trkpt><trkpt lat="40.88754248794598" lon="9.247233793790866"><ele>575.0</ele><time>2026-05-01T15:21:58Z</time></trkpt><trkpt lat="40.887729868278896" lon="9.247054021802695"><ele>577.6666666666666</ele><time>2026-05-01T15:21:59Z</time></trkpt><trkpt lat="40.88790350330884" lon="9.246881701677152"><ele>580.3333333333334</ele><time>2026-05-01T15:22:00Z</time></trkpt><trkpt lat="40.888085092679034" lon="9.246706158654241"><ele>583.0</ele><time>2026-05-01T15:22:01Z</time></trkpt><trkpt lat="40.88827694768838" lon="9.246554257213116"><ele>585.6666666666667</ele><time>2026-05-01T15:22:02Z</time></trkpt><trkpt lat="40.88848155284956" lon="9.246452455793099"><ele>588.3333333333334</ele><time>2026-05-01T15:22:03Z</time></trkpt><trkpt lat="40.8887081352135" lon="9.246412954979373"><ele>591.0</ele><time>2026-05-01T15:22:04Z</time></trkpt><trkpt lat="40.888950726722214" lon="9.246414049251824"><ele>591.0</ele><time>2026-05-01T15:22:05Z</time></trkpt><trkpt lat="40.889179354922994" lon="9.246422891884531"><ele>591.0</ele><time>2026-05-01T15:22:06Z</time></trkpt><trkpt lat="40.88939576261979" lon="9.246418825092501"><ele>591.0</ele><time>2026-05-01T15:22:07Z</time></trkpt><trkpt lat="40.889610163523365" lon="9.246399989862622"><ele>590.3333333333334</ele><time>2026-05-01T15:22:08Z</time></trkpt><trkpt lat="40.88982157639012" lon="9.246351505886292"><ele>589.6666666666667</ele><time>2026-05-01T15:22:09Z</time></trkpt><trkpt lat="40.890033759227485" lon="9.246286680376445"><ele>589.0</ele><time>2026-05-01T15:22:10Z</time></trkpt><trkpt lat="40.89025561903394" lon="9.246216306219075"><ele>587.6666666666667</ele><time>2026-05-01T15:22:11Z</time></trkpt><trkpt lat="40.89045832920912" lon="9.246154134195585"><ele>586.3333333333334</ele><time>2026-05-01T15:22:12Z</time></trkpt><trkpt lat="40.890653896647876" lon="9.246092246638574"><ele>585.0</ele><time>2026-05-01T15:22:13Z</time></trkpt><trkpt lat="40.890864379466485" lon="9.246045313843512"><ele>583.0</ele><time>2026-05-01T15:22:14Z</time></trkpt><trkpt lat="40.891033654397624" lon="9.245985891298103"><ele>581.0</ele><time>2026-05-01T15:22:15Z</time></trkpt><trkpt lat="40.89120497260322" lon="9.245903166760783"><ele>579.0</ele><time>2026-05-01T15:22:16Z</time></trkpt><trkpt lat="40.89135638287734" lon="9.24577118012829"><ele>580.3333333333334</ele><time>2026-05-01T15:22:17Z</time></trkpt><trkpt lat="40.89149220092866" lon="9.245588650973946"><ele>581.6666666666667</ele><time>2026-05-01T15:22:18Z</time></trkpt><trkpt lat="40.891600895731116" lon="9.245362234500055"><ele>583.0</ele><time>2026-05-01T15:22:19Z</time></trkpt><trkpt lat="40.89168786112108" lon="9.245105018490994"><ele>584.0</ele><time>2026-05-01T15:22:20Z</time></trkpt><trkpt lat="40.89176041517331" lon="9.244828641416843"><ele>585.0</ele><time>2026-05-01T15:22:21Z</time></trkpt><trkpt lat="40.89183474112637" lon="9.244539428435194"><ele>587.0</ele><time>2026-05-01T15:22:22Z</time></trkpt><trkpt lat="40.891918534255176" lon="9.244232318229622"><ele>589.0</ele><time>2026-05-01T15:22:23Z</time></trkpt><trkpt lat="40.892014826961535" lon="9.24390475254273"><ele>590.0</ele><time>2026-05-01T15:22:24Z</time></trkpt><trkpt lat="40.89212169557435" lon="9.243560177712007"><ele>591.0</ele><time>2026-05-01T15:22:25Z</time></trkpt><trkpt lat="40.89219735323755" lon="9.24326364202862"><ele>591.0</ele><time>2026-05-01T15:22:26Z</time></trkpt><trkpt lat="40.892318122672414" lon="9.242911903583039"><ele>591.0</ele><time>2026-05-01T15:22:27Z</time></trkpt><trkpt lat="40.89242129036821" lon="9.24257525598429"><ele>594.0</ele><time>2026-05-01T15:22:28Z</time></trkpt><trkpt lat="40.89251945574307" lon="9.24225869527747"><ele>597.0</ele><time>2026-05-01T15:22:29Z</time></trkpt><trkpt lat="40.89261296708233" lon="9.241960910569002"><ele>598.0</ele><time>2026-05-01T15:22:30Z</time></trkpt><trkpt lat="40.892697933437994" lon="9.241697843413908"><ele>599.0</ele><time>2026-05-01T15:22:31Z</time></trkpt><trkpt lat="40.89276684049557" lon="9.241453623017073"><ele>600.0</ele><time>2026-05-01T15:22:32Z</time></trkpt><trkpt lat="40.89284648504004" lon="9.241199101117111"><ele>600.0</ele><time>2026-05-01T15:22:33Z</time></trkpt><trkpt lat="40.892913708039465" lon="9.24095817182268"><ele>600.0</ele><time>2026-05-01T15:22:34Z</time></trkpt><trkpt lat="40.892994722392714" lon="9.240707884422331"><ele>600.0</ele><time>2026-05-01T15:22:35Z</time></trkpt><trkpt lat="40.89306968665115" lon="9.240459853148984"><ele>598.3333333333334</ele><time>2026-05-01T15:22:36Z</time></trkpt><trkpt lat="40.89315243361812" lon="9.240193869694473"><ele>596.6666666666667</ele><time>2026-05-01T15:22:37Z</time></trkpt><trkpt lat="40.89323729047345" lon="9.239925160011914"><ele>595.0</ele><time>2026-05-01T15:22:38Z</time></trkpt><trkpt lat="40.893320704903495" lon="9.239654272245202"><ele>594.0</ele><time>2026-05-01T15:22:39Z</time></trkpt><trkpt lat="40.89340412192152" lon="9.239385053257829"><ele>593.0</ele><time>2026-05-01T15:22:40Z</time></trkpt><trkpt lat="40.89349945493165" lon="9.23911033158949"><ele>592.0</ele><time>2026-05-01T15:22:41Z</time></trkpt><trkpt lat="40.893586313889244" lon="9.238836423014174"><ele>598.0</ele><time>2026-05-01T15:22:42Z</time></trkpt><trkpt lat="40.89367056681336" lon="9.238554936341"><ele>604.0</ele><time>2026-05-01T15:22:43Z</time></trkpt><trkpt lat="40.893640081569316" lon="9.238200003891125"><ele>599.5</ele><time>2026-05-01T15:22:44Z</time></trkpt><trkpt lat="40.89368916683332" lon="9.237887918272854"><ele>595.0</ele><time>2026-05-01T15:22:45Z</time></trkpt><trkpt lat="40.89374395693199" lon="9.237562741999154"><ele>594.0</ele><time>2026-05-01T15:22:46Z</time></trkpt><trkpt lat="40.89379579601817" lon="9.237266993921732"><ele>593.0</ele><time>2026-05-01T15:22:47Z</time></trkpt><trkpt lat="40.89384455746533" lon="9.23698526588295"><ele>592.0</ele><time>2026-05-01T15:22:48Z</time></trkpt><trkpt lat="40.893904518013876" lon="9.23672502279097"><ele>592.0</ele><time>2026-05-01T15:22:49Z</time></trkpt><trkpt lat="40.89399246023592" lon="9.236488685331315"><ele>592.0</ele><time>2026-05-01T15:22:50Z</time></trkpt><trkpt lat="40.89411769386596" lon="9.236265711236392"><ele>592.0</ele><time>2026-05-01T15:22:51Z</time></trkpt><trkpt lat="40.89426743879605" lon="9.236049953176911"><ele>592.3333333333334</ele><time>2026-05-01T15:22:52Z</time></trkpt><trkpt lat="40.89441963182858" lon="9.235831250742809"><ele>592.6666666666666</ele><time>2026-05-01T15:22:53Z</time></trkpt><trkpt lat="40.89457420817098" lon="9.235617518152393"><ele>593.0</ele><time>2026-05-01T15:22:54Z</time></trkpt><trkpt lat="40.89471801669537" lon="9.235390650214441"><ele>593.0</ele><time>2026-05-01T15:22:55Z</time></trkpt><trkpt lat="40.89486464597458" lon="9.23516622761871"><ele>593.0</ele><time>2026-05-01T15:22:56Z</time></trkpt><trkpt lat="40.895009948879206" lon="9.234940688057748"><ele>593.0</ele><time>2026-05-01T15:22:57Z</time></trkpt><trkpt lat="40.89516000423003" lon="9.234712775857187"><ele>593.0</ele><time>2026-05-01T15:22:58Z</time></trkpt><trkpt lat="40.89530363546369" lon="9.234481698353118"><ele>593.0</ele><time>2026-05-01T15:22:59Z</time></trkpt><trkpt lat="40.89545670055856" lon="9.234253612216015"><ele>593.0</ele><time>2026-05-01T15:23:00Z</time></trkpt><trkpt lat="40.89560628424695" lon="9.234023239737798"><ele>593.0</ele><time>2026-05-01T15:23:01Z</time></trkpt><trkpt lat="40.895758966751124" lon="9.233794408996827"><ele>592.5</ele><time>2026-05-01T15:23:02Z</time></trkpt><trkpt lat="40.89591194047232" lon="9.233561376664111"><ele>592.0</ele><time>2026-05-01T15:23:03Z</time></trkpt><trkpt lat="40.89606580047108" lon="9.233328263670412"><ele>594.3333333333334</ele><time>2026-05-01T15:23:04Z</time></trkpt><trkpt lat="40.89621932920233" lon="9.233106055260214"><ele>596.6666666666666</ele><time>2026-05-01T15:23:05Z</time></trkpt><trkpt lat="40.89635594983021" lon="9.232905136404176"><ele>599.0</ele><time>2026-05-01T15:23:06Z</time></trkpt><trkpt lat="40.89647456107313" lon="9.232678345828056"><ele>599.0</ele><time>2026-05-01T15:23:07Z</time></trkpt><trkpt lat="40.896574185056124" lon="9.232433753147813"><ele>599.0</ele><time>2026-05-01T15:23:08Z</time></trkpt><trkpt lat="40.89664794282399" lon="9.232161551674865"><ele>599.0</ele><time>2026-05-01T15:23:09Z</time></trkpt><trkpt lat="40.89671082420073" lon="9.231881074001825"><ele>600.3333333333333</ele><time>2026-05-01T15:23:10Z</time></trkpt><trkpt lat="40.896772662321986" lon="9.231602170389746"><ele>601.6666666666666</ele><time>2026-05-01T15:23:11Z</time></trkpt><trkpt lat="40.89684232205692" lon="9.231321818395104"><ele>603.0</ele><time>2026-05-01T15:23:12Z</time></trkpt><trkpt lat="40.89691094351048" lon="9.231041746222568"><ele>603.0</ele><time>2026-05-01T15:23:13Z</time></trkpt><trkpt lat="40.896981173712994" lon="9.230762421955939"><ele>603.0</ele><time>2026-05-01T15:23:14Z</time></trkpt><trkpt lat="40.89705370643603" lon="9.23048055038595"><ele>603.0</ele><time>2026-05-01T15:23:15Z</time></trkpt><trkpt lat="40.897124601207736" lon="9.23020697604845"><ele>602.6666666666666</ele><time>2026-05-01T15:23:16Z</time></trkpt><trkpt lat="40.89719311718386" lon="9.22994832191644"><ele>602.3333333333333</ele><time>2026-05-01T15:23:17Z</time></trkpt><trkpt lat="40.89726141461921" lon="9.229703015368868"><ele>602.0</ele><time>2026-05-01T15:23:18Z</time></trkpt><trkpt lat="40.89735184819436" lon="9.229495092112696"><ele>604.0</ele><time>2026-05-01T15:23:19Z</time></trkpt><trkpt lat="40.89747026012309" lon="9.229334339610139"><ele>606.0</ele><time>2026-05-01T15:23:20Z</time></trkpt><trkpt lat="40.897581032276385" lon="9.229168133386201"><ele>608.0</ele><time>2026-05-01T15:23:21Z</time></trkpt><trkpt lat="40.89764579440257" lon="9.228943933186017"><ele>608.0</ele><time>2026-05-01T15:23:22Z</time></trkpt><trkpt lat="40.89768500701726" lon="9.228678304619125"><ele>608.0</ele><time>2026-05-01T15:23:23Z</time></trkpt><trkpt lat="40.89772510734502" lon="9.22842204980536"><ele>608.0</ele><time>2026-05-01T15:23:24Z</time></trkpt><trkpt lat="40.89776567870179" lon="9.2281767243635"><ele>606.0</ele><time>2026-05-01T15:23:25Z</time></trkpt><trkpt lat="40.89781734715102" lon="9.22793512820709"><ele>604.0</ele><time>2026-05-01T15:23:26Z</time></trkpt><trkpt lat="40.89789062107909" lon="9.227682991621704"><ele>602.0</ele><time>2026-05-01T15:23:27Z</time></trkpt><trkpt lat="40.89797668433941" lon="9.227436886829203"><ele>597.0</ele><time>2026-05-01T15:23:28Z</time></trkpt><trkpt lat="40.898074865639984" lon="9.227198009741748"><ele>592.0</ele><time>2026-05-01T15:23:29Z</time></trkpt><trkpt lat="40.898178796721254" lon="9.226960751621624"><ele>587.0</ele><time>2026-05-01T15:23:30Z</time></trkpt><trkpt lat="40.89830182847211" lon="9.226736773790222"><ele>588.3333333333333</ele><time>2026-05-01T15:23:31Z</time></trkpt><trkpt lat="40.8984192748655" lon="9.226497158239633"><ele>589.6666666666666</ele><time>2026-05-01T15:23:32Z</time></trkpt><trkpt lat="40.89851573506" lon="9.226222112035906"><ele>591.0</ele><time>2026-05-01T15:23:33Z</time></trkpt><trkpt lat="40.89859321964311" lon="9.225930066471472"><ele>591.0</ele><time>2026-05-01T15:23:34Z</time></trkpt><trkpt lat="40.89866229115365" lon="9.225646236864431"><ele>591.0</ele><time>2026-05-01T15:23:35Z</time></trkpt><trkpt lat="40.89874510837585" lon="9.225374874506421"><ele>591.0</ele><time>2026-05-01T15:23:36Z</time></trkpt><trkpt lat="40.89885765489086" lon="9.225132773393023"><ele>585.3333333333334</ele><time>2026-05-01T15:23:37Z</time></trkpt><trkpt lat="40.89900012392551" lon="9.224948888825812"><ele>579.6666666666667</ele><time>2026-05-01T15:23:38Z</time></trkpt><trkpt lat="40.89909356826687" lon="9.224800826823047"><ele>574.0</ele><time>2026-05-01T15:23:39Z</time></trkpt><trkpt lat="40.899209676038666" lon="9.22473931082274"><ele>575.0</ele><time>2026-05-01T15:23:40Z</time></trkpt><trkpt lat="40.8993564777325" lon="9.224724799856071"><ele>576.0</ele><time>2026-05-01T15:23:41Z</time></trkpt><trkpt lat="40.89952673031586" lon="9.224676260702166"><ele>577.0</ele><time>2026-05-01T15:23:42Z</time></trkpt><trkpt lat="40.89967174647372" lon="9.224654066015624"><ele>577.0</ele><time>2026-05-01T15:23:43Z</time></trkpt><trkpt lat="40.89975821245395" lon="9.224564919458055"><ele>577.0</ele><time>2026-05-01T15:23:44Z</time></trkpt><trkpt lat="40.89979996474283" lon="9.224424455396624"><ele>577.0</ele><time>2026-05-01T15:23:45Z</time></trkpt><trkpt lat="40.89979922380611" lon="9.224244073450276"><ele>577.0</ele><time>2026-05-01T15:23:46Z</time></trkpt><trkpt lat="40.89976875819253" lon="9.224011758476442"><ele>575.0</ele><time>2026-05-01T15:23:47Z</time></trkpt><trkpt lat="40.89977410908687" lon="9.223782731364466"><ele>573.0</ele><time>2026-05-01T15:23:48Z</time></trkpt><trkpt lat="40.899790348417305" lon="9.223541692105432"><ele>571.0</ele><time>2026-05-01T15:23:49Z</time></trkpt><trkpt lat="40.89982056736055" lon="9.22328086095403"><ele>568.0</ele><time>2026-05-01T15:23:50Z</time></trkpt><trkpt lat="40.89985919589606" lon="9.222999594866028"><ele>565.0</ele><time>2026-05-01T15:23:51Z</time></trkpt><trkpt lat="40.89989802117192" lon="9.222705969131312"><ele>562.0</ele><time>2026-05-01T15:23:52Z</time></trkpt><trkpt lat="40.8999372072001" lon="9.22240503972391"><ele>561.0</ele><time>2026-05-01T15:23:53Z</time></trkpt><trkpt lat="40.89997771021562" lon="9.22209136571771"><ele>560.0</ele><time>2026-05-01T15:23:54Z</time></trkpt><trkpt lat="40.90001926715029" lon="9.2217684224474"><ele>559.0</ele><time>2026-05-01T15:23:55Z</time></trkpt><trkpt lat="40.90006283857335" lon="9.221434958064423"><ele>558.0</ele><time>2026-05-01T15:23:56Z</time></trkpt><trkpt lat="40.90010681896141" lon="9.221097980438131"><ele>561.5</ele><time>2026-05-01T15:23:57Z</time></trkpt><trkpt lat="40.900134212813015" lon="9.220759394182233"><ele>565.0</ele><time>2026-05-01T15:23:58Z</time></trkpt><trkpt lat="40.900193529255915" lon="9.220435708434948"><ele>565.0</ele><time>2026-05-01T15:23:59Z</time></trkpt><trkpt lat="40.900235816672684" lon="9.220113911549614"><ele>565.0</ele><time>2026-05-01T15:24:00Z</time></trkpt><trkpt lat="40.900276070543256" lon="9.21981344871152"><ele>563.5</ele><time>2026-05-01T15:24:01Z</time></trkpt><trkpt lat="40.90032372963541" lon="9.219526006648962"><ele>562.0</ele><time>2026-05-01T15:24:02Z</time></trkpt><trkpt lat="40.90039709289636" lon="9.219237030905399"><ele>561.5</ele><time>2026-05-01T15:24:03Z</time></trkpt><trkpt lat="40.90048830593638" lon="9.218946704989046"><ele>561.0</ele><time>2026-05-01T15:24:04Z</time></trkpt><trkpt lat="40.90058442492087" lon="9.2186517801376"><ele>561.0</ele><time>2026-05-01T15:24:05Z</time></trkpt><trkpt lat="40.90066503377754" lon="9.218362672421932"><ele>561.0</ele><time>2026-05-01T15:24:06Z</time></trkpt><trkpt lat="40.90075675073142" lon="9.218088353481624"><ele>561.0</ele><time>2026-05-01T15:24:07Z</time></trkpt><trkpt lat="40.90084655746083" lon="9.21781823624962"><ele>561.0</ele><time>2026-05-01T15:24:08Z</time></trkpt><trkpt lat="40.900932898834554" lon="9.217552818055834"><ele>561.0</ele><time>2026-05-01T15:24:09Z</time></trkpt><trkpt lat="40.90101662343119" lon="9.217290452875092"><ele>560.3333333333334</ele><time>2026-05-01T15:24:10Z</time></trkpt><trkpt lat="40.90110331938515" lon="9.21702867850093"><ele>559.6666666666667</ele><time>2026-05-01T15:24:11Z</time></trkpt><trkpt lat="40.901207028924084" lon="9.216765612730407"><ele>559.0</ele><time>2026-05-01T15:24:12Z</time></trkpt><trkpt lat="40.901286224693465" lon="9.216480063106596"><ele>557.0</ele><time>2026-05-01T15:24:13Z</time></trkpt><trkpt lat="40.901394139660034" lon="9.216199460778922"><ele>555.0</ele><time>2026-05-01T15:24:14Z</time></trkpt><trkpt lat="40.90149201379072" lon="9.215903942747728"><ele>553.0</ele><time>2026-05-01T15:24:15Z</time></trkpt><trkpt lat="40.901592517172" lon="9.215600485946618"><ele>551.0</ele><time>2026-05-01T15:24:16Z</time></trkpt><trkpt lat="40.90168440259415" lon="9.215282929303058"><ele>550.0</ele><time>2026-05-01T15:24:17Z</time></trkpt><trkpt lat="40.90179363578767" lon="9.214966468153904"><ele>549.0</ele><time>2026-05-01T15:24:18Z</time></trkpt><trkpt lat="40.901898954867406" lon="9.214645679809296"><ele>547.5</ele><time>2026-05-01T15:24:19Z</time></trkpt><trkpt lat="40.90200668423822" lon="9.21431696255325"><ele>546.0</ele><time>2026-05-01T15:24:20Z</time></trkpt><trkpt lat="40.902113341169596" lon="9.213999946484032"><ele>544.5</ele><time>2026-05-01T15:24:21Z</time></trkpt><trkpt lat="40.90221716687587" lon="9.213681060013318"><ele>543.0</ele><time>2026-05-01T15:24:22Z</time></trkpt><trkpt lat="40.902319156167415" lon="9.213380155978117"><ele>543.0</ele><time>2026-05-01T15:24:23Z</time></trkpt><trkpt lat="40.9024158658604" lon="9.21309241583925"><ele>543.0</ele><time>2026-05-01T15:24:24Z</time></trkpt><trkpt lat="40.90251597135023" lon="9.212800997689216"><ele>539.5</ele><time>2026-05-01T15:24:25Z</time></trkpt><trkpt lat="40.90261413708877" lon="9.212507894287867"><ele>536.0</ele><time>2026-05-01T15:24:26Z</time></trkpt><trkpt lat="40.902711842683416" lon="9.212210425617997"><ele>534.0</ele><time>2026-05-01T15:24:27Z</time></trkpt><trkpt lat="40.90281205492265" lon="9.211900448099795"><ele>532.0</ele><time>2026-05-01T15:24:28Z</time></trkpt><trkpt lat="40.90292439140032" lon="9.211579937883592"><ele>533.5</ele><time>2026-05-01T15:24:29Z</time></trkpt><trkpt lat="40.90303938804561" lon="9.211268428748854"><ele>535.0</ele><time>2026-05-01T15:24:30Z</time></trkpt><trkpt lat="40.9031391198624" lon="9.210947090179232"><ele>535.5</ele><time>2026-05-01T15:24:31Z</time></trkpt><trkpt lat="40.90324811188179" lon="9.210623448512674"><ele>536.0</ele><time>2026-05-01T15:24:32Z</time></trkpt><trkpt lat="40.9033554867932" lon="9.210301092764649"><ele>537.0</ele><time>2026-05-01T15:24:33Z</time></trkpt><trkpt lat="40.90345974906003" lon="9.209985261803116"><ele>538.0</ele><time>2026-05-01T15:24:34Z</time></trkpt><trkpt lat="40.903568634546026" lon="9.209662207061134"><ele>539.0</ele><time>2026-05-01T15:24:35Z</time></trkpt><trkpt lat="40.90367793568017" lon="9.209345874871827"><ele>540.0</ele><time>2026-05-01T15:24:36Z</time></trkpt><trkpt lat="40.90377588140091" lon="9.209047441320687"><ele>540.0</ele><time>2026-05-01T15:24:37Z</time></trkpt><trkpt lat="40.90385672298545" lon="9.208758330016169"><ele>540.0</ele><time>2026-05-01T15:24:38Z</time></trkpt><trkpt lat="40.9039040243781" lon="9.20847658293393"><ele>540.0</ele><time>2026-05-01T15:24:39Z</time></trkpt><trkpt lat="40.90395661129699" lon="9.208212524291044"><ele>540.0</ele><time>2026-05-01T15:24:40Z</time></trkpt><trkpt lat="40.9040252629604" lon="9.207995183826904"><ele>540.0</ele><time>2026-05-01T15:24:41Z</time></trkpt><trkpt lat="40.904099941031035" lon="9.20779757192901"><ele>537.3333333333334</ele><time>2026-05-01T15:24:42Z</time></trkpt><trkpt lat="40.904206933298674" lon="9.207662705626648"><ele>534.6666666666667</ele><time>2026-05-01T15:24:43Z</time></trkpt><trkpt lat="40.904381733929284" lon="9.207646247356214"><ele>532.0</ele><time>2026-05-01T15:24:44Z</time></trkpt><trkpt lat="40.9045912424258" lon="9.207674013330223"><ele>532.0</ele><time>2026-05-01T15:24:45Z</time></trkpt><trkpt lat="40.90480348178517" lon="9.207688785520466"><ele>532.0</ele><time>2026-05-01T15:24:46Z</time></trkpt><trkpt lat="40.90500965144379" lon="9.207677840144992"><ele>532.0</ele><time>2026-05-01T15:24:47Z</time></trkpt><trkpt lat="40.905204931143615" lon="9.20763381893075"><ele>533.3333333333334</ele><time>2026-05-01T15:24:48Z</time></trkpt><trkpt lat="40.90539446752181" lon="9.207530031624918"><ele>534.6666666666666</ele><time>2026-05-01T15:24:49Z</time></trkpt><trkpt lat="40.90555739202417" lon="9.207389765233149"><ele>536.0</ele><time>2026-05-01T15:24:50Z</time></trkpt><trkpt lat="40.905706497501896" lon="9.20719881346624"><ele>536.0</ele><time>2026-05-01T15:24:51Z</time></trkpt><trkpt lat="40.90581398597443" lon="9.20693176579178"><ele>536.0</ele><time>2026-05-01T15:24:52Z</time></trkpt><trkpt lat="40.90592877582538" lon="9.206669284901283"><ele>539.3333333333333</ele><time>2026-05-01T15:24:53Z</time></trkpt><trkpt lat="40.90604541808921" lon="9.20641185970785"><ele>542.6666666666666</ele><time>2026-05-01T15:24:54Z</time></trkpt><trkpt lat="40.90615931564535" lon="9.206174860200514"><ele>546.0</ele><time>2026-05-01T15:24:55Z</time></trkpt><trkpt lat="40.906260552561584" lon="9.205953637581185"><ele>546.0</ele><time>2026-05-01T15:24:56Z</time></trkpt><trkpt lat="40.90638474815534" lon="9.205755969654872"><ele>546.0</ele><time>2026-05-01T15:24:57Z</time></trkpt><trkpt lat="40.90655758139217" lon="9.20559343561042"><ele>546.0</ele><time>2026-05-01T15:24:58Z</time></trkpt><trkpt lat="40.90674552011365" lon="9.205449276886473"><ele>546.0</ele><time>2026-05-01T15:24:59Z</time></trkpt><trkpt lat="40.90693239981943" lon="9.205301699987844"><ele>546.0</ele><time>2026-05-01T15:25:00Z</time></trkpt><trkpt lat="40.907116907244614" lon="9.205180001732595"><ele>546.0</ele><time>2026-05-01T15:25:01Z</time></trkpt><trkpt lat="40.907253577397285" lon="9.205041627885695"><ele>546.0</ele><time>2026-05-01T15:25:02Z</time></trkpt><trkpt lat="40.907413809230825" lon="9.204937823474573"><ele>546.0</ele><time>2026-05-01T15:25:03Z</time></trkpt><trkpt lat="40.907581237767495" lon="9.204901002869816"><ele>546.0</ele><time>2026-05-01T15:25:04Z</time></trkpt><trkpt lat="40.90775123114105" lon="9.204917915335155"><ele>546.3333333333334</ele><time>2026-05-01T15:25:05Z</time></trkpt><trkpt lat="40.90792297238035" lon="9.204966342126918"><ele>546.6666666666667</ele><time>2026-05-01T15:25:06Z</time></trkpt><trkpt lat="40.9081548892731" lon="9.20501809840092"><ele>547.0</ele><time>2026-05-01T15:25:07Z</time></trkpt><trkpt lat="40.90835238652785" lon="9.205089474971071"><ele>547.3333333333334</ele><time>2026-05-01T15:25:08Z</time></trkpt><trkpt lat="40.90853285455224" lon="9.205167340704833"><ele>547.6666666666666</ele><time>2026-05-01T15:25:09Z</time></trkpt><trkpt lat="40.9087038227106" lon="9.205247078342806"><ele>548.0</ele><time>2026-05-01T15:25:10Z</time></trkpt><trkpt lat="40.90885014183924" lon="9.205270578555261"><ele>548.0</ele><time>2026-05-01T15:25:11Z</time></trkpt><trkpt lat="40.90897928584225" lon="9.205220147168276"><ele>548.0</ele><time>2026-05-01T15:25:12Z</time></trkpt><trkpt lat="40.90909478968188" lon="9.20510913150776"><ele>548.0</ele><time>2026-05-01T15:25:13Z</time></trkpt><trkpt lat="40.90919367360773" lon="9.204934890241084"><ele>548.0</ele><time>2026-05-01T15:25:14Z</time></trkpt><trkpt lat="40.90926711909561" lon="9.204739090597961"><ele>553.0</ele><time>2026-05-01T15:25:15Z</time></trkpt><trkpt lat="40.909362027730346" lon="9.204581879638297"><ele>558.0</ele><time>2026-05-01T15:25:16Z</time></trkpt><trkpt lat="40.90948433893165" lon="9.204450537851045"><ele>563.0</ele><time>2026-05-01T15:25:17Z</time></trkpt><trkpt lat="40.90957863375395" lon="9.204304431613973"><ele>563.0</ele><time>2026-05-01T15:25:18Z</time></trkpt><trkpt lat="40.90962324943495" lon="9.204136051879368"><ele>563.0</ele><time>2026-05-01T15:25:19Z</time></trkpt><trkpt lat="40.909640790426884" lon="9.203933956126969"><ele>563.0</ele><time>2026-05-01T15:25:20Z</time></trkpt><trkpt lat="40.90964753400073" lon="9.203694399898028"><ele>563.3333333333333</ele><time>2026-05-01T15:25:21Z</time></trkpt><trkpt lat="40.90964874070633" lon="9.203418516523397"><ele>563.6666666666666</ele><time>2026-05-01T15:25:22Z</time></trkpt><trkpt lat="40.90964271352503" lon="9.203113729903778"><ele>564.0</ele><time>2026-05-01T15:25:23Z</time></trkpt><trkpt lat="40.90964745307931" lon="9.202830829808859"><ele>565.0</ele><time>2026-05-01T15:25:24Z</time></trkpt><trkpt lat="40.909643326755706" lon="9.202582322409553"><ele>566.0</ele><time>2026-05-01T15:25:25Z</time></trkpt><trkpt lat="40.90961342518934" lon="9.202349718224788"><ele>567.0</ele><time>2026-05-01T15:25:26Z</time></trkpt><trkpt lat="40.90953636348216" lon="9.202128714744786"><ele>568.0</ele><time>2026-05-01T15:25:27Z</time></trkpt><trkpt lat="40.909418187619" lon="9.201948147910105"><ele>569.0</ele><time>2026-05-01T15:25:28Z</time></trkpt><trkpt lat="40.909268411854825" lon="9.201762698142645"><ele>570.0</ele><time>2026-05-01T15:25:29Z</time></trkpt><trkpt lat="40.90912229942973" lon="9.201537974689588"><ele>567.0</ele><time>2026-05-01T15:25:30Z</time></trkpt><trkpt lat="40.90898823538303" lon="9.20128815429983"><ele>564.0</ele><time>2026-05-01T15:25:31Z</time></trkpt><trkpt lat="40.908860866757216" lon="9.201014125552451"><ele>564.0</ele><time>2026-05-01T15:25:32Z</time></trkpt><trkpt lat="40.90871807788681" lon="9.200729649832047"><ele>564.0</ele><time>2026-05-01T15:25:33Z</time></trkpt><trkpt lat="40.90858633242062" lon="9.200438963724356"><ele>559.5</ele><time>2026-05-01T15:25:34Z</time></trkpt><trkpt lat="40.90847726596584" lon="9.200163310898969"><ele>555.0</ele><time>2026-05-01T15:25:35Z</time></trkpt><trkpt lat="40.90838666861993" lon="9.199893858329"><ele>555.6666666666666</ele><time>2026-05-01T15:25:36Z</time></trkpt><trkpt lat="40.90831704174436" lon="9.199662036238026"><ele>556.3333333333333</ele><time>2026-05-01T15:25:37Z</time></trkpt><trkpt lat="40.9082751853924" lon="9.199449347451813"><ele>557.0</ele><time>2026-05-01T15:25:38Z</time></trkpt><trkpt lat="40.90827712555808" lon="9.199225406193337"><ele>557.0</ele><time>2026-05-01T15:25:39Z</time></trkpt><trkpt lat="40.90832256372799" lon="9.199014755197329"><ele>557.0</ele><time>2026-05-01T15:25:40Z</time></trkpt><trkpt lat="40.908434490470235" lon="9.198822733029015"><ele>557.0</ele><time>2026-05-01T15:25:41Z</time></trkpt><trkpt lat="40.908548583525494" lon="9.198613616293356"><ele>560.6666666666666</ele><time>2026-05-01T15:25:42Z</time></trkpt><trkpt lat="40.90866749951968" lon="9.198402772738788"><ele>564.3333333333334</ele><time>2026-05-01T15:25:43Z</time></trkpt><trkpt lat="40.9087443069397" lon="9.198156756107794"><ele>568.0</ele><time>2026-05-01T15:25:44Z</time></trkpt><trkpt lat="40.90879871768824" lon="9.197856403488982"><ele>568.0</ele><time>2026-05-01T15:25:45Z</time></trkpt><trkpt lat="40.90888572138066" lon="9.197607574369199"><ele>568.0</ele><time>2026-05-01T15:25:46Z</time></trkpt><trkpt lat="40.90901649737458" lon="9.197394539450444"><ele>568.0</ele><time>2026-05-01T15:25:47Z</time></trkpt><trkpt lat="40.90911828700853" lon="9.197137101077868"><ele>566.6666666666667</ele><time>2026-05-01T15:25:48Z</time></trkpt><trkpt lat="40.909180388483584" lon="9.196864034365387"><ele>565.3333333333334</ele><time>2026-05-01T15:25:49Z</time></trkpt><trkpt lat="40.90921923869962" lon="9.196576738763609"><ele>564.0</ele><time>2026-05-01T15:25:50Z</time></trkpt><trkpt lat="40.9092144272348" lon="9.196290754829157"><ele>563.0</ele><time>2026-05-01T15:25:51Z</time></trkpt><trkpt lat="40.90920651193513" lon="9.196043658424951"><ele>562.0</ele><time>2026-05-01T15:25:52Z</time></trkpt><trkpt lat="40.909209566347855" lon="9.1958403160003"><ele>561.0</ele><time>2026-05-01T15:25:53Z</time></trkpt><trkpt lat="40.909246356364314" lon="9.195696070218823"><ele>564.0</ele><time>2026-05-01T15:25:54Z</time></trkpt><trkpt lat="40.90931854823154" lon="9.195612114303486"><ele>567.0</ele><time>2026-05-01T15:25:55Z</time></trkpt><trkpt lat="40.90944843373176" lon="9.195519640285726"><ele>570.0</ele><time>2026-05-01T15:25:56Z</time></trkpt><trkpt lat="40.90964408100272" lon="9.195406341409951"><ele>570.0</ele><time>2026-05-01T15:25:57Z</time></trkpt><trkpt lat="40.90983084240477" lon="9.195298664243488"><ele>570.0</ele><time>2026-05-01T15:25:58Z</time></trkpt><trkpt lat="40.91002340554424" lon="9.195164606324791"><ele>570.0</ele><time>2026-05-01T15:25:59Z</time></trkpt><trkpt lat="40.910225984843855" lon="9.19505891827244"><ele>568.6666666666666</ele><time>2026-05-01T15:26:00Z</time></trkpt><trkpt lat="40.910436478422824" lon="9.19495145226229"><ele>567.3333333333333</ele><time>2026-05-01T15:26:01Z</time></trkpt><trkpt lat="40.91064140729929" lon="9.194856376621939"><ele>566.0</ele><time>2026-05-01T15:26:02Z</time></trkpt><trkpt lat="40.91083561493716" lon="9.1947904088712"><ele>567.0</ele><time>2026-05-01T15:26:03Z</time></trkpt><trkpt lat="40.91102363373274" lon="9.19471524128129"><ele>568.0</ele><time>2026-05-01T15:26:04Z</time></trkpt><trkpt lat="40.911200939327976" lon="9.194639276096773"><ele>569.0</ele><time>2026-05-01T15:26:05Z</time></trkpt><trkpt lat="40.91137028354412" lon="9.19456931472622"><ele>569.0</ele><time>2026-05-01T15:26:06Z</time></trkpt><trkpt lat="40.911559433952334" lon="9.194524211743277"><ele>569.0</ele><time>2026-05-01T15:26:07Z</time></trkpt><trkpt lat="40.91163292735796" lon="9.194410838311176"><ele>569.0</ele><time>2026-05-01T15:26:08Z</time></trkpt><trkpt lat="40.911786235712476" lon="9.19442261386376"><ele>569.0</ele><time>2026-05-01T15:26:09Z</time></trkpt><trkpt lat="40.9119234794743" lon="9.194481436537526"><ele>569.0</ele><time>2026-05-01T15:26:10Z</time></trkpt><trkpt lat="40.91206311060227" lon="9.19455921083278"><ele>569.0</ele><time>2026-05-01T15:26:11Z</time></trkpt><trkpt lat="40.91215709606314" lon="9.19467375200989"><ele>569.0</ele><time>2026-05-01T15:26:12Z</time></trkpt><trkpt lat="40.91226159164212" lon="9.194801522352964"><ele>564.6666666666666</ele><time>2026-05-01T15:26:13Z</time></trkpt><trkpt lat="40.91236479068362" lon="9.194956945214589"><ele>560.3333333333334</ele><time>2026-05-01T15:26:14Z</time></trkpt><trkpt lat="40.91244895184829" lon="9.1951312313403"><ele>556.0</ele><time>2026-05-01T15:26:15Z</time></trkpt><trkpt lat="40.912526431718625" lon="9.195328559179481"><ele>553.3333333333334</ele><time>2026-05-01T15:26:16Z</time></trkpt><trkpt lat="40.91258426022696" lon="9.195536472481995"><ele>550.6666666666666</ele><time>2026-05-01T15:26:17Z</time></trkpt><trkpt lat="40.912622519566575" lon="9.195741927430818"><ele>548.0</ele><time>2026-05-01T15:26:18Z</time></trkpt><trkpt lat="40.91263411411018" lon="9.195937360879403"><ele>546.75</ele><time>2026-05-01T15:26:19Z</time></trkpt><trkpt lat="40.91260254702267" lon="9.196114202197526"><ele>545.5</ele><time>2026-05-01T15:26:20Z</time></trkpt><trkpt lat="40.912573065000764" lon="9.19631331286859"><ele>544.25</ele><time>2026-05-01T15:26:21Z</time></trkpt><trkpt lat="40.912602965215534" lon="9.196493783838385"><ele>543.0</ele><time>2026-05-01T15:26:22Z</time></trkpt><trkpt lat="40.91266786028168" lon="9.196653718260338"><ele>543.0</ele><time>2026-05-01T15:26:23Z</time></trkpt><trkpt lat="40.91277522743413" lon="9.196791966662168"><ele>543.0</ele><time>2026-05-01T15:26:24Z</time></trkpt><trkpt lat="40.91289945872703" lon="9.196914424524447"><ele>543.0</ele><time>2026-05-01T15:26:25Z</time></trkpt><trkpt lat="40.91302729172314" lon="9.197043122598654"><ele>543.0</ele><time>2026-05-01T15:26:26Z</time></trkpt><trkpt lat="40.91313930442549" lon="9.197200010782039"><ele>543.0</ele><time>2026-05-01T15:26:27Z</time></trkpt><trkpt lat="40.91320745499136" lon="9.197401098288273"><ele>543.0</ele><time>2026-05-01T15:26:28Z</time></trkpt><trkpt lat="40.91328038934309" lon="9.19760789641352"><ele>544.0</ele><time>2026-05-01T15:26:29Z</time></trkpt><trkpt lat="40.91334785199961" lon="9.19782189298487"><ele>545.0</ele><time>2026-05-01T15:26:30Z</time></trkpt><trkpt lat="40.91339330647037" lon="9.198040425483313"><ele>546.0</ele><time>2026-05-01T15:26:31Z</time></trkpt><trkpt lat="40.91345159896756" lon="9.19824076252865"><ele>543.5</ele><time>2026-05-01T15:26:32Z</time></trkpt><trkpt lat="40.91349708428548" lon="9.19841839382384"><ele>541.0</ele><time>2026-05-01T15:26:33Z</time></trkpt><trkpt lat="40.91357966252776" lon="9.198559698237272"><ele>538.5</ele><time>2026-05-01T15:26:34Z</time></trkpt><trkpt lat="40.91370101777808" lon="9.198648472638993"><ele>536.0</ele><time>2026-05-01T15:26:35Z</time></trkpt><trkpt lat="40.91384722304406" lon="9.198687552402218"><ele>536.0</ele><time>2026-05-01T15:26:36Z</time></trkpt><trkpt lat="40.913989233015435" lon="9.198712677476056"><ele>536.0</ele><time>2026-05-01T15:26:37Z</time></trkpt><trkpt lat="40.91411434831977" lon="9.198740225798273"><ele>536.0</ele><time>2026-05-01T15:26:38Z</time></trkpt><trkpt lat="40.91423123391706" lon="9.198791343155449"><ele>536.0</ele><time>2026-05-01T15:26:39Z</time></trkpt><trkpt lat="40.914348786954505" lon="9.198868245700817"><ele>534.3333333333333</ele><time>2026-05-01T15:26:40Z</time></trkpt><trkpt lat="40.91447699998764" lon="9.198966528929903"><ele>532.6666666666666</ele><time>2026-05-01T15:26:41Z</time></trkpt><trkpt lat="40.914606247491726" lon="9.199085084106775"><ele>531.0</ele><time>2026-05-01T15:26:42Z</time></trkpt><trkpt lat="40.9147160453497" lon="9.199219491120356"><ele>531.0</ele><time>2026-05-01T15:26:43Z</time></trkpt><trkpt lat="40.91481748118405" lon="9.199340616640823"><ele>531.0</ele><time>2026-05-01T15:26:44Z</time></trkpt><trkpt lat="40.91492032173177" lon="9.19944073053054"><ele>531.0</ele><time>2026-05-01T15:26:45Z</time></trkpt><trkpt lat="40.915024809409175" lon="9.199517727304306"><ele>531.0</ele><time>2026-05-01T15:26:46Z</time></trkpt><trkpt lat="40.91513712791053" lon="9.199578738691256"><ele>529.25</ele><time>2026-05-01T15:26:47Z</time></trkpt><trkpt lat="40.915266168127474" lon="9.199623536961477"><ele>527.5</ele><time>2026-05-01T15:26:48Z</time></trkpt><trkpt lat="40.91540659456443" lon="9.199635013342881"><ele>525.75</ele><time>2026-05-01T15:26:49Z</time></trkpt><trkpt lat="40.91555165846273" lon="9.199594334691964"><ele>524.0</ele><time>2026-05-01T15:26:50Z</time></trkpt><trkpt lat="40.91569039870403" lon="9.199553070654895"><ele>524.0</ele><time>2026-05-01T15:26:51Z</time></trkpt><trkpt lat="40.91580949722954" lon="9.199506203254307"><ele>524.0</ele><time>2026-05-01T15:26:52Z</time></trkpt><trkpt lat="40.9159129560698" lon="9.19946411133304"><ele>524.0</ele><time>2026-05-01T15:26:53Z</time></trkpt><trkpt lat="40.91602162516623" lon="9.199432095725559"><ele>524.0</ele><time>2026-05-01T15:26:54Z</time></trkpt><trkpt lat="40.91613036006623" lon="9.199402458270281"><ele>523.75</ele><time>2026-05-01T15:26:55Z</time></trkpt><trkpt lat="40.916241076761" lon="9.199369378449042"><ele>523.5</ele><time>2026-05-01T15:26:56Z</time></trkpt><trkpt lat="40.91635711779413" lon="9.1993314242745"><ele>523.25</ele><time>2026-05-01T15:26:57Z</time></trkpt><trkpt lat="40.9164722394654" lon="9.199290918267378"><ele>523.0</ele><time>2026-05-01T15:26:58Z</time></trkpt><trkpt lat="40.91658579742188" lon="9.199251176245843"><ele>523.0</ele><time>2026-05-01T15:26:59Z</time></trkpt><trkpt lat="40.91669583168082" lon="9.199199211341739"><ele>523.0</ele><time>2026-05-01T15:27:00Z</time></trkpt><trkpt lat="40.91679340435748" lon="9.199108221441978"><ele>523.0</ele><time>2026-05-01T15:27:01Z</time></trkpt><trkpt lat="40.916886511203096" lon="9.198972235946446"><ele>523.0</ele><time>2026-05-01T15:27:02Z</time></trkpt><trkpt lat="40.916985315364514" lon="9.19883119894885"><ele>523.25</ele><time>2026-05-01T15:27:03Z</time></trkpt><trkpt lat="40.91707848838243" lon="9.198681136369242"><ele>523.5</ele><time>2026-05-01T15:27:04Z</time></trkpt><trkpt lat="40.91716691003658" lon="9.198526057815302"><ele>523.75</ele><time>2026-05-01T15:27:05Z</time></trkpt><trkpt lat="40.91725128688221" lon="9.198389813003606"><ele>524.0</ele><time>2026-05-01T15:27:06Z</time></trkpt><trkpt lat="40.91732969866205" lon="9.19826199749727"><ele>523.75</ele><time>2026-05-01T15:27:07Z</time></trkpt><trkpt lat="40.91740521132139" lon="9.19814190536827"><ele>523.5</ele><time>2026-05-01T15:27:08Z</time></trkpt><trkpt lat="40.91747849135017" lon="9.198018918548325"><ele>523.25</ele><time>2026-05-01T15:27:09Z</time></trkpt><trkpt lat="40.91755336982276" lon="9.19789187262387"><ele>523.0</ele><time>2026-05-01T15:27:10Z</time></trkpt><trkpt lat="40.91763271635487" lon="9.197761665417916"><ele>523.0</ele><time>2026-05-01T15:27:11Z</time></trkpt><trkpt lat="40.91771603739217" lon="9.197630776276347"><ele>523.0</ele><time>2026-05-01T15:27:12Z</time></trkpt><trkpt lat="40.91780413875961" lon="9.197495518553286"><ele>523.0</ele><time>2026-05-01T15:27:13Z</time></trkpt><trkpt lat="40.917893179676845" lon="9.19735689620673"><ele>523.0</ele><time>2026-05-01T15:27:14Z</time></trkpt><trkpt lat="40.91800387005197" lon="9.197241436995526"><ele>521.0</ele><time>2026-05-01T15:27:15Z</time></trkpt><trkpt lat="40.91812129577122" lon="9.197144083154065"><ele>519.0</ele><time>2026-05-01T15:27:16Z</time></trkpt><trkpt lat="40.91826341898291" lon="9.197062502795914"><ele>517.0</ele><time>2026-05-01T15:27:17Z</time></trkpt><trkpt lat="40.91841081841482" lon="9.196985587159823"><ele>517.0</ele><time>2026-05-01T15:27:18Z</time></trkpt><trkpt lat="40.918569537466034" lon="9.196943468992401"><ele>517.0</ele><time>2026-05-01T15:27:19Z</time></trkpt><trkpt lat="40.9187294116577" lon="9.196901554957329"><ele>517.0</ele><time>2026-05-01T15:27:20Z</time></trkpt><trkpt lat="40.91888362901842" lon="9.196842219864669"><ele>517.0</ele><time>2026-05-01T15:27:21Z</time></trkpt><trkpt lat="40.91902925250657" lon="9.196736550202223"><ele>517.0</ele><time>2026-05-01T15:27:22Z</time></trkpt><trkpt lat="40.919156344454464" lon="9.196640841220493"><ele>517.0</ele><time>2026-05-01T15:27:23Z</time></trkpt><trkpt lat="40.91927445098191" lon="9.196558604997144"><ele>517.0</ele><time>2026-05-01T15:27:24Z</time></trkpt><trkpt lat="40.91938513602379" lon="9.196481758007861"><ele>516.8000000000001</ele><time>2026-05-01T15:27:25Z</time></trkpt><trkpt lat="40.91948861001615" lon="9.196409957351557"><ele>516.6</ele><time>2026-05-01T15:27:26Z</time></trkpt><trkpt lat="40.919584035733116" lon="9.196341803619058"><ele>516.4000000000001</ele><time>2026-05-01T15:27:27Z</time></trkpt><trkpt lat="40.91967302369983" lon="9.196278546432938"><ele>516.2</ele><time>2026-05-01T15:27:28Z</time></trkpt><trkpt lat="40.9197583695999" lon="9.196215074154622"><ele>516.0</ele><time>2026-05-01T15:27:29Z</time></trkpt><trkpt lat="40.91984568152164" lon="9.19614273017246"><ele>516.0</ele><time>2026-05-01T15:27:30Z</time></trkpt><trkpt lat="40.919934775797465" lon="9.196063866366014"><ele>516.0</ele><time>2026-05-01T15:27:31Z</time></trkpt><trkpt lat="40.92002101315538" lon="9.195968789444663"><ele>516.0</ele><time>2026-05-01T15:27:32Z</time></trkpt><trkpt lat="40.920099974652956" lon="9.195857742523268"><ele>516.0</ele><time>2026-05-01T15:27:33Z</time></trkpt><trkpt lat="40.920168562953165" lon="9.19573708481279"><ele>516.0</ele><time>2026-05-01T15:27:34Z</time></trkpt><trkpt lat="40.92023284717599" lon="9.195610313514576"><ele>516.75</ele><time>2026-05-01T15:27:35Z</time></trkpt><trkpt lat="40.92029161879094" lon="9.195479847226501"><ele>517.5</ele><time>2026-05-01T15:27:36Z</time></trkpt><trkpt lat="40.92034784006442" lon="9.195343256900998"><ele>518.25</ele><time>2026-05-01T15:27:37Z</time></trkpt><trkpt lat="40.92039367638758" lon="9.195196815182108"><ele>519.0</ele><time>2026-05-01T15:27:38Z</time></trkpt><trkpt lat="40.920432001163405" lon="9.195041135133863"><ele>519.0</ele><time>2026-05-01T15:27:39Z</time></trkpt><trkpt lat="40.920485654444256" lon="9.194895170148946"><ele>519.0</ele><time>2026-05-01T15:27:40Z</time></trkpt><trkpt lat="40.920524703145254" lon="9.19474197357518"><ele>519.0</ele><time>2026-05-01T15:27:41Z</time></trkpt><trkpt lat="40.920551482006466" lon="9.194581215239912"><ele>519.0</ele><time>2026-05-01T15:27:42Z</time></trkpt><trkpt lat="40.92059527346738" lon="9.19442432161611"><ele>517.5</ele><time>2026-05-01T15:27:43Z</time></trkpt><trkpt lat="40.920642449233384" lon="9.194263157244013"><ele>516.0</ele><time>2026-05-01T15:27:44Z</time></trkpt><trkpt lat="40.92072240796567" lon="9.194122167400254"><ele>514.5</ele><time>2026-05-01T15:27:45Z</time></trkpt><trkpt lat="40.920801257345026" lon="9.193976697262217"><ele>513.0</ele><time>2026-05-01T15:27:46Z</time></trkpt><trkpt lat="40.92086153221839" lon="9.193837861902594"><ele>512.4</ele><time>2026-05-01T15:27:47Z</time></trkpt><trkpt lat="40.9209279243496" lon="9.193720271702398"><ele>511.79999999999995</ele><time>2026-05-01T15:27:48Z</time></trkpt><trkpt lat="40.92098644114262" lon="9.193609215296544"><ele>511.2</ele><time>2026-05-01T15:27:49Z</time></trkpt><trkpt lat="40.9210388832775" lon="9.193503862771415"><ele>510.6</ele><time>2026-05-01T15:27:50Z</time></trkpt><trkpt lat="40.921086854553245" lon="9.1934054507902"><ele>510.0</ele><time>2026-05-01T15:27:51Z</time></trkpt><trkpt lat="40.92112857001785" lon="9.19331037947993"><ele>510.0</ele><time>2026-05-01T15:27:52Z</time></trkpt><trkpt lat="40.9211574291508" lon="9.193207287700334"><ele>510.0</ele><time>2026-05-01T15:27:53Z</time></trkpt><trkpt lat="40.92116048980158" lon="9.193089128312895"><ele>510.0</ele><time>2026-05-01T15:27:54Z</time></trkpt><trkpt lat="40.92115966937138" lon="9.19296726685829"><ele>510.0</ele><time>2026-05-01T15:27:55Z</time></trkpt><trkpt lat="40.92110893024884" lon="9.192849498703024"><ele>510.0</ele><time>2026-05-01T15:27:56Z</time></trkpt><trkpt lat="40.9210129556166" lon="9.192777365748169"><ele>510.0</ele><time>2026-05-01T15:27:57Z</time></trkpt><trkpt lat="40.920925887767964" lon="9.192699575749053"><ele>510.0</ele><time>2026-05-01T15:27:58Z</time></trkpt><trkpt lat="40.920837972582476" lon="9.192622612827671"><ele>510.0</ele><time>2026-05-01T15:27:59Z</time></trkpt><trkpt lat="40.92074805205284" lon="9.192541954327144"><ele>510.0</ele><time>2026-05-01T15:28:00Z</time></trkpt><trkpt lat="40.920662191333626" lon="9.19245073603579"><ele>510.0</ele><time>2026-05-01T15:28:01Z</time></trkpt><trkpt lat="40.92057566568766" lon="9.192353979994584"><ele>509.4</ele><time>2026-05-01T15:28:02Z</time></trkpt><trkpt lat="40.920503831665506" lon="9.192234923869629"><ele>508.8</ele><time>2026-05-01T15:28:03Z</time></trkpt><trkpt lat="40.92042195435639" lon="9.192133216108676"><ele>508.20000000000005</ele><time>2026-05-01T15:28:04Z</time></trkpt><trkpt lat="40.92035272894448" lon="9.192027780643878"><ele>507.6</ele><time>2026-05-01T15:28:05Z</time></trkpt><trkpt lat="40.92030352351347" lon="9.191911011286942"><ele>507.0</ele><time>2026-05-01T15:28:06Z</time></trkpt><trkpt lat="40.920267470616096" lon="9.191788378705668"><ele>507.0</ele><time>2026-05-01T15:28:07Z</time></trkpt><trkpt lat="40.92026664510025" lon="9.191661844131625"><ele>507.00000000000006</ele><time>2026-05-01T15:28:08Z</time></trkpt><trkpt lat="40.920273751275886" lon="9.19153068010841"><ele>507.00000000000006</ele><time>2026-05-01T15:28:09Z</time></trkpt><trkpt lat="40.92028691241459" lon="9.191397792056787"><ele>507.0</ele><time>2026-05-01T15:28:10Z</time></trkpt><trkpt lat="40.920317679315744" lon="9.191270257888982"><ele>507.0</ele><time>2026-05-01T15:28:11Z</time></trkpt><trkpt lat="40.92034883170904" lon="9.19113784765042"><ele>506.0</ele><time>2026-05-01T15:28:12Z</time></trkpt><trkpt lat="40.9203832101443" lon="9.19100258817375"><ele>505.00000000000006</ele><time>2026-05-01T15:28:13Z</time></trkpt><trkpt lat="40.92042161128585" lon="9.19086436470663"><ele>504.00000000000006</ele><time>2026-05-01T15:28:14Z</time></trkpt><trkpt lat="40.92046692889582" lon="9.190730511694623"><ele>503.0</ele><time>2026-05-01T15:28:15Z</time></trkpt><trkpt lat="40.92051571972735" lon="9.190594955149498"><ele>502.0</ele><time>2026-05-01T15:28:16Z</time></trkpt><trkpt lat="40.92056559238477" lon="9.190455354465952"><ele>498.75</ele><time>2026-05-01T15:28:17Z</time></trkpt><trkpt lat="40.92061563522191" lon="9.19031393208037"><ele>495.5</ele><time>2026-05-01T15:28:18Z</time></trkpt><trkpt lat="40.92066681903418" lon="9.190171089712292"><ele>492.25</ele><time>2026-05-01T15:28:19Z</time></trkpt><trkpt lat="40.92072682910779" lon="9.190034941341132"><ele>489.0</ele><time>2026-05-01T15:28:20Z</time></trkpt><trkpt lat="40.92080802142075" lon="9.189919741497732"><ele>488.0</ele><time>2026-05-01T15:28:21Z</time></trkpt><trkpt lat="40.92090862359649" lon="9.189831363947453"><ele>487.0</ele><time>2026-05-01T15:28:22Z</time></trkpt><trkpt lat="40.92101736333383" lon="9.189756177161764"><ele>486.0</ele><time>2026-05-01T15:28:23Z</time></trkpt><trkpt lat="40.921124871135355" lon="9.189674821650968"><ele>485.0</ele><time>2026-05-01T15:28:24Z</time></trkpt><trkpt lat="40.92122798944182" lon="9.189587508957924"><ele>485.0</ele><time>2026-05-01T15:28:25Z</time></trkpt><trkpt lat="40.92133300439934" lon="9.189503723708858"><ele>485.0</ele><time>2026-05-01T15:28:26Z</time></trkpt><trkpt lat="40.92143632219789" lon="9.189421706022035"><ele>485.0</ele><time>2026-05-01T15:28:27Z</time></trkpt><trkpt lat="40.92153645260162" lon="9.189333211607085"><ele>485.0</ele><time>2026-05-01T15:28:28Z</time></trkpt><trkpt lat="40.92162953338279" lon="9.189231374662693"><ele>485.0</ele><time>2026-05-01T15:28:29Z</time></trkpt><trkpt lat="40.921716281708115" lon="9.189116719868633"><ele>485.0</ele><time>2026-05-01T15:28:30Z</time></trkpt><trkpt lat="40.92179562331378" lon="9.1889928947819"><ele>485.0</ele><time>2026-05-01T15:28:31Z</time></trkpt><trkpt lat="40.921875886648955" lon="9.188852400592781"><ele>485.0</ele><time>2026-05-01T15:28:32Z</time></trkpt><trkpt lat="40.921954584327175" lon="9.188704398619345"><ele>485.25</ele><time>2026-05-01T15:28:33Z</time></trkpt><trkpt lat="40.92201480440231" lon="9.188536194735608"><ele>485.5</ele><time>2026-05-01T15:28:34Z</time></trkpt><trkpt lat="40.922049429966854" lon="9.188350548512672"><ele>485.75</ele><time>2026-05-01T15:28:35Z</time></trkpt><trkpt lat="40.92205737557895" lon="9.18815500850318"><ele>486.0</ele><time>2026-05-01T15:28:36Z</time></trkpt><trkpt lat="40.92205886572053" lon="9.18796115501936"><ele>484.75</ele><time>2026-05-01T15:28:37Z</time></trkpt><trkpt lat="40.92204339557174" lon="9.187767789394076"><ele>483.5</ele><time>2026-05-01T15:28:38Z</time></trkpt><trkpt lat="40.92201798722703" lon="9.187578367021935"><ele>482.25</ele><time>2026-05-01T15:28:39Z</time></trkpt><trkpt lat="40.92198514592674" lon="9.187393474308873"><ele>481.0</ele><time>2026-05-01T15:28:40Z</time></trkpt><trkpt lat="40.92194764008727" lon="9.187211716927411"><ele>480.75</ele><time>2026-05-01T15:28:41Z</time></trkpt><trkpt lat="40.92192471191419" lon="9.187027705667184"><ele>480.5</ele><time>2026-05-01T15:28:42Z</time></trkpt><trkpt lat="40.921887018340705" lon="9.186848285978328"><ele>480.25</ele><time>2026-05-01T15:28:43Z</time></trkpt><trkpt lat="40.92183358575954" lon="9.186675764512355"><ele>480.0</ele><time>2026-05-01T15:28:44Z</time></trkpt><trkpt lat="40.9217979240348" lon="9.18649981065925"><ele>480.0</ele><time>2026-05-01T15:28:45Z</time></trkpt><trkpt lat="40.92177595000159" lon="9.186318478969584"><ele>480.0</ele><time>2026-05-01T15:28:46Z</time></trkpt><trkpt lat="40.92173887559317" lon="9.186145504292078"><ele>480.0</ele><time>2026-05-01T15:28:47Z</time></trkpt><trkpt lat="40.921700667625146" lon="9.185967265420253"><ele>480.0</ele><time>2026-05-01T15:28:48Z</time></trkpt><trkpt lat="40.921644665684276" lon="9.185784591843056"><ele>478.33333333333337</ele><time>2026-05-01T15:28:49Z</time></trkpt><trkpt lat="40.92160702998227" lon="9.185588452333306"><ele>476.6666666666667</ele><time>2026-05-01T15:28:50Z</time></trkpt><trkpt lat="40.92156359618212" lon="9.185389504405272"><ele>475.0</ele><time>2026-05-01T15:28:51Z</time></trkpt><trkpt lat="40.92151738086911" lon="9.185186345874737"><ele>475.0</ele><time>2026-05-01T15:28:52Z</time></trkpt><trkpt lat="40.92148022343193" lon="9.18497401005275"><ele>475.0</ele><time>2026-05-01T15:28:53Z</time></trkpt><trkpt lat="40.92144198389991" lon="9.18476193347329"><ele>475.0</ele><time>2026-05-01T15:28:54Z</time></trkpt><trkpt lat="40.92138831015594" lon="9.18454764169993"><ele>475.33333333333337</ele><time>2026-05-01T15:28:55Z</time></trkpt><trkpt lat="40.921347076301664" lon="9.184330557460344"><ele>475.66666666666663</ele><time>2026-05-01T15:28:56Z</time></trkpt><trkpt lat="40.9213065046434" lon="9.184115542826232"><ele>476.0</ele><time>2026-05-01T15:28:57Z</time></trkpt><trkpt lat="40.92126263821379" lon="9.183919818335562"><ele>476.0</ele><time>2026-05-01T15:28:58Z</time></trkpt><trkpt lat="40.92122471268141" lon="9.183737657580473"><ele>476.0</ele><time>2026-05-01T15:28:59Z</time></trkpt><trkpt lat="40.92118932027133" lon="9.183557250791486"><ele>476.0</ele><time>2026-05-01T15:29:00Z</time></trkpt><trkpt lat="40.921150833057226" lon="9.18336539486503"><ele>476.0</ele><time>2026-05-01T15:29:01Z</time></trkpt><trkpt lat="40.9211098675808" lon="9.18316908796973"><ele>473.66666666666663</ele><time>2026-05-01T15:29:02Z</time></trkpt><trkpt lat="40.92106547718728" lon="9.182971211929235"><ele>471.33333333333337</ele><time>2026-05-01T15:29:03Z</time></trkpt><trkpt lat="40.92101902590632" lon="9.18277127741625"><ele>469.0</ele><time>2026-05-01T15:29:04Z</time></trkpt><trkpt lat="40.92100576363401" lon="9.182567050774786"><ele>469.0</ele><time>2026-05-01T15:29:05Z</time></trkpt><trkpt lat="40.92100595580313" lon="9.182369772467707"><ele>469.0</ele><time>2026-05-01T15:29:06Z</time></trkpt><trkpt lat="40.92107817297799" lon="9.18220142070186"><ele>469.0</ele><time>2026-05-01T15:29:07Z</time></trkpt><trkpt lat="40.92119306940916" lon="9.182048304311758"><ele>468.33333333333337</ele><time>2026-05-01T15:29:08Z</time></trkpt><trkpt lat="40.92135653451906" lon="9.181934065686876"><ele>467.66666666666663</ele><time>2026-05-01T15:29:09Z</time></trkpt><trkpt lat="40.92154335158494" lon="9.181791011444728"><ele>467.0</ele><time>2026-05-01T15:29:10Z</time></trkpt><trkpt lat="40.92171689014065" lon="9.181665745546256"><ele>466.0</ele><time>2026-05-01T15:29:11Z</time></trkpt><trkpt lat="40.92187304671529" lon="9.181546122301356"><ele>465.0</ele><time>2026-05-01T15:29:12Z</time></trkpt><trkpt lat="40.92202250094777" lon="9.181434589859967"><ele>464.0</ele><time>2026-05-01T15:29:13Z</time></trkpt><trkpt lat="40.92217012596875" lon="9.181335454295336"><ele>464.0</ele><time>2026-05-01T15:29:14Z</time></trkpt><trkpt lat="40.92229953819833" lon="9.181235148168263"><ele>464.0</ele><time>2026-05-01T15:29:15Z</time></trkpt><trkpt lat="40.92240271589421" lon="9.181126441122382"><ele>464.0</ele><time>2026-05-01T15:29:16Z</time></trkpt><trkpt lat="40.922468601341365" lon="9.180981725123933"><ele>464.0</ele><time>2026-05-01T15:29:17Z</time></trkpt><trkpt lat="40.92248991976622" lon="9.180820073527329"><ele>463.66666666666663</ele><time>2026-05-01T15:29:18Z</time></trkpt><trkpt lat="40.922463788537016" lon="9.180652998225977"><ele>463.33333333333337</ele><time>2026-05-01T15:29:19Z</time></trkpt><trkpt lat="40.92239938860428" lon="9.180463082755246"><ele>463.0</ele><time>2026-05-01T15:29:20Z</time></trkpt><trkpt lat="40.922326628891696" lon="9.180223798219734"><ele>463.0</ele><time>2026-05-01T15:29:21Z</time></trkpt><trkpt lat="40.922238329089" lon="9.179961822669181"><ele>463.0</ele><time>2026-05-01T15:29:22Z</time></trkpt><trkpt lat="40.92213802960606" lon="9.17966424536928"><ele>463.0</ele><time>2026-05-01T15:29:23Z</time></trkpt><trkpt lat="40.922023895189874" lon="9.179363958076298"><ele>463.0</ele><time>2026-05-01T15:29:24Z</time></trkpt><trkpt lat="40.92191828065137" lon="9.179052013111392"><ele>461.0</ele><time>2026-05-01T15:29:25Z</time></trkpt><trkpt lat="40.9218195444709" lon="9.17870722342977"><ele>459.0</ele><time>2026-05-01T15:29:26Z</time></trkpt><trkpt lat="40.92170249047059" lon="9.178354609810352"><ele>461.0</ele><time>2026-05-01T15:29:27Z</time></trkpt><trkpt lat="40.92159928231072" lon="9.178046796876016"><ele>463.0</ele><time>2026-05-01T15:29:28Z</time></trkpt><trkpt lat="40.92151205254346" lon="9.177771443156164"><ele>463.0</ele><time>2026-05-01T15:29:29Z</time></trkpt><trkpt lat="40.921443960924506" lon="9.177549291929108"><ele>463.0</ele><time>2026-05-01T15:29:30Z</time></trkpt><trkpt lat="40.92138426144647" lon="9.177361069735602"><ele>463.0</ele><time>2026-05-01T15:29:31Z</time></trkpt><trkpt lat="40.92132718075661" lon="9.177197679015567"><ele>463.0</ele><time>2026-05-01T15:29:32Z</time></trkpt><trkpt lat="40.921261385398296" lon="9.177038004552202"><ele>463.0</ele><time>2026-05-01T15:29:33Z</time></trkpt><trkpt lat="40.921183927805814" lon="9.176909005032075"><ele>463.0</ele><time>2026-05-01T15:29:34Z</time></trkpt><trkpt lat="40.921098151724024" lon="9.176798365593239"><ele>463.0</ele><time>2026-05-01T15:29:35Z</time></trkpt><trkpt lat="40.921009704897955" lon="9.176684853237632"><ele>463.0</ele><time>2026-05-01T15:29:36Z</time></trkpt><trkpt lat="40.9209272840926" lon="9.176582604102306"><ele>462.99999999999994</ele><time>2026-05-01T15:29:37Z</time></trkpt><trkpt lat="40.92083991148913" lon="9.176500276351671"><ele>462.99999999999994</ele><time>2026-05-01T15:29:38Z</time></trkpt><trkpt lat="40.920786212175386" lon="9.176403383954424"><ele>463.0</ele><time>2026-05-01T15:29:39Z</time></trkpt><trkpt lat="40.920758697556224" lon="9.176305841193138"><ele>463.0</ele><time>2026-05-01T15:29:40Z</time></trkpt><trkpt lat="40.920744270644285" lon="9.17614330591191"><ele>463.25</ele><time>2026-05-01T15:29:42Z</time></trkpt><trkpt lat="40.92068485366711" lon="9.176043022453996"><ele>463.5</ele><time>2026-05-01T15:29:43Z</time></trkpt><trkpt lat="40.92061180584351" lon="9.175938023950499"><ele>463.75</ele><time>2026-05-01T15:29:44Z</time></trkpt><trkpt lat="40.9205057107293" lon="9.175822357339486"><ele>464.0</ele><time>2026-05-01T15:29:45Z</time></trkpt><trkpt lat="40.920376258885206" lon="9.175689854281336"><ele>463.3333333333333</ele><time>2026-05-01T15:29:46Z</time></trkpt><trkpt lat="40.92024961810806" lon="9.175518436232956"><ele>462.66666666666663</ele><time>2026-05-01T15:29:47Z</time></trkpt><trkpt lat="40.92009372833309" lon="9.175340400212178"><ele>462.0</ele><time>2026-05-01T15:29:48Z</time></trkpt><trkpt lat="40.9199607548902" lon="9.175165954265383"><ele>462.0</ele><time>2026-05-01T15:29:49Z</time></trkpt><trkpt lat="40.91981377351411" lon="9.17505722529568"><ele>462.0</ele><time>2026-05-01T15:29:50Z</time></trkpt><trkpt lat="40.919706199789346" lon="9.174960735842998"><ele>462.0</ele><time>2026-05-01T15:29:51Z</time></trkpt><trkpt lat="40.91960013254528" lon="9.17484743018638"><ele>462.0</ele><time>2026-05-01T15:29:52Z</time></trkpt><trkpt lat="40.91949272822658" lon="9.17474750736602"><ele>461.5</ele><time>2026-05-01T15:29:53Z</time></trkpt><trkpt lat="40.91937854836842" lon="9.174666868939624"><ele>461.0</ele><time>2026-05-01T15:29:54Z</time></trkpt><trkpt lat="40.91927343185376" lon="9.174605660562133"><ele>460.5</ele><time>2026-05-01T15:29:55Z</time></trkpt><trkpt lat="40.91916965175598" lon="9.174549078965098"><ele>460.0</ele><time>2026-05-01T15:29:56Z</time></trkpt><trkpt lat="40.91906504452737" lon="9.174484471578243"><ele>460.0</ele><time>2026-05-01T15:29:57Z</time></trkpt><trkpt lat="40.918952358955195" lon="9.174404177999833"><ele>460.0</ele><time>2026-05-01T15:29:58Z</time></trkpt><trkpt lat="40.91884837584837" lon="9.174275018579229"><ele>460.0</ele><time>2026-05-01T15:29:59Z</time></trkpt><trkpt lat="40.91874086800996" lon="9.174119598261136"><ele>460.0</ele><time>2026-05-01T15:30:00Z</time></trkpt><trkpt lat="40.91866584833686" lon="9.173920912042435"><ele>461.33333333333337</ele><time>2026-05-01T15:30:01Z</time></trkpt><trkpt lat="40.91856033434197" lon="9.173714896580742"><ele>462.66666666666663</ele><time>2026-05-01T15:30:02Z</time></trkpt><trkpt lat="40.91845030394625" lon="9.173515509759149"><ele>464.0</ele><time>2026-05-01T15:30:03Z</time></trkpt><trkpt lat="40.918338808958815" lon="9.173323744380355"><ele>462.66666666666663</ele><time>2026-05-01T15:30:04Z</time></trkpt><trkpt lat="40.91821470474758" lon="9.173122639792686"><ele>461.33333333333337</ele><time>2026-05-01T15:30:05Z</time></trkpt><trkpt lat="40.91806755413937" lon="9.172927850777784"><ele>460.0</ele><time>2026-05-01T15:30:06Z</time></trkpt><trkpt lat="40.9179060475183" lon="9.172753821503614"><ele>460.0</ele><time>2026-05-01T15:30:07Z</time></trkpt><trkpt lat="40.91772753324274" lon="9.172596733854787"><ele>460.0</ele><time>2026-05-01T15:30:08Z</time></trkpt><trkpt lat="40.91756265030501" lon="9.172458012050479"><ele>460.0</ele><time>2026-05-01T15:30:09Z</time></trkpt><trkpt lat="40.91742213537427" lon="9.172311302248232"><ele>458.0</ele><time>2026-05-01T15:30:10Z</time></trkpt><trkpt lat="40.917297282158756" lon="9.172148462918718"><ele>456.0</ele><time>2026-05-01T15:30:11Z</time></trkpt><trkpt lat="40.91716404427177" lon="9.171958113069714"><ele>454.0</ele><time>2026-05-01T15:30:12Z</time></trkpt><trkpt lat="40.91701201474361" lon="9.171741838505946"><ele>454.5</ele><time>2026-05-01T15:30:13Z</time></trkpt><trkpt lat="40.91684209400336" lon="9.171518565372002"><ele>455.0</ele><time>2026-05-01T15:30:14Z</time></trkpt><trkpt lat="40.91666877839523" lon="9.171271902520655"><ele>453.0</ele><time>2026-05-01T15:30:15Z</time></trkpt><trkpt lat="40.916484181647775" lon="9.171021055974956"><ele>451.0</ele><time>2026-05-01T15:30:16Z</time></trkpt><trkpt lat="40.91628662866766" lon="9.170791957002434"><ele>451.0</ele><time>2026-05-01T15:30:17Z</time></trkpt><trkpt lat="40.916128310376415" lon="9.17049178758478"><ele>451.0</ele><time>2026-05-01T15:30:18Z</time></trkpt><trkpt lat="40.91594704111686" lon="9.170243266412438"><ele>449.0</ele><time>2026-05-01T15:30:19Z</time></trkpt><trkpt lat="40.91578737713391" lon="9.170024940391734"><ele>447.0</ele><time>2026-05-01T15:30:20Z</time></trkpt><trkpt lat="40.915646077597" lon="9.16982922198354"><ele>445.0</ele><time>2026-05-01T15:30:21Z</time></trkpt><trkpt lat="40.91550985321169" lon="9.169630365429242"><ele>445.0</ele><time>2026-05-01T15:30:22Z</time></trkpt><trkpt lat="40.91539577842952" lon="9.169404950511527"><ele>445.0</ele><time>2026-05-01T15:30:23Z</time></trkpt><trkpt lat="40.91530703846203" lon="9.169141696948985"><ele>445.0</ele><time>2026-05-01T15:30:24Z</time></trkpt><trkpt lat="40.915211899751775" lon="9.168879714547316"><ele>445.33333333333337</ele><time>2026-05-01T15:30:25Z</time></trkpt><trkpt lat="40.915127724829084" lon="9.168611488546073"><ele>445.66666666666663</ele><time>2026-05-01T15:30:26Z</time></trkpt><trkpt lat="40.91504369232309" lon="9.16834011386669"><ele>446.0</ele><time>2026-05-01T15:30:27Z</time></trkpt><trkpt lat="40.91495068814492" lon="9.168071876998242"><ele>445.0</ele><time>2026-05-01T15:30:28Z</time></trkpt><trkpt lat="40.91487215183497" lon="9.167789167738702"><ele>444.0</ele><time>2026-05-01T15:30:29Z</time></trkpt><trkpt lat="40.91477970498897" lon="9.167499926138715"><ele>443.5</ele><time>2026-05-01T15:30:30Z</time></trkpt><trkpt lat="40.91468366984308" lon="9.167201195019977"><ele>443.0</ele><time>2026-05-01T15:30:31Z</time></trkpt><trkpt lat="40.91458463830275" lon="9.16689572527195"><ele>443.0</ele><time>2026-05-01T15:30:32Z</time></trkpt><trkpt lat="40.91446802474863" lon="9.166589031623364"><ele>443.0</ele><time>2026-05-01T15:30:33Z</time></trkpt><trkpt lat="40.91436864755045" lon="9.166274520725944"><ele>441.0</ele><time>2026-05-01T15:30:34Z</time></trkpt><trkpt lat="40.91426607744474" lon="9.16596580062314"><ele>439.0</ele><time>2026-05-01T15:30:35Z</time></trkpt><trkpt lat="40.91418754963777" lon="9.165669129441158"><ele>438.0</ele><time>2026-05-01T15:30:36Z</time></trkpt><trkpt lat="40.91410240339658" lon="9.165406915791896"><ele>437.0</ele><time>2026-05-01T15:30:37Z</time></trkpt><trkpt lat="40.91402906329764" lon="9.165180962968302"><ele>436.0</ele><time>2026-05-01T15:30:38Z</time></trkpt><trkpt lat="40.91395775130281" lon="9.16496488613441"><ele>436.6666666666667</ele><time>2026-05-01T15:30:39Z</time></trkpt><trkpt lat="40.913869859471724" lon="9.16475582819453"><ele>437.33333333333337</ele><time>2026-05-01T15:30:40Z</time></trkpt><trkpt lat="40.91373092482142" lon="9.164570413167302"><ele>438.0</ele><time>2026-05-01T15:30:41Z</time></trkpt><trkpt lat="40.91356862227875" lon="9.16439985566202"><ele>438.66666666666663</ele><time>2026-05-01T15:30:42Z</time></trkpt><trkpt lat="40.91338731282258" lon="9.164245915227728"><ele>439.3333333333333</ele><time>2026-05-01T15:30:43Z</time></trkpt><trkpt lat="40.913214335323346" lon="9.164063207696609"><ele>440.0</ele><time>2026-05-01T15:30:44Z</time></trkpt><trkpt lat="40.913043085777964" lon="9.163878911014908"><ele>441.0</ele><time>2026-05-01T15:30:45Z</time></trkpt><trkpt lat="40.91286960462898" lon="9.163697505959224"><ele>442.0</ele><time>2026-05-01T15:30:46Z</time></trkpt><trkpt lat="40.91269531976285" lon="9.163512681911783"><ele>443.0</ele><time>2026-05-01T15:30:47Z</time></trkpt><trkpt lat="40.9125293404248" lon="9.163313127838837"><ele>444.3333333333333</ele><time>2026-05-01T15:30:48Z</time></trkpt><trkpt lat="40.91235366487503" lon="9.163129397985662"><ele>445.66666666666663</ele><time>2026-05-01T15:30:49Z</time></trkpt><trkpt lat="40.91216966717605" lon="9.162963369015653"><ele>447.0</ele><time>2026-05-01T15:30:50Z</time></trkpt><trkpt lat="40.91200317366065" lon="9.16278330256022"><ele>447.0</ele><time>2026-05-01T15:30:51Z</time></trkpt><trkpt lat="40.911842772913865" lon="9.162610749300978"><ele>447.0</ele><time>2026-05-01T15:30:52Z</time></trkpt><trkpt lat="40.91168436615919" lon="9.162440940574255"><ele>447.0</ele><time>2026-05-01T15:30:53Z</time></trkpt><trkpt lat="40.91152961784229" lon="9.162273729533178"><ele>447.66666666666663</ele><time>2026-05-01T15:30:54Z</time></trkpt><trkpt lat="40.91138127134972" lon="9.162103410452396"><ele>448.3333333333333</ele><time>2026-05-01T15:30:55Z</time></trkpt><trkpt lat="40.911243503167874" lon="9.161915106993742"><ele>449.0</ele><time>2026-05-01T15:30:56Z</time></trkpt><trkpt lat="40.91111663731018" lon="9.161698989374385"><ele>449.0</ele><time>2026-05-01T15:30:57Z</time></trkpt><trkpt lat="40.91100819613639" lon="9.161457511568363"><ele>449.0</ele><time>2026-05-01T15:30:58Z</time></trkpt><trkpt lat="40.9109182817191" lon="9.161197939077427"><ele>449.0</ele><time>2026-05-01T15:30:59Z</time></trkpt><trkpt lat="40.91084960727118" lon="9.160918199135171"><ele>450.5</ele><time>2026-05-01T15:31:00Z</time></trkpt><trkpt lat="40.910808089998966" lon="9.16061600884445"><ele>452.0</ele><time>2026-05-01T15:31:01Z</time></trkpt><trkpt lat="40.9107822241484" lon="9.160304480851984"><ele>452.0</ele><time>2026-05-01T15:31:02Z</time></trkpt><trkpt lat="40.91075946071805" lon="9.159975078088458"><ele>452.0</ele><time>2026-05-01T15:31:03Z</time></trkpt><trkpt lat="40.91072691395514" lon="9.159633118428262"><ele>452.0</ele><time>2026-05-01T15:31:04Z</time></trkpt><trkpt lat="40.91069720268526" lon="9.159316167946612"><ele>452.0</ele><time>2026-05-01T15:31:05Z</time></trkpt><trkpt lat="40.910673894099524" lon="9.159022858097677"><ele>454.0</ele><time>2026-05-01T15:31:06Z</time></trkpt><trkpt lat="40.910652416379655" lon="9.158774470295679"><ele>456.0</ele><time>2026-05-01T15:31:07Z</time></trkpt><trkpt lat="40.91062687353364" lon="9.158555251473228"><ele>458.0</ele><time>2026-05-01T15:31:08Z</time></trkpt><trkpt lat="40.9105793884136" lon="9.15836557903036"><ele>460.66666666666663</ele><time>2026-05-01T15:31:09Z</time></trkpt><trkpt lat="40.91049260539403" lon="9.15818157929518"><ele>463.33333333333337</ele><time>2026-05-01T15:31:10Z</time></trkpt><trkpt lat="40.910380438555755" lon="9.15798721439848"><ele>466.0</ele><time>2026-05-01T15:31:11Z</time></trkpt><trkpt lat="40.91024817947219" lon="9.157769667816245"><ele>466.0</ele><time>2026-05-01T15:31:12Z</time></trkpt><trkpt lat="40.91011766459764" lon="9.157538156018454"><ele>466.0</ele><time>2026-05-01T15:31:13Z</time></trkpt><trkpt lat="40.90999148516375" lon="9.157296495170554"><ele>466.0</ele><time>2026-05-01T15:31:14Z</time></trkpt><trkpt lat="40.90987187887131" lon="9.157076615143145"><ele>466.6666666666667</ele><time>2026-05-01T15:31:15Z</time></trkpt><trkpt lat="40.909777435249595" lon="9.15690957691785"><ele>467.33333333333337</ele><time>2026-05-01T15:31:16Z</time></trkpt><trkpt lat="40.90966348325671" lon="9.156717514677839"><ele>468.0</ele><time>2026-05-01T15:31:17Z</time></trkpt><trkpt lat="40.90953300989744" lon="9.156499483775702"><ele>468.0</ele><time>2026-05-01T15:31:18Z</time></trkpt><trkpt lat="40.90938754777618" lon="9.156253955633753"><ele>468.0</ele><time>2026-05-01T15:31:19Z</time></trkpt><trkpt lat="40.90921668090209" lon="9.15596880973803"><ele>468.5</ele><time>2026-05-01T15:31:20Z</time></trkpt><trkpt lat="40.90904512139225" lon="9.15567769368281"><ele>469.0</ele><time>2026-05-01T15:31:21Z</time></trkpt><trkpt lat="40.90885968230819" lon="9.155374275559154"><ele>469.0</ele><time>2026-05-01T15:31:22Z</time></trkpt><trkpt lat="40.90865957030684" lon="9.155051431087461"><ele>469.0</ele><time>2026-05-01T15:31:23Z</time></trkpt><trkpt lat="40.908494021694715" lon="9.154752890016045"><ele>470.0</ele><time>2026-05-01T15:31:24Z</time></trkpt><trkpt lat="40.90834640372194" lon="9.154476467944239"><ele>471.0</ele><time>2026-05-01T15:31:25Z</time></trkpt><trkpt lat="40.90820753825974" lon="9.154220134175086"><ele>472.33333333333337</ele><time>2026-05-01T15:31:26Z</time></trkpt><trkpt lat="40.908081147568936" lon="9.154011105638078"><ele>473.6666666666667</ele><time>2026-05-01T15:31:27Z</time></trkpt><trkpt lat="40.907936924053885" lon="9.153821061543113"><ele>475.0</ele><time>2026-05-01T15:31:28Z</time></trkpt><trkpt lat="40.90776282629181" lon="9.153673895738178"><ele>474.5</ele><time>2026-05-01T15:31:29Z</time></trkpt><trkpt lat="40.90754666950632" lon="9.1535551011017"><ele>474.0</ele><time>2026-05-01T15:31:30Z</time></trkpt><trkpt lat="40.907341124052735" lon="9.1534364164018"><ele>474.0</ele><time>2026-05-01T15:31:31Z</time></trkpt><trkpt lat="40.90715527348138" lon="9.153334426196958"><ele>474.0</ele><time>2026-05-01T15:31:32Z</time></trkpt><trkpt lat="40.90698265552398" lon="9.153224713081338"><ele>474.0</ele><time>2026-05-01T15:31:33Z</time></trkpt><trkpt lat="40.906828904412414" lon="9.1531007413785"><ele>473.66666666666663</ele><time>2026-05-01T15:31:34Z</time></trkpt><trkpt lat="40.90666893339341" lon="9.15294602691967"><ele>473.3333333333333</ele><time>2026-05-01T15:31:35Z</time></trkpt><trkpt lat="40.90653054764555" lon="9.152778805629424"><ele>473.0</ele><time>2026-05-01T15:31:36Z</time></trkpt><trkpt lat="40.906414319912855" lon="9.152604990717485"><ele>473.0</ele><time>2026-05-01T15:31:37Z</time></trkpt><trkpt lat="40.906311375193894" lon="9.152407846626751"><ele>473.0</ele><time>2026-05-01T15:31:38Z</time></trkpt><trkpt lat="40.90622352003369" lon="9.152193534725598"><ele>473.0</ele><time>2026-05-01T15:31:39Z</time></trkpt><trkpt lat="40.90614594409393" lon="9.151971771041298"><ele>473.66666666666663</ele><time>2026-05-01T15:31:40Z</time></trkpt><trkpt lat="40.90608779662026" lon="9.151758402511765"><ele>474.33333333333337</ele><time>2026-05-01T15:31:41Z</time></trkpt><trkpt lat="40.90604553904147" lon="9.151548505511828"><ele>475.0</ele><time>2026-05-01T15:31:42Z</time></trkpt><trkpt lat="40.906011353086704" lon="9.15134311903061"><ele>475.6666666666667</ele><time>2026-05-01T15:31:43Z</time></trkpt><trkpt lat="40.905987038627266" lon="9.151131943294772"><ele>476.33333333333337</ele><time>2026-05-01T15:31:44Z</time></trkpt><trkpt lat="40.90596710431667" lon="9.150908724261297"><ele>477.0</ele><time>2026-05-01T15:31:45Z</time></trkpt><trkpt lat="40.90596014886962" lon="9.150672738386753"><ele>475.66666666666663</ele><time>2026-05-01T15:31:46Z</time></trkpt><trkpt lat="40.90598822483437" lon="9.150418746274028"><ele>474.3333333333333</ele><time>2026-05-01T15:31:47Z</time></trkpt><trkpt lat="40.906015969947276" lon="9.150182557064275"><ele>473.0</ele><time>2026-05-01T15:31:48Z</time></trkpt><trkpt lat="40.90605935937761" lon="9.14996160713522"><ele>471.66666666666663</ele><time>2026-05-01T15:31:49Z</time></trkpt><trkpt lat="40.90612029510968" lon="9.149743706982289"><ele>470.33333333333337</ele><time>2026-05-01T15:31:50Z</time></trkpt><trkpt lat="40.90618954596371" lon="9.14952360563543"><ele>469.0</ele><time>2026-05-01T15:31:51Z</time></trkpt><trkpt lat="40.90624487405885" lon="9.149294242252793"><ele>469.0</ele><time>2026-05-01T15:31:52Z</time></trkpt><trkpt lat="40.906279058334725" lon="9.149044898036237"><ele>469.0</ele><time>2026-05-01T15:31:53Z</time></trkpt><trkpt lat="40.906293508948245" lon="9.148778032375722"><ele>469.0</ele><time>2026-05-01T15:31:54Z</time></trkpt><trkpt lat="40.90630184799199" lon="9.148505839708356"><ele>466.33333333333337</ele><time>2026-05-01T15:31:55Z</time></trkpt><trkpt lat="40.9063078965192" lon="9.148219608259529"><ele>463.66666666666663</ele><time>2026-05-01T15:31:56Z</time></trkpt><trkpt lat="40.90631000276208" lon="9.147918540702927"><ele>461.0</ele><time>2026-05-01T15:31:57Z</time></trkpt><trkpt lat="40.9063133246227" lon="9.147608158893663"><ele>459.0</ele><time>2026-05-01T15:31:58Z</time></trkpt><trkpt lat="40.90631587949458" lon="9.147289723079563"><ele>457.0</ele><time>2026-05-01T15:31:59Z</time></trkpt><trkpt lat="40.90631561785161" lon="9.14696350248884"><ele>457.0</ele><time>2026-05-01T15:32:00Z</time></trkpt><trkpt lat="40.90631109099866" lon="9.146628676664653"><ele>457.0</ele><time>2026-05-01T15:32:01Z</time></trkpt><trkpt lat="40.906306613936465" lon="9.146288954947634"><ele>454.0</ele><time>2026-05-01T15:32:02Z</time></trkpt><trkpt lat="40.906303381537775" lon="9.145942117730606"><ele>451.0</ele><time>2026-05-01T15:32:03Z</time></trkpt><trkpt lat="40.90630488638298" lon="9.145571995360179"><ele>449.0</ele><time>2026-05-01T15:32:04Z</time></trkpt><trkpt lat="40.906312644309" lon="9.145185155707273"><ele>447.0</ele><time>2026-05-01T15:32:05Z</time></trkpt><trkpt lat="40.906318304087925" lon="9.144782385291899"><ele>446.0</ele><time>2026-05-01T15:32:06Z</time></trkpt><trkpt lat="40.90632360946853" lon="9.14440595481256"><ele>445.0</ele><time>2026-05-01T15:32:07Z</time></trkpt><trkpt lat="40.90633524757893" lon="9.144038223711854"><ele>444.5</ele><time>2026-05-01T15:32:08Z</time></trkpt><trkpt lat="40.90633864008524" lon="9.143677678813805"><ele>444.0</ele><time>2026-05-01T15:32:09Z</time></trkpt><trkpt lat="40.906336944241694" lon="9.143319527526772"><ele>444.0</ele><time>2026-05-01T15:32:10Z</time></trkpt><trkpt lat="40.906311416946295" lon="9.142963235297534"><ele>444.0</ele><time>2026-05-01T15:32:11Z</time></trkpt><trkpt lat="40.90630931534168" lon="9.142609704839174"><ele>444.5</ele><time>2026-05-01T15:32:12Z</time></trkpt><trkpt lat="40.90631010798614" lon="9.142253168152454"><ele>445.0</ele><time>2026-05-01T15:32:13Z</time></trkpt><trkpt lat="40.90631207253863" lon="9.14188943713251"><ele>444.0</ele><time>2026-05-01T15:32:14Z</time></trkpt><trkpt lat="40.9063149527001" lon="9.141519087982644"><ele>443.0</ele><time>2026-05-01T15:32:15Z</time></trkpt><trkpt lat="40.90631334221215" lon="9.141146606803751"><ele>443.0</ele><time>2026-05-01T15:32:16Z</time></trkpt><trkpt lat="40.906326528001074" lon="9.14076991260781"><ele>443.0</ele><time>2026-05-01T15:32:17Z</time></trkpt><trkpt lat="40.90632986519413" lon="9.140391774397399"><ele>447.0</ele><time>2026-05-01T15:32:18Z</time></trkpt><trkpt lat="40.90633129073141" lon="9.140011224302008"><ele>451.0</ele><time>2026-05-01T15:32:19Z</time></trkpt><trkpt lat="40.90633269659251" lon="9.139635926612867"><ele>454.0</ele><time>2026-05-01T15:32:20Z</time></trkpt><trkpt lat="40.90633410759312" lon="9.139264385678826"><ele>457.0</ele><time>2026-05-01T15:32:21Z</time></trkpt><trkpt lat="40.906335882985125" lon="9.138896932546553"><ele>460.0</ele><time>2026-05-01T15:32:22Z</time></trkpt><trkpt lat="40.906358973785466" lon="9.13853798496317"><ele>463.0</ele><time>2026-05-01T15:32:23Z</time></trkpt><trkpt lat="40.906388760896256" lon="9.1381870048099"><ele>464.5</ele><time>2026-05-01T15:32:24Z</time></trkpt><trkpt lat="40.90641917249919" lon="9.137837792198495"><ele>466.0</ele><time>2026-05-01T15:32:25Z</time></trkpt><trkpt lat="40.90642565685298" lon="9.137493331456817"><ele>466.5</ele><time>2026-05-01T15:32:26Z</time></trkpt><trkpt lat="40.90642822596083" lon="9.137157931794798"><ele>467.0</ele><time>2026-05-01T15:32:27Z</time></trkpt><trkpt lat="40.90643201586386" lon="9.13682519589213"><ele>467.5</ele><time>2026-05-01T15:32:28Z</time></trkpt><trkpt lat="40.90634691618004" lon="9.136461438226718"><ele>468.0</ele><time>2026-05-01T15:32:29Z</time></trkpt><trkpt lat="40.906353069127185" lon="9.136147806029102"><ele>468.0</ele><time>2026-05-01T15:32:30Z</time></trkpt><trkpt lat="40.90635874506425" lon="9.135846870255012"><ele>468.0</ele><time>2026-05-01T15:32:31Z</time></trkpt><trkpt lat="40.906362627789704" lon="9.135552599851007"><ele>470.0</ele><time>2026-05-01T15:32:32Z</time></trkpt><trkpt lat="40.90636631210374" lon="9.135255093722163"><ele>472.0</ele><time>2026-05-01T15:32:33Z</time></trkpt><trkpt lat="40.90637411092663" lon="9.13494789590664"><ele>471.0</ele><time>2026-05-01T15:32:34Z</time></trkpt><trkpt lat="40.906380312372676" lon="9.134636097596971"><ele>470.0</ele><time>2026-05-01T15:32:35Z</time></trkpt><trkpt lat="40.90638923498458" lon="9.134318536115495"><ele>471.5</ele><time>2026-05-01T15:32:36Z</time></trkpt><trkpt lat="40.90639514758968" lon="9.134005228314964"><ele>473.0</ele><time>2026-05-01T15:32:37Z</time></trkpt><trkpt lat="40.9064035543056" lon="9.133701082795385"><ele>473.0</ele><time>2026-05-01T15:32:38Z</time></trkpt><trkpt lat="40.906411687483406" lon="9.13341959533838"><ele>473.0</ele><time>2026-05-01T15:32:39Z</time></trkpt><trkpt lat="40.906419012323646" lon="9.133150817172687"><ele>473.0</ele><time>2026-05-01T15:32:40Z</time></trkpt><trkpt lat="40.906423944344816" lon="9.132876214955328"><ele>474.66666666666663</ele><time>2026-05-01T15:32:41Z</time></trkpt><trkpt lat="40.906459886255575" lon="9.132603423040642"><ele>476.33333333333337</ele><time>2026-05-01T15:32:42Z</time></trkpt><trkpt lat="40.90650228702188" lon="9.132334723987476"><ele>478.0</ele><time>2026-05-01T15:32:43Z</time></trkpt><trkpt lat="40.90653346633256" lon="9.132059862527509"><ele>478.6666666666667</ele><time>2026-05-01T15:32:44Z</time></trkpt><trkpt lat="40.90658100511251" lon="9.131785142094193"><ele>479.33333333333337</ele><time>2026-05-01T15:32:45Z</time></trkpt><trkpt lat="40.906621614795604" lon="9.131508023806228"><ele>480.0</ele><time>2026-05-01T15:32:46Z</time></trkpt><trkpt lat="40.90666667833823" lon="9.131218131504177"><ele>482.5</ele><time>2026-05-01T15:32:47Z</time></trkpt><trkpt lat="40.90671270219744" lon="9.130915821585289"><ele>485.0</ele><time>2026-05-01T15:32:48Z</time></trkpt><trkpt lat="40.90675235588924" lon="9.130607637180628"><ele>486.0</ele><time>2026-05-01T15:32:49Z</time></trkpt><trkpt lat="40.906770984967416" lon="9.130293823948186"><ele>487.0</ele><time>2026-05-01T15:32:50Z</time></trkpt><trkpt lat="40.90673658130855" lon="9.129961249246515"><ele>488.5</ele><time>2026-05-01T15:32:51Z</time></trkpt><trkpt lat="40.90667675858219" lon="9.12963825572476"><ele>490.0</ele><time>2026-05-01T15:32:52Z</time></trkpt><trkpt lat="40.906611578713935" lon="9.129309120048644"><ele>490.0</ele><time>2026-05-01T15:32:53Z</time></trkpt><trkpt lat="40.906569876162806" lon="9.128969399760104"><ele>490.0</ele><time>2026-05-01T15:32:54Z</time></trkpt><trkpt lat="40.90650558491925" lon="9.12865120218675"><ele>490.0</ele><time>2026-05-01T15:32:55Z</time></trkpt><trkpt lat="40.90646172405075" lon="9.12835569407224"><ele>490.0</ele><time>2026-05-01T15:32:56Z</time></trkpt><trkpt lat="40.906409412796755" lon="9.128067071568957"><ele>491.5</ele><time>2026-05-01T15:32:57Z</time></trkpt><trkpt lat="40.906337456287936" lon="9.127769436462385"><ele>493.0</ele><time>2026-05-01T15:32:58Z</time></trkpt><trkpt lat="40.90623949052132" lon="9.127485823755546"><ele>493.33333333333337</ele><time>2026-05-01T15:32:59Z</time></trkpt><trkpt lat="40.906138018372324" lon="9.127231780769371"><ele>493.66666666666663</ele><time>2026-05-01T15:33:00Z</time></trkpt><trkpt lat="40.9060412747046" lon="9.126987686280996"><ele>494.0</ele><time>2026-05-01T15:33:01Z</time></trkpt><trkpt lat="40.90595024448392" lon="9.12674723942368"><ele>496.0</ele><time>2026-05-01T15:33:02Z</time></trkpt><trkpt lat="40.905858769806386" lon="9.12647958794798"><ele>498.0</ele><time>2026-05-01T15:33:03Z</time></trkpt><trkpt lat="40.90576226651017" lon="9.126192394465786"><ele>498.0</ele><time>2026-05-01T15:33:04Z</time></trkpt><trkpt lat="40.90565471297847" lon="9.125902775589939"><ele>498.0</ele><time>2026-05-01T15:33:05Z</time></trkpt><trkpt lat="40.90554789423488" lon="9.125624109730811"><ele>498.0</ele><time>2026-05-01T15:33:06Z</time></trkpt><trkpt lat="40.905448299667235" lon="9.125366065415474"><ele>498.0</ele><time>2026-05-01T15:33:07Z</time></trkpt><trkpt lat="40.905355899953946" lon="9.125126389620917"><ele>498.0</ele><time>2026-05-01T15:33:08Z</time></trkpt><trkpt lat="40.905262286813276" lon="9.124891797041203"><ele>495.66666666666663</ele><time>2026-05-01T15:33:09Z</time></trkpt><trkpt lat="40.905172529716324" lon="9.124664327416719"><ele>493.3333333333333</ele><time>2026-05-01T15:33:10Z</time></trkpt><trkpt lat="40.90508531831601" lon="9.124437625545529"><ele>491.0</ele><time>2026-05-01T15:33:11Z</time></trkpt><trkpt lat="40.90499777014309" lon="9.124210946345924"><ele>488.3333333333333</ele><time>2026-05-01T15:33:12Z</time></trkpt><trkpt lat="40.90491075461161" lon="9.123986919788901"><ele>485.66666666666663</ele><time>2026-05-01T15:33:13Z</time></trkpt><trkpt lat="40.90482723274499" lon="9.12376869547449"><ele>483.0</ele><time>2026-05-01T15:33:14Z</time></trkpt><trkpt lat="40.9047465915859" lon="9.123560883494156"><ele>483.0</ele><time>2026-05-01T15:33:15Z</time></trkpt><trkpt lat="40.9046667293103" lon="9.123363016251293"><ele>483.0</ele><time>2026-05-01T15:33:16Z</time></trkpt><trkpt lat="40.90458789996259" lon="9.123170876343751"><ele>483.0</ele><time>2026-05-01T15:33:17Z</time></trkpt><trkpt lat="40.90451535604621" lon="9.122983017667472"><ele>482.25</ele><time>2026-05-01T15:33:18Z</time></trkpt><trkpt lat="40.90445373674945" lon="9.122804450621368"><ele>481.5</ele><time>2026-05-01T15:33:19Z</time></trkpt><trkpt lat="40.90440307920131" lon="9.122645969602404"><ele>480.75</ele><time>2026-05-01T15:33:20Z</time></trkpt><trkpt lat="40.904367988583246" lon="9.122496105120288"><ele>480.0</ele><time>2026-05-01T15:33:21Z</time></trkpt><trkpt lat="40.904363090723116" lon="9.122337867654213"><ele>478.66666666666663</ele><time>2026-05-01T15:33:22Z</time></trkpt><trkpt lat="40.90440732099668" lon="9.122166188858664"><ele>477.3333333333333</ele><time>2026-05-01T15:33:23Z</time></trkpt><trkpt lat="40.90446652276359" lon="9.121983999526977"><ele>476.0</ele><time>2026-05-01T15:33:24Z</time></trkpt><trkpt lat="40.90452793034438" lon="9.121781024311444"><ele>474.66666666666663</ele><time>2026-05-01T15:33:25Z</time></trkpt><trkpt lat="40.90459230989718" lon="9.121552962507632"><ele>473.33333333333337</ele><time>2026-05-01T15:33:26Z</time></trkpt><trkpt lat="40.90465233849981" lon="9.121307648162846"><ele>472.0</ele><time>2026-05-01T15:33:27Z</time></trkpt><trkpt lat="40.90470568577885" lon="9.121033089695615"><ele>472.0</ele><time>2026-05-01T15:33:28Z</time></trkpt><trkpt lat="40.9047568426665" lon="9.120750222950806"><ele>472.0</ele><time>2026-05-01T15:33:29Z</time></trkpt><trkpt lat="40.90480793697086" lon="9.120482947047412"><ele>472.0</ele><time>2026-05-01T15:33:30Z</time></trkpt><trkpt lat="40.90485959438795" lon="9.120235843904078"><ele>472.0</ele><time>2026-05-01T15:33:31Z</time></trkpt><trkpt lat="40.904905580309055" lon="9.120003293123242"><ele>472.0</ele><time>2026-05-01T15:33:32Z</time></trkpt><trkpt lat="40.90494714650295" lon="9.11978680414476"><ele>472.0</ele><time>2026-05-01T15:33:33Z</time></trkpt><trkpt lat="40.90498671275456" lon="9.11958838448147"><ele>472.75</ele><time>2026-05-01T15:33:34Z</time></trkpt><trkpt lat="40.90502515820994" lon="9.119400405690154"><ele>473.5</ele><time>2026-05-01T15:33:35Z</time></trkpt><trkpt lat="40.905061753763356" lon="9.119212865061204"><ele>474.25</ele><time>2026-05-01T15:33:36Z</time></trkpt><trkpt lat="40.905098498878154" lon="9.1190265043017"><ele>475.0</ele><time>2026-05-01T15:33:37Z</time></trkpt><trkpt lat="40.90513550334697" lon="9.118838620578645"><ele>475.5</ele><time>2026-05-01T15:33:38Z</time></trkpt><trkpt lat="40.90517291661579" lon="9.118654466329591"><ele>476.0</ele><time>2026-05-01T15:33:39Z</time></trkpt><trkpt lat="40.90521044804979" lon="9.118468091497727"><ele>476.5</ele><time>2026-05-01T15:33:40Z</time></trkpt><trkpt lat="40.90524596913076" lon="9.118279512218024"><ele>477.0</ele><time>2026-05-01T15:33:41Z</time></trkpt><trkpt lat="40.90528218022511" lon="9.118089759347765"><ele>477.75</ele><time>2026-05-01T15:33:42Z</time></trkpt><trkpt lat="40.90531781796105" lon="9.117907911394612"><ele>478.5</ele><time>2026-05-01T15:33:43Z</time></trkpt><trkpt lat="40.90535405858665" lon="9.117748546503808"><ele>479.25</ele><time>2026-05-01T15:33:44Z</time></trkpt><trkpt lat="40.905385251412156" lon="9.117608004358212"><ele>480.0</ele><time>2026-05-01T15:33:45Z</time></trkpt><trkpt lat="40.90540747114615" lon="9.117474647934687"><ele>481.75</ele><time>2026-05-01T15:33:46Z</time></trkpt><trkpt lat="40.90542301165118" lon="9.117343503690954"><ele>483.5</ele><time>2026-05-01T15:33:47Z</time></trkpt><trkpt lat="40.9054275308268" lon="9.117209675292095"><ele>485.25</ele><time>2026-05-01T15:33:48Z</time></trkpt><trkpt lat="40.905409500924954" lon="9.117052937960974"><ele>487.0</ele><time>2026-05-01T15:33:49Z</time></trkpt><trkpt lat="40.905365328378146" lon="9.116886463220983"><ele>487.0</ele><time>2026-05-01T15:33:50Z</time></trkpt><trkpt lat="40.905310378248224" lon="9.116720279606517"><ele>487.0</ele><time>2026-05-01T15:33:51Z</time></trkpt><trkpt lat="40.90526795742327" lon="9.116557716257821"><ele>487.0</ele><time>2026-05-01T15:33:52Z</time></trkpt><trkpt lat="40.90524409456516" lon="9.11641477085487"><ele>487.0</ele><time>2026-05-01T15:33:53Z</time></trkpt><trkpt lat="40.905227014679994" lon="9.116293449521542"><ele>487.0</ele><time>2026-05-01T15:33:54Z</time></trkpt><trkpt lat="40.905219116398285" lon="9.11618298725166"><ele>487.00000000000006</ele><time>2026-05-01T15:33:55Z</time></trkpt><trkpt lat="40.90521498247827" lon="9.116081683289266"><ele>487.00000000000006</ele><time>2026-05-01T15:33:56Z</time></trkpt><trkpt lat="40.905216893477984" lon="9.115967937484958"><ele>487.0</ele><time>2026-05-01T15:33:57Z</time></trkpt><trkpt lat="40.90521992755225" lon="9.115841661138031"><ele>487.0</ele><time>2026-05-01T15:33:58Z</time></trkpt><trkpt lat="40.90523811988429" lon="9.11568748128766"><ele>489.33333333333337</ele><time>2026-05-01T15:33:59Z</time></trkpt><trkpt lat="40.90526848689663" lon="9.115503559480834"><ele>491.66666666666663</ele><time>2026-05-01T15:34:00Z</time></trkpt><trkpt lat="40.905288626257516" lon="9.115304666365114"><ele>494.0</ele><time>2026-05-01T15:34:01Z</time></trkpt><trkpt lat="40.90528084183064" lon="9.115072769459072"><ele>495.66666666666663</ele><time>2026-05-01T15:34:02Z</time></trkpt><trkpt lat="40.905230469122294" lon="9.114822032008053"><ele>497.33333333333337</ele><time>2026-05-01T15:34:03Z</time></trkpt><trkpt lat="40.90516193758226" lon="9.114577573052157"><ele>499.0</ele><time>2026-05-01T15:34:04Z</time></trkpt><trkpt lat="40.905076810955904" lon="9.114382996103043"><ele>499.0</ele><time>2026-05-01T15:34:05Z</time></trkpt><trkpt lat="40.90497597714655" lon="9.114209670546447"><ele>499.0</ele><time>2026-05-01T15:34:06Z</time></trkpt><trkpt lat="40.9048843906169" lon="9.114034884487761"><ele>499.0</ele><time>2026-05-01T15:34:07Z</time></trkpt><trkpt lat="40.90478818405721" lon="9.113871454367173"><ele>499.0</ele><time>2026-05-01T15:34:08Z</time></trkpt><trkpt lat="40.90469952825283" lon="9.113712001764508"><ele>499.0</ele><time>2026-05-01T15:34:09Z</time></trkpt><trkpt lat="40.9046207010454" lon="9.11355582116953"><ele>499.0</ele><time>2026-05-01T15:34:10Z</time></trkpt><trkpt lat="40.90455382899159" lon="9.113412447732882"><ele>499.0</ele><time>2026-05-01T15:34:11Z</time></trkpt><trkpt lat="40.90449749562961" lon="9.113279161615411"><ele>500.5</ele><time>2026-05-01T15:34:12Z</time></trkpt><trkpt lat="40.90443354222246" lon="9.113158708198075"><ele>502.0</ele><time>2026-05-01T15:34:13Z</time></trkpt><trkpt lat="40.90438481606028" lon="9.11302267930947"><ele>503.5</ele><time>2026-05-01T15:34:14Z</time></trkpt><trkpt lat="40.90433980769059" lon="9.112880077312337"><ele>505.0</ele><time>2026-05-01T15:34:15Z</time></trkpt><trkpt lat="40.90430022430279" lon="9.112732736516246"><ele>505.0</ele><time>2026-05-01T15:34:16Z</time></trkpt><trkpt lat="40.90425858942309" lon="9.112585099852163"><ele>505.0</ele><time>2026-05-01T15:34:17Z</time></trkpt><trkpt lat="40.904220653873026" lon="9.112437114491263"><ele>505.0</ele><time>2026-05-01T15:34:18Z</time></trkpt><trkpt lat="40.90418525698464" lon="9.112286949724314"><ele>505.0</ele><time>2026-05-01T15:34:19Z</time></trkpt><trkpt lat="40.90414871421985" lon="9.112138305473778"><ele>507.0</ele><time>2026-05-01T15:34:20Z</time></trkpt><trkpt lat="40.90412255304068" lon="9.111975685876583"><ele>509.0</ele><time>2026-05-01T15:34:21Z</time></trkpt><trkpt lat="40.90406704083914" lon="9.111815366419883"><ele>511.0</ele><time>2026-05-01T15:34:22Z</time></trkpt><trkpt lat="40.90402686105132" lon="9.111638402337126"><ele>513.0</ele><time>2026-05-01T15:34:23Z</time></trkpt><trkpt lat="40.90398226810211" lon="9.111456540156153"><ele>514.25</ele><time>2026-05-01T15:34:24Z</time></trkpt><trkpt lat="40.9039368377057" lon="9.111268003307972"><ele>515.5</ele><time>2026-05-01T15:34:25Z</time></trkpt><trkpt lat="40.903891621484675" lon="9.1110769604582"><ele>516.75</ele><time>2026-05-01T15:34:26Z</time></trkpt><trkpt lat="40.90384637458269" lon="9.110889918697188"><ele>518.0</ele><time>2026-05-01T15:34:27Z</time></trkpt><trkpt lat="40.90380714783394" lon="9.110729654740133"><ele>518.25</ele><time>2026-05-01T15:34:28Z</time></trkpt><trkpt lat="40.903753640372855" lon="9.110591550683619"><ele>518.5</ele><time>2026-05-01T15:34:29Z</time></trkpt><trkpt lat="40.9036686925102" lon="9.110487400804065"><ele>518.75</ele><time>2026-05-01T15:34:30Z</time></trkpt><trkpt lat="40.90357063648846" lon="9.110399467213751"><ele>519.0</ele><time>2026-05-01T15:34:31Z</time></trkpt><trkpt lat="40.9034638310971" lon="9.110328252567014"><ele>520.0</ele><time>2026-05-01T15:34:32Z</time></trkpt><trkpt lat="40.903350209655706" lon="9.110257495725655"><ele>521.0</ele><time>2026-05-01T15:34:33Z</time></trkpt><trkpt lat="40.90323851581106" lon="9.110156479028646"><ele>522.0</ele><time>2026-05-01T15:34:34Z</time></trkpt><trkpt lat="40.90312272128504" lon="9.110059154387136"><ele>523.0</ele><time>2026-05-01T15:34:35Z</time></trkpt><trkpt lat="40.902990895770394" lon="9.109970560772018"><ele>522.0</ele><time>2026-05-01T15:34:36Z</time></trkpt><trkpt lat="40.90287150085743" lon="9.109852493518602"><ele>521.0</ele><time>2026-05-01T15:34:37Z</time></trkpt><trkpt lat="40.902763188164386" lon="9.1097116692185"><ele>520.0</ele><time>2026-05-01T15:34:38Z</time></trkpt><trkpt lat="40.902651036463325" lon="9.109581498483923"><ele>523.25</ele><time>2026-05-01T15:34:39Z</time></trkpt><trkpt lat="40.90253787322066" lon="9.109448896233415"><ele>526.5</ele><time>2026-05-01T15:34:40Z</time></trkpt><trkpt lat="40.902420216033754" lon="9.109327499773613"><ele>529.75</ele><time>2026-05-01T15:34:41Z</time></trkpt><trkpt lat="40.9023295223992" lon="9.109173489105494"><ele>533.0</ele><time>2026-05-01T15:34:42Z</time></trkpt><trkpt lat="40.902234343999254" lon="9.10902533434479"><ele>533.0</ele><time>2026-05-01T15:34:43Z</time></trkpt><trkpt lat="40.90213280463106" lon="9.108890975217758"><ele>533.0</ele><time>2026-05-01T15:34:44Z</time></trkpt><trkpt lat="40.90205731146916" lon="9.108728023980198"><ele>533.0</ele><time>2026-05-01T15:34:45Z</time></trkpt><trkpt lat="40.90199165291493" lon="9.108562781905805"><ele>533.0</ele><time>2026-05-01T15:34:46Z</time></trkpt><trkpt lat="40.90193532257377" lon="9.108392852597671"><ele>534.25</ele><time>2026-05-01T15:34:47Z</time></trkpt><trkpt lat="40.901884535093615" lon="9.108223546131498"><ele>535.5</ele><time>2026-05-01T15:34:48Z</time></trkpt><trkpt lat="40.901836480608296" lon="9.108050228163268"><ele>536.75</ele><time>2026-05-01T15:34:49Z</time></trkpt><trkpt lat="40.90181143733958" lon="9.107868580047045"><ele>538.0</ele><time>2026-05-01T15:34:50Z</time></trkpt><trkpt lat="40.90177435886805" lon="9.107691690265783"><ele>540.0</ele><time>2026-05-01T15:34:51Z</time></trkpt><trkpt lat="40.901728648314474" lon="9.107517904433792"><ele>542.0</ele><time>2026-05-01T15:34:52Z</time></trkpt><trkpt lat="40.90171137408281" lon="9.107335275935695"><ele>544.0</ele><time>2026-05-01T15:34:53Z</time></trkpt><trkpt lat="40.90169884460959" lon="9.107169221912221"><ele>546.0</ele><time>2026-05-01T15:34:54Z</time></trkpt><trkpt lat="40.901703773333196" lon="9.107054993398819"><ele>546.4</ele><time>2026-05-01T15:34:55Z</time></trkpt><trkpt lat="40.90171719193403" lon="9.10692048944321"><ele>546.8</ele><time>2026-05-01T15:34:57Z</time></trkpt><trkpt lat="40.901733094729" lon="9.106823530354566"><ele>547.1999999999999</ele><time>2026-05-01T15:34:58Z</time></trkpt><trkpt lat="40.90175206961368" lon="9.106697231290536"><ele>547.6</ele><time>2026-05-01T15:34:59Z</time></trkpt><trkpt lat="40.90178841487039" lon="9.10655569220107"><ele>548.0</ele><time>2026-05-01T15:35:00Z</time></trkpt><trkpt lat="40.90184859582789" lon="9.106409635128776"><ele>549.5</ele><time>2026-05-01T15:35:01Z</time></trkpt><trkpt lat="40.90193471079423" lon="9.106279984420622"><ele>551.0</ele><time>2026-05-01T15:35:02Z</time></trkpt><trkpt lat="40.90202104215307" lon="9.1061669696984"><ele>552.5</ele><time>2026-05-01T15:35:03Z</time></trkpt><trkpt lat="40.90208119177893" lon="9.106063017694645"><ele>554.0</ele><time>2026-05-01T15:35:04Z</time></trkpt><trkpt lat="40.902169363097954" lon="9.105991818178866"><ele>554.0</ele><time>2026-05-01T15:35:05Z</time></trkpt><trkpt lat="40.90225910307089" lon="9.105929657973865"><ele>554.0</ele><time>2026-05-01T15:35:06Z</time></trkpt><trkpt lat="40.9023427699564" lon="9.105878536990144"><ele>554.0</ele><time>2026-05-01T15:35:07Z</time></trkpt><trkpt lat="40.90242918901511" lon="9.105894444302006"><ele>554.0</ele><time>2026-05-01T15:35:08Z</time></trkpt><trkpt lat="40.90251863912356" lon="9.105911464645512"><ele>554.0</ele><time>2026-05-01T15:35:09Z</time></trkpt><trkpt lat="40.90260152505378" lon="9.105956324637638"><ele>556.0</ele><time>2026-05-01T15:35:10Z</time></trkpt><trkpt lat="40.9026549351351" lon="9.10603677015448"><ele>558.0</ele><time>2026-05-01T15:35:11Z</time></trkpt><trkpt lat="40.90269387061627" lon="9.106137155422397"><ele>560.0</ele><time>2026-05-01T15:35:12Z</time></trkpt><trkpt lat="40.90271923668899" lon="9.106244907225689"><ele>562.0</ele><time>2026-05-01T15:35:13Z</time></trkpt><trkpt lat="40.902754712720814" lon="9.106363353193109"><ele>564.0</ele><time>2026-05-01T15:35:14Z</time></trkpt><trkpt lat="40.9027923002864" lon="9.106490288038218"><ele>562.8</ele><time>2026-05-01T15:35:15Z</time></trkpt><trkpt lat="40.902836602644" lon="9.106616767983105"><ele>561.5999999999999</ele><time>2026-05-01T15:35:16Z</time></trkpt><trkpt lat="40.90291363953747" lon="9.10672577303642"><ele>560.4</ele><time>2026-05-01T15:35:17Z</time></trkpt><trkpt lat="40.902985727512814" lon="9.106834929333116"><ele>559.1999999999999</ele><time>2026-05-01T15:35:18Z</time></trkpt><trkpt lat="40.90308081366774" lon="9.106909138762688"><ele>558.0</ele><time>2026-05-01T15:35:19Z</time></trkpt><trkpt lat="40.90317570583309" lon="9.106938705355848"><ele>558.0</ele><time>2026-05-01T15:35:20Z</time></trkpt><trkpt lat="40.903248859825545" lon="9.106953097050177"><ele>558.0</ele><time>2026-05-01T15:35:21Z</time></trkpt><trkpt lat="40.90336393063792" lon="9.106971249907176"><ele>558.0</ele><time>2026-05-01T15:35:23Z</time></trkpt><trkpt lat="40.903499859602235" lon="9.106993171052197"><ele>558.0</ele><time>2026-05-01T15:35:25Z</time></trkpt><trkpt lat="40.90358840667878" lon="9.107018293505108"><ele>558.0</ele><time>2026-05-01T15:35:26Z</time></trkpt><trkpt lat="40.90368535796679" lon="9.107054663654301"><ele>558.75</ele><time>2026-05-01T15:35:27Z</time></trkpt><trkpt lat="40.90379224250825" lon="9.107096891375337"><ele>559.5</ele><time>2026-05-01T15:35:28Z</time></trkpt><trkpt lat="40.903919425507794" lon="9.107158444982538"><ele>560.25</ele><time>2026-05-01T15:35:29Z</time></trkpt><trkpt lat="40.90406709174741" lon="9.107236433972728"><ele>561.0</ele><time>2026-05-01T15:35:30Z</time></trkpt><trkpt lat="40.90421123504383" lon="9.107300076888599"><ele>560.75</ele><time>2026-05-01T15:35:31Z</time></trkpt><trkpt lat="40.90433615383576" lon="9.10732792877072"><ele>560.5</ele><time>2026-05-01T15:35:32Z</time></trkpt><trkpt lat="40.90446585457305" lon="9.107292894899363"><ele>560.25</ele><time>2026-05-01T15:35:33Z</time></trkpt><trkpt lat="40.904583834403766" lon="9.107187576178918"><ele>560.0</ele><time>2026-05-01T15:35:34Z</time></trkpt><trkpt lat="40.90466927885889" lon="9.107041216241894"><ele>560.0</ele><time>2026-05-01T15:35:35Z</time></trkpt><trkpt lat="40.904720016455435" lon="9.106910293142793"><ele>560.0</ele><time>2026-05-01T15:35:36Z</time></trkpt><trkpt lat="40.9047165508001" lon="9.10676768597324"><ele>560.0</ele><time>2026-05-01T15:35:37Z</time></trkpt><trkpt lat="40.90473059679791" lon="9.106638884649385"><ele>560.0</ele><time>2026-05-01T15:35:38Z</time></trkpt><trkpt lat="40.90473707720504" lon="9.106510801837171"><ele>560.0</ele><time>2026-05-01T15:35:39Z</time></trkpt><trkpt lat="40.90474266321159" lon="9.106395003029304"><ele>560.0</ele><time>2026-05-01T15:35:40Z</time></trkpt><trkpt lat="40.90475470650433" lon="9.106281929326387"><ele>560.0</ele><time>2026-05-01T15:35:41Z</time></trkpt><trkpt lat="40.90476515259261" lon="9.106169902808153"><ele>560.0</ele><time>2026-05-01T15:35:42Z</time></trkpt><trkpt lat="40.904775388362815" lon="9.1060510089525"><ele>560.0</ele><time>2026-05-01T15:35:43Z</time></trkpt><trkpt lat="40.904786314505635" lon="9.10593021038093"><ele>560.0</ele><time>2026-05-01T15:35:44Z</time></trkpt><trkpt lat="40.90478772943076" lon="9.105802088413265"><ele>559.4</ele><time>2026-05-01T15:35:45Z</time></trkpt><trkpt lat="40.90477936828363" lon="9.10566628338059"><ele>558.8</ele><time>2026-05-01T15:35:46Z</time></trkpt><trkpt lat="40.90477463456229" lon="9.105518738139436"><ele>558.2</ele><time>2026-05-01T15:35:47Z</time></trkpt><trkpt lat="40.90473738705282" lon="9.105404343591717"><ele>557.6</ele><time>2026-05-01T15:35:48Z</time></trkpt><trkpt lat="40.90471151069265" lon="9.105282431943577"><ele>557.0</ele><time>2026-05-01T15:35:49Z</time></trkpt><trkpt lat="40.90467523977927" lon="9.105162893734734"><ele>557.0</ele><time>2026-05-01T15:35:50Z</time></trkpt><trkpt lat="40.90463500862634" lon="9.10503469790096"><ele>557.0</ele><time>2026-05-01T15:35:51Z</time></trkpt><trkpt lat="40.904642570269445" lon="9.104894703298626"><ele>557.0</ele><time>2026-05-01T15:35:52Z</time></trkpt><trkpt lat="40.904648585771795" lon="9.104756298279899"><ele>557.0</ele><time>2026-05-01T15:35:53Z</time></trkpt><trkpt lat="40.90470113032602" lon="9.104628248652489"><ele>557.0</ele><time>2026-05-01T15:35:54Z</time></trkpt><trkpt lat="40.90474364038135" lon="9.104485311293963"><ele>557.0</ele><time>2026-05-01T15:35:55Z</time></trkpt><trkpt lat="40.904801725714655" lon="9.104355338761996"><ele>557.0</ele><time>2026-05-01T15:35:56Z</time></trkpt><trkpt lat="40.904852584039155" lon="9.104229734548168"><ele>557.0</ele><time>2026-05-01T15:35:57Z</time></trkpt><trkpt lat="40.90490615695938" lon="9.104104252849798"><ele>557.0</ele><time>2026-05-01T15:35:58Z</time></trkpt><trkpt lat="40.904963695504826" lon="9.10397927124606"><ele>557.0</ele><time>2026-05-01T15:35:59Z</time></trkpt><trkpt lat="40.90502437317134" lon="9.103873697077232"><ele>556.4</ele><time>2026-05-01T15:36:00Z</time></trkpt><trkpt lat="40.905102318385666" lon="9.103793485877375"><ele>555.8000000000001</ele><time>2026-05-01T15:36:01Z</time></trkpt><trkpt lat="40.90519557160487" lon="9.103731527570952"><ele>555.2</ele><time>2026-05-01T15:36:02Z</time></trkpt><trkpt lat="40.90529478108241" lon="9.10368174988305"><ele>554.6</ele><time>2026-05-01T15:36:03Z</time></trkpt><trkpt lat="40.90539400161703" lon="9.10363676418319"><ele>554.0</ele><time>2026-05-01T15:36:04Z</time></trkpt><trkpt lat="40.90549094221285" lon="9.103596418770286"><ele>554.0</ele><time>2026-05-01T15:36:05Z</time></trkpt><trkpt lat="40.90558494810059" lon="9.103555833681243"><ele>554.0</ele><time>2026-05-01T15:36:06Z</time></trkpt><trkpt lat="40.905670578578544" lon="9.103521286352173"><ele>554.0</ele><time>2026-05-01T15:36:07Z</time></trkpt><trkpt lat="40.90575063437333" lon="9.10347930691514"><ele>554.0</ele><time>2026-05-01T15:36:08Z</time></trkpt><trkpt lat="40.905828613895615" lon="9.103429329322246"><ele>554.0</ele><time>2026-05-01T15:36:09Z</time></trkpt><trkpt lat="40.90589873014509" lon="9.103369517228291"><ele>554.0</ele><time>2026-05-01T15:36:10Z</time></trkpt><trkpt lat="40.905957622304044" lon="9.103289245751663"><ele>552.2</ele><time>2026-05-01T15:36:11Z</time></trkpt><trkpt lat="40.906001107567164" lon="9.103183998846033"><ele>550.4</ele><time>2026-05-01T15:36:12Z</time></trkpt><trkpt lat="40.906022439451306" lon="9.103056520548328"><ele>548.6</ele><time>2026-05-01T15:36:13Z</time></trkpt><trkpt lat="40.90602897648474" lon="9.102917126087187"><ele>546.8</ele><time>2026-05-01T15:36:14Z</time></trkpt><trkpt lat="40.90603014501797" lon="9.102774992217203"><ele>545.0</ele><time>2026-05-01T15:36:15Z</time></trkpt><trkpt lat="40.906024051276795" lon="9.102641523746474"><ele>545.0</ele><time>2026-05-01T15:36:16Z</time></trkpt><trkpt lat="40.90601822135649" lon="9.102502275491924"><ele>545.0</ele><time>2026-05-01T15:36:17Z</time></trkpt><trkpt lat="40.90602677505865" lon="9.102359557374081"><ele>545.0</ele><time>2026-05-01T15:36:18Z</time></trkpt><trkpt lat="40.906048799939086" lon="9.102215188257311"><ele>545.0</ele><time>2026-05-01T15:36:19Z</time></trkpt><trkpt lat="40.90608169370988" lon="9.102071248348581"><ele>545.0</ele><time>2026-05-01T15:36:20Z</time></trkpt><trkpt lat="40.906125595583106" lon="9.101926374035589"><ele>544.75</ele><time>2026-05-01T15:36:21Z</time></trkpt><trkpt lat="40.906171867674054" lon="9.10177789998606"><ele>544.5</ele><time>2026-05-01T15:36:22Z</time></trkpt><trkpt lat="40.906202775303484" lon="9.101614271644566"><ele>544.25</ele><time>2026-05-01T15:36:23Z</time></trkpt><trkpt lat="40.9062067533047" lon="9.10144368500447"><ele>544.0</ele><time>2026-05-01T15:36:24Z</time></trkpt><trkpt lat="40.90613052255044" lon="9.10127829767776"><ele>543.25</ele><time>2026-05-01T15:36:25Z</time></trkpt><trkpt lat="40.906032020924265" lon="9.10113266023758"><ele>542.5</ele><time>2026-05-01T15:36:26Z</time></trkpt><trkpt lat="40.905931387331165" lon="9.100987761457219"><ele>541.75</ele><time>2026-05-01T15:36:27Z</time></trkpt><trkpt lat="40.90584452856777" lon="9.100859409787724"><ele>541.0</ele><time>2026-05-01T15:36:28Z</time></trkpt><trkpt lat="40.905768565682074" lon="9.100737445403228"><ele>542.2</ele><time>2026-05-01T15:36:29Z</time></trkpt><trkpt lat="40.9057054782601" lon="9.100629389163469"><ele>543.4000000000001</ele><time>2026-05-01T15:36:30Z</time></trkpt><trkpt lat="40.90564344864483" lon="9.100523995306698"><ele>544.6</ele><time>2026-05-01T15:36:31Z</time></trkpt><trkpt lat="40.90558361059017" lon="9.100422111836805"><ele>545.8000000000001</ele><time>2026-05-01T15:36:32Z</time></trkpt><trkpt lat="40.9055285809914" lon="9.100326926473691"><ele>547.0</ele><time>2026-05-01T15:36:33Z</time></trkpt><trkpt lat="40.90547870570856" lon="9.100235657356963"><ele>547.0</ele><time>2026-05-01T15:36:34Z</time></trkpt><trkpt lat="40.905442245863895" lon="9.10013723164527"><ele>547.0</ele><time>2026-05-01T15:36:35Z</time></trkpt><trkpt lat="40.90542817644568" lon="9.100032256672712"><ele>547.0</ele><time>2026-05-01T15:36:36Z</time></trkpt><trkpt lat="40.90538996562486" lon="9.099940853144311"><ele>547.0</ele><time>2026-05-01T15:36:37Z</time></trkpt><trkpt lat="40.90531633647948" lon="9.099874831517285"><ele>547.0</ele><time>2026-05-01T15:36:38Z</time></trkpt><trkpt lat="40.905231011538355" lon="9.099816597631994"><ele>547.0</ele><time>2026-05-01T15:36:39Z</time></trkpt><trkpt lat="40.90514952253288" lon="9.099731122851326"><ele>544.75</ele><time>2026-05-01T15:36:40Z</time></trkpt><trkpt lat="40.90506968474848" lon="9.099609792853123"><ele>542.5</ele><time>2026-05-01T15:36:41Z</time></trkpt><trkpt lat="40.90499009527596" lon="9.099472622923987"><ele>540.25</ele><time>2026-05-01T15:36:42Z</time></trkpt><trkpt lat="40.9049068609748" lon="9.099332014790116"><ele>538.0</ele><time>2026-05-01T15:36:43Z</time></trkpt><trkpt lat="40.90481798140683" lon="9.09918783146294"><ele>536.5</ele><time>2026-05-01T15:36:44Z</time></trkpt><trkpt lat="40.904743038269906" lon="9.099032862375433"><ele>535.0</ele><time>2026-05-01T15:36:45Z</time></trkpt><trkpt lat="40.904651129337076" lon="9.098916092831697"><ele>533.5</ele><time>2026-05-01T15:36:46Z</time></trkpt><trkpt lat="40.90457960784382" lon="9.098794353636077"><ele>532.0</ele><time>2026-05-01T15:36:47Z</time></trkpt><trkpt lat="40.90453094885795" lon="9.098658026413595"><ele>532.0</ele><time>2026-05-01T15:36:48Z</time></trkpt><trkpt lat="40.90448278810328" lon="9.098528132147624"><ele>532.0</ele><time>2026-05-01T15:36:49Z</time></trkpt><trkpt lat="40.90450592808777" lon="9.098371621494966"><ele>532.0</ele><time>2026-05-01T15:36:50Z</time></trkpt><trkpt lat="40.90453761993544" lon="9.098213515837863"><ele>532.0</ele><time>2026-05-01T15:36:51Z</time></trkpt><trkpt lat="40.90456738633953" lon="9.098066651390404"><ele>530.1666666666667</ele><time>2026-05-01T15:36:52Z</time></trkpt><trkpt lat="40.90459943425503" lon="9.097953335902814"><ele>528.3333333333334</ele><time>2026-05-01T15:36:53Z</time></trkpt><trkpt lat="40.904622633151504" lon="9.097863853608633"><ele>526.5</ele><time>2026-05-01T15:36:54Z</time></trkpt><trkpt lat="40.904647228411" lon="9.097772577497746"><ele>524.6666666666666</ele><time>2026-05-01T15:36:55Z</time></trkpt><trkpt lat="40.90471969585021" lon="9.097733589879041"><ele>522.8333333333333</ele><time>2026-05-01T15:36:56Z</time></trkpt><trkpt lat="40.90478662607464" lon="9.097655548645546"><ele>521.0</ele><time>2026-05-01T15:36:57Z</time></trkpt><trkpt lat="40.90476950474018" lon="9.097420881184403"><ele>521.0</ele><time>2026-05-01T15:36:58Z</time></trkpt><trkpt lat="40.90484418526092" lon="9.097287635018334"><ele>521.0</ele><time>2026-05-01T15:36:59Z</time></trkpt><trkpt lat="40.904933812468926" lon="9.097149138575345"><ele>521.0</ele><time>2026-05-01T15:37:00Z</time></trkpt><trkpt lat="40.9050320973387" lon="9.097005323306197"><ele>521.0</ele><time>2026-05-01T15:37:01Z</time></trkpt><trkpt lat="40.905134106059215" lon="9.096861186151015"><ele>521.0</ele><time>2026-05-01T15:37:02Z</time></trkpt><trkpt lat="40.90523467488386" lon="9.096718003413788"><ele>521.0</ele><time>2026-05-01T15:37:03Z</time></trkpt><trkpt lat="40.905325434578366" lon="9.096586764371363"><ele>521.0</ele><time>2026-05-01T15:37:04Z</time></trkpt><trkpt lat="40.9054095589015" lon="9.09646327307377"><ele>521.0</ele><time>2026-05-01T15:37:05Z</time></trkpt><trkpt lat="40.90558133712087" lon="9.096220136491757"><ele>518.75</ele><time>2026-05-01T15:37:07Z</time></trkpt><trkpt lat="40.90567724043071" lon="9.09609144020874"><ele>516.5</ele><time>2026-05-01T15:37:08Z</time></trkpt><trkpt lat="40.9057816938821" lon="9.095967600556465"><ele>514.25</ele><time>2026-05-01T15:37:09Z</time></trkpt><trkpt lat="40.90590178472575" lon="9.095863045476682"><ele>512.0</ele><time>2026-05-01T15:37:10Z</time></trkpt><trkpt lat="40.90603995091723" lon="9.095791194939821"><ele>508.3333333333333</ele><time>2026-05-01T15:37:11Z</time></trkpt><trkpt lat="40.906191220977405" lon="9.09574756833517"><ele>504.66666666666663</ele><time>2026-05-01T15:37:12Z</time></trkpt><trkpt lat="40.90634457715773" lon="9.095726456041417"><ele>501.0</ele><time>2026-05-01T15:37:13Z</time></trkpt><trkpt lat="40.90649245241081" lon="9.095722332297056"><ele>501.0</ele><time>2026-05-01T15:37:14Z</time></trkpt><trkpt lat="40.90662330344463" lon="9.095695063837583"><ele>501.0</ele><time>2026-05-01T15:37:15Z</time></trkpt><trkpt lat="40.90673651506812" lon="9.095604193480705"><ele>501.0</ele><time>2026-05-01T15:37:16Z</time></trkpt><trkpt lat="40.90683061403919" lon="9.095453399043716"><ele>501.0</ele><time>2026-05-01T15:37:17Z</time></trkpt><trkpt lat="40.90692259800179" lon="9.095281687308177"><ele>500.33333333333337</ele><time>2026-05-01T15:37:18Z</time></trkpt><trkpt lat="40.90701217328894" lon="9.095111832688582"><ele>499.6666666666667</ele><time>2026-05-01T15:37:19Z</time></trkpt><trkpt lat="40.9070883896134" lon="9.094939790154424"><ele>499.0</ele><time>2026-05-01T15:37:20Z</time></trkpt><trkpt lat="40.907132700137275" lon="9.094742915675097"><ele>499.0</ele><time>2026-05-01T15:37:21Z</time></trkpt><trkpt lat="40.90713577490967" lon="9.094528682218256"><ele>499.0</ele><time>2026-05-01T15:37:22Z</time></trkpt><trkpt lat="40.907123500186" lon="9.094300947605852"><ele>499.0</ele><time>2026-05-01T15:37:23Z</time></trkpt><trkpt lat="40.9071100636568" lon="9.094075043250148"><ele>496.0</ele><time>2026-05-01T15:37:24Z</time></trkpt><trkpt lat="40.90709727377029" lon="9.0938491162813"><ele>493.0</ele><time>2026-05-01T15:37:25Z</time></trkpt><trkpt lat="40.90708462988916" lon="9.093628622193535"><ele>490.0</ele><time>2026-05-01T15:37:26Z</time></trkpt><trkpt lat="40.907073023032225" lon="9.09340816547858"><ele>490.0</ele><time>2026-05-01T15:37:27Z</time></trkpt><trkpt lat="40.90706516655964" lon="9.093188467210009"><ele>490.0</ele><time>2026-05-01T15:37:28Z</time></trkpt><trkpt lat="40.90707132438196" lon="9.092966679740421"><ele>490.0</ele><time>2026-05-01T15:37:29Z</time></trkpt><trkpt lat="40.90712854025128" lon="9.092750876579473"><ele>490.0</ele><time>2026-05-01T15:37:30Z</time></trkpt><trkpt lat="40.907183848323356" lon="9.0925356704527"><ele>490.0</ele><time>2026-05-01T15:37:31Z</time></trkpt><trkpt lat="40.907279940359615" lon="9.092330302342841"><ele>490.0</ele><time>2026-05-01T15:37:32Z</time></trkpt><trkpt lat="40.90737056903409" lon="9.092121501911741"><ele>490.33333333333337</ele><time>2026-05-01T15:37:33Z</time></trkpt><trkpt lat="40.907439966473234" lon="9.091906132742727"><ele>490.66666666666663</ele><time>2026-05-01T15:37:34Z</time></trkpt><trkpt lat="40.9074695712338" lon="9.091676165621102"><ele>491.0</ele><time>2026-05-01T15:37:35Z</time></trkpt><trkpt lat="40.90745670192333" lon="9.091436729364656"><ele>490.0</ele><time>2026-05-01T15:37:36Z</time></trkpt><trkpt lat="40.90739183312051" lon="9.091200013724242"><ele>489.0</ele><time>2026-05-01T15:37:37Z</time></trkpt><trkpt lat="40.90733685245992" lon="9.0909657193414"><ele>488.0</ele><time>2026-05-01T15:37:38Z</time></trkpt><trkpt lat="40.90728990663564" lon="9.090726816041899"><ele>487.66666666666663</ele><time>2026-05-01T15:37:39Z</time></trkpt><trkpt lat="40.90726606563591" lon="9.090491388938666"><ele>487.33333333333337</ele><time>2026-05-01T15:37:40Z</time></trkpt><trkpt lat="40.907287467935056" lon="9.090251755165085"><ele>487.0</ele><time>2026-05-01T15:37:41Z</time></trkpt><trkpt lat="40.90737037067376" lon="9.09002170082156"><ele>488.6666666666667</ele><time>2026-05-01T15:37:42Z</time></trkpt><trkpt lat="40.90745223681826" lon="9.089786753736758"><ele>490.33333333333337</ele><time>2026-05-01T15:37:43Z</time></trkpt><trkpt lat="40.90752324946665" lon="9.089544187826892"><ele>492.0</ele><time>2026-05-01T15:37:44Z</time></trkpt><trkpt lat="40.90759435689462" lon="9.089301122260512"><ele>487.33333333333337</ele><time>2026-05-01T15:37:45Z</time></trkpt><trkpt lat="40.90766666284304" lon="9.089060477565425"><ele>482.6666666666667</ele><time>2026-05-01T15:37:46Z</time></trkpt><trkpt lat="40.90773485155681" lon="9.088816166574611"><ele>478.0</ele><time>2026-05-01T15:37:47Z</time></trkpt><trkpt lat="40.90779942035575" lon="9.088580802983738"><ele>478.0</ele><time>2026-05-01T15:37:48Z</time></trkpt><trkpt lat="40.907859171692536" lon="9.088335940846257"><ele>478.0</ele><time>2026-05-01T15:37:49Z</time></trkpt><trkpt lat="40.90789533943787" lon="9.088078627899526"><ele>478.0</ele><time>2026-05-01T15:37:50Z</time></trkpt><trkpt lat="40.90790537811561" lon="9.087814652554455"><ele>477.6666666666667</ele><time>2026-05-01T15:37:51Z</time></trkpt><trkpt lat="40.90790247138189" lon="9.08753810127092"><ele>477.33333333333337</ele><time>2026-05-01T15:37:52Z</time></trkpt><trkpt lat="40.90789553231137" lon="9.087277228476305"><ele>477.0</ele><time>2026-05-01T15:37:53Z</time></trkpt><trkpt lat="40.907888718070254" lon="9.087010203372174"><ele>476.66666666666663</ele><time>2026-05-01T15:37:54Z</time></trkpt><trkpt lat="40.907881683534384" lon="9.086748211729082"><ele>476.3333333333333</ele><time>2026-05-01T15:37:55Z</time></trkpt><trkpt lat="40.90787655057431" lon="9.086491302647257"><ele>476.0</ele><time>2026-05-01T15:37:56Z</time></trkpt><trkpt lat="40.907874550555626" lon="9.08625782321362"><ele>476.0</ele><time>2026-05-01T15:37:57Z</time></trkpt><trkpt lat="40.90787116737985" lon="9.086035562112901"><ele>476.0</ele><time>2026-05-01T15:37:58Z</time></trkpt><trkpt lat="40.907864777090005" lon="9.085813208442636"><ele>476.0</ele><time>2026-05-01T15:37:59Z</time></trkpt><trkpt lat="40.90786247287347" lon="9.085585865196792"><ele>475.66666666666663</ele><time>2026-05-01T15:38:00Z</time></trkpt><trkpt lat="40.90786406758459" lon="9.085355603710711"><ele>475.33333333333337</ele><time>2026-05-01T15:38:01Z</time></trkpt><trkpt lat="40.90786569456773" lon="9.085133362516912"><ele>475.0</ele><time>2026-05-01T15:38:02Z</time></trkpt><trkpt lat="40.90786386323591" lon="9.084927698735155"><ele>476.0</ele><time>2026-05-01T15:38:03Z</time></trkpt><trkpt lat="40.907858596029726" lon="9.084735470663153"><ele>477.0</ele><time>2026-05-01T15:38:04Z</time></trkpt><trkpt lat="40.907857039440316" lon="9.084551075600537"><ele>478.0</ele><time>2026-05-01T15:38:05Z</time></trkpt><trkpt lat="40.90786276807765" lon="9.084384946335929"><ele>479.0</ele><time>2026-05-01T15:38:06Z</time></trkpt><trkpt lat="40.90787490497765" lon="9.084228522155279"><ele>479.0</ele><time>2026-05-01T15:38:07Z</time></trkpt><trkpt lat="40.90789770182805" lon="9.084107150305147"><ele>479.0</ele><time>2026-05-01T15:38:08Z</time></trkpt><trkpt lat="40.90794964085163" lon="9.084010725544392"><ele>479.0</ele><time>2026-05-01T15:38:09Z</time></trkpt><trkpt lat="40.90802819995088" lon="9.083930961305692"><ele>479.0</ele><time>2026-05-01T15:38:10Z</time></trkpt><trkpt lat="40.9081292752156" lon="9.083847120044075"><ele>479.0</ele><time>2026-05-01T15:38:11Z</time></trkpt><trkpt lat="40.90821249500763" lon="9.08374583715225"><ele>480.75</ele><time>2026-05-01T15:38:12Z</time></trkpt><trkpt lat="40.9083191795135" lon="9.083648627620878"><ele>482.5</ele><time>2026-05-01T15:38:13Z</time></trkpt><trkpt lat="40.908447528742286" lon="9.083586643916915"><ele>484.25</ele><time>2026-05-01T15:38:14Z</time></trkpt><trkpt lat="40.90859546055812" lon="9.083572813243581"><ele>486.0</ele><time>2026-05-01T15:38:15Z</time></trkpt><trkpt lat="40.90877113029415" lon="9.083596353413016"><ele>487.0</ele><time>2026-05-01T15:38:16Z</time></trkpt><trkpt lat="40.90894895046976" lon="9.083613772834454"><ele>488.0</ele><time>2026-05-01T15:38:17Z</time></trkpt><trkpt lat="40.909134768061044" lon="9.08361075374461"><ele>489.0</ele><time>2026-05-01T15:38:18Z</time></trkpt><trkpt lat="40.9093210919515" lon="9.083597081796194"><ele>489.0</ele><time>2026-05-01T15:38:19Z</time></trkpt><trkpt lat="40.90951324212054" lon="9.083575829405184"><ele>489.0</ele><time>2026-05-01T15:38:20Z</time></trkpt><trkpt lat="40.909705704163216" lon="9.083522341108212"><ele>489.0</ele><time>2026-05-01T15:38:21Z</time></trkpt><trkpt lat="40.90992133739033" lon="9.083474934405876"><ele>487.0</ele><time>2026-05-01T15:38:22Z</time></trkpt><trkpt lat="40.91013395115945" lon="9.08342392631745"><ele>485.0</ele><time>2026-05-01T15:38:23Z</time></trkpt><trkpt lat="40.91032373255808" lon="9.083375935387364"><ele>483.0</ele><time>2026-05-01T15:38:24Z</time></trkpt><trkpt lat="40.91050093010339" lon="9.083322020578237"><ele>481.33333333333337</ele><time>2026-05-01T15:38:25Z</time></trkpt><trkpt lat="40.91066410455308" lon="9.083247673483807"><ele>479.6666666666667</ele><time>2026-05-01T15:38:26Z</time></trkpt><trkpt lat="40.910822987855774" lon="9.083151275431415"><ele>478.0</ele><time>2026-05-01T15:38:27Z</time></trkpt><trkpt lat="40.91096673890212" lon="9.08302034803593"><ele>478.0</ele><time>2026-05-01T15:38:28Z</time></trkpt><trkpt lat="40.91109502342809" lon="9.082840074252143"><ele>478.0</ele><time>2026-05-01T15:38:29Z</time></trkpt><trkpt lat="40.91121568980027" lon="9.082629766597504"><ele>478.0</ele><time>2026-05-01T15:38:30Z</time></trkpt><trkpt lat="40.91134517054825" lon="9.082395732521562"><ele>480.6666666666667</ele><time>2026-05-01T15:38:31Z</time></trkpt><trkpt lat="40.91146336590586" lon="9.082171969153851"><ele>483.33333333333337</ele><time>2026-05-01T15:38:32Z</time></trkpt><trkpt lat="40.9115632773155" lon="9.08192717786731"><ele>486.0</ele><time>2026-05-01T15:38:33Z</time></trkpt><trkpt lat="40.911653495391946" lon="9.081657347297535"><ele>482.0</ele><time>2026-05-01T15:38:34Z</time></trkpt><trkpt lat="40.91174128104851" lon="9.081412740450778"><ele>478.0</ele><time>2026-05-01T15:38:35Z</time></trkpt><trkpt lat="40.91181778598858" lon="9.081192320240177"><ele>474.0</ele><time>2026-05-01T15:38:36Z</time></trkpt><trkpt lat="40.91188107811895" lon="9.080984718624348"><ele>475.66666666666663</ele><time>2026-05-01T15:38:37Z</time></trkpt><trkpt lat="40.91192624286068" lon="9.080764461146327"><ele>477.3333333333333</ele><time>2026-05-01T15:38:38Z</time></trkpt><trkpt lat="40.91194325405768" lon="9.080518991327247"><ele>479.0</ele><time>2026-05-01T15:38:39Z</time></trkpt><trkpt lat="40.91192423285728" lon="9.080257934135549"><ele>479.0</ele><time>2026-05-01T15:38:40Z</time></trkpt><trkpt lat="40.91188771480234" lon="9.07994412522733"><ele>479.0</ele><time>2026-05-01T15:38:41Z</time></trkpt><trkpt lat="40.91185884172018" lon="9.079642129850471"><ele>482.0</ele><time>2026-05-01T15:38:42Z</time></trkpt><trkpt lat="40.91185136943789" lon="9.079356605344135"><ele>485.0</ele><time>2026-05-01T15:38:43Z</time></trkpt><trkpt lat="40.91182028126932" lon="9.07911835414597"><ele>488.0</ele><time>2026-05-01T15:38:44Z</time></trkpt><trkpt lat="40.91180659946819" lon="9.078881690475315"><ele>490.3333333333333</ele><time>2026-05-01T15:38:45Z</time></trkpt><trkpt lat="40.911797323248756" lon="9.078654089434247"><ele>492.66666666666663</ele><time>2026-05-01T15:38:46Z</time></trkpt><trkpt lat="40.91178688168632" lon="9.078454710043674"><ele>495.0</ele><time>2026-05-01T15:38:47Z</time></trkpt><trkpt lat="40.911792552612184" lon="9.078262574193657"><ele>499.25</ele><time>2026-05-01T15:38:48Z</time></trkpt><trkpt lat="40.91183203554878" lon="9.078083610041698"><ele>503.5</ele><time>2026-05-01T15:38:49Z</time></trkpt><trkpt lat="40.91189013330299" lon="9.07796315859812"><ele>507.75</ele><time>2026-05-01T15:38:50Z</time></trkpt><trkpt lat="40.91197668620257" lon="9.077901185785935"><ele>512.0</ele><time>2026-05-01T15:38:51Z</time></trkpt><trkpt lat="40.91208667330701" lon="9.077893305966713"><ele>512.0</ele><time>2026-05-01T15:38:52Z</time></trkpt><trkpt lat="40.91220380998956" lon="9.077931906058142"><ele>512.0</ele><time>2026-05-01T15:38:53Z</time></trkpt><trkpt lat="40.91235299701873" lon="9.078018408467388"><ele>512.0</ele><time>2026-05-01T15:38:54Z</time></trkpt><trkpt lat="40.91251965359837" lon="9.078086309166899"><ele>512.3333333333333</ele><time>2026-05-01T15:38:55Z</time></trkpt><trkpt lat="40.91269329676816" lon="9.078158838538373"><ele>512.6666666666666</ele><time>2026-05-01T15:38:56Z</time></trkpt><trkpt lat="40.91283829302093" lon="9.078225459758915"><ele>513.0</ele><time>2026-05-01T15:38:57Z</time></trkpt><trkpt lat="40.91296867057432" lon="9.078294794967908"><ele>513.0</ele><time>2026-05-01T15:38:58Z</time></trkpt><trkpt lat="40.913078026480484" lon="9.078393813631713"><ele>513.0</ele><time>2026-05-01T15:38:59Z</time></trkpt><trkpt lat="40.91317739024917" lon="9.078519095409376"><ele>513.0</ele><time>2026-05-01T15:39:00Z</time></trkpt><trkpt lat="40.913259678078276" lon="9.07863894763948"><ele>513.0</ele><time>2026-05-01T15:39:01Z</time></trkpt><trkpt lat="40.913333186002184" lon="9.078755534026993"><ele>512.75</ele><time>2026-05-01T15:39:02Z</time></trkpt><trkpt lat="40.91341277300022" lon="9.078868164315477"><ele>512.5</ele><time>2026-05-01T15:39:03Z</time></trkpt><trkpt lat="40.91349597228364" lon="9.078984327647255"><ele>512.25</ele><time>2026-05-01T15:39:04Z</time></trkpt><trkpt lat="40.9135839528427" lon="9.079103418419683"><ele>512.0</ele><time>2026-05-01T15:39:05Z</time></trkpt><trkpt lat="40.91368550010473" lon="9.07920345486784"><ele>512.0</ele><time>2026-05-01T15:39:06Z</time></trkpt><trkpt lat="40.91381599839516" lon="9.079251297884934"><ele>512.0</ele><time>2026-05-01T15:39:07Z</time></trkpt><trkpt lat="40.913962763319304" lon="9.079252280486903"><ele>512.0</ele><time>2026-05-01T15:39:08Z</time></trkpt><trkpt lat="40.91409236925487" lon="9.079246440576682"><ele>512.0</ele><time>2026-05-01T15:39:09Z</time></trkpt><trkpt lat="40.91421015598843" lon="9.079242366690588"><ele>512.2</ele><time>2026-05-01T15:39:10Z</time></trkpt><trkpt lat="40.914328264382135" lon="9.079232988651217"><ele>512.4000000000001</ele><time>2026-05-01T15:39:11Z</time></trkpt><trkpt lat="40.914438316433795" lon="9.07924769221161"><ele>512.5999999999999</ele><time>2026-05-01T15:39:12Z</time></trkpt><trkpt lat="40.91453305723451" lon="9.079254935303677"><ele>512.8</ele><time>2026-05-01T15:39:13Z</time></trkpt><trkpt lat="40.9146301914956" lon="9.07928035889845"><ele>513.0</ele><time>2026-05-01T15:39:14Z</time></trkpt><trkpt lat="40.914728405165334" lon="9.079321553230773"><ele>513.0</ele><time>2026-05-01T15:39:15Z</time></trkpt><trkpt lat="40.91484299661982" lon="9.07936344629286"><ele>513.0</ele><time>2026-05-01T15:39:16Z</time></trkpt><trkpt lat="40.91495103270599" lon="9.07943287365963"><ele>513.0</ele><time>2026-05-01T15:39:17Z</time></trkpt><trkpt lat="40.91509179471814" lon="9.079531610304057"><ele>513.0</ele><time>2026-05-01T15:39:18Z</time></trkpt><trkpt lat="40.91520381266419" lon="9.079591463356694"><ele>512.4</ele><time>2026-05-01T15:39:19Z</time></trkpt><trkpt lat="40.91530622800991" lon="9.079643797025643"><ele>511.79999999999995</ele><time>2026-05-01T15:39:20Z</time></trkpt><trkpt lat="40.91540949751397" lon="9.079671371975744"><ele>511.2</ele><time>2026-05-01T15:39:21Z</time></trkpt><trkpt lat="40.915509994295824" lon="9.07965207024953"><ele>510.6</ele><time>2026-05-01T15:39:22Z</time></trkpt><trkpt lat="40.91559919828343" lon="9.079582486999776"><ele>510.0</ele><time>2026-05-01T15:39:23Z</time></trkpt><trkpt lat="40.915669504055884" lon="9.079467519973631"><ele>510.0</ele><time>2026-05-01T15:39:24Z</time></trkpt><trkpt lat="40.91570694183649" lon="9.07928755335728"><ele>510.0</ele><time>2026-05-01T15:39:25Z</time></trkpt><trkpt lat="40.915724250685365" lon="9.079086132431256"><ele>510.0</ele><time>2026-05-01T15:39:26Z</time></trkpt><trkpt lat="40.91576239944667" lon="9.078859356562074"><ele>509.5</ele><time>2026-05-01T15:39:27Z</time></trkpt><trkpt lat="40.9158124307138" lon="9.078652816384093"><ele>509.0</ele><time>2026-05-01T15:39:28Z</time></trkpt><trkpt lat="40.91585884004588" lon="9.07848251655462"><ele>508.5</ele><time>2026-05-01T15:39:29Z</time></trkpt><trkpt lat="40.915900913194804" lon="9.078307313278563"><ele>508.0</ele><time>2026-05-01T15:39:30Z</time></trkpt><trkpt lat="40.91589416058079" lon="9.078119968617239"><ele>506.0</ele><time>2026-05-01T15:39:31Z</time></trkpt><trkpt lat="40.91587574667906" lon="9.077930399955811"><ele>504.0</ele><time>2026-05-01T15:39:32Z</time></trkpt><trkpt lat="40.91584468737967" lon="9.077725098320998"><ele>502.0</ele><time>2026-05-01T15:39:33Z</time></trkpt><trkpt lat="40.915818323051305" lon="9.077496595503252"><ele>499.0</ele><time>2026-05-01T15:39:34Z</time></trkpt><trkpt lat="40.91576652122687" lon="9.077276250058453"><ele>496.0</ele><time>2026-05-01T15:39:35Z</time></trkpt><trkpt lat="40.91569521872457" lon="9.077064842840306"><ele>493.0</ele><time>2026-05-01T15:39:36Z</time></trkpt><trkpt lat="40.91565927541465" lon="9.076869078688803"><ele>493.0</ele><time>2026-05-01T15:39:37Z</time></trkpt><trkpt lat="40.91561543644346" lon="9.076685186827145"><ele>493.0</ele><time>2026-05-01T15:39:38Z</time></trkpt><trkpt lat="40.91555494457417" lon="9.076503530241922"><ele>493.0</ele><time>2026-05-01T15:39:39Z</time></trkpt><trkpt lat="40.91547834545675" lon="9.076314815971289"><ele>490.25</ele><time>2026-05-01T15:39:40Z</time></trkpt><trkpt lat="40.91537986095028" lon="9.07616698038831"><ele>487.5</ele><time>2026-05-01T15:39:41Z</time></trkpt><trkpt lat="40.915280558769986" lon="9.076032418048925"><ele>484.75</ele><time>2026-05-01T15:39:42Z</time></trkpt><trkpt lat="40.91517689071243" lon="9.075922147519334"><ele>482.0</ele><time>2026-05-01T15:39:43Z</time></trkpt><trkpt lat="40.91510143361829" lon="9.075794065228274"><ele>483.0</ele><time>2026-05-01T15:39:44Z</time></trkpt><trkpt lat="40.91503751169927" lon="9.07564896626275"><ele>484.0</ele><time>2026-05-01T15:39:45Z</time></trkpt><trkpt lat="40.91502402868278" lon="9.075468134370052"><ele>485.0</ele><time>2026-05-01T15:39:46Z</time></trkpt><trkpt lat="40.915032928815904" lon="9.075252464386073"><ele>486.0</ele><time>2026-05-01T15:39:47Z</time></trkpt><trkpt lat="40.91499083436545" lon="9.075014857037901"><ele>483.33333333333337</ele><time>2026-05-01T15:39:48Z</time></trkpt><trkpt lat="40.91494193293049" lon="9.07477092442739"><ele>480.6666666666667</ele><time>2026-05-01T15:39:49Z</time></trkpt><trkpt lat="40.91489682141897" lon="9.07453385406641"><ele>478.0</ele><time>2026-05-01T15:39:50Z</time></trkpt><trkpt lat="40.91486648403952" lon="9.074320873420145"><ele>478.0</ele><time>2026-05-01T15:39:51Z</time></trkpt><trkpt lat="40.91488610509827" lon="9.0741182677525"><ele>478.0</ele><time>2026-05-01T15:39:52Z</time></trkpt><trkpt lat="40.91491842682822" lon="9.073892904694533"><ele>478.0</ele><time>2026-05-01T15:39:53Z</time></trkpt><trkpt lat="40.914969167924525" lon="9.073621600512974"><ele>477.6666666666667</ele><time>2026-05-01T15:39:54Z</time></trkpt><trkpt lat="40.91502644094726" lon="9.073324841761025"><ele>477.33333333333337</ele><time>2026-05-01T15:39:55Z</time></trkpt><trkpt lat="40.915062374184814" lon="9.073047090755425"><ele>477.0</ele><time>2026-05-01T15:39:56Z</time></trkpt><trkpt lat="40.915116289237986" lon="9.072793347395406"><ele>477.0</ele><time>2026-05-01T15:39:57Z</time></trkpt><trkpt lat="40.91517916213534" lon="9.072598717535298"><ele>477.0</ele><time>2026-05-01T15:39:58Z</time></trkpt><trkpt lat="40.91526844321861" lon="9.072458589005032"><ele>477.0</ele><time>2026-05-01T15:39:59Z</time></trkpt><trkpt lat="40.9154002344784" lon="9.072356167730296"><ele>478.75</ele><time>2026-05-01T15:40:00Z</time></trkpt><trkpt lat="40.91553833715262" lon="9.072268976751618"><ele>480.5</ele><time>2026-05-01T15:40:01Z</time></trkpt><trkpt lat="40.915660802098685" lon="9.072228664900143"><ele>482.25</ele><time>2026-05-01T15:40:02Z</time></trkpt><trkpt lat="40.9157731247474" lon="9.07225261250202"><ele>484.0</ele><time>2026-05-01T15:40:03Z</time></trkpt><trkpt lat="40.91588112176342" lon="9.072338910729595"><ele>484.33333333333337</ele><time>2026-05-01T15:40:04Z</time></trkpt><trkpt lat="40.915982335349035" lon="9.072487057660966"><ele>484.66666666666663</ele><time>2026-05-01T15:40:05Z</time></trkpt><trkpt lat="40.916088248834484" lon="9.072672485753849"><ele>485.0</ele><time>2026-05-01T15:40:06Z</time></trkpt><trkpt lat="40.91621317931813" lon="9.072874527160092"><ele>485.0</ele><time>2026-05-01T15:40:07Z</time></trkpt><trkpt lat="40.916340580886754" lon="9.073081425821995"><ele>485.0</ele><time>2026-05-01T15:40:08Z</time></trkpt><trkpt lat="40.91647156395031" lon="9.073256643799121"><ele>485.0</ele><time>2026-05-01T15:40:09Z</time></trkpt><trkpt lat="40.9165961958256" lon="9.073400569124521"><ele>483.66666666666663</ele><time>2026-05-01T15:40:10Z</time></trkpt><trkpt lat="40.91672186692241" lon="9.073566608065516"><ele>482.33333333333337</ele><time>2026-05-01T15:40:11Z</time></trkpt><trkpt lat="40.916852001920304" lon="9.07372882200875"><ele>481.0</ele><time>2026-05-01T15:40:12Z</time></trkpt><trkpt lat="40.91699704099303" lon="9.073857064497634"><ele>481.0</ele><time>2026-05-01T15:40:13Z</time></trkpt><trkpt lat="40.91714721621816" lon="9.073945720127114"><ele>481.0</ele><time>2026-05-01T15:40:14Z</time></trkpt><trkpt lat="40.91728701173918" lon="9.073985688278992"><ele>481.0</ele><time>2026-05-01T15:40:15Z</time></trkpt><trkpt lat="40.91742398175502" lon="9.073961515298475"><ele>481.0</ele><time>2026-05-01T15:40:16Z</time></trkpt><trkpt lat="40.9175504441961" lon="9.073890896965203"><ele>479.33333333333337</ele><time>2026-05-01T15:40:17Z</time></trkpt><trkpt lat="40.91767240302072" lon="9.073755867014826"><ele>477.66666666666663</ele><time>2026-05-01T15:40:18Z</time></trkpt><trkpt lat="40.917804315590196" lon="9.073622162806638"><ele>476.0</ele><time>2026-05-01T15:40:19Z</time></trkpt><trkpt lat="40.91795337263097" lon="9.073494747786274"><ele>476.0</ele><time>2026-05-01T15:40:20Z</time></trkpt><trkpt lat="40.91809293652527" lon="9.073337144633406"><ele>476.0</ele><time>2026-05-01T15:40:21Z</time></trkpt><trkpt lat="40.918251498327955" lon="9.073181975322928"><ele>476.0</ele><time>2026-05-01T15:40:22Z</time></trkpt><trkpt lat="40.91841082748347" lon="9.073030717332315"><ele>474.66666666666663</ele><time>2026-05-01T15:40:23Z</time></trkpt><trkpt lat="40.91856668065683" lon="9.072881556697718"><ele>473.33333333333337</ele><time>2026-05-01T15:40:24Z</time></trkpt><trkpt lat="40.9187210489662" lon="9.072734392094105"><ele>472.0</ele><time>2026-05-01T15:40:25Z</time></trkpt><trkpt lat="40.918866777779975" lon="9.072591549264844"><ele>472.0</ele><time>2026-05-01T15:40:26Z</time></trkpt><trkpt lat="40.91900410989883" lon="9.072457171015918"><ele>472.0</ele><time>2026-05-01T15:40:27Z</time></trkpt><trkpt lat="40.91912174804822" lon="9.07231505308687"><ele>472.0</ele><time>2026-05-01T15:40:28Z</time></trkpt><trkpt lat="40.91920496457363" lon="9.072136317030935"><ele>473.33333333333337</ele><time>2026-05-01T15:40:29Z</time></trkpt><trkpt lat="40.919246278567556" lon="9.071931131815184"><ele>474.66666666666663</ele><time>2026-05-01T15:40:30Z</time></trkpt><trkpt lat="40.91925628766503" lon="9.071708823557678"><ele>476.0</ele><time>2026-05-01T15:40:31Z</time></trkpt><trkpt lat="40.91924940557706" lon="9.071494301047919"><ele>476.0</ele><time>2026-05-01T15:40:32Z</time></trkpt><trkpt lat="40.91926945868442" lon="9.071311130775138"><ele>476.0</ele><time>2026-05-01T15:40:33Z</time></trkpt><trkpt lat="40.919267217468594" lon="9.07113332903237"><ele>476.0</ele><time>2026-05-01T15:40:34Z</time></trkpt><trkpt lat="40.91930913376785" lon="9.070973716765742"><ele>476.0</ele><time>2026-05-01T15:40:35Z</time></trkpt><trkpt lat="40.9193928472906" lon="9.070864373428714"><ele>476.0</ele><time>2026-05-01T15:40:36Z</time></trkpt><trkpt lat="40.91948309526173" lon="9.070786350735816"><ele>476.0</ele><time>2026-05-01T15:40:37Z</time></trkpt><trkpt lat="40.919602126122705" lon="9.07075800431336"><ele>476.0</ele><time>2026-05-01T15:40:38Z</time></trkpt><trkpt lat="40.91972546179636" lon="9.070802538525824"><ele>476.0</ele><time>2026-05-01T15:40:39Z</time></trkpt><trkpt lat="40.919835583211686" lon="9.07086621062949"><ele>476.0</ele><time>2026-05-01T15:40:40Z</time></trkpt><trkpt lat="40.91994258421212" lon="9.07093475960462"><ele>476.0</ele><time>2026-05-01T15:40:41Z</time></trkpt><trkpt lat="40.920050325001206" lon="9.07100865889854"><ele>476.0</ele><time>2026-05-01T15:40:42Z</time></trkpt><trkpt lat="40.92014955268719" lon="9.07110544235797"><ele>476.0</ele><time>2026-05-01T15:40:43Z</time></trkpt><trkpt lat="40.920227805985725" lon="9.071246028976137"><ele>477.66666666666663</ele><time>2026-05-01T15:40:44Z</time></trkpt><trkpt lat="40.920286219941154" lon="9.071420744346396"><ele>479.33333333333337</ele><time>2026-05-01T15:40:45Z</time></trkpt><trkpt lat="40.920393723021334" lon="9.071572839505553"><ele>481.0</ele><time>2026-05-01T15:40:46Z</time></trkpt><trkpt lat="40.92056428364805" lon="9.071664665332866"><ele>481.0</ele><time>2026-05-01T15:40:47Z</time></trkpt><trkpt lat="40.92075176459255" lon="9.071643353517741"><ele>481.0</ele><time>2026-05-01T15:40:48Z</time></trkpt><trkpt lat="40.92092962318101" lon="9.071609315060998"><ele>481.0</ele><time>2026-05-01T15:40:49Z</time></trkpt><trkpt lat="40.92112232458369" lon="9.071554571045791"><ele>483.25</ele><time>2026-05-01T15:40:50Z</time></trkpt><trkpt lat="40.921049538851754" lon="9.071558664716203"><ele>485.5</ele><time>2026-05-01T15:40:51Z</time></trkpt><trkpt lat="40.921181499490295" lon="9.071486609645865"><ele>487.75</ele><time>2026-05-01T15:40:52Z</time></trkpt><trkpt lat="40.921315227465335" lon="9.07141939421691"><ele>490.0</ele><time>2026-05-01T15:40:53Z</time></trkpt><trkpt lat="40.921455185986765" lon="9.07136084286069"><ele>490.0</ele><time>2026-05-01T15:40:54Z</time></trkpt><trkpt lat="40.921602381197125" lon="9.071294052567515"><ele>490.0</ele><time>2026-05-01T15:40:55Z</time></trkpt><trkpt lat="40.921755086885746" lon="9.071219776124614"><ele>490.0</ele><time>2026-05-01T15:40:56Z</time></trkpt><trkpt lat="40.92190957562472" lon="9.071147901984533"><ele>489.75</ele><time>2026-05-01T15:40:57Z</time></trkpt><trkpt lat="40.92206179067364" lon="9.071079513030885"><ele>489.5</ele><time>2026-05-01T15:40:58Z</time></trkpt><trkpt lat="40.92219198693801" lon="9.07102108897301"><ele>489.25</ele><time>2026-05-01T15:40:59Z</time></trkpt><trkpt lat="40.92230189780749" lon="9.070953585589045"><ele>489.0</ele><time>2026-05-01T15:41:00Z</time></trkpt><trkpt lat="40.92240641130165" lon="9.070847965376217"><ele>487.66666666666663</ele><time>2026-05-01T15:41:01Z</time></trkpt><trkpt lat="40.92249915458472" lon="9.070700801352706"><ele>486.3333333333333</ele><time>2026-05-01T15:41:02Z</time></trkpt><trkpt lat="40.92259492233621" lon="9.070530283156428"><ele>485.0</ele><time>2026-05-01T15:41:03Z</time></trkpt><trkpt lat="40.922691565649785" lon="9.070358224150295"><ele>485.0</ele><time>2026-05-01T15:41:04Z</time></trkpt><trkpt lat="40.92277840097145" lon="9.070185751306397"><ele>485.0</ele><time>2026-05-01T15:41:05Z</time></trkpt><trkpt lat="40.922852354123684" lon="9.070007363947667"><ele>485.0</ele><time>2026-05-01T15:41:06Z</time></trkpt><trkpt lat="40.922928979165185" lon="9.06985668736679"><ele>485.0</ele><time>2026-05-01T15:41:07Z</time></trkpt><trkpt lat="40.92303756825227" lon="9.069781443030454"><ele>485.5</ele><time>2026-05-01T15:41:08Z</time></trkpt><trkpt lat="40.923173419518506" lon="9.069750548779243"><ele>486.0</ele><time>2026-05-01T15:41:09Z</time></trkpt><trkpt lat="40.92327853102365" lon="9.069631683511169"><ele>486.5</ele><time>2026-05-01T15:41:10Z</time></trkpt><trkpt lat="40.92332473448289" lon="9.069451691249665"><ele>487.0</ele><time>2026-05-01T15:41:11Z</time></trkpt><trkpt lat="40.923370654909824" lon="9.06925799095162"><ele>487.6666666666667</ele><time>2026-05-01T15:41:12Z</time></trkpt><trkpt lat="40.92339110434863" lon="9.069058329411673"><ele>488.33333333333337</ele><time>2026-05-01T15:41:13Z</time></trkpt><trkpt lat="40.92339953003082" lon="9.068864273336988"><ele>489.0</ele><time>2026-05-01T15:41:14Z</time></trkpt><trkpt lat="40.92337153844484" lon="9.068667248159706"><ele>489.0</ele><time>2026-05-01T15:41:15Z</time></trkpt><trkpt lat="40.92331314361232" lon="9.068469162217786"><ele>489.0</ele><time>2026-05-01T15:41:16Z</time></trkpt><trkpt lat="40.92324363375528" lon="9.068284105464523"><ele>489.0</ele><time>2026-05-01T15:41:17Z</time></trkpt><trkpt lat="40.92318804575032" lon="9.068095977907436"><ele>487.66666666666663</ele><time>2026-05-01T15:41:18Z</time></trkpt><trkpt lat="40.92317550367077" lon="9.067893997501773"><ele>486.3333333333333</ele><time>2026-05-01T15:41:19Z</time></trkpt><trkpt lat="40.92317643447509" lon="9.0676965467618"><ele>485.0</ele><time>2026-05-01T15:41:20Z</time></trkpt><trkpt lat="40.923190902509994" lon="9.067471079158356"><ele>486.0</ele><time>2026-05-01T15:41:21Z</time></trkpt><trkpt lat="40.92322311013944" lon="9.067242844237859"><ele>487.0</ele><time>2026-05-01T15:41:22Z</time></trkpt><trkpt lat="40.923252587386465" lon="9.067012316722332"><ele>488.0</ele><time>2026-05-01T15:41:23Z</time></trkpt><trkpt lat="40.92329721401373" lon="9.066797141890696"><ele>489.3333333333333</ele><time>2026-05-01T15:41:24Z</time></trkpt><trkpt lat="40.92331035955343" lon="9.066586338438505"><ele>490.66666666666663</ele><time>2026-05-01T15:41:25Z</time></trkpt><trkpt lat="40.923338989398076" lon="9.066392794456076"><ele>492.0</ele><time>2026-05-01T15:41:26Z</time></trkpt><trkpt lat="40.92336848469046" lon="9.066200046201962"><ele>488.5</ele><time>2026-05-01T15:41:27Z</time></trkpt><trkpt lat="40.92340007824603" lon="9.066005945779636"><ele>485.0</ele><time>2026-05-01T15:41:28Z</time></trkpt><trkpt lat="40.92344144042947" lon="9.06582563886594"><ele>481.5</ele><time>2026-05-01T15:41:29Z</time></trkpt><trkpt lat="40.923515084517376" lon="9.065666561421105"><ele>478.0</ele><time>2026-05-01T15:41:30Z</time></trkpt><trkpt lat="40.92363315530994" lon="9.065521148169351"><ele>478.0</ele><time>2026-05-01T15:41:31Z</time></trkpt><trkpt lat="40.92376217846287" lon="9.065392744020087"><ele>478.0</ele><time>2026-05-01T15:41:32Z</time></trkpt><trkpt lat="40.923868058326924" lon="9.065273499939803"><ele>478.0</ele><time>2026-05-01T15:41:33Z</time></trkpt><trkpt lat="40.92394275638019" lon="9.065103758409846"><ele>478.0</ele><time>2026-05-01T15:41:34Z</time></trkpt><trkpt lat="40.92398542188664" lon="9.06487725910283"><ele>480.6666666666667</ele><time>2026-05-01T15:41:35Z</time></trkpt><trkpt lat="40.924008053849114" lon="9.064623399130056"><ele>483.33333333333337</ele><time>2026-05-01T15:41:36Z</time></trkpt><trkpt lat="40.92403047989383" lon="9.0643841198098"><ele>486.0</ele><time>2026-05-01T15:41:37Z</time></trkpt><trkpt lat="40.92406839430143" lon="9.064166841664088"><ele>484.66666666666663</ele><time>2026-05-01T15:41:38Z</time></trkpt><trkpt lat="40.9241259523599" lon="9.063969548408759"><ele>483.3333333333333</ele><time>2026-05-01T15:41:39Z</time></trkpt><trkpt lat="40.92421103355031" lon="9.063801068576195"><ele>482.0</ele><time>2026-05-01T15:41:40Z</time></trkpt><trkpt lat="40.92432401231691" lon="9.06367155065127"><ele>482.0</ele><time>2026-05-01T15:41:41Z</time></trkpt><trkpt lat="40.924457521963376" lon="9.063590063483721"><ele>482.0</ele><time>2026-05-01T15:41:42Z</time></trkpt><trkpt lat="40.924617516168226" lon="9.063550850817581"><ele>482.0</ele><time>2026-05-01T15:41:43Z</time></trkpt><trkpt lat="40.924794072599646" lon="9.063521494749775"><ele>482.0</ele><time>2026-05-01T15:41:44Z</time></trkpt><trkpt lat="40.924956869174025" lon="9.06346831096018"><ele>482.0</ele><time>2026-05-01T15:41:45Z</time></trkpt><trkpt lat="40.92510494600502" lon="9.063362337097768"><ele>482.0</ele><time>2026-05-01T15:41:46Z</time></trkpt><trkpt lat="40.9252305045393" lon="9.063195018850442"><ele>483.25</ele><time>2026-05-01T15:41:47Z</time></trkpt><trkpt lat="40.925340563699635" lon="9.06303066580212"><ele>484.5</ele><time>2026-05-01T15:41:48Z</time></trkpt><trkpt lat="40.92542843807961" lon="9.062915189280421"><ele>485.75</ele><time>2026-05-01T15:41:49Z</time></trkpt><trkpt lat="40.92549863947749" lon="9.062850996934449"><ele>487.0</ele><time>2026-05-01T15:41:50Z</time></trkpt><trkpt lat="40.92557173542674" lon="9.062827708995478"><ele>487.0</ele><time>2026-05-01T15:41:51Z</time></trkpt><trkpt lat="40.92566873163636" lon="9.062869940770527"><ele>487.00000000000006</ele><time>2026-05-01T15:41:52Z</time></trkpt><trkpt lat="40.925753060728916" lon="9.062946440938934"><ele>487.00000000000006</ele><time>2026-05-01T15:41:53Z</time></trkpt><trkpt lat="40.92578917747619" lon="9.063085247489372"><ele>487.0</ele><time>2026-05-01T15:41:54Z</time></trkpt><trkpt lat="40.92573927490412" lon="9.063248848822273"><ele>487.0</ele><time>2026-05-01T15:41:55Z</time></trkpt><trkpt lat="40.92572069794271" lon="9.06343478858596"><ele>486.75</ele><time>2026-05-01T15:41:56Z</time></trkpt><trkpt lat="40.92570718450401" lon="9.06363148420865"><ele>486.5</ele><time>2026-05-01T15:41:57Z</time></trkpt><trkpt lat="40.92568334907101" lon="9.063829730814641"><ele>486.25</ele><time>2026-05-01T15:41:58Z</time></trkpt><trkpt lat="40.92566580269347" lon="9.064004673342057"><ele>486.0</ele><time>2026-05-01T15:41:59Z</time></trkpt><trkpt lat="40.92567023118826" lon="9.064165691192553"><ele>485.0</ele><time>2026-05-01T15:42:00Z</time></trkpt><trkpt lat="40.925711067495456" lon="9.064331151870983"><ele>484.0</ele><time>2026-05-01T15:42:01Z</time></trkpt><trkpt lat="40.9258023555462" lon="9.064446593250393"><ele>483.0</ele><time>2026-05-01T15:42:02Z</time></trkpt><trkpt lat="40.92591502800042" lon="9.064485311632458"><ele>482.0</ele><time>2026-05-01T15:42:03Z</time></trkpt><trkpt lat="40.92605530955496" lon="9.064438459487832"><ele>485.66666666666663</ele><time>2026-05-01T15:42:04Z</time></trkpt><trkpt lat="40.926208734726394" lon="9.064374711572755"><ele>489.33333333333337</ele><time>2026-05-01T15:42:05Z</time></trkpt><trkpt lat="40.92636931778264" lon="9.064325079115852"><ele>493.0</ele><time>2026-05-01T15:42:06Z</time></trkpt><trkpt lat="40.92650144063629" lon="9.064289371607687"><ele>493.0</ele><time>2026-05-01T15:42:07Z</time></trkpt><trkpt lat="40.92661039821457" lon="9.064259357999507"><ele>492.99999999999994</ele><time>2026-05-01T15:42:08Z</time></trkpt><trkpt lat="40.92670688529536" lon="9.06422402834756"><ele>492.99999999999994</ele><time>2026-05-01T15:42:09Z</time></trkpt><trkpt lat="40.926798173612816" lon="9.064182662010992"><ele>493.0</ele><time>2026-05-01T15:42:10Z</time></trkpt><trkpt lat="40.926896210087016" lon="9.064120194625563"><ele>493.0</ele><time>2026-05-01T15:42:11Z</time></trkpt><trkpt lat="40.92698494164057" lon="9.064035664703258"><ele>494.4</ele><time>2026-05-01T15:42:12Z</time></trkpt><trkpt lat="40.92705400992768" lon="9.063955812103316"><ele>495.79999999999995</ele><time>2026-05-01T15:42:13Z</time></trkpt><trkpt lat="40.927114147114104" lon="9.06388494386366"><ele>497.2</ele><time>2026-05-01T15:42:14Z</time></trkpt><trkpt lat="40.927173998399425" lon="9.063807069258202"><ele>498.6</ele><time>2026-05-01T15:42:15Z</time></trkpt><trkpt lat="40.92723830506333" lon="9.06371137422061"><ele>500.0</ele><time>2026-05-01T15:42:16Z</time></trkpt><trkpt lat="40.92730975487373" lon="9.063615020393181"><ele>500.0</ele><time>2026-05-01T15:42:17Z</time></trkpt><trkpt lat="40.927398954546746" lon="9.063536024870274"><ele>500.0</ele><time>2026-05-01T15:42:18Z</time></trkpt><trkpt lat="40.92751540998358" lon="9.063542559536124"><ele>500.0</ele><time>2026-05-01T15:42:19Z</time></trkpt><trkpt lat="40.927631299508064" lon="9.063522877262832"><ele>500.0</ele><time>2026-05-01T15:42:20Z</time></trkpt><trkpt lat="40.92772323453131" lon="9.06353698917225"><ele>500.0</ele><time>2026-05-01T15:42:21Z</time></trkpt><trkpt lat="40.92780338598426" lon="9.063523216857647"><ele>501.4</ele><time>2026-05-01T15:42:22Z</time></trkpt><trkpt lat="40.927883820443306" lon="9.06349443801945"><ele>502.8</ele><time>2026-05-01T15:42:23Z</time></trkpt><trkpt lat="40.927956560165875" lon="9.06345043957287"><ele>504.20000000000005</ele><time>2026-05-01T15:42:24Z</time></trkpt><trkpt lat="40.92804926046869" lon="9.06336857562869"><ele>505.6</ele><time>2026-05-01T15:42:26Z</time></trkpt><trkpt lat="40.92813653527338" lon="9.063330487931893"><ele>507.0</ele><time>2026-05-01T15:42:28Z</time></trkpt><trkpt lat="40.928246322427945" lon="9.063341602721719"><ele>507.0</ele><time>2026-05-01T15:42:30Z</time></trkpt><trkpt lat="40.928303365967786" lon="9.063404854954342"><ele>507.00000000000006</ele><time>2026-05-01T15:42:32Z</time></trkpt><trkpt lat="40.928350808860195" lon="9.063488549939752"><ele>507.00000000000006</ele><time>2026-05-01T15:42:35Z</time></trkpt><trkpt lat="40.92847562575314" lon="9.063467860204412"><ele>507.0</ele><time>2026-05-01T15:42:38Z</time></trkpt><trkpt lat="40.92854068504006" lon="9.063362489003309"><ele>507.0</ele><time>2026-05-01T15:42:40Z</time></trkpt><trkpt lat="40.928579897542036" lon="9.063214838091028"><ele>508.57142857142856</ele><time>2026-05-01T15:42:42Z</time></trkpt><trkpt lat="40.92859325214844" lon="9.063118582704593"><ele>510.14285714285717</ele><time>2026-05-01T15:42:43Z</time></trkpt><trkpt lat="40.9286276161063" lon="9.063039750295825"><ele>511.7142857142857</ele><time>2026-05-01T15:42:44Z</time></trkpt><trkpt lat="40.92864422596561" lon="9.06293475042266"><ele>513.2857142857142</ele><time>2026-05-01T15:42:46Z</time></trkpt><trkpt lat="40.928668169873845" lon="9.062838961866392"><ele>514.8571428571429</ele><time>2026-05-01T15:42:48Z</time></trkpt><trkpt lat="40.928695948590736" lon="9.062732936885503"><ele>516.4285714285714</ele><time>2026-05-01T15:42:52Z</time></trkpt><trkpt lat="40.92871827398513" lon="9.06265373148018"><ele>518.0</ele><time>2026-05-01T15:42:54Z</time></trkpt><trkpt lat="40.928732768685045" lon="9.062548082827718"><ele>518.4</ele><time>2026-05-01T15:42:56Z</time></trkpt><trkpt lat="40.928702039131274" lon="9.062383355527073"><ele>518.8</ele><time>2026-05-01T15:42:58Z</time></trkpt><trkpt lat="40.92865185392296" lon="9.062283089580351"><ele>519.2</ele><time>2026-05-01T15:42:59Z</time></trkpt><trkpt lat="40.92862480299182" lon="9.062180726785028"><ele>519.6</ele><time>2026-05-01T15:43:00Z</time></trkpt><trkpt lat="40.92857778941259" lon="9.062076071731543"><ele>520.0</ele><time>2026-05-01T15:43:02Z</time></trkpt><trkpt lat="40.9285055792948" lon="9.061922823107265"><ele>520.0</ele><time>2026-05-01T15:43:04Z</time></trkpt><trkpt lat="40.928460265080204" lon="9.061818307379864"><ele>520.0</ele><time>2026-05-01T15:43:05Z</time></trkpt><trkpt lat="40.92843055725978" lon="9.06173367106512"><ele>520.0</ele><time>2026-05-01T15:43:06Z</time></trkpt><trkpt lat="40.92840933470013" lon="9.061653620505819"><ele>520.0</ele><time>2026-05-01T15:43:07Z</time></trkpt><trkpt lat="40.92840012437699" lon="9.06155617122268"><ele>520.0</ele><time>2026-05-01T15:43:08Z</time></trkpt><trkpt lat="40.928378766107976" lon="9.061424841331403"><ele>520.0</ele><time>2026-05-01T15:43:09Z</time></trkpt><trkpt lat="40.92837820047844" lon="9.061283271960589"><ele>521.25</ele><time>2026-05-01T15:43:10Z</time></trkpt><trkpt lat="40.928350731151625" lon="9.061087893397337"><ele>522.5</ele><time>2026-05-01T15:43:11Z</time></trkpt><trkpt lat="40.92828870895523" lon="9.060936616211198"><ele>523.75</ele><time>2026-05-01T15:43:12Z</time></trkpt><trkpt lat="40.92822625855947" lon="9.060775203854044"><ele>525.0</ele><time>2026-05-01T15:43:13Z</time></trkpt><trkpt lat="40.92816142546121" lon="9.060606417458501"><ele>526.25</ele><time>2026-05-01T15:43:14Z</time></trkpt><trkpt lat="40.9281250375639" lon="9.060437268921557"><ele>527.5</ele><time>2026-05-01T15:43:15Z</time></trkpt><trkpt lat="40.92810586193557" lon="9.060272328660272"><ele>528.75</ele><time>2026-05-01T15:43:16Z</time></trkpt><trkpt lat="40.92810136982814" lon="9.060096657879251"><ele>530.0</ele><time>2026-05-01T15:43:17Z</time></trkpt><trkpt lat="40.92810792169939" lon="9.05991075431604"><ele>530.0</ele><time>2026-05-01T15:43:18Z</time></trkpt><trkpt lat="40.92812653979988" lon="9.059713425179146"><ele>530.0</ele><time>2026-05-01T15:43:19Z</time></trkpt><trkpt lat="40.92814786366852" lon="9.05952093976631"><ele>530.0</ele><time>2026-05-01T15:43:20Z</time></trkpt><trkpt lat="40.928165178380894" lon="9.05934510578659"><ele>530.0</ele><time>2026-05-01T15:43:21Z</time></trkpt><trkpt lat="40.92818370795008" lon="9.05918203102299"><ele>529.0</ele><time>2026-05-01T15:43:22Z</time></trkpt><trkpt lat="40.92821298079665" lon="9.059019610599842"><ele>528.0</ele><time>2026-05-01T15:43:23Z</time></trkpt><trkpt lat="40.9282485301156" lon="9.05885724412751"><ele>527.0</ele><time>2026-05-01T15:43:24Z</time></trkpt><trkpt lat="40.928285508186754" lon="9.05869905493105"><ele>526.0</ele><time>2026-05-01T15:43:25Z</time></trkpt><trkpt lat="40.928324445655754" lon="9.058547036266104"><ele>526.0</ele><time>2026-05-01T15:43:26Z</time></trkpt><trkpt lat="40.92836800396289" lon="9.058410919945585"><ele>526.0</ele><time>2026-05-01T15:43:27Z</time></trkpt><trkpt lat="40.92840717662479" lon="9.058275621057932"><ele>526.0</ele><time>2026-05-01T15:43:28Z</time></trkpt><trkpt lat="40.92844306979541" lon="9.058139424628674"><ele>526.0</ele><time>2026-05-01T15:43:29Z</time></trkpt><trkpt lat="40.9284716405057" lon="9.058010340768503"><ele>526.0</ele><time>2026-05-01T15:43:30Z</time></trkpt><trkpt lat="40.92849683971196" lon="9.057885029287918"><ele>528.0</ele><time>2026-05-01T15:43:31Z</time></trkpt><trkpt lat="40.928513624306994" lon="9.057775117303601"><ele>530.0</ele><time>2026-05-01T15:43:32Z</time></trkpt><trkpt lat="40.928531972144945" lon="9.057664487590928"><ele>532.0</ele><time>2026-05-01T15:43:33Z</time></trkpt><trkpt lat="40.928562074491865" lon="9.05754903618817"><ele>534.0</ele><time>2026-05-01T15:43:34Z</time></trkpt><trkpt lat="40.92859987279029" lon="9.057431301299966"><ele>536.0</ele><time>2026-05-01T15:43:35Z</time></trkpt><trkpt lat="40.928640496161755" lon="9.057306973186888"><ele>536.0</ele><time>2026-05-01T15:43:36Z</time></trkpt><trkpt lat="40.92869054265989" lon="9.057183568252752"><ele>536.0</ele><time>2026-05-01T15:43:37Z</time></trkpt><trkpt lat="40.92875449321171" lon="9.057063652088804"><ele>536.0</ele><time>2026-05-01T15:43:38Z</time></trkpt><trkpt lat="40.92883235983051" lon="9.056948087176968"><ele>536.0</ele><time>2026-05-01T15:43:39Z</time></trkpt><trkpt lat="40.92888471988005" lon="9.056878867926038"><ele>536.0</ele><time>2026-05-01T15:43:40Z</time></trkpt><trkpt lat="40.928995627007815" lon="9.056789595062362"><ele>536.0</ele><time>2026-05-01T15:43:41Z</time></trkpt><trkpt lat="40.92912489942826" lon="9.056721867469935"><ele>536.0</ele><time>2026-05-01T15:43:42Z</time></trkpt><trkpt lat="40.92926518241079" lon="9.056719147297843"><ele>536.0</ele><time>2026-05-01T15:43:43Z</time></trkpt><trkpt lat="40.92941212834203" lon="9.056727697237188"><ele>536.0</ele><time>2026-05-01T15:43:44Z</time></trkpt><trkpt lat="40.929558265678835" lon="9.056754249066161"><ele>537.5</ele><time>2026-05-01T15:43:45Z</time></trkpt><trkpt lat="40.929710442100536" lon="9.05677939193208"><ele>539.0</ele><time>2026-05-01T15:43:46Z</time></trkpt><trkpt lat="40.929859364622466" lon="9.05678939415066"><ele>540.5</ele><time>2026-05-01T15:43:47Z</time></trkpt><trkpt lat="40.92999558890702" lon="9.05677118735722"><ele>542.0</ele><time>2026-05-01T15:43:48Z</time></trkpt><trkpt lat="40.93014727101705" lon="9.056701169033378"><ele>540.3333333333333</ele><time>2026-05-01T15:43:49Z</time></trkpt><trkpt lat="40.930277020673365" lon="9.056609111654048"><ele>538.6666666666666</ele><time>2026-05-01T15:43:50Z</time></trkpt><trkpt lat="40.9304269331862" lon="9.05650332125228"><ele>537.0</ele><time>2026-05-01T15:43:51Z</time></trkpt><trkpt lat="40.9305841395452" lon="9.056406637715444"><ele>537.0</ele><time>2026-05-01T15:43:52Z</time></trkpt><trkpt lat="40.93073520003017" lon="9.056356065131052"><ele>537.0</ele><time>2026-05-01T15:43:53Z</time></trkpt><trkpt lat="40.93088592428144" lon="9.056395529318374"><ele>537.0</ele><time>2026-05-01T15:43:54Z</time></trkpt><trkpt lat="40.931024462969496" lon="9.056461343408845"><ele>539.25</ele><time>2026-05-01T15:43:55Z</time></trkpt><trkpt lat="40.93116508517632" lon="9.056542526890581"><ele>541.5</ele><time>2026-05-01T15:43:56Z</time></trkpt><trkpt lat="40.931300101406755" lon="9.056623778963978"><ele>543.75</ele><time>2026-05-01T15:43:57Z</time></trkpt><trkpt lat="40.9314287529194" lon="9.056678135654654"><ele>546.0</ele><time>2026-05-01T15:43:58Z</time></trkpt><trkpt lat="40.93155132927591" lon="9.056761990457886"><ele>547.0</ele><time>2026-05-01T15:43:59Z</time></trkpt><trkpt lat="40.93167539247351" lon="9.056834921914183"><ele>548.0</ele><time>2026-05-01T15:44:00Z</time></trkpt><trkpt lat="40.931797362880154" lon="9.056906990104554"><ele>549.0</ele><time>2026-05-01T15:44:01Z</time></trkpt><trkpt lat="40.93191442929546" lon="9.057002567970915"><ele>550.0</ele><time>2026-05-01T15:44:02Z</time></trkpt><trkpt lat="40.932030182810394" lon="9.057069102023444"><ele>553.5</ele><time>2026-05-01T15:44:03Z</time></trkpt><trkpt lat="40.93214652783143" lon="9.057133327168994"><ele>557.0</ele><time>2026-05-01T15:44:04Z</time></trkpt><trkpt lat="40.93226801736577" lon="9.057198675286777"><ele>560.5</ele><time>2026-05-01T15:44:05Z</time></trkpt><trkpt lat="40.93239009471169" lon="9.057256848779902"><ele>564.0</ele><time>2026-05-01T15:44:06Z</time></trkpt><trkpt lat="40.93250537501271" lon="9.057323212063098"><ele>564.5</ele><time>2026-05-01T15:44:07Z</time></trkpt><trkpt lat="40.93262422975865" lon="9.057386957313618"><ele>565.0</ele><time>2026-05-01T15:44:08Z</time></trkpt><trkpt lat="40.93273574401764" lon="9.057455344450522"><ele>565.5</ele><time>2026-05-01T15:44:09Z</time></trkpt><trkpt lat="40.93284339027273" lon="9.057526413877094"><ele>566.0</ele><time>2026-05-01T15:44:10Z</time></trkpt><trkpt lat="40.932949822717994" lon="9.057596182111142"><ele>566.0</ele><time>2026-05-01T15:44:11Z</time></trkpt><trkpt lat="40.933051338543294" lon="9.05768179064933"><ele>566.0</ele><time>2026-05-01T15:44:12Z</time></trkpt><trkpt lat="40.93313594721968" lon="9.05779930700095"><ele>566.0</ele><time>2026-05-01T15:44:13Z</time></trkpt><trkpt lat="40.933218446551166" lon="9.057913235962685"><ele>566.0</ele><time>2026-05-01T15:44:14Z</time></trkpt><trkpt lat="40.93329838073762" lon="9.05802030015964"><ele>566.0</ele><time>2026-05-01T15:44:15Z</time></trkpt><trkpt lat="40.93337486328832" lon="9.058117203009969"><ele>566.0</ele><time>2026-05-01T15:44:16Z</time></trkpt><trkpt lat="40.93344944484893" lon="9.05823373990433"><ele>566.0</ele><time>2026-05-01T15:44:17Z</time></trkpt><trkpt lat="40.933523088272594" lon="9.05835447469847"><ele>566.0</ele><time>2026-05-01T15:44:18Z</time></trkpt><trkpt lat="40.93360317834432" lon="9.058474427211284"><ele>565.5</ele><time>2026-05-01T15:44:19Z</time></trkpt><trkpt lat="40.93366172396811" lon="9.058617586799798"><ele>565.0</ele><time>2026-05-01T15:44:20Z</time></trkpt><trkpt lat="40.9337141231534" lon="9.05878365980056"><ele>564.5</ele><time>2026-05-01T15:44:21Z</time></trkpt><trkpt lat="40.9337867648674" lon="9.058921742507005"><ele>564.0</ele><time>2026-05-01T15:44:22Z</time></trkpt><trkpt lat="40.93383448715696" lon="9.059081001531586"><ele>565.4</ele><time>2026-05-01T15:44:23Z</time></trkpt><trkpt lat="40.93389300601772" lon="9.059228174430851"><ele>566.8</ele><time>2026-05-01T15:44:24Z</time></trkpt><trkpt lat="40.93395046407389" lon="9.059368339578977"><ele>568.2</ele><time>2026-05-01T15:44:25Z</time></trkpt><trkpt lat="40.933995944305025" lon="9.059483104898817"><ele>569.6</ele><time>2026-05-01T15:44:26Z</time></trkpt><trkpt lat="40.934037177543026" lon="9.059591591356183"><ele>571.0</ele><time>2026-05-01T15:44:27Z</time></trkpt><trkpt lat="40.93407909855825" lon="9.059675673533414"><ele>571.0</ele><time>2026-05-01T15:44:28Z</time></trkpt><trkpt lat="40.93413093323387" lon="9.05973855027133"><ele>571.0</ele><time>2026-05-01T15:44:29Z</time></trkpt><trkpt lat="40.934288704818236" lon="9.05967545039388"><ele>571.0</ele><time>2026-05-01T15:44:32Z</time></trkpt><trkpt lat="40.934316056445546" lon="9.059559525031597"><ele>571.0</ele><time>2026-05-01T15:44:33Z</time></trkpt><trkpt lat="40.93430771579038" lon="9.05944057504356"><ele>571.0</ele><time>2026-05-01T15:44:34Z</time></trkpt><trkpt lat="40.934260166266434" lon="9.059287912917604"><ele>571.0</ele><time>2026-05-01T15:44:35Z</time></trkpt><trkpt lat="40.93419153699734" lon="9.059157808439751"><ele>571.0</ele><time>2026-05-01T15:44:36Z</time></trkpt><trkpt lat="40.934108458983495" lon="9.059037773433552"><ele>571.0</ele><time>2026-05-01T15:44:37Z</time></trkpt><trkpt lat="40.934045311254145" lon="9.058881094123372"><ele>571.0</ele><time>2026-05-01T15:44:38Z</time></trkpt><trkpt lat="40.93399512351593" lon="9.058735022305516"><ele>569.25</ele><time>2026-05-01T15:44:39Z</time></trkpt><trkpt lat="40.93397300509786" lon="9.05858733484494"><ele>567.5</ele><time>2026-05-01T15:44:40Z</time></trkpt><trkpt lat="40.93397669263793" lon="9.058430626467173"><ele>565.75</ele><time>2026-05-01T15:44:41Z</time></trkpt><trkpt lat="40.93400933883271" lon="9.058284985600208"><ele>564.0</ele><time>2026-05-01T15:44:42Z</time></trkpt><trkpt lat="40.934059281352184" lon="9.058107690354099"><ele>561.5</ele><time>2026-05-01T15:44:43Z</time></trkpt><trkpt lat="40.93409442305237" lon="9.057936058275901"><ele>559.0</ele><time>2026-05-01T15:44:44Z</time></trkpt><trkpt lat="40.934113914446826" lon="9.057765088092015"><ele>556.5</ele><time>2026-05-01T15:44:45Z</time></trkpt><trkpt lat="40.93408454147404" lon="9.057601495105185"><ele>554.0</ele><time>2026-05-01T15:44:46Z</time></trkpt><trkpt lat="40.93405074886689" lon="9.05742799333091"><ele>553.75</ele><time>2026-05-01T15:44:47Z</time></trkpt><trkpt lat="40.934042237286675" lon="9.0572680760855"><ele>553.5</ele><time>2026-05-01T15:44:48Z</time></trkpt><trkpt lat="40.93408021163156" lon="9.057118418377605"><ele>553.25</ele><time>2026-05-01T15:44:49Z</time></trkpt><trkpt lat="40.93416132204979" lon="9.056981794258029"><ele>553.0</ele><time>2026-05-01T15:44:50Z</time></trkpt><trkpt lat="40.93427708242975" lon="9.056862138607668"><ele>552.0</ele><time>2026-05-01T15:44:51Z</time></trkpt><trkpt lat="40.93441558049706" lon="9.05675979764018"><ele>551.0</ele><time>2026-05-01T15:44:52Z</time></trkpt><trkpt lat="40.93456690933763" lon="9.056658019413163"><ele>550.0</ele><time>2026-05-01T15:44:53Z</time></trkpt><trkpt lat="40.93471156975327" lon="9.056546572689609"><ele>550.0</ele><time>2026-05-01T15:44:54Z</time></trkpt><trkpt lat="40.934856187863645" lon="9.056451588762702"><ele>550.0</ele><time>2026-05-01T15:44:55Z</time></trkpt><trkpt lat="40.93499885152926" lon="9.056356031152292"><ele>550.0</ele><time>2026-05-01T15:44:56Z</time></trkpt><trkpt lat="40.93513987727138" lon="9.05626036571797"><ele>545.6666666666667</ele><time>2026-05-01T15:44:57Z</time></trkpt><trkpt lat="40.935281119632435" lon="9.056166783882476"><ele>541.3333333333334</ele><time>2026-05-01T15:44:58Z</time></trkpt><trkpt lat="40.935424212948355" lon="9.056074054805675"><ele>537.0</ele><time>2026-05-01T15:44:59Z</time></trkpt><trkpt lat="40.935574867094026" lon="9.05598177625596"><ele>537.0</ele><time>2026-05-01T15:45:00Z</time></trkpt><trkpt lat="40.935738102639455" lon="9.055900049023363"><ele>537.0</ele><time>2026-05-01T15:45:01Z</time></trkpt><trkpt lat="40.93591301344623" lon="9.055842472837638"><ele>537.0</ele><time>2026-05-01T15:45:02Z</time></trkpt><trkpt lat="40.936101069555505" lon="9.055817114799487"><ele>537.3333333333334</ele><time>2026-05-01T15:45:03Z</time></trkpt><trkpt lat="40.936286458144714" lon="9.055783342363917"><ele>537.6666666666667</ele><time>2026-05-01T15:45:04Z</time></trkpt><trkpt lat="40.936486372268504" lon="9.055752010569739"><ele>538.0</ele><time>2026-05-01T15:45:05Z</time></trkpt><trkpt lat="40.93668207784866" lon="9.05571686261582"><ele>535.0</ele><time>2026-05-01T15:45:06Z</time></trkpt><trkpt lat="40.93687968462156" lon="9.055680102916382"><ele>532.0</ele><time>2026-05-01T15:45:07Z</time></trkpt><trkpt lat="40.93707571605238" lon="9.055645426941071"><ele>529.0</ele><time>2026-05-01T15:45:08Z</time></trkpt><trkpt lat="40.937269606262376" lon="9.055622849661761"><ele>529.0</ele><time>2026-05-01T15:45:09Z</time></trkpt><trkpt lat="40.93743946957296" lon="9.055581320852644"><ele>529.0</ele><time>2026-05-01T15:45:10Z</time></trkpt><trkpt lat="40.93758716935132" lon="9.055532044490137"><ele>529.0</ele><time>2026-05-01T15:45:11Z</time></trkpt><trkpt lat="40.937721740976436" lon="9.055431473630776"><ele>524.3333333333334</ele><time>2026-05-01T15:45:12Z</time></trkpt><trkpt lat="40.93785084463033" lon="9.055277411388396"><ele>519.6666666666666</ele><time>2026-05-01T15:45:13Z</time></trkpt><trkpt lat="40.937981407216554" lon="9.055119722043402"><ele>515.0</ele><time>2026-05-01T15:45:14Z</time></trkpt><trkpt lat="40.938115468887304" lon="9.05500168882199"><ele>513.6666666666666</ele><time>2026-05-01T15:45:15Z</time></trkpt><trkpt lat="40.93823140605059" lon="9.0548826172668"><ele>512.3333333333334</ele><time>2026-05-01T15:45:16Z</time></trkpt><trkpt lat="40.93834741652837" lon="9.05475586887202"><ele>511.0</ele><time>2026-05-01T15:45:17Z</time></trkpt><trkpt lat="40.93860157679347" lon="9.05484517599577"><ele>511.0</ele><time>2026-05-01T15:45:18Z</time></trkpt><trkpt lat="40.938774002382765" lon="9.054794191763976"><ele>511.0</ele><time>2026-05-01T15:45:19Z</time></trkpt><trkpt lat="40.938938162892725" lon="9.054723662654194"><ele>511.0</ele><time>2026-05-01T15:45:20Z</time></trkpt><trkpt lat="40.939090538976714" lon="9.054617698345531"><ele>508.6666666666667</ele><time>2026-05-01T15:45:21Z</time></trkpt><trkpt lat="40.93923866452394" lon="9.054477943078538"><ele>506.33333333333337</ele><time>2026-05-01T15:45:22Z</time></trkpt><trkpt lat="40.93938148427393" lon="9.054318883923637"><ele>504.0</ele><time>2026-05-01T15:45:23Z</time></trkpt><trkpt lat="40.939512053245764" lon="9.054139424876869"><ele>504.33333333333337</ele><time>2026-05-01T15:45:24Z</time></trkpt><trkpt lat="40.93963661364674" lon="9.053954532400102"><ele>504.6666666666667</ele><time>2026-05-01T15:45:25Z</time></trkpt><trkpt lat="40.93975903449644" lon="9.053760608466302"><ele>505.0</ele><time>2026-05-01T15:45:26Z</time></trkpt><trkpt lat="40.93988340799162" lon="9.053566612517455"><ele>505.0</ele><time>2026-05-01T15:45:27Z</time></trkpt><trkpt lat="40.94000392816115" lon="9.053387894377519"><ele>505.0</ele><time>2026-05-01T15:45:28Z</time></trkpt><trkpt lat="40.94012175089557" lon="9.05323052257614"><ele>505.0</ele><time>2026-05-01T15:45:29Z</time></trkpt><trkpt lat="40.94026481976412" lon="9.053091430231504"><ele>500.33333333333337</ele><time>2026-05-01T15:45:30Z</time></trkpt><trkpt lat="40.94040351582363" lon="9.052971631320556"><ele>495.66666666666663</ele><time>2026-05-01T15:45:31Z</time></trkpt><trkpt lat="40.940548209540644" lon="9.052844125398154"><ele>491.0</ele><time>2026-05-01T15:45:32Z</time></trkpt><trkpt lat="40.940690858679424" lon="9.052714204919418"><ele>491.0</ele><time>2026-05-01T15:45:33Z</time></trkpt><trkpt lat="40.94083070023822" lon="9.052596742745626"><ele>491.0</ele><time>2026-05-01T15:45:34Z</time></trkpt><trkpt lat="40.94097470794092" lon="9.052472307050873"><ele>491.0</ele><time>2026-05-01T15:45:35Z</time></trkpt><trkpt lat="40.941111813757395" lon="9.052342312081196"><ele>486.0</ele><time>2026-05-01T15:45:36Z</time></trkpt><trkpt lat="40.941240632886675" lon="9.05220796027531"><ele>481.0</ele><time>2026-05-01T15:45:37Z</time></trkpt><trkpt lat="40.94134538086581" lon="9.052041892087292"><ele>476.0</ele><time>2026-05-01T15:45:38Z</time></trkpt><trkpt lat="40.94143881450977" lon="9.051838105794527"><ele>475.3333333333333</ele><time>2026-05-01T15:45:39Z</time></trkpt><trkpt lat="40.94152380122191" lon="9.051602262669357"><ele>474.66666666666663</ele><time>2026-05-01T15:45:40Z</time></trkpt><trkpt lat="40.9416081488782" lon="9.051392608701128"><ele>474.0</ele><time>2026-05-01T15:45:41Z</time></trkpt><trkpt lat="40.94168886440104" lon="9.051176769776546"><ele>472.33333333333337</ele><time>2026-05-01T15:45:42Z</time></trkpt><trkpt lat="40.94176220161461" lon="9.05095782357568"><ele>470.6666666666667</ele><time>2026-05-01T15:45:43Z</time></trkpt><trkpt lat="40.941815392756624" lon="9.050716067983851"><ele>469.0</ele><time>2026-05-01T15:45:44Z</time></trkpt><trkpt lat="40.94184663586197" lon="9.05045448800125"><ele>469.0</ele><time>2026-05-01T15:45:45Z</time></trkpt><trkpt lat="40.94188508176688" lon="9.050194133279684"><ele>469.0</ele><time>2026-05-01T15:45:46Z</time></trkpt><trkpt lat="40.941913768676834" lon="9.049950237919736"><ele>469.0</ele><time>2026-05-01T15:45:47Z</time></trkpt><trkpt lat="40.94194361733671" lon="9.049727265679905"><ele>469.25</ele><time>2026-05-01T15:45:48Z</time></trkpt><trkpt lat="40.941961225253415" lon="9.04952482467942"><ele>469.5</ele><time>2026-05-01T15:45:49Z</time></trkpt><trkpt lat="40.941997429618766" lon="9.049364674714205"><ele>469.75</ele><time>2026-05-01T15:45:50Z</time></trkpt><trkpt lat="40.94206314582573" lon="9.049226027762623"><ele>470.0</ele><time>2026-05-01T15:45:51Z</time></trkpt><trkpt lat="40.9421871683453" lon="9.049149485323305"><ele>470.75</ele><time>2026-05-01T15:45:52Z</time></trkpt><trkpt lat="40.94231694256878" lon="9.049088502719894"><ele>471.5</ele><time>2026-05-01T15:45:53Z</time></trkpt><trkpt lat="40.94245360349715" lon="9.049024307983538"><ele>472.25</ele><time>2026-05-01T15:45:54Z</time></trkpt><trkpt lat="40.9425996065652" lon="9.048923319110106"><ele>473.0</ele><time>2026-05-01T15:45:55Z</time></trkpt><trkpt lat="40.94274812961728" lon="9.048798629390308"><ele>474.3333333333333</ele><time>2026-05-01T15:45:56Z</time></trkpt><trkpt lat="40.942899811656616" lon="9.048685097168919"><ele>475.66666666666663</ele><time>2026-05-01T15:45:57Z</time></trkpt><trkpt lat="40.94305330893357" lon="9.048557941121102"><ele>477.0</ele><time>2026-05-01T15:45:58Z</time></trkpt><trkpt lat="40.94319750830131" lon="9.048423607098817"><ele>477.33333333333337</ele><time>2026-05-01T15:45:59Z</time></trkpt><trkpt lat="40.94333746393709" lon="9.04828489571439"><ele>477.6666666666667</ele><time>2026-05-01T15:46:00Z</time></trkpt><trkpt lat="40.943467327859565" lon="9.04813923998276"><ele>478.0</ele><time>2026-05-01T15:46:01Z</time></trkpt><trkpt lat="40.94358637666103" lon="9.04798120119675"><ele>479.33333333333337</ele><time>2026-05-01T15:46:02Z</time></trkpt><trkpt lat="40.94370316994027" lon="9.047813114733886"><ele>480.66666666666663</ele><time>2026-05-01T15:46:03Z</time></trkpt><trkpt lat="40.94382197798127" lon="9.047641559426925"><ele>482.0</ele><time>2026-05-01T15:46:04Z</time></trkpt><trkpt lat="40.943938396128054" lon="9.047479065196802"><ele>482.25</ele><time>2026-05-01T15:46:05Z</time></trkpt><trkpt lat="40.94403057812949" lon="9.047350870528653"><ele>482.5</ele><time>2026-05-01T15:46:06Z</time></trkpt><trkpt lat="40.94412316504581" lon="9.04720651958068"><ele>482.75</ele><time>2026-05-01T15:46:07Z</time></trkpt><trkpt lat="40.94421119215022" lon="9.047097492863298"><ele>483.0</ele><time>2026-05-01T15:46:08Z</time></trkpt><trkpt lat="40.94430562192492" lon="9.047032137826976"><ele>482.59999999999997</ele><time>2026-05-01T15:46:09Z</time></trkpt><trkpt lat="40.944408622325376" lon="9.047018526147033"><ele>482.19999999999993</ele><time>2026-05-01T15:46:10Z</time></trkpt><trkpt lat="40.94450632617691" lon="9.047055083231227"><ele>481.8</ele><time>2026-05-01T15:46:11Z</time></trkpt><trkpt lat="40.944596895221665" lon="9.047145907473112"><ele>481.4</ele><time>2026-05-01T15:46:12Z</time></trkpt><trkpt lat="40.944678186215604" lon="9.047243565931334"><ele>481.0</ele><time>2026-05-01T15:46:13Z</time></trkpt><trkpt lat="40.944747689329155" lon="9.047326179084202"><ele>481.0</ele><time>2026-05-01T15:46:14Z</time></trkpt><trkpt lat="40.94486327505912" lon="9.047420759475324"><ele>481.0</ele><time>2026-05-01T15:46:16Z</time></trkpt><trkpt lat="40.944945339231076" lon="9.047426596074743"><ele>481.0</ele><time>2026-05-01T15:46:18Z</time></trkpt><trkpt lat="40.94500478734033" lon="9.047390607986038"><ele>481.0</ele><time>2026-05-01T15:46:20Z</time></trkpt><trkpt lat="40.945050678601966" lon="9.047310366614363"><ele>481.0</ele><time>2026-05-01T15:46:22Z</time></trkpt><trkpt lat="40.94505627508907" lon="9.047138681497577"><ele>479.6666666666667</ele><time>2026-05-01T15:46:24Z</time></trkpt><trkpt lat="40.945062415064555" lon="9.046998549227537"><ele>478.33333333333337</ele><time>2026-05-01T15:46:25Z</time></trkpt><trkpt lat="40.94508714275974" lon="9.046810992877779"><ele>477.0</ele><time>2026-05-01T15:46:26Z</time></trkpt><trkpt lat="40.94515214501607" lon="9.046364836592721"><ele>476.33333333333337</ele><time>2026-05-01T15:46:28Z</time></trkpt><trkpt lat="40.945205047661844" lon="9.04612172899836"><ele>475.6666666666667</ele><time>2026-05-01T15:46:29Z</time></trkpt><trkpt lat="40.945276027683974" lon="9.045871179575261"><ele>475.0</ele><time>2026-05-01T15:46:30Z</time></trkpt><trkpt lat="40.94536071113939" lon="9.045614016490385"><ele>474.0</ele><time>2026-05-01T15:46:31Z</time></trkpt><trkpt lat="40.94548915827753" lon="9.045366210864831"><ele>473.0</ele><time>2026-05-01T15:46:32Z</time></trkpt><trkpt lat="40.945642645774996" lon="9.045097116937287"><ele>473.3333333333333</ele><time>2026-05-01T15:46:33Z</time></trkpt><trkpt lat="40.945778475206495" lon="9.044863247543617"><ele>473.66666666666663</ele><time>2026-05-01T15:46:34Z</time></trkpt><trkpt lat="40.94590242482123" lon="9.044644305137416"><ele>474.0</ele><time>2026-05-01T15:46:35Z</time></trkpt><trkpt lat="40.94602116162907" lon="9.044437225642737"><ele>473.33333333333337</ele><time>2026-05-01T15:46:36Z</time></trkpt><trkpt lat="40.94613756634781" lon="9.04422374530551"><ele>472.6666666666667</ele><time>2026-05-01T15:46:37Z</time></trkpt><trkpt lat="40.94626481136806" lon="9.043990670251688"><ele>472.0</ele><time>2026-05-01T15:46:38Z</time></trkpt><trkpt lat="40.94639009801075" lon="9.043742436878125"><ele>471.0</ele><time>2026-05-01T15:46:39Z</time></trkpt><trkpt lat="40.94650558996953" lon="9.043476736751284"><ele>470.0</ele><time>2026-05-01T15:46:40Z</time></trkpt><trkpt lat="40.946616522416285" lon="9.043188173364376"><ele>467.0</ele><time>2026-05-01T15:46:41Z</time></trkpt><trkpt lat="40.946727258082085" lon="9.042896617485567"><ele>464.0</ele><time>2026-05-01T15:46:42Z</time></trkpt><trkpt lat="40.94683719425981" lon="9.042607465934951"><ele>464.5</ele><time>2026-05-01T15:46:43Z</time></trkpt><trkpt lat="40.94694771736541" lon="9.042318169843574"><ele>465.0</ele><time>2026-05-01T15:46:44Z</time></trkpt><trkpt lat="40.9470587827767" lon="9.042027794638274"><ele>465.0</ele><time>2026-05-01T15:46:45Z</time></trkpt><trkpt lat="40.94717005636788" lon="9.041741874622462"><ele>465.0</ele><time>2026-05-01T15:46:46Z</time></trkpt><trkpt lat="40.947283411922726" lon="9.041455353285372"><ele>466.5</ele><time>2026-05-01T15:46:47Z</time></trkpt><trkpt lat="40.9474045545023" lon="9.041176372543585"><ele>468.0</ele><time>2026-05-01T15:46:48Z</time></trkpt><trkpt lat="40.94752815146143" lon="9.04089943744468"><ele>467.0</ele><time>2026-05-01T15:46:49Z</time></trkpt><trkpt lat="40.947652496827715" lon="9.040624617517155"><ele>466.0</ele><time>2026-05-01T15:46:50Z</time></trkpt><trkpt lat="40.94777582600533" lon="9.040354826906787"><ele>466.0</ele><time>2026-05-01T15:46:51Z</time></trkpt><trkpt lat="40.947895639027855" lon="9.04008551289583"><ele>466.0</ele><time>2026-05-01T15:46:52Z</time></trkpt><trkpt lat="40.94801416751418" lon="9.039815263632311"><ele>467.5</ele><time>2026-05-01T15:46:53Z</time></trkpt><trkpt lat="40.94813124223734" lon="9.039553085575614"><ele>469.0</ele><time>2026-05-01T15:46:54Z</time></trkpt><trkpt lat="40.948253167608705" lon="9.039294509486641"><ele>467.5</ele><time>2026-05-01T15:46:55Z</time></trkpt><trkpt lat="40.948379445649046" lon="9.039044525216498"><ele>466.0</ele><time>2026-05-01T15:46:56Z</time></trkpt><trkpt lat="40.948518664854966" lon="9.038803399198539"><ele>466.0</ele><time>2026-05-01T15:46:57Z</time></trkpt><trkpt lat="40.94866632489406" lon="9.038567704757597"><ele>466.0</ele><time>2026-05-01T15:46:58Z</time></trkpt><trkpt lat="40.94881421161957" lon="9.038341577368136"><ele>467.5</ele><time>2026-05-01T15:46:59Z</time></trkpt><trkpt lat="40.94896446339973" lon="9.038105600207453"><ele>469.0</ele><time>2026-05-01T15:47:00Z</time></trkpt><trkpt lat="40.94911429894389" lon="9.037870757238007"><ele>469.0</ele><time>2026-05-01T15:47:01Z</time></trkpt><trkpt lat="40.94925101810293" lon="9.037622284832906"><ele>469.0</ele><time>2026-05-01T15:47:02Z</time></trkpt><trkpt lat="40.94939225620423" lon="9.037363398795407"><ele>469.5</ele><time>2026-05-01T15:47:03Z</time></trkpt><trkpt lat="40.94952633736377" lon="9.037093403040796"><ele>470.0</ele><time>2026-05-01T15:47:04Z</time></trkpt><trkpt lat="40.9496581276206" lon="9.036824145642328"><ele>470.66666666666663</ele><time>2026-05-01T15:47:05Z</time></trkpt><trkpt lat="40.9497826886084" lon="9.03656133905744"><ele>471.33333333333337</ele><time>2026-05-01T15:47:06Z</time></trkpt><trkpt lat="40.94989960079206" lon="9.03632380343327"><ele>472.0</ele><time>2026-05-01T15:47:07Z</time></trkpt><trkpt lat="40.95001316049546" lon="9.036100387200289"><ele>472.33333333333337</ele><time>2026-05-01T15:47:08Z</time></trkpt><trkpt lat="40.950131329855765" lon="9.035871494252325"><ele>472.66666666666663</ele><time>2026-05-01T15:47:09Z</time></trkpt><trkpt lat="40.95024768393064" lon="9.035636443803593"><ele>473.0</ele><time>2026-05-01T15:47:10Z</time></trkpt><trkpt lat="40.95036282111637" lon="9.035401719790203"><ele>471.66666666666663</ele><time>2026-05-01T15:47:11Z</time></trkpt><trkpt lat="40.95048375238411" lon="9.035159670488348"><ele>470.33333333333337</ele><time>2026-05-01T15:47:12Z</time></trkpt><trkpt lat="40.95060318498583" lon="9.03492354169112"><ele>469.0</ele><time>2026-05-01T15:47:13Z</time></trkpt><trkpt lat="40.95072482654998" lon="9.03468173085612"><ele>469.0</ele><time>2026-05-01T15:47:14Z</time></trkpt><trkpt lat="40.95084671559353" lon="9.0344453949495"><ele>469.0</ele><time>2026-05-01T15:47:15Z</time></trkpt><trkpt lat="40.95098678271983" lon="9.034210746188753"><ele>469.0</ele><time>2026-05-01T15:47:16Z</time></trkpt><trkpt lat="40.95113673651334" lon="9.033986062597519"><ele>466.5</ele><time>2026-05-01T15:47:17Z</time></trkpt><trkpt lat="40.951292037612454" lon="9.033763705812888"><ele>464.0</ele><time>2026-05-01T15:47:18Z</time></trkpt><trkpt lat="40.95144566077842" lon="9.033534890210339"><ele>464.5</ele><time>2026-05-01T15:47:19Z</time></trkpt><trkpt lat="40.9516030482408" lon="9.03330118531656"><ele>465.0</ele><time>2026-05-01T15:47:20Z</time></trkpt><trkpt lat="40.95175693745859" lon="9.033073059393455"><ele>465.0</ele><time>2026-05-01T15:47:21Z</time></trkpt><trkpt lat="40.95190293608375" lon="9.03283073752406"><ele>465.0</ele><time>2026-05-01T15:47:22Z</time></trkpt><trkpt lat="40.95203476324846" lon="9.032567945138164"><ele>466.0</ele><time>2026-05-01T15:47:23Z</time></trkpt><trkpt lat="40.952145707851514" lon="9.032289336069475"><ele>467.0</ele><time>2026-05-01T15:47:24Z</time></trkpt><trkpt lat="40.95225417689957" lon="9.0319967126715"><ele>467.0</ele><time>2026-05-01T15:47:25Z</time></trkpt><trkpt lat="40.95235898225875" lon="9.031699877830443"><ele>467.0</ele><time>2026-05-01T15:47:26Z</time></trkpt><trkpt lat="40.952474381002936" lon="9.031416984453138"><ele>467.66666666666663</ele><time>2026-05-01T15:47:27Z</time></trkpt><trkpt lat="40.952598083173946" lon="9.03116598361111"><ele>468.33333333333337</ele><time>2026-05-01T15:47:28Z</time></trkpt><trkpt lat="40.952729891524335" lon="9.030981988134563"><ele>469.0</ele><time>2026-05-01T15:47:29Z</time></trkpt><trkpt lat="40.95288539807608" lon="9.030843314228298"><ele>469.33333333333337</ele><time>2026-05-01T15:47:30Z</time></trkpt><trkpt lat="40.953065946914364" lon="9.030709502832952"><ele>469.66666666666663</ele><time>2026-05-01T15:47:31Z</time></trkpt><trkpt lat="40.95326558458301" lon="9.030574262528527"><ele>470.0</ele><time>2026-05-01T15:47:32Z</time></trkpt><trkpt lat="40.95346392857634" lon="9.030439168598068"><ele>470.0</ele><time>2026-05-01T15:47:33Z</time></trkpt><trkpt lat="40.9536435711431" lon="9.030316286271455"><ele>470.0</ele><time>2026-05-01T15:47:34Z</time></trkpt><trkpt lat="40.95381915908832" lon="9.030188984215785"><ele>470.0</ele><time>2026-05-01T15:47:35Z</time></trkpt><trkpt lat="40.953997676949434" lon="9.03005929368405"><ele>470.0</ele><time>2026-05-01T15:47:36Z</time></trkpt><trkpt lat="40.95418765431557" lon="9.029936221362842"><ele>470.0</ele><time>2026-05-01T15:47:37Z</time></trkpt><trkpt lat="40.954392791474376" lon="9.029825562036716"><ele>470.0</ele><time>2026-05-01T15:47:38Z</time></trkpt><trkpt lat="40.95461210592405" lon="9.029734212752391"><ele>470.0</ele><time>2026-05-01T15:47:39Z</time></trkpt><trkpt lat="40.95482411665606" lon="9.029657562850664"><ele>470.0</ele><time>2026-05-01T15:47:40Z</time></trkpt><trkpt lat="40.95501925948747" lon="9.02957803319986"><ele>470.0</ele><time>2026-05-01T15:47:41Z</time></trkpt><trkpt lat="40.955199901287024" lon="9.029497244625178"><ele>468.66666666666663</ele><time>2026-05-01T15:47:42Z</time></trkpt><trkpt lat="40.95536803861535" lon="9.029407226415527"><ele>467.33333333333337</ele><time>2026-05-01T15:47:43Z</time></trkpt><trkpt lat="40.955523280991024" lon="9.029283950799172"><ele>466.0</ele><time>2026-05-01T15:47:44Z</time></trkpt><trkpt lat="40.95567529157402" lon="9.029116108283032"><ele>466.0</ele><time>2026-05-01T15:47:45Z</time></trkpt><trkpt lat="40.955827084691585" lon="9.028906456511324"><ele>466.0</ele><time>2026-05-01T15:47:46Z</time></trkpt><trkpt lat="40.955979454851004" lon="9.028684541423019"><ele>466.0</ele><time>2026-05-01T15:47:47Z</time></trkpt><trkpt lat="40.9561359602218" lon="9.028452902674987"><ele>462.5</ele><time>2026-05-01T15:47:48Z</time></trkpt><trkpt lat="40.956293192727834" lon="9.028227985125012"><ele>459.0</ele><time>2026-05-01T15:47:49Z</time></trkpt><trkpt lat="40.95661119062777" lon="9.027785769266712"><ele>459.0</ele><time>2026-05-01T15:47:51Z</time></trkpt><trkpt lat="40.956770555617155" lon="9.027560111699353"><ele>459.0</ele><time>2026-05-01T15:47:52Z</time></trkpt><trkpt lat="40.95693129324669" lon="9.027334780735979"><ele>459.0</ele><time>2026-05-01T15:47:53Z</time></trkpt><trkpt lat="40.95709133198795" lon="9.027108994399137"><ele>459.0</ele><time>2026-05-01T15:47:54Z</time></trkpt><trkpt lat="40.957250146922085" lon="9.026883895148854"><ele>459.0</ele><time>2026-05-01T15:47:55Z</time></trkpt><trkpt lat="40.9574145085576" lon="9.026654896444867"><ele>459.0</ele><time>2026-05-01T15:47:56Z</time></trkpt><trkpt lat="40.957579483343466" lon="9.026421421547134"><ele>460.5</ele><time>2026-05-01T15:47:57Z</time></trkpt><trkpt lat="40.957759694190344" lon="9.026167867812061"><ele>462.0</ele><time>2026-05-01T15:47:58Z</time></trkpt><trkpt lat="40.95795321326089" lon="9.025897958047986"><ele>463.0</ele><time>2026-05-01T15:47:59Z</time></trkpt><trkpt lat="40.95813001733656" lon="9.025648360727327"><ele>464.0</ele><time>2026-05-01T15:48:00Z</time></trkpt><trkpt lat="40.958290786268854" lon="9.025425027802843"><ele>464.0</ele><time>2026-05-01T15:48:01Z</time></trkpt><trkpt lat="40.958437717147774" lon="9.025209207650066"><ele>464.0</ele><time>2026-05-01T15:48:02Z</time></trkpt><trkpt lat="40.95858200531223" lon="9.025007195349326"><ele>464.0</ele><time>2026-05-01T15:48:03Z</time></trkpt><trkpt lat="40.95872772170938" lon="9.024800269394365"><ele>464.0</ele><time>2026-05-01T15:48:04Z</time></trkpt><trkpt lat="40.95887712840775" lon="9.024593934557368"><ele>464.0</ele><time>2026-05-01T15:48:05Z</time></trkpt><trkpt lat="40.95902329389607" lon="9.02438889401533"><ele>464.0</ele><time>2026-05-01T15:48:06Z</time></trkpt><trkpt lat="40.95916505287036" lon="9.024187132607635"><ele>466.3333333333333</ele><time>2026-05-01T15:48:07Z</time></trkpt><trkpt lat="40.95930662886148" lon="9.023984880289316"><ele>468.66666666666663</ele><time>2026-05-01T15:48:08Z</time></trkpt><trkpt lat="40.959454009295996" lon="9.023779990115298"><ele>471.0</ele><time>2026-05-01T15:48:09Z</time></trkpt><trkpt lat="40.959604660088594" lon="9.023573665397711"><ele>471.0</ele><time>2026-05-01T15:48:10Z</time></trkpt><trkpt lat="40.95974989661294" lon="9.023365479448145"><ele>471.0</ele><time>2026-05-01T15:48:11Z</time></trkpt><trkpt lat="40.95989158244974" lon="9.0231548925517"><ele>471.0</ele><time>2026-05-01T15:48:12Z</time></trkpt><trkpt lat="40.960034359569974" lon="9.022954281563155"><ele>474.0</ele><time>2026-05-01T15:48:13Z</time></trkpt><trkpt lat="40.96017826642494" lon="9.022757713325094"><ele>477.0</ele><time>2026-05-01T15:48:14Z</time></trkpt><trkpt lat="40.9603217230721" lon="9.022563187711869"><ele>480.0</ele><time>2026-05-01T15:48:15Z</time></trkpt><trkpt lat="40.9604537171843" lon="9.022364233336166"><ele>480.0</ele><time>2026-05-01T15:48:16Z</time></trkpt><trkpt lat="40.9605951773418" lon="9.022161163856248"><ele>480.0</ele><time>2026-05-01T15:48:17Z</time></trkpt><trkpt lat="40.960744120787346" lon="9.021949308385517"><ele>480.0</ele><time>2026-05-01T15:48:18Z</time></trkpt><trkpt lat="40.96090052546417" lon="9.021731561211169"><ele>481.66666666666663</ele><time>2026-05-01T15:48:19Z</time></trkpt><trkpt lat="40.96105778429406" lon="9.021515063835285"><ele>483.3333333333333</ele><time>2026-05-01T15:48:20Z</time></trkpt><trkpt lat="40.961199075258115" lon="9.021310625425896"><ele>485.0</ele><time>2026-05-01T15:48:21Z</time></trkpt><trkpt lat="40.96135486125564" lon="9.021114811766768"><ele>485.0</ele><time>2026-05-01T15:48:22Z</time></trkpt><trkpt lat="40.961525421587204" lon="9.020924892528859"><ele>485.0</ele><time>2026-05-01T15:48:23Z</time></trkpt><trkpt lat="40.96170068712202" lon="9.020739082350811"><ele>485.0</ele><time>2026-05-01T15:48:24Z</time></trkpt><trkpt lat="40.96186188711378" lon="9.020564942041153"><ele>486.66666666666663</ele><time>2026-05-01T15:48:25Z</time></trkpt><trkpt lat="40.96202428390074" lon="9.020382329309125"><ele>488.33333333333337</ele><time>2026-05-01T15:48:26Z</time></trkpt><trkpt lat="40.96218150404902" lon="9.020205608956248"><ele>490.0</ele><time>2026-05-01T15:48:27Z</time></trkpt><trkpt lat="40.96232468647893" lon="9.020054405502377"><ele>491.6666666666667</ele><time>2026-05-01T15:48:28Z</time></trkpt><trkpt lat="40.96247996191708" lon="9.019885588340395"><ele>493.33333333333337</ele><time>2026-05-01T15:48:29Z</time></trkpt><trkpt lat="40.96264212310211" lon="9.019706906792933"><ele>495.0</ele><time>2026-05-01T15:48:30Z</time></trkpt><trkpt lat="40.962800133780675" lon="9.019550323114704"><ele>497.33333333333337</ele><time>2026-05-01T15:48:31Z</time></trkpt><trkpt lat="40.962962630909125" lon="9.01944722658456"><ele>499.6666666666667</ele><time>2026-05-01T15:48:32Z</time></trkpt><trkpt lat="40.96314561908215" lon="9.019364880998747"><ele>502.0</ele><time>2026-05-01T15:48:33Z</time></trkpt><trkpt lat="40.96333470281941" lon="9.019339395950812"><ele>505.0</ele><time>2026-05-01T15:48:34Z</time></trkpt><trkpt lat="40.96352980638019" lon="9.019370929388625"><ele>508.0</ele><time>2026-05-01T15:48:35Z</time></trkpt><trkpt lat="40.96371971308882" lon="9.01944605797773"><ele>511.0</ele><time>2026-05-01T15:48:36Z</time></trkpt><trkpt lat="40.96388839228613" lon="9.019584308367001"><ele>511.0</ele><time>2026-05-01T15:48:37Z</time></trkpt><trkpt lat="40.96407908545203" lon="9.019707611119507"><ele>511.0</ele><time>2026-05-01T15:48:38Z</time></trkpt><trkpt lat="40.96426468588655" lon="9.019867108493823"><ele>511.0</ele><time>2026-05-01T15:48:39Z</time></trkpt><trkpt lat="40.96445350912624" lon="9.020024281134646"><ele>511.6666666666667</ele><time>2026-05-01T15:48:40Z</time></trkpt><trkpt lat="40.96464333775952" lon="9.020173749559401"><ele>512.3333333333334</ele><time>2026-05-01T15:48:41Z</time></trkpt><trkpt lat="40.964830338674595" lon="9.020314006906908"><ele>513.0</ele><time>2026-05-01T15:48:42Z</time></trkpt><trkpt lat="40.96501334955846" lon="9.020450455569403"><ele>516.6666666666666</ele><time>2026-05-01T15:48:43Z</time></trkpt><trkpt lat="40.965192536735664" lon="9.020593383862945"><ele>520.3333333333333</ele><time>2026-05-01T15:48:44Z</time></trkpt><trkpt lat="40.96537064201544" lon="9.020734499793116"><ele>524.0</ele><time>2026-05-01T15:48:45Z</time></trkpt><trkpt lat="40.965548322482036" lon="9.020868803252498"><ele>524.0</ele><time>2026-05-01T15:48:46Z</time></trkpt><trkpt lat="40.96572287646489" lon="9.021005509669067"><ele>524.0</ele><time>2026-05-01T15:48:47Z</time></trkpt><trkpt lat="40.965903666067916" lon="9.021143886143378"><ele>524.0</ele><time>2026-05-01T15:48:48Z</time></trkpt><trkpt lat="40.96608571952128" lon="9.021284320804673"><ele>525.0</ele><time>2026-05-01T15:48:49Z</time></trkpt><trkpt lat="40.966270694041235" lon="9.021424795085029"><ele>526.0</ele><time>2026-05-01T15:48:50Z</time></trkpt><trkpt lat="40.96645783052775" lon="9.02156921843283"><ele>527.0</ele><time>2026-05-01T15:48:51Z</time></trkpt><trkpt lat="40.96664696472375" lon="9.021717927001086"><ele>532.3333333333333</ele><time>2026-05-01T15:48:52Z</time></trkpt><trkpt lat="40.96683876605965" lon="9.021867667482864"><ele>537.6666666666666</ele><time>2026-05-01T15:48:53Z</time></trkpt><trkpt lat="40.96703532404087" lon="9.022009724580572"><ele>543.0</ele><time>2026-05-01T15:48:54Z</time></trkpt><trkpt lat="40.967245435090845" lon="9.022130393227386"><ele>543.0</ele><time>2026-05-01T15:48:55Z</time></trkpt><trkpt lat="40.96746056174351" lon="9.022228895799739"><ele>543.0</ele><time>2026-05-01T15:48:56Z</time></trkpt><trkpt lat="40.96766190654375" lon="9.022325159712317"><ele>543.0</ele><time>2026-05-01T15:48:57Z</time></trkpt><trkpt lat="40.96784912444093" lon="9.022399984933589"><ele>543.3333333333334</ele><time>2026-05-01T15:48:58Z</time></trkpt><trkpt lat="40.96803775029824" lon="9.022433235278935"><ele>543.6666666666667</ele><time>2026-05-01T15:48:59Z</time></trkpt><trkpt lat="40.968225864439674" lon="9.022412096500126"><ele>544.0</ele><time>2026-05-01T15:49:00Z</time></trkpt><trkpt lat="40.96843015284504" lon="9.022345414094914"><ele>538.3333333333334</ele><time>2026-05-01T15:49:01Z</time></trkpt><trkpt lat="40.96863623715983" lon="9.02226777339455"><ele>532.6666666666666</ele><time>2026-05-01T15:49:02Z</time></trkpt><trkpt lat="40.968853624648375" lon="9.022175999730509"><ele>527.0</ele><time>2026-05-01T15:49:03Z</time></trkpt><trkpt lat="40.96907435850067" lon="9.022050618376806"><ele>520.5</ele><time>2026-05-01T15:49:04Z</time></trkpt><trkpt lat="40.96929892412877" lon="9.02197056894898"><ele>514.0</ele><time>2026-05-01T15:49:05Z</time></trkpt><trkpt lat="40.96950591828799" lon="9.021871269740194"><ele>514.0</ele><time>2026-05-01T15:49:06Z</time></trkpt><trkpt lat="40.969707994025384" lon="9.021777738433386"><ele>514.0</ele><time>2026-05-01T15:49:07Z</time></trkpt><trkpt lat="40.969902554130485" lon="9.021688651864396"><ele>514.0</ele><time>2026-05-01T15:49:08Z</time></trkpt><trkpt lat="40.97009120669632" lon="9.021605176178738"><ele>510.6666666666667</ele><time>2026-05-01T15:49:09Z</time></trkpt><trkpt lat="40.970274542226775" lon="9.021520445637845"><ele>507.33333333333337</ele><time>2026-05-01T15:49:10Z</time></trkpt><trkpt lat="40.97045120243747" lon="9.021435545082015"><ele>504.0</ele><time>2026-05-01T15:49:11Z</time></trkpt><trkpt lat="40.97061410128911" lon="9.021336652556979"><ele>504.0</ele><time>2026-05-01T15:49:12Z</time></trkpt><trkpt lat="40.97077991849279" lon="9.021194587393312"><ele>504.0</ele><time>2026-05-01T15:49:13Z</time></trkpt><trkpt lat="40.9709045529888" lon="9.020999524183056"><ele>504.0</ele><time>2026-05-01T15:49:14Z</time></trkpt><trkpt lat="40.971021524596296" lon="9.020770438711489"><ele>499.33333333333337</ele><time>2026-05-01T15:49:15Z</time></trkpt><trkpt lat="40.97111696448371" lon="9.020509950901271"><ele>494.6666666666667</ele><time>2026-05-01T15:49:16Z</time></trkpt><trkpt lat="40.97120098246865" lon="9.020254452334337"><ele>490.0</ele><time>2026-05-01T15:49:17Z</time></trkpt><trkpt lat="40.97128693453867" lon="9.020015253027497"><ele>489.33333333333337</ele><time>2026-05-01T15:49:18Z</time></trkpt><trkpt lat="40.971367557912835" lon="9.019787985461914"><ele>488.66666666666663</ele><time>2026-05-01T15:49:19Z</time></trkpt><trkpt lat="40.97143609939772" lon="9.019592288856403"><ele>488.0</ele><time>2026-05-01T15:49:20Z</time></trkpt><trkpt lat="40.97149356525081" lon="9.019425448578637"><ele>487.99999999999994</ele><time>2026-05-01T15:49:21Z</time></trkpt><trkpt lat="40.97153657972126" lon="9.019291162319753"><ele>488.0</ele><time>2026-05-01T15:49:22Z</time></trkpt><trkpt lat="40.97157040820764" lon="9.019195838039613"><ele>488.0</ele><time>2026-05-01T15:49:23Z</time></trkpt><trkpt lat="40.97161357798065" lon="9.019129427501476"><ele>488.0</ele><time>2026-05-01T15:49:24Z</time></trkpt><trkpt lat="40.971678805001794" lon="9.019081606414554"><ele>487.99999999999994</ele><time>2026-05-01T15:49:25Z</time></trkpt><trkpt lat="40.971754616289516" lon="9.019062426800849"><ele>488.0</ele><time>2026-05-01T15:49:26Z</time></trkpt><trkpt lat="40.97181945586628" lon="9.019087145421842"><ele>489.0</ele><time>2026-05-01T15:49:27Z</time></trkpt><trkpt lat="40.97187906346754" lon="9.019152217498013"><ele>489.99999999999994</ele><time>2026-05-01T15:49:28Z</time></trkpt><trkpt lat="40.971938893319795" lon="9.019264928095875"><ele>490.99999999999994</ele><time>2026-05-01T15:49:29Z</time></trkpt><trkpt lat="40.97199164063157" lon="9.019409439180608"><ele>492.0</ele><time>2026-05-01T15:49:30Z</time></trkpt><trkpt lat="40.972033750966425" lon="9.019574437386574"><ele>493.0</ele><time>2026-05-01T15:49:31Z</time></trkpt><trkpt lat="40.972068360129825" lon="9.019720032881288"><ele>493.0</ele><time>2026-05-01T15:49:32Z</time></trkpt><trkpt lat="40.97210356546765" lon="9.019855213646679"><ele>492.99999999999994</ele><time>2026-05-01T15:49:33Z</time></trkpt><trkpt lat="40.97213362925663" lon="9.01997396689948"><ele>492.99999999999994</ele><time>2026-05-01T15:49:34Z</time></trkpt><trkpt lat="40.97217769250513" lon="9.0200691275927"><ele>493.0</ele><time>2026-05-01T15:49:35Z</time></trkpt><trkpt lat="40.972247519737806" lon="9.020134962434383"><ele>493.0</ele><time>2026-05-01T15:49:36Z</time></trkpt><trkpt lat="40.972346077695754" lon="9.020159766917274"><ele>490.25</ele><time>2026-05-01T15:49:37Z</time></trkpt><trkpt lat="40.9724619784644" lon="9.020135715922057"><ele>487.5</ele><time>2026-05-01T15:49:38Z</time></trkpt><trkpt lat="40.972593843066235" lon="9.020118799466925"><ele>484.75</ele><time>2026-05-01T15:49:39Z</time></trkpt><trkpt lat="40.97274056753728" lon="9.020101516480597"><ele>482.0</ele><time>2026-05-01T15:49:40Z</time></trkpt><trkpt lat="40.9728925375652" lon="9.020083679039196"><ele>480.0</ele><time>2026-05-01T15:49:41Z</time></trkpt><trkpt lat="40.97305069408002" lon="9.020067261620085"><ele>478.0</ele><time>2026-05-01T15:49:42Z</time></trkpt><trkpt lat="40.973214226610374" lon="9.0200502157119"><ele>476.0</ele><time>2026-05-01T15:49:43Z</time></trkpt><trkpt lat="40.97336928228049" lon="9.0200302975347"><ele>476.66666666666663</ele><time>2026-05-01T15:49:44Z</time></trkpt><trkpt lat="40.97352969756405" lon="9.020007662206538"><ele>477.33333333333337</ele><time>2026-05-01T15:49:45Z</time></trkpt><trkpt lat="40.97367738645386" lon="9.019985219282377"><ele>478.0</ele><time>2026-05-01T15:49:46Z</time></trkpt><trkpt lat="40.97382841030102" lon="9.019969067821583"><ele>478.0</ele><time>2026-05-01T15:49:47Z</time></trkpt><trkpt lat="40.97398862076553" lon="9.019978837860036"><ele>478.0</ele><time>2026-05-01T15:49:48Z</time></trkpt><trkpt lat="40.97415349903852" lon="9.020021412682288"><ele>478.0</ele><time>2026-05-01T15:49:49Z</time></trkpt><trkpt lat="40.97431316136567" lon="9.020071868481516"><ele>474.25</ele><time>2026-05-01T15:49:50Z</time></trkpt><trkpt lat="40.97445450009099" lon="9.020121098512476"><ele>470.5</ele><time>2026-05-01T15:49:51Z</time></trkpt><trkpt lat="40.974576229447855" lon="9.020164279876925"><ele>466.75</ele><time>2026-05-01T15:49:52Z</time></trkpt><trkpt lat="40.9746715593483" lon="9.020215416410226"><ele>463.0</ele><time>2026-05-01T15:49:53Z</time></trkpt><trkpt lat="40.97475159290114" lon="9.020289623485677"><ele>463.0</ele><time>2026-05-01T15:49:54Z</time></trkpt><trkpt lat="40.97479975284253" lon="9.020392016220509"><ele>462.99999999999994</ele><time>2026-05-01T15:49:55Z</time></trkpt><trkpt lat="40.974830368935365" lon="9.020511266627244"><ele>462.99999999999994</ele><time>2026-05-01T15:49:56Z</time></trkpt><trkpt lat="40.974834028616094" lon="9.02066098395311"><ele>463.0</ele><time>2026-05-01T15:49:57Z</time></trkpt><trkpt lat="40.97481790337418" lon="9.020835162081891"><ele>463.0</ele><time>2026-05-01T15:49:58Z</time></trkpt><trkpt lat="40.97479473886225" lon="9.021020900135362"><ele>464.75</ele><time>2026-05-01T15:49:59Z</time></trkpt><trkpt lat="40.97477559469205" lon="9.021214129017602"><ele>466.5</ele><time>2026-05-01T15:50:00Z</time></trkpt><trkpt lat="40.97476590190982" lon="9.021381248223388"><ele>468.25</ele><time>2026-05-01T15:50:01Z</time></trkpt><trkpt lat="40.97477435983534" lon="9.021526606140831"><ele>470.0</ele><time>2026-05-01T15:50:02Z</time></trkpt><trkpt lat="40.97482794175963" lon="9.021623891173089"><ele>470.2</ele><time>2026-05-01T15:50:03Z</time></trkpt><trkpt lat="40.97490546259088" lon="9.021701903075108"><ele>470.4</ele><time>2026-05-01T15:50:04Z</time></trkpt><trkpt lat="40.975006391173764" lon="9.021767126767497"><ele>470.6</ele><time>2026-05-01T15:50:05Z</time></trkpt><trkpt lat="40.9751181854443" lon="9.021792458693309"><ele>470.8</ele><time>2026-05-01T15:50:06Z</time></trkpt><trkpt lat="40.975224624136764" lon="9.021772540151577"><ele>471.0</ele><time>2026-05-01T15:50:07Z</time></trkpt><trkpt lat="40.97531182993841" lon="9.021707810882992"><ele>474.25</ele><time>2026-05-01T15:50:08Z</time></trkpt><trkpt lat="40.97537842848262" lon="9.021617096802315"><ele>477.5</ele><time>2026-05-01T15:50:09Z</time></trkpt><trkpt lat="40.975438976922426" lon="9.021507477484173"><ele>480.75</ele><time>2026-05-01T15:50:10Z</time></trkpt><trkpt lat="40.97550718593334" lon="9.021352934461941"><ele>484.0</ele><time>2026-05-01T15:50:11Z</time></trkpt><trkpt lat="40.97556669317783" lon="9.02117592658945"><ele>484.0</ele><time>2026-05-01T15:50:12Z</time></trkpt><trkpt lat="40.975607758182534" lon="9.02098091470755"><ele>484.0</ele><time>2026-05-01T15:50:13Z</time></trkpt><trkpt lat="40.975665941014945" lon="9.020776060544227"><ele>484.0</ele><time>2026-05-01T15:50:14Z</time></trkpt><trkpt lat="40.97574288650466" lon="9.020613379021254"><ele>484.5</ele><time>2026-05-01T15:50:15Z</time></trkpt><trkpt lat="40.97582823532977" lon="9.020453579119092"><ele>485.0</ele><time>2026-05-01T15:50:16Z</time></trkpt><trkpt lat="40.97593769145569" lon="9.020317266408197"><ele>485.5</ele><time>2026-05-01T15:50:17Z</time></trkpt><trkpt lat="40.975872657663885" lon="9.020152941371624"><ele>486.0</ele><time>2026-05-01T15:50:18Z</time></trkpt><trkpt lat="40.97598123442341" lon="9.020064607221437"><ele>486.0</ele><time>2026-05-01T15:50:19Z</time></trkpt><trkpt lat="40.976109722851646" lon="9.020021665246457"><ele>486.0</ele><time>2026-05-01T15:50:20Z</time></trkpt><trkpt lat="40.976254064672396" lon="9.019993593210142"><ele>486.0</ele><time>2026-05-01T15:50:21Z</time></trkpt><trkpt lat="40.976400721814464" lon="9.019981516240673"><ele>486.0</ele><time>2026-05-01T15:50:22Z</time></trkpt><trkpt lat="40.97654663108043" lon="9.019999125719366"><ele>486.33333333333337</ele><time>2026-05-01T15:50:23Z</time></trkpt><trkpt lat="40.97669661843929" lon="9.020059370426962"><ele>486.6666666666667</ele><time>2026-05-01T15:50:24Z</time></trkpt><trkpt lat="40.976849607319636" lon="9.020142285484317"><ele>487.0</ele><time>2026-05-01T15:50:25Z</time></trkpt><trkpt lat="40.97698869129979" lon="9.020228307838272"><ele>487.0</ele><time>2026-05-01T15:50:26Z</time></trkpt><trkpt lat="40.97712117550592" lon="9.020279808694795"><ele>487.0</ele><time>2026-05-01T15:50:27Z</time></trkpt><trkpt lat="40.97726845051109" lon="9.020293475504134"><ele>487.0</ele><time>2026-05-01T15:50:28Z</time></trkpt><trkpt lat="40.977414567822876" lon="9.020274370788806"><ele>487.0</ele><time>2026-05-01T15:50:29Z</time></trkpt><trkpt lat="40.977549966335964" lon="9.020223475180954"><ele>485.0</ele><time>2026-05-01T15:50:30Z</time></trkpt><trkpt lat="40.977672736196446" lon="9.020130583112325"><ele>483.0</ele><time>2026-05-01T15:50:31Z</time></trkpt><trkpt lat="40.977784304854545" lon="9.02000586349606"><ele>481.0</ele><time>2026-05-01T15:50:32Z</time></trkpt><trkpt lat="40.97791311454342" lon="9.019864112782615"><ele>481.0</ele><time>2026-05-01T15:50:33Z</time></trkpt><trkpt lat="40.97804945053107" lon="9.01974226467691"><ele>481.0</ele><time>2026-05-01T15:50:34Z</time></trkpt><trkpt lat="40.97818047614532" lon="9.019618916032137"><ele>481.0</ele><time>2026-05-01T15:50:35Z</time></trkpt><trkpt lat="40.97829766395791" lon="9.019507425146355"><ele>483.75</ele><time>2026-05-01T15:50:36Z</time></trkpt><trkpt lat="40.978430309538616" lon="9.019443171524756"><ele>486.5</ele><time>2026-05-01T15:50:37Z</time></trkpt><trkpt lat="40.97854666742729" lon="9.019418843102105"><ele>489.25</ele><time>2026-05-01T15:50:38Z</time></trkpt><trkpt lat="40.97865723921014" lon="9.01943049713765"><ele>492.0</ele><time>2026-05-01T15:50:39Z</time></trkpt><trkpt lat="40.97879262543034" lon="9.019545636607583"><ele>492.0</ele><time>2026-05-01T15:50:40Z</time></trkpt><trkpt lat="40.97890685567706" lon="9.019632406487403"><ele>492.0</ele><time>2026-05-01T15:50:41Z</time></trkpt><trkpt lat="40.978988920112336" lon="9.01966533018825"><ele>492.0</ele><time>2026-05-01T15:50:42Z</time></trkpt><trkpt lat="40.97909724040443" lon="9.01964351586682"><ele>492.0</ele><time>2026-05-01T15:50:44Z</time></trkpt><trkpt lat="40.97917380434948" lon="9.019504530660042"><ele>491.25</ele><time>2026-05-01T15:50:46Z</time></trkpt><trkpt lat="40.979239203768685" lon="9.019369361906223"><ele>490.5</ele><time>2026-05-01T15:50:47Z</time></trkpt><trkpt lat="40.97929935669656" lon="9.01921353506349"><ele>489.75</ele><time>2026-05-01T15:50:48Z</time></trkpt><trkpt lat="40.97934833734303" lon="9.019064195247548"><ele>489.0</ele><time>2026-05-01T15:50:49Z</time></trkpt><trkpt lat="40.97940578704621" lon="9.018934268644575"><ele>489.0</ele><time>2026-05-01T15:50:50Z</time></trkpt><trkpt lat="40.979486848424784" lon="9.01883661256725"><ele>489.0</ele><time>2026-05-01T15:50:51Z</time></trkpt><trkpt lat="40.979608715429364" lon="9.018747760082316"><ele>489.0</ele><time>2026-05-01T15:50:52Z</time></trkpt><trkpt lat="40.979736767967445" lon="9.018680761693998"><ele>489.0</ele><time>2026-05-01T15:50:53Z</time></trkpt><trkpt lat="40.97986417957565" lon="9.018581507308213"><ele>489.0</ele><time>2026-05-01T15:50:54Z</time></trkpt><trkpt lat="40.97999746202091" lon="9.018457092169637"><ele>489.0</ele><time>2026-05-01T15:50:55Z</time></trkpt><trkpt lat="40.98012367885845" lon="9.018296048047306"><ele>489.0</ele><time>2026-05-01T15:50:56Z</time></trkpt><trkpt lat="40.980257690328415" lon="9.01811889276797"><ele>487.66666666666663</ele><time>2026-05-01T15:50:57Z</time></trkpt><trkpt lat="40.98037916423241" lon="9.017949378926346"><ele>486.3333333333333</ele><time>2026-05-01T15:50:58Z</time></trkpt><trkpt lat="40.98049447754565" lon="9.017792594959051"><ele>485.0</ele><time>2026-05-01T15:50:59Z</time></trkpt><trkpt lat="40.98059827000873" lon="9.017647227401646"><ele>485.0</ele><time>2026-05-01T15:51:00Z</time></trkpt><trkpt lat="40.98070047191338" lon="9.017506576174863"><ele>485.0</ele><time>2026-05-01T15:51:01Z</time></trkpt><trkpt lat="40.980808202951934" lon="9.017388878478123"><ele>485.0</ele><time>2026-05-01T15:51:02Z</time></trkpt><trkpt lat="40.98092784387508" lon="9.01729747431106"><ele>485.0</ele><time>2026-05-01T15:51:03Z</time></trkpt><trkpt lat="40.981062160517304" lon="9.017242997960329"><ele>477.3333333333333</ele><time>2026-05-01T15:51:04Z</time></trkpt><trkpt lat="40.98122023520603" lon="9.017213304911305"><ele>469.66666666666663</ele><time>2026-05-01T15:51:05Z</time></trkpt><trkpt lat="40.98139758390414" lon="9.017196144206904"><ele>462.0</ele><time>2026-05-01T15:51:06Z</time></trkpt><trkpt lat="40.9815684063405" lon="9.017183560311612"><ele>461.66666666666663</ele><time>2026-05-01T15:51:07Z</time></trkpt><trkpt lat="40.98173820518387" lon="9.017150098893486"><ele>461.3333333333333</ele><time>2026-05-01T15:51:08Z</time></trkpt><trkpt lat="40.98191564227837" lon="9.017124994074576"><ele>461.0</ele><time>2026-05-01T15:51:09Z</time></trkpt><trkpt lat="40.98208950155488" lon="9.017117429421443"><ele>461.0</ele><time>2026-05-01T15:51:10Z</time></trkpt><trkpt lat="40.9822707472697" lon="9.017081525053557"><ele>461.0</ele><time>2026-05-01T15:51:11Z</time></trkpt><trkpt lat="40.98243615736287" lon="9.017022291368635"><ele>461.0</ele><time>2026-05-01T15:51:12Z</time></trkpt><trkpt lat="40.98261347233895" lon="9.017026056988843"><ele>464.0</ele><time>2026-05-01T15:51:13Z</time></trkpt><trkpt lat="40.982796638078746" lon="9.017013706575705"><ele>467.0</ele><time>2026-05-01T15:51:14Z</time></trkpt><trkpt lat="40.98295301022329" lon="9.016996213842575"><ele>470.0</ele><time>2026-05-01T15:51:15Z</time></trkpt><trkpt lat="40.98310703669025" lon="9.017009540468669"><ele>470.0</ele><time>2026-05-01T15:51:16Z</time></trkpt><trkpt lat="40.98325976770688" lon="9.017041836780168"><ele>470.0</ele><time>2026-05-01T15:51:17Z</time></trkpt><trkpt lat="40.98341895329996" lon="9.017104344532651"><ele>470.0</ele><time>2026-05-01T15:51:18Z</time></trkpt><trkpt lat="40.98356137314385" lon="9.017159951772983"><ele>469.0</ele><time>2026-05-01T15:51:19Z</time></trkpt><trkpt lat="40.983703603219126" lon="9.017206391115488"><ele>468.0</ele><time>2026-05-01T15:51:20Z</time></trkpt><trkpt lat="40.98384777625482" lon="9.017223173215976"><ele>467.0</ele><time>2026-05-01T15:51:21Z</time></trkpt><trkpt lat="40.98398461339479" lon="9.017244829934748"><ele>466.0</ele><time>2026-05-01T15:51:22Z</time></trkpt><trkpt lat="40.98411947319637" lon="9.017276410302138"><ele>460.5</ele><time>2026-05-01T15:51:23Z</time></trkpt><trkpt lat="40.98423700297628" lon="9.01728592898999"><ele>455.0</ele><time>2026-05-01T15:51:24Z</time></trkpt><trkpt lat="40.98435695195803" lon="9.017253978445977"><ele>449.5</ele><time>2026-05-01T15:51:25Z</time></trkpt><trkpt lat="40.98447052952196" lon="9.017184256825367"><ele>444.0</ele><time>2026-05-01T15:51:26Z</time></trkpt><trkpt lat="40.984568302455976" lon="9.017055626837386"><ele>444.0</ele><time>2026-05-01T15:51:27Z</time></trkpt><trkpt lat="40.98469638262056" lon="9.016900783118745"><ele>444.0</ele><time>2026-05-01T15:51:28Z</time></trkpt><trkpt lat="40.98484238960787" lon="9.016746413886532"><ele>444.0</ele><time>2026-05-01T15:51:29Z</time></trkpt><trkpt lat="40.984992712094304" lon="9.01659314498036"><ele>439.66666666666663</ele><time>2026-05-01T15:51:30Z</time></trkpt><trkpt lat="40.985135812694026" lon="9.016462349547913"><ele>435.3333333333333</ele><time>2026-05-01T15:51:31Z</time></trkpt><trkpt lat="40.98527777550047" lon="9.016326357734538"><ele>431.0</ele><time>2026-05-01T15:51:32Z</time></trkpt><trkpt lat="40.98543109025534" lon="9.0162156213801"><ele>431.0</ele><time>2026-05-01T15:51:33Z</time></trkpt><trkpt lat="40.98558379265139" lon="9.016125391900419"><ele>431.0</ele><time>2026-05-01T15:51:34Z</time></trkpt><trkpt lat="40.985729830075094" lon="9.0160399876464"><ele>431.0</ele><time>2026-05-01T15:51:35Z</time></trkpt><trkpt lat="40.985848962441615" lon="9.015957324841098"><ele>424.25</ele><time>2026-05-01T15:51:36Z</time></trkpt><trkpt lat="40.985944532973875" lon="9.015862484495294"><ele>417.5</ele><time>2026-05-01T15:51:37Z</time></trkpt><trkpt lat="40.986012833352355" lon="9.015742582177134"><ele>410.75</ele><time>2026-05-01T15:51:38Z</time></trkpt><trkpt lat="40.986047539680214" lon="9.01557446258063"><ele>404.0</ele><time>2026-05-01T15:51:39Z</time></trkpt><trkpt lat="40.986066604893615" lon="9.015379214014864"><ele>403.5</ele><time>2026-05-01T15:51:40Z</time></trkpt><trkpt lat="40.986055755521946" lon="9.015195623933803"><ele>403.0</ele><time>2026-05-01T15:51:41Z</time></trkpt><trkpt lat="40.98604122875721" lon="9.01502778884886"><ele>402.5</ele><time>2026-05-01T15:51:42Z</time></trkpt><trkpt lat="40.98605610710957" lon="9.01486780710804"><ele>402.0</ele><time>2026-05-01T15:51:43Z</time></trkpt><trkpt lat="40.986110487411935" lon="9.014728665026128"><ele>401.75</ele><time>2026-05-01T15:51:44Z</time></trkpt><trkpt lat="40.986202898369065" lon="9.014621373540377"><ele>401.5</ele><time>2026-05-01T15:51:45Z</time></trkpt><trkpt lat="40.986303578409135" lon="9.014517747936175"><ele>401.25</ele><time>2026-05-01T15:51:46Z</time></trkpt><trkpt lat="40.98638268672337" lon="9.014398678635"><ele>401.0</ele><time>2026-05-01T15:51:47Z</time></trkpt><trkpt lat="40.98643209006827" lon="9.014232746246188"><ele>401.3333333333333</ele><time>2026-05-01T15:51:48Z</time></trkpt><trkpt lat="40.98647234918287" lon="9.0140441278904"><ele>401.66666666666663</ele><time>2026-05-01T15:51:49Z</time></trkpt><trkpt lat="40.98652293656378" lon="9.013838144785158"><ele>402.0</ele><time>2026-05-01T15:51:50Z</time></trkpt><trkpt lat="40.98658295737684" lon="9.013626405287546"><ele>402.0</ele><time>2026-05-01T15:51:51Z</time></trkpt><trkpt lat="40.986643141397956" lon="9.013417495899844"><ele>402.0</ele><time>2026-05-01T15:51:52Z</time></trkpt><trkpt lat="40.9866951776003" lon="9.013219183685662"><ele>402.0</ele><time>2026-05-01T15:51:53Z</time></trkpt><trkpt lat="40.98673843692129" lon="9.013026363383817"><ele>398.75</ele><time>2026-05-01T15:51:54Z</time></trkpt><trkpt lat="40.986774625122415" lon="9.012833441578287"><ele>395.5</ele><time>2026-05-01T15:51:55Z</time></trkpt><trkpt lat="40.986810607088515" lon="9.012645202701709"><ele>392.25</ele><time>2026-05-01T15:51:56Z</time></trkpt><trkpt lat="40.98686374997705" lon="9.012461488051114"><ele>389.0</ele><time>2026-05-01T15:51:57Z</time></trkpt><trkpt lat="40.98693961233068" lon="9.012295893615269"><ele>388.6</ele><time>2026-05-01T15:51:58Z</time></trkpt><trkpt lat="40.987011304277566" lon="9.01215843672016"><ele>388.2</ele><time>2026-05-01T15:51:59Z</time></trkpt><trkpt lat="40.987078324277256" lon="9.012062033201573"><ele>387.8</ele><time>2026-05-01T15:52:00Z</time></trkpt><trkpt lat="40.98715156058697" lon="9.011990241597724"><ele>387.40000000000003</ele><time>2026-05-01T15:52:01Z</time></trkpt><trkpt lat="40.98723986197108" lon="9.01196465755406"><ele>387.0</ele><time>2026-05-01T15:52:02Z</time></trkpt><trkpt lat="40.98732237706917" lon="9.011991167112937"><ele>387.0</ele><time>2026-05-01T15:52:03Z</time></trkpt><trkpt lat="40.987385498545635" lon="9.012079835701124"><ele>387.0</ele><time>2026-05-01T15:52:04Z</time></trkpt><trkpt lat="40.98741803083073" lon="9.012195256246548"><ele>387.0</ele><time>2026-05-01T15:52:05Z</time></trkpt><trkpt lat="40.98741415206161" lon="9.012340281139915"><ele>387.0</ele><time>2026-05-01T15:52:06Z</time></trkpt><trkpt lat="40.987386344711574" lon="9.012495473661168"><ele>387.0</ele><time>2026-05-01T15:52:07Z</time></trkpt><trkpt lat="40.987358408063514" lon="9.012657242021687"><ele>386.75</ele><time>2026-05-01T15:52:08Z</time></trkpt><trkpt lat="40.98733081115109" lon="9.012843249904073"><ele>386.5</ele><time>2026-05-01T15:52:09Z</time></trkpt><trkpt lat="40.98730632051286" lon="9.013035234449509"><ele>386.25</ele><time>2026-05-01T15:52:10Z</time></trkpt><trkpt lat="40.98728777900517" lon="9.01321555488161"><ele>386.0</ele><time>2026-05-01T15:52:11Z</time></trkpt><trkpt lat="40.98727230000675" lon="9.013388162296303"><ele>386.0</ele><time>2026-05-01T15:52:12Z</time></trkpt><trkpt lat="40.98726271166016" lon="9.013572384570967"><ele>386.0</ele><time>2026-05-01T15:52:13Z</time></trkpt><trkpt lat="40.98726354901388" lon="9.013777340778875"><ele>386.0</ele><time>2026-05-01T15:52:14Z</time></trkpt><trkpt lat="40.98726969501681" lon="9.01398048016979"><ele>386.0</ele><time>2026-05-01T15:52:15Z</time></trkpt><trkpt lat="40.98727883183046" lon="9.014167926950183"><ele>384.75</ele><time>2026-05-01T15:52:16Z</time></trkpt><trkpt lat="40.9872894993558" lon="9.014346616583122"><ele>383.5</ele><time>2026-05-01T15:52:17Z</time></trkpt><trkpt lat="40.98730494986921" lon="9.01450011215562"><ele>382.25</ele><time>2026-05-01T15:52:18Z</time></trkpt><trkpt lat="40.98733384534213" lon="9.014634720918517"><ele>381.0</ele><time>2026-05-01T15:52:19Z</time></trkpt><trkpt lat="40.987397733411605" lon="9.014746924535109"><ele>381.0</ele><time>2026-05-01T15:52:20Z</time></trkpt><trkpt lat="40.98749776632371" lon="9.014851339882526"><ele>381.0</ele><time>2026-05-01T15:52:21Z</time></trkpt><trkpt lat="40.987626367818656" lon="9.01494609207201"><ele>381.0</ele><time>2026-05-01T15:52:22Z</time></trkpt><trkpt lat="40.98776277438434" lon="9.0150407143462"><ele>381.0</ele><time>2026-05-01T15:52:23Z</time></trkpt><trkpt lat="40.987881857574564" lon="9.01512365242521"><ele>377.5</ele><time>2026-05-01T15:52:24Z</time></trkpt><trkpt lat="40.98799681506973" lon="9.015202266554686"><ele>374.0</ele><time>2026-05-01T15:52:25Z</time></trkpt><trkpt lat="40.98811358820291" lon="9.01525487565759"><ele>370.5</ele><time>2026-05-01T15:52:26Z</time></trkpt><trkpt lat="40.988224212799494" lon="9.015274003971184"><ele>367.0</ele><time>2026-05-01T15:52:27Z</time></trkpt><trkpt lat="40.98832324650107" lon="9.015247846438305"><ele>369.0</ele><time>2026-05-01T15:52:28Z</time></trkpt><trkpt lat="40.98841170424013" lon="9.015166346982383"><ele>371.0</ele><time>2026-05-01T15:52:29Z</time></trkpt><trkpt lat="40.98848788762582" lon="9.015049559562334"><ele>373.0</ele><time>2026-05-01T15:52:30Z</time></trkpt><trkpt lat="40.9885696414139" lon="9.014890820814292"><ele>375.0</ele><time>2026-05-01T15:52:31Z</time></trkpt><trkpt lat="40.98866873836709" lon="9.014708709874737"><ele>375.0</ele><time>2026-05-01T15:52:32Z</time></trkpt><trkpt lat="40.988779721834675" lon="9.014514767019403"><ele>375.0</ele><time>2026-05-01T15:52:33Z</time></trkpt><trkpt lat="40.98888118421275" lon="9.014352623836787"><ele>375.0</ele><time>2026-05-01T15:52:34Z</time></trkpt><trkpt lat="40.98900531557556" lon="9.014194379233235"><ele>372.0</ele><time>2026-05-01T15:52:35Z</time></trkpt><trkpt lat="40.98916303829684" lon="9.014054974000963"><ele>369.0</ele><time>2026-05-01T15:52:36Z</time></trkpt><trkpt lat="40.989303117309355" lon="9.013927409126309"><ele>366.0</ele><time>2026-05-01T15:52:37Z</time></trkpt><trkpt lat="40.989400774546326" lon="9.01379034165426"><ele>370.25</ele><time>2026-05-01T15:52:38Z</time></trkpt><trkpt lat="40.98946240987397" lon="9.01362420879434"><ele>374.5</ele><time>2026-05-01T15:52:39Z</time></trkpt><trkpt lat="40.98950844531807" lon="9.013431869516978"><ele>378.75</ele><time>2026-05-01T15:52:40Z</time></trkpt><trkpt lat="40.989561169379556" lon="9.013266780980615"><ele>383.0</ele><time>2026-05-01T15:52:41Z</time></trkpt><trkpt lat="40.989632128517016" lon="9.013179257451696"><ele>383.0</ele><time>2026-05-01T15:52:42Z</time></trkpt><trkpt lat="40.98970843480931" lon="9.013184085233558"><ele>383.0</ele><time>2026-05-01T15:52:43Z</time></trkpt><trkpt lat="40.98980143218079" lon="9.013257068015902"><ele>383.0</ele><time>2026-05-01T15:52:44Z</time></trkpt><trkpt lat="40.98988366210954" lon="9.013375078229867"><ele>383.0</ele><time>2026-05-01T15:52:45Z</time></trkpt><trkpt lat="40.98990510525705" lon="9.013517267296244"><ele>383.0</ele><time>2026-05-01T15:52:46Z</time></trkpt><trkpt lat="40.98987306724472" lon="9.013667152200266"><ele>385.33333333333337</ele><time>2026-05-01T15:52:47Z</time></trkpt><trkpt lat="40.98978675619087" lon="9.013810970759053"><ele>387.6666666666667</ele><time>2026-05-01T15:52:48Z</time></trkpt><trkpt lat="40.98968424727387" lon="9.013966272435209"><ele>390.0</ele><time>2026-05-01T15:52:49Z</time></trkpt><trkpt lat="40.98958969807001" lon="9.014141774574364"><ele>390.6</ele><time>2026-05-01T15:52:50Z</time></trkpt><trkpt lat="40.98952589092041" lon="9.014283486461945"><ele>391.2</ele><time>2026-05-01T15:52:51Z</time></trkpt><trkpt lat="40.989491042761664" lon="9.014397980266256"><ele>391.79999999999995</ele><time>2026-05-01T15:52:52Z</time></trkpt><trkpt lat="40.989489808512126" lon="9.01450297622547"><ele>392.4</ele><time>2026-05-01T15:52:53Z</time></trkpt><trkpt lat="40.98953344119186" lon="9.014597384532909"><ele>393.0</ele><time>2026-05-01T15:52:54Z</time></trkpt><trkpt lat="40.98960921244608" lon="9.01466392356551"><ele>393.0</ele><time>2026-05-01T15:52:55Z</time></trkpt><trkpt lat="40.98972336433771" lon="9.01467247570217"><ele>393.0</ele><time>2026-05-01T15:52:56Z</time></trkpt><trkpt lat="40.989830958868026" lon="9.014619952971223"><ele>393.0</ele><time>2026-05-01T15:52:57Z</time></trkpt><trkpt lat="40.98989855871843" lon="9.014525516688256"><ele>393.0</ele><time>2026-05-01T15:52:58Z</time></trkpt><trkpt lat="40.98992895656532" lon="9.014381874678174"><ele>393.0</ele><time>2026-05-01T15:52:59Z</time></trkpt><trkpt lat="40.989952021872234" lon="9.014206319367318"><ele>392.25</ele><time>2026-05-01T15:53:00Z</time></trkpt><trkpt lat="40.989989441227145" lon="9.014015453498017"><ele>391.5</ele><time>2026-05-01T15:53:01Z</time></trkpt><trkpt lat="40.99004217510196" lon="9.013832943949321"><ele>390.75</ele><time>2026-05-01T15:53:02Z</time></trkpt><trkpt lat="40.990120595961145" lon="9.013678933783506"><ele>390.0</ele><time>2026-05-01T15:53:03Z</time></trkpt><trkpt lat="40.99023133613242" lon="9.013534734303262"><ele>394.0</ele><time>2026-05-01T15:53:04Z</time></trkpt><trkpt lat="40.99036698850615" lon="9.013397589444764"><ele>398.0</ele><time>2026-05-01T15:53:05Z</time></trkpt><trkpt lat="40.99046647826124" lon="9.01326810776542"><ele>402.0</ele><time>2026-05-01T15:53:06Z</time></trkpt><trkpt lat="40.99058905731777" lon="9.013117723804223"><ele>402.0</ele><time>2026-05-01T15:53:07Z</time></trkpt><trkpt lat="40.99070354510065" lon="9.012988697160322"><ele>402.0</ele><time>2026-05-01T15:53:08Z</time></trkpt><trkpt lat="40.99084330585225" lon="9.012900707477419"><ele>402.0</ele><time>2026-05-01T15:53:09Z</time></trkpt><trkpt lat="40.99099381249767" lon="9.012843811278989"><ele>405.0</ele><time>2026-05-01T15:53:10Z</time></trkpt><trkpt lat="40.991155558728806" lon="9.012828074829672"><ele>408.0</ele><time>2026-05-01T15:53:11Z</time></trkpt><trkpt lat="40.99131833585645" lon="9.012834475647034"><ele>411.0</ele><time>2026-05-01T15:53:12Z</time></trkpt><trkpt lat="40.99145848704265" lon="9.01283447734655"><ele>411.0</ele><time>2026-05-01T15:53:13Z</time></trkpt><trkpt lat="40.991614756641134" lon="9.01280914249313"><ele>411.0</ele><time>2026-05-01T15:53:14Z</time></trkpt><trkpt lat="40.991767700081716" lon="9.012785957628493"><ele>411.0</ele><time>2026-05-01T15:53:15Z</time></trkpt><trkpt lat="40.99192729624783" lon="9.012758408103702"><ele>413.0</ele><time>2026-05-01T15:53:16Z</time></trkpt><trkpt lat="40.992091105793875" lon="9.012729228222938"><ele>415.0</ele><time>2026-05-01T15:53:17Z</time></trkpt><trkpt lat="40.99226748320683" lon="9.01269603697746"><ele>417.0</ele><time>2026-05-01T15:53:18Z</time></trkpt><trkpt lat="40.99244557800746" lon="9.012673626653239"><ele>418.25</ele><time>2026-05-01T15:53:19Z</time></trkpt><trkpt lat="40.992599223109096" lon="9.012653204033091"><ele>419.5</ele><time>2026-05-01T15:53:20Z</time></trkpt><trkpt lat="40.99274022295646" lon="9.012630040394825"><ele>420.75</ele><time>2026-05-01T15:53:21Z</time></trkpt><trkpt lat="40.992875196807994" lon="9.012597240559355"><ele>422.0</ele><time>2026-05-01T15:53:22Z</time></trkpt><trkpt lat="40.993007238799414" lon="9.012543621912394"><ele>417.3333333333333</ele><time>2026-05-01T15:53:23Z</time></trkpt><trkpt lat="40.99315928363384" lon="9.012476380729966"><ele>412.66666666666663</ele><time>2026-05-01T15:53:24Z</time></trkpt><trkpt lat="40.99331787744319" lon="9.012402908386584"><ele>408.0</ele><time>2026-05-01T15:53:25Z</time></trkpt><trkpt lat="40.993484117360666" lon="9.01232488020851"><ele>408.0</ele><time>2026-05-01T15:53:26Z</time></trkpt><trkpt lat="40.993649795689656" lon="9.012247867047966"><ele>408.0</ele><time>2026-05-01T15:53:27Z</time></trkpt><trkpt lat="40.99379805782373" lon="9.012187954427553"><ele>408.0</ele><time>2026-05-01T15:53:28Z</time></trkpt><trkpt lat="40.993925382495476" lon="9.012148623647715"><ele>408.0</ele><time>2026-05-01T15:53:29Z</time></trkpt><trkpt lat="40.99404599760973" lon="9.012206346379925"><ele>408.0</ele><time>2026-05-01T15:53:30Z</time></trkpt><trkpt lat="40.99417587106051" lon="9.012250246497358"><ele>408.0</ele><time>2026-05-01T15:53:31Z</time></trkpt><trkpt lat="40.99431245058054" lon="9.012303303622035"><ele>408.0</ele><time>2026-05-01T15:53:32Z</time></trkpt><trkpt lat="40.994433362508346" lon="9.01234166904427"><ele>409.4</ele><time>2026-05-01T15:53:33Z</time></trkpt><trkpt lat="40.994541219736526" lon="9.01237429483881"><ele>410.79999999999995</ele><time>2026-05-01T15:53:34Z</time></trkpt><trkpt lat="40.99462874932665" lon="9.012355853560988"><ele>412.2</ele><time>2026-05-01T15:53:35Z</time></trkpt><trkpt lat="40.99469990662462" lon="9.012308830318817"><ele>413.6</ele><time>2026-05-01T15:53:36Z</time></trkpt><trkpt lat="40.99475567090448" lon="9.012196229733927"><ele>415.0</ele><time>2026-05-01T15:53:37Z</time></trkpt><trkpt lat="40.99478593574661" lon="9.012059806347077"><ele>415.0</ele><time>2026-05-01T15:53:38Z</time></trkpt><trkpt lat="40.99480929087382" lon="9.01188523076634"><ele>415.0</ele><time>2026-05-01T15:53:39Z</time></trkpt><trkpt lat="40.99483808655245" lon="9.011694481775228"><ele>415.0</ele><time>2026-05-01T15:53:40Z</time></trkpt><trkpt lat="40.99489052699111" lon="9.011455674664866"><ele>414.33333333333337</ele><time>2026-05-01T15:53:41Z</time></trkpt><trkpt lat="40.99494038180445" lon="9.011242953591273"><ele>413.66666666666663</ele><time>2026-05-01T15:53:42Z</time></trkpt><trkpt lat="40.99498277262266" lon="9.011051554500526"><ele>413.0</ele><time>2026-05-01T15:53:43Z</time></trkpt><trkpt lat="40.995020148733225" lon="9.010877481411162"><ele>413.5</ele><time>2026-05-01T15:53:44Z</time></trkpt><trkpt lat="40.995059951411356" lon="9.010726934105827"><ele>414.0</ele><time>2026-05-01T15:53:45Z</time></trkpt><trkpt lat="40.99515941044997" lon="9.010481912701623"><ele>414.5</ele><time>2026-05-01T15:53:47Z</time></trkpt><trkpt lat="40.99524438778338" lon="9.010416748735315"><ele>415.0</ele><time>2026-05-01T15:53:48Z</time></trkpt><trkpt lat="40.99534190951996" lon="9.010409215163689"><ele>415.0</ele><time>2026-05-01T15:53:49Z</time></trkpt><trkpt lat="40.99545400089354" lon="9.010448244983008"><ele>415.0</ele><time>2026-05-01T15:53:50Z</time></trkpt><trkpt lat="40.99557309453965" lon="9.010519830572026"><ele>415.0</ele><time>2026-05-01T15:53:51Z</time></trkpt><trkpt lat="40.99571565064609" lon="9.010719532256982"><ele>407.6666666666667</ele><time>2026-05-01T15:53:52Z</time></trkpt><trkpt lat="40.9958607523307" lon="9.010825809891495"><ele>400.33333333333337</ele><time>2026-05-01T15:53:53Z</time></trkpt><trkpt lat="40.996015669171044" lon="9.01097397669567"><ele>393.0</ele><time>2026-05-01T15:53:54Z</time></trkpt><trkpt lat="40.99605380658256" lon="9.010721522506735"><ele>392.75</ele><time>2026-05-01T15:53:55Z</time></trkpt><trkpt lat="40.99617005923847" lon="9.010669791695678"><ele>392.5</ele><time>2026-05-01T15:53:56Z</time></trkpt><trkpt lat="40.996275480162446" lon="9.010579320721847"><ele>392.25</ele><time>2026-05-01T15:53:57Z</time></trkpt><trkpt lat="40.996360669989265" lon="9.010469809792747"><ele>392.0</ele><time>2026-05-01T15:53:58Z</time></trkpt><trkpt lat="40.99641251290733" lon="9.01033564165918"><ele>392.0</ele><time>2026-05-01T15:53:59Z</time></trkpt><trkpt lat="40.996428903956755" lon="9.010158113861834"><ele>392.0</ele><time>2026-05-01T15:54:00Z</time></trkpt><trkpt lat="40.99640559359412" lon="9.009978567739772"><ele>392.0</ele><time>2026-05-01T15:54:01Z</time></trkpt><trkpt lat="40.996373285309254" lon="9.009792883951611"><ele>392.0</ele><time>2026-05-01T15:54:02Z</time></trkpt><trkpt lat="40.99634533559356" lon="9.00960871232671"><ele>392.8</ele><time>2026-05-01T15:54:03Z</time></trkpt><trkpt lat="40.99632440852567" lon="9.009448106733107"><ele>393.6</ele><time>2026-05-01T15:54:04Z</time></trkpt><trkpt lat="40.99630030541627" lon="9.009306070311709"><ele>394.40000000000003</ele><time>2026-05-01T15:54:05Z</time></trkpt><trkpt lat="40.996278596412594" lon="9.009177874204338"><ele>395.20000000000005</ele><time>2026-05-01T15:54:06Z</time></trkpt><trkpt lat="40.99625971005294" lon="9.009048654042857"><ele>396.0</ele><time>2026-05-01T15:54:07Z</time></trkpt><trkpt lat="40.99624377563215" lon="9.008949426070421"><ele>396.6</ele><time>2026-05-01T15:54:08Z</time></trkpt><trkpt lat="40.99623725321081" lon="9.008865933752821"><ele>397.20000000000005</ele><time>2026-05-01T15:54:09Z</time></trkpt><trkpt lat="40.99629564732503" lon="9.008770746549391"><ele>397.79999999999995</ele><time>2026-05-01T15:54:11Z</time></trkpt><trkpt lat="40.996405001079715" lon="9.008853050903038"><ele>398.4</ele><time>2026-05-01T15:54:13Z</time></trkpt><trkpt lat="40.996451338354305" lon="9.008954288053024"><ele>399.0</ele><time>2026-05-01T15:54:14Z</time></trkpt><trkpt lat="40.99651693199254" lon="9.00907738646339"><ele>399.5</ele><time>2026-05-01T15:54:15Z</time></trkpt><trkpt lat="40.996612834679404" lon="9.009202409108383"><ele>400.0</ele><time>2026-05-01T15:54:16Z</time></trkpt><trkpt lat="40.996736205388515" lon="9.009363990220217"><ele>400.5</ele><time>2026-05-01T15:54:17Z</time></trkpt><trkpt lat="40.99683065520968" lon="9.009472693996306"><ele>401.0</ele><time>2026-05-01T15:54:18Z</time></trkpt><trkpt lat="40.99691034502545" lon="9.009549600443727"><ele>401.0</ele><time>2026-05-01T15:54:19Z</time></trkpt><trkpt lat="40.99698479192205" lon="9.009635010701466"><ele>401.0</ele><time>2026-05-01T15:54:20Z</time></trkpt><trkpt lat="40.99703724345314" lon="9.009751322816488"><ele>401.0</ele><time>2026-05-01T15:54:21Z</time></trkpt><trkpt lat="40.99707124355816" lon="9.009862111199388"><ele>401.0</ele><time>2026-05-01T15:54:22Z</time></trkpt><trkpt lat="40.997105909764585" lon="9.009970593084546"><ele>401.0</ele><time>2026-05-01T15:54:23Z</time></trkpt><trkpt lat="40.997153668193846" lon="9.010062270451677"><ele>398.49999999999994</ele><time>2026-05-01T15:54:24Z</time></trkpt><trkpt lat="40.997213586665616" lon="9.01014327383541"><ele>396.0</ele><time>2026-05-01T15:54:25Z</time></trkpt><trkpt lat="40.9972820641631" lon="9.010210664629808"><ele>393.5</ele><time>2026-05-01T15:54:26Z</time></trkpt><trkpt lat="40.99735660815347" lon="9.010286944296144"><ele>391.0</ele><time>2026-05-01T15:54:27Z</time></trkpt><trkpt lat="40.99740734166047" lon="9.010381051981787"><ele>388.49999999999994</ele><time>2026-05-01T15:54:28Z</time></trkpt><trkpt lat="40.997424936563945" lon="9.010488377885354"><ele>386.0</ele><time>2026-05-01T15:54:29Z</time></trkpt><trkpt lat="40.99742649353611" lon="9.010593444121326"><ele>385.99999999999994</ele><time>2026-05-01T15:54:30Z</time></trkpt><trkpt lat="40.997459011728694" lon="9.010669777885028"><ele>386.0</ele><time>2026-05-01T15:54:31Z</time></trkpt><trkpt lat="40.99751668813253" lon="9.010716172887689"><ele>386.0</ele><time>2026-05-01T15:54:32Z</time></trkpt><trkpt lat="40.997601201505475" lon="9.010741518325133"><ele>386.0</ele><time>2026-05-01T15:54:33Z</time></trkpt><trkpt lat="40.99770131618894" lon="9.01077663069441"><ele>385.99999999999994</ele><time>2026-05-01T15:54:34Z</time></trkpt><trkpt lat="40.997814544286314" lon="9.010829767421331"><ele>386.0</ele><time>2026-05-01T15:54:35Z</time></trkpt><trkpt lat="40.99794337762953" lon="9.010899352130641"><ele>384.75</ele><time>2026-05-01T15:54:36Z</time></trkpt><trkpt lat="40.99808051275726" lon="9.01095692691553"><ele>383.5</ele><time>2026-05-01T15:54:37Z</time></trkpt><trkpt lat="40.998219041372046" lon="9.011011166782493"><ele>382.25</ele><time>2026-05-01T15:54:38Z</time></trkpt><trkpt lat="40.998347338969864" lon="9.011071305365768"><ele>381.0</ele><time>2026-05-01T15:54:39Z</time></trkpt><trkpt lat="40.99846839873136" lon="9.011128555164202"><ele>381.0</ele><time>2026-05-01T15:54:40Z</time></trkpt><trkpt lat="40.998590890943156" lon="9.011168179247717"><ele>381.0</ele><time>2026-05-01T15:54:41Z</time></trkpt><trkpt lat="40.99871827813831" lon="9.011194732763842"><ele>381.0</ele><time>2026-05-01T15:54:42Z</time></trkpt><trkpt lat="40.99884855041402" lon="9.011242663887653"><ele>381.0</ele><time>2026-05-01T15:54:43Z</time></trkpt><trkpt lat="40.99896917975377" lon="9.011340701697243"><ele>381.0</ele><time>2026-05-01T15:54:44Z</time></trkpt><trkpt lat="40.999079778245225" lon="9.011465987773908"><ele>381.0</ele><time>2026-05-01T15:54:45Z</time></trkpt><trkpt lat="40.99918628251685" lon="9.011616519466534"><ele>381.0</ele><time>2026-05-01T15:54:46Z</time></trkpt><trkpt lat="40.999295044844665" lon="9.011752001376305"><ele>378.75</ele><time>2026-05-01T15:54:47Z</time></trkpt><trkpt lat="40.999401905829856" lon="9.011856159247134"><ele>376.5</ele><time>2026-05-01T15:54:48Z</time></trkpt><trkpt lat="40.99950806748092" lon="9.011936010675253"><ele>374.25</ele><time>2026-05-01T15:54:49Z</time></trkpt><trkpt lat="40.99962111148589" lon="9.011988663657334"><ele>372.0</ele><time>2026-05-01T15:54:50Z</time></trkpt><trkpt lat="40.99975405653236" lon="9.011975179462414"><ele>372.0</ele><time>2026-05-01T15:54:51Z</time></trkpt><trkpt lat="40.99989546053488" lon="9.011928850530188"><ele>372.0</ele><time>2026-05-01T15:54:52Z</time></trkpt><trkpt lat="41.000042715691464" lon="9.011887596880136"><ele>372.0</ele><time>2026-05-01T15:54:53Z</time></trkpt><trkpt lat="41.000186450240186" lon="9.011888654959744"><ele>372.0</ele><time>2026-05-01T15:54:54Z</time></trkpt><trkpt lat="41.00034460359108" lon="9.011927763633325"><ele>372.0</ele><time>2026-05-01T15:54:55Z</time></trkpt><trkpt lat="41.00048927143539" lon="9.011989070812069"><ele>372.0</ele><time>2026-05-01T15:54:56Z</time></trkpt><trkpt lat="41.000620145415766" lon="9.012049219220957"><ele>372.0</ele><time>2026-05-01T15:54:57Z</time></trkpt><trkpt lat="41.00074731268338" lon="9.012092638575453"><ele>372.0</ele><time>2026-05-01T15:54:58Z</time></trkpt><trkpt lat="41.000868032945974" lon="9.012110572392949"><ele>370.75</ele><time>2026-05-01T15:54:59Z</time></trkpt><trkpt lat="41.000975422745924" lon="9.01209096222196"><ele>369.5</ele><time>2026-05-01T15:55:00Z</time></trkpt><trkpt lat="41.00106983842361" lon="9.012023399466353"><ele>368.25</ele><time>2026-05-01T15:55:01Z</time></trkpt><trkpt lat="41.00117898766037" lon="9.01192403557504"><ele>367.0</ele><time>2026-05-01T15:55:02Z</time></trkpt><trkpt lat="41.001297092817374" lon="9.011831788304356"><ele>367.0</ele><time>2026-05-01T15:55:03Z</time></trkpt><trkpt lat="41.00143843011105" lon="9.011732750955664"><ele>367.0</ele><time>2026-05-01T15:55:04Z</time></trkpt><trkpt lat="41.00158142190752" lon="9.011655378355307"><ele>367.0</ele><time>2026-05-01T15:55:05Z</time></trkpt><trkpt lat="41.00171906011804" lon="9.011593097312065"><ele>368.5</ele><time>2026-05-01T15:55:06Z</time></trkpt><trkpt lat="41.001840488999896" lon="9.011530023219242"><ele>370.0</ele><time>2026-05-01T15:55:07Z</time></trkpt><trkpt lat="41.00194555496704" lon="9.011471449888711"><ele>371.5</ele><time>2026-05-01T15:55:08Z</time></trkpt><trkpt lat="41.002053322162475" lon="9.011396438817748"><ele>373.0</ele><time>2026-05-01T15:55:09Z</time></trkpt><trkpt lat="41.0021647253479" lon="9.011304075718865"><ele>373.0</ele><time>2026-05-01T15:55:10Z</time></trkpt><trkpt lat="41.002278667219315" lon="9.011183524279513"><ele>373.0</ele><time>2026-05-01T15:55:11Z</time></trkpt><trkpt lat="41.002408613372495" lon="9.011047693424056"><ele>373.0</ele><time>2026-05-01T15:55:12Z</time></trkpt><trkpt lat="41.002570504940536" lon="9.01092581920207"><ele>371.3333333333333</ele><time>2026-05-01T15:55:13Z</time></trkpt><trkpt lat="41.00274352682805" lon="9.010820603707327"><ele>369.6666666666667</ele><time>2026-05-01T15:55:14Z</time></trkpt><trkpt lat="41.002901208428284" lon="9.010743059475823"><ele>368.0</ele><time>2026-05-01T15:55:15Z</time></trkpt><trkpt lat="41.00302627484984" lon="9.010647216868591"><ele>368.0</ele><time>2026-05-01T15:55:16Z</time></trkpt><trkpt lat="41.00314051237073" lon="9.010509216485127"><ele>368.0</ele><time>2026-05-01T15:55:17Z</time></trkpt><trkpt lat="41.003238078563356" lon="9.010367377022535"><ele>368.0</ele><time>2026-05-01T15:55:18Z</time></trkpt><trkpt lat="41.00332620808241" lon="9.010192554467778"><ele>363.6666666666667</ele><time>2026-05-01T15:55:19Z</time></trkpt><trkpt lat="41.003417138750486" lon="9.010000045285386"><ele>359.3333333333333</ele><time>2026-05-01T15:55:20Z</time></trkpt><trkpt lat="41.003516620515214" lon="9.00980383187543"><ele>355.0</ele><time>2026-05-01T15:55:21Z</time></trkpt><trkpt lat="41.00362563533779" lon="9.009632269445481"><ele>354.75</ele><time>2026-05-01T15:55:22Z</time></trkpt><trkpt lat="41.00373234655302" lon="9.009489742648292"><ele>354.5</ele><time>2026-05-01T15:55:23Z</time></trkpt><trkpt lat="41.00382508254181" lon="9.009350489348304"><ele>354.25</ele><time>2026-05-01T15:55:24Z</time></trkpt><trkpt lat="41.0038936275108" lon="9.00920106440036"><ele>354.0</ele><time>2026-05-01T15:55:25Z</time></trkpt><trkpt lat="41.00394458962003" lon="9.00903616419547"><ele>354.0</ele><time>2026-05-01T15:55:26Z</time></trkpt><trkpt lat="41.00398664389302" lon="9.008855572326432"><ele>354.0</ele><time>2026-05-01T15:55:27Z</time></trkpt><trkpt lat="41.0040433395563" lon="9.008687028526198"><ele>354.0</ele><time>2026-05-01T15:55:28Z</time></trkpt><trkpt lat="41.0041218446126" lon="9.008609454452996"><ele>354.0</ele><time>2026-05-01T15:55:29Z</time></trkpt><trkpt lat="41.00423379704665" lon="9.008545573293297"><ele>354.0</ele><time>2026-05-01T15:55:30Z</time></trkpt><trkpt lat="41.00436615045712" lon="9.008503995673461"><ele>354.0</ele><time>2026-05-01T15:55:31Z</time></trkpt><trkpt lat="41.00449136443652" lon="9.00845472479663"><ele>354.0</ele><time>2026-05-01T15:55:32Z</time></trkpt><trkpt lat="41.00461773227191" lon="9.008394782408711"><ele>354.0</ele><time>2026-05-01T15:55:33Z</time></trkpt><trkpt lat="41.00474999765305" lon="9.008341385365744"><ele>353.75</ele><time>2026-05-01T15:55:34Z</time></trkpt><trkpt lat="41.00486244026892" lon="9.0082877300489"><ele>353.5</ele><time>2026-05-01T15:55:35Z</time></trkpt><trkpt lat="41.004968457455405" lon="9.008186874183883"><ele>353.25</ele><time>2026-05-01T15:55:36Z</time></trkpt><trkpt lat="41.00505701627133" lon="9.0080567131633"><ele>353.0</ele><time>2026-05-01T15:55:37Z</time></trkpt><trkpt lat="41.005167674974956" lon="9.007969798332928"><ele>351.6666666666667</ele><time>2026-05-01T15:55:38Z</time></trkpt><trkpt lat="41.00531234378321" lon="9.007920269489484"><ele>350.3333333333333</ele><time>2026-05-01T15:55:39Z</time></trkpt><trkpt lat="41.005463746838814" lon="9.007875909204015"><ele>349.0</ele><time>2026-05-01T15:55:40Z</time></trkpt><trkpt lat="41.00563957418294" lon="9.007794607580216"><ele>349.0</ele><time>2026-05-01T15:55:41Z</time></trkpt><trkpt lat="41.005794597524456" lon="9.007702433457085"><ele>349.0</ele><time>2026-05-01T15:55:42Z</time></trkpt><trkpt lat="41.00595073237577" lon="9.007617946346642"><ele>349.0</ele><time>2026-05-01T15:55:43Z</time></trkpt><trkpt lat="41.006089062491235" lon="9.007500647425383"><ele>348.66666666666663</ele><time>2026-05-01T15:55:44Z</time></trkpt><trkpt lat="41.00622372329276" lon="9.00740529822353"><ele>348.3333333333333</ele><time>2026-05-01T15:55:45Z</time></trkpt><trkpt lat="41.00636096424717" lon="9.007346860471923"><ele>348.0</ele><time>2026-05-01T15:55:46Z</time></trkpt><trkpt lat="41.00651580076918" lon="9.007319869557193"><ele>350.6666666666667</ele><time>2026-05-01T15:55:47Z</time></trkpt><trkpt lat="41.006699181804464" lon="9.007302015010849"><ele>353.33333333333337</ele><time>2026-05-01T15:55:48Z</time></trkpt><trkpt lat="41.00689870515047" lon="9.007270770007041"><ele>356.0</ele><time>2026-05-01T15:55:49Z</time></trkpt><trkpt lat="41.0070622335135" lon="9.007241636154928"><ele>356.0</ele><time>2026-05-01T15:55:50Z</time></trkpt><trkpt lat="41.00719627241461" lon="9.007212060212936"><ele>356.0</ele><time>2026-05-01T15:55:51Z</time></trkpt><trkpt lat="41.007316144632135" lon="9.007185007342047"><ele>356.0</ele><time>2026-05-01T15:55:52Z</time></trkpt><trkpt lat="41.00743067943395" lon="9.007156180697853"><ele>356.0</ele><time>2026-05-01T15:55:53Z</time></trkpt><trkpt lat="41.00754746225144" lon="9.007117145569964"><ele>359.25</ele><time>2026-05-01T15:55:54Z</time></trkpt><trkpt lat="41.00767555613433" lon="9.007068376439575"><ele>362.5</ele><time>2026-05-01T15:55:55Z</time></trkpt><trkpt lat="41.00781111940085" lon="9.006988686113747"><ele>365.75</ele><time>2026-05-01T15:55:56Z</time></trkpt><trkpt lat="41.00793891274043" lon="9.006881671483766"><ele>369.0</ele><time>2026-05-01T15:55:57Z</time></trkpt><trkpt lat="41.0080400800044" lon="9.006771361940338"><ele>369.0</ele><time>2026-05-01T15:55:58Z</time></trkpt><trkpt lat="41.00813248191051" lon="9.006693260560398"><ele>369.0</ele><time>2026-05-01T15:55:59Z</time></trkpt><trkpt lat="41.008217399709565" lon="9.006668652785446"><ele>369.0</ele><time>2026-05-01T15:56:00Z</time></trkpt><trkpt lat="41.00830265824645" lon="9.006691917767174"><ele>369.0</ele><time>2026-05-01T15:56:01Z</time></trkpt><trkpt lat="41.00837804875165" lon="9.006776567060356"><ele>369.0</ele><time>2026-05-01T15:56:02Z</time></trkpt><trkpt lat="41.008455310334284" lon="9.006905483771819"><ele>366.75</ele><time>2026-05-01T15:56:03Z</time></trkpt><trkpt lat="41.00854265844754" lon="9.007059926457307"><ele>364.5</ele><time>2026-05-01T15:56:04Z</time></trkpt><trkpt lat="41.00863324401173" lon="9.007199226683898"><ele>362.25</ele><time>2026-05-01T15:56:05Z</time></trkpt><trkpt lat="41.00874327796067" lon="9.007317454027996"><ele>360.0</ele><time>2026-05-01T15:56:06Z</time></trkpt><trkpt lat="41.00887083801255" lon="9.0073982478501"><ele>360.0</ele><time>2026-05-01T15:56:07Z</time></trkpt><trkpt lat="41.009005278923" lon="9.00744182106373"><ele>360.0</ele><time>2026-05-01T15:56:08Z</time></trkpt><trkpt lat="41.009140253227415" lon="9.00746491932175"><ele>360.0</ele><time>2026-05-01T15:56:09Z</time></trkpt><trkpt lat="41.0092593821133" lon="9.007468853775293"><ele>360.0</ele><time>2026-05-01T15:56:10Z</time></trkpt><trkpt lat="41.00936651944512" lon="9.007452775863232"><ele>356.5</ele><time>2026-05-01T15:56:11Z</time></trkpt><trkpt lat="41.00947210294934" lon="9.007398443271429"><ele>353.0</ele><time>2026-05-01T15:56:12Z</time></trkpt><trkpt lat="41.009576223768065" lon="9.007304040295136"><ele>349.5</ele><time>2026-05-01T15:56:13Z</time></trkpt><trkpt lat="41.00967292720035" lon="9.007183639297098"><ele>346.0</ele><time>2026-05-01T15:56:14Z</time></trkpt><trkpt lat="41.009755318372946" lon="9.00705241034482"><ele>346.0</ele><time>2026-05-01T15:56:15Z</time></trkpt><trkpt lat="41.0097928410522" lon="9.006899866300616"><ele>346.0</ele><time>2026-05-01T15:56:16Z</time></trkpt><trkpt lat="41.009823157324746" lon="9.006725792272695"><ele>346.0</ele><time>2026-05-01T15:56:17Z</time></trkpt><trkpt lat="41.00987353125286" lon="9.00654028716585"><ele>346.0</ele><time>2026-05-01T15:56:18Z</time></trkpt><trkpt lat="41.009915458431244" lon="9.006401817387772"><ele>346.0</ele><time>2026-05-01T15:56:19Z</time></trkpt><trkpt lat="41.00995263286357" lon="9.006294647749934"><ele>346.0</ele><time>2026-05-01T15:56:20Z</time></trkpt><trkpt lat="41.010005842776465" lon="9.006236824833785"><ele>346.0</ele><time>2026-05-01T15:56:21Z</time></trkpt><trkpt lat="41.01008029515532" lon="9.006212047438316"><ele>346.0</ele><time>2026-05-01T15:56:22Z</time></trkpt><trkpt lat="41.01015040543159" lon="9.006186546955828"><ele>346.0</ele><time>2026-05-01T15:56:23Z</time></trkpt><trkpt lat="41.010258777330655" lon="9.006175886732457"><ele>346.0</ele><time>2026-05-01T15:56:24Z</time></trkpt><trkpt lat="41.010375449698756" lon="9.006146392633488"><ele>343.25</ele><time>2026-05-01T15:56:25Z</time></trkpt><trkpt lat="41.01050266026486" lon="9.006085384682285"><ele>340.5</ele><time>2026-05-01T15:56:26Z</time></trkpt><trkpt lat="41.010623359335746" lon="9.005984808106346"><ele>337.75</ele><time>2026-05-01T15:56:27Z</time></trkpt><trkpt lat="41.0107281143069" lon="9.005879138929576"><ele>335.0</ele><time>2026-05-01T15:56:28Z</time></trkpt><trkpt lat="41.010834435320774" lon="9.00576700140453"><ele>334.0</ele><time>2026-05-01T15:56:29Z</time></trkpt><trkpt lat="41.01092980376437" lon="9.005686319221235"><ele>333.0</ele><time>2026-05-01T15:56:30Z</time></trkpt><trkpt lat="41.01101249183277" lon="9.005655325496225"><ele>332.0</ele><time>2026-05-01T15:56:31Z</time></trkpt><trkpt lat="41.01110180863457" lon="9.00565310610868"><ele>331.0</ele><time>2026-05-01T15:56:32Z</time></trkpt><trkpt lat="41.01120655738783" lon="9.005653496979427"><ele>330.0</ele><time>2026-05-01T15:56:33Z</time></trkpt><trkpt lat="41.01132383121372" lon="9.005621611611478"><ele>330.0</ele><time>2026-05-01T15:56:34Z</time></trkpt><trkpt lat="41.01143331453937" lon="9.005552437151104"><ele>330.0</ele><time>2026-05-01T15:56:35Z</time></trkpt><trkpt lat="41.01152065866983" lon="9.005452548308124"><ele>330.0</ele><time>2026-05-01T15:56:36Z</time></trkpt><trkpt lat="41.0115937840299" lon="9.005313726336896"><ele>330.0</ele><time>2026-05-01T15:56:37Z</time></trkpt><trkpt lat="41.01166387597549" lon="9.005153139876752"><ele>327.0</ele><time>2026-05-01T15:56:38Z</time></trkpt><trkpt lat="41.011738624880394" lon="9.004969140903551"><ele>324.0</ele><time>2026-05-01T15:56:39Z</time></trkpt><trkpt lat="41.01180899245657" lon="9.004781308536451"><ele>321.0</ele><time>2026-05-01T15:56:40Z</time></trkpt><trkpt lat="41.011879587565076" lon="9.004600303472165"><ele>321.0</ele><time>2026-05-01T15:56:41Z</time></trkpt><trkpt lat="41.01195317584745" lon="9.004431993201402"><ele>321.0</ele><time>2026-05-01T15:56:42Z</time></trkpt><trkpt lat="41.01204217789804" lon="9.00425913102293"><ele>321.0</ele><time>2026-05-01T15:56:43Z</time></trkpt><trkpt lat="41.0121429969108" lon="9.004083224516172"><ele>319.3333333333333</ele><time>2026-05-01T15:56:44Z</time></trkpt><trkpt lat="41.0122445015619" lon="9.003910392101485"><ele>317.66666666666663</ele><time>2026-05-01T15:56:45Z</time></trkpt><trkpt lat="41.012344608100435" lon="9.003740103576442"><ele>316.0</ele><time>2026-05-01T15:56:46Z</time></trkpt><trkpt lat="41.012444224022516" lon="9.003581856543706"><ele>312.5</ele><time>2026-05-01T15:56:47Z</time></trkpt><trkpt lat="41.01254423339772" lon="9.00343928634131"><ele>309.0</ele><time>2026-05-01T15:56:48Z</time></trkpt><trkpt lat="41.0126445836523" lon="9.003312475823915"><ele>305.5</ele><time>2026-05-01T15:56:49Z</time></trkpt><trkpt lat="41.01274035933" lon="9.003189065887115"><ele>302.0</ele><time>2026-05-01T15:56:50Z</time></trkpt><trkpt lat="41.01282763423178" lon="9.003079400475947"><ele>301.4</ele><time>2026-05-01T15:56:51Z</time></trkpt><trkpt lat="41.01290858445879" lon="9.002976886149078"><ele>300.79999999999995</ele><time>2026-05-01T15:56:52Z</time></trkpt><trkpt lat="41.01299211357027" lon="9.002893054571272"><ele>300.2</ele><time>2026-05-01T15:56:53Z</time></trkpt><trkpt lat="41.01307300747091" lon="9.00283061703291"><ele>299.59999999999997</ele><time>2026-05-01T15:56:54Z</time></trkpt><trkpt lat="41.0131633405462" lon="9.002779572170576"><ele>299.0</ele><time>2026-05-01T15:56:55Z</time></trkpt><trkpt lat="41.013281113467805" lon="9.002727959330912"><ele>298.5</ele><time>2026-05-01T15:56:56Z</time></trkpt><trkpt lat="41.01341036649215" lon="9.002676999722551"><ele>298.0</ele><time>2026-05-01T15:56:57Z</time></trkpt><trkpt lat="41.0135547170156" lon="9.002637666608315"><ele>297.5</ele><time>2026-05-01T15:56:58Z</time></trkpt><trkpt lat="41.01370869084037" lon="9.002595492147723"><ele>297.0</ele><time>2026-05-01T15:56:59Z</time></trkpt><trkpt lat="41.01385600084707" lon="9.00256037071177"><ele>297.0</ele><time>2026-05-01T15:57:00Z</time></trkpt><trkpt lat="41.01398831801035" lon="9.002507032272536"><ele>297.0</ele><time>2026-05-01T15:57:01Z</time></trkpt><trkpt lat="41.01411239044453" lon="9.002429786578004"><ele>297.0</ele><time>2026-05-01T15:57:02Z</time></trkpt><trkpt lat="41.01422080034955" lon="9.002320577562843"><ele>297.0</ele><time>2026-05-01T15:57:03Z</time></trkpt><trkpt lat="41.01432981975044" lon="9.00220012595426"><ele>295.75</ele><time>2026-05-01T15:57:04Z</time></trkpt><trkpt lat="41.01445042409157" lon="9.00209029393684"><ele>294.5</ele><time>2026-05-01T15:57:05Z</time></trkpt><trkpt lat="41.01457573911261" lon="9.00200417507217"><ele>293.25</ele><time>2026-05-01T15:57:06Z</time></trkpt><trkpt lat="41.01471102421903" lon="9.001945593342022"><ele>292.0</ele><time>2026-05-01T15:57:07Z</time></trkpt><trkpt lat="41.01484101604273" lon="9.001959188554757"><ele>292.0</ele><time>2026-05-01T15:57:08Z</time></trkpt><trkpt lat="41.014966392223855" lon="9.001990990897436"><ele>292.0</ele><time>2026-05-01T15:57:09Z</time></trkpt><trkpt lat="41.01508617989515" lon="9.002056412054436"><ele>292.0</ele><time>2026-05-01T15:57:10Z</time></trkpt><trkpt lat="41.01519049438581" lon="9.002142040239843"><ele>292.0</ele><time>2026-05-01T15:57:11Z</time></trkpt><trkpt lat="41.015302745441474" lon="9.002194856551624"><ele>291.5</ele><time>2026-05-01T15:57:12Z</time></trkpt><trkpt lat="41.01542711035741" lon="9.00217443813841"><ele>291.0</ele><time>2026-05-01T15:57:13Z</time></trkpt><trkpt lat="41.0155481051306" lon="9.00213989821127"><ele>290.5</ele><time>2026-05-01T15:57:14Z</time></trkpt><trkpt lat="41.01565739581873" lon="9.002110902842423"><ele>290.0</ele><time>2026-05-01T15:57:15Z</time></trkpt><trkpt lat="41.01576031187926" lon="9.00211266812151"><ele>288.5</ele><time>2026-05-01T15:57:16Z</time></trkpt><trkpt lat="41.01586633111656" lon="9.002142254147989"><ele>287.0</ele><time>2026-05-01T15:57:17Z</time></trkpt><trkpt lat="41.01597141861033" lon="9.002156303747727"><ele>285.5</ele><time>2026-05-01T15:57:18Z</time></trkpt><trkpt lat="41.01608870113078" lon="9.002146456679942"><ele>284.0</ele><time>2026-05-01T15:57:19Z</time></trkpt><trkpt lat="41.01621396603051" lon="9.002145875466676"><ele>284.0</ele><time>2026-05-01T15:57:20Z</time></trkpt><trkpt lat="41.01633050043775" lon="9.002176845257365"><ele>284.0</ele><time>2026-05-01T15:57:21Z</time></trkpt><trkpt lat="41.016436075450876" lon="9.002217798829957"><ele>284.0</ele><time>2026-05-01T15:57:22Z</time></trkpt><trkpt lat="41.01653538276038" lon="9.00224441332468"><ele>284.0</ele><time>2026-05-01T15:57:23Z</time></trkpt><trkpt lat="41.016623494640456" lon="9.00224068156222"><ele>284.0</ele><time>2026-05-01T15:57:24Z</time></trkpt><trkpt lat="41.01670986757053" lon="9.002190786872097"><ele>283.8</ele><time>2026-05-01T15:57:25Z</time></trkpt><trkpt lat="41.016792300832634" lon="9.002110199921946"><ele>283.59999999999997</ele><time>2026-05-01T15:57:26Z</time></trkpt><trkpt lat="41.016868501690396" lon="9.002043469457337"><ele>283.4</ele><time>2026-05-01T15:57:27Z</time></trkpt><trkpt lat="41.016958159737214" lon="9.002014850286404"><ele>283.2</ele><time>2026-05-01T15:57:28Z</time></trkpt><trkpt lat="41.017083323756594" lon="9.002029942960066"><ele>283.0</ele><time>2026-05-01T15:57:29Z</time></trkpt><trkpt lat="41.01721542205401" lon="9.0020338829216"><ele>283.0</ele><time>2026-05-01T15:57:30Z</time></trkpt><trkpt lat="41.01734544300543" lon="9.002041204047087"><ele>283.0</ele><time>2026-05-01T15:57:31Z</time></trkpt><trkpt lat="41.01746226851288" lon="9.00204102686784"><ele>283.0</ele><time>2026-05-01T15:57:32Z</time></trkpt><trkpt lat="41.01757439681645" lon="9.00202538929472"><ele>283.0</ele><time>2026-05-01T15:57:33Z</time></trkpt><trkpt lat="41.01769984408327" lon="9.001977584034513"><ele>282.0</ele><time>2026-05-01T15:57:34Z</time></trkpt><trkpt lat="41.01783422613021" lon="9.001909025713788"><ele>281.0</ele><time>2026-05-01T15:57:35Z</time></trkpt><trkpt lat="41.017970628051486" lon="9.001818404712385"><ele>280.0</ele><time>2026-05-01T15:57:36Z</time></trkpt><trkpt lat="41.01809590404494" lon="9.001731597351446"><ele>279.0</ele><time>2026-05-01T15:57:37Z</time></trkpt><trkpt lat="41.018210388432365" lon="9.001664860822295"><ele>276.25</ele><time>2026-05-01T15:57:38Z</time></trkpt><trkpt lat="41.01832648727855" lon="9.001630494314318"><ele>273.5</ele><time>2026-05-01T15:57:39Z</time></trkpt><trkpt lat="41.01845387247188" lon="9.001604509156527"><ele>270.75</ele><time>2026-05-01T15:57:40Z</time></trkpt><trkpt lat="41.01858259135902" lon="9.001572773663476"><ele>268.0</ele><time>2026-05-01T15:57:41Z</time></trkpt><trkpt lat="41.018711820642864" lon="9.001530842008265"><ele>268.0</ele><time>2026-05-01T15:57:42Z</time></trkpt><trkpt lat="41.018828504492426" lon="9.001481351614743"><ele>268.0</ele><time>2026-05-01T15:57:43Z</time></trkpt><trkpt lat="41.01893841883501" lon="9.001416962705008"><ele>268.0</ele><time>2026-05-01T15:57:44Z</time></trkpt><trkpt lat="41.01903956033851" lon="9.001327605970918"><ele>268.0</ele><time>2026-05-01T15:57:45Z</time></trkpt><trkpt lat="41.0191448693364" lon="9.001214620132611"><ele>264.5</ele><time>2026-05-01T15:57:46Z</time></trkpt><trkpt lat="41.01923618279894" lon="9.001077969997148"><ele>261.0</ele><time>2026-05-01T15:57:47Z</time></trkpt><trkpt lat="41.01931207282567" lon="9.000942179903499"><ele>257.5</ele><time>2026-05-01T15:57:48Z</time></trkpt><trkpt lat="41.01937897945441" lon="9.00081763942483"><ele>254.0</ele><time>2026-05-01T15:57:49Z</time></trkpt><trkpt lat="41.01943455333847" lon="9.00073383804529"><ele>254.0</ele><time>2026-05-01T15:57:50Z</time></trkpt><trkpt lat="41.01954403529586" lon="9.000671798822875"><ele>253.99999999999997</ele><time>2026-05-01T15:57:52Z</time></trkpt><trkpt lat="41.01961668353379" lon="9.000663220934781"><ele>253.99999999999997</ele><time>2026-05-01T15:57:53Z</time></trkpt><trkpt lat="41.019712293887345" lon="9.000632145352895"><ele>254.0</ele><time>2026-05-01T15:57:54Z</time></trkpt><trkpt lat="41.01983735987765" lon="9.00059227223285"><ele>254.0</ele><time>2026-05-01T15:57:55Z</time></trkpt><trkpt lat="41.019968162657904" lon="9.000534213006066"><ele>252.5</ele><time>2026-05-01T15:57:56Z</time></trkpt><trkpt lat="41.02008611179932" lon="9.00046611289768"><ele>251.0</ele><time>2026-05-01T15:57:57Z</time></trkpt><trkpt lat="41.02019148010558" lon="9.00036222340357"><ele>249.5</ele><time>2026-05-01T15:57:58Z</time></trkpt><trkpt lat="41.0202927982553" lon="9.00021867064362"><ele>248.0</ele><time>2026-05-01T15:57:59Z</time></trkpt><trkpt lat="41.02039168119509" lon="9.000055100995574"><ele>248.0</ele><time>2026-05-01T15:58:00Z</time></trkpt><trkpt lat="41.02046613743584" lon="8.99989344078013"><ele>248.0</ele><time>2026-05-01T15:58:01Z</time></trkpt><trkpt lat="41.02050141795696" lon="8.999717872278891"><ele>248.0</ele><time>2026-05-01T15:58:02Z</time></trkpt><trkpt lat="41.02052047305149" lon="8.999509707986956"><ele>248.0</ele><time>2026-05-01T15:58:03Z</time></trkpt><trkpt lat="41.02055590332413" lon="8.999289689706083"><ele>248.0</ele><time>2026-05-01T15:58:04Z</time></trkpt><trkpt lat="41.02060674511811" lon="8.99906846928151"><ele>248.0</ele><time>2026-05-01T15:58:05Z</time></trkpt><trkpt lat="41.020661677260335" lon="8.998869016035277"><ele>248.0</ele><time>2026-05-01T15:58:06Z</time></trkpt><trkpt lat="41.0207245991582" lon="8.99869744424458"><ele>248.0</ele><time>2026-05-01T15:58:07Z</time></trkpt><trkpt lat="41.020799988827854" lon="8.998534160234644"><ele>248.0</ele><time>2026-05-01T15:58:08Z</time></trkpt><trkpt lat="41.020881011642274" lon="8.998382449125478"><ele>248.0</ele><time>2026-05-01T15:58:09Z</time></trkpt><trkpt lat="41.02094993512109" lon="8.99824470315674"><ele>248.0</ele><time>2026-05-01T15:58:10Z</time></trkpt><trkpt lat="41.02100844682445" lon="8.998128121389998"><ele>249.4</ele><time>2026-05-01T15:58:11Z</time></trkpt><trkpt lat="41.02106364538471" lon="8.998023249240308"><ele>250.8</ele><time>2026-05-01T15:58:12Z</time></trkpt><trkpt lat="41.02117230145425" lon="8.997957641628743"><ele>252.2</ele><time>2026-05-01T15:58:14Z</time></trkpt><trkpt lat="41.02125350233899" lon="8.997949069150673"><ele>253.6</ele><time>2026-05-01T15:58:15Z</time></trkpt><trkpt lat="41.02137220244036" lon="8.997961878511285"><ele>255.0</ele><time>2026-05-01T15:58:16Z</time></trkpt><trkpt lat="41.02149417595971" lon="8.997978405286615"><ele>255.0</ele><time>2026-05-01T15:58:17Z</time></trkpt><trkpt lat="41.02160929880484" lon="8.998036003832372"><ele>255.0</ele><time>2026-05-01T15:58:18Z</time></trkpt><trkpt lat="41.02172339595768" lon="8.998132174163604"><ele>255.0</ele><time>2026-05-01T15:58:19Z</time></trkpt><trkpt lat="41.021840361843225" lon="8.998203310105163"><ele>255.0</ele><time>2026-05-01T15:58:20Z</time></trkpt><trkpt lat="41.02196105322143" lon="8.99821668401878"><ele>256.5</ele><time>2026-05-01T15:58:21Z</time></trkpt><trkpt lat="41.02208403005043" lon="8.998214664990927"><ele>258.0</ele><time>2026-05-01T15:58:22Z</time></trkpt><trkpt lat="41.02222632199351" lon="8.998194865018545"><ele>259.5</ele><time>2026-05-01T15:58:23Z</time></trkpt><trkpt lat="41.02236944431396" lon="8.998206284562157"><ele>261.0</ele><time>2026-05-01T15:58:24Z</time></trkpt><trkpt lat="41.02248602294799" lon="8.998251941319625"><ele>262.6</ele><time>2026-05-01T15:58:25Z</time></trkpt><trkpt lat="41.02257342439018" lon="8.998310371836252"><ele>264.20000000000005</ele><time>2026-05-01T15:58:26Z</time></trkpt><trkpt lat="41.022639241765724" lon="8.998353768256365"><ele>265.79999999999995</ele><time>2026-05-01T15:58:27Z</time></trkpt><trkpt lat="41.022726390788186" lon="8.99828346784005"><ele>267.4</ele><time>2026-05-01T15:58:29Z</time></trkpt><trkpt lat="41.02271743146203" lon="8.99814452390817"><ele>269.0</ele><time>2026-05-01T15:58:31Z</time></trkpt><trkpt lat="41.02273539767089" lon="8.99805039200646"><ele>269.0</ele><time>2026-05-01T15:58:33Z</time></trkpt><trkpt lat="41.02284193298661" lon="8.998027126911598"><ele>269.0</ele><time>2026-05-01T15:58:35Z</time></trkpt><trkpt lat="41.02291536235229" lon="8.998042726143375"><ele>269.0</ele><time>2026-05-01T15:58:36Z</time></trkpt><trkpt lat="41.0230155255866" lon="8.99806609519444"><ele>269.0</ele><time>2026-05-01T15:58:37Z</time></trkpt><trkpt lat="41.02314281884534" lon="8.998047275174846"><ele>269.0</ele><time>2026-05-01T15:58:38Z</time></trkpt><trkpt lat="41.02326971517891" lon="8.998003790384656"><ele>272.0</ele><time>2026-05-01T15:58:39Z</time></trkpt><trkpt lat="41.02339925599062" lon="8.997927964109504"><ele>275.0</ele><time>2026-05-01T15:58:40Z</time></trkpt><trkpt lat="41.02352865938978" lon="8.99787541000979"><ele>278.0</ele><time>2026-05-01T15:58:41Z</time></trkpt><trkpt lat="41.02365885313413" lon="8.99786244973814"><ele>281.0</ele><time>2026-05-01T15:58:42Z</time></trkpt><trkpt lat="41.02378328285877" lon="8.997892113785037"><ele>281.0</ele><time>2026-05-01T15:58:43Z</time></trkpt><trkpt lat="41.0239165198386" lon="8.997965640597071"><ele>281.0</ele><time>2026-05-01T15:58:44Z</time></trkpt><trkpt lat="41.02406213372485" lon="8.998038170793693"><ele>281.0</ele><time>2026-05-01T15:58:45Z</time></trkpt><trkpt lat="41.024224087303274" lon="8.998089478845024"><ele>283.25</ele><time>2026-05-01T15:58:46Z</time></trkpt><trkpt lat="41.02436132650542" lon="8.99811761632548"><ele>285.5</ele><time>2026-05-01T15:58:47Z</time></trkpt><trkpt lat="41.024475120995206" lon="8.998126606859852"><ele>287.75</ele><time>2026-05-01T15:58:48Z</time></trkpt><trkpt lat="41.02459310320965" lon="8.998146838156933"><ele>290.0</ele><time>2026-05-01T15:58:49Z</time></trkpt><trkpt lat="41.02471995783606" lon="8.998169752120996"><ele>290.0</ele><time>2026-05-01T15:58:50Z</time></trkpt><trkpt lat="41.024854879843595" lon="8.998197488572513"><ele>290.0</ele><time>2026-05-01T15:58:51Z</time></trkpt><trkpt lat="41.024996408377376" lon="8.99824459796277"><ele>290.0</ele><time>2026-05-01T15:58:52Z</time></trkpt><trkpt lat="41.02513849433988" lon="8.998310914677283"><ele>290.0</ele><time>2026-05-01T15:58:53Z</time></trkpt><trkpt lat="41.02527852455035" lon="8.998403310712925"><ele>292.0</ele><time>2026-05-01T15:58:54Z</time></trkpt><trkpt lat="41.02541900024332" lon="8.998501061726442"><ele>294.0</ele><time>2026-05-01T15:58:55Z</time></trkpt><trkpt lat="41.02552403933524" lon="8.99857624898483"><ele>296.0</ele><time>2026-05-01T15:58:56Z</time></trkpt><trkpt lat="41.02561350023585" lon="8.998608794296437"><ele>298.0</ele><time>2026-05-01T15:58:57Z</time></trkpt><trkpt lat="41.025706889482095" lon="8.998603120986543"><ele>297.8</ele><time>2026-05-01T15:58:58Z</time></trkpt><trkpt lat="41.02581209263155" lon="8.998585020154762"><ele>297.6</ele><time>2026-05-01T15:58:59Z</time></trkpt><trkpt lat="41.02591992960743" lon="8.998574419463862"><ele>297.4</ele><time>2026-05-01T15:59:00Z</time></trkpt><trkpt lat="41.026012793810104" lon="8.99860317963027"><ele>297.2</ele><time>2026-05-01T15:59:01Z</time></trkpt><trkpt lat="41.02609357543862" lon="8.998668006446351"><ele>297.0</ele><time>2026-05-01T15:59:02Z</time></trkpt><trkpt lat="41.02616354318503" lon="8.99875802186103"><ele>297.0</ele><time>2026-05-01T15:59:03Z</time></trkpt><trkpt lat="41.02625165373874" lon="8.998835284682206"><ele>297.0</ele><time>2026-05-01T15:59:04Z</time></trkpt><trkpt lat="41.02635744380204" lon="8.998886993724698"><ele>297.0</ele><time>2026-05-01T15:59:05Z</time></trkpt><trkpt lat="41.02646550641129" lon="8.998903470340581"><ele>297.0</ele><time>2026-05-01T15:59:06Z</time></trkpt><trkpt lat="41.02657871008026" lon="8.998874673666373"><ele>297.0</ele><time>2026-05-01T15:59:07Z</time></trkpt><trkpt lat="41.02670242810396" lon="8.998824582617125"><ele>294.5</ele><time>2026-05-01T15:59:08Z</time></trkpt><trkpt lat="41.02684394655207" lon="8.99876219163209"><ele>292.0</ele><time>2026-05-01T15:59:09Z</time></trkpt><trkpt lat="41.02696301806082" lon="8.998702142176455"><ele>289.5</ele><time>2026-05-01T15:59:10Z</time></trkpt><trkpt lat="41.02707234319484" lon="8.998655748416438"><ele>287.0</ele><time>2026-05-01T15:59:11Z</time></trkpt><trkpt lat="41.027161411030384" lon="8.998625449118785"><ele>287.0</ele><time>2026-05-01T15:59:12Z</time></trkpt><trkpt lat="41.02724806040532" lon="8.998599069564547"><ele>287.0</ele><time>2026-05-01T15:59:13Z</time></trkpt><trkpt lat="41.02732231160637" lon="8.998623367525788"><ele>287.0</ele><time>2026-05-01T15:59:14Z</time></trkpt><trkpt lat="41.027379316096194" lon="8.998712927855893"><ele>287.0</ele><time>2026-05-01T15:59:15Z</time></trkpt><trkpt lat="41.027425275587504" lon="8.998836095203467"><ele>287.0</ele><time>2026-05-01T15:59:16Z</time></trkpt><trkpt lat="41.027482178806856" lon="8.998944275821005"><ele>284.4</ele><time>2026-05-01T15:59:17Z</time></trkpt><trkpt lat="41.027572149118825" lon="8.998967479240378"><ele>281.79999999999995</ele><time>2026-05-01T15:59:18Z</time></trkpt><trkpt lat="41.02766334742493" lon="8.998993771088001"><ele>279.2</ele><time>2026-05-01T15:59:19Z</time></trkpt><trkpt lat="41.02776260757883" lon="8.999017455748117"><ele>276.59999999999997</ele><time>2026-05-01T15:59:20Z</time></trkpt><trkpt lat="41.027844553215004" lon="8.999041715802331"><ele>274.0</ele><time>2026-05-01T15:59:21Z</time></trkpt><trkpt lat="41.02794293837028" lon="8.999077508587344"><ele>274.0</ele><time>2026-05-01T15:59:22Z</time></trkpt><trkpt lat="41.028066376049175" lon="8.999120943477466"><ele>274.0</ele><time>2026-05-01T15:59:23Z</time></trkpt><trkpt lat="41.028186553000445" lon="8.99914954695917"><ele>274.0</ele><time>2026-05-01T15:59:24Z</time></trkpt><trkpt lat="41.02829875500556" lon="8.999175675534797"><ele>274.0</ele><time>2026-05-01T15:59:25Z</time></trkpt><trkpt lat="41.02837633445536" lon="8.999222852293245"><ele>274.0</ele><time>2026-05-01T15:59:26Z</time></trkpt><trkpt lat="41.02843875075013" lon="8.999295999647476"><ele>273.4</ele><time>2026-05-01T15:59:27Z</time></trkpt><trkpt lat="41.028513155830694" lon="8.999399930054755"><ele>272.79999999999995</ele><time>2026-05-01T15:59:28Z</time></trkpt><trkpt lat="41.02858056489966" lon="8.999498118424716"><ele>272.20000000000005</ele><time>2026-05-01T15:59:29Z</time></trkpt><trkpt lat="41.028645447024864" lon="8.999556868123289"><ele>271.6</ele><time>2026-05-01T15:59:30Z</time></trkpt><trkpt lat="41.02875939914179" lon="8.999510774762673"><ele>271.0</ele><time>2026-05-01T15:59:32Z</time></trkpt><trkpt lat="41.028806900398926" lon="8.999425881513469"><ele>271.0</ele><time>2026-05-01T15:59:33Z</time></trkpt><trkpt lat="41.028845528496625" lon="8.999310196589802"><ele>271.0</ele><time>2026-05-01T15:59:34Z</time></trkpt><trkpt lat="41.02889944035223" lon="8.999181895795989"><ele>271.0</ele><time>2026-05-01T15:59:35Z</time></trkpt><trkpt lat="41.02896836879416" lon="8.999046637906313"><ele>271.0</ele><time>2026-05-01T15:59:36Z</time></trkpt><trkpt lat="41.02904167601793" lon="8.99890983077785"><ele>270.0</ele><time>2026-05-01T15:59:37Z</time></trkpt><trkpt lat="41.029110533744465" lon="8.998806478103507"><ele>269.0</ele><time>2026-05-01T15:59:38Z</time></trkpt><trkpt lat="41.029174543154376" lon="8.998780520067221"><ele>268.0</ele><time>2026-05-01T15:59:39Z</time></trkpt><trkpt lat="41.0292530477814" lon="8.998820120863689"><ele>267.0</ele><time>2026-05-01T15:59:40Z</time></trkpt><trkpt lat="41.0293646658488" lon="8.998781981939988"><ele>266.0</ele><time>2026-05-01T15:59:41Z</time></trkpt><trkpt lat="41.0294741538862" lon="8.998798222569862"><ele>268.5</ele><time>2026-05-01T15:59:42Z</time></trkpt><trkpt lat="41.02960288883477" lon="8.99884119773196"><ele>271.0</ele><time>2026-05-01T15:59:43Z</time></trkpt><trkpt lat="41.029726757488355" lon="8.998888236008295"><ele>273.5</ele><time>2026-05-01T15:59:44Z</time></trkpt><trkpt lat="41.02985558050896" lon="8.998927240652723"><ele>276.0</ele><time>2026-05-01T15:59:45Z</time></trkpt><trkpt lat="41.02997908000438" lon="8.998977645382666"><ele>277.5</ele><time>2026-05-01T15:59:46Z</time></trkpt><trkpt lat="41.03008384878839" lon="8.999047332007057"><ele>279.0</ele><time>2026-05-01T15:59:47Z</time></trkpt><trkpt lat="41.03019536009549" lon="8.999143900999375"><ele>280.5</ele><time>2026-05-01T15:59:48Z</time></trkpt><trkpt lat="41.030306967521376" lon="8.99920375181546"><ele>282.0</ele><time>2026-05-01T15:59:49Z</time></trkpt><trkpt lat="41.0304226894953" lon="8.99923920043702"><ele>282.8</ele><time>2026-05-01T15:59:50Z</time></trkpt><trkpt lat="41.030524326112946" lon="8.999274392417295"><ele>283.6</ele><time>2026-05-01T15:59:51Z</time></trkpt><trkpt lat="41.030606195762935" lon="8.999304272360407"><ele>284.40000000000003</ele><time>2026-05-01T15:59:52Z</time></trkpt><trkpt lat="41.03071073571692" lon="8.999346297532714"><ele>285.2</ele><time>2026-05-01T15:59:53Z</time></trkpt><trkpt lat="41.03079130660459" lon="8.999354022099023"><ele>286.0</ele><time>2026-05-01T15:59:54Z</time></trkpt><trkpt lat="41.0308893857726" lon="8.99936133226134"><ele>286.6</ele><time>2026-05-01T15:59:56Z</time></trkpt><trkpt lat="41.03096968872466" lon="8.999371166494218"><ele>287.20000000000005</ele><time>2026-05-01T15:59:58Z</time></trkpt><trkpt lat="41.03104790800537" lon="8.999367200985928"><ele>287.79999999999995</ele><time>2026-05-01T15:59:59Z</time></trkpt><trkpt lat="41.031149039646145" lon="8.999389112463643"><ele>288.4</ele><time>2026-05-01T16:00:00Z</time></trkpt><trkpt lat="41.031239550913" lon="8.999425214086475"><ele>289.0</ele><time>2026-05-01T16:00:01Z</time></trkpt><trkpt lat="41.03136230815442" lon="8.999473138401836"><ele>289.0</ele><time>2026-05-01T16:00:02Z</time></trkpt><trkpt lat="41.03147178201362" lon="8.99949536578782"><ele>289.0</ele><time>2026-05-01T16:00:03Z</time></trkpt><trkpt lat="41.031563740932405" lon="8.999524051040398"><ele>289.0</ele><time>2026-05-01T16:00:04Z</time></trkpt><trkpt lat="41.03164428167136" lon="8.999545040233393"><ele>289.0</ele><time>2026-05-01T16:00:05Z</time></trkpt><trkpt lat="41.031747171194134" lon="8.999563310356761"><ele>289.0</ele><time>2026-05-01T16:00:06Z</time></trkpt><trkpt lat="41.03185768038855" lon="8.999550741328905"><ele>289.25</ele><time>2026-05-01T16:00:07Z</time></trkpt><trkpt lat="41.03197168801543" lon="8.99950809393421"><ele>289.5</ele><time>2026-05-01T16:00:08Z</time></trkpt><trkpt lat="41.032075942944054" lon="8.999491153139068"><ele>289.75</ele><time>2026-05-01T16:00:09Z</time></trkpt><trkpt lat="41.03219130983943" lon="8.999516761907541"><ele>290.0</ele><time>2026-05-01T16:00:10Z</time></trkpt><trkpt lat="41.03231096023923" lon="8.999568203911336"><ele>290.0</ele><time>2026-05-01T16:00:11Z</time></trkpt><trkpt lat="41.03238808515353" lon="8.99962586856764"><ele>290.0</ele><time>2026-05-01T16:00:12Z</time></trkpt><trkpt lat="41.03242425579042" lon="8.999699523768358"><ele>290.0</ele><time>2026-05-01T16:00:13Z</time></trkpt><trkpt lat="41.03243496079982" lon="8.99980183288847"><ele>290.0</ele><time>2026-05-01T16:00:14Z</time></trkpt><trkpt lat="41.03244141959636" lon="8.999925050237772"><ele>290.0</ele><time>2026-05-01T16:00:15Z</time></trkpt><trkpt lat="41.03245060171184" lon="9.00005749114917"><ele>290.0</ele><time>2026-05-01T16:00:16Z</time></trkpt><trkpt lat="41.03247652639046" lon="9.000176509757797"><ele>288.4</ele><time>2026-05-01T16:00:17Z</time></trkpt><trkpt lat="41.032510244042356" lon="9.000270137662854"><ele>286.8</ele><time>2026-05-01T16:00:18Z</time></trkpt><trkpt lat="41.032570146686574" lon="9.000369175859312"><ele>285.2</ele><time>2026-05-01T16:00:19Z</time></trkpt><trkpt lat="41.03264437335346" lon="9.000480904369958"><ele>283.6</ele><time>2026-05-01T16:00:20Z</time></trkpt><trkpt lat="41.032716821525725" lon="9.000585046881259"><ele>282.0</ele><time>2026-05-01T16:00:21Z</time></trkpt><trkpt lat="41.03278779038505" lon="9.000667161039066"><ele>282.0</ele><time>2026-05-01T16:00:22Z</time></trkpt><trkpt lat="41.03286859920305" lon="9.000713195728368"><ele>282.0</ele><time>2026-05-01T16:00:23Z</time></trkpt><trkpt lat="41.03294755802383" lon="9.000735209507733"><ele>282.0</ele><time>2026-05-01T16:00:24Z</time></trkpt><trkpt lat="41.033042832214996" lon="9.000732600333219"><ele>282.0</ele><time>2026-05-01T16:00:25Z</time></trkpt><trkpt lat="41.03315958426571" lon="9.00074200355377"><ele>282.0</ele><time>2026-05-01T16:00:26Z</time></trkpt><trkpt lat="41.033272670388634" lon="9.000770092256285"><ele>281.0</ele><time>2026-05-01T16:00:27Z</time></trkpt><trkpt lat="41.03338596482099" lon="9.000816789592193"><ele>280.0</ele><time>2026-05-01T16:00:28Z</time></trkpt><trkpt lat="41.03350023063729" lon="9.000859578641148"><ele>279.0</ele><time>2026-05-01T16:00:29Z</time></trkpt><trkpt lat="41.033631989563894" lon="9.000889575521164"><ele>278.0</ele><time>2026-05-01T16:00:30Z</time></trkpt><trkpt lat="41.03377218139755" lon="9.000924388901268"><ele>278.0</ele><time>2026-05-01T16:00:31Z</time></trkpt><trkpt lat="41.033895932670475" lon="9.000964917640227"><ele>278.0</ele><time>2026-05-01T16:00:32Z</time></trkpt><trkpt lat="41.03400567324998" lon="9.000995854948059"><ele>278.0</ele><time>2026-05-01T16:00:33Z</time></trkpt><trkpt lat="41.034114153204605" lon="9.001004440939456"><ele>278.0</ele><time>2026-05-01T16:00:34Z</time></trkpt><trkpt lat="41.03421046696181" lon="9.000986188546635"><ele>278.0</ele><time>2026-05-01T16:00:35Z</time></trkpt><trkpt lat="41.03429306318905" lon="9.000932706556652"><ele>277.5</ele><time>2026-05-01T16:00:36Z</time></trkpt><trkpt lat="41.03436635677566" lon="9.00084069659742"><ele>277.0</ele><time>2026-05-01T16:00:37Z</time></trkpt><trkpt lat="41.03443033812189" lon="9.000719568603111"><ele>276.5</ele><time>2026-05-01T16:00:38Z</time></trkpt><trkpt lat="41.03448997076655" lon="9.00056828404693"><ele>276.0</ele><time>2026-05-01T16:00:39Z</time></trkpt><trkpt lat="41.03454724195332" lon="9.000399408811308"><ele>274.75</ele><time>2026-05-01T16:00:40Z</time></trkpt><trkpt lat="41.03458583108083" lon="9.000248276659391"><ele>273.5</ele><time>2026-05-01T16:00:41Z</time></trkpt><trkpt lat="41.03464739830935" lon="9.000109440126772"><ele>272.25</ele><time>2026-05-01T16:00:42Z</time></trkpt><trkpt lat="41.03469915225663" lon="8.999972840279176"><ele>271.0</ele><time>2026-05-01T16:00:43Z</time></trkpt><trkpt lat="41.034745841039935" lon="8.999835341892707"><ele>271.0</ele><time>2026-05-01T16:00:44Z</time></trkpt><trkpt lat="41.03478991759002" lon="8.99972195832767"><ele>271.0</ele><time>2026-05-01T16:00:45Z</time></trkpt><trkpt lat="41.034845092487195" lon="8.999642828823086"><ele>271.0</ele><time>2026-05-01T16:00:46Z</time></trkpt><trkpt lat="41.03491665763632" lon="8.999607731114889"><ele>271.0</ele><time>2026-05-01T16:00:47Z</time></trkpt><trkpt lat="41.034999965888254" lon="8.999603027105229"><ele>271.0</ele><time>2026-05-01T16:00:48Z</time></trkpt><trkpt lat="41.03508738256718" lon="8.999631314615353"><ele>271.0</ele><time>2026-05-01T16:00:49Z</time></trkpt><trkpt lat="41.035161812490294" lon="8.999699775006466"><ele>270.16666666666663</ele><time>2026-05-01T16:00:50Z</time></trkpt><trkpt lat="41.0352250122794" lon="8.999795914449361"><ele>269.3333333333333</ele><time>2026-05-01T16:00:51Z</time></trkpt><trkpt lat="41.035288914393526" lon="8.999808866529158"><ele>268.5</ele><time>2026-05-01T16:00:52Z</time></trkpt><trkpt lat="41.03534991379416" lon="8.999764646002077"><ele>267.6666666666667</ele><time>2026-05-01T16:00:53Z</time></trkpt><trkpt lat="41.035376878300745" lon="8.999671857111094"><ele>266.83333333333337</ele><time>2026-05-01T16:00:54Z</time></trkpt><trkpt lat="41.03537874607432" lon="8.999559924343465"><ele>266.0</ele><time>2026-05-01T16:00:55Z</time></trkpt><trkpt lat="41.035380937674404" lon="8.99944513823731"><ele>266.0</ele><time>2026-05-01T16:00:56Z</time></trkpt><trkpt lat="41.035412485511834" lon="8.999350751424394"><ele>266.0</ele><time>2026-05-01T16:00:57Z</time></trkpt><trkpt lat="41.03547848699172" lon="8.999281051831707"><ele>266.0</ele><time>2026-05-01T16:00:58Z</time></trkpt><trkpt lat="41.03558466739647" lon="8.99922391492202"><ele>266.0</ele><time>2026-05-01T16:00:59Z</time></trkpt><trkpt lat="41.035690542642975" lon="8.999204280704543"><ele>266.0</ele><time>2026-05-01T16:01:00Z</time></trkpt><trkpt lat="41.03580176054208" lon="8.999163870977814"><ele>261.25</ele><time>2026-05-01T16:01:01Z</time></trkpt><trkpt lat="41.035903985046446" lon="8.99908577820406"><ele>256.5</ele><time>2026-05-01T16:01:02Z</time></trkpt><trkpt lat="41.03601643059982" lon="8.998960438592839"><ele>251.75</ele><time>2026-05-01T16:01:03Z</time></trkpt><trkpt lat="41.03613838412425" lon="8.998853860596503"><ele>247.0</ele><time>2026-05-01T16:01:04Z</time></trkpt><trkpt lat="41.03626520788773" lon="8.998750468893217"><ele>247.0</ele><time>2026-05-01T16:01:05Z</time></trkpt><trkpt lat="41.03638582726215" lon="8.9986219957344"><ele>247.0</ele><time>2026-05-01T16:01:06Z</time></trkpt><trkpt lat="41.036480713293216" lon="8.998509049140608"><ele>247.0</ele><time>2026-05-01T16:01:07Z</time></trkpt><trkpt lat="41.036580271877156" lon="8.99838403079132"><ele>247.0</ele><time>2026-05-01T16:01:08Z</time></trkpt><trkpt lat="41.03669638136767" lon="8.998253194086338"><ele>243.0</ele><time>2026-05-01T16:01:09Z</time></trkpt><trkpt lat="41.036813173690234" lon="8.9981213728509"><ele>239.0</ele><time>2026-05-01T16:01:10Z</time></trkpt><trkpt lat="41.0369123974776" lon="8.997974075471907"><ele>235.0</ele><time>2026-05-01T16:01:11Z</time></trkpt><trkpt lat="41.03698467803022" lon="8.997820381295067"><ele>231.0</ele><time>2026-05-01T16:01:12Z</time></trkpt><trkpt lat="41.03704162885465" lon="8.997710497692633"><ele>231.0</ele><time>2026-05-01T16:01:13Z</time></trkpt><trkpt lat="41.03710267240989" lon="8.997644382738125"><ele>231.0</ele><time>2026-05-01T16:01:14Z</time></trkpt><trkpt lat="41.03718421127315" lon="8.997635073649544"><ele>231.0</ele><time>2026-05-01T16:01:15Z</time></trkpt><trkpt lat="41.03726592261493" lon="8.99768783530641"><ele>231.0</ele><time>2026-05-01T16:01:16Z</time></trkpt><trkpt lat="41.03733847041609" lon="8.997774358603827"><ele>231.0</ele><time>2026-05-01T16:01:17Z</time></trkpt><trkpt lat="41.037412492467276" lon="8.997825249218433"><ele>231.0</ele><time>2026-05-01T16:01:18Z</time></trkpt><trkpt lat="41.0374770716534" lon="8.997847842206488"><ele>229.0</ele><time>2026-05-01T16:01:19Z</time></trkpt><trkpt lat="41.037540040007954" lon="8.997826818661002"><ele>227.00000000000003</ele><time>2026-05-01T16:01:20Z</time></trkpt><trkpt lat="41.03762132239106" lon="8.997713731080172"><ele>225.00000000000003</ele><time>2026-05-01T16:01:22Z</time></trkpt><trkpt lat="41.037732301155664" lon="8.997769869205984"><ele>223.0</ele><time>2026-05-01T16:01:24Z</time></trkpt><trkpt lat="41.037763764396566" lon="8.997844849128608"><ele>221.0</ele><time>2026-05-01T16:01:25Z</time></trkpt><trkpt lat="41.03787204628219" lon="8.997938589923985"><ele>221.00000000000003</ele><time>2026-05-01T16:01:27Z</time></trkpt><trkpt lat="41.03794493052412" lon="8.99793227434946"><ele>221.0</ele><time>2026-05-01T16:01:28Z</time></trkpt><trkpt lat="41.038008322353605" lon="8.9978605898006"><ele>221.0</ele><time>2026-05-01T16:01:29Z</time></trkpt><trkpt lat="41.038065609482516" lon="8.997761331645966"><ele>221.0</ele><time>2026-05-01T16:01:30Z</time></trkpt><trkpt lat="41.03813510725289" lon="8.997658195117214"><ele>221.00000000000003</ele><time>2026-05-01T16:01:31Z</time></trkpt><trkpt lat="41.03820708177351" lon="8.997589998377109"><ele>221.0</ele><time>2026-05-01T16:01:32Z</time></trkpt><trkpt lat="41.03827784472573" lon="8.997562237547923"><ele>218.00000000000003</ele><time>2026-05-01T16:01:33Z</time></trkpt><trkpt lat="41.03834534040673" lon="8.997602633042673"><ele>215.0</ele><time>2026-05-01T16:01:34Z</time></trkpt><trkpt lat="41.038392809485984" lon="8.997676688481851"><ele>212.0</ele><time>2026-05-01T16:01:35Z</time></trkpt><trkpt lat="41.03840437480009" lon="8.997776077619902"><ele>209.0</ele><time>2026-05-01T16:01:36Z</time></trkpt><trkpt lat="41.03839899902016" lon="8.997903463459318"><ele>206.00000000000003</ele><time>2026-05-01T16:01:37Z</time></trkpt><trkpt lat="41.038380728092754" lon="8.998050669323481"><ele>203.0</ele><time>2026-05-01T16:01:38Z</time></trkpt><trkpt lat="41.03837139910138" lon="8.998196896590862"><ele>203.0</ele><time>2026-05-01T16:01:39Z</time></trkpt><trkpt lat="41.03838602647494" lon="8.998320830864477"><ele>203.0</ele><time>2026-05-01T16:01:40Z</time></trkpt><trkpt lat="41.03842224038468" lon="8.998421478335333"><ele>203.0</ele><time>2026-05-01T16:01:41Z</time></trkpt><trkpt lat="41.03848508583209" lon="8.998494538835262"><ele>203.0</ele><time>2026-05-01T16:01:42Z</time></trkpt><trkpt lat="41.03857604421685" lon="8.998539296429977"><ele>203.0</ele><time>2026-05-01T16:01:43Z</time></trkpt><trkpt lat="41.038692406881594" lon="8.998565178006396"><ele>203.25</ele><time>2026-05-01T16:01:44Z</time></trkpt><trkpt lat="41.03883616031494" lon="8.998576094522099"><ele>203.5</ele><time>2026-05-01T16:01:45Z</time></trkpt><trkpt lat="41.038984715083764" lon="8.99858480692161"><ele>203.75</ele><time>2026-05-01T16:01:46Z</time></trkpt><trkpt lat="41.039107538461856" lon="8.998613913702634"><ele>204.0</ele><time>2026-05-01T16:01:47Z</time></trkpt><trkpt lat="41.03922609211207" lon="8.998650948197975"><ele>202.0</ele><time>2026-05-01T16:01:48Z</time></trkpt><trkpt lat="41.039341311473116" lon="8.998664806258898"><ele>200.0</ele><time>2026-05-01T16:01:49Z</time></trkpt><trkpt lat="41.03945909424351" lon="8.998649469119535"><ele>198.0</ele><time>2026-05-01T16:01:50Z</time></trkpt><trkpt lat="41.039575826805084" lon="8.998603934527106"><ele>196.0</ele><time>2026-05-01T16:01:51Z</time></trkpt><trkpt lat="41.03966914079438" lon="8.998560517728405"><ele>195.99999999999997</ele><time>2026-05-01T16:01:52Z</time></trkpt><trkpt lat="41.039755008809514" lon="8.998567910198748"><ele>196.0</ele><time>2026-05-01T16:01:53Z</time></trkpt><trkpt lat="41.03982832110518" lon="8.998583662779088"><ele>196.0</ele><time>2026-05-01T16:01:54Z</time></trkpt><trkpt lat="41.03989890716018" lon="8.998585419474113"><ele>196.0</ele><time>2026-05-01T16:01:55Z</time></trkpt><trkpt lat="41.04002956267531" lon="8.99856215781858"><ele>195.99999999999997</ele><time>2026-05-01T16:01:57Z</time></trkpt><trkpt lat="41.040112077127375" lon="8.998584378724294"><ele>196.0</ele><time>2026-05-01T16:01:58Z</time></trkpt><trkpt lat="41.04021193344819" lon="8.998628333711881"><ele>196.0</ele><time>2026-05-01T16:01:59Z</time></trkpt><trkpt lat="41.040317952342086" lon="8.998709734533946"><ele>196.0</ele><time>2026-05-01T16:02:00Z</time></trkpt><trkpt lat="41.0404203405124" lon="8.998809643368219"><ele>196.0</ele><time>2026-05-01T16:02:01Z</time></trkpt><trkpt lat="41.040524798673204" lon="8.998916779861128"><ele>196.0</ele><time>2026-05-01T16:02:02Z</time></trkpt><trkpt lat="41.04064004842265" lon="8.999011007004725"><ele>196.0</ele><time>2026-05-01T16:02:03Z</time></trkpt><trkpt lat="41.04076270723121" lon="8.999100872172754"><ele>196.0</ele><time>2026-05-01T16:02:04Z</time></trkpt><trkpt lat="41.04088510881507" lon="8.999185521911722"><ele>196.0</ele><time>2026-05-01T16:02:05Z</time></trkpt><trkpt lat="41.040998148087695" lon="8.999264900543432"><ele>196.0</ele><time>2026-05-01T16:02:06Z</time></trkpt><trkpt lat="41.04111034541551" lon="8.99934344594487"><ele>194.75</ele><time>2026-05-01T16:02:07Z</time></trkpt><trkpt lat="41.041222255471055" lon="8.999423466333097"><ele>193.5</ele><time>2026-05-01T16:02:08Z</time></trkpt><trkpt lat="41.04133180697268" lon="8.999505795239388"><ele>192.25</ele><time>2026-05-01T16:02:09Z</time></trkpt><trkpt lat="41.04143299398986" lon="8.999590799384302"><ele>191.0</ele><time>2026-05-01T16:02:10Z</time></trkpt><trkpt lat="41.04154550778557" lon="8.999697096213913"><ele>190.5</ele><time>2026-05-01T16:02:11Z</time></trkpt><trkpt lat="41.04164228347854" lon="8.999798095082912"><ele>190.0</ele><time>2026-05-01T16:02:12Z</time></trkpt><trkpt lat="41.04172994044109" lon="8.999895158325712"><ele>189.5</ele><time>2026-05-01T16:02:13Z</time></trkpt><trkpt lat="41.04183600164332" lon="9.000003014172373"><ele>189.0</ele><time>2026-05-01T16:02:14Z</time></trkpt><trkpt lat="41.04195201907573" lon="9.000105989585945"><ele>189.0</ele><time>2026-05-01T16:02:15Z</time></trkpt><trkpt lat="41.042066892927075" lon="9.000192493110948"><ele>189.0</ele><time>2026-05-01T16:02:16Z</time></trkpt><trkpt lat="41.042182289492665" lon="9.000270825043373"><ele>189.0</ele><time>2026-05-01T16:02:17Z</time></trkpt><trkpt lat="41.042303707277554" lon="9.000371330896224"><ele>189.0</ele><time>2026-05-01T16:02:18Z</time></trkpt><trkpt lat="41.04240782330186" lon="9.000461519381656"><ele>188.2</ele><time>2026-05-01T16:02:19Z</time></trkpt><trkpt lat="41.04249346131983" lon="9.0005400716085"><ele>187.39999999999998</ele><time>2026-05-01T16:02:20Z</time></trkpt><trkpt lat="41.042585312911605" lon="9.000627647830113"><ele>186.6</ele><time>2026-05-01T16:02:21Z</time></trkpt><trkpt lat="41.04270099013078" lon="9.000702754816674"><ele>185.8</ele><time>2026-05-01T16:02:22Z</time></trkpt><trkpt lat="41.04280079838848" lon="9.000722209692317"><ele>185.0</ele><time>2026-05-01T16:02:23Z</time></trkpt><trkpt lat="41.042907676676734" lon="9.000760280482814"><ele>185.0</ele><time>2026-05-01T16:02:24Z</time></trkpt><trkpt lat="41.043037151123094" lon="9.000816904897048"><ele>185.0</ele><time>2026-05-01T16:02:25Z</time></trkpt><trkpt lat="41.043174166341416" lon="9.000858658167711"><ele>185.0</ele><time>2026-05-01T16:02:26Z</time></trkpt><trkpt lat="41.043321944202624" lon="9.000897172539158"><ele>185.0</ele><time>2026-05-01T16:02:27Z</time></trkpt><trkpt lat="41.04345851004537" lon="9.000939213542534"><ele>185.25</ele><time>2026-05-01T16:02:28Z</time></trkpt><trkpt lat="41.04357695615937" lon="9.000991736634388"><ele>185.5</ele><time>2026-05-01T16:02:29Z</time></trkpt><trkpt lat="41.04370004665079" lon="9.001026248415702"><ele>185.75</ele><time>2026-05-01T16:02:30Z</time></trkpt><trkpt lat="41.04381866724658" lon="9.001086103255428"><ele>186.0</ele><time>2026-05-01T16:02:31Z</time></trkpt><trkpt lat="41.04392911599368" lon="9.001161709382924"><ele>186.0</ele><time>2026-05-01T16:02:32Z</time></trkpt><trkpt lat="41.044036720357624" lon="9.001240895837565"><ele>186.0</ele><time>2026-05-01T16:02:33Z</time></trkpt><trkpt lat="41.04414257384473" lon="9.001320162270208"><ele>186.0</ele><time>2026-05-01T16:02:34Z</time></trkpt><trkpt lat="41.044245809467306" lon="9.001402926606927"><ele>186.0</ele><time>2026-05-01T16:02:35Z</time></trkpt><trkpt lat="41.04435984943317" lon="9.001502991546214"><ele>187.0</ele><time>2026-05-01T16:02:36Z</time></trkpt><trkpt lat="41.044480120399896" lon="9.001619111044821"><ele>188.0</ele><time>2026-05-01T16:02:37Z</time></trkpt><trkpt lat="41.04460232411381" lon="9.001744759412697"><ele>189.0</ele><time>2026-05-01T16:02:38Z</time></trkpt><trkpt lat="41.04472355494407" lon="9.001871450906254"><ele>190.25</ele><time>2026-05-01T16:02:39Z</time></trkpt><trkpt lat="41.04484247004664" lon="9.001984240127172"><ele>191.5</ele><time>2026-05-01T16:02:40Z</time></trkpt><trkpt lat="41.04496101745262" lon="9.002089861699128"><ele>192.75</ele><time>2026-05-01T16:02:41Z</time></trkpt><trkpt lat="41.04507583492997" lon="9.002191888279954"><ele>194.0</ele><time>2026-05-01T16:02:42Z</time></trkpt><trkpt lat="41.0451773140637" lon="9.002280134097987"><ele>194.0</ele><time>2026-05-01T16:02:43Z</time></trkpt><trkpt lat="41.045278155861894" lon="9.002338151163194"><ele>194.0</ele><time>2026-05-01T16:02:44Z</time></trkpt><trkpt lat="41.04538572561118" lon="9.002388593362157"><ele>194.0</ele><time>2026-05-01T16:02:45Z</time></trkpt><trkpt lat="41.0454811943577" lon="9.00245576905828"><ele>194.0</ele><time>2026-05-01T16:02:46Z</time></trkpt><trkpt lat="41.04556458940955" lon="9.002547771253797"><ele>194.0</ele><time>2026-05-01T16:02:47Z</time></trkpt><trkpt lat="41.04565704302235" lon="9.002630894941472"><ele>195.0</ele><time>2026-05-01T16:02:48Z</time></trkpt><trkpt lat="41.04575824750128" lon="9.002697452298186"><ele>196.0</ele><time>2026-05-01T16:02:49Z</time></trkpt><trkpt lat="41.045867837609514" lon="9.002741741500516"><ele>197.0</ele><time>2026-05-01T16:02:50Z</time></trkpt><trkpt lat="41.04598993852062" lon="9.002767293088688"><ele>198.0</ele><time>2026-05-01T16:02:51Z</time></trkpt><trkpt lat="41.04612835506376" lon="9.002790156713514"><ele>198.0</ele><time>2026-05-01T16:02:52Z</time></trkpt><trkpt lat="41.046269245337776" lon="9.002806477014559"><ele>198.0</ele><time>2026-05-01T16:02:53Z</time></trkpt><trkpt lat="41.046394758576184" lon="9.00285753575006"><ele>198.0</ele><time>2026-05-01T16:02:54Z</time></trkpt><trkpt lat="41.04654341504368" lon="9.002880638068072"><ele>198.0</ele><time>2026-05-01T16:02:55Z</time></trkpt><trkpt lat="41.046688747062724" lon="9.002908524200674"><ele>198.0</ele><time>2026-05-01T16:02:56Z</time></trkpt><trkpt lat="41.046831742076215" lon="9.002955122900168"><ele>198.0</ele><time>2026-05-01T16:02:57Z</time></trkpt><trkpt lat="41.04697464851022" lon="9.003020389129773"><ele>198.0</ele><time>2026-05-01T16:02:58Z</time></trkpt><trkpt lat="41.04711879503761" lon="9.00309237540612"><ele>198.0</ele><time>2026-05-01T16:02:59Z</time></trkpt><trkpt lat="41.04725921775008" lon="9.003156446924919"><ele>198.0</ele><time>2026-05-01T16:03:00Z</time></trkpt><trkpt lat="41.04738812013846" lon="9.003204271266016"><ele>198.0</ele><time>2026-05-01T16:03:01Z</time></trkpt><trkpt lat="41.04751002811091" lon="9.003234846833987"><ele>198.0</ele><time>2026-05-01T16:03:02Z</time></trkpt><trkpt lat="41.04762151732935" lon="9.00323938349191"><ele>197.5</ele><time>2026-05-01T16:03:03Z</time></trkpt><trkpt lat="41.047739236836684" lon="9.003237639449528"><ele>197.0</ele><time>2026-05-01T16:03:04Z</time></trkpt><trkpt lat="41.047868633741274" lon="9.00323862163799"><ele>196.5</ele><time>2026-05-01T16:03:05Z</time></trkpt><trkpt lat="41.047999621850764" lon="9.003239142024748"><ele>196.0</ele><time>2026-05-01T16:03:06Z</time></trkpt><trkpt lat="41.04813254551327" lon="9.003247663645366"><ele>196.0</ele><time>2026-05-01T16:03:07Z</time></trkpt><trkpt lat="41.04825890434847" lon="9.003263690664806"><ele>196.0</ele><time>2026-05-01T16:03:08Z</time></trkpt><trkpt lat="41.0483925229587" lon="9.003284436405012"><ele>196.0</ele><time>2026-05-01T16:03:09Z</time></trkpt><trkpt lat="41.04852153290286" lon="9.0033108721029"><ele>196.0</ele><time>2026-05-01T16:03:10Z</time></trkpt><trkpt lat="41.048640090332" lon="9.003341098516769"><ele>196.20000000000002</ele><time>2026-05-01T16:03:11Z</time></trkpt><trkpt lat="41.048754385983024" lon="9.003377318433234"><ele>196.4</ele><time>2026-05-01T16:03:12Z</time></trkpt><trkpt lat="41.04886690028519" lon="9.003419530980151"><ele>196.6</ele><time>2026-05-01T16:03:13Z</time></trkpt><trkpt lat="41.048970669404774" lon="9.003465142429786"><ele>196.8</ele><time>2026-05-01T16:03:14Z</time></trkpt><trkpt lat="41.04906101206032" lon="9.00351594700381"><ele>197.0</ele><time>2026-05-01T16:03:15Z</time></trkpt><trkpt lat="41.04914136567313" lon="9.003561749116367"><ele>195.83333333333334</ele><time>2026-05-01T16:03:16Z</time></trkpt><trkpt lat="41.049211736086505" lon="9.003600839586964"><ele>194.66666666666669</ele><time>2026-05-01T16:03:17Z</time></trkpt><trkpt lat="41.04927675113043" lon="9.003634688245366"><ele>193.5</ele><time>2026-05-01T16:03:18Z</time></trkpt><trkpt lat="41.04934427875175" lon="9.003645068551435"><ele>192.33333333333334</ele><time>2026-05-01T16:03:19Z</time></trkpt><trkpt lat="41.049425289322684" lon="9.003644774104117"><ele>191.16666666666669</ele><time>2026-05-01T16:03:20Z</time></trkpt><trkpt lat="41.04952369940866" lon="9.003645656585748"><ele>190.0</ele><time>2026-05-01T16:03:21Z</time></trkpt><trkpt lat="41.0496308653572" lon="9.00365476152429"><ele>190.0</ele><time>2026-05-01T16:03:22Z</time></trkpt><trkpt lat="41.04974937093521" lon="9.003666758341538"><ele>190.0</ele><time>2026-05-01T16:03:23Z</time></trkpt><trkpt lat="41.04986051318423" lon="9.00367505382923"><ele>190.0</ele><time>2026-05-01T16:03:24Z</time></trkpt><trkpt lat="41.04997561031742" lon="9.003678275187886"><ele>190.0</ele><time>2026-05-01T16:03:25Z</time></trkpt><trkpt lat="41.05009766073226" lon="9.00367993785875"><ele>188.0</ele><time>2026-05-01T16:03:26Z</time></trkpt><trkpt lat="41.05021987913877" lon="9.003685160288764"><ele>186.0</ele><time>2026-05-01T16:03:27Z</time></trkpt><trkpt lat="41.050350417701615" lon="9.0036915546031"><ele>184.0</ele><time>2026-05-01T16:03:28Z</time></trkpt><trkpt lat="41.05049581227494" lon="9.003700391913778"><ele>182.0</ele><time>2026-05-01T16:03:29Z</time></trkpt><trkpt lat="41.050637518043075" lon="9.003717868073778"><ele>182.0</ele><time>2026-05-01T16:03:30Z</time></trkpt><trkpt lat="41.05078414166922" lon="9.0037509621925"><ele>182.0</ele><time>2026-05-01T16:03:31Z</time></trkpt><trkpt lat="41.05093468371066" lon="9.003798758359217"><ele>182.0</ele><time>2026-05-01T16:03:32Z</time></trkpt><trkpt lat="41.051085343551264" lon="9.00383993883511"><ele>180.5</ele><time>2026-05-01T16:03:33Z</time></trkpt><trkpt lat="41.05122111898851" lon="9.00387961051575"><ele>179.0</ele><time>2026-05-01T16:03:34Z</time></trkpt><trkpt lat="41.05134880994638" lon="9.003911098732944"><ele>177.5</ele><time>2026-05-01T16:03:35Z</time></trkpt><trkpt lat="41.05147647846105" lon="9.003923550459072"><ele>176.0</ele><time>2026-05-01T16:03:36Z</time></trkpt><trkpt lat="41.051598743446974" lon="9.003926110362134"><ele>175.25</ele><time>2026-05-01T16:03:37Z</time></trkpt><trkpt lat="41.051719252222156" lon="9.003910544347082"><ele>174.5</ele><time>2026-05-01T16:03:38Z</time></trkpt><trkpt lat="41.051836617847414" lon="9.003878071224767"><ele>173.75</ele><time>2026-05-01T16:03:39Z</time></trkpt><trkpt lat="41.05194694319234" lon="9.003826485405606"><ele>173.0</ele><time>2026-05-01T16:03:40Z</time></trkpt><trkpt lat="41.05205078411824" lon="9.00376437229207"><ele>173.0</ele><time>2026-05-01T16:03:41Z</time></trkpt><trkpt lat="41.05214771426737" lon="9.003695425613"><ele>173.0</ele><time>2026-05-01T16:03:42Z</time></trkpt><trkpt lat="41.05223858285765" lon="9.00361521102922"><ele>173.0</ele><time>2026-05-01T16:03:43Z</time></trkpt><trkpt lat="41.05232883467457" lon="9.003542148228506"><ele>173.0</ele><time>2026-05-01T16:03:44Z</time></trkpt><trkpt lat="41.052417626052005" lon="9.00351221168085"><ele>173.0</ele><time>2026-05-01T16:03:45Z</time></trkpt><trkpt lat="41.05250106169185" lon="9.003494381366036"><ele>172.66666666666666</ele><time>2026-05-01T16:03:46Z</time></trkpt><trkpt lat="41.052566586176646" lon="9.003471660482893"><ele>172.33333333333331</ele><time>2026-05-01T16:03:47Z</time></trkpt><trkpt lat="41.05261405747106" lon="9.003397751241097"><ele>172.0</ele><time>2026-05-01T16:03:49Z</time></trkpt><trkpt lat="41.05262366621894" lon="9.003276835051398"><ele>171.66666666666666</ele><time>2026-05-01T16:03:51Z</time></trkpt><trkpt lat="41.05259356309027" lon="9.003161920079847"><ele>171.33333333333334</ele><time>2026-05-01T16:03:52Z</time></trkpt><trkpt lat="41.05253520253115" lon="9.003016954929125"><ele>171.0</ele><time>2026-05-01T16:03:53Z</time></trkpt><trkpt lat="41.05246199375395" lon="9.002866473970888"><ele>172.0</ele><time>2026-05-01T16:03:54Z</time></trkpt><trkpt lat="41.05238032697169" lon="9.002709756025618"><ele>173.0</ele><time>2026-05-01T16:03:55Z</time></trkpt><trkpt lat="41.052295647374834" lon="9.00253942041801"><ele>174.0</ele><time>2026-05-01T16:03:56Z</time></trkpt><trkpt lat="41.05219932422676" lon="9.002361709306879"><ele>174.33333333333334</ele><time>2026-05-01T16:03:57Z</time></trkpt><trkpt lat="41.05209740350899" lon="9.002172522265568"><ele>174.66666666666669</ele><time>2026-05-01T16:03:58Z</time></trkpt><trkpt lat="41.05199589167423" lon="9.001972747744123"><ele>175.0</ele><time>2026-05-01T16:03:59Z</time></trkpt><trkpt lat="41.05189596715807" lon="9.001764520313994"><ele>175.33333333333334</ele><time>2026-05-01T16:04:00Z</time></trkpt><trkpt lat="41.0517966798042" lon="9.001559706833449"><ele>175.66666666666666</ele><time>2026-05-01T16:04:01Z</time></trkpt><trkpt lat="41.05169843077538" lon="9.001359098969031"><ele>176.0</ele><time>2026-05-01T16:04:02Z</time></trkpt><trkpt lat="41.051600418080085" lon="9.001162491408884"><ele>176.33333333333331</ele><time>2026-05-01T16:04:03Z</time></trkpt><trkpt lat="41.05150320676138" lon="9.000968187540762"><ele>176.66666666666666</ele><time>2026-05-01T16:04:04Z</time></trkpt><trkpt lat="41.05140641043369" lon="9.000773707772693"><ele>177.0</ele><time>2026-05-01T16:04:05Z</time></trkpt><trkpt lat="41.051309125804394" lon="9.000578269810198"><ele>177.0</ele><time>2026-05-01T16:04:06Z</time></trkpt><trkpt lat="41.05121365760881" lon="9.000380366571214"><ele>177.0</ele><time>2026-05-01T16:04:07Z</time></trkpt><trkpt lat="41.05111750677849" lon="9.000176349537789"><ele>177.0</ele><time>2026-05-01T16:04:08Z</time></trkpt><trkpt lat="41.05101465323384" lon="8.999962694412094"><ele>177.0</ele><time>2026-05-01T16:04:09Z</time></trkpt><trkpt lat="41.05090817807725" lon="8.999746395497842"><ele>177.0</ele><time>2026-05-01T16:04:10Z</time></trkpt><trkpt lat="41.05079979573918" lon="8.999526896713265"><ele>177.0</ele><time>2026-05-01T16:04:11Z</time></trkpt><trkpt lat="41.050690238256315" lon="8.99930563208167"><ele>178.33333333333334</ele><time>2026-05-01T16:04:12Z</time></trkpt><trkpt lat="41.05057977019651" lon="8.999091177111065"><ele>179.66666666666669</ele><time>2026-05-01T16:04:13Z</time></trkpt><trkpt lat="41.05046562860586" lon="8.998889316275228"><ele>181.0</ele><time>2026-05-01T16:04:14Z</time></trkpt><trkpt lat="41.050348920782845" lon="8.998701156282435"><ele>181.0</ele><time>2026-05-01T16:04:15Z</time></trkpt><trkpt lat="41.05023924293861" lon="8.998503351857707"><ele>181.0</ele><time>2026-05-01T16:04:16Z</time></trkpt><trkpt lat="41.05010867496704" lon="8.99833126473742"><ele>181.0</ele><time>2026-05-01T16:04:17Z</time></trkpt><trkpt lat="41.04999170152635" lon="8.998154851553682"><ele>180.66666666666669</ele><time>2026-05-01T16:04:18Z</time></trkpt><trkpt lat="41.049873591621804" lon="8.997975671211515"><ele>180.33333333333334</ele><time>2026-05-01T16:04:19Z</time></trkpt><trkpt lat="41.04975874077087" lon="8.997802289423385"><ele>180.0</ele><time>2026-05-01T16:04:20Z</time></trkpt><trkpt lat="41.04963399172221" lon="8.997636258231585"><ele>179.33333333333334</ele><time>2026-05-01T16:04:21Z</time></trkpt><trkpt lat="41.049505040292" lon="8.997471191926044"><ele>178.66666666666669</ele><time>2026-05-01T16:04:22Z</time></trkpt><trkpt lat="41.04936588634691" lon="8.997303232568772"><ele>178.0</ele><time>2026-05-01T16:04:23Z</time></trkpt><trkpt lat="41.04923030181946" lon="8.997130968660729"><ele>178.0</ele><time>2026-05-01T16:04:24Z</time></trkpt><trkpt lat="41.04909309897423" lon="8.9969573809817"><ele>178.0</ele><time>2026-05-01T16:04:25Z</time></trkpt><trkpt lat="41.04894947824013" lon="8.996777209699756"><ele>178.0</ele><time>2026-05-01T16:04:26Z</time></trkpt><trkpt lat="41.048800896000614" lon="8.996603763587267"><ele>177.33333333333334</ele><time>2026-05-01T16:04:27Z</time></trkpt><trkpt lat="41.04865099368431" lon="8.996422401285587"><ele>176.66666666666666</ele><time>2026-05-01T16:04:28Z</time></trkpt><trkpt lat="41.04850528681765" lon="8.996234332575318"><ele>176.0</ele><time>2026-05-01T16:04:29Z</time></trkpt><trkpt lat="41.04833479256842" lon="8.996068752775043"><ele>176.33333333333331</ele><time>2026-05-01T16:04:30Z</time></trkpt><trkpt lat="41.04817402950588" lon="8.995901836806961"><ele>176.66666666666666</ele><time>2026-05-01T16:04:31Z</time></trkpt><trkpt lat="41.04801974088911" lon="8.995719341222115"><ele>177.0</ele><time>2026-05-01T16:04:32Z</time></trkpt><trkpt lat="41.04784572295943" lon="8.995558948892494"><ele>177.0</ele><time>2026-05-01T16:04:33Z</time></trkpt><trkpt lat="41.047681399891424" lon="8.995391492140888"><ele>177.0</ele><time>2026-05-01T16:04:34Z</time></trkpt><trkpt lat="41.04751988380154" lon="8.995214308900014"><ele>177.0</ele><time>2026-05-01T16:04:35Z</time></trkpt><trkpt lat="41.047356106139716" lon="8.995044446501657"><ele>175.33333333333334</ele><time>2026-05-01T16:04:36Z</time></trkpt><trkpt lat="41.04719104727643" lon="8.994875573326997"><ele>173.66666666666669</ele><time>2026-05-01T16:04:37Z</time></trkpt><trkpt lat="41.047026956602494" lon="8.994697375584089"><ele>172.0</ele><time>2026-05-01T16:04:38Z</time></trkpt><trkpt lat="41.046866561077216" lon="8.994526857947212"><ele>172.0</ele><time>2026-05-01T16:04:39Z</time></trkpt><trkpt lat="41.04670423198535" lon="8.994355380968777"><ele>172.0</ele><time>2026-05-01T16:04:40Z</time></trkpt><trkpt lat="41.046542586612475" lon="8.994180046496242"><ele>172.0</ele><time>2026-05-01T16:04:41Z</time></trkpt><trkpt lat="41.04637894607485" lon="8.994014401135548"><ele>171.66666666666669</ele><time>2026-05-01T16:04:42Z</time></trkpt><trkpt lat="41.046218432333944" lon="8.99384452115048"><ele>171.33333333333334</ele><time>2026-05-01T16:04:43Z</time></trkpt><trkpt lat="41.046058990460914" lon="8.993673001681499"><ele>171.0</ele><time>2026-05-01T16:04:44Z</time></trkpt><trkpt lat="41.0458994060576" lon="8.99350455379441"><ele>170.33333333333334</ele><time>2026-05-01T16:04:45Z</time></trkpt><trkpt lat="41.04573824217615" lon="8.99334121848841"><ele>169.66666666666669</ele><time>2026-05-01T16:04:46Z</time></trkpt><trkpt lat="41.04558087133649" lon="8.993174767534502"><ele>169.0</ele><time>2026-05-01T16:04:47Z</time></trkpt><trkpt lat="41.04542486118662" lon="8.993004314839034"><ele>168.33333333333334</ele><time>2026-05-01T16:04:48Z</time></trkpt><trkpt lat="41.04526555327147" lon="8.99284048556118"><ele>167.66666666666666</ele><time>2026-05-01T16:04:49Z</time></trkpt><trkpt lat="41.04510968560743" lon="8.992660042583651"><ele>167.0</ele><time>2026-05-01T16:04:50Z</time></trkpt><trkpt lat="41.04494058208972" lon="8.992498081469103"><ele>166.0</ele><time>2026-05-01T16:04:51Z</time></trkpt><trkpt lat="41.044777272102266" lon="8.992331751505352"><ele>165.0</ele><time>2026-05-01T16:04:52Z</time></trkpt><trkpt lat="41.044616885726164" lon="8.992166786683223"><ele>164.0</ele><time>2026-05-01T16:04:53Z</time></trkpt><trkpt lat="41.04446002405568" lon="8.991991256087154"><ele>164.0</ele><time>2026-05-01T16:04:54Z</time></trkpt><trkpt lat="41.04431409724322" lon="8.991839390239022"><ele>164.0</ele><time>2026-05-01T16:04:55Z</time></trkpt><trkpt lat="41.04417105399894" lon="8.99168976344067"><ele>164.0</ele><time>2026-05-01T16:04:56Z</time></trkpt><trkpt lat="41.04403747044419" lon="8.99155381803394"><ele>165.33333333333331</ele><time>2026-05-01T16:04:57Z</time></trkpt><trkpt lat="41.04391234110256" lon="8.991420144511379"><ele>166.66666666666666</ele><time>2026-05-01T16:04:58Z</time></trkpt><trkpt lat="41.04378952303496" lon="8.991287320074607"><ele>168.0</ele><time>2026-05-01T16:04:59Z</time></trkpt><trkpt lat="41.04366977096329" lon="8.991138472771459"><ele>168.0</ele><time>2026-05-01T16:05:00Z</time></trkpt><trkpt lat="41.04355169062775" lon="8.990985624027921"><ele>168.0</ele><time>2026-05-01T16:05:01Z</time></trkpt><trkpt lat="41.04344379237669" lon="8.99080800801252"><ele>168.0</ele><time>2026-05-01T16:05:02Z</time></trkpt><trkpt lat="41.04334410183165" lon="8.99062092960014"><ele>165.33333333333334</ele><time>2026-05-01T16:05:03Z</time></trkpt><trkpt lat="41.04325685106131" lon="8.990421659266012"><ele>162.66666666666669</ele><time>2026-05-01T16:05:04Z</time></trkpt><trkpt lat="41.0431774795756" lon="8.990211475753197"><ele>160.0</ele><time>2026-05-01T16:05:05Z</time></trkpt><trkpt lat="41.043105718053006" lon="8.989996455566235"><ele>158.66666666666669</ele><time>2026-05-01T16:05:06Z</time></trkpt><trkpt lat="41.04305550486862" lon="8.989761496141409"><ele>157.33333333333334</ele><time>2026-05-01T16:05:07Z</time></trkpt><trkpt lat="41.043020939095854" lon="8.989508747528538"><ele>156.0</ele><time>2026-05-01T16:05:08Z</time></trkpt><trkpt lat="41.04299284716323" lon="8.989255606296556"><ele>155.33333333333334</ele><time>2026-05-01T16:05:09Z</time></trkpt><trkpt lat="41.04295907197499" lon="8.98899427538514"><ele>154.66666666666669</ele><time>2026-05-01T16:05:10Z</time></trkpt><trkpt lat="41.04291851003272" lon="8.988736851394782"><ele>154.0</ele><time>2026-05-01T16:05:11Z</time></trkpt><trkpt lat="41.042880764939255" lon="8.98847584671962"><ele>153.33333333333334</ele><time>2026-05-01T16:05:12Z</time></trkpt><trkpt lat="41.04284453274376" lon="8.988213188464151"><ele>152.66666666666666</ele><time>2026-05-01T16:05:13Z</time></trkpt><trkpt lat="41.04280589102564" lon="8.987953973390903"><ele>152.0</ele><time>2026-05-01T16:05:14Z</time></trkpt><trkpt lat="41.04276921295631" lon="8.987708615383555"><ele>152.0</ele><time>2026-05-01T16:05:15Z</time></trkpt><trkpt lat="41.04272943873192" lon="8.987478626261534"><ele>152.0</ele><time>2026-05-01T16:05:16Z</time></trkpt><trkpt lat="41.04269397277929" lon="8.987252240041078"><ele>152.0</ele><time>2026-05-01T16:05:17Z</time></trkpt><trkpt lat="41.04265892576788" lon="8.987031852039783"><ele>152.0</ele><time>2026-05-01T16:05:18Z</time></trkpt><trkpt lat="41.04262406359155" lon="8.986788111772661"><ele>152.0</ele><time>2026-05-01T16:05:19Z</time></trkpt><trkpt lat="41.04259064331828" lon="8.986536907935848"><ele>152.0</ele><time>2026-05-01T16:05:20Z</time></trkpt><trkpt lat="41.04254769395729" lon="8.986263776749004"><ele>152.0</ele><time>2026-05-01T16:05:21Z</time></trkpt><trkpt lat="41.042500661768415" lon="8.985967416058743"><ele>152.0</ele><time>2026-05-01T16:05:22Z</time></trkpt><trkpt lat="41.04245283620791" lon="8.98565407326497"><ele>152.0</ele><time>2026-05-01T16:05:23Z</time></trkpt><trkpt lat="41.04240826635513" lon="8.985343279328795"><ele>152.0</ele><time>2026-05-01T16:05:24Z</time></trkpt><trkpt lat="41.04236722152054" lon="8.985053197584335"><ele>152.33333333333331</ele><time>2026-05-01T16:05:25Z</time></trkpt><trkpt lat="41.0423293334888" lon="8.984790291492885"><ele>152.66666666666666</ele><time>2026-05-01T16:05:26Z</time></trkpt><trkpt lat="41.042292276143925" lon="8.984543837904162"><ele>153.0</ele><time>2026-05-01T16:05:27Z</time></trkpt><trkpt lat="41.042255401115" lon="8.984301278242539"><ele>153.33333333333334</ele><time>2026-05-01T16:05:28Z</time></trkpt><trkpt lat="41.042219436891756" lon="8.98405812748095"><ele>153.66666666666669</ele><time>2026-05-01T16:05:29Z</time></trkpt><trkpt lat="41.042175755052966" lon="8.983804717639197"><ele>154.0</ele><time>2026-05-01T16:05:30Z</time></trkpt><trkpt lat="41.04212141961128" lon="8.98352252410196"><ele>155.0</ele><time>2026-05-01T16:05:31Z</time></trkpt><trkpt lat="41.04207191817057" lon="8.983223687299125"><ele>156.0</ele><time>2026-05-01T16:05:32Z</time></trkpt><trkpt lat="41.04203535489791" lon="8.982918998444783"><ele>156.0</ele><time>2026-05-01T16:05:33Z</time></trkpt><trkpt lat="41.04200404566181" lon="8.982626474134992"><ele>156.0</ele><time>2026-05-01T16:05:34Z</time></trkpt><trkpt lat="41.0419717648517" lon="8.982354295477787"><ele>156.0</ele><time>2026-05-01T16:05:35Z</time></trkpt><trkpt lat="41.04192592187691" lon="8.982090173688478"><ele>155.33333333333334</ele><time>2026-05-01T16:05:36Z</time></trkpt><trkpt lat="41.04187278399489" lon="8.981852924621538"><ele>154.66666666666669</ele><time>2026-05-01T16:05:37Z</time></trkpt><trkpt lat="41.041805874993514" lon="8.981646037030794"><ele>154.0</ele><time>2026-05-01T16:05:38Z</time></trkpt><trkpt lat="41.0416861387155" lon="8.981420734306651"><ele>153.0</ele><time>2026-05-01T16:05:39Z</time></trkpt><trkpt lat="41.0415450898568" lon="8.981216617706073"><ele>152.0</ele><time>2026-05-01T16:05:40Z</time></trkpt><trkpt lat="41.041387835370145" lon="8.981025245206013"><ele>151.0</ele><time>2026-05-01T16:05:41Z</time></trkpt><trkpt lat="41.041227512322564" lon="8.980828100756447"><ele>151.0</ele><time>2026-05-01T16:05:42Z</time></trkpt><trkpt lat="41.04106013319889" lon="8.980634026890192"><ele>151.0</ele><time>2026-05-01T16:05:43Z</time></trkpt><trkpt lat="41.040895185476295" lon="8.980419570913243"><ele>151.5</ele><time>2026-05-01T16:05:44Z</time></trkpt><trkpt lat="41.040728732113934" lon="8.980196853469748"><ele>152.0</ele><time>2026-05-01T16:05:45Z</time></trkpt><trkpt lat="41.040560241193035" lon="8.97996648058283"><ele>153.0</ele><time>2026-05-01T16:05:46Z</time></trkpt><trkpt lat="41.04038148042602" lon="8.97973474390692"><ele>154.0</ele><time>2026-05-01T16:05:47Z</time></trkpt><trkpt lat="41.0402145062216" lon="8.979502739422081"><ele>154.0</ele><time>2026-05-01T16:05:48Z</time></trkpt><trkpt lat="41.04006748634105" lon="8.979296354988346"><ele>154.0</ele><time>2026-05-01T16:05:49Z</time></trkpt><trkpt lat="41.039928857997104" lon="8.979074877707518"><ele>154.0</ele><time>2026-05-01T16:05:50Z</time></trkpt><trkpt lat="41.03979324048119" lon="8.978872497103978"><ele>154.66666666666669</ele><time>2026-05-01T16:05:51Z</time></trkpt><trkpt lat="41.03965592560304" lon="8.978725443652161"><ele>155.33333333333334</ele><time>2026-05-01T16:05:52Z</time></trkpt><trkpt lat="41.03952353136502" lon="8.978551010631904"><ele>156.0</ele><time>2026-05-01T16:05:53Z</time></trkpt><trkpt lat="41.039392849634574" lon="8.9783998209629"><ele>155.66666666666666</ele><time>2026-05-01T16:05:54Z</time></trkpt><trkpt lat="41.03925192809764" lon="8.978276459569477"><ele>155.33333333333331</ele><time>2026-05-01T16:05:55Z</time></trkpt><trkpt lat="41.03910179264097" lon="8.978153953554505"><ele>155.0</ele><time>2026-05-01T16:05:56Z</time></trkpt><trkpt lat="41.03898038471593" lon="8.97822620631771"><ele>154.66666666666666</ele><time>2026-05-01T16:05:57Z</time></trkpt><trkpt lat="41.038817007753266" lon="8.978238602311682"><ele>154.33333333333334</ele><time>2026-05-01T16:05:58Z</time></trkpt><trkpt lat="41.0386102499588" lon="8.97824149558494"><ele>154.0</ele><time>2026-05-01T16:05:59Z</time></trkpt><trkpt lat="41.03839393057575" lon="8.97821479700389"><ele>152.33333333333334</ele><time>2026-05-01T16:06:00Z</time></trkpt><trkpt lat="41.03817813899633" lon="8.97818399480701"><ele>150.66666666666666</ele><time>2026-05-01T16:06:01Z</time></trkpt><trkpt lat="41.037967266501134" lon="8.978164407051032"><ele>149.0</ele><time>2026-05-01T16:06:02Z</time></trkpt><trkpt lat="41.03776144350445" lon="8.978150686671547"><ele>149.0</ele><time>2026-05-01T16:06:03Z</time></trkpt><trkpt lat="41.03757190015106" lon="8.9781291987705"><ele>149.0</ele><time>2026-05-01T16:06:04Z</time></trkpt><trkpt lat="41.037392869936866" lon="8.978106424021714"><ele>149.0</ele><time>2026-05-01T16:06:05Z</time></trkpt><trkpt lat="41.03722627736104" lon="8.978077225948926"><ele>147.33333333333331</ele><time>2026-05-01T16:06:06Z</time></trkpt><trkpt lat="41.03707716470455" lon="8.97803899240372"><ele>145.66666666666666</ele><time>2026-05-01T16:06:07Z</time></trkpt><trkpt lat="41.036934889478474" lon="8.977969461614036"><ele>144.0</ele><time>2026-05-01T16:06:08Z</time></trkpt><trkpt lat="41.036806267091634" lon="8.977841555660065"><ele>144.0</ele><time>2026-05-01T16:06:09Z</time></trkpt><trkpt lat="41.03667515896692" lon="8.977682316403639"><ele>144.0</ele><time>2026-05-01T16:06:10Z</time></trkpt><trkpt lat="41.03654348756248" lon="8.97751366504919"><ele>144.0</ele><time>2026-05-01T16:06:11Z</time></trkpt><trkpt lat="41.036410536691115" lon="8.977349340338307"><ele>142.66666666666666</ele><time>2026-05-01T16:06:12Z</time></trkpt><trkpt lat="41.03629120705096" lon="8.977195667061908"><ele>141.33333333333331</ele><time>2026-05-01T16:06:13Z</time></trkpt><trkpt lat="41.036175241927914" lon="8.977055211159668"><ele>140.0</ele><time>2026-05-01T16:06:14Z</time></trkpt><trkpt lat="41.036064828584614" lon="8.976919164364347"><ele>140.0</ele><time>2026-05-01T16:06:15Z</time></trkpt><trkpt lat="41.035963532016" lon="8.976781575740985"><ele>140.0</ele><time>2026-05-01T16:06:16Z</time></trkpt><trkpt lat="41.03586003877216" lon="8.976656844970536"><ele>140.0</ele><time>2026-05-01T16:06:17Z</time></trkpt><trkpt lat="41.03576542404244" lon="8.976539704146813"><ele>140.0</ele><time>2026-05-01T16:06:18Z</time></trkpt><trkpt lat="41.03567951281892" lon="8.976424491226311"><ele>139.25</ele><time>2026-05-01T16:06:19Z</time></trkpt><trkpt lat="41.03559562497144" lon="8.976319839517574"><ele>138.5</ele><time>2026-05-01T16:06:20Z</time></trkpt><trkpt lat="41.035513022252886" lon="8.976218358874483"><ele>137.75</ele><time>2026-05-01T16:06:21Z</time></trkpt><trkpt lat="41.03542642694908" lon="8.976110885152805"><ele>137.0</ele><time>2026-05-01T16:06:22Z</time></trkpt><trkpt lat="41.03533917579742" lon="8.97600382971411"><ele>137.0</ele><time>2026-05-01T16:06:23Z</time></trkpt><trkpt lat="41.0352533879084" lon="8.975877923122084"><ele>137.0</ele><time>2026-05-01T16:06:24Z</time></trkpt><trkpt lat="41.035182049681396" lon="8.97574157476568"><ele>137.0</ele><time>2026-05-01T16:06:25Z</time></trkpt><trkpt lat="41.03512447326201" lon="8.975589947113564"><ele>137.0</ele><time>2026-05-01T16:06:26Z</time></trkpt><trkpt lat="41.03508203508726" lon="8.97542709095234"><ele>136.5</ele><time>2026-05-01T16:06:27Z</time></trkpt><trkpt lat="41.035044808494845" lon="8.975266806047982"><ele>136.0</ele><time>2026-05-01T16:06:28Z</time></trkpt><trkpt lat="41.03501149633303" lon="8.975103709749545"><ele>135.5</ele><time>2026-05-01T16:06:29Z</time></trkpt><trkpt lat="41.03497733080141" lon="8.974936483039826"><ele>135.0</ele><time>2026-05-01T16:06:30Z</time></trkpt><trkpt lat="41.034942947617644" lon="8.974765561791518"><ele>135.0</ele><time>2026-05-01T16:06:31Z</time></trkpt><trkpt lat="41.03492356705858" lon="8.974578486702132"><ele>135.0</ele><time>2026-05-01T16:06:32Z</time></trkpt><trkpt lat="41.034910526975274" lon="8.97439203108414"><ele>135.0</ele><time>2026-05-01T16:06:33Z</time></trkpt><trkpt lat="41.03491640514178" lon="8.974206793910112"><ele>135.0</ele><time>2026-05-01T16:06:34Z</time></trkpt><trkpt lat="41.03493341250691" lon="8.974017539730461"><ele>136.25</ele><time>2026-05-01T16:06:35Z</time></trkpt><trkpt lat="41.03495686259484" lon="8.973840702621256"><ele>137.5</ele><time>2026-05-01T16:06:36Z</time></trkpt><trkpt lat="41.03496705703973" lon="8.973675304093454"><ele>138.75</ele><time>2026-05-01T16:06:37Z</time></trkpt><trkpt lat="41.03498574862686" lon="8.973513061251232"><ele>140.0</ele><time>2026-05-01T16:06:38Z</time></trkpt><trkpt lat="41.03500883554783" lon="8.97334233043382"><ele>141.5</ele><time>2026-05-01T16:06:39Z</time></trkpt><trkpt lat="41.035028546096896" lon="8.973167734724269"><ele>143.0</ele><time>2026-05-01T16:06:40Z</time></trkpt><trkpt lat="41.03504931828369" lon="8.97299344015314"><ele>144.5</ele><time>2026-05-01T16:06:41Z</time></trkpt><trkpt lat="41.0350682017447" lon="8.972811247454903"><ele>146.0</ele><time>2026-05-01T16:06:42Z</time></trkpt><trkpt lat="41.03508677199162" lon="8.972611621506134"><ele>146.0</ele><time>2026-05-01T16:06:43Z</time></trkpt><trkpt lat="41.03511270851276" lon="8.972419872158817"><ele>146.0</ele><time>2026-05-01T16:06:44Z</time></trkpt><trkpt lat="41.035128523385595" lon="8.97222198057976"><ele>146.0</ele><time>2026-05-01T16:06:45Z</time></trkpt><trkpt lat="41.03513992330584" lon="8.972018600780375"><ele>146.0</ele><time>2026-05-01T16:06:46Z</time></trkpt><trkpt lat="41.03514789267618" lon="8.971827661805772"><ele>146.0</ele><time>2026-05-01T16:06:47Z</time></trkpt><trkpt lat="41.035155220309164" lon="8.971627870142633"><ele>146.0</ele><time>2026-05-01T16:06:48Z</time></trkpt><trkpt lat="41.0351610333206" lon="8.971432676858504"><ele>146.0</ele><time>2026-05-01T16:06:49Z</time></trkpt><trkpt lat="41.03517034258471" lon="8.97124122217258"><ele>146.2</ele><time>2026-05-01T16:06:50Z</time></trkpt><trkpt lat="41.03518578311577" lon="8.971076079374832"><ele>146.39999999999998</ele><time>2026-05-01T16:06:51Z</time></trkpt><trkpt lat="41.03521607869882" lon="8.97093671616356"><ele>146.6</ele><time>2026-05-01T16:06:52Z</time></trkpt><trkpt lat="41.03527050099623" lon="8.970827902462176"><ele>146.79999999999998</ele><time>2026-05-01T16:06:53Z</time></trkpt><trkpt lat="41.03535021075489" lon="8.97073809233985"><ele>147.0</ele><time>2026-05-01T16:06:54Z</time></trkpt><trkpt lat="41.03545672205913" lon="8.970669187869833"><ele>148.25</ele><time>2026-05-01T16:06:55Z</time></trkpt><trkpt lat="41.03558293759052" lon="8.970606537521395"><ele>149.5</ele><time>2026-05-01T16:06:56Z</time></trkpt><trkpt lat="41.035726294575504" lon="8.970561746179818"><ele>150.75</ele><time>2026-05-01T16:06:57Z</time></trkpt><trkpt lat="41.03587981141985" lon="8.970520976500344"><ele>152.0</ele><time>2026-05-01T16:06:58Z</time></trkpt><trkpt lat="41.03604710878101" lon="8.970481186962243"><ele>153.0</ele><time>2026-05-01T16:06:59Z</time></trkpt><trkpt lat="41.036227802914155" lon="8.970463976735005"><ele>154.0</ele><time>2026-05-01T16:07:00Z</time></trkpt><trkpt lat="41.03641973745993" lon="8.970477209045063"><ele>155.0</ele><time>2026-05-01T16:07:01Z</time></trkpt><trkpt lat="41.036616626586365" lon="8.970505337607298"><ele>156.66666666666666</ele><time>2026-05-01T16:07:02Z</time></trkpt><trkpt lat="41.03681559291745" lon="8.970531705037333"><ele>158.33333333333334</ele><time>2026-05-01T16:07:03Z</time></trkpt><trkpt lat="41.03698778460607" lon="8.970547835796237"><ele>160.0</ele><time>2026-05-01T16:07:04Z</time></trkpt><trkpt lat="41.037139519096755" lon="8.970553004683488"><ele>160.0</ele><time>2026-05-01T16:07:05Z</time></trkpt><trkpt lat="41.03727275059073" lon="8.970537461646893"><ele>160.0</ele><time>2026-05-01T16:07:06Z</time></trkpt><trkpt lat="41.037395278713284" lon="8.970483371382244"><ele>160.0</ele><time>2026-05-01T16:07:07Z</time></trkpt><trkpt lat="41.03751184679269" lon="8.970381547909005"><ele>160.0</ele><time>2026-05-01T16:07:08Z</time></trkpt><trkpt lat="41.03762720830735" lon="8.970241130728368"><ele>162.0</ele><time>2026-05-01T16:07:09Z</time></trkpt><trkpt lat="41.037738950927825" lon="8.970105957563591"><ele>164.0</ele><time>2026-05-01T16:07:10Z</time></trkpt><trkpt lat="41.03784241553034" lon="8.969982138320985"><ele>166.0</ele><time>2026-05-01T16:07:11Z</time></trkpt><trkpt lat="41.03796016212862" lon="8.969867988639866"><ele>168.0</ele><time>2026-05-01T16:07:12Z</time></trkpt><trkpt lat="41.03808080838979" lon="8.969752341945041"><ele>168.0</ele><time>2026-05-01T16:07:13Z</time></trkpt><trkpt lat="41.03820779821034" lon="8.969672929701389"><ele>168.0</ele><time>2026-05-01T16:07:14Z</time></trkpt><trkpt lat="41.03834974319114" lon="8.969604901327836"><ele>168.0</ele><time>2026-05-01T16:07:15Z</time></trkpt><trkpt lat="41.038497669082" lon="8.969566478095139"><ele>168.0</ele><time>2026-05-01T16:07:16Z</time></trkpt><trkpt lat="41.03863665769297" lon="8.96956968876962"><ele>168.25</ele><time>2026-05-01T16:07:17Z</time></trkpt><trkpt lat="41.03876339079387" lon="8.969636573751478"><ele>168.5</ele><time>2026-05-01T16:07:18Z</time></trkpt><trkpt lat="41.038864900728456" lon="8.969740021399483"><ele>168.75</ele><time>2026-05-01T16:07:19Z</time></trkpt><trkpt lat="41.03894197839074" lon="8.969876782726057"><ele>169.0</ele><time>2026-05-01T16:07:20Z</time></trkpt><trkpt lat="41.0390204162568" lon="8.970023393972797"><ele>169.5</ele><time>2026-05-01T16:07:21Z</time></trkpt><trkpt lat="41.03909495927451" lon="8.970167897073487"><ele>170.0</ele><time>2026-05-01T16:07:22Z</time></trkpt><trkpt lat="41.03917662186171" lon="8.970303696333724"><ele>170.5</ele><time>2026-05-01T16:07:23Z</time></trkpt><trkpt lat="41.039292632214035" lon="8.970412206749923"><ele>171.0</ele><time>2026-05-01T16:07:24Z</time></trkpt><trkpt lat="41.039430233298155" lon="8.970482896378652"><ele>171.0</ele><time>2026-05-01T16:07:25Z</time></trkpt><trkpt lat="41.03958826347073" lon="8.970566689918268"><ele>171.0</ele><time>2026-05-01T16:07:26Z</time></trkpt><trkpt lat="41.039744512488895" lon="8.970623724630777"><ele>171.0</ele><time>2026-05-01T16:07:27Z</time></trkpt><trkpt lat="41.03989058580036" lon="8.970664061092245"><ele>171.5</ele><time>2026-05-01T16:07:28Z</time></trkpt><trkpt lat="41.04003681949918" lon="8.970691544846266"><ele>172.0</ele><time>2026-05-01T16:07:29Z</time></trkpt><trkpt lat="41.040184295232166" lon="8.970700279946206"><ele>172.5</ele><time>2026-05-01T16:07:30Z</time></trkpt><trkpt lat="41.040332974092394" lon="8.970683130401207"><ele>173.0</ele><time>2026-05-01T16:07:31Z</time></trkpt><trkpt lat="41.0404630094443" lon="8.970663348407957"><ele>173.0</ele><time>2026-05-01T16:07:32Z</time></trkpt><trkpt lat="41.04057582108576" lon="8.970638416745446"><ele>173.0</ele><time>2026-05-01T16:07:33Z</time></trkpt><trkpt lat="41.0406869387643" lon="8.970646863834228"><ele>173.0</ele><time>2026-05-01T16:07:34Z</time></trkpt><trkpt lat="41.04078698371413" lon="8.97070304394976"><ele>173.0</ele><time>2026-05-01T16:07:35Z</time></trkpt><trkpt lat="41.040882467888885" lon="8.970821372590075"><ele>177.0</ele><time>2026-05-01T16:07:36Z</time></trkpt><trkpt lat="41.04099188842607" lon="8.970925522001167"><ele>181.0</ele><time>2026-05-01T16:07:37Z</time></trkpt><trkpt lat="41.041123849265" lon="8.97099634431332"><ele>185.0</ele><time>2026-05-01T16:07:38Z</time></trkpt><trkpt lat="41.04124882688158" lon="8.971008109160657"><ele>189.0</ele><time>2026-05-01T16:07:39Z</time></trkpt><trkpt lat="41.0413555961511" lon="8.970965677055283"><ele>189.0</ele><time>2026-05-01T16:07:40Z</time></trkpt><trkpt lat="41.04144848167275" lon="8.970873564023368"><ele>189.0</ele><time>2026-05-01T16:07:41Z</time></trkpt><trkpt lat="41.041542226993215" lon="8.970775997588403"><ele>189.0</ele><time>2026-05-01T16:07:42Z</time></trkpt><trkpt lat="41.04165603601136" lon="8.970667384994812"><ele>189.0</ele><time>2026-05-01T16:07:43Z</time></trkpt><trkpt lat="41.04178912098852" lon="8.970585046097517"><ele>188.0</ele><time>2026-05-01T16:07:44Z</time></trkpt><trkpt lat="41.04193825952497" lon="8.970510078582409"><ele>187.0</ele><time>2026-05-01T16:07:45Z</time></trkpt><trkpt lat="41.042089792846646" lon="8.970456816058453"><ele>186.0</ele><time>2026-05-01T16:07:46Z</time></trkpt><trkpt lat="41.04224582764817" lon="8.970424964239173"><ele>186.0</ele><time>2026-05-01T16:07:47Z</time></trkpt><trkpt lat="41.04239347867348" lon="8.970410656961418"><ele>186.0</ele><time>2026-05-01T16:07:48Z</time></trkpt><trkpt lat="41.042525599525284" lon="8.970417150320213"><ele>186.0</ele><time>2026-05-01T16:07:49Z</time></trkpt><trkpt lat="41.04264411544577" lon="8.97046153825073"><ele>186.0</ele><time>2026-05-01T16:07:50Z</time></trkpt><trkpt lat="41.042760762951346" lon="8.970552007173927"><ele>186.5</ele><time>2026-05-01T16:07:51Z</time></trkpt><trkpt lat="41.04286934960336" lon="8.970666618263314"><ele>187.0</ele><time>2026-05-01T16:07:52Z</time></trkpt><trkpt lat="41.04296744853085" lon="8.970783554284885"><ele>187.5</ele><time>2026-05-01T16:07:53Z</time></trkpt><trkpt lat="41.04306279321181" lon="8.970868017121264"><ele>188.0</ele><time>2026-05-01T16:07:54Z</time></trkpt><trkpt lat="41.04316058565467" lon="8.970913660472755"><ele>188.2</ele><time>2026-05-01T16:07:55Z</time></trkpt><trkpt lat="41.04325661156912" lon="8.970882244683276"><ele>188.4</ele><time>2026-05-01T16:07:56Z</time></trkpt><trkpt lat="41.043341627466226" lon="8.97082046913402"><ele>188.6</ele><time>2026-05-01T16:07:57Z</time></trkpt><trkpt lat="41.04342452146285" lon="8.970740467671058"><ele>188.79999999999998</ele><time>2026-05-01T16:07:58Z</time></trkpt><trkpt lat="41.04351843471796" lon="8.970676720029303"><ele>189.0</ele><time>2026-05-01T16:07:59Z</time></trkpt><trkpt lat="41.04362548989992" lon="8.97065934490239"><ele>189.25</ele><time>2026-05-01T16:08:00Z</time></trkpt><trkpt lat="41.0437623048511" lon="8.970679320540997"><ele>189.5</ele><time>2026-05-01T16:08:01Z</time></trkpt><trkpt lat="41.04390771023175" lon="8.970708828340047"><ele>189.75</ele><time>2026-05-01T16:08:02Z</time></trkpt><trkpt lat="41.044054631527196" lon="8.970723000802302"><ele>190.0</ele><time>2026-05-01T16:08:03Z</time></trkpt><trkpt lat="41.044188986435266" lon="8.970725580580186"><ele>190.0</ele><time>2026-05-01T16:08:04Z</time></trkpt><trkpt lat="41.04432306894508" lon="8.970684015043567"><ele>190.0</ele><time>2026-05-01T16:08:05Z</time></trkpt><trkpt lat="41.04447055067027" lon="8.97060907462618"><ele>190.0</ele><time>2026-05-01T16:08:06Z</time></trkpt><trkpt lat="41.04462357117755" lon="8.970536497897772"><ele>190.0</ele><time>2026-05-01T16:08:07Z</time></trkpt><trkpt lat="41.044762433529044" lon="8.970465368085376"><ele>190.0</ele><time>2026-05-01T16:08:08Z</time></trkpt><trkpt lat="41.04489979263265" lon="8.970408667292908"><ele>190.0</ele><time>2026-05-01T16:08:09Z</time></trkpt><trkpt lat="41.045042906937304" lon="8.97033809038801"><ele>190.0</ele><time>2026-05-01T16:08:10Z</time></trkpt><trkpt lat="41.045192468031885" lon="8.970269219797808"><ele>190.66666666666669</ele><time>2026-05-01T16:08:11Z</time></trkpt><trkpt lat="41.045347127944375" lon="8.970189305166533"><ele>191.33333333333334</ele><time>2026-05-01T16:08:12Z</time></trkpt><trkpt lat="41.04550035188171" lon="8.970091121808453"><ele>192.0</ele><time>2026-05-01T16:08:13Z</time></trkpt><trkpt lat="41.045651816299966" lon="8.969977467190185"><ele>191.33333333333334</ele><time>2026-05-01T16:08:14Z</time></trkpt><trkpt lat="41.04579710788375" lon="8.969855066232228"><ele>190.66666666666669</ele><time>2026-05-01T16:08:15Z</time></trkpt><trkpt lat="41.04594111928804" lon="8.96973526649765"><ele>190.0</ele><time>2026-05-01T16:08:16Z</time></trkpt><trkpt lat="41.04608286730259" lon="8.969620464402515"><ele>190.0</ele><time>2026-05-01T16:08:17Z</time></trkpt><trkpt lat="41.046226755326614" lon="8.96950872768793"><ele>190.0</ele><time>2026-05-01T16:08:18Z</time></trkpt><trkpt lat="41.04636887203336" lon="8.96940096202915"><ele>190.0</ele><time>2026-05-01T16:08:19Z</time></trkpt><trkpt lat="41.04650793868292" lon="8.969290315783395"><ele>191.5</ele><time>2026-05-01T16:08:20Z</time></trkpt><trkpt lat="41.04664501816391" lon="8.969180381511565"><ele>193.0</ele><time>2026-05-01T16:08:21Z</time></trkpt><trkpt lat="41.0467756055699" lon="8.969076881027322"><ele>194.5</ele><time>2026-05-01T16:08:22Z</time></trkpt><trkpt lat="41.04688493441639" lon="8.968989726564601"><ele>196.0</ele><time>2026-05-01T16:08:23Z</time></trkpt><trkpt lat="41.046993096417566" lon="8.96889950080767"><ele>196.0</ele><time>2026-05-01T16:08:24Z</time></trkpt><trkpt lat="41.04710438207849" lon="8.96879654595002"><ele>196.0</ele><time>2026-05-01T16:08:25Z</time></trkpt><trkpt lat="41.047216044062395" lon="8.968683255105146"><ele>196.0</ele><time>2026-05-01T16:08:26Z</time></trkpt><trkpt lat="41.04732664036505" lon="8.968556770657617"><ele>196.0</ele><time>2026-05-01T16:08:27Z</time></trkpt><trkpt lat="41.04743399839474" lon="8.9684374463474"><ele>197.25</ele><time>2026-05-01T16:08:28Z</time></trkpt><trkpt lat="41.047546275289996" lon="8.968292714931916"><ele>198.5</ele><time>2026-05-01T16:08:29Z</time></trkpt><trkpt lat="41.047667629006924" lon="8.968171918798497"><ele>199.75</ele><time>2026-05-01T16:08:30Z</time></trkpt><trkpt lat="41.047791105736245" lon="8.968087561892688"><ele>201.0</ele><time>2026-05-01T16:08:31Z</time></trkpt><trkpt lat="41.04792247291506" lon="8.96801414400994"><ele>201.0</ele><time>2026-05-01T16:08:32Z</time></trkpt><trkpt lat="41.04805732892637" lon="8.967936266716812"><ele>201.0</ele><time>2026-05-01T16:08:33Z</time></trkpt><trkpt lat="41.048194282298056" lon="8.9678519350987"><ele>201.0</ele><time>2026-05-01T16:08:34Z</time></trkpt><trkpt lat="41.04833167302474" lon="8.967768292715748"><ele>201.0</ele><time>2026-05-01T16:08:35Z</time></trkpt><trkpt lat="41.04847188803649" lon="8.967679926482663"><ele>201.25</ele><time>2026-05-01T16:08:36Z</time></trkpt><trkpt lat="41.04860617709929" lon="8.967599202108357"><ele>201.5</ele><time>2026-05-01T16:08:37Z</time></trkpt><trkpt lat="41.04872174141403" lon="8.96752330431486"><ele>201.75</ele><time>2026-05-01T16:08:38Z</time></trkpt><trkpt lat="41.04883885093193" lon="8.967432208666436"><ele>202.0</ele><time>2026-05-01T16:08:39Z</time></trkpt><trkpt lat="41.0489401730251" lon="8.96731778745944"><ele>201.33333333333331</ele><time>2026-05-01T16:08:40Z</time></trkpt><trkpt lat="41.049044221529236" lon="8.96717174490714"><ele>200.66666666666669</ele><time>2026-05-01T16:08:41Z</time></trkpt><trkpt lat="41.04916058585892" lon="8.967033788744994"><ele>200.0</ele><time>2026-05-01T16:08:42Z</time></trkpt><trkpt lat="41.04927132655258" lon="8.966885824084418"><ele>200.0</ele><time>2026-05-01T16:08:43Z</time></trkpt><trkpt lat="41.049387661207454" lon="8.96672961028468"><ele>200.0</ele><time>2026-05-01T16:08:44Z</time></trkpt><trkpt lat="41.04951118935081" lon="8.96656036207547"><ele>200.0</ele><time>2026-05-01T16:08:45Z</time></trkpt><trkpt lat="41.04964461483934" lon="8.966394992716605"><ele>197.66666666666669</ele><time>2026-05-01T16:08:46Z</time></trkpt><trkpt lat="41.04976780479437" lon="8.966238705710511"><ele>195.33333333333331</ele><time>2026-05-01T16:08:47Z</time></trkpt><trkpt lat="41.04989240356697" lon="8.966101306665921"><ele>193.0</ele><time>2026-05-01T16:08:48Z</time></trkpt><trkpt lat="41.05001768075709" lon="8.965959705442081"><ele>191.0</ele><time>2026-05-01T16:08:49Z</time></trkpt><trkpt lat="41.05012752470841" lon="8.96582797336865"><ele>189.0</ele><time>2026-05-01T16:08:50Z</time></trkpt><trkpt lat="41.05023283064264" lon="8.965693286650183"><ele>187.0</ele><time>2026-05-01T16:08:51Z</time></trkpt><trkpt lat="41.05033222947479" lon="8.965563900228291"><ele>185.0</ele><time>2026-05-01T16:08:52Z</time></trkpt><trkpt lat="41.05043139508847" lon="8.965442294459086"><ele>185.0</ele><time>2026-05-01T16:08:53Z</time></trkpt><trkpt lat="41.050529106714755" lon="8.965339653034247"><ele>185.0</ele><time>2026-05-01T16:08:54Z</time></trkpt><trkpt lat="41.05063323511934" lon="8.96525639745544"><ele>185.0</ele><time>2026-05-01T16:08:55Z</time></trkpt><trkpt lat="41.05072715329421" lon="8.965197483105378"><ele>185.0</ele><time>2026-05-01T16:08:56Z</time></trkpt><trkpt lat="41.05081312167726" lon="8.965154617959824"><ele>185.0</ele><time>2026-05-01T16:08:57Z</time></trkpt><trkpt lat="41.05088865616579" lon="8.965126287590245"><ele>184.66666666666666</ele><time>2026-05-01T16:08:58Z</time></trkpt><trkpt lat="41.05095630071972" lon="8.965097894316083"><ele>184.33333333333331</ele><time>2026-05-01T16:08:59Z</time></trkpt><trkpt lat="41.05103619300517" lon="8.965055278239603"><ele>184.0</ele><time>2026-05-01T16:09:01Z</time></trkpt><trkpt lat="41.0510984502115" lon="8.965020577654442"><ele>183.66666666666666</ele><time>2026-05-01T16:09:03Z</time></trkpt><trkpt lat="41.05117128860702" lon="8.964987661045663"><ele>183.33333333333334</ele><time>2026-05-01T16:09:05Z</time></trkpt><trkpt lat="41.05124843010885" lon="8.964934488190622"><ele>183.0</ele><time>2026-05-01T16:09:07Z</time></trkpt><trkpt lat="41.051360045595764" lon="8.964871477386012"><ele>182.16666666666666</ele><time>2026-05-01T16:09:09Z</time></trkpt><trkpt lat="41.0514350786587" lon="8.964835721164699"><ele>181.33333333333334</ele><time>2026-05-01T16:09:10Z</time></trkpt><trkpt lat="41.05150881453364" lon="8.964791186780792"><ele>180.5</ele><time>2026-05-01T16:09:11Z</time></trkpt><trkpt lat="41.05158234468222" lon="8.96473909239123"><ele>179.66666666666669</ele><time>2026-05-01T16:09:12Z</time></trkpt><trkpt lat="41.05165770161503" lon="8.964669704371449"><ele>178.83333333333334</ele><time>2026-05-01T16:09:13Z</time></trkpt><trkpt lat="41.05173475796765" lon="8.964583938243074"><ele>178.0</ele><time>2026-05-01T16:09:14Z</time></trkpt><trkpt lat="41.05180803616071" lon="8.964485172491184"><ele>178.0</ele><time>2026-05-01T16:09:15Z</time></trkpt><trkpt lat="41.05187816849858" lon="8.964380127139108"><ele>178.0</ele><time>2026-05-01T16:09:16Z</time></trkpt><trkpt lat="41.051939159491596" lon="8.964259948224665"><ele>178.0</ele><time>2026-05-01T16:09:17Z</time></trkpt><trkpt lat="41.051996232666205" lon="8.96412973693144"><ele>178.0</ele><time>2026-05-01T16:09:18Z</time></trkpt><trkpt lat="41.05204668184509" lon="8.96401244140041"><ele>178.0</ele><time>2026-05-01T16:09:19Z</time></trkpt><trkpt lat="41.052102335364765" lon="8.963901684647396"><ele>176.5</ele><time>2026-05-01T16:09:20Z</time></trkpt><trkpt lat="41.05215854307978" lon="8.96377061833427"><ele>175.0</ele><time>2026-05-01T16:09:21Z</time></trkpt><trkpt lat="41.05221445832567" lon="8.963639294811664"><ele>173.5</ele><time>2026-05-01T16:09:22Z</time></trkpt><trkpt lat="41.05227233996756" lon="8.96349735746737"><ele>172.0</ele><time>2026-05-01T16:09:23Z</time></trkpt><trkpt lat="41.05233797367789" lon="8.96334175215697"><ele>170.75</ele><time>2026-05-01T16:09:24Z</time></trkpt><trkpt lat="41.05240413111162" lon="8.963178002271754"><ele>169.5</ele><time>2026-05-01T16:09:25Z</time></trkpt><trkpt lat="41.052469647712805" lon="8.963010635465361"><ele>168.25</ele><time>2026-05-01T16:09:26Z</time></trkpt><trkpt lat="41.052534684699616" lon="8.962854589018118"><ele>167.0</ele><time>2026-05-01T16:09:27Z</time></trkpt><trkpt lat="41.05259765422666" lon="8.962699200669743"><ele>166.75</ele><time>2026-05-01T16:09:28Z</time></trkpt><trkpt lat="41.05265553440311" lon="8.962544411960994"><ele>166.5</ele><time>2026-05-01T16:09:29Z</time></trkpt><trkpt lat="41.05269935407316" lon="8.962386636129768"><ele>166.25</ele><time>2026-05-01T16:09:30Z</time></trkpt><trkpt lat="41.052725081451904" lon="8.962204009141194"><ele>166.0</ele><time>2026-05-01T16:09:31Z</time></trkpt><trkpt lat="41.052709181621495" lon="8.961981652330403"><ele>166.0</ele><time>2026-05-01T16:09:32Z</time></trkpt><trkpt lat="41.05267667538995" lon="8.961764999113743"><ele>166.0</ele><time>2026-05-01T16:09:33Z</time></trkpt><trkpt lat="41.052654204315004" lon="8.961574979854971"><ele>166.0</ele><time>2026-05-01T16:09:34Z</time></trkpt><trkpt lat="41.052647235367836" lon="8.961403522131402"><ele>166.0</ele><time>2026-05-01T16:09:35Z</time></trkpt><trkpt lat="41.05265452991905" lon="8.961238358354706"><ele>164.75</ele><time>2026-05-01T16:09:36Z</time></trkpt><trkpt lat="41.05266795855232" lon="8.961070041641065"><ele>163.5</ele><time>2026-05-01T16:09:37Z</time></trkpt><trkpt lat="41.052691313678466" lon="8.960903974157732"><ele>162.25</ele><time>2026-05-01T16:09:38Z</time></trkpt><trkpt lat="41.05273521772362" lon="8.960736510941645"><ele>161.0</ele><time>2026-05-01T16:09:39Z</time></trkpt><trkpt lat="41.05278506856191" lon="8.96058146536657"><ele>158.75</ele><time>2026-05-01T16:09:40Z</time></trkpt><trkpt lat="41.05283785125753" lon="8.960415601259442"><ele>156.5</ele><time>2026-05-01T16:09:41Z</time></trkpt><trkpt lat="41.0528891536567" lon="8.960251252535658"><ele>154.25</ele><time>2026-05-01T16:09:42Z</time></trkpt><trkpt lat="41.0529381105087" lon="8.960095456456093"><ele>152.0</ele><time>2026-05-01T16:09:43Z</time></trkpt><trkpt lat="41.05298684667201" lon="8.959940626377888"><ele>149.75</ele><time>2026-05-01T16:09:44Z</time></trkpt><trkpt lat="41.05302302012166" lon="8.959780221949408"><ele>147.5</ele><time>2026-05-01T16:09:45Z</time></trkpt><trkpt lat="41.05307740682985" lon="8.959624653185706"><ele>145.25</ele><time>2026-05-01T16:09:46Z</time></trkpt><trkpt lat="41.05313659391306" lon="8.959458588228602"><ele>143.0</ele><time>2026-05-01T16:09:47Z</time></trkpt><trkpt lat="41.05319600496563" lon="8.959285315277118"><ele>140.33333333333331</ele><time>2026-05-01T16:09:48Z</time></trkpt><trkpt lat="41.053257504253295" lon="8.959102224472812"><ele>137.66666666666666</ele><time>2026-05-01T16:09:49Z</time></trkpt><trkpt lat="41.053319834879154" lon="8.958917846691142"><ele>135.0</ele><time>2026-05-01T16:09:50Z</time></trkpt><trkpt lat="41.053386156948896" lon="8.958730509839004"><ele>137.5</ele><time>2026-05-01T16:09:51Z</time></trkpt><trkpt lat="41.0534449627424" lon="8.958565552965114"><ele>140.0</ele><time>2026-05-01T16:09:52Z</time></trkpt><trkpt lat="41.053499933123994" lon="8.958413623448564"><ele>142.5</ele><time>2026-05-01T16:09:53Z</time></trkpt><trkpt lat="41.05354845179906" lon="8.958275400881474"><ele>145.0</ele><time>2026-05-01T16:09:54Z</time></trkpt><trkpt lat="41.05359115957811" lon="8.958138800677826"><ele>145.0</ele><time>2026-05-01T16:09:55Z</time></trkpt><trkpt lat="41.053648684406014" lon="8.95799706161831"><ele>145.0</ele><time>2026-05-01T16:09:56Z</time></trkpt><trkpt lat="41.053690593069255" lon="8.957859618852465"><ele>145.0</ele><time>2026-05-01T16:09:57Z</time></trkpt><trkpt lat="41.05372502322192" lon="8.95772508749234"><ele>145.0</ele><time>2026-05-01T16:09:58Z</time></trkpt><trkpt lat="41.053721359274164" lon="8.957568633132624"><ele>145.25</ele><time>2026-05-01T16:09:59Z</time></trkpt><trkpt lat="41.053686806920744" lon="8.957399600791277"><ele>145.5</ele><time>2026-05-01T16:10:00Z</time></trkpt><trkpt lat="41.05363970007834" lon="8.957230799969809"><ele>145.75</ele><time>2026-05-01T16:10:01Z</time></trkpt><trkpt lat="41.053594542796034" lon="8.957048903318688"><ele>146.0</ele><time>2026-05-01T16:10:02Z</time></trkpt><trkpt lat="41.05355646386928" lon="8.956859807737912"><ele>141.66666666666666</ele><time>2026-05-01T16:10:03Z</time></trkpt><trkpt lat="41.053506402536904" lon="8.956666178587472"><ele>137.33333333333334</ele><time>2026-05-01T16:10:04Z</time></trkpt><trkpt lat="41.05342242485272" lon="8.956503732711367"><ele>133.0</ele><time>2026-05-01T16:10:05Z</time></trkpt><trkpt lat="41.05327754840591" lon="8.95638721161837"><ele>133.0</ele><time>2026-05-01T16:10:06Z</time></trkpt><trkpt lat="41.05315010582851" lon="8.95629189790457"><ele>133.0</ele><time>2026-05-01T16:10:07Z</time></trkpt><trkpt lat="41.05303410862858" lon="8.956173138564726"><ele>133.0</ele><time>2026-05-01T16:10:08Z</time></trkpt><trkpt lat="41.052933948236294" lon="8.956038300122156"><ele>133.0</ele><time>2026-05-01T16:10:09Z</time></trkpt><trkpt lat="41.05284041914885" lon="8.955887029361987"><ele>137.25</ele><time>2026-05-01T16:10:10Z</time></trkpt><trkpt lat="41.05275411317588" lon="8.95573238801552"><ele>141.5</ele><time>2026-05-01T16:10:11Z</time></trkpt><trkpt lat="41.052664435169014" lon="8.955579036079461"><ele>145.75</ele><time>2026-05-01T16:10:12Z</time></trkpt><trkpt lat="41.0525770939445" lon="8.9554323973615"><ele>150.0</ele><time>2026-05-01T16:10:13Z</time></trkpt><trkpt lat="41.0524921884153" lon="8.955294006183934"><ele>147.0</ele><time>2026-05-01T16:10:14Z</time></trkpt><trkpt lat="41.05240979251087" lon="8.955163863415907"><ele>144.0</ele><time>2026-05-01T16:10:15Z</time></trkpt><trkpt lat="41.052327281701274" lon="8.955028576839242"><ele>141.0</ele><time>2026-05-01T16:10:16Z</time></trkpt><trkpt lat="41.052249493335" lon="8.954879399136699"><ele>138.0</ele><time>2026-05-01T16:10:17Z</time></trkpt><trkpt lat="41.05216548704634" lon="8.954736913295875"><ele>138.0</ele><time>2026-05-01T16:10:18Z</time></trkpt><trkpt lat="41.05208185089889" lon="8.95459209994542"><ele>138.0</ele><time>2026-05-01T16:10:19Z</time></trkpt><trkpt lat="41.05199991222638" lon="8.954445217041542"><ele>138.0</ele><time>2026-05-01T16:10:20Z</time></trkpt><trkpt lat="41.051914008290424" lon="8.954296351018105"><ele>138.0</ele><time>2026-05-01T16:10:21Z</time></trkpt><trkpt lat="41.05183097718723" lon="8.954156781021421"><ele>137.75</ele><time>2026-05-01T16:10:22Z</time></trkpt><trkpt lat="41.05175948322684" lon="8.95400654706189"><ele>137.5</ele><time>2026-05-01T16:10:23Z</time></trkpt><trkpt lat="41.05169401580721" lon="8.953859517047956"><ele>137.25</ele><time>2026-05-01T16:10:24Z</time></trkpt><trkpt lat="41.051630790567785" lon="8.95371446563241"><ele>137.0</ele><time>2026-05-01T16:10:25Z</time></trkpt><trkpt lat="41.05157125500507" lon="8.953573439715747"><ele>137.0</ele><time>2026-05-01T16:10:26Z</time></trkpt><trkpt lat="41.05151919047723" lon="8.953433084481325"><ele>137.0</ele><time>2026-05-01T16:10:27Z</time></trkpt><trkpt lat="41.05147016627001" lon="8.953294099222687"><ele>137.0</ele><time>2026-05-01T16:10:28Z</time></trkpt><trkpt lat="41.05143034327001" lon="8.953163793799698"><ele>137.0</ele><time>2026-05-01T16:10:29Z</time></trkpt><trkpt lat="41.051385896518596" lon="8.953036210860578"><ele>137.0</ele><time>2026-05-01T16:10:30Z</time></trkpt><trkpt lat="41.051339970584145" lon="8.952892716813553"><ele>136.6</ele><time>2026-05-01T16:10:31Z</time></trkpt><trkpt lat="41.051295722543685" lon="8.952785608824517"><ele>136.2</ele><time>2026-05-01T16:10:32Z</time></trkpt><trkpt lat="41.05124926909332" lon="8.952660688019186"><ele>135.8</ele><time>2026-05-01T16:10:33Z</time></trkpt><trkpt lat="41.05119976289207" lon="8.952522023201043"><ele>135.4</ele><time>2026-05-01T16:10:34Z</time></trkpt><trkpt lat="41.051151270206056" lon="8.952373676523653"><ele>135.0</ele><time>2026-05-01T16:10:35Z</time></trkpt><trkpt lat="41.051100228832865" lon="8.952234859334695"><ele>135.0</ele><time>2026-05-01T16:10:36Z</time></trkpt><trkpt lat="41.0510399746899" lon="8.952087941245212"><ele>135.0</ele><time>2026-05-01T16:10:37Z</time></trkpt><trkpt lat="41.050989740071856" lon="8.951945899385757"><ele>135.0</ele><time>2026-05-01T16:10:38Z</time></trkpt><trkpt lat="41.05095236278658" lon="8.951816382636549"><ele>135.0</ele><time>2026-05-01T16:10:39Z</time></trkpt><trkpt lat="41.05092068896748" lon="8.951691168248514"><ele>135.0</ele><time>2026-05-01T16:10:40Z</time></trkpt><trkpt lat="41.05092172771861" lon="8.951580799504745"><ele>134.33333333333334</ele><time>2026-05-01T16:10:41Z</time></trkpt><trkpt lat="41.05092466734157" lon="8.951468482979159"><ele>133.66666666666666</ele><time>2026-05-01T16:10:42Z</time></trkpt><trkpt lat="41.05094384373333" lon="8.951354857012316"><ele>133.0</ele><time>2026-05-01T16:10:43Z</time></trkpt><trkpt lat="41.050967250950414" lon="8.951255920003662"><ele>132.33333333333331</ele><time>2026-05-01T16:10:44Z</time></trkpt><trkpt lat="41.05099684307801" lon="8.951168059766456"><ele>131.66666666666666</ele><time>2026-05-01T16:10:45Z</time></trkpt><trkpt lat="41.0510711452693" lon="8.95105385622136"><ele>131.0</ele><time>2026-05-01T16:10:47Z</time></trkpt><trkpt lat="41.05116643036688" lon="8.950989506097825"><ele>129.6</ele><time>2026-05-01T16:10:49Z</time></trkpt><trkpt lat="41.05126377368633" lon="8.950858085065688"><ele>128.2</ele><time>2026-05-01T16:10:51Z</time></trkpt><trkpt lat="41.05132348248777" lon="8.950779806441467"><ele>126.80000000000001</ele><time>2026-05-01T16:10:52Z</time></trkpt><trkpt lat="41.051381777922806" lon="8.950705140261977"><ele>125.4</ele><time>2026-05-01T16:10:53Z</time></trkpt><trkpt lat="41.051434316067265" lon="8.95062542923322"><ele>124.0</ele><time>2026-05-01T16:10:54Z</time></trkpt><trkpt lat="41.05147556756037" lon="8.950511166406331"><ele>124.0</ele><time>2026-05-01T16:10:55Z</time></trkpt><trkpt lat="41.051526769198745" lon="8.9503990406854"><ele>124.0</ele><time>2026-05-01T16:10:56Z</time></trkpt><trkpt lat="41.05161862021036" lon="8.950298981982295"><ele>124.0</ele><time>2026-05-01T16:10:57Z</time></trkpt><trkpt lat="41.051732256865506" lon="8.950225148624623"><ele>124.0</ele><time>2026-05-01T16:10:58Z</time></trkpt><trkpt lat="41.051864945032484" lon="8.950121458544505"><ele>125.6</ele><time>2026-05-01T16:10:59Z</time></trkpt><trkpt lat="41.051964473439654" lon="8.950052338869135"><ele>127.2</ele><time>2026-05-01T16:11:00Z</time></trkpt><trkpt lat="41.05205693782895" lon="8.94998797104928"><ele>128.79999999999998</ele><time>2026-05-01T16:11:01Z</time></trkpt><trkpt lat="41.05214557931265" lon="8.94990447391064"><ele>130.4</ele><time>2026-05-01T16:11:02Z</time></trkpt><trkpt lat="41.05221466586073" lon="8.949853979377796"><ele>132.0</ele><time>2026-05-01T16:11:03Z</time></trkpt><trkpt lat="41.05227991504178" lon="8.949839175967316"><ele>132.0</ele><time>2026-05-01T16:11:04Z</time></trkpt><trkpt lat="41.05234385361918" lon="8.94986058946676"><ele>132.0</ele><time>2026-05-01T16:11:05Z</time></trkpt><trkpt lat="41.05243594631008" lon="8.949885870687963"><ele>132.0</ele><time>2026-05-01T16:11:07Z</time></trkpt><trkpt lat="41.05254161684868" lon="8.949899250329903"><ele>132.0</ele><time>2026-05-01T16:11:09Z</time></trkpt><trkpt lat="41.05260348299856" lon="8.949917394266517"><ele>132.0</ele><time>2026-05-01T16:11:10Z</time></trkpt><trkpt lat="41.05268925511004" lon="8.95002481769789"><ele>132.0</ele><time>2026-05-01T16:11:12Z</time></trkpt><trkpt lat="41.0527857850863" lon="8.950110430626003"><ele>134.6</ele><time>2026-05-01T16:11:14Z</time></trkpt><trkpt lat="41.052867393826695" lon="8.95020306609403"><ele>137.2</ele><time>2026-05-01T16:11:16Z</time></trkpt><trkpt lat="41.05294648775321" lon="8.950289452238195"><ele>139.8</ele><time>2026-05-01T16:11:18Z</time></trkpt><trkpt lat="41.05302836057968" lon="8.950386481276412"><ele>142.4</ele><time>2026-05-01T16:11:20Z</time></trkpt><trkpt lat="41.05307863098551" lon="8.950517873729513"><ele>145.0</ele><time>2026-05-01T16:11:22Z</time></trkpt><trkpt lat="41.05314422203519" lon="8.95063721030353"><ele>145.0</ele><time>2026-05-01T16:11:24Z</time></trkpt><trkpt lat="41.05320773705724" lon="8.950773292083081"><ele>145.0</ele><time>2026-05-01T16:11:26Z</time></trkpt><trkpt lat="41.05324282195939" lon="8.950849363911082"><ele>145.0</ele><time>2026-05-01T16:11:27Z</time></trkpt><trkpt lat="41.053288178337745" lon="8.95093721515283"><ele>145.0</ele><time>2026-05-01T16:11:28Z</time></trkpt><trkpt lat="41.05333262254666" lon="8.951030539631676"><ele>145.0</ele><time>2026-05-01T16:11:29Z</time></trkpt><trkpt lat="41.053386300337884" lon="8.951145382530743"><ele>142.4</ele><time>2026-05-01T16:11:30Z</time></trkpt><trkpt lat="41.05343039392347" lon="8.951270901980058"><ele>139.8</ele><time>2026-05-01T16:11:31Z</time></trkpt><trkpt lat="41.05346895282604" lon="8.95140226304272"><ele>137.2</ele><time>2026-05-01T16:11:32Z</time></trkpt><trkpt lat="41.053481695143816" lon="8.951523707243489"><ele>134.6</ele><time>2026-05-01T16:11:33Z</time></trkpt><trkpt lat="41.05350401166571" lon="8.951638831748248"><ele>132.0</ele><time>2026-05-01T16:11:34Z</time></trkpt><trkpt lat="41.05353415970984" lon="8.95173037150288"><ele>132.0</ele><time>2026-05-01T16:11:35Z</time></trkpt><trkpt lat="41.053525237201356" lon="8.951832111476586"><ele>132.0</ele><time>2026-05-01T16:11:36Z</time></trkpt><trkpt lat="41.053529725679894" lon="8.951937853556377"><ele>132.0</ele><time>2026-05-01T16:11:37Z</time></trkpt><trkpt lat="41.05353448930725" lon="8.952050077780374"><ele>132.0</ele><time>2026-05-01T16:11:38Z</time></trkpt><trkpt lat="41.05356133115849" lon="8.952170508061513"><ele>132.0</ele><time>2026-05-01T16:11:39Z</time></trkpt><trkpt lat="41.05357676622825" lon="8.952292695505715"><ele>132.0</ele><time>2026-05-01T16:11:40Z</time></trkpt><trkpt lat="41.053627776691805" lon="8.952408333713901"><ele>132.0</ele><time>2026-05-01T16:11:41Z</time></trkpt><trkpt lat="41.05371489745612" lon="8.952458713827069"><ele>132.0</ele><time>2026-05-01T16:11:42Z</time></trkpt><trkpt lat="41.05382073691756" lon="8.952465787583572"><ele>132.0</ele><time>2026-05-01T16:11:43Z</time></trkpt><trkpt lat="41.05392170483122" lon="8.952469326033476"><ele>132.0</ele><time>2026-05-01T16:11:44Z</time></trkpt><trkpt lat="41.054038975745165" lon="8.952496780357295"><ele>132.0</ele><time>2026-05-01T16:11:45Z</time></trkpt><trkpt lat="41.05415591994003" lon="8.952544197690393"><ele>134.79999999999998</ele><time>2026-05-01T16:11:46Z</time></trkpt><trkpt lat="41.054280418725746" lon="8.952581945857329"><ele>137.6</ele><time>2026-05-01T16:11:47Z</time></trkpt><trkpt lat="41.054399126934115" lon="8.952627987921753"><ele>140.39999999999998</ele><time>2026-05-01T16:11:48Z</time></trkpt><trkpt lat="41.05449062264365" lon="8.9526653317413"><ele>143.2</ele><time>2026-05-01T16:11:49Z</time></trkpt><trkpt lat="41.054585882524705" lon="8.952701456000382"><ele>146.0</ele><time>2026-05-01T16:11:50Z</time></trkpt><trkpt lat="41.05466054317572" lon="8.952740697356573"><ele>146.0</ele><time>2026-05-01T16:11:51Z</time></trkpt><trkpt lat="41.05474899318645" lon="8.952787827302224"><ele>146.0</ele><time>2026-05-01T16:11:52Z</time></trkpt><trkpt lat="41.05483466367116" lon="8.952839756211482"><ele>146.0</ele><time>2026-05-01T16:11:53Z</time></trkpt><trkpt lat="41.0549175862376" lon="8.952906286734803"><ele>146.0</ele><time>2026-05-01T16:11:54Z</time></trkpt><trkpt lat="41.05499831134054" lon="8.95297789009996"><ele>146.0</ele><time>2026-05-01T16:11:55Z</time></trkpt><trkpt lat="41.05507492962238" lon="8.95305580718781"><ele>146.0</ele><time>2026-05-01T16:11:56Z</time></trkpt><trkpt lat="41.05514055622415" lon="8.953152203922652"><ele>146.0</ele><time>2026-05-01T16:11:57Z</time></trkpt><trkpt lat="41.05519448527251" lon="8.953265106108892"><ele>146.0</ele><time>2026-05-01T16:11:58Z</time></trkpt><trkpt lat="41.05524434114486" lon="8.953391117947694"><ele>146.0</ele><time>2026-05-01T16:11:59Z</time></trkpt><trkpt lat="41.05530338071308" lon="8.953512370465292"><ele>146.0</ele><time>2026-05-01T16:12:00Z</time></trkpt><trkpt lat="41.05536580153912" lon="8.953631046469289"><ele>146.0</ele><time>2026-05-01T16:12:01Z</time></trkpt><trkpt lat="41.05542852341858" lon="8.953752245199711"><ele>146.0</ele><time>2026-05-01T16:12:02Z</time></trkpt><trkpt lat="41.05546513485352" lon="8.95388954435182"><ele>146.0</ele><time>2026-05-01T16:12:03Z</time></trkpt><trkpt lat="41.055521294766606" lon="8.954026407974947"><ele>146.0</ele><time>2026-05-01T16:12:04Z</time></trkpt><trkpt lat="41.05555534006929" lon="8.954179408229228"><ele>148.6</ele><time>2026-05-01T16:12:05Z</time></trkpt><trkpt lat="41.05559782505646" lon="8.954328183000248"><ele>151.2</ele><time>2026-05-01T16:12:06Z</time></trkpt><trkpt lat="41.055637860218894" lon="8.954466221440743"><ele>153.8</ele><time>2026-05-01T16:12:07Z</time></trkpt><trkpt lat="41.05566100852329" lon="8.954588977427838"><ele>156.4</ele><time>2026-05-01T16:12:08Z</time></trkpt><trkpt lat="41.05568095235161" lon="8.954717028906098"><ele>159.0</ele><time>2026-05-01T16:12:09Z</time></trkpt><trkpt lat="41.05570325982795" lon="8.954833780302428"><ele>159.0</ele><time>2026-05-01T16:12:10Z</time></trkpt><trkpt lat="41.055723383350546" lon="8.954934546484425"><ele>159.0</ele><time>2026-05-01T16:12:11Z</time></trkpt><trkpt lat="41.055802842587156" lon="8.955051952089638"><ele>159.0</ele><time>2026-05-01T16:12:13Z</time></trkpt><trkpt lat="41.055871140790536" lon="8.95506280462545"><ele>159.0</ele><time>2026-05-01T16:12:14Z</time></trkpt><trkpt lat="41.05594430524457" lon="8.955040595186079"><ele>159.0</ele><time>2026-05-01T16:12:15Z</time></trkpt><trkpt lat="41.05601637078629" lon="8.95499387657211"><ele>159.0</ele><time>2026-05-01T16:12:16Z</time></trkpt><trkpt lat="41.05608433652046" lon="8.95494821255833"><ele>154.0</ele><time>2026-05-01T16:12:17Z</time></trkpt><trkpt lat="41.05618675382837" lon="8.95507338893639"><ele>149.0</ele><time>2026-05-01T16:12:19Z</time></trkpt><trkpt lat="41.05627477357819" lon="8.955118467611758"><ele>144.0</ele><time>2026-05-01T16:12:21Z</time></trkpt><trkpt lat="41.05635185630648" lon="8.955079687383659"><ele>139.0</ele><time>2026-05-01T16:12:23Z</time></trkpt><trkpt lat="41.0563474916267" lon="8.954928353758826"><ele>134.0</ele><time>2026-05-01T16:12:25Z</time></trkpt><trkpt lat="41.05628477295638" lon="8.954808602093275"><ele>130.83333333333331</ele><time>2026-05-01T16:12:27Z</time></trkpt><trkpt lat="41.0561917708304" lon="8.954724233648392"><ele>127.66666666666666</ele><time>2026-05-01T16:12:29Z</time></trkpt><trkpt lat="41.05611545034037" lon="8.95472838407194"><ele>124.5</ele><time>2026-05-01T16:12:30Z</time></trkpt><trkpt lat="41.05604835278788" lon="8.954716562163645"><ele>121.33333333333334</ele><time>2026-05-01T16:12:31Z</time></trkpt><trkpt lat="41.055985456204766" lon="8.954705480390645"><ele>118.16666666666667</ele><time>2026-05-01T16:12:32Z</time></trkpt><trkpt lat="41.0559378308244" lon="8.954614722632625"><ele>115.0</ele><time>2026-05-01T16:12:34Z</time></trkpt><trkpt lat="41.05596086036054" lon="8.954536822104746"><ele>115.0</ele><time>2026-05-01T16:12:35Z</time></trkpt><trkpt lat="41.05599129386397" lon="8.954457912406056"><ele>115.0</ele><time>2026-05-01T16:12:36Z</time></trkpt><trkpt lat="41.05604370236448" lon="8.954342426492135"><ele>115.0</ele><time>2026-05-01T16:12:38Z</time></trkpt><trkpt lat="41.056098312195175" lon="8.954240795544123"><ele>115.0</ele><time>2026-05-01T16:12:41Z</time></trkpt><trkpt lat="41.05614799082382" lon="8.954128457147421"><ele>115.0</ele><time>2026-05-01T16:12:44Z</time></trkpt><trkpt lat="41.05611303143338" lon="8.953974010549649"><ele>113.0</ele><time>2026-05-01T16:12:46Z</time></trkpt><trkpt lat="41.056078256859514" lon="8.953834673963469"><ele>111.0</ele><time>2026-05-01T16:12:48Z</time></trkpt><trkpt lat="41.05605729143352" lon="8.953702889876197"><ele>109.0</ele><time>2026-05-01T16:12:50Z</time></trkpt><trkpt lat="41.05603041683846" lon="8.953563314848191"><ele>107.0</ele><time>2026-05-01T16:12:52Z</time></trkpt><trkpt lat="41.05601534108064" lon="8.95343337301414"><ele>105.0</ele><time>2026-05-01T16:12:54Z</time></trkpt><trkpt lat="41.05599350396533" lon="8.953310576891692"><ele>103.6</ele><time>2026-05-01T16:12:56Z</time></trkpt><trkpt lat="41.055966532122845" lon="8.953192224992128"><ele>102.2</ele><time>2026-05-01T16:12:58Z</time></trkpt><trkpt lat="41.055961045322114" lon="8.95306628159346"><ele>100.80000000000001</ele><time>2026-05-01T16:13:00Z</time></trkpt><trkpt lat="41.05594779260121" lon="8.952976073263322"><ele>99.4</ele><time>2026-05-01T16:13:02Z</time></trkpt><trkpt lat="41.05603935331744" lon="8.952999598027697"><ele>98.0</ele><time>2026-05-01T16:13:04Z</time></trkpt><trkpt lat="41.05612740463393" lon="8.95307962399692"><ele>98.0</ele><time>2026-05-01T16:13:06Z</time></trkpt><trkpt lat="41.05620753227493" lon="8.953190223049022"><ele>98.0</ele><time>2026-05-01T16:13:08Z</time></trkpt><trkpt lat="41.05629331976592" lon="8.953275468339934"><ele>98.0</ele><time>2026-05-01T16:13:10Z</time></trkpt><trkpt lat="41.05643151904717" lon="8.953275026801963"><ele>98.0</ele><time>2026-05-01T16:13:12Z</time></trkpt><trkpt lat="41.05649451963045" lon="8.953239720314054"><ele>98.0</ele><time>2026-05-01T16:13:13Z</time></trkpt><trkpt lat="41.05654593014681" lon="8.953160931673768"><ele>97.99999999999999</ele><time>2026-05-01T16:13:15Z</time></trkpt><trkpt lat="41.056601856600444" lon="8.953055822175546"><ele>98.0</ele><time>2026-05-01T16:13:21Z</time></trkpt><trkpt lat="41.0566231779016" lon="8.95297582522755"><ele>98.0</ele><time>2026-05-01T16:13:22Z</time></trkpt><trkpt lat="41.05667134419569" lon="8.952888916580727"><ele>98.0</ele><time>2026-05-01T16:13:23Z</time></trkpt><trkpt lat="41.05672506933328" lon="8.95280483059181"><ele>97.99999999999999</ele><time>2026-05-01T16:13:24Z</time></trkpt><trkpt lat="41.0567127194645" lon="8.95264758172932"><ele>98.0</ele><time>2026-05-01T16:13:26Z</time></trkpt><trkpt lat="41.05668580693442" lon="8.952544326255083"><ele>96.33333333333333</ele><time>2026-05-01T16:13:27Z</time></trkpt><trkpt lat="41.056647308921804" lon="8.952448598981995"><ele>94.66666666666666</ele><time>2026-05-01T16:13:28Z</time></trkpt><trkpt lat="41.056604435444356" lon="8.952352337467893"><ele>93.0</ele><time>2026-05-01T16:13:29Z</time></trkpt><trkpt lat="41.05656348060202" lon="8.952248414355473"><ele>91.33333333333333</ele><time>2026-05-01T16:13:30Z</time></trkpt><trkpt lat="41.05652184148872" lon="8.952148777137948"><ele>89.66666666666666</ele><time>2026-05-01T16:13:31Z</time></trkpt><trkpt lat="41.05647850621367" lon="8.95205436365318"><ele>88.0</ele><time>2026-05-01T16:13:32Z</time></trkpt><trkpt lat="41.056431220782876" lon="8.951967653805658"><ele>88.0</ele><time>2026-05-01T16:13:33Z</time></trkpt><trkpt lat="41.05638156883618" lon="8.951888907272487"><ele>88.0</ele><time>2026-05-01T16:13:34Z</time></trkpt><trkpt lat="41.05633578113815" lon="8.951800141318632"><ele>88.0</ele><time>2026-05-01T16:13:35Z</time></trkpt><trkpt lat="41.056278092217035" lon="8.951723584453227"><ele>88.0</ele><time>2026-05-01T16:13:36Z</time></trkpt><trkpt lat="41.05621726160881" lon="8.951648027089192"><ele>88.0</ele><time>2026-05-01T16:13:37Z</time></trkpt><trkpt lat="41.056160440063294" lon="8.95156846821472"><ele>88.0</ele><time>2026-05-01T16:13:38Z</time></trkpt><trkpt lat="41.056100461552845" lon="8.951486887354765"><ele>85.60000000000001</ele><time>2026-05-01T16:13:39Z</time></trkpt><trkpt lat="41.05605719159821" lon="8.951406553741325"><ele>83.2</ele><time>2026-05-01T16:13:40Z</time></trkpt><trkpt lat="41.05600134279462" lon="8.951278223508318"><ele>80.8</ele><time>2026-05-01T16:13:42Z</time></trkpt><trkpt lat="41.05606103436484" lon="8.951155830829116"><ele>78.4</ele><time>2026-05-01T16:13:44Z</time></trkpt><trkpt lat="41.05614237505189" lon="8.95105416879631"><ele>76.0</ele><time>2026-05-01T16:13:46Z</time></trkpt><trkpt lat="41.05624106410248" lon="8.951049997169529"><ele>76.0</ele><time>2026-05-01T16:13:47Z</time></trkpt><trkpt lat="41.05632113682552" lon="8.95103808137123"><ele>76.0</ele><time>2026-05-01T16:13:48Z</time></trkpt><trkpt lat="41.05642331122364" lon="8.951059939401443"><ele>76.0</ele><time>2026-05-01T16:13:49Z</time></trkpt><trkpt lat="41.05653331090581" lon="8.951098187681335"><ele>76.0</ele><time>2026-05-01T16:13:50Z</time></trkpt><trkpt lat="41.05664325869486" lon="8.951142955055634"><ele>76.0</ele><time>2026-05-01T16:13:51Z</time></trkpt><trkpt lat="41.05673500900287" lon="8.951186967316954"><ele>75.33333333333333</ele><time>2026-05-01T16:13:52Z</time></trkpt><trkpt lat="41.056816120190305" lon="8.951208778130642"><ele>74.66666666666666</ele><time>2026-05-01T16:13:53Z</time></trkpt><trkpt lat="41.05689813231323" lon="8.951196706396203"><ele>74.0</ele><time>2026-05-01T16:13:54Z</time></trkpt><trkpt lat="41.05696948102253" lon="8.951122642584835"><ele>73.33333333333333</ele><time>2026-05-01T16:13:55Z</time></trkpt><trkpt lat="41.05698943015298" lon="8.95101640851609"><ele>72.66666666666667</ele><time>2026-05-01T16:13:56Z</time></trkpt><trkpt lat="41.056963341942634" lon="8.95090654551976"><ele>72.0</ele><time>2026-05-01T16:13:57Z</time></trkpt><trkpt lat="41.05690331434331" lon="8.950815738268265"><ele>70.66666666666667</ele><time>2026-05-01T16:13:58Z</time></trkpt><trkpt lat="41.05684527986288" lon="8.950716323751974"><ele>69.33333333333333</ele><time>2026-05-01T16:13:59Z</time></trkpt><trkpt lat="41.05678355528228" lon="8.950628110945086"><ele>68.0</ele><time>2026-05-01T16:14:00Z</time></trkpt><trkpt lat="41.05672718193748" lon="8.950572005396584"><ele>66.66666666666666</ele><time>2026-05-01T16:14:01Z</time></trkpt><trkpt lat="41.05667193992859" lon="8.950490116193"><ele>65.33333333333333</ele><time>2026-05-01T16:14:03Z</time></trkpt><trkpt lat="41.05661869891437" lon="8.950434541394307"><ele>64.0</ele><time>2026-05-01T16:14:05Z</time></trkpt><trkpt lat="41.05656519520765" lon="8.95033485249459"><ele>64.0</ele><time>2026-05-01T16:14:08Z</time></trkpt><trkpt lat="41.05662793309524" lon="8.950303038433088"><ele>62.0</ele><time>2026-05-01T16:14:11Z</time></trkpt><trkpt lat="41.05672013065409" lon="8.950323003207066"><ele>62.0</ele><time>2026-05-01T16:14:13Z</time></trkpt><trkpt lat="41.056806627865264" lon="8.95033811187953"><ele>62.0</ele><time>2026-05-01T16:14:15Z</time></trkpt><trkpt lat="41.05687447420178" lon="8.950353831447742"><ele>62.0</ele><time>2026-05-01T16:14:18Z</time></trkpt><trkpt lat="41.05694299645332" lon="8.950359414804527"><ele>62.0</ele><time>2026-05-01T16:14:44Z</time></trkpt><trkpt lat="41.05700113258478" lon="8.950394944582323"><ele>62.0</ele><time>2026-05-01T16:14:51Z</time></trkpt></trkseg></trk></gpx>